<?xml version="1.0" encoding="UTF-8" standalone="no" ?>
<gpx xmlns="http://www.topografix.com/GPX/1/1" xmlns:xsi="http://www.w3.org/2001/XMLSchema-instance" xsi:schemaLocation="http://www.topografix.com/GPX/1/1 http://www.topografix.com/GPX/1/1/gpx.xsd" version="1.1" creator="VisuGPX - https://www.visugpx.com">
  <metadata>
    <name>190601_Tresques35</name>
  </metadata>
  <trk>
    <name><![CDATA[190601_Tresques35]]></name>
    <trkseg>
      <trkpt lat="44.11424" lon="4.61257">
        <ele>85.9</ele>
        <time>2019-06-01T06:15:00Z</time>
      </trkpt>
      <trkpt lat="44.11425" lon="4.61253">
        <ele>86</ele>
        <time>2019-06-01T06:15:10Z</time>
      </trkpt>
      <trkpt lat="44.11425" lon="4.61245">
        <ele>86.1</ele>
        <time>2019-06-01T06:15:58Z</time>
      </trkpt>
      <trkpt lat="44.11423" lon="4.61242">
        <ele>86.1</ele>
        <time>2019-06-01T06:16:00Z</time>
      </trkpt>
      <trkpt lat="44.11425" lon="4.61245">
        <ele>86.2</ele>
        <time>2019-06-01T06:16:03Z</time>
      </trkpt>
      <trkpt lat="44.11428" lon="4.61248">
        <ele>86.3</ele>
        <time>2019-06-01T06:16:04Z</time>
      </trkpt>
      <trkpt lat="44.11431" lon="4.61251">
        <ele>86.3</ele>
        <time>2019-06-01T06:16:05Z</time>
      </trkpt>
      <trkpt lat="44.11433" lon="4.61254">
        <ele>86.4</ele>
        <time>2019-06-01T06:16:06Z</time>
      </trkpt>
      <trkpt lat="44.11433" lon="4.61259">
        <ele>86.4</ele>
        <time>2019-06-01T06:16:08Z</time>
      </trkpt>
      <trkpt lat="44.11427" lon="4.61257">
        <ele>86.5</ele>
        <time>2019-06-01T06:16:10Z</time>
      </trkpt>
      <trkpt lat="44.11424" lon="4.61254">
        <ele>86.6</ele>
        <time>2019-06-01T06:16:11Z</time>
      </trkpt>
      <trkpt lat="44.11421" lon="4.61251">
        <ele>86.7</ele>
        <time>2019-06-01T06:16:12Z</time>
      </trkpt>
      <trkpt lat="44.11419" lon="4.61248">
        <ele>86.7</ele>
        <time>2019-06-01T06:16:13Z</time>
      </trkpt>
      <trkpt lat="44.11416" lon="4.61245">
        <ele>86.8</ele>
        <time>2019-06-01T06:16:14Z</time>
      </trkpt>
      <trkpt lat="44.11414" lon="4.61242">
        <ele>86.9</ele>
        <time>2019-06-01T06:16:15Z</time>
      </trkpt>
      <trkpt lat="44.11411" lon="4.61239">
        <ele>87.1</ele>
        <time>2019-06-01T06:16:16Z</time>
      </trkpt>
      <trkpt lat="44.11408" lon="4.61236">
        <ele>87.2</ele>
        <time>2019-06-01T06:16:17Z</time>
      </trkpt>
      <trkpt lat="44.11406" lon="4.61233">
        <ele>87.3</ele>
        <time>2019-06-01T06:16:18Z</time>
      </trkpt>
      <trkpt lat="44.11403" lon="4.61231">
        <ele>87.4</ele>
        <time>2019-06-01T06:16:19Z</time>
      </trkpt>
      <trkpt lat="44.11401" lon="4.61228">
        <ele>87.5</ele>
        <time>2019-06-01T06:16:20Z</time>
      </trkpt>
      <trkpt lat="44.11398" lon="4.61226">
        <ele>87.6</ele>
        <time>2019-06-01T06:16:21Z</time>
      </trkpt>
      <trkpt lat="44.11395" lon="4.61224">
        <ele>87.7</ele>
        <time>2019-06-01T06:16:22Z</time>
      </trkpt>
      <trkpt lat="44.11392" lon="4.61222">
        <ele>87.8</ele>
        <time>2019-06-01T06:16:23Z</time>
      </trkpt>
      <trkpt lat="44.1139" lon="4.6122">
        <ele>87.8</ele>
        <time>2019-06-01T06:16:24Z</time>
      </trkpt>
      <trkpt lat="44.11387" lon="4.61217">
        <ele>87.8</ele>
        <time>2019-06-01T06:16:25Z</time>
      </trkpt>
      <trkpt lat="44.11384" lon="4.61215">
        <ele>87.8</ele>
        <time>2019-06-01T06:16:26Z</time>
      </trkpt>
      <trkpt lat="44.11381" lon="4.61212">
        <ele>87.8</ele>
        <time>2019-06-01T06:16:27Z</time>
      </trkpt>
      <trkpt lat="44.11378" lon="4.6121">
        <ele>87.9</ele>
        <time>2019-06-01T06:16:28Z</time>
      </trkpt>
      <trkpt lat="44.11375" lon="4.61208">
        <ele>87.8</ele>
        <time>2019-06-01T06:16:29Z</time>
      </trkpt>
      <trkpt lat="44.11372" lon="4.61205">
        <ele>87.9</ele>
        <time>2019-06-01T06:16:30Z</time>
      </trkpt>
      <trkpt lat="44.11369" lon="4.61202">
        <ele>88.1</ele>
        <time>2019-06-01T06:16:31Z</time>
      </trkpt>
      <trkpt lat="44.11366" lon="4.61199">
        <ele>88.2</ele>
        <time>2019-06-01T06:16:32Z</time>
      </trkpt>
      <trkpt lat="44.11363" lon="4.61196">
        <ele>88.3</ele>
        <time>2019-06-01T06:16:33Z</time>
      </trkpt>
      <trkpt lat="44.1136" lon="4.61193">
        <ele>88.5</ele>
        <time>2019-06-01T06:16:34Z</time>
      </trkpt>
      <trkpt lat="44.11357" lon="4.61191">
        <ele>88.7</ele>
        <time>2019-06-01T06:16:35Z</time>
      </trkpt>
      <trkpt lat="44.11354" lon="4.61189">
        <ele>88.8</ele>
        <time>2019-06-01T06:16:36Z</time>
      </trkpt>
      <trkpt lat="44.11351" lon="4.61186">
        <ele>89</ele>
        <time>2019-06-01T06:16:37Z</time>
      </trkpt>
      <trkpt lat="44.11348" lon="4.61183">
        <ele>89.2</ele>
        <time>2019-06-01T06:16:38Z</time>
      </trkpt>
      <trkpt lat="44.11345" lon="4.6118">
        <ele>89.4</ele>
        <time>2019-06-01T06:16:39Z</time>
      </trkpt>
      <trkpt lat="44.11342" lon="4.61177">
        <ele>89.5</ele>
        <time>2019-06-01T06:16:40Z</time>
      </trkpt>
      <trkpt lat="44.11339" lon="4.61174">
        <ele>89.5</ele>
        <time>2019-06-01T06:16:41Z</time>
      </trkpt>
      <trkpt lat="44.11336" lon="4.61171">
        <ele>89.6</ele>
        <time>2019-06-01T06:16:42Z</time>
      </trkpt>
      <trkpt lat="44.11333" lon="4.61168">
        <ele>89.7</ele>
        <time>2019-06-01T06:16:43Z</time>
      </trkpt>
      <trkpt lat="44.11329" lon="4.61165">
        <ele>89.8</ele>
        <time>2019-06-01T06:16:44Z</time>
      </trkpt>
      <trkpt lat="44.11326" lon="4.61162">
        <ele>89.9</ele>
        <time>2019-06-01T06:16:45Z</time>
      </trkpt>
      <trkpt lat="44.11323" lon="4.61159">
        <ele>89.8</ele>
        <time>2019-06-01T06:16:46Z</time>
      </trkpt>
      <trkpt lat="44.1132" lon="4.61156">
        <ele>89.9</ele>
        <time>2019-06-01T06:16:47Z</time>
      </trkpt>
      <trkpt lat="44.11317" lon="4.61153">
        <ele>89.9</ele>
        <time>2019-06-01T06:16:48Z</time>
      </trkpt>
      <trkpt lat="44.11314" lon="4.6115">
        <ele>90</ele>
        <time>2019-06-01T06:16:49Z</time>
      </trkpt>
      <trkpt lat="44.1131" lon="4.61147">
        <ele>90.1</ele>
        <time>2019-06-01T06:16:50Z</time>
      </trkpt>
      <trkpt lat="44.11307" lon="4.61144">
        <ele>90.1</ele>
        <time>2019-06-01T06:16:51Z</time>
      </trkpt>
      <trkpt lat="44.11303" lon="4.61141">
        <ele>90.2</ele>
        <time>2019-06-01T06:16:52Z</time>
      </trkpt>
      <trkpt lat="44.113" lon="4.61139">
        <ele>90.3</ele>
        <time>2019-06-01T06:16:53Z</time>
      </trkpt>
      <trkpt lat="44.11296" lon="4.61136">
        <ele>90.3</ele>
        <time>2019-06-01T06:16:54Z</time>
      </trkpt>
      <trkpt lat="44.11293" lon="4.61133">
        <ele>90.3</ele>
        <time>2019-06-01T06:16:55Z</time>
      </trkpt>
      <trkpt lat="44.11289" lon="4.6113">
        <ele>90.4</ele>
        <time>2019-06-01T06:16:56Z</time>
      </trkpt>
      <trkpt lat="44.11286" lon="4.61127">
        <ele>90.5</ele>
        <time>2019-06-01T06:16:57Z</time>
      </trkpt>
      <trkpt lat="44.11284" lon="4.61124">
        <ele>90.7</ele>
        <time>2019-06-01T06:16:58Z</time>
      </trkpt>
      <trkpt lat="44.11281" lon="4.61121">
        <ele>90.7</ele>
        <time>2019-06-01T06:16:59Z</time>
      </trkpt>
      <trkpt lat="44.11278" lon="4.61119">
        <ele>90.8</ele>
        <time>2019-06-01T06:17:00Z</time>
      </trkpt>
      <trkpt lat="44.11274" lon="4.61116">
        <ele>90.9</ele>
        <time>2019-06-01T06:17:01Z</time>
      </trkpt>
      <trkpt lat="44.11271" lon="4.61113">
        <ele>91</ele>
        <time>2019-06-01T06:17:02Z</time>
      </trkpt>
      <trkpt lat="44.11268" lon="4.6111">
        <ele>91</ele>
        <time>2019-06-01T06:17:03Z</time>
      </trkpt>
      <trkpt lat="44.11265" lon="4.61108">
        <ele>91.1</ele>
        <time>2019-06-01T06:17:04Z</time>
      </trkpt>
      <trkpt lat="44.11262" lon="4.61105">
        <ele>91.1</ele>
        <time>2019-06-01T06:17:05Z</time>
      </trkpt>
      <trkpt lat="44.11259" lon="4.61102">
        <ele>91.1</ele>
        <time>2019-06-01T06:17:06Z</time>
      </trkpt>
      <trkpt lat="44.11256" lon="4.61099">
        <ele>91.1</ele>
        <time>2019-06-01T06:17:07Z</time>
      </trkpt>
      <trkpt lat="44.11253" lon="4.61097">
        <ele>91.1</ele>
        <time>2019-06-01T06:17:08Z</time>
      </trkpt>
      <trkpt lat="44.11249" lon="4.61094">
        <ele>91.1</ele>
        <time>2019-06-01T06:17:09Z</time>
      </trkpt>
      <trkpt lat="44.11246" lon="4.61091">
        <ele>91.1</ele>
        <time>2019-06-01T06:17:10Z</time>
      </trkpt>
      <trkpt lat="44.11243" lon="4.61088">
        <ele>91.1</ele>
        <time>2019-06-01T06:17:11Z</time>
      </trkpt>
      <trkpt lat="44.1124" lon="4.61086">
        <ele>91.1</ele>
        <time>2019-06-01T06:17:12Z</time>
      </trkpt>
      <trkpt lat="44.11237" lon="4.61083">
        <ele>91.2</ele>
        <time>2019-06-01T06:17:13Z</time>
      </trkpt>
      <trkpt lat="44.11233" lon="4.6108">
        <ele>91.2</ele>
        <time>2019-06-01T06:17:14Z</time>
      </trkpt>
      <trkpt lat="44.1123" lon="4.61078">
        <ele>91.2</ele>
        <time>2019-06-01T06:17:15Z</time>
      </trkpt>
      <trkpt lat="44.11227" lon="4.61075">
        <ele>91.2</ele>
        <time>2019-06-01T06:17:16Z</time>
      </trkpt>
      <trkpt lat="44.11223" lon="4.61072">
        <ele>91.2</ele>
        <time>2019-06-01T06:17:17Z</time>
      </trkpt>
      <trkpt lat="44.1122" lon="4.61068">
        <ele>91.1</ele>
        <time>2019-06-01T06:17:18Z</time>
      </trkpt>
      <trkpt lat="44.11216" lon="4.61065">
        <ele>91.1</ele>
        <time>2019-06-01T06:17:19Z</time>
      </trkpt>
      <trkpt lat="44.11213" lon="4.61062">
        <ele>91.2</ele>
        <time>2019-06-01T06:17:20Z</time>
      </trkpt>
      <trkpt lat="44.11209" lon="4.6106">
        <ele>91.2</ele>
        <time>2019-06-01T06:17:21Z</time>
      </trkpt>
      <trkpt lat="44.11206" lon="4.61057">
        <ele>91.1</ele>
        <time>2019-06-01T06:17:22Z</time>
      </trkpt>
      <trkpt lat="44.11202" lon="4.61055">
        <ele>91.1</ele>
        <time>2019-06-01T06:17:23Z</time>
      </trkpt>
      <trkpt lat="44.11198" lon="4.61054">
        <ele>91.1</ele>
        <time>2019-06-01T06:17:24Z</time>
      </trkpt>
      <trkpt lat="44.11194" lon="4.61053">
        <ele>91.2</ele>
        <time>2019-06-01T06:17:25Z</time>
      </trkpt>
      <trkpt lat="44.1119" lon="4.61053">
        <ele>91.4</ele>
        <time>2019-06-01T06:17:26Z</time>
      </trkpt>
      <trkpt lat="44.11186" lon="4.61054">
        <ele>91.6</ele>
        <time>2019-06-01T06:17:27Z</time>
      </trkpt>
      <trkpt lat="44.11182" lon="4.61056">
        <ele>91.7</ele>
        <time>2019-06-01T06:17:28Z</time>
      </trkpt>
      <trkpt lat="44.11178" lon="4.61058">
        <ele>91.8</ele>
        <time>2019-06-01T06:17:29Z</time>
      </trkpt>
      <trkpt lat="44.11175" lon="4.61061">
        <ele>92</ele>
        <time>2019-06-01T06:17:30Z</time>
      </trkpt>
      <trkpt lat="44.11172" lon="4.61064">
        <ele>92.2</ele>
        <time>2019-06-01T06:17:31Z</time>
      </trkpt>
      <trkpt lat="44.11168" lon="4.61068">
        <ele>92.3</ele>
        <time>2019-06-01T06:17:32Z</time>
      </trkpt>
      <trkpt lat="44.11166" lon="4.61072">
        <ele>92.5</ele>
        <time>2019-06-01T06:17:33Z</time>
      </trkpt>
      <trkpt lat="44.11163" lon="4.61076">
        <ele>92.7</ele>
        <time>2019-06-01T06:17:34Z</time>
      </trkpt>
      <trkpt lat="44.1116" lon="4.6108">
        <ele>92.9</ele>
        <time>2019-06-01T06:17:35Z</time>
      </trkpt>
      <trkpt lat="44.11158" lon="4.61085">
        <ele>93.2</ele>
        <time>2019-06-01T06:17:36Z</time>
      </trkpt>
      <trkpt lat="44.11155" lon="4.6109">
        <ele>93.4</ele>
        <time>2019-06-01T06:17:37Z</time>
      </trkpt>
      <trkpt lat="44.11153" lon="4.61094">
        <ele>93.5</ele>
        <time>2019-06-01T06:17:38Z</time>
      </trkpt>
      <trkpt lat="44.1115" lon="4.61099">
        <ele>93.7</ele>
        <time>2019-06-01T06:17:39Z</time>
      </trkpt>
      <trkpt lat="44.11148" lon="4.61104">
        <ele>93.8</ele>
        <time>2019-06-01T06:17:40Z</time>
      </trkpt>
      <trkpt lat="44.11145" lon="4.61109">
        <ele>94</ele>
        <time>2019-06-01T06:17:41Z</time>
      </trkpt>
      <trkpt lat="44.11142" lon="4.61113">
        <ele>94.2</ele>
        <time>2019-06-01T06:17:42Z</time>
      </trkpt>
      <trkpt lat="44.1114" lon="4.61118">
        <ele>94.4</ele>
        <time>2019-06-01T06:17:43Z</time>
      </trkpt>
      <trkpt lat="44.11137" lon="4.61122">
        <ele>94.5</ele>
        <time>2019-06-01T06:17:44Z</time>
      </trkpt>
      <trkpt lat="44.11135" lon="4.61127">
        <ele>94.6</ele>
        <time>2019-06-01T06:17:45Z</time>
      </trkpt>
      <trkpt lat="44.11132" lon="4.61131">
        <ele>94.7</ele>
        <time>2019-06-01T06:17:46Z</time>
      </trkpt>
      <trkpt lat="44.1113" lon="4.61135">
        <ele>94.8</ele>
        <time>2019-06-01T06:17:47Z</time>
      </trkpt>
      <trkpt lat="44.11127" lon="4.6114">
        <ele>94.9</ele>
        <time>2019-06-01T06:17:48Z</time>
      </trkpt>
      <trkpt lat="44.11125" lon="4.61144">
        <ele>95</ele>
        <time>2019-06-01T06:17:49Z</time>
      </trkpt>
      <trkpt lat="44.11123" lon="4.61149">
        <ele>95.1</ele>
        <time>2019-06-01T06:17:50Z</time>
      </trkpt>
      <trkpt lat="44.11121" lon="4.61153">
        <ele>95.1</ele>
        <time>2019-06-01T06:17:51Z</time>
      </trkpt>
      <trkpt lat="44.11119" lon="4.61156">
        <ele>95.1</ele>
        <time>2019-06-01T06:17:52Z</time>
      </trkpt>
      <trkpt lat="44.11117" lon="4.6116">
        <ele>95.1</ele>
        <time>2019-06-01T06:17:53Z</time>
      </trkpt>
      <trkpt lat="44.11114" lon="4.61164">
        <ele>95.1</ele>
        <time>2019-06-01T06:17:54Z</time>
      </trkpt>
      <trkpt lat="44.11111" lon="4.61166">
        <ele>95.1</ele>
        <time>2019-06-01T06:17:55Z</time>
      </trkpt>
      <trkpt lat="44.11107" lon="4.61168">
        <ele>95.1</ele>
        <time>2019-06-01T06:17:56Z</time>
      </trkpt>
      <trkpt lat="44.11102" lon="4.6117">
        <ele>95.2</ele>
        <time>2019-06-01T06:17:57Z</time>
      </trkpt>
      <trkpt lat="44.11098" lon="4.6117">
        <ele>95.2</ele>
        <time>2019-06-01T06:17:58Z</time>
      </trkpt>
      <trkpt lat="44.11094" lon="4.6117">
        <ele>95.3</ele>
        <time>2019-06-01T06:17:59Z</time>
      </trkpt>
      <trkpt lat="44.1109" lon="4.6117">
        <ele>95.4</ele>
        <time>2019-06-01T06:18:00Z</time>
      </trkpt>
      <trkpt lat="44.11086" lon="4.61169">
        <ele>95.6</ele>
        <time>2019-06-01T06:18:01Z</time>
      </trkpt>
      <trkpt lat="44.11083" lon="4.61167">
        <ele>95.7</ele>
        <time>2019-06-01T06:18:02Z</time>
      </trkpt>
      <trkpt lat="44.1108" lon="4.61165">
        <ele>95.8</ele>
        <time>2019-06-01T06:18:03Z</time>
      </trkpt>
      <trkpt lat="44.11078" lon="4.61162">
        <ele>95.9</ele>
        <time>2019-06-01T06:18:04Z</time>
      </trkpt>
      <trkpt lat="44.11076" lon="4.61158">
        <ele>96</ele>
        <time>2019-06-01T06:18:05Z</time>
      </trkpt>
      <trkpt lat="44.11075" lon="4.61154">
        <ele>96.2</ele>
        <time>2019-06-01T06:18:06Z</time>
      </trkpt>
      <trkpt lat="44.11073" lon="4.6115">
        <ele>96.3</ele>
        <time>2019-06-01T06:18:07Z</time>
      </trkpt>
      <trkpt lat="44.11071" lon="4.61147">
        <ele>96.5</ele>
        <time>2019-06-01T06:18:08Z</time>
      </trkpt>
      <trkpt lat="44.11069" lon="4.61144">
        <ele>96.6</ele>
        <time>2019-06-01T06:18:09Z</time>
      </trkpt>
      <trkpt lat="44.11067" lon="4.61141">
        <ele>96.8</ele>
        <time>2019-06-01T06:18:10Z</time>
      </trkpt>
      <trkpt lat="44.11065" lon="4.61137">
        <ele>97</ele>
        <time>2019-06-01T06:18:11Z</time>
      </trkpt>
      <trkpt lat="44.11064" lon="4.61134">
        <ele>97.1</ele>
        <time>2019-06-01T06:18:12Z</time>
      </trkpt>
      <trkpt lat="44.11062" lon="4.6113">
        <ele>97.2</ele>
        <time>2019-06-01T06:18:13Z</time>
      </trkpt>
      <trkpt lat="44.11061" lon="4.61127">
        <ele>97.3</ele>
        <time>2019-06-01T06:18:14Z</time>
      </trkpt>
      <trkpt lat="44.11059" lon="4.61124">
        <ele>97.5</ele>
        <time>2019-06-01T06:18:15Z</time>
      </trkpt>
      <trkpt lat="44.11057" lon="4.61121">
        <ele>97.7</ele>
        <time>2019-06-01T06:18:16Z</time>
      </trkpt>
      <trkpt lat="44.11055" lon="4.61119">
        <ele>97.8</ele>
        <time>2019-06-01T06:18:17Z</time>
      </trkpt>
      <trkpt lat="44.11052" lon="4.61116">
        <ele>98</ele>
        <time>2019-06-01T06:18:18Z</time>
      </trkpt>
      <trkpt lat="44.1105" lon="4.61113">
        <ele>98.2</ele>
        <time>2019-06-01T06:18:19Z</time>
      </trkpt>
      <trkpt lat="44.11048" lon="4.6111">
        <ele>98.4</ele>
        <time>2019-06-01T06:18:20Z</time>
      </trkpt>
      <trkpt lat="44.11046" lon="4.61107">
        <ele>98.5</ele>
        <time>2019-06-01T06:18:21Z</time>
      </trkpt>
      <trkpt lat="44.11044" lon="4.61103">
        <ele>98.7</ele>
        <time>2019-06-01T06:18:22Z</time>
      </trkpt>
      <trkpt lat="44.11042" lon="4.611">
        <ele>98.8</ele>
        <time>2019-06-01T06:18:23Z</time>
      </trkpt>
      <trkpt lat="44.1104" lon="4.61097">
        <ele>98.9</ele>
        <time>2019-06-01T06:18:24Z</time>
      </trkpt>
      <trkpt lat="44.11037" lon="4.61094">
        <ele>99.1</ele>
        <time>2019-06-01T06:18:25Z</time>
      </trkpt>
      <trkpt lat="44.11035" lon="4.61091">
        <ele>99.2</ele>
        <time>2019-06-01T06:18:26Z</time>
      </trkpt>
      <trkpt lat="44.11033" lon="4.61088">
        <ele>99.4</ele>
        <time>2019-06-01T06:18:27Z</time>
      </trkpt>
      <trkpt lat="44.1103" lon="4.61084">
        <ele>99.5</ele>
        <time>2019-06-01T06:18:28Z</time>
      </trkpt>
      <trkpt lat="44.11028" lon="4.61081">
        <ele>99.7</ele>
        <time>2019-06-01T06:18:29Z</time>
      </trkpt>
      <trkpt lat="44.11025" lon="4.61078">
        <ele>99.8</ele>
        <time>2019-06-01T06:18:30Z</time>
      </trkpt>
      <trkpt lat="44.11023" lon="4.61075">
        <ele>99.9</ele>
        <time>2019-06-01T06:18:31Z</time>
      </trkpt>
      <trkpt lat="44.1102" lon="4.61072">
        <ele>100</ele>
        <time>2019-06-01T06:18:32Z</time>
      </trkpt>
      <trkpt lat="44.11017" lon="4.61069">
        <ele>100.1</ele>
        <time>2019-06-01T06:18:33Z</time>
      </trkpt>
      <trkpt lat="44.11014" lon="4.61066">
        <ele>100.2</ele>
        <time>2019-06-01T06:18:34Z</time>
      </trkpt>
      <trkpt lat="44.11012" lon="4.61063">
        <ele>100.3</ele>
        <time>2019-06-01T06:18:35Z</time>
      </trkpt>
      <trkpt lat="44.11009" lon="4.61061">
        <ele>100.4</ele>
        <time>2019-06-01T06:18:36Z</time>
      </trkpt>
      <trkpt lat="44.11006" lon="4.61058">
        <ele>100.5</ele>
        <time>2019-06-01T06:18:37Z</time>
      </trkpt>
      <trkpt lat="44.11003" lon="4.61055">
        <ele>100.5</ele>
        <time>2019-06-01T06:18:38Z</time>
      </trkpt>
      <trkpt lat="44.11" lon="4.61051">
        <ele>100.6</ele>
        <time>2019-06-01T06:18:39Z</time>
      </trkpt>
      <trkpt lat="44.10997" lon="4.61048">
        <ele>100.7</ele>
        <time>2019-06-01T06:18:40Z</time>
      </trkpt>
      <trkpt lat="44.10995" lon="4.61045">
        <ele>100.8</ele>
        <time>2019-06-01T06:18:41Z</time>
      </trkpt>
      <trkpt lat="44.10992" lon="4.61042">
        <ele>100.9</ele>
        <time>2019-06-01T06:18:42Z</time>
      </trkpt>
      <trkpt lat="44.1099" lon="4.61039">
        <ele>101</ele>
        <time>2019-06-01T06:18:43Z</time>
      </trkpt>
      <trkpt lat="44.10987" lon="4.61036">
        <ele>101.1</ele>
        <time>2019-06-01T06:18:44Z</time>
      </trkpt>
      <trkpt lat="44.10984" lon="4.61033">
        <ele>101.3</ele>
        <time>2019-06-01T06:18:45Z</time>
      </trkpt>
      <trkpt lat="44.10982" lon="4.6103">
        <ele>101.4</ele>
        <time>2019-06-01T06:18:46Z</time>
      </trkpt>
      <trkpt lat="44.10979" lon="4.61026">
        <ele>101.6</ele>
        <time>2019-06-01T06:18:47Z</time>
      </trkpt>
      <trkpt lat="44.10976" lon="4.61023">
        <ele>101.8</ele>
        <time>2019-06-01T06:18:48Z</time>
      </trkpt>
      <trkpt lat="44.10974" lon="4.6102">
        <ele>102</ele>
        <time>2019-06-01T06:18:49Z</time>
      </trkpt>
      <trkpt lat="44.10971" lon="4.61016">
        <ele>102.2</ele>
        <time>2019-06-01T06:18:50Z</time>
      </trkpt>
      <trkpt lat="44.10969" lon="4.61013">
        <ele>102.4</ele>
        <time>2019-06-01T06:18:51Z</time>
      </trkpt>
      <trkpt lat="44.10966" lon="4.6101">
        <ele>102.5</ele>
        <time>2019-06-01T06:18:52Z</time>
      </trkpt>
      <trkpt lat="44.10963" lon="4.61007">
        <ele>102.7</ele>
        <time>2019-06-01T06:18:53Z</time>
      </trkpt>
      <trkpt lat="44.10961" lon="4.61004">
        <ele>102.9</ele>
        <time>2019-06-01T06:18:54Z</time>
      </trkpt>
      <trkpt lat="44.10958" lon="4.61001">
        <ele>103.2</ele>
        <time>2019-06-01T06:18:55Z</time>
      </trkpt>
      <trkpt lat="44.10956" lon="4.60998">
        <ele>103.4</ele>
        <time>2019-06-01T06:18:56Z</time>
      </trkpt>
      <trkpt lat="44.10954" lon="4.60995">
        <ele>103.6</ele>
        <time>2019-06-01T06:18:57Z</time>
      </trkpt>
      <trkpt lat="44.10951" lon="4.60992">
        <ele>103.8</ele>
        <time>2019-06-01T06:18:58Z</time>
      </trkpt>
      <trkpt lat="44.10949" lon="4.60989">
        <ele>104</ele>
        <time>2019-06-01T06:18:59Z</time>
      </trkpt>
      <trkpt lat="44.10946" lon="4.60986">
        <ele>104.2</ele>
        <time>2019-06-01T06:19:00Z</time>
      </trkpt>
      <trkpt lat="44.10944" lon="4.60983">
        <ele>104.4</ele>
        <time>2019-06-01T06:19:01Z</time>
      </trkpt>
      <trkpt lat="44.10941" lon="4.6098">
        <ele>104.6</ele>
        <time>2019-06-01T06:19:02Z</time>
      </trkpt>
      <trkpt lat="44.10939" lon="4.60978">
        <ele>104.8</ele>
        <time>2019-06-01T06:19:03Z</time>
      </trkpt>
      <trkpt lat="44.10937" lon="4.60975">
        <ele>104.9</ele>
        <time>2019-06-01T06:19:04Z</time>
      </trkpt>
      <trkpt lat="44.10934" lon="4.60972">
        <ele>105.1</ele>
        <time>2019-06-01T06:19:05Z</time>
      </trkpt>
      <trkpt lat="44.10932" lon="4.6097">
        <ele>105.2</ele>
        <time>2019-06-01T06:19:06Z</time>
      </trkpt>
      <trkpt lat="44.1093" lon="4.60967">
        <ele>105.4</ele>
        <time>2019-06-01T06:19:07Z</time>
      </trkpt>
      <trkpt lat="44.10927" lon="4.60964">
        <ele>105.7</ele>
        <time>2019-06-01T06:19:08Z</time>
      </trkpt>
      <trkpt lat="44.10925" lon="4.60961">
        <ele>105.9</ele>
        <time>2019-06-01T06:19:09Z</time>
      </trkpt>
      <trkpt lat="44.10923" lon="4.60958">
        <ele>106.2</ele>
        <time>2019-06-01T06:19:10Z</time>
      </trkpt>
      <trkpt lat="44.10921" lon="4.60955">
        <ele>106.5</ele>
        <time>2019-06-01T06:19:11Z</time>
      </trkpt>
      <trkpt lat="44.10918" lon="4.60952">
        <ele>106.9</ele>
        <time>2019-06-01T06:19:12Z</time>
      </trkpt>
      <trkpt lat="44.10916" lon="4.60949">
        <ele>107.2</ele>
        <time>2019-06-01T06:19:13Z</time>
      </trkpt>
      <trkpt lat="44.10914" lon="4.60946">
        <ele>107.5</ele>
        <time>2019-06-01T06:19:14Z</time>
      </trkpt>
      <trkpt lat="44.10911" lon="4.60943">
        <ele>107.9</ele>
        <time>2019-06-01T06:19:15Z</time>
      </trkpt>
      <trkpt lat="44.10909" lon="4.6094">
        <ele>108.2</ele>
        <time>2019-06-01T06:19:16Z</time>
      </trkpt>
      <trkpt lat="44.10907" lon="4.60937">
        <ele>108.5</ele>
        <time>2019-06-01T06:19:17Z</time>
      </trkpt>
      <trkpt lat="44.10905" lon="4.60934">
        <ele>108.8</ele>
        <time>2019-06-01T06:19:18Z</time>
      </trkpt>
      <trkpt lat="44.10903" lon="4.60931">
        <ele>109</ele>
        <time>2019-06-01T06:19:19Z</time>
      </trkpt>
      <trkpt lat="44.109" lon="4.60928">
        <ele>109.3</ele>
        <time>2019-06-01T06:19:20Z</time>
      </trkpt>
      <trkpt lat="44.10898" lon="4.60925">
        <ele>109.5</ele>
        <time>2019-06-01T06:19:21Z</time>
      </trkpt>
      <trkpt lat="44.10896" lon="4.60922">
        <ele>109.7</ele>
        <time>2019-06-01T06:19:22Z</time>
      </trkpt>
      <trkpt lat="44.10894" lon="4.60919">
        <ele>109.9</ele>
        <time>2019-06-01T06:19:23Z</time>
      </trkpt>
      <trkpt lat="44.10892" lon="4.60916">
        <ele>110.2</ele>
        <time>2019-06-01T06:19:24Z</time>
      </trkpt>
      <trkpt lat="44.1089" lon="4.60913">
        <ele>110.5</ele>
        <time>2019-06-01T06:19:25Z</time>
      </trkpt>
      <trkpt lat="44.10888" lon="4.60909">
        <ele>110.7</ele>
        <time>2019-06-01T06:19:26Z</time>
      </trkpt>
      <trkpt lat="44.10886" lon="4.60906">
        <ele>111</ele>
        <time>2019-06-01T06:19:27Z</time>
      </trkpt>
      <trkpt lat="44.10884" lon="4.60902">
        <ele>111.3</ele>
        <time>2019-06-01T06:19:28Z</time>
      </trkpt>
      <trkpt lat="44.10882" lon="4.60899">
        <ele>111.6</ele>
        <time>2019-06-01T06:19:29Z</time>
      </trkpt>
      <trkpt lat="44.1088" lon="4.60895">
        <ele>111.9</ele>
        <time>2019-06-01T06:19:30Z</time>
      </trkpt>
      <trkpt lat="44.10878" lon="4.60892">
        <ele>112.2</ele>
        <time>2019-06-01T06:19:31Z</time>
      </trkpt>
      <trkpt lat="44.10876" lon="4.60888">
        <ele>112.5</ele>
        <time>2019-06-01T06:19:32Z</time>
      </trkpt>
      <trkpt lat="44.10874" lon="4.60885">
        <ele>112.8</ele>
        <time>2019-06-01T06:19:33Z</time>
      </trkpt>
      <trkpt lat="44.10872" lon="4.60882">
        <ele>113</ele>
        <time>2019-06-01T06:19:34Z</time>
      </trkpt>
      <trkpt lat="44.1087" lon="4.60879">
        <ele>113.2</ele>
        <time>2019-06-01T06:19:35Z</time>
      </trkpt>
      <trkpt lat="44.10868" lon="4.60875">
        <ele>113.4</ele>
        <time>2019-06-01T06:19:36Z</time>
      </trkpt>
      <trkpt lat="44.10867" lon="4.60872">
        <ele>113.6</ele>
        <time>2019-06-01T06:19:37Z</time>
      </trkpt>
      <trkpt lat="44.10865" lon="4.60869">
        <ele>113.9</ele>
        <time>2019-06-01T06:19:38Z</time>
      </trkpt>
      <trkpt lat="44.10863" lon="4.60865">
        <ele>114.1</ele>
        <time>2019-06-01T06:19:39Z</time>
      </trkpt>
      <trkpt lat="44.10861" lon="4.60862">
        <ele>114.2</ele>
        <time>2019-06-01T06:19:40Z</time>
      </trkpt>
      <trkpt lat="44.10859" lon="4.60858">
        <ele>114.4</ele>
        <time>2019-06-01T06:19:41Z</time>
      </trkpt>
      <trkpt lat="44.10858" lon="4.60855">
        <ele>114.6</ele>
        <time>2019-06-01T06:19:42Z</time>
      </trkpt>
      <trkpt lat="44.10856" lon="4.60851">
        <ele>114.8</ele>
        <time>2019-06-01T06:19:43Z</time>
      </trkpt>
      <trkpt lat="44.10854" lon="4.60848">
        <ele>114.9</ele>
        <time>2019-06-01T06:19:44Z</time>
      </trkpt>
      <trkpt lat="44.10852" lon="4.60845">
        <ele>115.1</ele>
        <time>2019-06-01T06:19:45Z</time>
      </trkpt>
      <trkpt lat="44.10849" lon="4.60839">
        <ele>115.3</ele>
        <time>2019-06-01T06:19:47Z</time>
      </trkpt>
      <trkpt lat="44.10847" lon="4.60836">
        <ele>115.4</ele>
        <time>2019-06-01T06:19:48Z</time>
      </trkpt>
      <trkpt lat="44.10846" lon="4.60833">
        <ele>115.6</ele>
        <time>2019-06-01T06:19:49Z</time>
      </trkpt>
      <trkpt lat="44.10844" lon="4.6083">
        <ele>115.8</ele>
        <time>2019-06-01T06:19:50Z</time>
      </trkpt>
      <trkpt lat="44.10841" lon="4.60824">
        <ele>116</ele>
        <time>2019-06-01T06:19:52Z</time>
      </trkpt>
      <trkpt lat="44.10837" lon="4.6082">
        <ele>116.2</ele>
        <time>2019-06-01T06:19:54Z</time>
      </trkpt>
      <trkpt lat="44.10834" lon="4.60816">
        <ele>116.3</ele>
        <time>2019-06-01T06:19:56Z</time>
      </trkpt>
      <trkpt lat="44.1083" lon="4.60812">
        <ele>116.5</ele>
        <time>2019-06-01T06:19:58Z</time>
      </trkpt>
      <trkpt lat="44.10826" lon="4.60808">
        <ele>116.6</ele>
        <time>2019-06-01T06:20:00Z</time>
      </trkpt>
      <trkpt lat="44.10822" lon="4.60805">
        <ele>116.8</ele>
        <time>2019-06-01T06:20:02Z</time>
      </trkpt>
      <trkpt lat="44.10817" lon="4.60802">
        <ele>116.9</ele>
        <time>2019-06-01T06:20:04Z</time>
      </trkpt>
      <trkpt lat="44.10813" lon="4.60798">
        <ele>117</ele>
        <time>2019-06-01T06:20:06Z</time>
      </trkpt>
      <trkpt lat="44.10808" lon="4.60795">
        <ele>117.1</ele>
        <time>2019-06-01T06:20:08Z</time>
      </trkpt>
      <trkpt lat="44.10804" lon="4.60791">
        <ele>117.1</ele>
        <time>2019-06-01T06:20:10Z</time>
      </trkpt>
      <trkpt lat="44.10799" lon="4.60788">
        <ele>117.2</ele>
        <time>2019-06-01T06:20:12Z</time>
      </trkpt>
      <trkpt lat="44.10796" lon="4.60783">
        <ele>117.3</ele>
        <time>2019-06-01T06:20:14Z</time>
      </trkpt>
      <trkpt lat="44.10793" lon="4.60778">
        <ele>117.4</ele>
        <time>2019-06-01T06:20:16Z</time>
      </trkpt>
      <trkpt lat="44.1079" lon="4.60772">
        <ele>117.6</ele>
        <time>2019-06-01T06:20:18Z</time>
      </trkpt>
      <trkpt lat="44.10788" lon="4.60767">
        <ele>117.6</ele>
        <time>2019-06-01T06:20:20Z</time>
      </trkpt>
      <trkpt lat="44.10786" lon="4.60761">
        <ele>117.8</ele>
        <time>2019-06-01T06:20:22Z</time>
      </trkpt>
      <trkpt lat="44.10786" lon="4.60754">
        <ele>118.1</ele>
        <time>2019-06-01T06:20:24Z</time>
      </trkpt>
      <trkpt lat="44.10787" lon="4.6075">
        <ele>118.5</ele>
        <time>2019-06-01T06:20:25Z</time>
      </trkpt>
      <trkpt lat="44.10788" lon="4.60747">
        <ele>118.9</ele>
        <time>2019-06-01T06:20:26Z</time>
      </trkpt>
      <trkpt lat="44.10791" lon="4.6074">
        <ele>119.7</ele>
        <time>2019-06-01T06:20:28Z</time>
      </trkpt>
      <trkpt lat="44.10792" lon="4.60737">
        <ele>120</ele>
        <time>2019-06-01T06:20:29Z</time>
      </trkpt>
      <trkpt lat="44.10794" lon="4.6073">
        <ele>120.8</ele>
        <time>2019-06-01T06:20:31Z</time>
      </trkpt>
      <trkpt lat="44.10795" lon="4.60726">
        <ele>121.3</ele>
        <time>2019-06-01T06:20:32Z</time>
      </trkpt>
      <trkpt lat="44.10796" lon="4.60722">
        <ele>121.7</ele>
        <time>2019-06-01T06:20:33Z</time>
      </trkpt>
      <trkpt lat="44.10796" lon="4.60719">
        <ele>122</ele>
        <time>2019-06-01T06:20:34Z</time>
      </trkpt>
      <trkpt lat="44.10796" lon="4.60711">
        <ele>122.5</ele>
        <time>2019-06-01T06:20:36Z</time>
      </trkpt>
      <trkpt lat="44.10796" lon="4.60708">
        <ele>122.8</ele>
        <time>2019-06-01T06:20:37Z</time>
      </trkpt>
      <trkpt lat="44.10795" lon="4.60704">
        <ele>123</ele>
        <time>2019-06-01T06:20:38Z</time>
      </trkpt>
      <trkpt lat="44.10794" lon="4.60697">
        <ele>123.5</ele>
        <time>2019-06-01T06:20:40Z</time>
      </trkpt>
      <trkpt lat="44.10793" lon="4.60691">
        <ele>123.9</ele>
        <time>2019-06-01T06:20:42Z</time>
      </trkpt>
      <trkpt lat="44.10792" lon="4.60685">
        <ele>124.4</ele>
        <time>2019-06-01T06:20:44Z</time>
      </trkpt>
      <trkpt lat="44.10791" lon="4.60678">
        <ele>124.8</ele>
        <time>2019-06-01T06:20:46Z</time>
      </trkpt>
      <trkpt lat="44.10792" lon="4.60672">
        <ele>125.1</ele>
        <time>2019-06-01T06:20:48Z</time>
      </trkpt>
      <trkpt lat="44.10793" lon="4.60664">
        <ele>125.5</ele>
        <time>2019-06-01T06:20:50Z</time>
      </trkpt>
      <trkpt lat="44.10795" lon="4.60657">
        <ele>125.7</ele>
        <time>2019-06-01T06:20:52Z</time>
      </trkpt>
      <trkpt lat="44.10797" lon="4.60654">
        <ele>125.8</ele>
        <time>2019-06-01T06:20:53Z</time>
      </trkpt>
      <trkpt lat="44.10798" lon="4.60651">
        <ele>125.8</ele>
        <time>2019-06-01T06:20:54Z</time>
      </trkpt>
      <trkpt lat="44.10799" lon="4.60647">
        <ele>125.9</ele>
        <time>2019-06-01T06:20:55Z</time>
      </trkpt>
      <trkpt lat="44.10801" lon="4.60643">
        <ele>125.9</ele>
        <time>2019-06-01T06:20:56Z</time>
      </trkpt>
      <trkpt lat="44.10802" lon="4.6064">
        <ele>125.9</ele>
        <time>2019-06-01T06:20:57Z</time>
      </trkpt>
      <trkpt lat="44.10803" lon="4.60636">
        <ele>125.9</ele>
        <time>2019-06-01T06:20:58Z</time>
      </trkpt>
      <trkpt lat="44.10805" lon="4.60631">
        <ele>125.9</ele>
        <time>2019-06-01T06:20:59Z</time>
      </trkpt>
      <trkpt lat="44.10806" lon="4.60626">
        <ele>125.9</ele>
        <time>2019-06-01T06:21:00Z</time>
      </trkpt>
      <trkpt lat="44.10808" lon="4.60621">
        <ele>125.9</ele>
        <time>2019-06-01T06:21:01Z</time>
      </trkpt>
      <trkpt lat="44.1081" lon="4.60615">
        <ele>125.9</ele>
        <time>2019-06-01T06:21:02Z</time>
      </trkpt>
      <trkpt lat="44.10812" lon="4.60608">
        <ele>125.9</ele>
        <time>2019-06-01T06:21:03Z</time>
      </trkpt>
      <trkpt lat="44.10814" lon="4.60601">
        <ele>125.9</ele>
        <time>2019-06-01T06:21:04Z</time>
      </trkpt>
      <trkpt lat="44.10817" lon="4.60596">
        <ele>125.9</ele>
        <time>2019-06-01T06:21:05Z</time>
      </trkpt>
      <trkpt lat="44.10819" lon="4.60589">
        <ele>125.9</ele>
        <time>2019-06-01T06:21:06Z</time>
      </trkpt>
      <trkpt lat="44.10822" lon="4.60581">
        <ele>125.9</ele>
        <time>2019-06-01T06:21:07Z</time>
      </trkpt>
      <trkpt lat="44.10825" lon="4.60573">
        <ele>125.9</ele>
        <time>2019-06-01T06:21:08Z</time>
      </trkpt>
      <trkpt lat="44.10827" lon="4.60565">
        <ele>125.8</ele>
        <time>2019-06-01T06:21:09Z</time>
      </trkpt>
      <trkpt lat="44.10831" lon="4.60556">
        <ele>125.7</ele>
        <time>2019-06-01T06:21:10Z</time>
      </trkpt>
      <trkpt lat="44.10834" lon="4.60547">
        <ele>125.4</ele>
        <time>2019-06-01T06:21:11Z</time>
      </trkpt>
      <trkpt lat="44.10835" lon="4.60539">
        <ele>125.2</ele>
        <time>2019-06-01T06:21:12Z</time>
      </trkpt>
      <trkpt lat="44.10836" lon="4.60531">
        <ele>125</ele>
        <time>2019-06-01T06:21:13Z</time>
      </trkpt>
      <trkpt lat="44.10835" lon="4.60523">
        <ele>124.8</ele>
        <time>2019-06-01T06:21:14Z</time>
      </trkpt>
      <trkpt lat="44.10833" lon="4.60516">
        <ele>124.6</ele>
        <time>2019-06-01T06:21:15Z</time>
      </trkpt>
      <trkpt lat="44.10832" lon="4.60508">
        <ele>124.4</ele>
        <time>2019-06-01T06:21:16Z</time>
      </trkpt>
      <trkpt lat="44.1083" lon="4.605">
        <ele>123.9</ele>
        <time>2019-06-01T06:21:17Z</time>
      </trkpt>
      <trkpt lat="44.10829" lon="4.60492">
        <ele>123.4</ele>
        <time>2019-06-01T06:21:18Z</time>
      </trkpt>
      <trkpt lat="44.10829" lon="4.60484">
        <ele>122.9</ele>
        <time>2019-06-01T06:21:19Z</time>
      </trkpt>
      <trkpt lat="44.10828" lon="4.60477">
        <ele>122.5</ele>
        <time>2019-06-01T06:21:20Z</time>
      </trkpt>
      <trkpt lat="44.10826" lon="4.60472">
        <ele>122.2</ele>
        <time>2019-06-01T06:21:21Z</time>
      </trkpt>
      <trkpt lat="44.10824" lon="4.60469">
        <ele>121.9</ele>
        <time>2019-06-01T06:21:22Z</time>
      </trkpt>
      <trkpt lat="44.10821" lon="4.60468">
        <ele>121.6</ele>
        <time>2019-06-01T06:21:23Z</time>
      </trkpt>
      <trkpt lat="44.10817" lon="4.60467">
        <ele>121.4</ele>
        <time>2019-06-01T06:21:24Z</time>
      </trkpt>
      <trkpt lat="44.10812" lon="4.60467">
        <ele>121.4</ele>
        <time>2019-06-01T06:21:26Z</time>
      </trkpt>
      <trkpt lat="44.10809" lon="4.60464">
        <ele>121</ele>
        <time>2019-06-01T06:21:28Z</time>
      </trkpt>
      <trkpt lat="44.10807" lon="4.6046">
        <ele>120.6</ele>
        <time>2019-06-01T06:21:31Z</time>
      </trkpt>
      <trkpt lat="44.10807" lon="4.60454">
        <ele>120.1</ele>
        <time>2019-06-01T06:21:33Z</time>
      </trkpt>
      <trkpt lat="44.10807" lon="4.6045">
        <ele>119.8</ele>
        <time>2019-06-01T06:21:34Z</time>
      </trkpt>
      <trkpt lat="44.10807" lon="4.60446">
        <ele>119.5</ele>
        <time>2019-06-01T06:21:35Z</time>
      </trkpt>
      <trkpt lat="44.10807" lon="4.60442">
        <ele>119.5</ele>
        <time>2019-06-01T06:21:36Z</time>
      </trkpt>
      <trkpt lat="44.10807" lon="4.60437">
        <ele>119.5</ele>
        <time>2019-06-01T06:21:37Z</time>
      </trkpt>
      <trkpt lat="44.10808" lon="4.60432">
        <ele>118.9</ele>
        <time>2019-06-01T06:21:38Z</time>
      </trkpt>
      <trkpt lat="44.10809" lon="4.60427">
        <ele>118.4</ele>
        <time>2019-06-01T06:21:39Z</time>
      </trkpt>
      <trkpt lat="44.10812" lon="4.60419">
        <ele>117.6</ele>
        <time>2019-06-01T06:21:40Z</time>
      </trkpt>
      <trkpt lat="44.10815" lon="4.60413">
        <ele>116.9</ele>
        <time>2019-06-01T06:21:41Z</time>
      </trkpt>
      <trkpt lat="44.10818" lon="4.60406">
        <ele>116.2</ele>
        <time>2019-06-01T06:21:42Z</time>
      </trkpt>
      <trkpt lat="44.10819" lon="4.60397">
        <ele>115.4</ele>
        <time>2019-06-01T06:21:43Z</time>
      </trkpt>
      <trkpt lat="44.1082" lon="4.60388">
        <ele>114.6</ele>
        <time>2019-06-01T06:21:44Z</time>
      </trkpt>
      <trkpt lat="44.10823" lon="4.6038">
        <ele>113.4</ele>
        <time>2019-06-01T06:21:45Z</time>
      </trkpt>
      <trkpt lat="44.10828" lon="4.60373">
        <ele>112.2</ele>
        <time>2019-06-01T06:21:46Z</time>
      </trkpt>
      <trkpt lat="44.10832" lon="4.60369">
        <ele>112.4</ele>
        <time>2019-06-01T06:21:47Z</time>
      </trkpt>
      <trkpt lat="44.10837" lon="4.60365">
        <ele>112.6</ele>
        <time>2019-06-01T06:21:48Z</time>
      </trkpt>
      <trkpt lat="44.10844" lon="4.60364">
        <ele>112.7</ele>
        <time>2019-06-01T06:21:49Z</time>
      </trkpt>
      <trkpt lat="44.10852" lon="4.6036">
        <ele>112.7</ele>
        <time>2019-06-01T06:21:50Z</time>
      </trkpt>
      <trkpt lat="44.10857" lon="4.60355">
        <ele>112.6</ele>
        <time>2019-06-01T06:21:51Z</time>
      </trkpt>
      <trkpt lat="44.10863" lon="4.6035">
        <ele>112.1</ele>
        <time>2019-06-01T06:21:52Z</time>
      </trkpt>
      <trkpt lat="44.10866" lon="4.60343">
        <ele>111.6</ele>
        <time>2019-06-01T06:21:53Z</time>
      </trkpt>
      <trkpt lat="44.10869" lon="4.60338">
        <ele>111.6</ele>
        <time>2019-06-01T06:21:54Z</time>
      </trkpt>
      <trkpt lat="44.10872" lon="4.60335">
        <ele>111.6</ele>
        <time>2019-06-01T06:21:55Z</time>
      </trkpt>
      <trkpt lat="44.10877" lon="4.60332">
        <ele>111.5</ele>
        <time>2019-06-01T06:21:56Z</time>
      </trkpt>
      <trkpt lat="44.10883" lon="4.60328">
        <ele>111.2</ele>
        <time>2019-06-01T06:21:58Z</time>
      </trkpt>
      <trkpt lat="44.10885" lon="4.60326">
        <ele>111.4</ele>
        <time>2019-06-01T06:21:59Z</time>
      </trkpt>
      <trkpt lat="44.10891" lon="4.60323">
        <ele>111.8</ele>
        <time>2019-06-01T06:22:00Z</time>
      </trkpt>
      <trkpt lat="44.10896" lon="4.6032">
        <ele>112</ele>
        <time>2019-06-01T06:22:01Z</time>
      </trkpt>
      <trkpt lat="44.10899" lon="4.60317">
        <ele>111.7</ele>
        <time>2019-06-01T06:22:02Z</time>
      </trkpt>
      <trkpt lat="44.10902" lon="4.60314">
        <ele>111.4</ele>
        <time>2019-06-01T06:22:03Z</time>
      </trkpt>
      <trkpt lat="44.10909" lon="4.60312">
        <ele>111</ele>
        <time>2019-06-01T06:22:04Z</time>
      </trkpt>
      <trkpt lat="44.10914" lon="4.60311">
        <ele>110.7</ele>
        <time>2019-06-01T06:22:05Z</time>
      </trkpt>
      <trkpt lat="44.10918" lon="4.60309">
        <ele>110.5</ele>
        <time>2019-06-01T06:22:06Z</time>
      </trkpt>
      <trkpt lat="44.10923" lon="4.60307">
        <ele>110.3</ele>
        <time>2019-06-01T06:22:07Z</time>
      </trkpt>
      <trkpt lat="44.10927" lon="4.60306">
        <ele>110.2</ele>
        <time>2019-06-01T06:22:08Z</time>
      </trkpt>
      <trkpt lat="44.10931" lon="4.60306">
        <ele>110.2</ele>
        <time>2019-06-01T06:22:09Z</time>
      </trkpt>
      <trkpt lat="44.10935" lon="4.60303">
        <ele>110.3</ele>
        <time>2019-06-01T06:22:10Z</time>
      </trkpt>
      <trkpt lat="44.10936" lon="4.60299">
        <ele>110.6</ele>
        <time>2019-06-01T06:22:12Z</time>
      </trkpt>
      <trkpt lat="44.10937" lon="4.60295">
        <ele>110.8</ele>
        <time>2019-06-01T06:22:13Z</time>
      </trkpt>
      <trkpt lat="44.10938" lon="4.60292">
        <ele>111</ele>
        <time>2019-06-01T06:22:14Z</time>
      </trkpt>
      <trkpt lat="44.1094" lon="4.60288">
        <ele>111.1</ele>
        <time>2019-06-01T06:22:15Z</time>
      </trkpt>
      <trkpt lat="44.10942" lon="4.60284">
        <ele>111.2</ele>
        <time>2019-06-01T06:22:16Z</time>
      </trkpt>
      <trkpt lat="44.10943" lon="4.60281">
        <ele>111.1</ele>
        <time>2019-06-01T06:22:17Z</time>
      </trkpt>
      <trkpt lat="44.10945" lon="4.60276">
        <ele>110.7</ele>
        <time>2019-06-01T06:22:18Z</time>
      </trkpt>
      <trkpt lat="44.10946" lon="4.60272">
        <ele>110.3</ele>
        <time>2019-06-01T06:22:19Z</time>
      </trkpt>
      <trkpt lat="44.10948" lon="4.60269">
        <ele>110</ele>
        <time>2019-06-01T06:22:20Z</time>
      </trkpt>
      <trkpt lat="44.1095" lon="4.60265">
        <ele>109.6</ele>
        <time>2019-06-01T06:22:21Z</time>
      </trkpt>
      <trkpt lat="44.10953" lon="4.60263">
        <ele>109.2</ele>
        <time>2019-06-01T06:22:22Z</time>
      </trkpt>
      <trkpt lat="44.10962" lon="4.60266">
        <ele>108.1</ele>
        <time>2019-06-01T06:22:23Z</time>
      </trkpt>
      <trkpt lat="44.10968" lon="4.60263">
        <ele>107.6</ele>
        <time>2019-06-01T06:22:25Z</time>
      </trkpt>
      <trkpt lat="44.10971" lon="4.60261">
        <ele>107.4</ele>
        <time>2019-06-01T06:22:26Z</time>
      </trkpt>
      <trkpt lat="44.10973" lon="4.60257">
        <ele>107.2</ele>
        <time>2019-06-01T06:22:27Z</time>
      </trkpt>
      <trkpt lat="44.10975" lon="4.60254">
        <ele>107.1</ele>
        <time>2019-06-01T06:22:28Z</time>
      </trkpt>
      <trkpt lat="44.10977" lon="4.60247">
        <ele>107</ele>
        <time>2019-06-01T06:22:30Z</time>
      </trkpt>
      <trkpt lat="44.1098" lon="4.60244">
        <ele>106.6</ele>
        <time>2019-06-01T06:22:31Z</time>
      </trkpt>
      <trkpt lat="44.10983" lon="4.60241">
        <ele>106.3</ele>
        <time>2019-06-01T06:22:32Z</time>
      </trkpt>
      <trkpt lat="44.10985" lon="4.60239">
        <ele>106.2</ele>
        <time>2019-06-01T06:22:33Z</time>
      </trkpt>
      <trkpt lat="44.10987" lon="4.60236">
        <ele>106.1</ele>
        <time>2019-06-01T06:22:34Z</time>
      </trkpt>
      <trkpt lat="44.10991" lon="4.60232">
        <ele>106.1</ele>
        <time>2019-06-01T06:22:36Z</time>
      </trkpt>
      <trkpt lat="44.10995" lon="4.60228">
        <ele>106</ele>
        <time>2019-06-01T06:22:38Z</time>
      </trkpt>
      <trkpt lat="44.10998" lon="4.60226">
        <ele>105.9</ele>
        <time>2019-06-01T06:22:39Z</time>
      </trkpt>
      <trkpt lat="44.11002" lon="4.60225">
        <ele>105.6</ele>
        <time>2019-06-01T06:22:40Z</time>
      </trkpt>
      <trkpt lat="44.11006" lon="4.60222">
        <ele>105.2</ele>
        <time>2019-06-01T06:22:42Z</time>
      </trkpt>
      <trkpt lat="44.11011" lon="4.60219">
        <ele>104.8</ele>
        <time>2019-06-01T06:22:44Z</time>
      </trkpt>
      <trkpt lat="44.11014" lon="4.60216">
        <ele>104.7</ele>
        <time>2019-06-01T06:22:45Z</time>
      </trkpt>
      <trkpt lat="44.11016" lon="4.60214">
        <ele>104.5</ele>
        <time>2019-06-01T06:22:46Z</time>
      </trkpt>
      <trkpt lat="44.11019" lon="4.6021">
        <ele>104.3</ele>
        <time>2019-06-01T06:22:47Z</time>
      </trkpt>
      <trkpt lat="44.11022" lon="4.60204">
        <ele>103.7</ele>
        <time>2019-06-01T06:22:48Z</time>
      </trkpt>
      <trkpt lat="44.11028" lon="4.60194">
        <ele>102.9</ele>
        <time>2019-06-01T06:22:49Z</time>
      </trkpt>
      <trkpt lat="44.11033" lon="4.60193">
        <ele>102.7</ele>
        <time>2019-06-01T06:22:50Z</time>
      </trkpt>
      <trkpt lat="44.11035" lon="4.6019">
        <ele>102.4</ele>
        <time>2019-06-01T06:22:51Z</time>
      </trkpt>
      <trkpt lat="44.1104" lon="4.60188">
        <ele>102</ele>
        <time>2019-06-01T06:22:52Z</time>
      </trkpt>
      <trkpt lat="44.11045" lon="4.60184">
        <ele>101.3</ele>
        <time>2019-06-01T06:22:53Z</time>
      </trkpt>
      <trkpt lat="44.1105" lon="4.60178">
        <ele>100.8</ele>
        <time>2019-06-01T06:22:54Z</time>
      </trkpt>
      <trkpt lat="44.11056" lon="4.60174">
        <ele>100.2</ele>
        <time>2019-06-01T06:22:55Z</time>
      </trkpt>
      <trkpt lat="44.11059" lon="4.60172">
        <ele>99.6</ele>
        <time>2019-06-01T06:22:56Z</time>
      </trkpt>
      <trkpt lat="44.11063" lon="4.60172">
        <ele>99.7</ele>
        <time>2019-06-01T06:22:57Z</time>
      </trkpt>
      <trkpt lat="44.11066" lon="4.6017">
        <ele>99.7</ele>
        <time>2019-06-01T06:22:58Z</time>
      </trkpt>
      <trkpt lat="44.11069" lon="4.60166">
        <ele>99.1</ele>
        <time>2019-06-01T06:23:00Z</time>
      </trkpt>
      <trkpt lat="44.1107" lon="4.60161">
        <ele>98.5</ele>
        <time>2019-06-01T06:23:01Z</time>
      </trkpt>
      <trkpt lat="44.11072" lon="4.60156">
        <ele>98</ele>
        <time>2019-06-01T06:23:02Z</time>
      </trkpt>
      <trkpt lat="44.11074" lon="4.60149">
        <ele>96.9</ele>
        <time>2019-06-01T06:23:03Z</time>
      </trkpt>
      <trkpt lat="44.11072" lon="4.6014">
        <ele>95.5</ele>
        <time>2019-06-01T06:23:04Z</time>
      </trkpt>
      <trkpt lat="44.11072" lon="4.60134">
        <ele>94.3</ele>
        <time>2019-06-01T06:23:05Z</time>
      </trkpt>
      <trkpt lat="44.11072" lon="4.60126">
        <ele>93.7</ele>
        <time>2019-06-01T06:23:06Z</time>
      </trkpt>
      <trkpt lat="44.11073" lon="4.6012">
        <ele>92.8</ele>
        <time>2019-06-01T06:23:07Z</time>
      </trkpt>
      <trkpt lat="44.11074" lon="4.60116">
        <ele>92.4</ele>
        <time>2019-06-01T06:23:08Z</time>
      </trkpt>
      <trkpt lat="44.11075" lon="4.60111">
        <ele>92</ele>
        <time>2019-06-01T06:23:09Z</time>
      </trkpt>
      <trkpt lat="44.11075" lon="4.60106">
        <ele>91.5</ele>
        <time>2019-06-01T06:23:11Z</time>
      </trkpt>
      <trkpt lat="44.11073" lon="4.60101">
        <ele>91.1</ele>
        <time>2019-06-01T06:23:13Z</time>
      </trkpt>
      <trkpt lat="44.1107" lon="4.60099">
        <ele>90.6</ele>
        <time>2019-06-01T06:23:18Z</time>
      </trkpt>
      <trkpt lat="44.11071" lon="4.60096">
        <ele>90.6</ele>
        <time>2019-06-01T06:23:24Z</time>
      </trkpt>
      <trkpt lat="44.11072" lon="4.60089">
        <ele>89.8</ele>
        <time>2019-06-01T06:23:27Z</time>
      </trkpt>
      <trkpt lat="44.11073" lon="4.60085">
        <ele>89.4</ele>
        <time>2019-06-01T06:23:29Z</time>
      </trkpt>
      <trkpt lat="44.11078" lon="4.60082">
        <ele>89.3</ele>
        <time>2019-06-01T06:23:32Z</time>
      </trkpt>
      <trkpt lat="44.11082" lon="4.6008">
        <ele>89.4</ele>
        <time>2019-06-01T06:23:33Z</time>
      </trkpt>
      <trkpt lat="44.11086" lon="4.60077">
        <ele>89.4</ele>
        <time>2019-06-01T06:23:34Z</time>
      </trkpt>
      <trkpt lat="44.1109" lon="4.60075">
        <ele>89.6</ele>
        <time>2019-06-01T06:23:35Z</time>
      </trkpt>
      <trkpt lat="44.11097" lon="4.60071">
        <ele>89.8</ele>
        <time>2019-06-01T06:23:36Z</time>
      </trkpt>
      <trkpt lat="44.11103" lon="4.60067">
        <ele>90.1</ele>
        <time>2019-06-01T06:23:37Z</time>
      </trkpt>
      <trkpt lat="44.11108" lon="4.60063">
        <ele>90.3</ele>
        <time>2019-06-01T06:23:38Z</time>
      </trkpt>
      <trkpt lat="44.11113" lon="4.6006">
        <ele>90.3</ele>
        <time>2019-06-01T06:23:39Z</time>
      </trkpt>
      <trkpt lat="44.11115" lon="4.60058">
        <ele>90.3</ele>
        <time>2019-06-01T06:23:40Z</time>
      </trkpt>
      <trkpt lat="44.11119" lon="4.60057">
        <ele>90.4</ele>
        <time>2019-06-01T06:23:43Z</time>
      </trkpt>
      <trkpt lat="44.11123" lon="4.60059">
        <ele>90.4</ele>
        <time>2019-06-01T06:23:45Z</time>
      </trkpt>
      <trkpt lat="44.11128" lon="4.6006">
        <ele>90.4</ele>
        <time>2019-06-01T06:23:47Z</time>
      </trkpt>
      <trkpt lat="44.11136" lon="4.60067">
        <ele>90.7</ele>
        <time>2019-06-01T06:23:49Z</time>
      </trkpt>
      <trkpt lat="44.11141" lon="4.60068">
        <ele>90.6</ele>
        <time>2019-06-01T06:23:51Z</time>
      </trkpt>
      <trkpt lat="44.11143" lon="4.60071">
        <ele>90.8</ele>
        <time>2019-06-01T06:23:54Z</time>
      </trkpt>
      <trkpt lat="44.11146" lon="4.60074">
        <ele>90.9</ele>
        <time>2019-06-01T06:23:56Z</time>
      </trkpt>
      <trkpt lat="44.1115" lon="4.60079">
        <ele>91</ele>
        <time>2019-06-01T06:23:58Z</time>
      </trkpt>
      <trkpt lat="44.11154" lon="4.60081">
        <ele>90.8</ele>
        <time>2019-06-01T06:24:00Z</time>
      </trkpt>
      <trkpt lat="44.11158" lon="4.60084">
        <ele>90.9</ele>
        <time>2019-06-01T06:24:02Z</time>
      </trkpt>
      <trkpt lat="44.11161" lon="4.60085">
        <ele>90.7</ele>
        <time>2019-06-01T06:24:03Z</time>
      </trkpt>
      <trkpt lat="44.11164" lon="4.60087">
        <ele>90.8</ele>
        <time>2019-06-01T06:24:04Z</time>
      </trkpt>
      <trkpt lat="44.11168" lon="4.60088">
        <ele>90.6</ele>
        <time>2019-06-01T06:24:05Z</time>
      </trkpt>
      <trkpt lat="44.1118" lon="4.60088">
        <ele>89.9</ele>
        <time>2019-06-01T06:24:06Z</time>
      </trkpt>
      <trkpt lat="44.11186" lon="4.60087">
        <ele>89.5</ele>
        <time>2019-06-01T06:24:07Z</time>
      </trkpt>
      <trkpt lat="44.11204" lon="4.60097">
        <ele>89.1</ele>
        <time>2019-06-01T06:24:09Z</time>
      </trkpt>
      <trkpt lat="44.11207" lon="4.60099">
        <ele>89</ele>
        <time>2019-06-01T06:24:10Z</time>
      </trkpt>
      <trkpt lat="44.1121" lon="4.60097">
        <ele>88.8</ele>
        <time>2019-06-01T06:24:11Z</time>
      </trkpt>
      <trkpt lat="44.11213" lon="4.60099">
        <ele>88.6</ele>
        <time>2019-06-01T06:24:13Z</time>
      </trkpt>
      <trkpt lat="44.1122" lon="4.60098">
        <ele>88.2</ele>
        <time>2019-06-01T06:24:15Z</time>
      </trkpt>
      <trkpt lat="44.11227" lon="4.60098">
        <ele>87.8</ele>
        <time>2019-06-01T06:24:17Z</time>
      </trkpt>
      <trkpt lat="44.11231" lon="4.60098">
        <ele>87.4</ele>
        <time>2019-06-01T06:24:18Z</time>
      </trkpt>
      <trkpt lat="44.11235" lon="4.60099">
        <ele>87.2</ele>
        <time>2019-06-01T06:24:19Z</time>
      </trkpt>
      <trkpt lat="44.11243" lon="4.60103">
        <ele>87</ele>
        <time>2019-06-01T06:24:20Z</time>
      </trkpt>
      <trkpt lat="44.11247" lon="4.60105">
        <ele>87</ele>
        <time>2019-06-01T06:24:21Z</time>
      </trkpt>
      <trkpt lat="44.11252" lon="4.60106">
        <ele>86.7</ele>
        <time>2019-06-01T06:24:22Z</time>
      </trkpt>
      <trkpt lat="44.11255" lon="4.60106">
        <ele>86.3</ele>
        <time>2019-06-01T06:24:23Z</time>
      </trkpt>
      <trkpt lat="44.11258" lon="4.60104">
        <ele>86</ele>
        <time>2019-06-01T06:24:24Z</time>
      </trkpt>
      <trkpt lat="44.1126" lon="4.60102">
        <ele>85.7</ele>
        <time>2019-06-01T06:24:25Z</time>
      </trkpt>
      <trkpt lat="44.11262" lon="4.60095">
        <ele>85</ele>
        <time>2019-06-01T06:24:26Z</time>
      </trkpt>
      <trkpt lat="44.11264" lon="4.60091">
        <ele>84.8</ele>
        <time>2019-06-01T06:24:27Z</time>
      </trkpt>
      <trkpt lat="44.11267" lon="4.60087">
        <ele>84.4</ele>
        <time>2019-06-01T06:24:29Z</time>
      </trkpt>
      <trkpt lat="44.11266" lon="4.60083">
        <ele>84.4</ele>
        <time>2019-06-01T06:24:30Z</time>
      </trkpt>
      <trkpt lat="44.11262" lon="4.60079">
        <ele>84.4</ele>
        <time>2019-06-01T06:24:31Z</time>
      </trkpt>
      <trkpt lat="44.11259" lon="4.60075">
        <ele>84.3</ele>
        <time>2019-06-01T06:24:32Z</time>
      </trkpt>
      <trkpt lat="44.11257" lon="4.60068">
        <ele>84.2</ele>
        <time>2019-06-01T06:24:33Z</time>
      </trkpt>
      <trkpt lat="44.11257" lon="4.60061">
        <ele>84</ele>
        <time>2019-06-01T06:24:34Z</time>
      </trkpt>
      <trkpt lat="44.11257" lon="4.60055">
        <ele>83.8</ele>
        <time>2019-06-01T06:24:35Z</time>
      </trkpt>
      <trkpt lat="44.11259" lon="4.60048">
        <ele>83.5</ele>
        <time>2019-06-01T06:24:36Z</time>
      </trkpt>
      <trkpt lat="44.1126" lon="4.60041">
        <ele>83.2</ele>
        <time>2019-06-01T06:24:37Z</time>
      </trkpt>
      <trkpt lat="44.1126" lon="4.60033">
        <ele>83.1</ele>
        <time>2019-06-01T06:24:38Z</time>
      </trkpt>
      <trkpt lat="44.1126" lon="4.60025">
        <ele>82.9</ele>
        <time>2019-06-01T06:24:39Z</time>
      </trkpt>
      <trkpt lat="44.11259" lon="4.60017">
        <ele>82.8</ele>
        <time>2019-06-01T06:24:40Z</time>
      </trkpt>
      <trkpt lat="44.11258" lon="4.60011">
        <ele>82.7</ele>
        <time>2019-06-01T06:24:41Z</time>
      </trkpt>
      <trkpt lat="44.11259" lon="4.60005">
        <ele>82.7</ele>
        <time>2019-06-01T06:24:42Z</time>
      </trkpt>
      <trkpt lat="44.11259" lon="4.59999">
        <ele>82.7</ele>
        <time>2019-06-01T06:24:43Z</time>
      </trkpt>
      <trkpt lat="44.11257" lon="4.59993">
        <ele>82.9</ele>
        <time>2019-06-01T06:24:44Z</time>
      </trkpt>
      <trkpt lat="44.11254" lon="4.59989">
        <ele>83.1</ele>
        <time>2019-06-01T06:24:45Z</time>
      </trkpt>
      <trkpt lat="44.11252" lon="4.59984">
        <ele>83.3</ele>
        <time>2019-06-01T06:24:46Z</time>
      </trkpt>
      <trkpt lat="44.11251" lon="4.59979">
        <ele>83.4</ele>
        <time>2019-06-01T06:24:47Z</time>
      </trkpt>
      <trkpt lat="44.11251" lon="4.59973">
        <ele>83.6</ele>
        <time>2019-06-01T06:24:48Z</time>
      </trkpt>
      <trkpt lat="44.11251" lon="4.59968">
        <ele>83.7</ele>
        <time>2019-06-01T06:24:49Z</time>
      </trkpt>
      <trkpt lat="44.11251" lon="4.59962">
        <ele>83.9</ele>
        <time>2019-06-01T06:24:50Z</time>
      </trkpt>
      <trkpt lat="44.1125" lon="4.59956">
        <ele>84</ele>
        <time>2019-06-01T06:24:51Z</time>
      </trkpt>
      <trkpt lat="44.11249" lon="4.59951">
        <ele>84.1</ele>
        <time>2019-06-01T06:24:52Z</time>
      </trkpt>
      <trkpt lat="44.11248" lon="4.59946">
        <ele>84.2</ele>
        <time>2019-06-01T06:24:53Z</time>
      </trkpt>
      <trkpt lat="44.11246" lon="4.59941">
        <ele>84.2</ele>
        <time>2019-06-01T06:24:54Z</time>
      </trkpt>
      <trkpt lat="44.11245" lon="4.59936">
        <ele>84.3</ele>
        <time>2019-06-01T06:24:55Z</time>
      </trkpt>
      <trkpt lat="44.11244" lon="4.59931">
        <ele>84.4</ele>
        <time>2019-06-01T06:24:56Z</time>
      </trkpt>
      <trkpt lat="44.11242" lon="4.59925">
        <ele>84.5</ele>
        <time>2019-06-01T06:24:57Z</time>
      </trkpt>
      <trkpt lat="44.11241" lon="4.5992">
        <ele>84.5</ele>
        <time>2019-06-01T06:24:58Z</time>
      </trkpt>
      <trkpt lat="44.1124" lon="4.59914">
        <ele>84.5</ele>
        <time>2019-06-01T06:24:59Z</time>
      </trkpt>
      <trkpt lat="44.1124" lon="4.59908">
        <ele>84.5</ele>
        <time>2019-06-01T06:25:00Z</time>
      </trkpt>
      <trkpt lat="44.11239" lon="4.59902">
        <ele>84.5</ele>
        <time>2019-06-01T06:25:01Z</time>
      </trkpt>
      <trkpt lat="44.11239" lon="4.59895">
        <ele>84.5</ele>
        <time>2019-06-01T06:25:02Z</time>
      </trkpt>
      <trkpt lat="44.11238" lon="4.59889">
        <ele>84.5</ele>
        <time>2019-06-01T06:25:03Z</time>
      </trkpt>
      <trkpt lat="44.11237" lon="4.59882">
        <ele>84.5</ele>
        <time>2019-06-01T06:25:04Z</time>
      </trkpt>
      <trkpt lat="44.11238" lon="4.59874">
        <ele>84.4</ele>
        <time>2019-06-01T06:25:05Z</time>
      </trkpt>
      <trkpt lat="44.11239" lon="4.59867">
        <ele>84.4</ele>
        <time>2019-06-01T06:25:06Z</time>
      </trkpt>
      <trkpt lat="44.11238" lon="4.5986">
        <ele>84.3</ele>
        <time>2019-06-01T06:25:07Z</time>
      </trkpt>
      <trkpt lat="44.11239" lon="4.59853">
        <ele>84.3</ele>
        <time>2019-06-01T06:25:08Z</time>
      </trkpt>
      <trkpt lat="44.11239" lon="4.59846">
        <ele>84.2</ele>
        <time>2019-06-01T06:25:09Z</time>
      </trkpt>
      <trkpt lat="44.11239" lon="4.59839">
        <ele>84.2</ele>
        <time>2019-06-01T06:25:10Z</time>
      </trkpt>
      <trkpt lat="44.1124" lon="4.59833">
        <ele>84.2</ele>
        <time>2019-06-01T06:25:11Z</time>
      </trkpt>
      <trkpt lat="44.11239" lon="4.59826">
        <ele>84.2</ele>
        <time>2019-06-01T06:25:12Z</time>
      </trkpt>
      <trkpt lat="44.1124" lon="4.59819">
        <ele>84.3</ele>
        <time>2019-06-01T06:25:13Z</time>
      </trkpt>
      <trkpt lat="44.1124" lon="4.59813">
        <ele>84.3</ele>
        <time>2019-06-01T06:25:14Z</time>
      </trkpt>
      <trkpt lat="44.1124" lon="4.59808">
        <ele>84.4</ele>
        <time>2019-06-01T06:25:15Z</time>
      </trkpt>
      <trkpt lat="44.1124" lon="4.59802">
        <ele>84.5</ele>
        <time>2019-06-01T06:25:16Z</time>
      </trkpt>
      <trkpt lat="44.11239" lon="4.59798">
        <ele>84.6</ele>
        <time>2019-06-01T06:25:17Z</time>
      </trkpt>
      <trkpt lat="44.11238" lon="4.59793">
        <ele>84.7</ele>
        <time>2019-06-01T06:25:18Z</time>
      </trkpt>
      <trkpt lat="44.11238" lon="4.59788">
        <ele>84.8</ele>
        <time>2019-06-01T06:25:19Z</time>
      </trkpt>
      <trkpt lat="44.1124" lon="4.59784">
        <ele>84.9</ele>
        <time>2019-06-01T06:25:20Z</time>
      </trkpt>
      <trkpt lat="44.11244" lon="4.59778">
        <ele>85.2</ele>
        <time>2019-06-01T06:25:22Z</time>
      </trkpt>
      <trkpt lat="44.11248" lon="4.59779">
        <ele>85.5</ele>
        <time>2019-06-01T06:25:24Z</time>
      </trkpt>
      <trkpt lat="44.11249" lon="4.59775">
        <ele>85.7</ele>
        <time>2019-06-01T06:25:25Z</time>
      </trkpt>
      <trkpt lat="44.1125" lon="4.59771">
        <ele>85.9</ele>
        <time>2019-06-01T06:25:27Z</time>
      </trkpt>
      <trkpt lat="44.11251" lon="4.59767">
        <ele>86.2</ele>
        <time>2019-06-01T06:25:36Z</time>
      </trkpt>
      <trkpt lat="44.11251" lon="4.59763">
        <ele>86.4</ele>
        <time>2019-06-01T06:25:41Z</time>
      </trkpt>
      <trkpt lat="44.11252" lon="4.59759">
        <ele>86.7</ele>
        <time>2019-06-01T06:25:43Z</time>
      </trkpt>
      <trkpt lat="44.11254" lon="4.59753">
        <ele>87.2</ele>
        <time>2019-06-01T06:25:45Z</time>
      </trkpt>
      <trkpt lat="44.11255" lon="4.59747">
        <ele>87.5</ele>
        <time>2019-06-01T06:25:47Z</time>
      </trkpt>
      <trkpt lat="44.11257" lon="4.59743">
        <ele>87.8</ele>
        <time>2019-06-01T06:25:49Z</time>
      </trkpt>
      <trkpt lat="44.11259" lon="4.59738">
        <ele>88.1</ele>
        <time>2019-06-01T06:25:51Z</time>
      </trkpt>
      <trkpt lat="44.11261" lon="4.59733">
        <ele>88.4</ele>
        <time>2019-06-01T06:25:53Z</time>
      </trkpt>
      <trkpt lat="44.11262" lon="4.59725">
        <ele>88.5</ele>
        <time>2019-06-01T06:25:55Z</time>
      </trkpt>
      <trkpt lat="44.11264" lon="4.59722">
        <ele>88.6</ele>
        <time>2019-06-01T06:25:56Z</time>
      </trkpt>
      <trkpt lat="44.11266" lon="4.59715">
        <ele>88.6</ele>
        <time>2019-06-01T06:25:58Z</time>
      </trkpt>
      <trkpt lat="44.11267" lon="4.5971">
        <ele>88.6</ele>
        <time>2019-06-01T06:25:59Z</time>
      </trkpt>
      <trkpt lat="44.11269" lon="4.59705">
        <ele>88.6</ele>
        <time>2019-06-01T06:26:00Z</time>
      </trkpt>
      <trkpt lat="44.1127" lon="4.597">
        <ele>88.6</ele>
        <time>2019-06-01T06:26:01Z</time>
      </trkpt>
      <trkpt lat="44.11271" lon="4.59695">
        <ele>88.5</ele>
        <time>2019-06-01T06:26:02Z</time>
      </trkpt>
      <trkpt lat="44.11272" lon="4.59689">
        <ele>88.5</ele>
        <time>2019-06-01T06:26:03Z</time>
      </trkpt>
      <trkpt lat="44.11273" lon="4.59683">
        <ele>88.5</ele>
        <time>2019-06-01T06:26:04Z</time>
      </trkpt>
      <trkpt lat="44.11273" lon="4.59677">
        <ele>88.5</ele>
        <time>2019-06-01T06:26:05Z</time>
      </trkpt>
      <trkpt lat="44.11272" lon="4.59671">
        <ele>88.6</ele>
        <time>2019-06-01T06:26:06Z</time>
      </trkpt>
      <trkpt lat="44.11272" lon="4.59665">
        <ele>88.8</ele>
        <time>2019-06-01T06:26:07Z</time>
      </trkpt>
      <trkpt lat="44.11272" lon="4.5966">
        <ele>89</ele>
        <time>2019-06-01T06:26:08Z</time>
      </trkpt>
      <trkpt lat="44.11271" lon="4.59654">
        <ele>89.2</ele>
        <time>2019-06-01T06:26:09Z</time>
      </trkpt>
      <trkpt lat="44.1127" lon="4.59648">
        <ele>89.5</ele>
        <time>2019-06-01T06:26:10Z</time>
      </trkpt>
      <trkpt lat="44.11268" lon="4.59643">
        <ele>89.8</ele>
        <time>2019-06-01T06:26:11Z</time>
      </trkpt>
      <trkpt lat="44.11267" lon="4.59639">
        <ele>90</ele>
        <time>2019-06-01T06:26:12Z</time>
      </trkpt>
      <trkpt lat="44.11264" lon="4.59632">
        <ele>90.3</ele>
        <time>2019-06-01T06:26:14Z</time>
      </trkpt>
      <trkpt lat="44.11262" lon="4.59626">
        <ele>90.6</ele>
        <time>2019-06-01T06:26:16Z</time>
      </trkpt>
      <trkpt lat="44.11259" lon="4.59621">
        <ele>90.9</ele>
        <time>2019-06-01T06:26:18Z</time>
      </trkpt>
      <trkpt lat="44.11257" lon="4.59617">
        <ele>91.1</ele>
        <time>2019-06-01T06:26:19Z</time>
      </trkpt>
      <trkpt lat="44.11256" lon="4.59614">
        <ele>91.2</ele>
        <time>2019-06-01T06:26:20Z</time>
      </trkpt>
      <trkpt lat="44.11254" lon="4.59611">
        <ele>91.4</ele>
        <time>2019-06-01T06:26:21Z</time>
      </trkpt>
      <trkpt lat="44.11251" lon="4.59605">
        <ele>91.6</ele>
        <time>2019-06-01T06:26:23Z</time>
      </trkpt>
      <trkpt lat="44.11248" lon="4.59599">
        <ele>91.8</ele>
        <time>2019-06-01T06:26:25Z</time>
      </trkpt>
      <trkpt lat="44.11248" lon="4.59595">
        <ele>91.8</ele>
        <time>2019-06-01T06:26:26Z</time>
      </trkpt>
      <trkpt lat="44.11246" lon="4.59589">
        <ele>91.9</ele>
        <time>2019-06-01T06:26:28Z</time>
      </trkpt>
      <trkpt lat="44.11244" lon="4.59581">
        <ele>92</ele>
        <time>2019-06-01T06:26:30Z</time>
      </trkpt>
      <trkpt lat="44.11243" lon="4.59578">
        <ele>92</ele>
        <time>2019-06-01T06:26:31Z</time>
      </trkpt>
      <trkpt lat="44.11242" lon="4.59574">
        <ele>92</ele>
        <time>2019-06-01T06:26:32Z</time>
      </trkpt>
      <trkpt lat="44.11241" lon="4.5957">
        <ele>92</ele>
        <time>2019-06-01T06:26:33Z</time>
      </trkpt>
      <trkpt lat="44.11239" lon="4.59565">
        <ele>91.9</ele>
        <time>2019-06-01T06:26:34Z</time>
      </trkpt>
      <trkpt lat="44.11237" lon="4.59561">
        <ele>91.9</ele>
        <time>2019-06-01T06:26:35Z</time>
      </trkpt>
      <trkpt lat="44.11235" lon="4.59556">
        <ele>91.9</ele>
        <time>2019-06-01T06:26:36Z</time>
      </trkpt>
      <trkpt lat="44.11232" lon="4.59552">
        <ele>91.4</ele>
        <time>2019-06-01T06:26:37Z</time>
      </trkpt>
      <trkpt lat="44.1123" lon="4.59548">
        <ele>90.9</ele>
        <time>2019-06-01T06:26:38Z</time>
      </trkpt>
      <trkpt lat="44.11228" lon="4.59545">
        <ele>90.6</ele>
        <time>2019-06-01T06:26:39Z</time>
      </trkpt>
      <trkpt lat="44.11224" lon="4.5954">
        <ele>89.9</ele>
        <time>2019-06-01T06:26:41Z</time>
      </trkpt>
      <trkpt lat="44.1122" lon="4.59536">
        <ele>89.3</ele>
        <time>2019-06-01T06:26:43Z</time>
      </trkpt>
      <trkpt lat="44.11217" lon="4.59533">
        <ele>88.8</ele>
        <time>2019-06-01T06:26:45Z</time>
      </trkpt>
      <trkpt lat="44.11215" lon="4.59529">
        <ele>88.2</ele>
        <time>2019-06-01T06:26:47Z</time>
      </trkpt>
      <trkpt lat="44.11212" lon="4.59524">
        <ele>87.4</ele>
        <time>2019-06-01T06:26:49Z</time>
      </trkpt>
      <trkpt lat="44.1121" lon="4.59517">
        <ele>86.5</ele>
        <time>2019-06-01T06:26:51Z</time>
      </trkpt>
      <trkpt lat="44.11211" lon="4.59511">
        <ele>85.4</ele>
        <time>2019-06-01T06:26:53Z</time>
      </trkpt>
      <trkpt lat="44.11213" lon="4.59508">
        <ele>85.3</ele>
        <time>2019-06-01T06:26:54Z</time>
      </trkpt>
      <trkpt lat="44.11216" lon="4.59503">
        <ele>85.4</ele>
        <time>2019-06-01T06:26:55Z</time>
      </trkpt>
      <trkpt lat="44.1122" lon="4.59499">
        <ele>85.7</ele>
        <time>2019-06-01T06:26:56Z</time>
      </trkpt>
      <trkpt lat="44.11226" lon="4.59492">
        <ele>86.2</ele>
        <time>2019-06-01T06:26:57Z</time>
      </trkpt>
      <trkpt lat="44.11232" lon="4.59488">
        <ele>86.5</ele>
        <time>2019-06-01T06:26:58Z</time>
      </trkpt>
      <trkpt lat="44.11236" lon="4.59485">
        <ele>86.9</ele>
        <time>2019-06-01T06:26:59Z</time>
      </trkpt>
      <trkpt lat="44.11238" lon="4.59482">
        <ele>87.1</ele>
        <time>2019-06-01T06:27:00Z</time>
      </trkpt>
      <trkpt lat="44.11242" lon="4.59479">
        <ele>87.2</ele>
        <time>2019-06-01T06:27:01Z</time>
      </trkpt>
      <trkpt lat="44.11247" lon="4.59477">
        <ele>87.4</ele>
        <time>2019-06-01T06:27:02Z</time>
      </trkpt>
      <trkpt lat="44.11251" lon="4.59472">
        <ele>87.7</ele>
        <time>2019-06-01T06:27:03Z</time>
      </trkpt>
      <trkpt lat="44.11253" lon="4.59467">
        <ele>87.9</ele>
        <time>2019-06-01T06:27:04Z</time>
      </trkpt>
      <trkpt lat="44.11251" lon="4.59458">
        <ele>88.1</ele>
        <time>2019-06-01T06:27:05Z</time>
      </trkpt>
      <trkpt lat="44.11251" lon="4.59451">
        <ele>88.1</ele>
        <time>2019-06-01T06:27:06Z</time>
      </trkpt>
      <trkpt lat="44.11252" lon="4.59445">
        <ele>88</ele>
        <time>2019-06-01T06:27:07Z</time>
      </trkpt>
      <trkpt lat="44.11257" lon="4.59433">
        <ele>87.5</ele>
        <time>2019-06-01T06:27:08Z</time>
      </trkpt>
      <trkpt lat="44.11259" lon="4.59426">
        <ele>87.2</ele>
        <time>2019-06-01T06:27:09Z</time>
      </trkpt>
      <trkpt lat="44.11265" lon="4.59422">
        <ele>87</ele>
        <time>2019-06-01T06:27:11Z</time>
      </trkpt>
      <trkpt lat="44.11267" lon="4.59418">
        <ele>86.9</ele>
        <time>2019-06-01T06:27:12Z</time>
      </trkpt>
      <trkpt lat="44.11273" lon="4.59413">
        <ele>86.5</ele>
        <time>2019-06-01T06:27:13Z</time>
      </trkpt>
      <trkpt lat="44.1128" lon="4.59412">
        <ele>86.6</ele>
        <time>2019-06-01T06:27:15Z</time>
      </trkpt>
      <trkpt lat="44.11283" lon="4.59408">
        <ele>86.6</ele>
        <time>2019-06-01T06:27:16Z</time>
      </trkpt>
      <trkpt lat="44.11286" lon="4.59406">
        <ele>86.6</ele>
        <time>2019-06-01T06:27:17Z</time>
      </trkpt>
      <trkpt lat="44.1129" lon="4.59402">
        <ele>86.8</ele>
        <time>2019-06-01T06:27:19Z</time>
      </trkpt>
      <trkpt lat="44.11294" lon="4.59403">
        <ele>86.8</ele>
        <time>2019-06-01T06:27:21Z</time>
      </trkpt>
      <trkpt lat="44.11298" lon="4.59404">
        <ele>86.9</ele>
        <time>2019-06-01T06:27:23Z</time>
      </trkpt>
      <trkpt lat="44.11299" lon="4.59409">
        <ele>87</ele>
        <time>2019-06-01T06:27:25Z</time>
      </trkpt>
      <trkpt lat="44.113" lon="4.59415">
        <ele>87.2</ele>
        <time>2019-06-01T06:27:28Z</time>
      </trkpt>
      <trkpt lat="44.11299" lon="4.59418">
        <ele>87.3</ele>
        <time>2019-06-01T06:27:30Z</time>
      </trkpt>
      <trkpt lat="44.11296" lon="4.59423">
        <ele>87.6</ele>
        <time>2019-06-01T06:27:33Z</time>
      </trkpt>
      <trkpt lat="44.11293" lon="4.59428">
        <ele>88</ele>
        <time>2019-06-01T06:27:35Z</time>
      </trkpt>
      <trkpt lat="44.11291" lon="4.59435">
        <ele>88.4</ele>
        <time>2019-06-01T06:27:37Z</time>
      </trkpt>
      <trkpt lat="44.11293" lon="4.59439">
        <ele>88.5</ele>
        <time>2019-06-01T06:27:38Z</time>
      </trkpt>
      <trkpt lat="44.11296" lon="4.59443">
        <ele>90.1</ele>
        <time>2019-06-01T06:27:39Z</time>
      </trkpt>
      <trkpt lat="44.11302" lon="4.59447">
        <ele>90</ele>
        <time>2019-06-01T06:27:40Z</time>
      </trkpt>
      <trkpt lat="44.11307" lon="4.59448">
        <ele>89.8</ele>
        <time>2019-06-01T06:27:41Z</time>
      </trkpt>
      <trkpt lat="44.11319" lon="4.5945">
        <ele>89.6</ele>
        <time>2019-06-01T06:27:42Z</time>
      </trkpt>
      <trkpt lat="44.11324" lon="4.59446">
        <ele>89.5</ele>
        <time>2019-06-01T06:27:43Z</time>
      </trkpt>
      <trkpt lat="44.11327" lon="4.59443">
        <ele>89.4</ele>
        <time>2019-06-01T06:27:44Z</time>
      </trkpt>
      <trkpt lat="44.1133" lon="4.59439">
        <ele>89.4</ele>
        <time>2019-06-01T06:27:45Z</time>
      </trkpt>
      <trkpt lat="44.11332" lon="4.59433">
        <ele>89.3</ele>
        <time>2019-06-01T06:27:46Z</time>
      </trkpt>
      <trkpt lat="44.11335" lon="4.59428">
        <ele>89.2</ele>
        <time>2019-06-01T06:27:47Z</time>
      </trkpt>
      <trkpt lat="44.11338" lon="4.59422">
        <ele>89.2</ele>
        <time>2019-06-01T06:27:48Z</time>
      </trkpt>
      <trkpt lat="44.11342" lon="4.59417">
        <ele>89.1</ele>
        <time>2019-06-01T06:27:49Z</time>
      </trkpt>
      <trkpt lat="44.11346" lon="4.59411">
        <ele>89</ele>
        <time>2019-06-01T06:27:50Z</time>
      </trkpt>
      <trkpt lat="44.11351" lon="4.59405">
        <ele>89</ele>
        <time>2019-06-01T06:27:51Z</time>
      </trkpt>
      <trkpt lat="44.11354" lon="4.59398">
        <ele>89</ele>
        <time>2019-06-01T06:27:52Z</time>
      </trkpt>
      <trkpt lat="44.11357" lon="4.5939">
        <ele>89.1</ele>
        <time>2019-06-01T06:27:53Z</time>
      </trkpt>
      <trkpt lat="44.11359" lon="4.59381">
        <ele>89.1</ele>
        <time>2019-06-01T06:27:54Z</time>
      </trkpt>
      <trkpt lat="44.11361" lon="4.59373">
        <ele>89.1</ele>
        <time>2019-06-01T06:27:55Z</time>
      </trkpt>
      <trkpt lat="44.11363" lon="4.59366">
        <ele>89.1</ele>
        <time>2019-06-01T06:27:56Z</time>
      </trkpt>
      <trkpt lat="44.11364" lon="4.59358">
        <ele>88.9</ele>
        <time>2019-06-01T06:27:57Z</time>
      </trkpt>
      <trkpt lat="44.11366" lon="4.59351">
        <ele>88.8</ele>
        <time>2019-06-01T06:27:58Z</time>
      </trkpt>
      <trkpt lat="44.11368" lon="4.59343">
        <ele>88.6</ele>
        <time>2019-06-01T06:27:59Z</time>
      </trkpt>
      <trkpt lat="44.11369" lon="4.59336">
        <ele>88.3</ele>
        <time>2019-06-01T06:28:00Z</time>
      </trkpt>
      <trkpt lat="44.11371" lon="4.5933">
        <ele>87.8</ele>
        <time>2019-06-01T06:28:01Z</time>
      </trkpt>
      <trkpt lat="44.11371" lon="4.59326">
        <ele>87.6</ele>
        <time>2019-06-01T06:28:02Z</time>
      </trkpt>
      <trkpt lat="44.1137" lon="4.59319">
        <ele>86.8</ele>
        <time>2019-06-01T06:28:04Z</time>
      </trkpt>
      <trkpt lat="44.11366" lon="4.59316">
        <ele>86.6</ele>
        <time>2019-06-01T06:28:05Z</time>
      </trkpt>
      <trkpt lat="44.11363" lon="4.59314">
        <ele>86.4</ele>
        <time>2019-06-01T06:28:06Z</time>
      </trkpt>
      <trkpt lat="44.11357" lon="4.59314">
        <ele>86.2</ele>
        <time>2019-06-01T06:28:07Z</time>
      </trkpt>
      <trkpt lat="44.11352" lon="4.59312">
        <ele>85.9</ele>
        <time>2019-06-01T06:28:08Z</time>
      </trkpt>
      <trkpt lat="44.11347" lon="4.59311">
        <ele>85.6</ele>
        <time>2019-06-01T06:28:09Z</time>
      </trkpt>
      <trkpt lat="44.11342" lon="4.59308">
        <ele>85.3</ele>
        <time>2019-06-01T06:28:10Z</time>
      </trkpt>
      <trkpt lat="44.11336" lon="4.59305">
        <ele>85</ele>
        <time>2019-06-01T06:28:11Z</time>
      </trkpt>
      <trkpt lat="44.1133" lon="4.59304">
        <ele>84.7</ele>
        <time>2019-06-01T06:28:12Z</time>
      </trkpt>
      <trkpt lat="44.11324" lon="4.59302">
        <ele>84.4</ele>
        <time>2019-06-01T06:28:13Z</time>
      </trkpt>
      <trkpt lat="44.11317" lon="4.59301">
        <ele>84.2</ele>
        <time>2019-06-01T06:28:14Z</time>
      </trkpt>
      <trkpt lat="44.1131" lon="4.59299">
        <ele>83.9</ele>
        <time>2019-06-01T06:28:15Z</time>
      </trkpt>
      <trkpt lat="44.11304" lon="4.59297">
        <ele>83.7</ele>
        <time>2019-06-01T06:28:16Z</time>
      </trkpt>
      <trkpt lat="44.11298" lon="4.59296">
        <ele>83.5</ele>
        <time>2019-06-01T06:28:17Z</time>
      </trkpt>
      <trkpt lat="44.11292" lon="4.59296">
        <ele>83.2</ele>
        <time>2019-06-01T06:28:18Z</time>
      </trkpt>
      <trkpt lat="44.11287" lon="4.59296">
        <ele>83</ele>
        <time>2019-06-01T06:28:19Z</time>
      </trkpt>
      <trkpt lat="44.1128" lon="4.59297">
        <ele>82.7</ele>
        <time>2019-06-01T06:28:20Z</time>
      </trkpt>
      <trkpt lat="44.11274" lon="4.59297">
        <ele>82.4</ele>
        <time>2019-06-01T06:28:21Z</time>
      </trkpt>
      <trkpt lat="44.11267" lon="4.59298">
        <ele>82.1</ele>
        <time>2019-06-01T06:28:22Z</time>
      </trkpt>
      <trkpt lat="44.11261" lon="4.59299">
        <ele>81.9</ele>
        <time>2019-06-01T06:28:23Z</time>
      </trkpt>
      <trkpt lat="44.11256" lon="4.593">
        <ele>81.6</ele>
        <time>2019-06-01T06:28:24Z</time>
      </trkpt>
      <trkpt lat="44.1125" lon="4.59301">
        <ele>81.4</ele>
        <time>2019-06-01T06:28:25Z</time>
      </trkpt>
      <trkpt lat="44.11246" lon="4.59302">
        <ele>81.2</ele>
        <time>2019-06-01T06:28:26Z</time>
      </trkpt>
      <trkpt lat="44.11243" lon="4.59302">
        <ele>81.1</ele>
        <time>2019-06-01T06:28:27Z</time>
      </trkpt>
      <trkpt lat="44.11243" lon="4.59293">
        <ele>80.7</ele>
        <time>2019-06-01T06:28:30Z</time>
      </trkpt>
      <trkpt lat="44.11244" lon="4.59288">
        <ele>80.4</ele>
        <time>2019-06-01T06:28:31Z</time>
      </trkpt>
      <trkpt lat="44.11246" lon="4.59282">
        <ele>80.4</ele>
        <time>2019-06-01T06:28:32Z</time>
      </trkpt>
      <trkpt lat="44.11248" lon="4.59276">
        <ele>80.1</ele>
        <time>2019-06-01T06:28:33Z</time>
      </trkpt>
      <trkpt lat="44.11251" lon="4.59269">
        <ele>80.2</ele>
        <time>2019-06-01T06:28:34Z</time>
      </trkpt>
      <trkpt lat="44.11253" lon="4.59263">
        <ele>80.4</ele>
        <time>2019-06-01T06:28:35Z</time>
      </trkpt>
      <trkpt lat="44.11256" lon="4.59258">
        <ele>80.5</ele>
        <time>2019-06-01T06:28:36Z</time>
      </trkpt>
      <trkpt lat="44.11258" lon="4.59254">
        <ele>80.6</ele>
        <time>2019-06-01T06:28:37Z</time>
      </trkpt>
      <trkpt lat="44.11262" lon="4.59249">
        <ele>80.7</ele>
        <time>2019-06-01T06:28:38Z</time>
      </trkpt>
      <trkpt lat="44.11265" lon="4.59247">
        <ele>80.9</ele>
        <time>2019-06-01T06:28:39Z</time>
      </trkpt>
      <trkpt lat="44.11268" lon="4.59244">
        <ele>81</ele>
        <time>2019-06-01T06:28:40Z</time>
      </trkpt>
      <trkpt lat="44.11271" lon="4.59241">
        <ele>81.1</ele>
        <time>2019-06-01T06:28:41Z</time>
      </trkpt>
      <trkpt lat="44.11273" lon="4.59237">
        <ele>81.2</ele>
        <time>2019-06-01T06:28:42Z</time>
      </trkpt>
      <trkpt lat="44.11275" lon="4.59232">
        <ele>81.2</ele>
        <time>2019-06-01T06:28:43Z</time>
      </trkpt>
      <trkpt lat="44.11279" lon="4.59226">
        <ele>81.3</ele>
        <time>2019-06-01T06:28:44Z</time>
      </trkpt>
      <trkpt lat="44.11282" lon="4.59222">
        <ele>81.4</ele>
        <time>2019-06-01T06:28:45Z</time>
      </trkpt>
      <trkpt lat="44.11284" lon="4.59218">
        <ele>81.6</ele>
        <time>2019-06-01T06:28:46Z</time>
      </trkpt>
      <trkpt lat="44.11287" lon="4.59215">
        <ele>81.7</ele>
        <time>2019-06-01T06:28:47Z</time>
      </trkpt>
      <trkpt lat="44.1129" lon="4.5921">
        <ele>81.9</ele>
        <time>2019-06-01T06:28:48Z</time>
      </trkpt>
      <trkpt lat="44.11293" lon="4.59206">
        <ele>82.1</ele>
        <time>2019-06-01T06:28:49Z</time>
      </trkpt>
      <trkpt lat="44.11295" lon="4.59201">
        <ele>82.2</ele>
        <time>2019-06-01T06:28:50Z</time>
      </trkpt>
      <trkpt lat="44.11298" lon="4.59195">
        <ele>82.3</ele>
        <time>2019-06-01T06:28:51Z</time>
      </trkpt>
      <trkpt lat="44.11299" lon="4.59187">
        <ele>82.4</ele>
        <time>2019-06-01T06:28:52Z</time>
      </trkpt>
      <trkpt lat="44.11299" lon="4.59181">
        <ele>82.4</ele>
        <time>2019-06-01T06:28:53Z</time>
      </trkpt>
      <trkpt lat="44.11299" lon="4.59173">
        <ele>82.4</ele>
        <time>2019-06-01T06:28:54Z</time>
      </trkpt>
      <trkpt lat="44.11299" lon="4.59166">
        <ele>82.4</ele>
        <time>2019-06-01T06:28:55Z</time>
      </trkpt>
      <trkpt lat="44.11299" lon="4.59159">
        <ele>82.3</ele>
        <time>2019-06-01T06:28:56Z</time>
      </trkpt>
      <trkpt lat="44.11298" lon="4.59152">
        <ele>82.2</ele>
        <time>2019-06-01T06:28:57Z</time>
      </trkpt>
      <trkpt lat="44.11299" lon="4.59145">
        <ele>82.2</ele>
        <time>2019-06-01T06:28:58Z</time>
      </trkpt>
      <trkpt lat="44.113" lon="4.59137">
        <ele>82.1</ele>
        <time>2019-06-01T06:28:59Z</time>
      </trkpt>
      <trkpt lat="44.11301" lon="4.59129">
        <ele>82.1</ele>
        <time>2019-06-01T06:29:00Z</time>
      </trkpt>
      <trkpt lat="44.11302" lon="4.59122">
        <ele>82.1</ele>
        <time>2019-06-01T06:29:01Z</time>
      </trkpt>
      <trkpt lat="44.11303" lon="4.59113">
        <ele>82.1</ele>
        <time>2019-06-01T06:29:02Z</time>
      </trkpt>
      <trkpt lat="44.11304" lon="4.59106">
        <ele>82.1</ele>
        <time>2019-06-01T06:29:03Z</time>
      </trkpt>
      <trkpt lat="44.11304" lon="4.59099">
        <ele>82.2</ele>
        <time>2019-06-01T06:29:04Z</time>
      </trkpt>
      <trkpt lat="44.11305" lon="4.59093">
        <ele>82.3</ele>
        <time>2019-06-01T06:29:05Z</time>
      </trkpt>
      <trkpt lat="44.11304" lon="4.59085">
        <ele>82.3</ele>
        <time>2019-06-01T06:29:06Z</time>
      </trkpt>
      <trkpt lat="44.11304" lon="4.59079">
        <ele>82.5</ele>
        <time>2019-06-01T06:29:07Z</time>
      </trkpt>
      <trkpt lat="44.11306" lon="4.59066">
        <ele>82.6</ele>
        <time>2019-06-01T06:29:08Z</time>
      </trkpt>
      <trkpt lat="44.11307" lon="4.59058">
        <ele>82.7</ele>
        <time>2019-06-01T06:29:09Z</time>
      </trkpt>
      <trkpt lat="44.11307" lon="4.59053">
        <ele>82.9</ele>
        <time>2019-06-01T06:29:11Z</time>
      </trkpt>
      <trkpt lat="44.11307" lon="4.59047">
        <ele>82.9</ele>
        <time>2019-06-01T06:29:13Z</time>
      </trkpt>
      <trkpt lat="44.11308" lon="4.59042">
        <ele>83.1</ele>
        <time>2019-06-01T06:29:14Z</time>
      </trkpt>
      <trkpt lat="44.11309" lon="4.59038">
        <ele>83.1</ele>
        <time>2019-06-01T06:29:15Z</time>
      </trkpt>
      <trkpt lat="44.11309" lon="4.59027">
        <ele>83.2</ele>
        <time>2019-06-01T06:29:16Z</time>
      </trkpt>
      <trkpt lat="44.11312" lon="4.59019">
        <ele>83.5</ele>
        <time>2019-06-01T06:29:18Z</time>
      </trkpt>
      <trkpt lat="44.1132" lon="4.58989">
        <ele>84.2</ele>
        <time>2019-06-01T06:29:21Z</time>
      </trkpt>
      <trkpt lat="44.11322" lon="4.58985">
        <ele>84.3</ele>
        <time>2019-06-01T06:29:22Z</time>
      </trkpt>
      <trkpt lat="44.11323" lon="4.58982">
        <ele>84.5</ele>
        <time>2019-06-01T06:29:23Z</time>
      </trkpt>
      <trkpt lat="44.11325" lon="4.58979">
        <ele>84.6</ele>
        <time>2019-06-01T06:29:24Z</time>
      </trkpt>
      <trkpt lat="44.11326" lon="4.58975">
        <ele>84.6</ele>
        <time>2019-06-01T06:29:25Z</time>
      </trkpt>
      <trkpt lat="44.11327" lon="4.5897">
        <ele>84.5</ele>
        <time>2019-06-01T06:29:26Z</time>
      </trkpt>
      <trkpt lat="44.11328" lon="4.58965">
        <ele>84.5</ele>
        <time>2019-06-01T06:29:27Z</time>
      </trkpt>
      <trkpt lat="44.11328" lon="4.5896">
        <ele>84.2</ele>
        <time>2019-06-01T06:29:28Z</time>
      </trkpt>
      <trkpt lat="44.11328" lon="4.58955">
        <ele>84.3</ele>
        <time>2019-06-01T06:29:29Z</time>
      </trkpt>
      <trkpt lat="44.11328" lon="4.5895">
        <ele>84.4</ele>
        <time>2019-06-01T06:29:30Z</time>
      </trkpt>
      <trkpt lat="44.11329" lon="4.58945">
        <ele>84.6</ele>
        <time>2019-06-01T06:29:31Z</time>
      </trkpt>
      <trkpt lat="44.11329" lon="4.58939">
        <ele>84.7</ele>
        <time>2019-06-01T06:29:32Z</time>
      </trkpt>
      <trkpt lat="44.1133" lon="4.58934">
        <ele>84.8</ele>
        <time>2019-06-01T06:29:33Z</time>
      </trkpt>
      <trkpt lat="44.11331" lon="4.58928">
        <ele>85</ele>
        <time>2019-06-01T06:29:34Z</time>
      </trkpt>
      <trkpt lat="44.11331" lon="4.58923">
        <ele>85.1</ele>
        <time>2019-06-01T06:29:35Z</time>
      </trkpt>
      <trkpt lat="44.11332" lon="4.58918">
        <ele>85.4</ele>
        <time>2019-06-01T06:29:36Z</time>
      </trkpt>
      <trkpt lat="44.11333" lon="4.58913">
        <ele>85.5</ele>
        <time>2019-06-01T06:29:37Z</time>
      </trkpt>
      <trkpt lat="44.11335" lon="4.58909">
        <ele>85.7</ele>
        <time>2019-06-01T06:29:38Z</time>
      </trkpt>
      <trkpt lat="44.11336" lon="4.58905">
        <ele>85.8</ele>
        <time>2019-06-01T06:29:39Z</time>
      </trkpt>
      <trkpt lat="44.11337" lon="4.58901">
        <ele>85.9</ele>
        <time>2019-06-01T06:29:40Z</time>
      </trkpt>
      <trkpt lat="44.11339" lon="4.58894">
        <ele>86.1</ele>
        <time>2019-06-01T06:29:42Z</time>
      </trkpt>
      <trkpt lat="44.1134" lon="4.58888">
        <ele>86.2</ele>
        <time>2019-06-01T06:29:43Z</time>
      </trkpt>
      <trkpt lat="44.1134" lon="4.58883">
        <ele>86.3</ele>
        <time>2019-06-01T06:29:44Z</time>
      </trkpt>
      <trkpt lat="44.1134" lon="4.58877">
        <ele>86.3</ele>
        <time>2019-06-01T06:29:45Z</time>
      </trkpt>
      <trkpt lat="44.1134" lon="4.58872">
        <ele>86.5</ele>
        <time>2019-06-01T06:29:46Z</time>
      </trkpt>
      <trkpt lat="44.1134" lon="4.58866">
        <ele>86.6</ele>
        <time>2019-06-01T06:29:47Z</time>
      </trkpt>
      <trkpt lat="44.11339" lon="4.58861">
        <ele>86.8</ele>
        <time>2019-06-01T06:29:48Z</time>
      </trkpt>
      <trkpt lat="44.11338" lon="4.58856">
        <ele>87</ele>
        <time>2019-06-01T06:29:50Z</time>
      </trkpt>
      <trkpt lat="44.11338" lon="4.58861">
        <ele>87.2</ele>
        <time>2019-06-01T06:29:59Z</time>
      </trkpt>
      <trkpt lat="44.11339" lon="4.58865">
        <ele>87</ele>
        <time>2019-06-01T06:30:00Z</time>
      </trkpt>
      <trkpt lat="44.11338" lon="4.5887">
        <ele>86.7</ele>
        <time>2019-06-01T06:30:01Z</time>
      </trkpt>
      <trkpt lat="44.11338" lon="4.58874">
        <ele>86.6</ele>
        <time>2019-06-01T06:30:02Z</time>
      </trkpt>
      <trkpt lat="44.11337" lon="4.58879">
        <ele>86.4</ele>
        <time>2019-06-01T06:30:03Z</time>
      </trkpt>
      <trkpt lat="44.11337" lon="4.58884">
        <ele>86.3</ele>
        <time>2019-06-01T06:30:04Z</time>
      </trkpt>
      <trkpt lat="44.11338" lon="4.58889">
        <ele>86.1</ele>
        <time>2019-06-01T06:30:05Z</time>
      </trkpt>
      <trkpt lat="44.11338" lon="4.58893">
        <ele>86.1</ele>
        <time>2019-06-01T06:30:06Z</time>
      </trkpt>
      <trkpt lat="44.11341" lon="4.58897">
        <ele>86.1</ele>
        <time>2019-06-01T06:30:07Z</time>
      </trkpt>
      <trkpt lat="44.11344" lon="4.58899">
        <ele>86.2</ele>
        <time>2019-06-01T06:30:08Z</time>
      </trkpt>
      <trkpt lat="44.11348" lon="4.589">
        <ele>86.3</ele>
        <time>2019-06-01T06:30:09Z</time>
      </trkpt>
      <trkpt lat="44.11352" lon="4.589">
        <ele>86.5</ele>
        <time>2019-06-01T06:30:10Z</time>
      </trkpt>
      <trkpt lat="44.11356" lon="4.58899">
        <ele>86.6</ele>
        <time>2019-06-01T06:30:11Z</time>
      </trkpt>
      <trkpt lat="44.1136" lon="4.58898">
        <ele>86.8</ele>
        <time>2019-06-01T06:30:12Z</time>
      </trkpt>
      <trkpt lat="44.11364" lon="4.58897">
        <ele>87</ele>
        <time>2019-06-01T06:30:13Z</time>
      </trkpt>
      <trkpt lat="44.11368" lon="4.58897">
        <ele>87.1</ele>
        <time>2019-06-01T06:30:14Z</time>
      </trkpt>
      <trkpt lat="44.11372" lon="4.58896">
        <ele>87.2</ele>
        <time>2019-06-01T06:30:15Z</time>
      </trkpt>
      <trkpt lat="44.11376" lon="4.58896">
        <ele>87.3</ele>
        <time>2019-06-01T06:30:16Z</time>
      </trkpt>
      <trkpt lat="44.11379" lon="4.58895">
        <ele>87.4</ele>
        <time>2019-06-01T06:30:17Z</time>
      </trkpt>
      <trkpt lat="44.11383" lon="4.58895">
        <ele>87.5</ele>
        <time>2019-06-01T06:30:18Z</time>
      </trkpt>
      <trkpt lat="44.11386" lon="4.58895">
        <ele>87.6</ele>
        <time>2019-06-01T06:30:19Z</time>
      </trkpt>
      <trkpt lat="44.11391" lon="4.58895">
        <ele>87.8</ele>
        <time>2019-06-01T06:30:20Z</time>
      </trkpt>
      <trkpt lat="44.11395" lon="4.58895">
        <ele>87.9</ele>
        <time>2019-06-01T06:30:21Z</time>
      </trkpt>
      <trkpt lat="44.11398" lon="4.58895">
        <ele>87.9</ele>
        <time>2019-06-01T06:30:22Z</time>
      </trkpt>
      <trkpt lat="44.11402" lon="4.58895">
        <ele>88.1</ele>
        <time>2019-06-01T06:30:23Z</time>
      </trkpt>
      <trkpt lat="44.11405" lon="4.58895">
        <ele>88.3</ele>
        <time>2019-06-01T06:30:24Z</time>
      </trkpt>
      <trkpt lat="44.11408" lon="4.58895">
        <ele>88.5</ele>
        <time>2019-06-01T06:30:25Z</time>
      </trkpt>
      <trkpt lat="44.11412" lon="4.58896">
        <ele>88.6</ele>
        <time>2019-06-01T06:30:26Z</time>
      </trkpt>
      <trkpt lat="44.11416" lon="4.58896">
        <ele>88.7</ele>
        <time>2019-06-01T06:30:27Z</time>
      </trkpt>
      <trkpt lat="44.1142" lon="4.58897">
        <ele>89</ele>
        <time>2019-06-01T06:30:28Z</time>
      </trkpt>
      <trkpt lat="44.11423" lon="4.58897">
        <ele>89.1</ele>
        <time>2019-06-01T06:30:29Z</time>
      </trkpt>
      <trkpt lat="44.11427" lon="4.58897">
        <ele>89.3</ele>
        <time>2019-06-01T06:30:30Z</time>
      </trkpt>
      <trkpt lat="44.1143" lon="4.58898">
        <ele>89.4</ele>
        <time>2019-06-01T06:30:31Z</time>
      </trkpt>
      <trkpt lat="44.11434" lon="4.58898">
        <ele>89.6</ele>
        <time>2019-06-01T06:30:32Z</time>
      </trkpt>
      <trkpt lat="44.11438" lon="4.58899">
        <ele>89.7</ele>
        <time>2019-06-01T06:30:33Z</time>
      </trkpt>
      <trkpt lat="44.11442" lon="4.589">
        <ele>89.8</ele>
        <time>2019-06-01T06:30:34Z</time>
      </trkpt>
      <trkpt lat="44.11446" lon="4.589">
        <ele>89.9</ele>
        <time>2019-06-01T06:30:35Z</time>
      </trkpt>
      <trkpt lat="44.1145" lon="4.58901">
        <ele>89.9</ele>
        <time>2019-06-01T06:30:36Z</time>
      </trkpt>
      <trkpt lat="44.11454" lon="4.58901">
        <ele>90</ele>
        <time>2019-06-01T06:30:37Z</time>
      </trkpt>
      <trkpt lat="44.11458" lon="4.58902">
        <ele>90</ele>
        <time>2019-06-01T06:30:38Z</time>
      </trkpt>
      <trkpt lat="44.11461" lon="4.58902">
        <ele>90.1</ele>
        <time>2019-06-01T06:30:39Z</time>
      </trkpt>
      <trkpt lat="44.11465" lon="4.58903">
        <ele>90.2</ele>
        <time>2019-06-01T06:30:40Z</time>
      </trkpt>
      <trkpt lat="44.11469" lon="4.58903">
        <ele>90.3</ele>
        <time>2019-06-01T06:30:41Z</time>
      </trkpt>
      <trkpt lat="44.11473" lon="4.58904">
        <ele>90.4</ele>
        <time>2019-06-01T06:30:42Z</time>
      </trkpt>
      <trkpt lat="44.11477" lon="4.58904">
        <ele>90.6</ele>
        <time>2019-06-01T06:30:43Z</time>
      </trkpt>
      <trkpt lat="44.11481" lon="4.58905">
        <ele>90.6</ele>
        <time>2019-06-01T06:30:44Z</time>
      </trkpt>
      <trkpt lat="44.11485" lon="4.58906">
        <ele>90.7</ele>
        <time>2019-06-01T06:30:45Z</time>
      </trkpt>
      <trkpt lat="44.11489" lon="4.58906">
        <ele>90.8</ele>
        <time>2019-06-01T06:30:46Z</time>
      </trkpt>
      <trkpt lat="44.11494" lon="4.58907">
        <ele>91</ele>
        <time>2019-06-01T06:30:47Z</time>
      </trkpt>
      <trkpt lat="44.11498" lon="4.58908">
        <ele>91.1</ele>
        <time>2019-06-01T06:30:48Z</time>
      </trkpt>
      <trkpt lat="44.11501" lon="4.5891">
        <ele>91.3</ele>
        <time>2019-06-01T06:30:49Z</time>
      </trkpt>
      <trkpt lat="44.11505" lon="4.58911">
        <ele>91.5</ele>
        <time>2019-06-01T06:30:50Z</time>
      </trkpt>
      <trkpt lat="44.11508" lon="4.58911">
        <ele>91.6</ele>
        <time>2019-06-01T06:30:51Z</time>
      </trkpt>
      <trkpt lat="44.11511" lon="4.58911">
        <ele>91.7</ele>
        <time>2019-06-01T06:30:52Z</time>
      </trkpt>
      <trkpt lat="44.11514" lon="4.58911">
        <ele>91.7</ele>
        <time>2019-06-01T06:30:53Z</time>
      </trkpt>
      <trkpt lat="44.11518" lon="4.58908">
        <ele>91.7</ele>
        <time>2019-06-01T06:30:55Z</time>
      </trkpt>
      <trkpt lat="44.11522" lon="4.58905">
        <ele>91.8</ele>
        <time>2019-06-01T06:30:57Z</time>
      </trkpt>
      <trkpt lat="44.11526" lon="4.58904">
        <ele>91.8</ele>
        <time>2019-06-01T06:30:59Z</time>
      </trkpt>
      <trkpt lat="44.1153" lon="4.58907">
        <ele>91.9</ele>
        <time>2019-06-01T06:31:01Z</time>
      </trkpt>
      <trkpt lat="44.11535" lon="4.5891">
        <ele>91.9</ele>
        <time>2019-06-01T06:31:03Z</time>
      </trkpt>
      <trkpt lat="44.11538" lon="4.5891">
        <ele>92</ele>
        <time>2019-06-01T06:31:04Z</time>
      </trkpt>
      <trkpt lat="44.1154" lon="4.58911">
        <ele>92</ele>
        <time>2019-06-01T06:31:05Z</time>
      </trkpt>
      <trkpt lat="44.11544" lon="4.58912">
        <ele>92.1</ele>
        <time>2019-06-01T06:31:06Z</time>
      </trkpt>
      <trkpt lat="44.11548" lon="4.58912">
        <ele>92.1</ele>
        <time>2019-06-01T06:31:07Z</time>
      </trkpt>
      <trkpt lat="44.11551" lon="4.58913">
        <ele>92.2</ele>
        <time>2019-06-01T06:31:08Z</time>
      </trkpt>
      <trkpt lat="44.11555" lon="4.58913">
        <ele>92.3</ele>
        <time>2019-06-01T06:31:09Z</time>
      </trkpt>
      <trkpt lat="44.11558" lon="4.58914">
        <ele>92.4</ele>
        <time>2019-06-01T06:31:10Z</time>
      </trkpt>
      <trkpt lat="44.11562" lon="4.58915">
        <ele>92.5</ele>
        <time>2019-06-01T06:31:11Z</time>
      </trkpt>
      <trkpt lat="44.11565" lon="4.58915">
        <ele>92.6</ele>
        <time>2019-06-01T06:31:12Z</time>
      </trkpt>
      <trkpt lat="44.11568" lon="4.58915">
        <ele>92.7</ele>
        <time>2019-06-01T06:31:13Z</time>
      </trkpt>
      <trkpt lat="44.11572" lon="4.58916">
        <ele>92.8</ele>
        <time>2019-06-01T06:31:14Z</time>
      </trkpt>
      <trkpt lat="44.11575" lon="4.58916">
        <ele>92.9</ele>
        <time>2019-06-01T06:31:15Z</time>
      </trkpt>
      <trkpt lat="44.11578" lon="4.58916">
        <ele>93</ele>
        <time>2019-06-01T06:31:16Z</time>
      </trkpt>
      <trkpt lat="44.11581" lon="4.58917">
        <ele>93.1</ele>
        <time>2019-06-01T06:31:17Z</time>
      </trkpt>
      <trkpt lat="44.11584" lon="4.58917">
        <ele>93.3</ele>
        <time>2019-06-01T06:31:19Z</time>
      </trkpt>
      <trkpt lat="44.11579" lon="4.58919">
        <ele>93.5</ele>
        <time>2019-06-01T06:31:23Z</time>
      </trkpt>
      <trkpt lat="44.11576" lon="4.58917">
        <ele>93.3</ele>
        <time>2019-06-01T06:31:24Z</time>
      </trkpt>
      <trkpt lat="44.11573" lon="4.58915">
        <ele>93.1</ele>
        <time>2019-06-01T06:31:25Z</time>
      </trkpt>
      <trkpt lat="44.11568" lon="4.58912">
        <ele>92.9</ele>
        <time>2019-06-01T06:31:26Z</time>
      </trkpt>
      <trkpt lat="44.11564" lon="4.58911">
        <ele>92.7</ele>
        <time>2019-06-01T06:31:27Z</time>
      </trkpt>
      <trkpt lat="44.1156" lon="4.5891">
        <ele>92.6</ele>
        <time>2019-06-01T06:31:28Z</time>
      </trkpt>
      <trkpt lat="44.11556" lon="4.58909">
        <ele>92.4</ele>
        <time>2019-06-01T06:31:29Z</time>
      </trkpt>
      <trkpt lat="44.11552" lon="4.58909">
        <ele>92.3</ele>
        <time>2019-06-01T06:31:30Z</time>
      </trkpt>
      <trkpt lat="44.11545" lon="4.58908">
        <ele>92.1</ele>
        <time>2019-06-01T06:31:31Z</time>
      </trkpt>
      <trkpt lat="44.11539" lon="4.58907">
        <ele>92</ele>
        <time>2019-06-01T06:31:32Z</time>
      </trkpt>
      <trkpt lat="44.11535" lon="4.5891">
        <ele>92</ele>
        <time>2019-06-01T06:31:33Z</time>
      </trkpt>
      <trkpt lat="44.11529" lon="4.58909">
        <ele>91.9</ele>
        <time>2019-06-01T06:31:34Z</time>
      </trkpt>
      <trkpt lat="44.11522" lon="4.58907">
        <ele>91.8</ele>
        <time>2019-06-01T06:31:35Z</time>
      </trkpt>
      <trkpt lat="44.11515" lon="4.58904">
        <ele>91.7</ele>
        <time>2019-06-01T06:31:36Z</time>
      </trkpt>
      <trkpt lat="44.11512" lon="4.58905">
        <ele>91.7</ele>
        <time>2019-06-01T06:31:37Z</time>
      </trkpt>
      <trkpt lat="44.11509" lon="4.58907">
        <ele>91.6</ele>
        <time>2019-06-01T06:31:39Z</time>
      </trkpt>
      <trkpt lat="44.11505" lon="4.58908">
        <ele>91.5</ele>
        <time>2019-06-01T06:31:42Z</time>
      </trkpt>
      <trkpt lat="44.115" lon="4.58907">
        <ele>91.3</ele>
        <time>2019-06-01T06:31:44Z</time>
      </trkpt>
      <trkpt lat="44.11496" lon="4.58905">
        <ele>91.1</ele>
        <time>2019-06-01T06:31:45Z</time>
      </trkpt>
      <trkpt lat="44.11492" lon="4.58903">
        <ele>90.9</ele>
        <time>2019-06-01T06:31:46Z</time>
      </trkpt>
      <trkpt lat="44.11487" lon="4.58902">
        <ele>90.8</ele>
        <time>2019-06-01T06:31:47Z</time>
      </trkpt>
      <trkpt lat="44.11483" lon="4.58901">
        <ele>90.7</ele>
        <time>2019-06-01T06:31:48Z</time>
      </trkpt>
      <trkpt lat="44.11478" lon="4.589">
        <ele>90.6</ele>
        <time>2019-06-01T06:31:49Z</time>
      </trkpt>
      <trkpt lat="44.11474" lon="4.58899">
        <ele>90.5</ele>
        <time>2019-06-01T06:31:50Z</time>
      </trkpt>
      <trkpt lat="44.11469" lon="4.58898">
        <ele>90.3</ele>
        <time>2019-06-01T06:31:51Z</time>
      </trkpt>
      <trkpt lat="44.11465" lon="4.58898">
        <ele>90.2</ele>
        <time>2019-06-01T06:31:52Z</time>
      </trkpt>
      <trkpt lat="44.11459" lon="4.58898">
        <ele>90.1</ele>
        <time>2019-06-01T06:31:53Z</time>
      </trkpt>
      <trkpt lat="44.11454" lon="4.58898">
        <ele>90</ele>
        <time>2019-06-01T06:31:54Z</time>
      </trkpt>
      <trkpt lat="44.11449" lon="4.58898">
        <ele>89.9</ele>
        <time>2019-06-01T06:31:55Z</time>
      </trkpt>
      <trkpt lat="44.11444" lon="4.58897">
        <ele>89.8</ele>
        <time>2019-06-01T06:31:56Z</time>
      </trkpt>
      <trkpt lat="44.11439" lon="4.58896">
        <ele>89.7</ele>
        <time>2019-06-01T06:31:57Z</time>
      </trkpt>
      <trkpt lat="44.11435" lon="4.58896">
        <ele>89.6</ele>
        <time>2019-06-01T06:31:58Z</time>
      </trkpt>
      <trkpt lat="44.1143" lon="4.58895">
        <ele>89.4</ele>
        <time>2019-06-01T06:31:59Z</time>
      </trkpt>
      <trkpt lat="44.11425" lon="4.58895">
        <ele>89.2</ele>
        <time>2019-06-01T06:32:00Z</time>
      </trkpt>
      <trkpt lat="44.1142" lon="4.58895">
        <ele>88.9</ele>
        <time>2019-06-01T06:32:01Z</time>
      </trkpt>
      <trkpt lat="44.11415" lon="4.58894">
        <ele>88.7</ele>
        <time>2019-06-01T06:32:02Z</time>
      </trkpt>
      <trkpt lat="44.11411" lon="4.58894">
        <ele>88.5</ele>
        <time>2019-06-01T06:32:03Z</time>
      </trkpt>
      <trkpt lat="44.11407" lon="4.58893">
        <ele>88.3</ele>
        <time>2019-06-01T06:32:04Z</time>
      </trkpt>
      <trkpt lat="44.11402" lon="4.58892">
        <ele>88.1</ele>
        <time>2019-06-01T06:32:05Z</time>
      </trkpt>
      <trkpt lat="44.11398" lon="4.58892">
        <ele>87.9</ele>
        <time>2019-06-01T06:32:06Z</time>
      </trkpt>
      <trkpt lat="44.11393" lon="4.58892">
        <ele>87.8</ele>
        <time>2019-06-01T06:32:07Z</time>
      </trkpt>
      <trkpt lat="44.11389" lon="4.58892">
        <ele>87.7</ele>
        <time>2019-06-01T06:32:08Z</time>
      </trkpt>
      <trkpt lat="44.11385" lon="4.58891">
        <ele>87.5</ele>
        <time>2019-06-01T06:32:09Z</time>
      </trkpt>
      <trkpt lat="44.11383" lon="4.58891">
        <ele>87.4</ele>
        <time>2019-06-01T06:32:10Z</time>
      </trkpt>
      <trkpt lat="44.11378" lon="4.58891">
        <ele>87.3</ele>
        <time>2019-06-01T06:32:12Z</time>
      </trkpt>
      <trkpt lat="44.11374" lon="4.58891">
        <ele>87.2</ele>
        <time>2019-06-01T06:32:14Z</time>
      </trkpt>
      <trkpt lat="44.11369" lon="4.58891">
        <ele>87.1</ele>
        <time>2019-06-01T06:32:16Z</time>
      </trkpt>
      <trkpt lat="44.11366" lon="4.58892">
        <ele>87</ele>
        <time>2019-06-01T06:32:17Z</time>
      </trkpt>
      <trkpt lat="44.11362" lon="4.58892">
        <ele>86.8</ele>
        <time>2019-06-01T06:32:18Z</time>
      </trkpt>
      <trkpt lat="44.11358" lon="4.58892">
        <ele>86.6</ele>
        <time>2019-06-01T06:32:19Z</time>
      </trkpt>
      <trkpt lat="44.11355" lon="4.58892">
        <ele>86.5</ele>
        <time>2019-06-01T06:32:20Z</time>
      </trkpt>
      <trkpt lat="44.11351" lon="4.58892">
        <ele>86.3</ele>
        <time>2019-06-01T06:32:21Z</time>
      </trkpt>
      <trkpt lat="44.11347" lon="4.58892">
        <ele>86.2</ele>
        <time>2019-06-01T06:32:22Z</time>
      </trkpt>
      <trkpt lat="44.11343" lon="4.58892">
        <ele>86.1</ele>
        <time>2019-06-01T06:32:23Z</time>
      </trkpt>
      <trkpt lat="44.1134" lon="4.58892">
        <ele>86.1</ele>
        <time>2019-06-01T06:32:24Z</time>
      </trkpt>
      <trkpt lat="44.11336" lon="4.58893">
        <ele>86.1</ele>
        <time>2019-06-01T06:32:26Z</time>
      </trkpt>
      <trkpt lat="44.11333" lon="4.5889">
        <ele>86.1</ele>
        <time>2019-06-01T06:32:29Z</time>
      </trkpt>
      <trkpt lat="44.11332" lon="4.58882">
        <ele>86.3</ele>
        <time>2019-06-01T06:32:31Z</time>
      </trkpt>
      <trkpt lat="44.11332" lon="4.58878">
        <ele>86.5</ele>
        <time>2019-06-01T06:32:32Z</time>
      </trkpt>
      <trkpt lat="44.11332" lon="4.58873">
        <ele>86.6</ele>
        <time>2019-06-01T06:32:33Z</time>
      </trkpt>
      <trkpt lat="44.11333" lon="4.58868">
        <ele>86.8</ele>
        <time>2019-06-01T06:32:34Z</time>
      </trkpt>
      <trkpt lat="44.11332" lon="4.58864">
        <ele>87</ele>
        <time>2019-06-01T06:32:35Z</time>
      </trkpt>
      <trkpt lat="44.11332" lon="4.5886">
        <ele>87.2</ele>
        <time>2019-06-01T06:32:36Z</time>
      </trkpt>
      <trkpt lat="44.11332" lon="4.58855">
        <ele>87.4</ele>
        <time>2019-06-01T06:32:37Z</time>
      </trkpt>
      <trkpt lat="44.11332" lon="4.58851">
        <ele>87.7</ele>
        <time>2019-06-01T06:32:38Z</time>
      </trkpt>
      <trkpt lat="44.11332" lon="4.58846">
        <ele>87.9</ele>
        <time>2019-06-01T06:32:39Z</time>
      </trkpt>
      <trkpt lat="44.11332" lon="4.58842">
        <ele>88.2</ele>
        <time>2019-06-01T06:32:40Z</time>
      </trkpt>
      <trkpt lat="44.11333" lon="4.58837">
        <ele>88.5</ele>
        <time>2019-06-01T06:32:41Z</time>
      </trkpt>
      <trkpt lat="44.11334" lon="4.58833">
        <ele>89.1</ele>
        <time>2019-06-01T06:32:42Z</time>
      </trkpt>
      <trkpt lat="44.11335" lon="4.58828">
        <ele>89.8</ele>
        <time>2019-06-01T06:32:43Z</time>
      </trkpt>
      <trkpt lat="44.11336" lon="4.58823">
        <ele>90.2</ele>
        <time>2019-06-01T06:32:44Z</time>
      </trkpt>
      <trkpt lat="44.11337" lon="4.58819">
        <ele>90.5</ele>
        <time>2019-06-01T06:32:45Z</time>
      </trkpt>
      <trkpt lat="44.11339" lon="4.58815">
        <ele>90.7</ele>
        <time>2019-06-01T06:32:46Z</time>
      </trkpt>
      <trkpt lat="44.1134" lon="4.58812">
        <ele>91</ele>
        <time>2019-06-01T06:32:47Z</time>
      </trkpt>
      <trkpt lat="44.11341" lon="4.58808">
        <ele>91.3</ele>
        <time>2019-06-01T06:32:48Z</time>
      </trkpt>
      <trkpt lat="44.11342" lon="4.58803">
        <ele>91.4</ele>
        <time>2019-06-01T06:32:49Z</time>
      </trkpt>
      <trkpt lat="44.11343" lon="4.58797">
        <ele>91.5</ele>
        <time>2019-06-01T06:32:50Z</time>
      </trkpt>
      <trkpt lat="44.11344" lon="4.58791">
        <ele>91.6</ele>
        <time>2019-06-01T06:32:51Z</time>
      </trkpt>
      <trkpt lat="44.11344" lon="4.58785">
        <ele>91.7</ele>
        <time>2019-06-01T06:32:52Z</time>
      </trkpt>
      <trkpt lat="44.11344" lon="4.58779">
        <ele>91.9</ele>
        <time>2019-06-01T06:32:53Z</time>
      </trkpt>
      <trkpt lat="44.11345" lon="4.58772">
        <ele>91.9</ele>
        <time>2019-06-01T06:32:54Z</time>
      </trkpt>
      <trkpt lat="44.11345" lon="4.58766">
        <ele>92</ele>
        <time>2019-06-01T06:32:55Z</time>
      </trkpt>
      <trkpt lat="44.11345" lon="4.5876">
        <ele>92</ele>
        <time>2019-06-01T06:32:56Z</time>
      </trkpt>
      <trkpt lat="44.11346" lon="4.58755">
        <ele>92.1</ele>
        <time>2019-06-01T06:32:57Z</time>
      </trkpt>
      <trkpt lat="44.11348" lon="4.5875">
        <ele>92.2</ele>
        <time>2019-06-01T06:32:58Z</time>
      </trkpt>
      <trkpt lat="44.11351" lon="4.58748">
        <ele>92.3</ele>
        <time>2019-06-01T06:32:59Z</time>
      </trkpt>
      <trkpt lat="44.11354" lon="4.58748">
        <ele>92.5</ele>
        <time>2019-06-01T06:33:00Z</time>
      </trkpt>
      <trkpt lat="44.11358" lon="4.58749">
        <ele>92.7</ele>
        <time>2019-06-01T06:33:01Z</time>
      </trkpt>
      <trkpt lat="44.11361" lon="4.58749">
        <ele>93</ele>
        <time>2019-06-01T06:33:02Z</time>
      </trkpt>
      <trkpt lat="44.11365" lon="4.58749">
        <ele>93.3</ele>
        <time>2019-06-01T06:33:03Z</time>
      </trkpt>
      <trkpt lat="44.11369" lon="4.5875">
        <ele>93.6</ele>
        <time>2019-06-01T06:33:04Z</time>
      </trkpt>
      <trkpt lat="44.11373" lon="4.58751">
        <ele>93.8</ele>
        <time>2019-06-01T06:33:05Z</time>
      </trkpt>
      <trkpt lat="44.11377" lon="4.58752">
        <ele>94.1</ele>
        <time>2019-06-01T06:33:06Z</time>
      </trkpt>
      <trkpt lat="44.11381" lon="4.58752">
        <ele>94.4</ele>
        <time>2019-06-01T06:33:07Z</time>
      </trkpt>
      <trkpt lat="44.11385" lon="4.58752">
        <ele>94.5</ele>
        <time>2019-06-01T06:33:08Z</time>
      </trkpt>
      <trkpt lat="44.1139" lon="4.58753">
        <ele>94.7</ele>
        <time>2019-06-01T06:33:09Z</time>
      </trkpt>
      <trkpt lat="44.11394" lon="4.58753">
        <ele>95</ele>
        <time>2019-06-01T06:33:10Z</time>
      </trkpt>
      <trkpt lat="44.11398" lon="4.58754">
        <ele>95.2</ele>
        <time>2019-06-01T06:33:11Z</time>
      </trkpt>
      <trkpt lat="44.11403" lon="4.58754">
        <ele>95.4</ele>
        <time>2019-06-01T06:33:12Z</time>
      </trkpt>
      <trkpt lat="44.11406" lon="4.58754">
        <ele>95.5</ele>
        <time>2019-06-01T06:33:13Z</time>
      </trkpt>
      <trkpt lat="44.11409" lon="4.58753">
        <ele>95.6</ele>
        <time>2019-06-01T06:33:14Z</time>
      </trkpt>
      <trkpt lat="44.11412" lon="4.5875">
        <ele>95.6</ele>
        <time>2019-06-01T06:33:15Z</time>
      </trkpt>
      <trkpt lat="44.11414" lon="4.58747">
        <ele>95.7</ele>
        <time>2019-06-01T06:33:16Z</time>
      </trkpt>
      <trkpt lat="44.11415" lon="4.58743">
        <ele>95.9</ele>
        <time>2019-06-01T06:33:17Z</time>
      </trkpt>
      <trkpt lat="44.11415" lon="4.58739">
        <ele>96</ele>
        <time>2019-06-01T06:33:18Z</time>
      </trkpt>
      <trkpt lat="44.11416" lon="4.58734">
        <ele>96</ele>
        <time>2019-06-01T06:33:20Z</time>
      </trkpt>
      <trkpt lat="44.11419" lon="4.5873">
        <ele>96</ele>
        <time>2019-06-01T06:33:22Z</time>
      </trkpt>
      <trkpt lat="44.11422" lon="4.58728">
        <ele>96.2</ele>
        <time>2019-06-01T06:33:24Z</time>
      </trkpt>
      <trkpt lat="44.11427" lon="4.58729">
        <ele>96.3</ele>
        <time>2019-06-01T06:33:26Z</time>
      </trkpt>
      <trkpt lat="44.11431" lon="4.58731">
        <ele>96.3</ele>
        <time>2019-06-01T06:33:28Z</time>
      </trkpt>
      <trkpt lat="44.11434" lon="4.58733">
        <ele>96.4</ele>
        <time>2019-06-01T06:33:30Z</time>
      </trkpt>
      <trkpt lat="44.11438" lon="4.58734">
        <ele>96.6</ele>
        <time>2019-06-01T06:33:32Z</time>
      </trkpt>
      <trkpt lat="44.11441" lon="4.58735">
        <ele>96.7</ele>
        <time>2019-06-01T06:33:33Z</time>
      </trkpt>
      <trkpt lat="44.11444" lon="4.58736">
        <ele>96.5</ele>
        <time>2019-06-01T06:33:34Z</time>
      </trkpt>
      <trkpt lat="44.11448" lon="4.58737">
        <ele>96.7</ele>
        <time>2019-06-01T06:33:35Z</time>
      </trkpt>
      <trkpt lat="44.1145" lon="4.5874">
        <ele>96.5</ele>
        <time>2019-06-01T06:33:36Z</time>
      </trkpt>
      <trkpt lat="44.11453" lon="4.58742">
        <ele>96.6</ele>
        <time>2019-06-01T06:33:37Z</time>
      </trkpt>
      <trkpt lat="44.11455" lon="4.58745">
        <ele>96.4</ele>
        <time>2019-06-01T06:33:38Z</time>
      </trkpt>
      <trkpt lat="44.11459" lon="4.58747">
        <ele>96.5</ele>
        <time>2019-06-01T06:33:39Z</time>
      </trkpt>
      <trkpt lat="44.11462" lon="4.58749">
        <ele>96.3</ele>
        <time>2019-06-01T06:33:40Z</time>
      </trkpt>
      <trkpt lat="44.11466" lon="4.58751">
        <ele>96.5</ele>
        <time>2019-06-01T06:33:41Z</time>
      </trkpt>
      <trkpt lat="44.11468" lon="4.58753">
        <ele>96.3</ele>
        <time>2019-06-01T06:33:42Z</time>
      </trkpt>
      <trkpt lat="44.11471" lon="4.58754">
        <ele>96.5</ele>
        <time>2019-06-01T06:33:43Z</time>
      </trkpt>
      <trkpt lat="44.11474" lon="4.58755">
        <ele>96.5</ele>
        <time>2019-06-01T06:33:44Z</time>
      </trkpt>
      <trkpt lat="44.11478" lon="4.58758">
        <ele>96.6</ele>
        <time>2019-06-01T06:33:46Z</time>
      </trkpt>
      <trkpt lat="44.11482" lon="4.58761">
        <ele>96.8</ele>
        <time>2019-06-01T06:33:48Z</time>
      </trkpt>
      <trkpt lat="44.11487" lon="4.58764">
        <ele>96.7</ele>
        <time>2019-06-01T06:33:50Z</time>
      </trkpt>
      <trkpt lat="44.1149" lon="4.58764">
        <ele>96.9</ele>
        <time>2019-06-01T06:33:51Z</time>
      </trkpt>
      <trkpt lat="44.11495" lon="4.58765">
        <ele>97</ele>
        <time>2019-06-01T06:33:52Z</time>
      </trkpt>
      <trkpt lat="44.11499" lon="4.58765">
        <ele>97.1</ele>
        <time>2019-06-01T06:33:53Z</time>
      </trkpt>
      <trkpt lat="44.11503" lon="4.58765">
        <ele>97.1</ele>
        <time>2019-06-01T06:33:54Z</time>
      </trkpt>
      <trkpt lat="44.11507" lon="4.58765">
        <ele>96.8</ele>
        <time>2019-06-01T06:33:55Z</time>
      </trkpt>
      <trkpt lat="44.11511" lon="4.58765">
        <ele>96.8</ele>
        <time>2019-06-01T06:33:56Z</time>
      </trkpt>
      <trkpt lat="44.11516" lon="4.58765">
        <ele>96.8</ele>
        <time>2019-06-01T06:33:57Z</time>
      </trkpt>
      <trkpt lat="44.1152" lon="4.58766">
        <ele>96.8</ele>
        <time>2019-06-01T06:33:58Z</time>
      </trkpt>
      <trkpt lat="44.11524" lon="4.58766">
        <ele>96.8</ele>
        <time>2019-06-01T06:33:59Z</time>
      </trkpt>
      <trkpt lat="44.11527" lon="4.58766">
        <ele>96.7</ele>
        <time>2019-06-01T06:34:00Z</time>
      </trkpt>
      <trkpt lat="44.1153" lon="4.58766">
        <ele>96.7</ele>
        <time>2019-06-01T06:34:01Z</time>
      </trkpt>
      <trkpt lat="44.11533" lon="4.58766">
        <ele>96.7</ele>
        <time>2019-06-01T06:34:02Z</time>
      </trkpt>
      <trkpt lat="44.11536" lon="4.58766">
        <ele>96.7</ele>
        <time>2019-06-01T06:34:03Z</time>
      </trkpt>
      <trkpt lat="44.11541" lon="4.58767">
        <ele>96.7</ele>
        <time>2019-06-01T06:34:05Z</time>
      </trkpt>
      <trkpt lat="44.11544" lon="4.58767">
        <ele>96.7</ele>
        <time>2019-06-01T06:34:06Z</time>
      </trkpt>
      <trkpt lat="44.11548" lon="4.58767">
        <ele>96.7</ele>
        <time>2019-06-01T06:34:08Z</time>
      </trkpt>
      <trkpt lat="44.11545" lon="4.5877">
        <ele>96.6</ele>
        <time>2019-06-01T06:34:13Z</time>
      </trkpt>
      <trkpt lat="44.11542" lon="4.58769">
        <ele>96.7</ele>
        <time>2019-06-01T06:34:14Z</time>
      </trkpt>
      <trkpt lat="44.11539" lon="4.58767">
        <ele>96.7</ele>
        <time>2019-06-01T06:34:15Z</time>
      </trkpt>
      <trkpt lat="44.11536" lon="4.58766">
        <ele>96.7</ele>
        <time>2019-06-01T06:34:16Z</time>
      </trkpt>
      <trkpt lat="44.11533" lon="4.58765">
        <ele>96.9</ele>
        <time>2019-06-01T06:34:17Z</time>
      </trkpt>
      <trkpt lat="44.11529" lon="4.58763">
        <ele>97</ele>
        <time>2019-06-01T06:34:19Z</time>
      </trkpt>
      <trkpt lat="44.11524" lon="4.58761">
        <ele>97</ele>
        <time>2019-06-01T06:34:21Z</time>
      </trkpt>
      <trkpt lat="44.1152" lon="4.58759">
        <ele>97.3</ele>
        <time>2019-06-01T06:34:23Z</time>
      </trkpt>
      <trkpt lat="44.11514" lon="4.58759">
        <ele>97.4</ele>
        <time>2019-06-01T06:34:25Z</time>
      </trkpt>
      <trkpt lat="44.11509" lon="4.58759">
        <ele>97.4</ele>
        <time>2019-06-01T06:34:27Z</time>
      </trkpt>
      <trkpt lat="44.11506" lon="4.58758">
        <ele>97.5</ele>
        <time>2019-06-01T06:34:28Z</time>
      </trkpt>
      <trkpt lat="44.11501" lon="4.58757">
        <ele>97.5</ele>
        <time>2019-06-01T06:34:29Z</time>
      </trkpt>
      <trkpt lat="44.11491" lon="4.58753">
        <ele>97.6</ele>
        <time>2019-06-01T06:34:30Z</time>
      </trkpt>
      <trkpt lat="44.11485" lon="4.58753">
        <ele>97.4</ele>
        <time>2019-06-01T06:34:31Z</time>
      </trkpt>
      <trkpt lat="44.1148" lon="4.58752">
        <ele>97.6</ele>
        <time>2019-06-01T06:34:32Z</time>
      </trkpt>
      <trkpt lat="44.11475" lon="4.58751">
        <ele>97.3</ele>
        <time>2019-06-01T06:34:33Z</time>
      </trkpt>
      <trkpt lat="44.11469" lon="4.58746">
        <ele>97.3</ele>
        <time>2019-06-01T06:34:34Z</time>
      </trkpt>
      <trkpt lat="44.11465" lon="4.58744">
        <ele>97.1</ele>
        <time>2019-06-01T06:34:35Z</time>
      </trkpt>
      <trkpt lat="44.11458" lon="4.58734">
        <ele>98</ele>
        <time>2019-06-01T06:34:36Z</time>
      </trkpt>
      <trkpt lat="44.11452" lon="4.58731">
        <ele>97.5</ele>
        <time>2019-06-01T06:34:37Z</time>
      </trkpt>
      <trkpt lat="44.11447" lon="4.5873">
        <ele>97.7</ele>
        <time>2019-06-01T06:34:38Z</time>
      </trkpt>
      <trkpt lat="44.11442" lon="4.58729">
        <ele>97.3</ele>
        <time>2019-06-01T06:34:39Z</time>
      </trkpt>
      <trkpt lat="44.11435" lon="4.58728">
        <ele>97</ele>
        <time>2019-06-01T06:34:40Z</time>
      </trkpt>
      <trkpt lat="44.1143" lon="4.58725">
        <ele>97</ele>
        <time>2019-06-01T06:34:41Z</time>
      </trkpt>
      <trkpt lat="44.11423" lon="4.58722">
        <ele>96.7</ele>
        <time>2019-06-01T06:34:42Z</time>
      </trkpt>
      <trkpt lat="44.11418" lon="4.58723">
        <ele>96.4</ele>
        <time>2019-06-01T06:34:43Z</time>
      </trkpt>
      <trkpt lat="44.11414" lon="4.58728">
        <ele>96</ele>
        <time>2019-06-01T06:34:44Z</time>
      </trkpt>
      <trkpt lat="44.11411" lon="4.58737">
        <ele>96</ele>
        <time>2019-06-01T06:34:45Z</time>
      </trkpt>
      <trkpt lat="44.11407" lon="4.58741">
        <ele>96</ele>
        <time>2019-06-01T06:34:46Z</time>
      </trkpt>
      <trkpt lat="44.11405" lon="4.58747">
        <ele>95.8</ele>
        <time>2019-06-01T06:34:47Z</time>
      </trkpt>
      <trkpt lat="44.11398" lon="4.58747">
        <ele>95.6</ele>
        <time>2019-06-01T06:34:48Z</time>
      </trkpt>
      <trkpt lat="44.11393" lon="4.58747">
        <ele>95.5</ele>
        <time>2019-06-01T06:34:49Z</time>
      </trkpt>
      <trkpt lat="44.11387" lon="4.58747">
        <ele>95.4</ele>
        <time>2019-06-01T06:34:50Z</time>
      </trkpt>
      <trkpt lat="44.11381" lon="4.58746">
        <ele>95.3</ele>
        <time>2019-06-01T06:34:51Z</time>
      </trkpt>
      <trkpt lat="44.11375" lon="4.58746">
        <ele>95</ele>
        <time>2019-06-01T06:34:52Z</time>
      </trkpt>
      <trkpt lat="44.11369" lon="4.58745">
        <ele>94.7</ele>
        <time>2019-06-01T06:34:53Z</time>
      </trkpt>
      <trkpt lat="44.11363" lon="4.58745">
        <ele>94.5</ele>
        <time>2019-06-01T06:34:54Z</time>
      </trkpt>
      <trkpt lat="44.11357" lon="4.58745">
        <ele>94.3</ele>
        <time>2019-06-01T06:34:55Z</time>
      </trkpt>
      <trkpt lat="44.11351" lon="4.58746">
        <ele>94.1</ele>
        <time>2019-06-01T06:34:56Z</time>
      </trkpt>
      <trkpt lat="44.11348" lon="4.58749">
        <ele>93.9</ele>
        <time>2019-06-01T06:34:57Z</time>
      </trkpt>
      <trkpt lat="44.11346" lon="4.58753">
        <ele>93.7</ele>
        <time>2019-06-01T06:34:58Z</time>
      </trkpt>
      <trkpt lat="44.11345" lon="4.58762">
        <ele>93.4</ele>
        <time>2019-06-01T06:34:59Z</time>
      </trkpt>
      <trkpt lat="44.11344" lon="4.58768">
        <ele>93.1</ele>
        <time>2019-06-01T06:35:00Z</time>
      </trkpt>
      <trkpt lat="44.11344" lon="4.58776">
        <ele>92.7</ele>
        <time>2019-06-01T06:35:01Z</time>
      </trkpt>
      <trkpt lat="44.11342" lon="4.58784">
        <ele>92.5</ele>
        <time>2019-06-01T06:35:02Z</time>
      </trkpt>
      <trkpt lat="44.11342" lon="4.58791">
        <ele>92.3</ele>
        <time>2019-06-01T06:35:03Z</time>
      </trkpt>
      <trkpt lat="44.11341" lon="4.58799">
        <ele>92.2</ele>
        <time>2019-06-01T06:35:04Z</time>
      </trkpt>
      <trkpt lat="44.1134" lon="4.58807">
        <ele>92</ele>
        <time>2019-06-01T06:35:05Z</time>
      </trkpt>
      <trkpt lat="44.11338" lon="4.58813">
        <ele>92</ele>
        <time>2019-06-01T06:35:06Z</time>
      </trkpt>
      <trkpt lat="44.11337" lon="4.5882">
        <ele>92</ele>
        <time>2019-06-01T06:35:07Z</time>
      </trkpt>
      <trkpt lat="44.11336" lon="4.58826">
        <ele>91.9</ele>
        <time>2019-06-01T06:35:08Z</time>
      </trkpt>
      <trkpt lat="44.11334" lon="4.58832">
        <ele>91.9</ele>
        <time>2019-06-01T06:35:09Z</time>
      </trkpt>
      <trkpt lat="44.11334" lon="4.58837">
        <ele>91.8</ele>
        <time>2019-06-01T06:35:10Z</time>
      </trkpt>
      <trkpt lat="44.11334" lon="4.58843">
        <ele>91.7</ele>
        <time>2019-06-01T06:35:11Z</time>
      </trkpt>
      <trkpt lat="44.11334" lon="4.58847">
        <ele>91.6</ele>
        <time>2019-06-01T06:35:12Z</time>
      </trkpt>
      <trkpt lat="44.11334" lon="4.58851">
        <ele>91.5</ele>
        <time>2019-06-01T06:35:16Z</time>
      </trkpt>
      <trkpt lat="44.11331" lon="4.58847">
        <ele>91.5</ele>
        <time>2019-06-01T06:35:24Z</time>
      </trkpt>
      <trkpt lat="44.11331" lon="4.58843">
        <ele>91.4</ele>
        <time>2019-06-01T06:35:25Z</time>
      </trkpt>
      <trkpt lat="44.11332" lon="4.58838">
        <ele>91.4</ele>
        <time>2019-06-01T06:35:26Z</time>
      </trkpt>
      <trkpt lat="44.11332" lon="4.58832">
        <ele>91.3</ele>
        <time>2019-06-01T06:35:27Z</time>
      </trkpt>
      <trkpt lat="44.11333" lon="4.58826">
        <ele>91</ele>
        <time>2019-06-01T06:35:28Z</time>
      </trkpt>
      <trkpt lat="44.11333" lon="4.58821">
        <ele>90.8</ele>
        <time>2019-06-01T06:35:29Z</time>
      </trkpt>
      <trkpt lat="44.11333" lon="4.58817">
        <ele>90.6</ele>
        <time>2019-06-01T06:35:30Z</time>
      </trkpt>
      <trkpt lat="44.11332" lon="4.58813">
        <ele>90.4</ele>
        <time>2019-06-01T06:35:31Z</time>
      </trkpt>
      <trkpt lat="44.11328" lon="4.58811">
        <ele>90.2</ele>
        <time>2019-06-01T06:35:33Z</time>
      </trkpt>
      <trkpt lat="44.11325" lon="4.5881">
        <ele>89.9</ele>
        <time>2019-06-01T06:35:35Z</time>
      </trkpt>
      <trkpt lat="44.11325" lon="4.58816">
        <ele>89.3</ele>
        <time>2019-06-01T06:36:02Z</time>
      </trkpt>
      <trkpt lat="44.11329" lon="4.58819">
        <ele>88.7</ele>
        <time>2019-06-01T06:36:04Z</time>
      </trkpt>
      <trkpt lat="44.11331" lon="4.58823">
        <ele>88.4</ele>
        <time>2019-06-01T06:36:06Z</time>
      </trkpt>
      <trkpt lat="44.11332" lon="4.58829">
        <ele>88.1</ele>
        <time>2019-06-01T06:36:08Z</time>
      </trkpt>
      <trkpt lat="44.11332" lon="4.58833">
        <ele>87.9</ele>
        <time>2019-06-01T06:36:09Z</time>
      </trkpt>
      <trkpt lat="44.11331" lon="4.58838">
        <ele>87.7</ele>
        <time>2019-06-01T06:36:10Z</time>
      </trkpt>
      <trkpt lat="44.1133" lon="4.58843">
        <ele>87.5</ele>
        <time>2019-06-01T06:36:11Z</time>
      </trkpt>
      <trkpt lat="44.1133" lon="4.58848">
        <ele>87.3</ele>
        <time>2019-06-01T06:36:12Z</time>
      </trkpt>
      <trkpt lat="44.11331" lon="4.58854">
        <ele>87.1</ele>
        <time>2019-06-01T06:36:13Z</time>
      </trkpt>
      <trkpt lat="44.11332" lon="4.58858">
        <ele>86.9</ele>
        <time>2019-06-01T06:36:14Z</time>
      </trkpt>
      <trkpt lat="44.11333" lon="4.58862">
        <ele>86.8</ele>
        <time>2019-06-01T06:36:15Z</time>
      </trkpt>
      <trkpt lat="44.11335" lon="4.58866">
        <ele>86.7</ele>
        <time>2019-06-01T06:36:16Z</time>
      </trkpt>
      <trkpt lat="44.11336" lon="4.58872">
        <ele>86.5</ele>
        <time>2019-06-01T06:36:18Z</time>
      </trkpt>
      <trkpt lat="44.11336" lon="4.58878">
        <ele>86.4</ele>
        <time>2019-06-01T06:36:20Z</time>
      </trkpt>
      <trkpt lat="44.11336" lon="4.58884">
        <ele>86.3</ele>
        <time>2019-06-01T06:36:22Z</time>
      </trkpt>
      <trkpt lat="44.11336" lon="4.58889">
        <ele>86.2</ele>
        <time>2019-06-01T06:36:24Z</time>
      </trkpt>
      <trkpt lat="44.11335" lon="4.58893">
        <ele>86.1</ele>
        <time>2019-06-01T06:36:26Z</time>
      </trkpt>
      <trkpt lat="44.11334" lon="4.58898">
        <ele>85.9</ele>
        <time>2019-06-01T06:36:44Z</time>
      </trkpt>
      <trkpt lat="44.11331" lon="4.58905">
        <ele>85.7</ele>
        <time>2019-06-01T06:36:46Z</time>
      </trkpt>
      <trkpt lat="44.1133" lon="4.5891">
        <ele>85.5</ele>
        <time>2019-06-01T06:36:47Z</time>
      </trkpt>
      <trkpt lat="44.11329" lon="4.58915">
        <ele>85.4</ele>
        <time>2019-06-01T06:36:48Z</time>
      </trkpt>
      <trkpt lat="44.11328" lon="4.58921">
        <ele>85.1</ele>
        <time>2019-06-01T06:36:49Z</time>
      </trkpt>
      <trkpt lat="44.11327" lon="4.58931">
        <ele>84.8</ele>
        <time>2019-06-01T06:36:50Z</time>
      </trkpt>
      <trkpt lat="44.11327" lon="4.58937">
        <ele>84.7</ele>
        <time>2019-06-01T06:36:51Z</time>
      </trkpt>
      <trkpt lat="44.11326" lon="4.58943">
        <ele>84.5</ele>
        <time>2019-06-01T06:36:52Z</time>
      </trkpt>
      <trkpt lat="44.11326" lon="4.58948">
        <ele>84.4</ele>
        <time>2019-06-01T06:36:53Z</time>
      </trkpt>
      <trkpt lat="44.11324" lon="4.58955">
        <ele>84.3</ele>
        <time>2019-06-01T06:36:55Z</time>
      </trkpt>
      <trkpt lat="44.11322" lon="4.58958">
        <ele>84.2</ele>
        <time>2019-06-01T06:36:57Z</time>
      </trkpt>
      <trkpt lat="44.1132" lon="4.58962">
        <ele>84.2</ele>
        <time>2019-06-01T06:37:08Z</time>
      </trkpt>
      <trkpt lat="44.1132" lon="4.58966">
        <ele>84.2</ele>
        <time>2019-06-01T06:37:10Z</time>
      </trkpt>
      <trkpt lat="44.1132" lon="4.58971">
        <ele>84.3</ele>
        <time>2019-06-01T06:37:12Z</time>
      </trkpt>
      <trkpt lat="44.1132" lon="4.58975">
        <ele>84.4</ele>
        <time>2019-06-01T06:37:14Z</time>
      </trkpt>
      <trkpt lat="44.11322" lon="4.58978">
        <ele>84.5</ele>
        <time>2019-06-01T06:37:22Z</time>
      </trkpt>
      <trkpt lat="44.11325" lon="4.58978">
        <ele>84.5</ele>
        <time>2019-06-01T06:37:44Z</time>
      </trkpt>
      <trkpt lat="44.11328" lon="4.58976">
        <ele>84.5</ele>
        <time>2019-06-01T06:37:47Z</time>
      </trkpt>
      <trkpt lat="44.11328" lon="4.58972">
        <ele>84.5</ele>
        <time>2019-06-01T06:37:48Z</time>
      </trkpt>
      <trkpt lat="44.11328" lon="4.58966">
        <ele>84.5</ele>
        <time>2019-06-01T06:37:49Z</time>
      </trkpt>
      <trkpt lat="44.11327" lon="4.58961">
        <ele>84.2</ele>
        <time>2019-06-01T06:37:50Z</time>
      </trkpt>
      <trkpt lat="44.11327" lon="4.58955">
        <ele>84.3</ele>
        <time>2019-06-01T06:37:51Z</time>
      </trkpt>
      <trkpt lat="44.11327" lon="4.58949">
        <ele>84.4</ele>
        <time>2019-06-01T06:37:52Z</time>
      </trkpt>
      <trkpt lat="44.11327" lon="4.58941">
        <ele>84.6</ele>
        <time>2019-06-01T06:37:53Z</time>
      </trkpt>
      <trkpt lat="44.11328" lon="4.58935">
        <ele>84.8</ele>
        <time>2019-06-01T06:37:54Z</time>
      </trkpt>
      <trkpt lat="44.11329" lon="4.58929">
        <ele>84.9</ele>
        <time>2019-06-01T06:37:55Z</time>
      </trkpt>
      <trkpt lat="44.1133" lon="4.58922">
        <ele>85.1</ele>
        <time>2019-06-01T06:37:56Z</time>
      </trkpt>
      <trkpt lat="44.11331" lon="4.58916">
        <ele>85.4</ele>
        <time>2019-06-01T06:37:57Z</time>
      </trkpt>
      <trkpt lat="44.11332" lon="4.5891">
        <ele>85.6</ele>
        <time>2019-06-01T06:37:58Z</time>
      </trkpt>
      <trkpt lat="44.11333" lon="4.58905">
        <ele>85.7</ele>
        <time>2019-06-01T06:37:59Z</time>
      </trkpt>
      <trkpt lat="44.11336" lon="4.58899">
        <ele>85.9</ele>
        <time>2019-06-01T06:38:00Z</time>
      </trkpt>
      <trkpt lat="44.11336" lon="4.58893">
        <ele>86.1</ele>
        <time>2019-06-01T06:38:01Z</time>
      </trkpt>
      <trkpt lat="44.11337" lon="4.58889">
        <ele>86.2</ele>
        <time>2019-06-01T06:38:02Z</time>
      </trkpt>
      <trkpt lat="44.11337" lon="4.58883">
        <ele>86.3</ele>
        <time>2019-06-01T06:38:03Z</time>
      </trkpt>
      <trkpt lat="44.11337" lon="4.58876">
        <ele>86.5</ele>
        <time>2019-06-01T06:38:04Z</time>
      </trkpt>
      <trkpt lat="44.11336" lon="4.5887">
        <ele>86.7</ele>
        <time>2019-06-01T06:38:05Z</time>
      </trkpt>
      <trkpt lat="44.11336" lon="4.58864">
        <ele>87</ele>
        <time>2019-06-01T06:38:06Z</time>
      </trkpt>
      <trkpt lat="44.11334" lon="4.58858">
        <ele>87.3</ele>
        <time>2019-06-01T06:38:07Z</time>
      </trkpt>
      <trkpt lat="44.11332" lon="4.58853">
        <ele>87.6</ele>
        <time>2019-06-01T06:38:08Z</time>
      </trkpt>
      <trkpt lat="44.11331" lon="4.58848">
        <ele>87.8</ele>
        <time>2019-06-01T06:38:09Z</time>
      </trkpt>
      <trkpt lat="44.11331" lon="4.58842">
        <ele>88.2</ele>
        <time>2019-06-01T06:38:10Z</time>
      </trkpt>
      <trkpt lat="44.11332" lon="4.58835">
        <ele>88.7</ele>
        <time>2019-06-01T06:38:11Z</time>
      </trkpt>
      <trkpt lat="44.11332" lon="4.58828">
        <ele>89.6</ele>
        <time>2019-06-01T06:38:12Z</time>
      </trkpt>
      <trkpt lat="44.11332" lon="4.58822">
        <ele>90.3</ele>
        <time>2019-06-01T06:38:13Z</time>
      </trkpt>
      <trkpt lat="44.11329" lon="4.58817">
        <ele>90.6</ele>
        <time>2019-06-01T06:38:14Z</time>
      </trkpt>
      <trkpt lat="44.11326" lon="4.58814">
        <ele>90.9</ele>
        <time>2019-06-01T06:38:15Z</time>
      </trkpt>
      <trkpt lat="44.11323" lon="4.5881">
        <ele>91.2</ele>
        <time>2019-06-01T06:38:16Z</time>
      </trkpt>
      <trkpt lat="44.11325" lon="4.58802">
        <ele>91.4</ele>
        <time>2019-06-01T06:38:18Z</time>
      </trkpt>
      <trkpt lat="44.11326" lon="4.58797">
        <ele>91.5</ele>
        <time>2019-06-01T06:38:19Z</time>
      </trkpt>
      <trkpt lat="44.11328" lon="4.58792">
        <ele>91.6</ele>
        <time>2019-06-01T06:38:20Z</time>
      </trkpt>
      <trkpt lat="44.11328" lon="4.58786">
        <ele>91.8</ele>
        <time>2019-06-01T06:38:21Z</time>
      </trkpt>
      <trkpt lat="44.11329" lon="4.5878">
        <ele>91.9</ele>
        <time>2019-06-01T06:38:22Z</time>
      </trkpt>
      <trkpt lat="44.1133" lon="4.58774">
        <ele>91.9</ele>
        <time>2019-06-01T06:38:23Z</time>
      </trkpt>
      <trkpt lat="44.11331" lon="4.58768">
        <ele>92</ele>
        <time>2019-06-01T06:38:24Z</time>
      </trkpt>
      <trkpt lat="44.11331" lon="4.58763">
        <ele>92</ele>
        <time>2019-06-01T06:38:25Z</time>
      </trkpt>
      <trkpt lat="44.11332" lon="4.58757">
        <ele>92.1</ele>
        <time>2019-06-01T06:38:26Z</time>
      </trkpt>
      <trkpt lat="44.11332" lon="4.58751">
        <ele>92.2</ele>
        <time>2019-06-01T06:38:27Z</time>
      </trkpt>
      <trkpt lat="44.11333" lon="4.58746">
        <ele>92.4</ele>
        <time>2019-06-01T06:38:28Z</time>
      </trkpt>
      <trkpt lat="44.11333" lon="4.58741">
        <ele>92.4</ele>
        <time>2019-06-01T06:38:29Z</time>
      </trkpt>
      <trkpt lat="44.11334" lon="4.58735">
        <ele>92.4</ele>
        <time>2019-06-01T06:38:30Z</time>
      </trkpt>
      <trkpt lat="44.11334" lon="4.58731">
        <ele>92.5</ele>
        <time>2019-06-01T06:38:31Z</time>
      </trkpt>
      <trkpt lat="44.11334" lon="4.58725">
        <ele>92.6</ele>
        <time>2019-06-01T06:38:32Z</time>
      </trkpt>
      <trkpt lat="44.11335" lon="4.5872">
        <ele>92.7</ele>
        <time>2019-06-01T06:38:33Z</time>
      </trkpt>
      <trkpt lat="44.11335" lon="4.58715">
        <ele>92.8</ele>
        <time>2019-06-01T06:38:34Z</time>
      </trkpt>
      <trkpt lat="44.11335" lon="4.58711">
        <ele>92.9</ele>
        <time>2019-06-01T06:38:35Z</time>
      </trkpt>
      <trkpt lat="44.11334" lon="4.58707">
        <ele>93</ele>
        <time>2019-06-01T06:38:36Z</time>
      </trkpt>
      <trkpt lat="44.11332" lon="4.587">
        <ele>93</ele>
        <time>2019-06-01T06:38:38Z</time>
      </trkpt>
      <trkpt lat="44.1133" lon="4.58697">
        <ele>93</ele>
        <time>2019-06-01T06:38:39Z</time>
      </trkpt>
      <trkpt lat="44.11328" lon="4.58693">
        <ele>92.9</ele>
        <time>2019-06-01T06:38:40Z</time>
      </trkpt>
      <trkpt lat="44.11327" lon="4.58688">
        <ele>93.1</ele>
        <time>2019-06-01T06:38:41Z</time>
      </trkpt>
      <trkpt lat="44.11325" lon="4.58682">
        <ele>93</ele>
        <time>2019-06-01T06:38:42Z</time>
      </trkpt>
      <trkpt lat="44.11324" lon="4.58677">
        <ele>93.1</ele>
        <time>2019-06-01T06:38:43Z</time>
      </trkpt>
      <trkpt lat="44.11322" lon="4.58668">
        <ele>93</ele>
        <time>2019-06-01T06:38:44Z</time>
      </trkpt>
      <trkpt lat="44.1132" lon="4.58664">
        <ele>93</ele>
        <time>2019-06-01T06:38:45Z</time>
      </trkpt>
      <trkpt lat="44.11316" lon="4.5866">
        <ele>92.3</ele>
        <time>2019-06-01T06:38:47Z</time>
      </trkpt>
      <trkpt lat="44.11313" lon="4.58658">
        <ele>92</ele>
        <time>2019-06-01T06:38:48Z</time>
      </trkpt>
      <trkpt lat="44.1131" lon="4.58654">
        <ele>91.6</ele>
        <time>2019-06-01T06:38:49Z</time>
      </trkpt>
      <trkpt lat="44.11309" lon="4.58648">
        <ele>91.7</ele>
        <time>2019-06-01T06:38:50Z</time>
      </trkpt>
      <trkpt lat="44.11307" lon="4.58637">
        <ele>91.5</ele>
        <time>2019-06-01T06:38:51Z</time>
      </trkpt>
      <trkpt lat="44.11301" lon="4.58634">
        <ele>91.1</ele>
        <time>2019-06-01T06:38:52Z</time>
      </trkpt>
      <trkpt lat="44.11297" lon="4.58633">
        <ele>90.2</ele>
        <time>2019-06-01T06:38:53Z</time>
      </trkpt>
      <trkpt lat="44.11293" lon="4.58632">
        <ele>89.8</ele>
        <time>2019-06-01T06:38:54Z</time>
      </trkpt>
      <trkpt lat="44.11292" lon="4.58627">
        <ele>89.9</ele>
        <time>2019-06-01T06:38:56Z</time>
      </trkpt>
      <trkpt lat="44.11291" lon="4.58624">
        <ele>89.5</ele>
        <time>2019-06-01T06:39:03Z</time>
      </trkpt>
      <trkpt lat="44.1129" lon="4.58618">
        <ele>89.7</ele>
        <time>2019-06-01T06:39:05Z</time>
      </trkpt>
      <trkpt lat="44.1129" lon="4.58614">
        <ele>89.9</ele>
        <time>2019-06-01T06:39:06Z</time>
      </trkpt>
      <trkpt lat="44.1129" lon="4.58609">
        <ele>90</ele>
        <time>2019-06-01T06:39:07Z</time>
      </trkpt>
      <trkpt lat="44.11291" lon="4.58605">
        <ele>90.2</ele>
        <time>2019-06-01T06:39:08Z</time>
      </trkpt>
      <trkpt lat="44.11291" lon="4.58601">
        <ele>90.3</ele>
        <time>2019-06-01T06:39:09Z</time>
      </trkpt>
      <trkpt lat="44.11291" lon="4.58596">
        <ele>90.5</ele>
        <time>2019-06-01T06:39:10Z</time>
      </trkpt>
      <trkpt lat="44.11292" lon="4.58591">
        <ele>90.6</ele>
        <time>2019-06-01T06:39:11Z</time>
      </trkpt>
      <trkpt lat="44.11292" lon="4.58586">
        <ele>90.8</ele>
        <time>2019-06-01T06:39:12Z</time>
      </trkpt>
      <trkpt lat="44.11291" lon="4.58582">
        <ele>90.9</ele>
        <time>2019-06-01T06:39:13Z</time>
      </trkpt>
      <trkpt lat="44.11291" lon="4.58577">
        <ele>91</ele>
        <time>2019-06-01T06:39:14Z</time>
      </trkpt>
      <trkpt lat="44.1129" lon="4.58573">
        <ele>91.2</ele>
        <time>2019-06-01T06:39:15Z</time>
      </trkpt>
      <trkpt lat="44.11289" lon="4.58568">
        <ele>91.3</ele>
        <time>2019-06-01T06:39:16Z</time>
      </trkpt>
      <trkpt lat="44.11288" lon="4.58564">
        <ele>91</ele>
        <time>2019-06-01T06:39:17Z</time>
      </trkpt>
      <trkpt lat="44.11287" lon="4.5856">
        <ele>91.2</ele>
        <time>2019-06-01T06:39:18Z</time>
      </trkpt>
      <trkpt lat="44.11285" lon="4.58555">
        <ele>90.9</ele>
        <time>2019-06-01T06:39:19Z</time>
      </trkpt>
      <trkpt lat="44.11283" lon="4.5855">
        <ele>91.2</ele>
        <time>2019-06-01T06:39:20Z</time>
      </trkpt>
      <trkpt lat="44.11281" lon="4.58546">
        <ele>91</ele>
        <time>2019-06-01T06:39:21Z</time>
      </trkpt>
      <trkpt lat="44.1128" lon="4.58542">
        <ele>91</ele>
        <time>2019-06-01T06:39:22Z</time>
      </trkpt>
      <trkpt lat="44.1128" lon="4.58538">
        <ele>91.1</ele>
        <time>2019-06-01T06:39:23Z</time>
      </trkpt>
      <trkpt lat="44.1128" lon="4.58534">
        <ele>91.2</ele>
        <time>2019-06-01T06:39:24Z</time>
      </trkpt>
      <trkpt lat="44.11282" lon="4.58528">
        <ele>91.4</ele>
        <time>2019-06-01T06:39:25Z</time>
      </trkpt>
      <trkpt lat="44.11283" lon="4.58523">
        <ele>91.9</ele>
        <time>2019-06-01T06:39:26Z</time>
      </trkpt>
      <trkpt lat="44.11285" lon="4.58519">
        <ele>91.9</ele>
        <time>2019-06-01T06:39:27Z</time>
      </trkpt>
      <trkpt lat="44.11287" lon="4.58514">
        <ele>92.3</ele>
        <time>2019-06-01T06:39:29Z</time>
      </trkpt>
      <trkpt lat="44.11288" lon="4.58503">
        <ele>92.3</ele>
        <time>2019-06-01T06:39:30Z</time>
      </trkpt>
      <trkpt lat="44.11288" lon="4.58495">
        <ele>92.2</ele>
        <time>2019-06-01T06:39:31Z</time>
      </trkpt>
      <trkpt lat="44.11289" lon="4.5849">
        <ele>92.3</ele>
        <time>2019-06-01T06:39:32Z</time>
      </trkpt>
      <trkpt lat="44.1129" lon="4.58485">
        <ele>92.1</ele>
        <time>2019-06-01T06:39:33Z</time>
      </trkpt>
      <trkpt lat="44.11292" lon="4.58476">
        <ele>91.8</ele>
        <time>2019-06-01T06:39:34Z</time>
      </trkpt>
      <trkpt lat="44.11293" lon="4.58471">
        <ele>92</ele>
        <time>2019-06-01T06:39:35Z</time>
      </trkpt>
      <trkpt lat="44.11294" lon="4.58466">
        <ele>91.8</ele>
        <time>2019-06-01T06:39:36Z</time>
      </trkpt>
      <trkpt lat="44.11295" lon="4.58461">
        <ele>91.6</ele>
        <time>2019-06-01T06:39:38Z</time>
      </trkpt>
      <trkpt lat="44.11295" lon="4.58453">
        <ele>91.6</ele>
        <time>2019-06-01T06:39:40Z</time>
      </trkpt>
      <trkpt lat="44.11296" lon="4.58446">
        <ele>91.2</ele>
        <time>2019-06-01T06:39:41Z</time>
      </trkpt>
      <trkpt lat="44.11296" lon="4.5844">
        <ele>91</ele>
        <time>2019-06-01T06:39:42Z</time>
      </trkpt>
      <trkpt lat="44.11297" lon="4.58434">
        <ele>90.6</ele>
        <time>2019-06-01T06:39:43Z</time>
      </trkpt>
      <trkpt lat="44.11298" lon="4.58429">
        <ele>90.4</ele>
        <time>2019-06-01T06:39:44Z</time>
      </trkpt>
      <trkpt lat="44.11299" lon="4.58425">
        <ele>90.5</ele>
        <time>2019-06-01T06:39:45Z</time>
      </trkpt>
      <trkpt lat="44.113" lon="4.58418">
        <ele>90.3</ele>
        <time>2019-06-01T06:39:47Z</time>
      </trkpt>
      <trkpt lat="44.11301" lon="4.58412">
        <ele>90.3</ele>
        <time>2019-06-01T06:39:49Z</time>
      </trkpt>
      <trkpt lat="44.11302" lon="4.58408">
        <ele>90.1</ele>
        <time>2019-06-01T06:39:50Z</time>
      </trkpt>
      <trkpt lat="44.11302" lon="4.58403">
        <ele>89.9</ele>
        <time>2019-06-01T06:39:51Z</time>
      </trkpt>
      <trkpt lat="44.11303" lon="4.58398">
        <ele>89.7</ele>
        <time>2019-06-01T06:39:52Z</time>
      </trkpt>
      <trkpt lat="44.11303" lon="4.58393">
        <ele>89.5</ele>
        <time>2019-06-01T06:39:53Z</time>
      </trkpt>
      <trkpt lat="44.11304" lon="4.58387">
        <ele>89.1</ele>
        <time>2019-06-01T06:39:54Z</time>
      </trkpt>
      <trkpt lat="44.11304" lon="4.58382">
        <ele>89.3</ele>
        <time>2019-06-01T06:39:55Z</time>
      </trkpt>
      <trkpt lat="44.11305" lon="4.58376">
        <ele>89.1</ele>
        <time>2019-06-01T06:39:56Z</time>
      </trkpt>
      <trkpt lat="44.11306" lon="4.58371">
        <ele>88.9</ele>
        <time>2019-06-01T06:39:57Z</time>
      </trkpt>
      <trkpt lat="44.11306" lon="4.58365">
        <ele>88.5</ele>
        <time>2019-06-01T06:39:58Z</time>
      </trkpt>
      <trkpt lat="44.11307" lon="4.5836">
        <ele>88.4</ele>
        <time>2019-06-01T06:39:59Z</time>
      </trkpt>
      <trkpt lat="44.11307" lon="4.58355">
        <ele>88.5</ele>
        <time>2019-06-01T06:40:00Z</time>
      </trkpt>
      <trkpt lat="44.11308" lon="4.58349">
        <ele>88.4</ele>
        <time>2019-06-01T06:40:01Z</time>
      </trkpt>
      <trkpt lat="44.11309" lon="4.58344">
        <ele>88.1</ele>
        <time>2019-06-01T06:40:02Z</time>
      </trkpt>
      <trkpt lat="44.1131" lon="4.58338">
        <ele>88</ele>
        <time>2019-06-01T06:40:03Z</time>
      </trkpt>
      <trkpt lat="44.1131" lon="4.58333">
        <ele>87.9</ele>
        <time>2019-06-01T06:40:04Z</time>
      </trkpt>
      <trkpt lat="44.11311" lon="4.58329">
        <ele>88.2</ele>
        <time>2019-06-01T06:40:05Z</time>
      </trkpt>
      <trkpt lat="44.11311" lon="4.58324">
        <ele>88.1</ele>
        <time>2019-06-01T06:40:06Z</time>
      </trkpt>
      <trkpt lat="44.11312" lon="4.5832">
        <ele>88.1</ele>
        <time>2019-06-01T06:40:07Z</time>
      </trkpt>
      <trkpt lat="44.11312" lon="4.58315">
        <ele>88.2</ele>
        <time>2019-06-01T06:40:08Z</time>
      </trkpt>
      <trkpt lat="44.11313" lon="4.5831">
        <ele>88.3</ele>
        <time>2019-06-01T06:40:09Z</time>
      </trkpt>
      <trkpt lat="44.11314" lon="4.58305">
        <ele>88.7</ele>
        <time>2019-06-01T06:40:10Z</time>
      </trkpt>
      <trkpt lat="44.11314" lon="4.583">
        <ele>88.8</ele>
        <time>2019-06-01T06:40:11Z</time>
      </trkpt>
      <trkpt lat="44.11315" lon="4.58295">
        <ele>88.8</ele>
        <time>2019-06-01T06:40:12Z</time>
      </trkpt>
      <trkpt lat="44.11316" lon="4.5829">
        <ele>88.8</ele>
        <time>2019-06-01T06:40:13Z</time>
      </trkpt>
      <trkpt lat="44.11317" lon="4.58285">
        <ele>89.1</ele>
        <time>2019-06-01T06:40:14Z</time>
      </trkpt>
      <trkpt lat="44.11317" lon="4.58279">
        <ele>89</ele>
        <time>2019-06-01T06:40:15Z</time>
      </trkpt>
      <trkpt lat="44.11318" lon="4.58274">
        <ele>88.9</ele>
        <time>2019-06-01T06:40:16Z</time>
      </trkpt>
      <trkpt lat="44.11319" lon="4.58268">
        <ele>88.8</ele>
        <time>2019-06-01T06:40:17Z</time>
      </trkpt>
      <trkpt lat="44.11319" lon="4.58262">
        <ele>88.5</ele>
        <time>2019-06-01T06:40:18Z</time>
      </trkpt>
      <trkpt lat="44.11319" lon="4.58256">
        <ele>88.4</ele>
        <time>2019-06-01T06:40:19Z</time>
      </trkpt>
      <trkpt lat="44.11319" lon="4.5825">
        <ele>88.2</ele>
        <time>2019-06-01T06:40:20Z</time>
      </trkpt>
      <trkpt lat="44.1132" lon="4.58245">
        <ele>88.3</ele>
        <time>2019-06-01T06:40:21Z</time>
      </trkpt>
      <trkpt lat="44.11321" lon="4.58239">
        <ele>88.2</ele>
        <time>2019-06-01T06:40:22Z</time>
      </trkpt>
      <trkpt lat="44.11321" lon="4.58235">
        <ele>88.1</ele>
        <time>2019-06-01T06:40:23Z</time>
      </trkpt>
      <trkpt lat="44.11321" lon="4.58231">
        <ele>88.1</ele>
        <time>2019-06-01T06:40:24Z</time>
      </trkpt>
      <trkpt lat="44.11319" lon="4.58224">
        <ele>87.8</ele>
        <time>2019-06-01T06:40:26Z</time>
      </trkpt>
      <trkpt lat="44.11317" lon="4.5822">
        <ele>87.8</ele>
        <time>2019-06-01T06:40:27Z</time>
      </trkpt>
      <trkpt lat="44.11316" lon="4.58217">
        <ele>87.5</ele>
        <time>2019-06-01T06:40:28Z</time>
      </trkpt>
      <trkpt lat="44.11315" lon="4.58212">
        <ele>87.5</ele>
        <time>2019-06-01T06:40:29Z</time>
      </trkpt>
      <trkpt lat="44.11313" lon="4.58208">
        <ele>87.5</ele>
        <time>2019-06-01T06:40:30Z</time>
      </trkpt>
      <trkpt lat="44.11311" lon="4.58204">
        <ele>87.2</ele>
        <time>2019-06-01T06:40:31Z</time>
      </trkpt>
      <trkpt lat="44.11308" lon="4.58199">
        <ele>86.9</ele>
        <time>2019-06-01T06:40:32Z</time>
      </trkpt>
      <trkpt lat="44.11305" lon="4.58194">
        <ele>86.6</ele>
        <time>2019-06-01T06:40:33Z</time>
      </trkpt>
      <trkpt lat="44.11302" lon="4.5819">
        <ele>86.3</ele>
        <time>2019-06-01T06:40:34Z</time>
      </trkpt>
      <trkpt lat="44.11299" lon="4.58185">
        <ele>86</ele>
        <time>2019-06-01T06:40:35Z</time>
      </trkpt>
      <trkpt lat="44.11296" lon="4.5818">
        <ele>85.8</ele>
        <time>2019-06-01T06:40:36Z</time>
      </trkpt>
      <trkpt lat="44.11293" lon="4.58176">
        <ele>85.6</ele>
        <time>2019-06-01T06:40:37Z</time>
      </trkpt>
      <trkpt lat="44.1129" lon="4.58171">
        <ele>85.3</ele>
        <time>2019-06-01T06:40:38Z</time>
      </trkpt>
      <trkpt lat="44.11287" lon="4.58166">
        <ele>85.2</ele>
        <time>2019-06-01T06:40:39Z</time>
      </trkpt>
      <trkpt lat="44.11285" lon="4.58161">
        <ele>85</ele>
        <time>2019-06-01T06:40:40Z</time>
      </trkpt>
      <trkpt lat="44.11283" lon="4.58155">
        <ele>84.9</ele>
        <time>2019-06-01T06:40:41Z</time>
      </trkpt>
      <trkpt lat="44.11282" lon="4.58149">
        <ele>84.7</ele>
        <time>2019-06-01T06:40:42Z</time>
      </trkpt>
      <trkpt lat="44.11282" lon="4.58143">
        <ele>84.7</ele>
        <time>2019-06-01T06:40:43Z</time>
      </trkpt>
      <trkpt lat="44.11281" lon="4.58137">
        <ele>84.6</ele>
        <time>2019-06-01T06:40:44Z</time>
      </trkpt>
      <trkpt lat="44.11281" lon="4.58131">
        <ele>84.6</ele>
        <time>2019-06-01T06:40:45Z</time>
      </trkpt>
      <trkpt lat="44.1128" lon="4.58125">
        <ele>84.6</ele>
        <time>2019-06-01T06:40:46Z</time>
      </trkpt>
      <trkpt lat="44.1128" lon="4.58119">
        <ele>84.5</ele>
        <time>2019-06-01T06:40:47Z</time>
      </trkpt>
      <trkpt lat="44.1128" lon="4.58114">
        <ele>84.5</ele>
        <time>2019-06-01T06:40:48Z</time>
      </trkpt>
      <trkpt lat="44.11279" lon="4.58109">
        <ele>84.3</ele>
        <time>2019-06-01T06:40:49Z</time>
      </trkpt>
      <trkpt lat="44.1128" lon="4.58104">
        <ele>84.4</ele>
        <time>2019-06-01T06:40:51Z</time>
      </trkpt>
      <trkpt lat="44.11276" lon="4.581">
        <ele>84.1</ele>
        <time>2019-06-01T06:40:54Z</time>
      </trkpt>
      <trkpt lat="44.11273" lon="4.58099">
        <ele>84</ele>
        <time>2019-06-01T06:40:55Z</time>
      </trkpt>
      <trkpt lat="44.1127" lon="4.58098">
        <ele>83.8</ele>
        <time>2019-06-01T06:40:56Z</time>
      </trkpt>
      <trkpt lat="44.11266" lon="4.58096">
        <ele>83.7</ele>
        <time>2019-06-01T06:40:57Z</time>
      </trkpt>
      <trkpt lat="44.11262" lon="4.58093">
        <ele>83.6</ele>
        <time>2019-06-01T06:40:58Z</time>
      </trkpt>
      <trkpt lat="44.11258" lon="4.58092">
        <ele>83.4</ele>
        <time>2019-06-01T06:40:59Z</time>
      </trkpt>
      <trkpt lat="44.11254" lon="4.5809">
        <ele>83.2</ele>
        <time>2019-06-01T06:41:00Z</time>
      </trkpt>
      <trkpt lat="44.11251" lon="4.58088">
        <ele>83.1</ele>
        <time>2019-06-01T06:41:01Z</time>
      </trkpt>
      <trkpt lat="44.11249" lon="4.58085">
        <ele>83.1</ele>
        <time>2019-06-01T06:41:02Z</time>
      </trkpt>
      <trkpt lat="44.11251" lon="4.58079">
        <ele>83.1</ele>
        <time>2019-06-01T06:41:04Z</time>
      </trkpt>
      <trkpt lat="44.11254" lon="4.58076">
        <ele>83.2</ele>
        <time>2019-06-01T06:41:05Z</time>
      </trkpt>
      <trkpt lat="44.11258" lon="4.58074">
        <ele>83.3</ele>
        <time>2019-06-01T06:41:06Z</time>
      </trkpt>
      <trkpt lat="44.11261" lon="4.58071">
        <ele>83.4</ele>
        <time>2019-06-01T06:41:07Z</time>
      </trkpt>
      <trkpt lat="44.11265" lon="4.58069">
        <ele>83.5</ele>
        <time>2019-06-01T06:41:08Z</time>
      </trkpt>
      <trkpt lat="44.11268" lon="4.58067">
        <ele>83.6</ele>
        <time>2019-06-01T06:41:09Z</time>
      </trkpt>
      <trkpt lat="44.11271" lon="4.58064">
        <ele>83.7</ele>
        <time>2019-06-01T06:41:10Z</time>
      </trkpt>
      <trkpt lat="44.11274" lon="4.58062">
        <ele>83.7</ele>
        <time>2019-06-01T06:41:11Z</time>
      </trkpt>
      <trkpt lat="44.11277" lon="4.58058">
        <ele>83.8</ele>
        <time>2019-06-01T06:41:12Z</time>
      </trkpt>
      <trkpt lat="44.1128" lon="4.58055">
        <ele>83.9</ele>
        <time>2019-06-01T06:41:13Z</time>
      </trkpt>
      <trkpt lat="44.11283" lon="4.58052">
        <ele>84</ele>
        <time>2019-06-01T06:41:14Z</time>
      </trkpt>
      <trkpt lat="44.11286" lon="4.58049">
        <ele>84.1</ele>
        <time>2019-06-01T06:41:15Z</time>
      </trkpt>
      <trkpt lat="44.11289" lon="4.58046">
        <ele>84.2</ele>
        <time>2019-06-01T06:41:16Z</time>
      </trkpt>
      <trkpt lat="44.11293" lon="4.58042">
        <ele>84.2</ele>
        <time>2019-06-01T06:41:17Z</time>
      </trkpt>
      <trkpt lat="44.11296" lon="4.58039">
        <ele>84.3</ele>
        <time>2019-06-01T06:41:18Z</time>
      </trkpt>
      <trkpt lat="44.11298" lon="4.58036">
        <ele>84.3</ele>
        <time>2019-06-01T06:41:19Z</time>
      </trkpt>
      <trkpt lat="44.11301" lon="4.58033">
        <ele>84.4</ele>
        <time>2019-06-01T06:41:20Z</time>
      </trkpt>
      <trkpt lat="44.11304" lon="4.5803">
        <ele>84.3</ele>
        <time>2019-06-01T06:41:21Z</time>
      </trkpt>
      <trkpt lat="44.11306" lon="4.58026">
        <ele>84.4</ele>
        <time>2019-06-01T06:41:22Z</time>
      </trkpt>
      <trkpt lat="44.11309" lon="4.58023">
        <ele>84.4</ele>
        <time>2019-06-01T06:41:23Z</time>
      </trkpt>
      <trkpt lat="44.11312" lon="4.5802">
        <ele>84.4</ele>
        <time>2019-06-01T06:41:24Z</time>
      </trkpt>
      <trkpt lat="44.11314" lon="4.58017">
        <ele>84.5</ele>
        <time>2019-06-01T06:41:25Z</time>
      </trkpt>
      <trkpt lat="44.11317" lon="4.58013">
        <ele>84.5</ele>
        <time>2019-06-01T06:41:26Z</time>
      </trkpt>
      <trkpt lat="44.11319" lon="4.58009">
        <ele>84.5</ele>
        <time>2019-06-01T06:41:27Z</time>
      </trkpt>
      <trkpt lat="44.11321" lon="4.58006">
        <ele>84.5</ele>
        <time>2019-06-01T06:41:28Z</time>
      </trkpt>
      <trkpt lat="44.11324" lon="4.58002">
        <ele>84.5</ele>
        <time>2019-06-01T06:41:29Z</time>
      </trkpt>
      <trkpt lat="44.11326" lon="4.57999">
        <ele>84.6</ele>
        <time>2019-06-01T06:41:30Z</time>
      </trkpt>
      <trkpt lat="44.11329" lon="4.57996">
        <ele>84.7</ele>
        <time>2019-06-01T06:41:31Z</time>
      </trkpt>
      <trkpt lat="44.11332" lon="4.57993">
        <ele>84.7</ele>
        <time>2019-06-01T06:41:32Z</time>
      </trkpt>
      <trkpt lat="44.11334" lon="4.5799">
        <ele>84.8</ele>
        <time>2019-06-01T06:41:33Z</time>
      </trkpt>
      <trkpt lat="44.11337" lon="4.57988">
        <ele>84.9</ele>
        <time>2019-06-01T06:41:34Z</time>
      </trkpt>
      <trkpt lat="44.1134" lon="4.57985">
        <ele>84.9</ele>
        <time>2019-06-01T06:41:35Z</time>
      </trkpt>
      <trkpt lat="44.11343" lon="4.57982">
        <ele>85</ele>
        <time>2019-06-01T06:41:36Z</time>
      </trkpt>
      <trkpt lat="44.11346" lon="4.57978">
        <ele>85.1</ele>
        <time>2019-06-01T06:41:37Z</time>
      </trkpt>
      <trkpt lat="44.11349" lon="4.57975">
        <ele>85.1</ele>
        <time>2019-06-01T06:41:38Z</time>
      </trkpt>
      <trkpt lat="44.11352" lon="4.57973">
        <ele>85.2</ele>
        <time>2019-06-01T06:41:39Z</time>
      </trkpt>
      <trkpt lat="44.11354" lon="4.5797">
        <ele>85.3</ele>
        <time>2019-06-01T06:41:40Z</time>
      </trkpt>
      <trkpt lat="44.11357" lon="4.57967">
        <ele>85.4</ele>
        <time>2019-06-01T06:41:41Z</time>
      </trkpt>
      <trkpt lat="44.1136" lon="4.57965">
        <ele>85.5</ele>
        <time>2019-06-01T06:41:42Z</time>
      </trkpt>
      <trkpt lat="44.11362" lon="4.57962">
        <ele>85.5</ele>
        <time>2019-06-01T06:41:43Z</time>
      </trkpt>
      <trkpt lat="44.11365" lon="4.5796">
        <ele>85.6</ele>
        <time>2019-06-01T06:41:44Z</time>
      </trkpt>
      <trkpt lat="44.11368" lon="4.57957">
        <ele>85.7</ele>
        <time>2019-06-01T06:41:45Z</time>
      </trkpt>
      <trkpt lat="44.11371" lon="4.57955">
        <ele>85.8</ele>
        <time>2019-06-01T06:41:46Z</time>
      </trkpt>
      <trkpt lat="44.11373" lon="4.57952">
        <ele>85.9</ele>
        <time>2019-06-01T06:41:47Z</time>
      </trkpt>
      <trkpt lat="44.11376" lon="4.57949">
        <ele>86</ele>
        <time>2019-06-01T06:41:48Z</time>
      </trkpt>
      <trkpt lat="44.11379" lon="4.57947">
        <ele>86</ele>
        <time>2019-06-01T06:41:49Z</time>
      </trkpt>
      <trkpt lat="44.11382" lon="4.57944">
        <ele>86.1</ele>
        <time>2019-06-01T06:41:50Z</time>
      </trkpt>
      <trkpt lat="44.11384" lon="4.57941">
        <ele>86.2</ele>
        <time>2019-06-01T06:41:51Z</time>
      </trkpt>
      <trkpt lat="44.11387" lon="4.57938">
        <ele>86.2</ele>
        <time>2019-06-01T06:41:52Z</time>
      </trkpt>
      <trkpt lat="44.1139" lon="4.57935">
        <ele>86.3</ele>
        <time>2019-06-01T06:41:53Z</time>
      </trkpt>
      <trkpt lat="44.11392" lon="4.57932">
        <ele>86.4</ele>
        <time>2019-06-01T06:41:54Z</time>
      </trkpt>
      <trkpt lat="44.11395" lon="4.57929">
        <ele>86.5</ele>
        <time>2019-06-01T06:41:55Z</time>
      </trkpt>
      <trkpt lat="44.11398" lon="4.57927">
        <ele>86.6</ele>
        <time>2019-06-01T06:41:56Z</time>
      </trkpt>
      <trkpt lat="44.11401" lon="4.57924">
        <ele>86.7</ele>
        <time>2019-06-01T06:41:57Z</time>
      </trkpt>
      <trkpt lat="44.11403" lon="4.57921">
        <ele>86.9</ele>
        <time>2019-06-01T06:41:58Z</time>
      </trkpt>
      <trkpt lat="44.11406" lon="4.57918">
        <ele>87.1</ele>
        <time>2019-06-01T06:41:59Z</time>
      </trkpt>
      <trkpt lat="44.11408" lon="4.57916">
        <ele>87.1</ele>
        <time>2019-06-01T06:42:00Z</time>
      </trkpt>
      <trkpt lat="44.11411" lon="4.57913">
        <ele>87.3</ele>
        <time>2019-06-01T06:42:01Z</time>
      </trkpt>
      <trkpt lat="44.11413" lon="4.5791">
        <ele>87.5</ele>
        <time>2019-06-01T06:42:02Z</time>
      </trkpt>
      <trkpt lat="44.11416" lon="4.57907">
        <ele>87.6</ele>
        <time>2019-06-01T06:42:03Z</time>
      </trkpt>
      <trkpt lat="44.11418" lon="4.57904">
        <ele>87.7</ele>
        <time>2019-06-01T06:42:04Z</time>
      </trkpt>
      <trkpt lat="44.1142" lon="4.57901">
        <ele>88</ele>
        <time>2019-06-01T06:42:05Z</time>
      </trkpt>
      <trkpt lat="44.11422" lon="4.57899">
        <ele>88.2</ele>
        <time>2019-06-01T06:42:06Z</time>
      </trkpt>
      <trkpt lat="44.11424" lon="4.57897">
        <ele>88.2</ele>
        <time>2019-06-01T06:42:07Z</time>
      </trkpt>
      <trkpt lat="44.11429" lon="4.57894">
        <ele>88.7</ele>
        <time>2019-06-01T06:42:09Z</time>
      </trkpt>
      <trkpt lat="44.11434" lon="4.57893">
        <ele>89.3</ele>
        <time>2019-06-01T06:42:11Z</time>
      </trkpt>
      <trkpt lat="44.11439" lon="4.57892">
        <ele>89.5</ele>
        <time>2019-06-01T06:42:13Z</time>
      </trkpt>
      <trkpt lat="44.11444" lon="4.57891">
        <ele>90.2</ele>
        <time>2019-06-01T06:42:15Z</time>
      </trkpt>
      <trkpt lat="44.11446" lon="4.5789">
        <ele>90.5</ele>
        <time>2019-06-01T06:42:16Z</time>
      </trkpt>
      <trkpt lat="44.11449" lon="4.57888">
        <ele>90.7</ele>
        <time>2019-06-01T06:42:17Z</time>
      </trkpt>
      <trkpt lat="44.11452" lon="4.57885">
        <ele>91.6</ele>
        <time>2019-06-01T06:42:19Z</time>
      </trkpt>
      <trkpt lat="44.11456" lon="4.57881">
        <ele>92</ele>
        <time>2019-06-01T06:42:21Z</time>
      </trkpt>
      <trkpt lat="44.11458" lon="4.57879">
        <ele>92.1</ele>
        <time>2019-06-01T06:42:22Z</time>
      </trkpt>
      <trkpt lat="44.11461" lon="4.57874">
        <ele>92.6</ele>
        <time>2019-06-01T06:42:24Z</time>
      </trkpt>
      <trkpt lat="44.11464" lon="4.57868">
        <ele>93.3</ele>
        <time>2019-06-01T06:42:26Z</time>
      </trkpt>
      <trkpt lat="44.11466" lon="4.57862">
        <ele>93.3</ele>
        <time>2019-06-01T06:42:28Z</time>
      </trkpt>
      <trkpt lat="44.11467" lon="4.57857">
        <ele>93.3</ele>
        <time>2019-06-01T06:42:30Z</time>
      </trkpt>
      <trkpt lat="44.11469" lon="4.57852">
        <ele>93.4</ele>
        <time>2019-06-01T06:42:32Z</time>
      </trkpt>
      <trkpt lat="44.11471" lon="4.57846">
        <ele>93.4</ele>
        <time>2019-06-01T06:42:34Z</time>
      </trkpt>
      <trkpt lat="44.11472" lon="4.57841">
        <ele>93.4</ele>
        <time>2019-06-01T06:42:36Z</time>
      </trkpt>
      <trkpt lat="44.11473" lon="4.57835">
        <ele>93.5</ele>
        <time>2019-06-01T06:42:38Z</time>
      </trkpt>
      <trkpt lat="44.11474" lon="4.57829">
        <ele>93.6</ele>
        <time>2019-06-01T06:42:40Z</time>
      </trkpt>
      <trkpt lat="44.11475" lon="4.57822">
        <ele>93.7</ele>
        <time>2019-06-01T06:42:42Z</time>
      </trkpt>
      <trkpt lat="44.11477" lon="4.57817">
        <ele>93.7</ele>
        <time>2019-06-01T06:42:44Z</time>
      </trkpt>
      <trkpt lat="44.11479" lon="4.57811">
        <ele>93.8</ele>
        <time>2019-06-01T06:42:46Z</time>
      </trkpt>
      <trkpt lat="44.11479" lon="4.57805">
        <ele>94</ele>
        <time>2019-06-01T06:42:48Z</time>
      </trkpt>
      <trkpt lat="44.11479" lon="4.57798">
        <ele>94.1</ele>
        <time>2019-06-01T06:42:50Z</time>
      </trkpt>
      <trkpt lat="44.11479" lon="4.57792">
        <ele>94.4</ele>
        <time>2019-06-01T06:42:52Z</time>
      </trkpt>
      <trkpt lat="44.1148" lon="4.57785">
        <ele>94.5</ele>
        <time>2019-06-01T06:42:54Z</time>
      </trkpt>
      <trkpt lat="44.11481" lon="4.57779">
        <ele>94.7</ele>
        <time>2019-06-01T06:42:56Z</time>
      </trkpt>
      <trkpt lat="44.11482" lon="4.57772">
        <ele>94.9</ele>
        <time>2019-06-01T06:42:58Z</time>
      </trkpt>
      <trkpt lat="44.11484" lon="4.57766">
        <ele>95.2</ele>
        <time>2019-06-01T06:43:00Z</time>
      </trkpt>
      <trkpt lat="44.11486" lon="4.5776">
        <ele>95.6</ele>
        <time>2019-06-01T06:43:02Z</time>
      </trkpt>
      <trkpt lat="44.11488" lon="4.57754">
        <ele>95.9</ele>
        <time>2019-06-01T06:43:04Z</time>
      </trkpt>
      <trkpt lat="44.11491" lon="4.57749">
        <ele>96.2</ele>
        <time>2019-06-01T06:43:06Z</time>
      </trkpt>
      <trkpt lat="44.11493" lon="4.57743">
        <ele>96.6</ele>
        <time>2019-06-01T06:43:08Z</time>
      </trkpt>
      <trkpt lat="44.11496" lon="4.57737">
        <ele>96.9</ele>
        <time>2019-06-01T06:43:10Z</time>
      </trkpt>
      <trkpt lat="44.11499" lon="4.57732">
        <ele>97.3</ele>
        <time>2019-06-01T06:43:12Z</time>
      </trkpt>
      <trkpt lat="44.11501" lon="4.57727">
        <ele>97.8</ele>
        <time>2019-06-01T06:43:14Z</time>
      </trkpt>
      <trkpt lat="44.11504" lon="4.57721">
        <ele>98.1</ele>
        <time>2019-06-01T06:43:16Z</time>
      </trkpt>
      <trkpt lat="44.11506" lon="4.57716">
        <ele>98.6</ele>
        <time>2019-06-01T06:43:18Z</time>
      </trkpt>
      <trkpt lat="44.11509" lon="4.57711">
        <ele>99.1</ele>
        <time>2019-06-01T06:43:20Z</time>
      </trkpt>
      <trkpt lat="44.11513" lon="4.57706">
        <ele>99.5</ele>
        <time>2019-06-01T06:43:22Z</time>
      </trkpt>
      <trkpt lat="44.11516" lon="4.57703">
        <ele>100</ele>
        <time>2019-06-01T06:43:24Z</time>
      </trkpt>
      <trkpt lat="44.11519" lon="4.57702">
        <ele>100.3</ele>
        <time>2019-06-01T06:43:26Z</time>
      </trkpt>
      <trkpt lat="44.11523" lon="4.57701">
        <ele>100.7</ele>
        <time>2019-06-01T06:43:28Z</time>
      </trkpt>
      <trkpt lat="44.11527" lon="4.57702">
        <ele>101.3</ele>
        <time>2019-06-01T06:43:30Z</time>
      </trkpt>
      <trkpt lat="44.1153" lon="4.57704">
        <ele>101.9</ele>
        <time>2019-06-01T06:43:32Z</time>
      </trkpt>
      <trkpt lat="44.11533" lon="4.57707">
        <ele>102.4</ele>
        <time>2019-06-01T06:43:34Z</time>
      </trkpt>
      <trkpt lat="44.11536" lon="4.57711">
        <ele>103.1</ele>
        <time>2019-06-01T06:43:36Z</time>
      </trkpt>
      <trkpt lat="44.11539" lon="4.57716">
        <ele>103.9</ele>
        <time>2019-06-01T06:43:38Z</time>
      </trkpt>
      <trkpt lat="44.11541" lon="4.57719">
        <ele>104.5</ele>
        <time>2019-06-01T06:43:40Z</time>
      </trkpt>
      <trkpt lat="44.11545" lon="4.57722">
        <ele>105.2</ele>
        <time>2019-06-01T06:43:42Z</time>
      </trkpt>
      <trkpt lat="44.11547" lon="4.57726">
        <ele>105.8</ele>
        <time>2019-06-01T06:43:44Z</time>
      </trkpt>
      <trkpt lat="44.11549" lon="4.57729">
        <ele>106.4</ele>
        <time>2019-06-01T06:43:46Z</time>
      </trkpt>
      <trkpt lat="44.11552" lon="4.57731">
        <ele>107</ele>
        <time>2019-06-01T06:43:48Z</time>
      </trkpt>
      <trkpt lat="44.11556" lon="4.57733">
        <ele>107.7</ele>
        <time>2019-06-01T06:43:50Z</time>
      </trkpt>
      <trkpt lat="44.11559" lon="4.57735">
        <ele>108.3</ele>
        <time>2019-06-01T06:43:52Z</time>
      </trkpt>
      <trkpt lat="44.11563" lon="4.57736">
        <ele>109</ele>
        <time>2019-06-01T06:43:54Z</time>
      </trkpt>
      <trkpt lat="44.11567" lon="4.57737">
        <ele>109.5</ele>
        <time>2019-06-01T06:43:56Z</time>
      </trkpt>
      <trkpt lat="44.11571" lon="4.57738">
        <ele>110.1</ele>
        <time>2019-06-01T06:43:58Z</time>
      </trkpt>
      <trkpt lat="44.11574" lon="4.57738">
        <ele>110.6</ele>
        <time>2019-06-01T06:44:00Z</time>
      </trkpt>
      <trkpt lat="44.11578" lon="4.57739">
        <ele>111</ele>
        <time>2019-06-01T06:44:02Z</time>
      </trkpt>
      <trkpt lat="44.11582" lon="4.57739">
        <ele>111.6</ele>
        <time>2019-06-01T06:44:04Z</time>
      </trkpt>
      <trkpt lat="44.11586" lon="4.57739">
        <ele>112.1</ele>
        <time>2019-06-01T06:44:06Z</time>
      </trkpt>
      <trkpt lat="44.11589" lon="4.57737">
        <ele>112.4</ele>
        <time>2019-06-01T06:44:08Z</time>
      </trkpt>
      <trkpt lat="44.11592" lon="4.57734">
        <ele>112.8</ele>
        <time>2019-06-01T06:44:10Z</time>
      </trkpt>
      <trkpt lat="44.11596" lon="4.5773">
        <ele>113.3</ele>
        <time>2019-06-01T06:44:12Z</time>
      </trkpt>
      <trkpt lat="44.11599" lon="4.57726">
        <ele>113.7</ele>
        <time>2019-06-01T06:44:14Z</time>
      </trkpt>
      <trkpt lat="44.116" lon="4.57721">
        <ele>114.2</ele>
        <time>2019-06-01T06:44:16Z</time>
      </trkpt>
      <trkpt lat="44.11602" lon="4.57715">
        <ele>114.6</ele>
        <time>2019-06-01T06:44:18Z</time>
      </trkpt>
      <trkpt lat="44.11602" lon="4.5771">
        <ele>114.9</ele>
        <time>2019-06-01T06:44:20Z</time>
      </trkpt>
      <trkpt lat="44.11603" lon="4.57704">
        <ele>115.3</ele>
        <time>2019-06-01T06:44:22Z</time>
      </trkpt>
      <trkpt lat="44.11604" lon="4.57699">
        <ele>115.7</ele>
        <time>2019-06-01T06:44:24Z</time>
      </trkpt>
      <trkpt lat="44.11605" lon="4.57693">
        <ele>116.1</ele>
        <time>2019-06-01T06:44:26Z</time>
      </trkpt>
      <trkpt lat="44.11607" lon="4.57686">
        <ele>116.5</ele>
        <time>2019-06-01T06:44:28Z</time>
      </trkpt>
      <trkpt lat="44.1161" lon="4.57681">
        <ele>116.9</ele>
        <time>2019-06-01T06:44:30Z</time>
      </trkpt>
      <trkpt lat="44.11613" lon="4.57678">
        <ele>117.1</ele>
        <time>2019-06-01T06:44:32Z</time>
      </trkpt>
      <trkpt lat="44.11616" lon="4.57677">
        <ele>117.3</ele>
        <time>2019-06-01T06:44:35Z</time>
      </trkpt>
      <trkpt lat="44.11618" lon="4.57675">
        <ele>117.5</ele>
        <time>2019-06-01T06:44:38Z</time>
      </trkpt>
      <trkpt lat="44.11621" lon="4.57672">
        <ele>117.5</ele>
        <time>2019-06-01T06:44:40Z</time>
      </trkpt>
      <trkpt lat="44.11624" lon="4.57667">
        <ele>117.5</ele>
        <time>2019-06-01T06:44:42Z</time>
      </trkpt>
      <trkpt lat="44.11627" lon="4.57664">
        <ele>117.6</ele>
        <time>2019-06-01T06:44:45Z</time>
      </trkpt>
      <trkpt lat="44.11631" lon="4.5766">
        <ele>117.6</ele>
        <time>2019-06-01T06:44:47Z</time>
      </trkpt>
      <trkpt lat="44.11634" lon="4.57657">
        <ele>117.6</ele>
        <time>2019-06-01T06:44:48Z</time>
      </trkpt>
      <trkpt lat="44.11636" lon="4.57654">
        <ele>117.6</ele>
        <time>2019-06-01T06:44:49Z</time>
      </trkpt>
      <trkpt lat="44.11639" lon="4.57651">
        <ele>117.8</ele>
        <time>2019-06-01T06:44:50Z</time>
      </trkpt>
      <trkpt lat="44.11642" lon="4.57648">
        <ele>118</ele>
        <time>2019-06-01T06:44:51Z</time>
      </trkpt>
      <trkpt lat="44.11645" lon="4.57644">
        <ele>118.3</ele>
        <time>2019-06-01T06:44:52Z</time>
      </trkpt>
      <trkpt lat="44.11648" lon="4.57639">
        <ele>118.3</ele>
        <time>2019-06-01T06:44:53Z</time>
      </trkpt>
      <trkpt lat="44.1165" lon="4.57634">
        <ele>118.3</ele>
        <time>2019-06-01T06:44:54Z</time>
      </trkpt>
      <trkpt lat="44.11652" lon="4.57627">
        <ele>118.3</ele>
        <time>2019-06-01T06:44:55Z</time>
      </trkpt>
      <trkpt lat="44.11654" lon="4.57621">
        <ele>118.4</ele>
        <time>2019-06-01T06:44:56Z</time>
      </trkpt>
      <trkpt lat="44.11655" lon="4.57616">
        <ele>118.4</ele>
        <time>2019-06-01T06:44:57Z</time>
      </trkpt>
      <trkpt lat="44.11656" lon="4.5761">
        <ele>118.3</ele>
        <time>2019-06-01T06:44:58Z</time>
      </trkpt>
      <trkpt lat="44.11657" lon="4.57605">
        <ele>118.2</ele>
        <time>2019-06-01T06:44:59Z</time>
      </trkpt>
      <trkpt lat="44.11659" lon="4.576">
        <ele>118</ele>
        <time>2019-06-01T06:45:01Z</time>
      </trkpt>
      <trkpt lat="44.11661" lon="4.57597">
        <ele>117.9</ele>
        <time>2019-06-01T06:45:03Z</time>
      </trkpt>
      <trkpt lat="44.11666" lon="4.57593">
        <ele>118.3</ele>
        <time>2019-06-01T06:45:05Z</time>
      </trkpt>
      <trkpt lat="44.11669" lon="4.57591">
        <ele>118.6</ele>
        <time>2019-06-01T06:45:06Z</time>
      </trkpt>
      <trkpt lat="44.11672" lon="4.57589">
        <ele>119</ele>
        <time>2019-06-01T06:45:07Z</time>
      </trkpt>
      <trkpt lat="44.11676" lon="4.57588">
        <ele>119.4</ele>
        <time>2019-06-01T06:45:08Z</time>
      </trkpt>
      <trkpt lat="44.11683" lon="4.57586">
        <ele>119.9</ele>
        <time>2019-06-01T06:45:09Z</time>
      </trkpt>
      <trkpt lat="44.11685" lon="4.5758">
        <ele>120.2</ele>
        <time>2019-06-01T06:45:10Z</time>
      </trkpt>
      <trkpt lat="44.11687" lon="4.57573">
        <ele>120.4</ele>
        <time>2019-06-01T06:45:11Z</time>
      </trkpt>
      <trkpt lat="44.11689" lon="4.57567">
        <ele>120.6</ele>
        <time>2019-06-01T06:45:12Z</time>
      </trkpt>
      <trkpt lat="44.11691" lon="4.5756">
        <ele>120.8</ele>
        <time>2019-06-01T06:45:13Z</time>
      </trkpt>
      <trkpt lat="44.11691" lon="4.57554">
        <ele>121</ele>
        <time>2019-06-01T06:45:14Z</time>
      </trkpt>
      <trkpt lat="44.11693" lon="4.5755">
        <ele>121.1</ele>
        <time>2019-06-01T06:45:16Z</time>
      </trkpt>
      <trkpt lat="44.1169" lon="4.5755">
        <ele>121.1</ele>
        <time>2019-06-01T06:45:18Z</time>
      </trkpt>
      <trkpt lat="44.11688" lon="4.57549">
        <ele>121.1</ele>
        <time>2019-06-01T06:45:19Z</time>
      </trkpt>
      <trkpt lat="44.11681" lon="4.57545">
        <ele>120.2</ele>
        <time>2019-06-01T06:45:20Z</time>
      </trkpt>
      <trkpt lat="44.11677" lon="4.5754">
        <ele>119.3</ele>
        <time>2019-06-01T06:45:21Z</time>
      </trkpt>
      <trkpt lat="44.11671" lon="4.57535">
        <ele>118.3</ele>
        <time>2019-06-01T06:45:22Z</time>
      </trkpt>
      <trkpt lat="44.11666" lon="4.57531">
        <ele>117.8</ele>
        <time>2019-06-01T06:45:23Z</time>
      </trkpt>
      <trkpt lat="44.1166" lon="4.57526">
        <ele>116.8</ele>
        <time>2019-06-01T06:45:24Z</time>
      </trkpt>
      <trkpt lat="44.11654" lon="4.57521">
        <ele>116</ele>
        <time>2019-06-01T06:45:25Z</time>
      </trkpt>
      <trkpt lat="44.11648" lon="4.57515">
        <ele>115.1</ele>
        <time>2019-06-01T06:45:26Z</time>
      </trkpt>
      <trkpt lat="44.11643" lon="4.57511">
        <ele>114.2</ele>
        <time>2019-06-01T06:45:27Z</time>
      </trkpt>
      <trkpt lat="44.11639" lon="4.57506">
        <ele>113.6</ele>
        <time>2019-06-01T06:45:28Z</time>
      </trkpt>
      <trkpt lat="44.11638" lon="4.57499">
        <ele>113.6</ele>
        <time>2019-06-01T06:45:29Z</time>
      </trkpt>
      <trkpt lat="44.11636" lon="4.57492">
        <ele>112.9</ele>
        <time>2019-06-01T06:45:30Z</time>
      </trkpt>
      <trkpt lat="44.11632" lon="4.57484">
        <ele>112.3</ele>
        <time>2019-06-01T06:45:31Z</time>
      </trkpt>
      <trkpt lat="44.11628" lon="4.57475">
        <ele>111.6</ele>
        <time>2019-06-01T06:45:32Z</time>
      </trkpt>
      <trkpt lat="44.11625" lon="4.57466">
        <ele>110.9</ele>
        <time>2019-06-01T06:45:33Z</time>
      </trkpt>
      <trkpt lat="44.11624" lon="4.57459">
        <ele>110.3</ele>
        <time>2019-06-01T06:45:34Z</time>
      </trkpt>
      <trkpt lat="44.11624" lon="4.57454">
        <ele>110.2</ele>
        <time>2019-06-01T06:45:35Z</time>
      </trkpt>
      <trkpt lat="44.1162" lon="4.5745">
        <ele>109.7</ele>
        <time>2019-06-01T06:45:37Z</time>
      </trkpt>
      <trkpt lat="44.11619" lon="4.57445">
        <ele>109.6</ele>
        <time>2019-06-01T06:45:39Z</time>
      </trkpt>
      <trkpt lat="44.11622" lon="4.57444">
        <ele>110.1</ele>
        <time>2019-06-01T06:45:41Z</time>
      </trkpt>
      <trkpt lat="44.11622" lon="4.57449">
        <ele>110.2</ele>
        <time>2019-06-01T06:45:44Z</time>
      </trkpt>
      <trkpt lat="44.11618" lon="4.57452">
        <ele>109.3</ele>
        <time>2019-06-01T06:45:46Z</time>
      </trkpt>
      <trkpt lat="44.11616" lon="4.57457">
        <ele>109.4</ele>
        <time>2019-06-01T06:45:48Z</time>
      </trkpt>
      <trkpt lat="44.11616" lon="4.57463">
        <ele>109.5</ele>
        <time>2019-06-01T06:45:50Z</time>
      </trkpt>
      <trkpt lat="44.11614" lon="4.5747">
        <ele>109.2</ele>
        <time>2019-06-01T06:45:52Z</time>
      </trkpt>
      <trkpt lat="44.11607" lon="4.57474">
        <ele>108.3</ele>
        <time>2019-06-01T06:45:53Z</time>
      </trkpt>
      <trkpt lat="44.11604" lon="4.57475">
        <ele>107.9</ele>
        <time>2019-06-01T06:45:54Z</time>
      </trkpt>
      <trkpt lat="44.11601" lon="4.57473">
        <ele>107.3</ele>
        <time>2019-06-01T06:45:56Z</time>
      </trkpt>
      <trkpt lat="44.11596" lon="4.57473">
        <ele>106.6</ele>
        <time>2019-06-01T06:45:59Z</time>
      </trkpt>
      <trkpt lat="44.11592" lon="4.57477">
        <ele>106.3</ele>
        <time>2019-06-01T06:46:00Z</time>
      </trkpt>
      <trkpt lat="44.11587" lon="4.57477">
        <ele>105.6</ele>
        <time>2019-06-01T06:46:01Z</time>
      </trkpt>
      <trkpt lat="44.11581" lon="4.5748">
        <ele>105</ele>
        <time>2019-06-01T06:46:02Z</time>
      </trkpt>
      <trkpt lat="44.11576" lon="4.57481">
        <ele>104.6</ele>
        <time>2019-06-01T06:46:03Z</time>
      </trkpt>
      <trkpt lat="44.1157" lon="4.57483">
        <ele>104.2</ele>
        <time>2019-06-01T06:46:04Z</time>
      </trkpt>
      <trkpt lat="44.11564" lon="4.57486">
        <ele>103.6</ele>
        <time>2019-06-01T06:46:05Z</time>
      </trkpt>
      <trkpt lat="44.11558" lon="4.57488">
        <ele>103.1</ele>
        <time>2019-06-01T06:46:06Z</time>
      </trkpt>
      <trkpt lat="44.11552" lon="4.57489">
        <ele>102.3</ele>
        <time>2019-06-01T06:46:07Z</time>
      </trkpt>
      <trkpt lat="44.11545" lon="4.57491">
        <ele>101.9</ele>
        <time>2019-06-01T06:46:08Z</time>
      </trkpt>
      <trkpt lat="44.11539" lon="4.57491">
        <ele>101.3</ele>
        <time>2019-06-01T06:46:09Z</time>
      </trkpt>
      <trkpt lat="44.11533" lon="4.57492">
        <ele>100.6</ele>
        <time>2019-06-01T06:46:10Z</time>
      </trkpt>
      <trkpt lat="44.11527" lon="4.57492">
        <ele>100</ele>
        <time>2019-06-01T06:46:11Z</time>
      </trkpt>
      <trkpt lat="44.11521" lon="4.5749">
        <ele>99.2</ele>
        <time>2019-06-01T06:46:12Z</time>
      </trkpt>
      <trkpt lat="44.11514" lon="4.57489">
        <ele>98.6</ele>
        <time>2019-06-01T06:46:13Z</time>
      </trkpt>
      <trkpt lat="44.11508" lon="4.57489">
        <ele>98.1</ele>
        <time>2019-06-01T06:46:14Z</time>
      </trkpt>
      <trkpt lat="44.11502" lon="4.57487">
        <ele>97.5</ele>
        <time>2019-06-01T06:46:15Z</time>
      </trkpt>
      <trkpt lat="44.11496" lon="4.57485">
        <ele>96.8</ele>
        <time>2019-06-01T06:46:16Z</time>
      </trkpt>
      <trkpt lat="44.1149" lon="4.57483">
        <ele>96.2</ele>
        <time>2019-06-01T06:46:17Z</time>
      </trkpt>
      <trkpt lat="44.11484" lon="4.57481">
        <ele>95.7</ele>
        <time>2019-06-01T06:46:18Z</time>
      </trkpt>
      <trkpt lat="44.11478" lon="4.57479">
        <ele>95.3</ele>
        <time>2019-06-01T06:46:19Z</time>
      </trkpt>
      <trkpt lat="44.11473" lon="4.57477">
        <ele>94.8</ele>
        <time>2019-06-01T06:46:20Z</time>
      </trkpt>
      <trkpt lat="44.11468" lon="4.57476">
        <ele>94.6</ele>
        <time>2019-06-01T06:46:21Z</time>
      </trkpt>
      <trkpt lat="44.11462" lon="4.57475">
        <ele>94.2</ele>
        <time>2019-06-01T06:46:22Z</time>
      </trkpt>
      <trkpt lat="44.11457" lon="4.57475">
        <ele>93.9</ele>
        <time>2019-06-01T06:46:23Z</time>
      </trkpt>
      <trkpt lat="44.11452" lon="4.57476">
        <ele>93.6</ele>
        <time>2019-06-01T06:46:24Z</time>
      </trkpt>
      <trkpt lat="44.11447" lon="4.57477">
        <ele>93.4</ele>
        <time>2019-06-01T06:46:25Z</time>
      </trkpt>
      <trkpt lat="44.11441" lon="4.57477">
        <ele>93.1</ele>
        <time>2019-06-01T06:46:26Z</time>
      </trkpt>
      <trkpt lat="44.11435" lon="4.57477">
        <ele>92.9</ele>
        <time>2019-06-01T06:46:27Z</time>
      </trkpt>
      <trkpt lat="44.11428" lon="4.57476">
        <ele>92.7</ele>
        <time>2019-06-01T06:46:28Z</time>
      </trkpt>
      <trkpt lat="44.11421" lon="4.57475">
        <ele>92.3</ele>
        <time>2019-06-01T06:46:29Z</time>
      </trkpt>
      <trkpt lat="44.11414" lon="4.57473">
        <ele>92</ele>
        <time>2019-06-01T06:46:30Z</time>
      </trkpt>
      <trkpt lat="44.11408" lon="4.5747">
        <ele>91.8</ele>
        <time>2019-06-01T06:46:31Z</time>
      </trkpt>
      <trkpt lat="44.11402" lon="4.57466">
        <ele>91.7</ele>
        <time>2019-06-01T06:46:32Z</time>
      </trkpt>
      <trkpt lat="44.11396" lon="4.5746">
        <ele>91.6</ele>
        <time>2019-06-01T06:46:33Z</time>
      </trkpt>
      <trkpt lat="44.11389" lon="4.57454">
        <ele>91.6</ele>
        <time>2019-06-01T06:46:34Z</time>
      </trkpt>
      <trkpt lat="44.11384" lon="4.57447">
        <ele>91.6</ele>
        <time>2019-06-01T06:46:35Z</time>
      </trkpt>
      <trkpt lat="44.11377" lon="4.57441">
        <ele>91.6</ele>
        <time>2019-06-01T06:46:36Z</time>
      </trkpt>
      <trkpt lat="44.11371" lon="4.57437">
        <ele>91.5</ele>
        <time>2019-06-01T06:46:37Z</time>
      </trkpt>
      <trkpt lat="44.11364" lon="4.57433">
        <ele>91.4</ele>
        <time>2019-06-01T06:46:38Z</time>
      </trkpt>
      <trkpt lat="44.11358" lon="4.5743">
        <ele>91.3</ele>
        <time>2019-06-01T06:46:39Z</time>
      </trkpt>
      <trkpt lat="44.11351" lon="4.57431">
        <ele>91</ele>
        <time>2019-06-01T06:46:40Z</time>
      </trkpt>
      <trkpt lat="44.11346" lon="4.57434">
        <ele>90.9</ele>
        <time>2019-06-01T06:46:41Z</time>
      </trkpt>
      <trkpt lat="44.1134" lon="4.57436">
        <ele>90.7</ele>
        <time>2019-06-01T06:46:42Z</time>
      </trkpt>
      <trkpt lat="44.11334" lon="4.57437">
        <ele>90.6</ele>
        <time>2019-06-01T06:46:43Z</time>
      </trkpt>
      <trkpt lat="44.11328" lon="4.5744">
        <ele>90.4</ele>
        <time>2019-06-01T06:46:44Z</time>
      </trkpt>
      <trkpt lat="44.11322" lon="4.57442">
        <ele>90.3</ele>
        <time>2019-06-01T06:46:45Z</time>
      </trkpt>
      <trkpt lat="44.11318" lon="4.57442">
        <ele>90.2</ele>
        <time>2019-06-01T06:46:47Z</time>
      </trkpt>
      <trkpt lat="44.11319" lon="4.57436">
        <ele>90.3</ele>
        <time>2019-06-01T06:46:50Z</time>
      </trkpt>
      <trkpt lat="44.11321" lon="4.57433">
        <ele>90.4</ele>
        <time>2019-06-01T06:46:51Z</time>
      </trkpt>
      <trkpt lat="44.11323" lon="4.5743">
        <ele>90.5</ele>
        <time>2019-06-01T06:46:52Z</time>
      </trkpt>
      <trkpt lat="44.11326" lon="4.57424">
        <ele>90.6</ele>
        <time>2019-06-01T06:46:53Z</time>
      </trkpt>
      <trkpt lat="44.11329" lon="4.57418">
        <ele>90.7</ele>
        <time>2019-06-01T06:46:54Z</time>
      </trkpt>
      <trkpt lat="44.11332" lon="4.57412">
        <ele>90.9</ele>
        <time>2019-06-01T06:46:55Z</time>
      </trkpt>
      <trkpt lat="44.11334" lon="4.57407">
        <ele>91.1</ele>
        <time>2019-06-01T06:46:56Z</time>
      </trkpt>
      <trkpt lat="44.11337" lon="4.57401">
        <ele>91.2</ele>
        <time>2019-06-01T06:46:57Z</time>
      </trkpt>
      <trkpt lat="44.1134" lon="4.57395">
        <ele>91.4</ele>
        <time>2019-06-01T06:46:58Z</time>
      </trkpt>
      <trkpt lat="44.11342" lon="4.5739">
        <ele>91.6</ele>
        <time>2019-06-01T06:46:59Z</time>
      </trkpt>
      <trkpt lat="44.11343" lon="4.57383">
        <ele>91.6</ele>
        <time>2019-06-01T06:47:00Z</time>
      </trkpt>
      <trkpt lat="44.11344" lon="4.57376">
        <ele>91.6</ele>
        <time>2019-06-01T06:47:01Z</time>
      </trkpt>
      <trkpt lat="44.11343" lon="4.5737">
        <ele>91.7</ele>
        <time>2019-06-01T06:47:02Z</time>
      </trkpt>
      <trkpt lat="44.11342" lon="4.57364">
        <ele>91.9</ele>
        <time>2019-06-01T06:47:03Z</time>
      </trkpt>
      <trkpt lat="44.11341" lon="4.57356">
        <ele>92</ele>
        <time>2019-06-01T06:47:04Z</time>
      </trkpt>
      <trkpt lat="44.1134" lon="4.57349">
        <ele>92.1</ele>
        <time>2019-06-01T06:47:05Z</time>
      </trkpt>
      <trkpt lat="44.11339" lon="4.57342">
        <ele>92.2</ele>
        <time>2019-06-01T06:47:06Z</time>
      </trkpt>
      <trkpt lat="44.11339" lon="4.57336">
        <ele>92.3</ele>
        <time>2019-06-01T06:47:07Z</time>
      </trkpt>
      <trkpt lat="44.11338" lon="4.57329">
        <ele>92.5</ele>
        <time>2019-06-01T06:47:08Z</time>
      </trkpt>
      <trkpt lat="44.11337" lon="4.57323">
        <ele>92.6</ele>
        <time>2019-06-01T06:47:09Z</time>
      </trkpt>
      <trkpt lat="44.11337" lon="4.57317">
        <ele>92.8</ele>
        <time>2019-06-01T06:47:10Z</time>
      </trkpt>
      <trkpt lat="44.11335" lon="4.5731">
        <ele>93</ele>
        <time>2019-06-01T06:47:11Z</time>
      </trkpt>
      <trkpt lat="44.11334" lon="4.57304">
        <ele>93.2</ele>
        <time>2019-06-01T06:47:12Z</time>
      </trkpt>
      <trkpt lat="44.11334" lon="4.57298">
        <ele>93.4</ele>
        <time>2019-06-01T06:47:13Z</time>
      </trkpt>
      <trkpt lat="44.11332" lon="4.57293">
        <ele>93.6</ele>
        <time>2019-06-01T06:47:14Z</time>
      </trkpt>
      <trkpt lat="44.11331" lon="4.57286">
        <ele>93.8</ele>
        <time>2019-06-01T06:47:15Z</time>
      </trkpt>
      <trkpt lat="44.11331" lon="4.5728">
        <ele>94</ele>
        <time>2019-06-01T06:47:16Z</time>
      </trkpt>
      <trkpt lat="44.11331" lon="4.57273">
        <ele>94.2</ele>
        <time>2019-06-01T06:47:17Z</time>
      </trkpt>
      <trkpt lat="44.11331" lon="4.57267">
        <ele>94.4</ele>
        <time>2019-06-01T06:47:18Z</time>
      </trkpt>
      <trkpt lat="44.1133" lon="4.57261">
        <ele>94.7</ele>
        <time>2019-06-01T06:47:19Z</time>
      </trkpt>
      <trkpt lat="44.1133" lon="4.57255">
        <ele>94.9</ele>
        <time>2019-06-01T06:47:20Z</time>
      </trkpt>
      <trkpt lat="44.1133" lon="4.57249">
        <ele>95.1</ele>
        <time>2019-06-01T06:47:21Z</time>
      </trkpt>
      <trkpt lat="44.11329" lon="4.57243">
        <ele>95.3</ele>
        <time>2019-06-01T06:47:22Z</time>
      </trkpt>
      <trkpt lat="44.11329" lon="4.57238">
        <ele>95.7</ele>
        <time>2019-06-01T06:47:23Z</time>
      </trkpt>
      <trkpt lat="44.11329" lon="4.57232">
        <ele>96</ele>
        <time>2019-06-01T06:47:24Z</time>
      </trkpt>
      <trkpt lat="44.1133" lon="4.57226">
        <ele>96.5</ele>
        <time>2019-06-01T06:47:25Z</time>
      </trkpt>
      <trkpt lat="44.1133" lon="4.5722">
        <ele>96.9</ele>
        <time>2019-06-01T06:47:26Z</time>
      </trkpt>
      <trkpt lat="44.1133" lon="4.57214">
        <ele>97.3</ele>
        <time>2019-06-01T06:47:27Z</time>
      </trkpt>
      <trkpt lat="44.1133" lon="4.57209">
        <ele>97.7</ele>
        <time>2019-06-01T06:47:28Z</time>
      </trkpt>
      <trkpt lat="44.1133" lon="4.57203">
        <ele>98.3</ele>
        <time>2019-06-01T06:47:29Z</time>
      </trkpt>
      <trkpt lat="44.1133" lon="4.57197">
        <ele>98.8</ele>
        <time>2019-06-01T06:47:30Z</time>
      </trkpt>
      <trkpt lat="44.1133" lon="4.57192">
        <ele>99.4</ele>
        <time>2019-06-01T06:47:31Z</time>
      </trkpt>
      <trkpt lat="44.1133" lon="4.57186">
        <ele>100</ele>
        <time>2019-06-01T06:47:32Z</time>
      </trkpt>
      <trkpt lat="44.1133" lon="4.57181">
        <ele>100.4</ele>
        <time>2019-06-01T06:47:33Z</time>
      </trkpt>
      <trkpt lat="44.1133" lon="4.57175">
        <ele>100.8</ele>
        <time>2019-06-01T06:47:34Z</time>
      </trkpt>
      <trkpt lat="44.1133" lon="4.5717">
        <ele>101.4</ele>
        <time>2019-06-01T06:47:35Z</time>
      </trkpt>
      <trkpt lat="44.1133" lon="4.57165">
        <ele>102</ele>
        <time>2019-06-01T06:47:36Z</time>
      </trkpt>
      <trkpt lat="44.11331" lon="4.5716">
        <ele>102.4</ele>
        <time>2019-06-01T06:47:37Z</time>
      </trkpt>
      <trkpt lat="44.11331" lon="4.57156">
        <ele>102.4</ele>
        <time>2019-06-01T06:47:38Z</time>
      </trkpt>
      <trkpt lat="44.11331" lon="4.57151">
        <ele>102.4</ele>
        <time>2019-06-01T06:47:39Z</time>
      </trkpt>
      <trkpt lat="44.11331" lon="4.57147">
        <ele>102.9</ele>
        <time>2019-06-01T06:47:40Z</time>
      </trkpt>
      <trkpt lat="44.1133" lon="4.57142">
        <ele>103.4</ele>
        <time>2019-06-01T06:47:41Z</time>
      </trkpt>
      <trkpt lat="44.1133" lon="4.57138">
        <ele>103.8</ele>
        <time>2019-06-01T06:47:42Z</time>
      </trkpt>
      <trkpt lat="44.11329" lon="4.57133">
        <ele>104.1</ele>
        <time>2019-06-01T06:47:43Z</time>
      </trkpt>
      <trkpt lat="44.11328" lon="4.57129">
        <ele>104.5</ele>
        <time>2019-06-01T06:47:44Z</time>
      </trkpt>
      <trkpt lat="44.11327" lon="4.57124">
        <ele>104.8</ele>
        <time>2019-06-01T06:47:45Z</time>
      </trkpt>
      <trkpt lat="44.11326" lon="4.57119">
        <ele>105</ele>
        <time>2019-06-01T06:47:46Z</time>
      </trkpt>
      <trkpt lat="44.11325" lon="4.57114">
        <ele>105.3</ele>
        <time>2019-06-01T06:47:47Z</time>
      </trkpt>
      <trkpt lat="44.11323" lon="4.5711">
        <ele>105.7</ele>
        <time>2019-06-01T06:47:48Z</time>
      </trkpt>
      <trkpt lat="44.11321" lon="4.57106">
        <ele>106.1</ele>
        <time>2019-06-01T06:47:49Z</time>
      </trkpt>
      <trkpt lat="44.1132" lon="4.57102">
        <ele>106.4</ele>
        <time>2019-06-01T06:47:50Z</time>
      </trkpt>
      <trkpt lat="44.11319" lon="4.57097">
        <ele>106.7</ele>
        <time>2019-06-01T06:47:51Z</time>
      </trkpt>
      <trkpt lat="44.11318" lon="4.57092">
        <ele>107</ele>
        <time>2019-06-01T06:47:52Z</time>
      </trkpt>
      <trkpt lat="44.11317" lon="4.57087">
        <ele>107.2</ele>
        <time>2019-06-01T06:47:53Z</time>
      </trkpt>
      <trkpt lat="44.11316" lon="4.57082">
        <ele>107.3</ele>
        <time>2019-06-01T06:47:54Z</time>
      </trkpt>
      <trkpt lat="44.11314" lon="4.57078">
        <ele>107.6</ele>
        <time>2019-06-01T06:47:55Z</time>
      </trkpt>
      <trkpt lat="44.11313" lon="4.57073">
        <ele>107.8</ele>
        <time>2019-06-01T06:47:56Z</time>
      </trkpt>
      <trkpt lat="44.11311" lon="4.57069">
        <ele>108.1</ele>
        <time>2019-06-01T06:47:57Z</time>
      </trkpt>
      <trkpt lat="44.1131" lon="4.57064">
        <ele>108.4</ele>
        <time>2019-06-01T06:47:58Z</time>
      </trkpt>
      <trkpt lat="44.11309" lon="4.5706">
        <ele>108.6</ele>
        <time>2019-06-01T06:47:59Z</time>
      </trkpt>
      <trkpt lat="44.11308" lon="4.57056">
        <ele>108.9</ele>
        <time>2019-06-01T06:48:00Z</time>
      </trkpt>
      <trkpt lat="44.11306" lon="4.57052">
        <ele>109.2</ele>
        <time>2019-06-01T06:48:01Z</time>
      </trkpt>
      <trkpt lat="44.11303" lon="4.57049">
        <ele>109.5</ele>
        <time>2019-06-01T06:48:02Z</time>
      </trkpt>
      <trkpt lat="44.11299" lon="4.57048">
        <ele>109.9</ele>
        <time>2019-06-01T06:48:03Z</time>
      </trkpt>
      <trkpt lat="44.11292" lon="4.57054">
        <ele>108.6</ele>
        <time>2019-06-01T06:48:04Z</time>
      </trkpt>
      <trkpt lat="44.11287" lon="4.57056">
        <ele>108.1</ele>
        <time>2019-06-01T06:48:05Z</time>
      </trkpt>
      <trkpt lat="44.11281" lon="4.57058">
        <ele>107.4</ele>
        <time>2019-06-01T06:48:06Z</time>
      </trkpt>
      <trkpt lat="44.11276" lon="4.5706">
        <ele>106.9</ele>
        <time>2019-06-01T06:48:07Z</time>
      </trkpt>
      <trkpt lat="44.1127" lon="4.57062">
        <ele>106.4</ele>
        <time>2019-06-01T06:48:08Z</time>
      </trkpt>
      <trkpt lat="44.11265" lon="4.57065">
        <ele>106</ele>
        <time>2019-06-01T06:48:09Z</time>
      </trkpt>
      <trkpt lat="44.11258" lon="4.57067">
        <ele>105.3</ele>
        <time>2019-06-01T06:48:10Z</time>
      </trkpt>
      <trkpt lat="44.11251" lon="4.5707">
        <ele>104.2</ele>
        <time>2019-06-01T06:48:11Z</time>
      </trkpt>
      <trkpt lat="44.11245" lon="4.57072">
        <ele>103.5</ele>
        <time>2019-06-01T06:48:12Z</time>
      </trkpt>
      <trkpt lat="44.11238" lon="4.57075">
        <ele>102.7</ele>
        <time>2019-06-01T06:48:13Z</time>
      </trkpt>
      <trkpt lat="44.11231" lon="4.57076">
        <ele>102.1</ele>
        <time>2019-06-01T06:48:14Z</time>
      </trkpt>
      <trkpt lat="44.11225" lon="4.57077">
        <ele>101.4</ele>
        <time>2019-06-01T06:48:15Z</time>
      </trkpt>
      <trkpt lat="44.1122" lon="4.57078">
        <ele>100.7</ele>
        <time>2019-06-01T06:48:16Z</time>
      </trkpt>
      <trkpt lat="44.11217" lon="4.5708">
        <ele>100.2</ele>
        <time>2019-06-01T06:48:17Z</time>
      </trkpt>
      <trkpt lat="44.11216" lon="4.57085">
        <ele>100.1</ele>
        <time>2019-06-01T06:48:18Z</time>
      </trkpt>
      <trkpt lat="44.11216" lon="4.5709">
        <ele>99.9</ele>
        <time>2019-06-01T06:48:19Z</time>
      </trkpt>
      <trkpt lat="44.11215" lon="4.57095">
        <ele>99.8</ele>
        <time>2019-06-01T06:48:20Z</time>
      </trkpt>
      <trkpt lat="44.1121" lon="4.57096">
        <ele>99</ele>
        <time>2019-06-01T06:48:21Z</time>
      </trkpt>
      <trkpt lat="44.11206" lon="4.57096">
        <ele>98.8</ele>
        <time>2019-06-01T06:48:22Z</time>
      </trkpt>
      <trkpt lat="44.11201" lon="4.57095">
        <ele>98.4</ele>
        <time>2019-06-01T06:48:23Z</time>
      </trkpt>
      <trkpt lat="44.11196" lon="4.57094">
        <ele>98.2</ele>
        <time>2019-06-01T06:48:24Z</time>
      </trkpt>
      <trkpt lat="44.11192" lon="4.57093">
        <ele>97.8</ele>
        <time>2019-06-01T06:48:25Z</time>
      </trkpt>
      <trkpt lat="44.11187" lon="4.57092">
        <ele>97.4</ele>
        <time>2019-06-01T06:48:26Z</time>
      </trkpt>
      <trkpt lat="44.11181" lon="4.57091">
        <ele>97.3</ele>
        <time>2019-06-01T06:48:27Z</time>
      </trkpt>
      <trkpt lat="44.11177" lon="4.57091">
        <ele>97.2</ele>
        <time>2019-06-01T06:48:28Z</time>
      </trkpt>
      <trkpt lat="44.11171" lon="4.5709">
        <ele>96.9</ele>
        <time>2019-06-01T06:48:29Z</time>
      </trkpt>
      <trkpt lat="44.11166" lon="4.57089">
        <ele>96.7</ele>
        <time>2019-06-01T06:48:30Z</time>
      </trkpt>
      <trkpt lat="44.11162" lon="4.57087">
        <ele>96.4</ele>
        <time>2019-06-01T06:48:31Z</time>
      </trkpt>
      <trkpt lat="44.11156" lon="4.57086">
        <ele>96.4</ele>
        <time>2019-06-01T06:48:32Z</time>
      </trkpt>
      <trkpt lat="44.11151" lon="4.57085">
        <ele>96.1</ele>
        <time>2019-06-01T06:48:33Z</time>
      </trkpt>
      <trkpt lat="44.11146" lon="4.57084">
        <ele>95.9</ele>
        <time>2019-06-01T06:48:34Z</time>
      </trkpt>
      <trkpt lat="44.11141" lon="4.57082">
        <ele>95.7</ele>
        <time>2019-06-01T06:48:35Z</time>
      </trkpt>
      <trkpt lat="44.11135" lon="4.5708">
        <ele>95.6</ele>
        <time>2019-06-01T06:48:36Z</time>
      </trkpt>
      <trkpt lat="44.1113" lon="4.57078">
        <ele>95.5</ele>
        <time>2019-06-01T06:48:37Z</time>
      </trkpt>
      <trkpt lat="44.11125" lon="4.57076">
        <ele>95.3</ele>
        <time>2019-06-01T06:48:38Z</time>
      </trkpt>
      <trkpt lat="44.1112" lon="4.57074">
        <ele>95</ele>
        <time>2019-06-01T06:48:39Z</time>
      </trkpt>
      <trkpt lat="44.11114" lon="4.57072">
        <ele>95</ele>
        <time>2019-06-01T06:48:40Z</time>
      </trkpt>
      <trkpt lat="44.11109" lon="4.5707">
        <ele>94.9</ele>
        <time>2019-06-01T06:48:41Z</time>
      </trkpt>
      <trkpt lat="44.11105" lon="4.57066">
        <ele>94.8</ele>
        <time>2019-06-01T06:48:42Z</time>
      </trkpt>
      <trkpt lat="44.11099" lon="4.57063">
        <ele>94.8</ele>
        <time>2019-06-01T06:48:43Z</time>
      </trkpt>
      <trkpt lat="44.11094" lon="4.5706">
        <ele>94.8</ele>
        <time>2019-06-01T06:48:44Z</time>
      </trkpt>
      <trkpt lat="44.11089" lon="4.57057">
        <ele>94.7</ele>
        <time>2019-06-01T06:48:45Z</time>
      </trkpt>
      <trkpt lat="44.11084" lon="4.57055">
        <ele>94.6</ele>
        <time>2019-06-01T06:48:46Z</time>
      </trkpt>
      <trkpt lat="44.11078" lon="4.57053">
        <ele>94.5</ele>
        <time>2019-06-01T06:48:47Z</time>
      </trkpt>
      <trkpt lat="44.11073" lon="4.57052">
        <ele>94.4</ele>
        <time>2019-06-01T06:48:48Z</time>
      </trkpt>
      <trkpt lat="44.11068" lon="4.57052">
        <ele>94.3</ele>
        <time>2019-06-01T06:48:49Z</time>
      </trkpt>
      <trkpt lat="44.11063" lon="4.57051">
        <ele>94.2</ele>
        <time>2019-06-01T06:48:50Z</time>
      </trkpt>
      <trkpt lat="44.11058" lon="4.57051">
        <ele>94.1</ele>
        <time>2019-06-01T06:48:51Z</time>
      </trkpt>
      <trkpt lat="44.11053" lon="4.57049">
        <ele>94</ele>
        <time>2019-06-01T06:48:52Z</time>
      </trkpt>
      <trkpt lat="44.11048" lon="4.57048">
        <ele>94.2</ele>
        <time>2019-06-01T06:48:53Z</time>
      </trkpt>
      <trkpt lat="44.11043" lon="4.57047">
        <ele>94.1</ele>
        <time>2019-06-01T06:48:54Z</time>
      </trkpt>
      <trkpt lat="44.11038" lon="4.57048">
        <ele>94.1</ele>
        <time>2019-06-01T06:48:55Z</time>
      </trkpt>
      <trkpt lat="44.11032" lon="4.57049">
        <ele>93.9</ele>
        <time>2019-06-01T06:48:56Z</time>
      </trkpt>
      <trkpt lat="44.11028" lon="4.5705">
        <ele>93.9</ele>
        <time>2019-06-01T06:48:57Z</time>
      </trkpt>
      <trkpt lat="44.11023" lon="4.57051">
        <ele>93.9</ele>
        <time>2019-06-01T06:48:58Z</time>
      </trkpt>
      <trkpt lat="44.11017" lon="4.57053">
        <ele>93.9</ele>
        <time>2019-06-01T06:48:59Z</time>
      </trkpt>
      <trkpt lat="44.11012" lon="4.57054">
        <ele>93.8</ele>
        <time>2019-06-01T06:49:00Z</time>
      </trkpt>
      <trkpt lat="44.11006" lon="4.57055">
        <ele>93.8</ele>
        <time>2019-06-01T06:49:01Z</time>
      </trkpt>
      <trkpt lat="44.11" lon="4.57056">
        <ele>94</ele>
        <time>2019-06-01T06:49:02Z</time>
      </trkpt>
      <trkpt lat="44.10995" lon="4.57056">
        <ele>94.2</ele>
        <time>2019-06-01T06:49:03Z</time>
      </trkpt>
      <trkpt lat="44.1099" lon="4.57056">
        <ele>94.3</ele>
        <time>2019-06-01T06:49:04Z</time>
      </trkpt>
      <trkpt lat="44.10985" lon="4.57055">
        <ele>94.5</ele>
        <time>2019-06-01T06:49:05Z</time>
      </trkpt>
      <trkpt lat="44.1098" lon="4.57053">
        <ele>94.9</ele>
        <time>2019-06-01T06:49:06Z</time>
      </trkpt>
      <trkpt lat="44.10975" lon="4.57052">
        <ele>95.1</ele>
        <time>2019-06-01T06:49:07Z</time>
      </trkpt>
      <trkpt lat="44.1097" lon="4.57051">
        <ele>95.5</ele>
        <time>2019-06-01T06:49:08Z</time>
      </trkpt>
      <trkpt lat="44.10966" lon="4.57051">
        <ele>95.6</ele>
        <time>2019-06-01T06:49:09Z</time>
      </trkpt>
      <trkpt lat="44.10961" lon="4.5705">
        <ele>95.9</ele>
        <time>2019-06-01T06:49:10Z</time>
      </trkpt>
      <trkpt lat="44.10958" lon="4.57048">
        <ele>96.1</ele>
        <time>2019-06-01T06:49:11Z</time>
      </trkpt>
      <trkpt lat="44.10955" lon="4.57045">
        <ele>96.2</ele>
        <time>2019-06-01T06:49:12Z</time>
      </trkpt>
      <trkpt lat="44.10952" lon="4.57041">
        <ele>96.3</ele>
        <time>2019-06-01T06:49:13Z</time>
      </trkpt>
      <trkpt lat="44.10949" lon="4.57038">
        <ele>96.5</ele>
        <time>2019-06-01T06:49:14Z</time>
      </trkpt>
      <trkpt lat="44.10945" lon="4.57036">
        <ele>96.7</ele>
        <time>2019-06-01T06:49:15Z</time>
      </trkpt>
      <trkpt lat="44.10942" lon="4.57034">
        <ele>96.8</ele>
        <time>2019-06-01T06:49:16Z</time>
      </trkpt>
      <trkpt lat="44.10938" lon="4.57033">
        <ele>97</ele>
        <time>2019-06-01T06:49:17Z</time>
      </trkpt>
      <trkpt lat="44.10936" lon="4.5703">
        <ele>97.2</ele>
        <time>2019-06-01T06:49:18Z</time>
      </trkpt>
      <trkpt lat="44.10932" lon="4.57027">
        <ele>97.4</ele>
        <time>2019-06-01T06:49:19Z</time>
      </trkpt>
      <trkpt lat="44.10928" lon="4.57025">
        <ele>97.6</ele>
        <time>2019-06-01T06:49:20Z</time>
      </trkpt>
      <trkpt lat="44.10925" lon="4.57023">
        <ele>97.9</ele>
        <time>2019-06-01T06:49:21Z</time>
      </trkpt>
      <trkpt lat="44.10921" lon="4.5702">
        <ele>98.1</ele>
        <time>2019-06-01T06:49:22Z</time>
      </trkpt>
      <trkpt lat="44.10918" lon="4.57017">
        <ele>98.2</ele>
        <time>2019-06-01T06:49:23Z</time>
      </trkpt>
      <trkpt lat="44.10914" lon="4.57014">
        <ele>98.4</ele>
        <time>2019-06-01T06:49:24Z</time>
      </trkpt>
      <trkpt lat="44.1091" lon="4.57009">
        <ele>98.5</ele>
        <time>2019-06-01T06:49:25Z</time>
      </trkpt>
      <trkpt lat="44.10906" lon="4.57008">
        <ele>98.7</ele>
        <time>2019-06-01T06:49:26Z</time>
      </trkpt>
      <trkpt lat="44.10901" lon="4.57007">
        <ele>98.7</ele>
        <time>2019-06-01T06:49:27Z</time>
      </trkpt>
      <trkpt lat="44.10896" lon="4.57006">
        <ele>98.8</ele>
        <time>2019-06-01T06:49:28Z</time>
      </trkpt>
      <trkpt lat="44.10892" lon="4.57007">
        <ele>98.8</ele>
        <time>2019-06-01T06:49:29Z</time>
      </trkpt>
      <trkpt lat="44.10887" lon="4.57009">
        <ele>98.8</ele>
        <time>2019-06-01T06:49:30Z</time>
      </trkpt>
      <trkpt lat="44.10883" lon="4.5701">
        <ele>98.8</ele>
        <time>2019-06-01T06:49:31Z</time>
      </trkpt>
      <trkpt lat="44.1088" lon="4.57013">
        <ele>98.8</ele>
        <time>2019-06-01T06:49:32Z</time>
      </trkpt>
      <trkpt lat="44.10876" lon="4.57013">
        <ele>98.8</ele>
        <time>2019-06-01T06:49:33Z</time>
      </trkpt>
      <trkpt lat="44.10871" lon="4.57018">
        <ele>98.8</ele>
        <time>2019-06-01T06:49:34Z</time>
      </trkpt>
      <trkpt lat="44.10869" lon="4.57023">
        <ele>98.8</ele>
        <time>2019-06-01T06:49:35Z</time>
      </trkpt>
      <trkpt lat="44.10864" lon="4.57024">
        <ele>98.7</ele>
        <time>2019-06-01T06:49:36Z</time>
      </trkpt>
      <trkpt lat="44.10861" lon="4.57027">
        <ele>98.7</ele>
        <time>2019-06-01T06:49:37Z</time>
      </trkpt>
      <trkpt lat="44.10857" lon="4.57028">
        <ele>98.5</ele>
        <time>2019-06-01T06:49:38Z</time>
      </trkpt>
      <trkpt lat="44.10854" lon="4.57028">
        <ele>98.4</ele>
        <time>2019-06-01T06:49:39Z</time>
      </trkpt>
      <trkpt lat="44.10852" lon="4.57025">
        <ele>98.4</ele>
        <time>2019-06-01T06:49:40Z</time>
      </trkpt>
      <trkpt lat="44.10851" lon="4.57021">
        <ele>98.3</ele>
        <time>2019-06-01T06:49:41Z</time>
      </trkpt>
      <trkpt lat="44.10852" lon="4.57015">
        <ele>98.3</ele>
        <time>2019-06-01T06:49:42Z</time>
      </trkpt>
      <trkpt lat="44.10852" lon="4.5701">
        <ele>98.4</ele>
        <time>2019-06-01T06:49:43Z</time>
      </trkpt>
      <trkpt lat="44.10852" lon="4.57004">
        <ele>98.4</ele>
        <time>2019-06-01T06:49:44Z</time>
      </trkpt>
      <trkpt lat="44.10852" lon="4.56998">
        <ele>98.4</ele>
        <time>2019-06-01T06:49:45Z</time>
      </trkpt>
      <trkpt lat="44.10851" lon="4.56993">
        <ele>98.3</ele>
        <time>2019-06-01T06:49:46Z</time>
      </trkpt>
      <trkpt lat="44.1085" lon="4.56987">
        <ele>98.3</ele>
        <time>2019-06-01T06:49:47Z</time>
      </trkpt>
      <trkpt lat="44.10849" lon="4.56981">
        <ele>98.3</ele>
        <time>2019-06-01T06:49:48Z</time>
      </trkpt>
      <trkpt lat="44.10848" lon="4.56976">
        <ele>98.3</ele>
        <time>2019-06-01T06:49:49Z</time>
      </trkpt>
      <trkpt lat="44.10848" lon="4.5697">
        <ele>98.2</ele>
        <time>2019-06-01T06:49:50Z</time>
      </trkpt>
      <trkpt lat="44.10848" lon="4.56964">
        <ele>98.2</ele>
        <time>2019-06-01T06:49:51Z</time>
      </trkpt>
      <trkpt lat="44.1085" lon="4.56958">
        <ele>98.2</ele>
        <time>2019-06-01T06:49:52Z</time>
      </trkpt>
      <trkpt lat="44.10851" lon="4.56952">
        <ele>98.2</ele>
        <time>2019-06-01T06:49:53Z</time>
      </trkpt>
      <trkpt lat="44.10851" lon="4.56947">
        <ele>98.3</ele>
        <time>2019-06-01T06:49:54Z</time>
      </trkpt>
      <trkpt lat="44.10851" lon="4.56941">
        <ele>98.3</ele>
        <time>2019-06-01T06:49:55Z</time>
      </trkpt>
      <trkpt lat="44.10852" lon="4.56935">
        <ele>98.3</ele>
        <time>2019-06-01T06:49:56Z</time>
      </trkpt>
      <trkpt lat="44.10853" lon="4.56929">
        <ele>98.5</ele>
        <time>2019-06-01T06:49:57Z</time>
      </trkpt>
      <trkpt lat="44.10853" lon="4.56922">
        <ele>98.6</ele>
        <time>2019-06-01T06:49:58Z</time>
      </trkpt>
      <trkpt lat="44.10854" lon="4.56917">
        <ele>98.7</ele>
        <time>2019-06-01T06:49:59Z</time>
      </trkpt>
      <trkpt lat="44.10854" lon="4.5691">
        <ele>98.9</ele>
        <time>2019-06-01T06:50:00Z</time>
      </trkpt>
      <trkpt lat="44.10855" lon="4.56904">
        <ele>99.1</ele>
        <time>2019-06-01T06:50:01Z</time>
      </trkpt>
      <trkpt lat="44.10856" lon="4.56899">
        <ele>99.2</ele>
        <time>2019-06-01T06:50:02Z</time>
      </trkpt>
      <trkpt lat="44.10857" lon="4.56893">
        <ele>99.5</ele>
        <time>2019-06-01T06:50:03Z</time>
      </trkpt>
      <trkpt lat="44.10858" lon="4.56887">
        <ele>99.7</ele>
        <time>2019-06-01T06:50:04Z</time>
      </trkpt>
      <trkpt lat="44.10859" lon="4.56881">
        <ele>99.9</ele>
        <time>2019-06-01T06:50:05Z</time>
      </trkpt>
      <trkpt lat="44.10861" lon="4.56876">
        <ele>100.1</ele>
        <time>2019-06-01T06:50:06Z</time>
      </trkpt>
      <trkpt lat="44.10863" lon="4.5687">
        <ele>100.3</ele>
        <time>2019-06-01T06:50:07Z</time>
      </trkpt>
      <trkpt lat="44.10865" lon="4.56864">
        <ele>100.6</ele>
        <time>2019-06-01T06:50:08Z</time>
      </trkpt>
      <trkpt lat="44.10866" lon="4.56859">
        <ele>100.9</ele>
        <time>2019-06-01T06:50:09Z</time>
      </trkpt>
      <trkpt lat="44.10867" lon="4.56853">
        <ele>101.2</ele>
        <time>2019-06-01T06:50:10Z</time>
      </trkpt>
      <trkpt lat="44.10868" lon="4.56848">
        <ele>101.6</ele>
        <time>2019-06-01T06:50:11Z</time>
      </trkpt>
      <trkpt lat="44.1087" lon="4.56842">
        <ele>101.8</ele>
        <time>2019-06-01T06:50:12Z</time>
      </trkpt>
      <trkpt lat="44.10871" lon="4.56836">
        <ele>102</ele>
        <time>2019-06-01T06:50:13Z</time>
      </trkpt>
      <trkpt lat="44.10873" lon="4.56831">
        <ele>102.4</ele>
        <time>2019-06-01T06:50:14Z</time>
      </trkpt>
      <trkpt lat="44.10875" lon="4.56826">
        <ele>102.8</ele>
        <time>2019-06-01T06:50:15Z</time>
      </trkpt>
      <trkpt lat="44.10877" lon="4.56821">
        <ele>103.1</ele>
        <time>2019-06-01T06:50:16Z</time>
      </trkpt>
      <trkpt lat="44.10878" lon="4.56816">
        <ele>103.3</ele>
        <time>2019-06-01T06:50:17Z</time>
      </trkpt>
      <trkpt lat="44.10879" lon="4.56811">
        <ele>103.7</ele>
        <time>2019-06-01T06:50:18Z</time>
      </trkpt>
      <trkpt lat="44.1088" lon="4.56806">
        <ele>104.2</ele>
        <time>2019-06-01T06:50:19Z</time>
      </trkpt>
      <trkpt lat="44.10881" lon="4.56801">
        <ele>104.6</ele>
        <time>2019-06-01T06:50:20Z</time>
      </trkpt>
      <trkpt lat="44.10881" lon="4.56796">
        <ele>105</ele>
        <time>2019-06-01T06:50:21Z</time>
      </trkpt>
      <trkpt lat="44.10882" lon="4.56792">
        <ele>105.4</ele>
        <time>2019-06-01T06:50:22Z</time>
      </trkpt>
      <trkpt lat="44.10882" lon="4.56787">
        <ele>105.7</ele>
        <time>2019-06-01T06:50:23Z</time>
      </trkpt>
      <trkpt lat="44.10883" lon="4.56782">
        <ele>106</ele>
        <time>2019-06-01T06:50:24Z</time>
      </trkpt>
      <trkpt lat="44.10884" lon="4.56778">
        <ele>106.4</ele>
        <time>2019-06-01T06:50:25Z</time>
      </trkpt>
      <trkpt lat="44.10886" lon="4.56773">
        <ele>106.9</ele>
        <time>2019-06-01T06:50:26Z</time>
      </trkpt>
      <trkpt lat="44.10887" lon="4.56768">
        <ele>107.4</ele>
        <time>2019-06-01T06:50:27Z</time>
      </trkpt>
      <trkpt lat="44.10888" lon="4.56764">
        <ele>107.9</ele>
        <time>2019-06-01T06:50:28Z</time>
      </trkpt>
      <trkpt lat="44.10889" lon="4.5676">
        <ele>108.4</ele>
        <time>2019-06-01T06:50:29Z</time>
      </trkpt>
      <trkpt lat="44.1089" lon="4.56755">
        <ele>108.7</ele>
        <time>2019-06-01T06:50:30Z</time>
      </trkpt>
      <trkpt lat="44.10892" lon="4.56751">
        <ele>108.8</ele>
        <time>2019-06-01T06:50:31Z</time>
      </trkpt>
      <trkpt lat="44.10894" lon="4.56748">
        <ele>108.9</ele>
        <time>2019-06-01T06:50:32Z</time>
      </trkpt>
      <trkpt lat="44.10896" lon="4.56744">
        <ele>108.7</ele>
        <time>2019-06-01T06:50:33Z</time>
      </trkpt>
      <trkpt lat="44.10898" lon="4.56741">
        <ele>108.5</ele>
        <time>2019-06-01T06:50:34Z</time>
      </trkpt>
      <trkpt lat="44.10901" lon="4.56737">
        <ele>108.4</ele>
        <time>2019-06-01T06:50:35Z</time>
      </trkpt>
      <trkpt lat="44.10904" lon="4.56735">
        <ele>108.3</ele>
        <time>2019-06-01T06:50:36Z</time>
      </trkpt>
      <trkpt lat="44.10907" lon="4.56732">
        <ele>108.2</ele>
        <time>2019-06-01T06:50:37Z</time>
      </trkpt>
      <trkpt lat="44.1091" lon="4.5673">
        <ele>108</ele>
        <time>2019-06-01T06:50:38Z</time>
      </trkpt>
      <trkpt lat="44.10914" lon="4.56728">
        <ele>107.7</ele>
        <time>2019-06-01T06:50:39Z</time>
      </trkpt>
      <trkpt lat="44.10917" lon="4.56725">
        <ele>107.7</ele>
        <time>2019-06-01T06:50:40Z</time>
      </trkpt>
      <trkpt lat="44.1092" lon="4.56722">
        <ele>107.7</ele>
        <time>2019-06-01T06:50:41Z</time>
      </trkpt>
      <trkpt lat="44.10923" lon="4.56719">
        <ele>107.7</ele>
        <time>2019-06-01T06:50:42Z</time>
      </trkpt>
      <trkpt lat="44.10926" lon="4.56716">
        <ele>107.7</ele>
        <time>2019-06-01T06:50:43Z</time>
      </trkpt>
      <trkpt lat="44.10928" lon="4.56712">
        <ele>107.7</ele>
        <time>2019-06-01T06:50:44Z</time>
      </trkpt>
      <trkpt lat="44.1093" lon="4.56708">
        <ele>107.6</ele>
        <time>2019-06-01T06:50:45Z</time>
      </trkpt>
      <trkpt lat="44.10932" lon="4.56705">
        <ele>107.6</ele>
        <time>2019-06-01T06:50:46Z</time>
      </trkpt>
      <trkpt lat="44.10934" lon="4.56701">
        <ele>107.6</ele>
        <time>2019-06-01T06:50:47Z</time>
      </trkpt>
      <trkpt lat="44.10935" lon="4.56697">
        <ele>107.6</ele>
        <time>2019-06-01T06:50:48Z</time>
      </trkpt>
      <trkpt lat="44.10937" lon="4.56693">
        <ele>107.6</ele>
        <time>2019-06-01T06:50:49Z</time>
      </trkpt>
      <trkpt lat="44.10938" lon="4.56688">
        <ele>107.6</ele>
        <time>2019-06-01T06:50:50Z</time>
      </trkpt>
      <trkpt lat="44.10939" lon="4.56684">
        <ele>107.6</ele>
        <time>2019-06-01T06:50:51Z</time>
      </trkpt>
      <trkpt lat="44.1094" lon="4.5668">
        <ele>107.6</ele>
        <time>2019-06-01T06:50:52Z</time>
      </trkpt>
      <trkpt lat="44.10941" lon="4.56675">
        <ele>107.7</ele>
        <time>2019-06-01T06:50:53Z</time>
      </trkpt>
      <trkpt lat="44.10942" lon="4.56671">
        <ele>107.8</ele>
        <time>2019-06-01T06:50:54Z</time>
      </trkpt>
      <trkpt lat="44.10943" lon="4.56666">
        <ele>107.9</ele>
        <time>2019-06-01T06:50:55Z</time>
      </trkpt>
      <trkpt lat="44.10944" lon="4.56662">
        <ele>108</ele>
        <time>2019-06-01T06:50:56Z</time>
      </trkpt>
      <trkpt lat="44.10944" lon="4.56658">
        <ele>108.1</ele>
        <time>2019-06-01T06:50:57Z</time>
      </trkpt>
      <trkpt lat="44.10945" lon="4.56653">
        <ele>108.2</ele>
        <time>2019-06-01T06:50:58Z</time>
      </trkpt>
      <trkpt lat="44.10946" lon="4.56649">
        <ele>108.3</ele>
        <time>2019-06-01T06:50:59Z</time>
      </trkpt>
      <trkpt lat="44.10947" lon="4.56645">
        <ele>108.4</ele>
        <time>2019-06-01T06:51:00Z</time>
      </trkpt>
      <trkpt lat="44.10948" lon="4.56641">
        <ele>108.6</ele>
        <time>2019-06-01T06:51:01Z</time>
      </trkpt>
      <trkpt lat="44.10949" lon="4.56636">
        <ele>108.7</ele>
        <time>2019-06-01T06:51:02Z</time>
      </trkpt>
      <trkpt lat="44.10949" lon="4.56632">
        <ele>108.9</ele>
        <time>2019-06-01T06:51:03Z</time>
      </trkpt>
      <trkpt lat="44.1095" lon="4.56627">
        <ele>109.1</ele>
        <time>2019-06-01T06:51:04Z</time>
      </trkpt>
      <trkpt lat="44.10951" lon="4.56623">
        <ele>109.2</ele>
        <time>2019-06-01T06:51:05Z</time>
      </trkpt>
      <trkpt lat="44.10951" lon="4.56619">
        <ele>109.3</ele>
        <time>2019-06-01T06:51:06Z</time>
      </trkpt>
      <trkpt lat="44.10952" lon="4.56615">
        <ele>109.5</ele>
        <time>2019-06-01T06:51:07Z</time>
      </trkpt>
      <trkpt lat="44.10953" lon="4.56612">
        <ele>109.7</ele>
        <time>2019-06-01T06:51:08Z</time>
      </trkpt>
      <trkpt lat="44.10956" lon="4.56605">
        <ele>110</ele>
        <time>2019-06-01T06:51:10Z</time>
      </trkpt>
      <trkpt lat="44.10957" lon="4.56601">
        <ele>110.2</ele>
        <time>2019-06-01T06:51:11Z</time>
      </trkpt>
      <trkpt lat="44.10958" lon="4.56598">
        <ele>110.4</ele>
        <time>2019-06-01T06:51:12Z</time>
      </trkpt>
      <trkpt lat="44.10959" lon="4.56594">
        <ele>110.5</ele>
        <time>2019-06-01T06:51:13Z</time>
      </trkpt>
      <trkpt lat="44.1096" lon="4.56589">
        <ele>110.8</ele>
        <time>2019-06-01T06:51:14Z</time>
      </trkpt>
      <trkpt lat="44.10961" lon="4.56585">
        <ele>111</ele>
        <time>2019-06-01T06:51:15Z</time>
      </trkpt>
      <trkpt lat="44.10962" lon="4.56581">
        <ele>111.3</ele>
        <time>2019-06-01T06:51:16Z</time>
      </trkpt>
      <trkpt lat="44.10963" lon="4.56577">
        <ele>111.5</ele>
        <time>2019-06-01T06:51:17Z</time>
      </trkpt>
      <trkpt lat="44.10964" lon="4.56573">
        <ele>111.7</ele>
        <time>2019-06-01T06:51:18Z</time>
      </trkpt>
      <trkpt lat="44.10966" lon="4.56569">
        <ele>111.8</ele>
        <time>2019-06-01T06:51:19Z</time>
      </trkpt>
      <trkpt lat="44.10967" lon="4.56565">
        <ele>111.9</ele>
        <time>2019-06-01T06:51:20Z</time>
      </trkpt>
      <trkpt lat="44.10969" lon="4.56561">
        <ele>112</ele>
        <time>2019-06-01T06:51:21Z</time>
      </trkpt>
      <trkpt lat="44.1097" lon="4.56558">
        <ele>112.1</ele>
        <time>2019-06-01T06:51:22Z</time>
      </trkpt>
      <trkpt lat="44.10971" lon="4.56554">
        <ele>112.3</ele>
        <time>2019-06-01T06:51:23Z</time>
      </trkpt>
      <trkpt lat="44.10972" lon="4.5655">
        <ele>112.4</ele>
        <time>2019-06-01T06:51:24Z</time>
      </trkpt>
      <trkpt lat="44.10974" lon="4.56543">
        <ele>112.7</ele>
        <time>2019-06-01T06:51:26Z</time>
      </trkpt>
      <trkpt lat="44.10974" lon="4.56539">
        <ele>112.8</ele>
        <time>2019-06-01T06:51:27Z</time>
      </trkpt>
      <trkpt lat="44.10975" lon="4.56536">
        <ele>112.9</ele>
        <time>2019-06-01T06:51:28Z</time>
      </trkpt>
      <trkpt lat="44.10976" lon="4.56532">
        <ele>113</ele>
        <time>2019-06-01T06:51:29Z</time>
      </trkpt>
      <trkpt lat="44.10978" lon="4.56528">
        <ele>113.1</ele>
        <time>2019-06-01T06:51:30Z</time>
      </trkpt>
      <trkpt lat="44.10979" lon="4.56524">
        <ele>113.2</ele>
        <time>2019-06-01T06:51:31Z</time>
      </trkpt>
      <trkpt lat="44.1098" lon="4.5652">
        <ele>113.3</ele>
        <time>2019-06-01T06:51:32Z</time>
      </trkpt>
      <trkpt lat="44.10981" lon="4.56516">
        <ele>113.4</ele>
        <time>2019-06-01T06:51:33Z</time>
      </trkpt>
      <trkpt lat="44.10982" lon="4.5651">
        <ele>113.7</ele>
        <time>2019-06-01T06:51:35Z</time>
      </trkpt>
      <trkpt lat="44.10982" lon="4.56505">
        <ele>113.8</ele>
        <time>2019-06-01T06:51:37Z</time>
      </trkpt>
      <trkpt lat="44.10983" lon="4.56501">
        <ele>114</ele>
        <time>2019-06-01T06:51:39Z</time>
      </trkpt>
      <trkpt lat="44.10984" lon="4.56496">
        <ele>114.3</ele>
        <time>2019-06-01T06:51:42Z</time>
      </trkpt>
      <trkpt lat="44.10984" lon="4.56491">
        <ele>114.5</ele>
        <time>2019-06-01T06:51:45Z</time>
      </trkpt>
      <trkpt lat="44.10984" lon="4.56486">
        <ele>114.7</ele>
        <time>2019-06-01T06:51:48Z</time>
      </trkpt>
      <trkpt lat="44.10985" lon="4.5648">
        <ele>114.9</ele>
        <time>2019-06-01T06:51:52Z</time>
      </trkpt>
      <trkpt lat="44.10986" lon="4.56474">
        <ele>115.1</ele>
        <time>2019-06-01T06:51:54Z</time>
      </trkpt>
      <trkpt lat="44.10987" lon="4.56467">
        <ele>115.5</ele>
        <time>2019-06-01T06:51:56Z</time>
      </trkpt>
      <trkpt lat="44.10987" lon="4.56463">
        <ele>115.5</ele>
        <time>2019-06-01T06:51:57Z</time>
      </trkpt>
      <trkpt lat="44.10988" lon="4.56455">
        <ele>115.5</ele>
        <time>2019-06-01T06:51:59Z</time>
      </trkpt>
      <trkpt lat="44.10989" lon="4.56451">
        <ele>115.8</ele>
        <time>2019-06-01T06:52:00Z</time>
      </trkpt>
      <trkpt lat="44.1099" lon="4.56447">
        <ele>116</ele>
        <time>2019-06-01T06:52:01Z</time>
      </trkpt>
      <trkpt lat="44.10992" lon="4.56444">
        <ele>116.3</ele>
        <time>2019-06-01T06:52:02Z</time>
      </trkpt>
      <trkpt lat="44.10994" lon="4.56437">
        <ele>116.6</ele>
        <time>2019-06-01T06:52:04Z</time>
      </trkpt>
      <trkpt lat="44.10995" lon="4.56433">
        <ele>116.8</ele>
        <time>2019-06-01T06:52:05Z</time>
      </trkpt>
      <trkpt lat="44.10995" lon="4.56429">
        <ele>117</ele>
        <time>2019-06-01T06:52:06Z</time>
      </trkpt>
      <trkpt lat="44.10996" lon="4.56425">
        <ele>117.3</ele>
        <time>2019-06-01T06:52:07Z</time>
      </trkpt>
      <trkpt lat="44.10997" lon="4.56421">
        <ele>117.6</ele>
        <time>2019-06-01T06:52:08Z</time>
      </trkpt>
      <trkpt lat="44.10998" lon="4.56417">
        <ele>117.8</ele>
        <time>2019-06-01T06:52:09Z</time>
      </trkpt>
      <trkpt lat="44.10999" lon="4.5641">
        <ele>118.2</ele>
        <time>2019-06-01T06:52:11Z</time>
      </trkpt>
      <trkpt lat="44.11" lon="4.56406">
        <ele>118.4</ele>
        <time>2019-06-01T06:52:12Z</time>
      </trkpt>
      <trkpt lat="44.11" lon="4.56402">
        <ele>118.7</ele>
        <time>2019-06-01T06:52:13Z</time>
      </trkpt>
      <trkpt lat="44.11001" lon="4.56398">
        <ele>118.9</ele>
        <time>2019-06-01T06:52:14Z</time>
      </trkpt>
      <trkpt lat="44.11002" lon="4.56394">
        <ele>119.2</ele>
        <time>2019-06-01T06:52:15Z</time>
      </trkpt>
      <trkpt lat="44.11002" lon="4.5639">
        <ele>119.5</ele>
        <time>2019-06-01T06:52:16Z</time>
      </trkpt>
      <trkpt lat="44.11003" lon="4.56386">
        <ele>119.7</ele>
        <time>2019-06-01T06:52:17Z</time>
      </trkpt>
      <trkpt lat="44.11004" lon="4.56382">
        <ele>119.9</ele>
        <time>2019-06-01T06:52:18Z</time>
      </trkpt>
      <trkpt lat="44.11004" lon="4.56378">
        <ele>120.1</ele>
        <time>2019-06-01T06:52:19Z</time>
      </trkpt>
      <trkpt lat="44.11005" lon="4.56374">
        <ele>120.2</ele>
        <time>2019-06-01T06:52:20Z</time>
      </trkpt>
      <trkpt lat="44.11005" lon="4.5637">
        <ele>120.3</ele>
        <time>2019-06-01T06:52:21Z</time>
      </trkpt>
      <trkpt lat="44.11005" lon="4.56366">
        <ele>120.5</ele>
        <time>2019-06-01T06:52:22Z</time>
      </trkpt>
      <trkpt lat="44.11006" lon="4.56362">
        <ele>120.7</ele>
        <time>2019-06-01T06:52:23Z</time>
      </trkpt>
      <trkpt lat="44.11007" lon="4.56358">
        <ele>120.8</ele>
        <time>2019-06-01T06:52:24Z</time>
      </trkpt>
      <trkpt lat="44.11008" lon="4.56353">
        <ele>121</ele>
        <time>2019-06-01T06:52:25Z</time>
      </trkpt>
      <trkpt lat="44.11009" lon="4.56348">
        <ele>121.2</ele>
        <time>2019-06-01T06:52:26Z</time>
      </trkpt>
      <trkpt lat="44.1101" lon="4.56344">
        <ele>121.3</ele>
        <time>2019-06-01T06:52:27Z</time>
      </trkpt>
      <trkpt lat="44.11011" lon="4.5634">
        <ele>121.4</ele>
        <time>2019-06-01T06:52:28Z</time>
      </trkpt>
      <trkpt lat="44.11011" lon="4.56336">
        <ele>121.5</ele>
        <time>2019-06-01T06:52:29Z</time>
      </trkpt>
      <trkpt lat="44.11012" lon="4.56332">
        <ele>121.6</ele>
        <time>2019-06-01T06:52:30Z</time>
      </trkpt>
      <trkpt lat="44.11013" lon="4.56328">
        <ele>121.8</ele>
        <time>2019-06-01T06:52:31Z</time>
      </trkpt>
      <trkpt lat="44.11014" lon="4.56324">
        <ele>121.9</ele>
        <time>2019-06-01T06:52:32Z</time>
      </trkpt>
      <trkpt lat="44.11014" lon="4.5632">
        <ele>122.1</ele>
        <time>2019-06-01T06:52:33Z</time>
      </trkpt>
      <trkpt lat="44.11015" lon="4.56316">
        <ele>122.2</ele>
        <time>2019-06-01T06:52:34Z</time>
      </trkpt>
      <trkpt lat="44.11016" lon="4.56308">
        <ele>122.5</ele>
        <time>2019-06-01T06:52:36Z</time>
      </trkpt>
      <trkpt lat="44.11017" lon="4.56302">
        <ele>122.7</ele>
        <time>2019-06-01T06:52:38Z</time>
      </trkpt>
      <trkpt lat="44.11018" lon="4.56294">
        <ele>122.9</ele>
        <time>2019-06-01T06:52:40Z</time>
      </trkpt>
      <trkpt lat="44.11019" lon="4.5629">
        <ele>123</ele>
        <time>2019-06-01T06:52:41Z</time>
      </trkpt>
      <trkpt lat="44.11019" lon="4.56286">
        <ele>123.2</ele>
        <time>2019-06-01T06:52:42Z</time>
      </trkpt>
      <trkpt lat="44.1102" lon="4.56278">
        <ele>123.4</ele>
        <time>2019-06-01T06:52:44Z</time>
      </trkpt>
      <trkpt lat="44.1102" lon="4.56274">
        <ele>123.6</ele>
        <time>2019-06-01T06:52:45Z</time>
      </trkpt>
      <trkpt lat="44.11019" lon="4.5627">
        <ele>123.6</ele>
        <time>2019-06-01T06:52:46Z</time>
      </trkpt>
      <trkpt lat="44.11018" lon="4.56266">
        <ele>123.7</ele>
        <time>2019-06-01T06:52:47Z</time>
      </trkpt>
      <trkpt lat="44.11018" lon="4.56262">
        <ele>123.7</ele>
        <time>2019-06-01T06:52:48Z</time>
      </trkpt>
      <trkpt lat="44.11017" lon="4.56258">
        <ele>123.8</ele>
        <time>2019-06-01T06:52:49Z</time>
      </trkpt>
      <trkpt lat="44.11016" lon="4.56254">
        <ele>123.8</ele>
        <time>2019-06-01T06:52:50Z</time>
      </trkpt>
      <trkpt lat="44.11016" lon="4.5625">
        <ele>123.9</ele>
        <time>2019-06-01T06:52:51Z</time>
      </trkpt>
      <trkpt lat="44.11016" lon="4.56243">
        <ele>124</ele>
        <time>2019-06-01T06:52:53Z</time>
      </trkpt>
      <trkpt lat="44.11015" lon="4.56239">
        <ele>124</ele>
        <time>2019-06-01T06:52:54Z</time>
      </trkpt>
      <trkpt lat="44.11014" lon="4.56232">
        <ele>124.2</ele>
        <time>2019-06-01T06:52:56Z</time>
      </trkpt>
      <trkpt lat="44.11014" lon="4.56228">
        <ele>124.3</ele>
        <time>2019-06-01T06:52:57Z</time>
      </trkpt>
      <trkpt lat="44.11014" lon="4.56224">
        <ele>124.4</ele>
        <time>2019-06-01T06:52:58Z</time>
      </trkpt>
      <trkpt lat="44.11013" lon="4.56217">
        <ele>124.5</ele>
        <time>2019-06-01T06:53:00Z</time>
      </trkpt>
      <trkpt lat="44.11013" lon="4.5621">
        <ele>124.7</ele>
        <time>2019-06-01T06:53:02Z</time>
      </trkpt>
      <trkpt lat="44.11012" lon="4.56203">
        <ele>124.8</ele>
        <time>2019-06-01T06:53:04Z</time>
      </trkpt>
      <trkpt lat="44.11011" lon="4.56199">
        <ele>124.9</ele>
        <time>2019-06-01T06:53:05Z</time>
      </trkpt>
      <trkpt lat="44.11011" lon="4.56195">
        <ele>125</ele>
        <time>2019-06-01T06:53:06Z</time>
      </trkpt>
      <trkpt lat="44.11011" lon="4.56191">
        <ele>125.1</ele>
        <time>2019-06-01T06:53:07Z</time>
      </trkpt>
      <trkpt lat="44.11011" lon="4.56185">
        <ele>125.3</ele>
        <time>2019-06-01T06:53:09Z</time>
      </trkpt>
      <trkpt lat="44.11011" lon="4.56177">
        <ele>125.5</ele>
        <time>2019-06-01T06:53:11Z</time>
      </trkpt>
      <trkpt lat="44.11012" lon="4.5617">
        <ele>125.8</ele>
        <time>2019-06-01T06:53:13Z</time>
      </trkpt>
      <trkpt lat="44.11013" lon="4.56166">
        <ele>125.9</ele>
        <time>2019-06-01T06:53:14Z</time>
      </trkpt>
      <trkpt lat="44.11013" lon="4.56162">
        <ele>126.1</ele>
        <time>2019-06-01T06:53:15Z</time>
      </trkpt>
      <trkpt lat="44.11014" lon="4.56159">
        <ele>126.2</ele>
        <time>2019-06-01T06:53:16Z</time>
      </trkpt>
      <trkpt lat="44.11014" lon="4.56155">
        <ele>126.3</ele>
        <time>2019-06-01T06:53:17Z</time>
      </trkpt>
      <trkpt lat="44.11015" lon="4.56151">
        <ele>126.4</ele>
        <time>2019-06-01T06:53:18Z</time>
      </trkpt>
      <trkpt lat="44.11016" lon="4.56147">
        <ele>126.5</ele>
        <time>2019-06-01T06:53:19Z</time>
      </trkpt>
      <trkpt lat="44.11016" lon="4.56143">
        <ele>126.6</ele>
        <time>2019-06-01T06:53:20Z</time>
      </trkpt>
      <trkpt lat="44.11017" lon="4.56139">
        <ele>126.8</ele>
        <time>2019-06-01T06:53:21Z</time>
      </trkpt>
      <trkpt lat="44.11018" lon="4.56136">
        <ele>126.9</ele>
        <time>2019-06-01T06:53:22Z</time>
      </trkpt>
      <trkpt lat="44.11019" lon="4.56132">
        <ele>127</ele>
        <time>2019-06-01T06:53:23Z</time>
      </trkpt>
      <trkpt lat="44.11019" lon="4.56128">
        <ele>127.1</ele>
        <time>2019-06-01T06:53:24Z</time>
      </trkpt>
      <trkpt lat="44.1102" lon="4.56124">
        <ele>127.2</ele>
        <time>2019-06-01T06:53:25Z</time>
      </trkpt>
      <trkpt lat="44.1102" lon="4.5612">
        <ele>127.2</ele>
        <time>2019-06-01T06:53:26Z</time>
      </trkpt>
      <trkpt lat="44.11021" lon="4.56117">
        <ele>127.3</ele>
        <time>2019-06-01T06:53:27Z</time>
      </trkpt>
      <trkpt lat="44.11022" lon="4.56113">
        <ele>127.4</ele>
        <time>2019-06-01T06:53:28Z</time>
      </trkpt>
      <trkpt lat="44.11022" lon="4.56109">
        <ele>127.5</ele>
        <time>2019-06-01T06:53:29Z</time>
      </trkpt>
      <trkpt lat="44.11023" lon="4.56103">
        <ele>127.6</ele>
        <time>2019-06-01T06:53:31Z</time>
      </trkpt>
      <trkpt lat="44.11024" lon="4.56098">
        <ele>127.7</ele>
        <time>2019-06-01T06:53:32Z</time>
      </trkpt>
      <trkpt lat="44.11024" lon="4.56094">
        <ele>127.8</ele>
        <time>2019-06-01T06:53:33Z</time>
      </trkpt>
      <trkpt lat="44.11025" lon="4.56089">
        <ele>127.9</ele>
        <time>2019-06-01T06:53:34Z</time>
      </trkpt>
      <trkpt lat="44.11026" lon="4.56085">
        <ele>128.1</ele>
        <time>2019-06-01T06:53:35Z</time>
      </trkpt>
      <trkpt lat="44.11027" lon="4.56081">
        <ele>128.2</ele>
        <time>2019-06-01T06:53:36Z</time>
      </trkpt>
      <trkpt lat="44.11027" lon="4.56076">
        <ele>128.4</ele>
        <time>2019-06-01T06:53:37Z</time>
      </trkpt>
      <trkpt lat="44.11028" lon="4.56072">
        <ele>128.5</ele>
        <time>2019-06-01T06:53:38Z</time>
      </trkpt>
      <trkpt lat="44.11028" lon="4.56068">
        <ele>128.6</ele>
        <time>2019-06-01T06:53:39Z</time>
      </trkpt>
      <trkpt lat="44.11028" lon="4.56064">
        <ele>128.7</ele>
        <time>2019-06-01T06:53:40Z</time>
      </trkpt>
      <trkpt lat="44.11028" lon="4.5606">
        <ele>128.8</ele>
        <time>2019-06-01T06:53:41Z</time>
      </trkpt>
      <trkpt lat="44.11029" lon="4.56056">
        <ele>128.9</ele>
        <time>2019-06-01T06:53:42Z</time>
      </trkpt>
      <trkpt lat="44.1103" lon="4.56052">
        <ele>128.9</ele>
        <time>2019-06-01T06:53:43Z</time>
      </trkpt>
      <trkpt lat="44.11031" lon="4.56048">
        <ele>129</ele>
        <time>2019-06-01T06:53:44Z</time>
      </trkpt>
      <trkpt lat="44.11032" lon="4.56043">
        <ele>129.1</ele>
        <time>2019-06-01T06:53:45Z</time>
      </trkpt>
      <trkpt lat="44.11033" lon="4.56039">
        <ele>129.2</ele>
        <time>2019-06-01T06:53:46Z</time>
      </trkpt>
      <trkpt lat="44.11035" lon="4.56035">
        <ele>129.3</ele>
        <time>2019-06-01T06:53:47Z</time>
      </trkpt>
      <trkpt lat="44.11036" lon="4.5603">
        <ele>129.5</ele>
        <time>2019-06-01T06:53:48Z</time>
      </trkpt>
      <trkpt lat="44.11037" lon="4.56026">
        <ele>129.6</ele>
        <time>2019-06-01T06:53:49Z</time>
      </trkpt>
      <trkpt lat="44.11038" lon="4.56023">
        <ele>129.7</ele>
        <time>2019-06-01T06:53:50Z</time>
      </trkpt>
      <trkpt lat="44.11039" lon="4.56019">
        <ele>129.8</ele>
        <time>2019-06-01T06:53:51Z</time>
      </trkpt>
      <trkpt lat="44.11039" lon="4.56015">
        <ele>129.9</ele>
        <time>2019-06-01T06:53:52Z</time>
      </trkpt>
      <trkpt lat="44.1104" lon="4.5601">
        <ele>130.1</ele>
        <time>2019-06-01T06:53:53Z</time>
      </trkpt>
      <trkpt lat="44.1104" lon="4.56006">
        <ele>130.3</ele>
        <time>2019-06-01T06:53:54Z</time>
      </trkpt>
      <trkpt lat="44.11041" lon="4.56002">
        <ele>130.4</ele>
        <time>2019-06-01T06:53:55Z</time>
      </trkpt>
      <trkpt lat="44.11041" lon="4.55997">
        <ele>130.6</ele>
        <time>2019-06-01T06:53:56Z</time>
      </trkpt>
      <trkpt lat="44.11042" lon="4.55993">
        <ele>130.7</ele>
        <time>2019-06-01T06:53:57Z</time>
      </trkpt>
      <trkpt lat="44.11043" lon="4.55988">
        <ele>130.8</ele>
        <time>2019-06-01T06:53:58Z</time>
      </trkpt>
      <trkpt lat="44.11043" lon="4.55983">
        <ele>130.8</ele>
        <time>2019-06-01T06:53:59Z</time>
      </trkpt>
      <trkpt lat="44.11043" lon="4.55977">
        <ele>130.9</ele>
        <time>2019-06-01T06:54:00Z</time>
      </trkpt>
      <trkpt lat="44.11043" lon="4.55972">
        <ele>131.1</ele>
        <time>2019-06-01T06:54:01Z</time>
      </trkpt>
      <trkpt lat="44.11043" lon="4.55966">
        <ele>131.3</ele>
        <time>2019-06-01T06:54:02Z</time>
      </trkpt>
      <trkpt lat="44.11043" lon="4.55961">
        <ele>131.4</ele>
        <time>2019-06-01T06:54:03Z</time>
      </trkpt>
      <trkpt lat="44.11044" lon="4.55956">
        <ele>131.6</ele>
        <time>2019-06-01T06:54:04Z</time>
      </trkpt>
      <trkpt lat="44.11044" lon="4.55952">
        <ele>131.7</ele>
        <time>2019-06-01T06:54:05Z</time>
      </trkpt>
      <trkpt lat="44.11044" lon="4.55947">
        <ele>131.9</ele>
        <time>2019-06-01T06:54:06Z</time>
      </trkpt>
      <trkpt lat="44.11044" lon="4.55942">
        <ele>132</ele>
        <time>2019-06-01T06:54:07Z</time>
      </trkpt>
      <trkpt lat="44.11044" lon="4.55937">
        <ele>132.1</ele>
        <time>2019-06-01T06:54:08Z</time>
      </trkpt>
      <trkpt lat="44.11044" lon="4.55932">
        <ele>132.2</ele>
        <time>2019-06-01T06:54:09Z</time>
      </trkpt>
      <trkpt lat="44.11045" lon="4.55928">
        <ele>132.4</ele>
        <time>2019-06-01T06:54:10Z</time>
      </trkpt>
      <trkpt lat="44.11045" lon="4.55922">
        <ele>132.5</ele>
        <time>2019-06-01T06:54:11Z</time>
      </trkpt>
      <trkpt lat="44.11044" lon="4.55917">
        <ele>132.6</ele>
        <time>2019-06-01T06:54:12Z</time>
      </trkpt>
      <trkpt lat="44.11044" lon="4.55912">
        <ele>132.7</ele>
        <time>2019-06-01T06:54:13Z</time>
      </trkpt>
      <trkpt lat="44.11044" lon="4.55907">
        <ele>132.8</ele>
        <time>2019-06-01T06:54:14Z</time>
      </trkpt>
      <trkpt lat="44.11044" lon="4.55902">
        <ele>133</ele>
        <time>2019-06-01T06:54:15Z</time>
      </trkpt>
      <trkpt lat="44.11044" lon="4.55897">
        <ele>133.1</ele>
        <time>2019-06-01T06:54:16Z</time>
      </trkpt>
      <trkpt lat="44.11045" lon="4.55892">
        <ele>133.3</ele>
        <time>2019-06-01T06:54:17Z</time>
      </trkpt>
      <trkpt lat="44.11045" lon="4.55887">
        <ele>133.4</ele>
        <time>2019-06-01T06:54:18Z</time>
      </trkpt>
      <trkpt lat="44.11044" lon="4.55882">
        <ele>133.5</ele>
        <time>2019-06-01T06:54:19Z</time>
      </trkpt>
      <trkpt lat="44.11044" lon="4.55877">
        <ele>133.7</ele>
        <time>2019-06-01T06:54:20Z</time>
      </trkpt>
      <trkpt lat="44.11044" lon="4.55872">
        <ele>133.8</ele>
        <time>2019-06-01T06:54:21Z</time>
      </trkpt>
      <trkpt lat="44.11043" lon="4.55867">
        <ele>133.9</ele>
        <time>2019-06-01T06:54:22Z</time>
      </trkpt>
      <trkpt lat="44.11043" lon="4.55862">
        <ele>134</ele>
        <time>2019-06-01T06:54:23Z</time>
      </trkpt>
      <trkpt lat="44.11042" lon="4.55857">
        <ele>134.1</ele>
        <time>2019-06-01T06:54:24Z</time>
      </trkpt>
      <trkpt lat="44.11042" lon="4.55852">
        <ele>134.2</ele>
        <time>2019-06-01T06:54:25Z</time>
      </trkpt>
      <trkpt lat="44.11042" lon="4.55847">
        <ele>134.3</ele>
        <time>2019-06-01T06:54:26Z</time>
      </trkpt>
      <trkpt lat="44.11042" lon="4.55843">
        <ele>134.4</ele>
        <time>2019-06-01T06:54:27Z</time>
      </trkpt>
      <trkpt lat="44.11041" lon="4.55838">
        <ele>134.5</ele>
        <time>2019-06-01T06:54:28Z</time>
      </trkpt>
      <trkpt lat="44.11041" lon="4.55834">
        <ele>134.6</ele>
        <time>2019-06-01T06:54:29Z</time>
      </trkpt>
      <trkpt lat="44.1104" lon="4.55829">
        <ele>134.6</ele>
        <time>2019-06-01T06:54:30Z</time>
      </trkpt>
      <trkpt lat="44.11039" lon="4.55824">
        <ele>134.7</ele>
        <time>2019-06-01T06:54:31Z</time>
      </trkpt>
      <trkpt lat="44.11038" lon="4.55819">
        <ele>134.8</ele>
        <time>2019-06-01T06:54:32Z</time>
      </trkpt>
      <trkpt lat="44.11037" lon="4.55814">
        <ele>134.8</ele>
        <time>2019-06-01T06:54:33Z</time>
      </trkpt>
      <trkpt lat="44.11036" lon="4.55808">
        <ele>134.8</ele>
        <time>2019-06-01T06:54:34Z</time>
      </trkpt>
      <trkpt lat="44.11036" lon="4.55802">
        <ele>134.9</ele>
        <time>2019-06-01T06:54:35Z</time>
      </trkpt>
      <trkpt lat="44.11035" lon="4.55796">
        <ele>135</ele>
        <time>2019-06-01T06:54:36Z</time>
      </trkpt>
      <trkpt lat="44.11034" lon="4.55791">
        <ele>135</ele>
        <time>2019-06-01T06:54:37Z</time>
      </trkpt>
      <trkpt lat="44.11034" lon="4.55785">
        <ele>135.1</ele>
        <time>2019-06-01T06:54:38Z</time>
      </trkpt>
      <trkpt lat="44.11033" lon="4.5578">
        <ele>135.2</ele>
        <time>2019-06-01T06:54:39Z</time>
      </trkpt>
      <trkpt lat="44.11032" lon="4.55775">
        <ele>135.3</ele>
        <time>2019-06-01T06:54:40Z</time>
      </trkpt>
      <trkpt lat="44.11032" lon="4.55769">
        <ele>135.5</ele>
        <time>2019-06-01T06:54:41Z</time>
      </trkpt>
      <trkpt lat="44.11031" lon="4.55764">
        <ele>135.7</ele>
        <time>2019-06-01T06:54:42Z</time>
      </trkpt>
      <trkpt lat="44.11031" lon="4.55758">
        <ele>135.9</ele>
        <time>2019-06-01T06:54:43Z</time>
      </trkpt>
      <trkpt lat="44.1103" lon="4.55753">
        <ele>136.2</ele>
        <time>2019-06-01T06:54:44Z</time>
      </trkpt>
      <trkpt lat="44.11029" lon="4.55747">
        <ele>136.5</ele>
        <time>2019-06-01T06:54:45Z</time>
      </trkpt>
      <trkpt lat="44.11029" lon="4.55742">
        <ele>136.9</ele>
        <time>2019-06-01T06:54:46Z</time>
      </trkpt>
      <trkpt lat="44.11028" lon="4.55736">
        <ele>137.2</ele>
        <time>2019-06-01T06:54:47Z</time>
      </trkpt>
      <trkpt lat="44.11027" lon="4.55731">
        <ele>137.4</ele>
        <time>2019-06-01T06:54:48Z</time>
      </trkpt>
      <trkpt lat="44.11026" lon="4.55726">
        <ele>137.7</ele>
        <time>2019-06-01T06:54:49Z</time>
      </trkpt>
      <trkpt lat="44.11025" lon="4.5572">
        <ele>137.9</ele>
        <time>2019-06-01T06:54:50Z</time>
      </trkpt>
      <trkpt lat="44.11024" lon="4.55715">
        <ele>138.1</ele>
        <time>2019-06-01T06:54:51Z</time>
      </trkpt>
      <trkpt lat="44.11023" lon="4.55709">
        <ele>138.2</ele>
        <time>2019-06-01T06:54:52Z</time>
      </trkpt>
      <trkpt lat="44.11022" lon="4.55704">
        <ele>138.3</ele>
        <time>2019-06-01T06:54:53Z</time>
      </trkpt>
      <trkpt lat="44.11021" lon="4.55699">
        <ele>138.4</ele>
        <time>2019-06-01T06:54:54Z</time>
      </trkpt>
      <trkpt lat="44.1102" lon="4.55693">
        <ele>138.5</ele>
        <time>2019-06-01T06:54:55Z</time>
      </trkpt>
      <trkpt lat="44.11019" lon="4.55688">
        <ele>138.6</ele>
        <time>2019-06-01T06:54:56Z</time>
      </trkpt>
      <trkpt lat="44.11018" lon="4.55682">
        <ele>138.7</ele>
        <time>2019-06-01T06:54:57Z</time>
      </trkpt>
      <trkpt lat="44.11017" lon="4.55677">
        <ele>138.7</ele>
        <time>2019-06-01T06:54:58Z</time>
      </trkpt>
      <trkpt lat="44.11016" lon="4.55671">
        <ele>138.8</ele>
        <time>2019-06-01T06:54:59Z</time>
      </trkpt>
      <trkpt lat="44.11015" lon="4.55666">
        <ele>138.9</ele>
        <time>2019-06-01T06:55:00Z</time>
      </trkpt>
      <trkpt lat="44.11014" lon="4.5566">
        <ele>139</ele>
        <time>2019-06-01T06:55:01Z</time>
      </trkpt>
      <trkpt lat="44.11013" lon="4.55654">
        <ele>139</ele>
        <time>2019-06-01T06:55:02Z</time>
      </trkpt>
      <trkpt lat="44.11012" lon="4.55648">
        <ele>139.1</ele>
        <time>2019-06-01T06:55:03Z</time>
      </trkpt>
      <trkpt lat="44.11011" lon="4.55643">
        <ele>139.2</ele>
        <time>2019-06-01T06:55:04Z</time>
      </trkpt>
      <trkpt lat="44.1101" lon="4.55637">
        <ele>139.2</ele>
        <time>2019-06-01T06:55:05Z</time>
      </trkpt>
      <trkpt lat="44.1101" lon="4.55631">
        <ele>139.2</ele>
        <time>2019-06-01T06:55:06Z</time>
      </trkpt>
      <trkpt lat="44.11009" lon="4.55625">
        <ele>139.3</ele>
        <time>2019-06-01T06:55:07Z</time>
      </trkpt>
      <trkpt lat="44.11009" lon="4.55619">
        <ele>139.4</ele>
        <time>2019-06-01T06:55:08Z</time>
      </trkpt>
      <trkpt lat="44.1101" lon="4.55614">
        <ele>139.5</ele>
        <time>2019-06-01T06:55:09Z</time>
      </trkpt>
      <trkpt lat="44.1101" lon="4.55608">
        <ele>139.5</ele>
        <time>2019-06-01T06:55:10Z</time>
      </trkpt>
      <trkpt lat="44.1101" lon="4.55603">
        <ele>139.6</ele>
        <time>2019-06-01T06:55:11Z</time>
      </trkpt>
      <trkpt lat="44.1101" lon="4.55597">
        <ele>139.7</ele>
        <time>2019-06-01T06:55:12Z</time>
      </trkpt>
      <trkpt lat="44.11011" lon="4.55592">
        <ele>139.7</ele>
        <time>2019-06-01T06:55:13Z</time>
      </trkpt>
      <trkpt lat="44.11011" lon="4.55587">
        <ele>139.8</ele>
        <time>2019-06-01T06:55:14Z</time>
      </trkpt>
      <trkpt lat="44.11011" lon="4.55582">
        <ele>139.8</ele>
        <time>2019-06-01T06:55:15Z</time>
      </trkpt>
      <trkpt lat="44.11012" lon="4.55578">
        <ele>139.8</ele>
        <time>2019-06-01T06:55:16Z</time>
      </trkpt>
      <trkpt lat="44.11013" lon="4.55572">
        <ele>140.4</ele>
        <time>2019-06-01T06:55:18Z</time>
      </trkpt>
      <trkpt lat="44.11018" lon="4.55569">
        <ele>140.9</ele>
        <time>2019-06-01T06:55:20Z</time>
      </trkpt>
      <trkpt lat="44.11022" lon="4.55569">
        <ele>141.2</ele>
        <time>2019-06-01T06:55:21Z</time>
      </trkpt>
      <trkpt lat="44.11025" lon="4.55571">
        <ele>141.5</ele>
        <time>2019-06-01T06:55:22Z</time>
      </trkpt>
      <trkpt lat="44.11028" lon="4.55572">
        <ele>141.8</ele>
        <time>2019-06-01T06:55:23Z</time>
      </trkpt>
      <trkpt lat="44.11032" lon="4.55573">
        <ele>142.1</ele>
        <time>2019-06-01T06:55:24Z</time>
      </trkpt>
      <trkpt lat="44.11035" lon="4.55573">
        <ele>142.2</ele>
        <time>2019-06-01T06:55:25Z</time>
      </trkpt>
      <trkpt lat="44.11037" lon="4.55574">
        <ele>142.4</ele>
        <time>2019-06-01T06:55:26Z</time>
      </trkpt>
      <trkpt lat="44.1104" lon="4.55575">
        <ele>142.6</ele>
        <time>2019-06-01T06:55:27Z</time>
      </trkpt>
      <trkpt lat="44.11043" lon="4.55575">
        <ele>142.7</ele>
        <time>2019-06-01T06:55:28Z</time>
      </trkpt>
      <trkpt lat="44.11046" lon="4.55576">
        <ele>142.9</ele>
        <time>2019-06-01T06:55:29Z</time>
      </trkpt>
      <trkpt lat="44.11049" lon="4.55576">
        <ele>143.1</ele>
        <time>2019-06-01T06:55:30Z</time>
      </trkpt>
      <trkpt lat="44.11052" lon="4.55577">
        <ele>143.3</ele>
        <time>2019-06-01T06:55:31Z</time>
      </trkpt>
      <trkpt lat="44.11055" lon="4.55577">
        <ele>143.4</ele>
        <time>2019-06-01T06:55:32Z</time>
      </trkpt>
      <trkpt lat="44.11057" lon="4.55577">
        <ele>143.6</ele>
        <time>2019-06-01T06:55:33Z</time>
      </trkpt>
      <trkpt lat="44.1106" lon="4.55577">
        <ele>143.7</ele>
        <time>2019-06-01T06:55:34Z</time>
      </trkpt>
      <trkpt lat="44.11063" lon="4.55578">
        <ele>143.9</ele>
        <time>2019-06-01T06:55:35Z</time>
      </trkpt>
      <trkpt lat="44.11066" lon="4.55578">
        <ele>144.1</ele>
        <time>2019-06-01T06:55:36Z</time>
      </trkpt>
      <trkpt lat="44.11069" lon="4.55578">
        <ele>144.2</ele>
        <time>2019-06-01T06:55:37Z</time>
      </trkpt>
      <trkpt lat="44.11072" lon="4.55578">
        <ele>144.4</ele>
        <time>2019-06-01T06:55:38Z</time>
      </trkpt>
      <trkpt lat="44.11075" lon="4.55578">
        <ele>144.5</ele>
        <time>2019-06-01T06:55:39Z</time>
      </trkpt>
      <trkpt lat="44.11078" lon="4.55579">
        <ele>144.6</ele>
        <time>2019-06-01T06:55:40Z</time>
      </trkpt>
      <trkpt lat="44.11082" lon="4.55579">
        <ele>144.7</ele>
        <time>2019-06-01T06:55:41Z</time>
      </trkpt>
      <trkpt lat="44.11085" lon="4.55579">
        <ele>144.8</ele>
        <time>2019-06-01T06:55:42Z</time>
      </trkpt>
      <trkpt lat="44.11088" lon="4.55579">
        <ele>144.9</ele>
        <time>2019-06-01T06:55:43Z</time>
      </trkpt>
      <trkpt lat="44.11091" lon="4.5558">
        <ele>145</ele>
        <time>2019-06-01T06:55:44Z</time>
      </trkpt>
      <trkpt lat="44.11094" lon="4.5558">
        <ele>145.1</ele>
        <time>2019-06-01T06:55:45Z</time>
      </trkpt>
      <trkpt lat="44.11097" lon="4.5558">
        <ele>145.3</ele>
        <time>2019-06-01T06:55:46Z</time>
      </trkpt>
      <trkpt lat="44.111" lon="4.5558">
        <ele>145.4</ele>
        <time>2019-06-01T06:55:47Z</time>
      </trkpt>
      <trkpt lat="44.11103" lon="4.5558">
        <ele>145.5</ele>
        <time>2019-06-01T06:55:48Z</time>
      </trkpt>
      <trkpt lat="44.11106" lon="4.5558">
        <ele>145.6</ele>
        <time>2019-06-01T06:55:49Z</time>
      </trkpt>
      <trkpt lat="44.11109" lon="4.5558">
        <ele>145.7</ele>
        <time>2019-06-01T06:55:50Z</time>
      </trkpt>
      <trkpt lat="44.11113" lon="4.5558">
        <ele>145.8</ele>
        <time>2019-06-01T06:55:51Z</time>
      </trkpt>
      <trkpt lat="44.11116" lon="4.5558">
        <ele>145.9</ele>
        <time>2019-06-01T06:55:52Z</time>
      </trkpt>
      <trkpt lat="44.11119" lon="4.5558">
        <ele>146</ele>
        <time>2019-06-01T06:55:53Z</time>
      </trkpt>
      <trkpt lat="44.11122" lon="4.5558">
        <ele>146.1</ele>
        <time>2019-06-01T06:55:54Z</time>
      </trkpt>
      <trkpt lat="44.11125" lon="4.5558">
        <ele>146.2</ele>
        <time>2019-06-01T06:55:55Z</time>
      </trkpt>
      <trkpt lat="44.11127" lon="4.5558">
        <ele>146.3</ele>
        <time>2019-06-01T06:55:56Z</time>
      </trkpt>
      <trkpt lat="44.1113" lon="4.5558">
        <ele>146.3</ele>
        <time>2019-06-01T06:55:57Z</time>
      </trkpt>
      <trkpt lat="44.11135" lon="4.5558">
        <ele>146.5</ele>
        <time>2019-06-01T06:55:59Z</time>
      </trkpt>
      <trkpt lat="44.11138" lon="4.55579">
        <ele>146.6</ele>
        <time>2019-06-01T06:56:00Z</time>
      </trkpt>
      <trkpt lat="44.11141" lon="4.55579">
        <ele>146.7</ele>
        <time>2019-06-01T06:56:01Z</time>
      </trkpt>
      <trkpt lat="44.11145" lon="4.55578">
        <ele>146.8</ele>
        <time>2019-06-01T06:56:02Z</time>
      </trkpt>
      <trkpt lat="44.11148" lon="4.55577">
        <ele>146.9</ele>
        <time>2019-06-01T06:56:03Z</time>
      </trkpt>
      <trkpt lat="44.1115" lon="4.55575">
        <ele>147</ele>
        <time>2019-06-01T06:56:04Z</time>
      </trkpt>
      <trkpt lat="44.11153" lon="4.55573">
        <ele>147.1</ele>
        <time>2019-06-01T06:56:05Z</time>
      </trkpt>
      <trkpt lat="44.11155" lon="4.5557">
        <ele>147.2</ele>
        <time>2019-06-01T06:56:06Z</time>
      </trkpt>
      <trkpt lat="44.11157" lon="4.55566">
        <ele>147.2</ele>
        <time>2019-06-01T06:56:07Z</time>
      </trkpt>
      <trkpt lat="44.11159" lon="4.55563">
        <ele>147.3</ele>
        <time>2019-06-01T06:56:08Z</time>
      </trkpt>
      <trkpt lat="44.11161" lon="4.55559">
        <ele>147.4</ele>
        <time>2019-06-01T06:56:09Z</time>
      </trkpt>
      <trkpt lat="44.11162" lon="4.55554">
        <ele>147.6</ele>
        <time>2019-06-01T06:56:10Z</time>
      </trkpt>
      <trkpt lat="44.11164" lon="4.5555">
        <ele>147.8</ele>
        <time>2019-06-01T06:56:11Z</time>
      </trkpt>
      <trkpt lat="44.11165" lon="4.55546">
        <ele>147.9</ele>
        <time>2019-06-01T06:56:12Z</time>
      </trkpt>
      <trkpt lat="44.11167" lon="4.55542">
        <ele>148</ele>
        <time>2019-06-01T06:56:13Z</time>
      </trkpt>
      <trkpt lat="44.11169" lon="4.55538">
        <ele>148.1</ele>
        <time>2019-06-01T06:56:14Z</time>
      </trkpt>
      <trkpt lat="44.11171" lon="4.55535">
        <ele>148.2</ele>
        <time>2019-06-01T06:56:15Z</time>
      </trkpt>
      <trkpt lat="44.11174" lon="4.55531">
        <ele>148.3</ele>
        <time>2019-06-01T06:56:16Z</time>
      </trkpt>
      <trkpt lat="44.11176" lon="4.55528">
        <ele>148.4</ele>
        <time>2019-06-01T06:56:17Z</time>
      </trkpt>
      <trkpt lat="44.11179" lon="4.55526">
        <ele>148.5</ele>
        <time>2019-06-01T06:56:18Z</time>
      </trkpt>
      <trkpt lat="44.11181" lon="4.55523">
        <ele>148.6</ele>
        <time>2019-06-01T06:56:19Z</time>
      </trkpt>
      <trkpt lat="44.11184" lon="4.55522">
        <ele>148.7</ele>
        <time>2019-06-01T06:56:20Z</time>
      </trkpt>
      <trkpt lat="44.11187" lon="4.5552">
        <ele>148.7</ele>
        <time>2019-06-01T06:56:21Z</time>
      </trkpt>
      <trkpt lat="44.1119" lon="4.55519">
        <ele>148.9</ele>
        <time>2019-06-01T06:56:22Z</time>
      </trkpt>
      <trkpt lat="44.11193" lon="4.55517">
        <ele>149</ele>
        <time>2019-06-01T06:56:23Z</time>
      </trkpt>
      <trkpt lat="44.11196" lon="4.55515">
        <ele>149.2</ele>
        <time>2019-06-01T06:56:24Z</time>
      </trkpt>
      <trkpt lat="44.11199" lon="4.55513">
        <ele>149.3</ele>
        <time>2019-06-01T06:56:25Z</time>
      </trkpt>
      <trkpt lat="44.11201" lon="4.55512">
        <ele>149.4</ele>
        <time>2019-06-01T06:56:26Z</time>
      </trkpt>
      <trkpt lat="44.11204" lon="4.5551">
        <ele>149.5</ele>
        <time>2019-06-01T06:56:27Z</time>
      </trkpt>
      <trkpt lat="44.11207" lon="4.55508">
        <ele>149.7</ele>
        <time>2019-06-01T06:56:28Z</time>
      </trkpt>
      <trkpt lat="44.1121" lon="4.55505">
        <ele>149.8</ele>
        <time>2019-06-01T06:56:29Z</time>
      </trkpt>
      <trkpt lat="44.11213" lon="4.55503">
        <ele>149.9</ele>
        <time>2019-06-01T06:56:30Z</time>
      </trkpt>
      <trkpt lat="44.11215" lon="4.55501">
        <ele>150</ele>
        <time>2019-06-01T06:56:31Z</time>
      </trkpt>
      <trkpt lat="44.11217" lon="4.55499">
        <ele>150.2</ele>
        <time>2019-06-01T06:56:32Z</time>
      </trkpt>
      <trkpt lat="44.1122" lon="4.55496">
        <ele>150.2</ele>
        <time>2019-06-01T06:56:33Z</time>
      </trkpt>
      <trkpt lat="44.11222" lon="4.55492">
        <ele>150.1</ele>
        <time>2019-06-01T06:56:34Z</time>
      </trkpt>
      <trkpt lat="44.11225" lon="4.55488">
        <ele>150.1</ele>
        <time>2019-06-01T06:56:35Z</time>
      </trkpt>
      <trkpt lat="44.11228" lon="4.55484">
        <ele>150.1</ele>
        <time>2019-06-01T06:56:36Z</time>
      </trkpt>
      <trkpt lat="44.11231" lon="4.5548">
        <ele>150.1</ele>
        <time>2019-06-01T06:56:37Z</time>
      </trkpt>
      <trkpt lat="44.11234" lon="4.55477">
        <ele>150.1</ele>
        <time>2019-06-01T06:56:38Z</time>
      </trkpt>
      <trkpt lat="44.11237" lon="4.55475">
        <ele>150.1</ele>
        <time>2019-06-01T06:56:39Z</time>
      </trkpt>
      <trkpt lat="44.11241" lon="4.55473">
        <ele>150.1</ele>
        <time>2019-06-01T06:56:40Z</time>
      </trkpt>
      <trkpt lat="44.11246" lon="4.55473">
        <ele>150.1</ele>
        <time>2019-06-01T06:56:41Z</time>
      </trkpt>
      <trkpt lat="44.1125" lon="4.55472">
        <ele>150.1</ele>
        <time>2019-06-01T06:56:42Z</time>
      </trkpt>
      <trkpt lat="44.11256" lon="4.55473">
        <ele>150.2</ele>
        <time>2019-06-01T06:56:43Z</time>
      </trkpt>
      <trkpt lat="44.11261" lon="4.55471">
        <ele>150.2</ele>
        <time>2019-06-01T06:56:44Z</time>
      </trkpt>
      <trkpt lat="44.11266" lon="4.55469">
        <ele>150.2</ele>
        <time>2019-06-01T06:56:45Z</time>
      </trkpt>
      <trkpt lat="44.1127" lon="4.55466">
        <ele>150.3</ele>
        <time>2019-06-01T06:56:46Z</time>
      </trkpt>
      <trkpt lat="44.11274" lon="4.55462">
        <ele>150.3</ele>
        <time>2019-06-01T06:56:47Z</time>
      </trkpt>
      <trkpt lat="44.11276" lon="4.55457">
        <ele>150.4</ele>
        <time>2019-06-01T06:56:48Z</time>
      </trkpt>
      <trkpt lat="44.11279" lon="4.5545">
        <ele>150.5</ele>
        <time>2019-06-01T06:56:49Z</time>
      </trkpt>
      <trkpt lat="44.1128" lon="4.55443">
        <ele>150.6</ele>
        <time>2019-06-01T06:56:50Z</time>
      </trkpt>
      <trkpt lat="44.11282" lon="4.55435">
        <ele>150.6</ele>
        <time>2019-06-01T06:56:51Z</time>
      </trkpt>
      <trkpt lat="44.11284" lon="4.55428">
        <ele>150.7</ele>
        <time>2019-06-01T06:56:52Z</time>
      </trkpt>
      <trkpt lat="44.11285" lon="4.55421">
        <ele>150.8</ele>
        <time>2019-06-01T06:56:53Z</time>
      </trkpt>
      <trkpt lat="44.11287" lon="4.55413">
        <ele>150.9</ele>
        <time>2019-06-01T06:56:54Z</time>
      </trkpt>
      <trkpt lat="44.11289" lon="4.55407">
        <ele>151</ele>
        <time>2019-06-01T06:56:55Z</time>
      </trkpt>
      <trkpt lat="44.1129" lon="4.55399">
        <ele>151</ele>
        <time>2019-06-01T06:56:56Z</time>
      </trkpt>
      <trkpt lat="44.11292" lon="4.55392">
        <ele>151.1</ele>
        <time>2019-06-01T06:56:57Z</time>
      </trkpt>
      <trkpt lat="44.11294" lon="4.55385">
        <ele>151.3</ele>
        <time>2019-06-01T06:56:58Z</time>
      </trkpt>
      <trkpt lat="44.11296" lon="4.55378">
        <ele>151.4</ele>
        <time>2019-06-01T06:56:59Z</time>
      </trkpt>
      <trkpt lat="44.11297" lon="4.55371">
        <ele>151.5</ele>
        <time>2019-06-01T06:57:00Z</time>
      </trkpt>
      <trkpt lat="44.11298" lon="4.55363">
        <ele>151.5</ele>
        <time>2019-06-01T06:57:01Z</time>
      </trkpt>
      <trkpt lat="44.11299" lon="4.55355">
        <ele>151.6</ele>
        <time>2019-06-01T06:57:02Z</time>
      </trkpt>
      <trkpt lat="44.113" lon="4.55349">
        <ele>151.7</ele>
        <time>2019-06-01T06:57:03Z</time>
      </trkpt>
      <trkpt lat="44.113" lon="4.55342">
        <ele>151.7</ele>
        <time>2019-06-01T06:57:04Z</time>
      </trkpt>
      <trkpt lat="44.11302" lon="4.55335">
        <ele>151.8</ele>
        <time>2019-06-01T06:57:05Z</time>
      </trkpt>
      <trkpt lat="44.11304" lon="4.55328">
        <ele>151.8</ele>
        <time>2019-06-01T06:57:06Z</time>
      </trkpt>
      <trkpt lat="44.11305" lon="4.55321">
        <ele>151.9</ele>
        <time>2019-06-01T06:57:07Z</time>
      </trkpt>
      <trkpt lat="44.11307" lon="4.55315">
        <ele>151.9</ele>
        <time>2019-06-01T06:57:08Z</time>
      </trkpt>
      <trkpt lat="44.11309" lon="4.55309">
        <ele>151.9</ele>
        <time>2019-06-01T06:57:09Z</time>
      </trkpt>
      <trkpt lat="44.11311" lon="4.55301">
        <ele>152</ele>
        <time>2019-06-01T06:57:10Z</time>
      </trkpt>
      <trkpt lat="44.11313" lon="4.55295">
        <ele>152</ele>
        <time>2019-06-01T06:57:11Z</time>
      </trkpt>
      <trkpt lat="44.11314" lon="4.55288">
        <ele>152</ele>
        <time>2019-06-01T06:57:12Z</time>
      </trkpt>
      <trkpt lat="44.11315" lon="4.55281">
        <ele>152</ele>
        <time>2019-06-01T06:57:13Z</time>
      </trkpt>
      <trkpt lat="44.11317" lon="4.55275">
        <ele>152</ele>
        <time>2019-06-01T06:57:14Z</time>
      </trkpt>
      <trkpt lat="44.11318" lon="4.55269">
        <ele>152.2</ele>
        <time>2019-06-01T06:57:15Z</time>
      </trkpt>
      <trkpt lat="44.1132" lon="4.55264">
        <ele>152.4</ele>
        <time>2019-06-01T06:57:16Z</time>
      </trkpt>
      <trkpt lat="44.11321" lon="4.55257">
        <ele>152.6</ele>
        <time>2019-06-01T06:57:17Z</time>
      </trkpt>
      <trkpt lat="44.11322" lon="4.55251">
        <ele>152.8</ele>
        <time>2019-06-01T06:57:18Z</time>
      </trkpt>
      <trkpt lat="44.11324" lon="4.55244">
        <ele>153</ele>
        <time>2019-06-01T06:57:19Z</time>
      </trkpt>
      <trkpt lat="44.11325" lon="4.55239">
        <ele>153.2</ele>
        <time>2019-06-01T06:57:20Z</time>
      </trkpt>
      <trkpt lat="44.11326" lon="4.55233">
        <ele>153.3</ele>
        <time>2019-06-01T06:57:21Z</time>
      </trkpt>
      <trkpt lat="44.11327" lon="4.55225">
        <ele>153.4</ele>
        <time>2019-06-01T06:57:22Z</time>
      </trkpt>
      <trkpt lat="44.11328" lon="4.5522">
        <ele>153.4</ele>
        <time>2019-06-01T06:57:23Z</time>
      </trkpt>
      <trkpt lat="44.11329" lon="4.55214">
        <ele>153.5</ele>
        <time>2019-06-01T06:57:24Z</time>
      </trkpt>
      <trkpt lat="44.1133" lon="4.55208">
        <ele>153.6</ele>
        <time>2019-06-01T06:57:25Z</time>
      </trkpt>
      <trkpt lat="44.11331" lon="4.552">
        <ele>153.6</ele>
        <time>2019-06-01T06:57:26Z</time>
      </trkpt>
      <trkpt lat="44.11332" lon="4.55193">
        <ele>153.7</ele>
        <time>2019-06-01T06:57:27Z</time>
      </trkpt>
      <trkpt lat="44.11333" lon="4.55187">
        <ele>153.7</ele>
        <time>2019-06-01T06:57:28Z</time>
      </trkpt>
      <trkpt lat="44.11335" lon="4.55179">
        <ele>153.7</ele>
        <time>2019-06-01T06:57:29Z</time>
      </trkpt>
      <trkpt lat="44.11336" lon="4.55173">
        <ele>153.7</ele>
        <time>2019-06-01T06:57:30Z</time>
      </trkpt>
      <trkpt lat="44.11337" lon="4.55166">
        <ele>153.7</ele>
        <time>2019-06-01T06:57:31Z</time>
      </trkpt>
      <trkpt lat="44.11338" lon="4.55159">
        <ele>153.7</ele>
        <time>2019-06-01T06:57:32Z</time>
      </trkpt>
      <trkpt lat="44.11339" lon="4.55151">
        <ele>153.6</ele>
        <time>2019-06-01T06:57:33Z</time>
      </trkpt>
      <trkpt lat="44.1134" lon="4.55145">
        <ele>153.6</ele>
        <time>2019-06-01T06:57:34Z</time>
      </trkpt>
      <trkpt lat="44.11341" lon="4.55138">
        <ele>153.6</ele>
        <time>2019-06-01T06:57:35Z</time>
      </trkpt>
      <trkpt lat="44.11343" lon="4.55132">
        <ele>153.6</ele>
        <time>2019-06-01T06:57:36Z</time>
      </trkpt>
      <trkpt lat="44.11344" lon="4.55125">
        <ele>153.6</ele>
        <time>2019-06-01T06:57:37Z</time>
      </trkpt>
      <trkpt lat="44.11345" lon="4.55118">
        <ele>153.6</ele>
        <time>2019-06-01T06:57:38Z</time>
      </trkpt>
      <trkpt lat="44.11346" lon="4.55112">
        <ele>153.7</ele>
        <time>2019-06-01T06:57:39Z</time>
      </trkpt>
      <trkpt lat="44.11347" lon="4.55105">
        <ele>153.7</ele>
        <time>2019-06-01T06:57:40Z</time>
      </trkpt>
      <trkpt lat="44.11348" lon="4.55099">
        <ele>153.7</ele>
        <time>2019-06-01T06:57:41Z</time>
      </trkpt>
      <trkpt lat="44.11349" lon="4.55092">
        <ele>153.8</ele>
        <time>2019-06-01T06:57:42Z</time>
      </trkpt>
      <trkpt lat="44.1135" lon="4.55086">
        <ele>153.8</ele>
        <time>2019-06-01T06:57:43Z</time>
      </trkpt>
      <trkpt lat="44.11351" lon="4.55079">
        <ele>153.9</ele>
        <time>2019-06-01T06:57:44Z</time>
      </trkpt>
      <trkpt lat="44.11353" lon="4.55073">
        <ele>153.9</ele>
        <time>2019-06-01T06:57:45Z</time>
      </trkpt>
      <trkpt lat="44.11354" lon="4.55068">
        <ele>154</ele>
        <time>2019-06-01T06:57:46Z</time>
      </trkpt>
      <trkpt lat="44.11355" lon="4.55062">
        <ele>154</ele>
        <time>2019-06-01T06:57:47Z</time>
      </trkpt>
      <trkpt lat="44.11356" lon="4.55056">
        <ele>154.1</ele>
        <time>2019-06-01T06:57:48Z</time>
      </trkpt>
      <trkpt lat="44.11357" lon="4.55051">
        <ele>154.1</ele>
        <time>2019-06-01T06:57:49Z</time>
      </trkpt>
      <trkpt lat="44.11359" lon="4.55045">
        <ele>154.2</ele>
        <time>2019-06-01T06:57:50Z</time>
      </trkpt>
      <trkpt lat="44.1136" lon="4.55039">
        <ele>154.6</ele>
        <time>2019-06-01T06:57:51Z</time>
      </trkpt>
      <trkpt lat="44.11361" lon="4.55033">
        <ele>155</ele>
        <time>2019-06-01T06:57:52Z</time>
      </trkpt>
      <trkpt lat="44.11362" lon="4.55028">
        <ele>155.4</ele>
        <time>2019-06-01T06:57:53Z</time>
      </trkpt>
      <trkpt lat="44.11364" lon="4.55023">
        <ele>155.7</ele>
        <time>2019-06-01T06:57:54Z</time>
      </trkpt>
      <trkpt lat="44.11366" lon="4.55019">
        <ele>156.1</ele>
        <time>2019-06-01T06:57:55Z</time>
      </trkpt>
      <trkpt lat="44.11369" lon="4.55016">
        <ele>156.6</ele>
        <time>2019-06-01T06:57:56Z</time>
      </trkpt>
      <trkpt lat="44.11372" lon="4.55014">
        <ele>157.1</ele>
        <time>2019-06-01T06:57:57Z</time>
      </trkpt>
      <trkpt lat="44.11375" lon="4.55013">
        <ele>157.5</ele>
        <time>2019-06-01T06:57:58Z</time>
      </trkpt>
      <trkpt lat="44.11378" lon="4.55012">
        <ele>157.9</ele>
        <time>2019-06-01T06:57:59Z</time>
      </trkpt>
      <trkpt lat="44.11382" lon="4.55012">
        <ele>158.3</ele>
        <time>2019-06-01T06:58:00Z</time>
      </trkpt>
      <trkpt lat="44.11385" lon="4.55013">
        <ele>158.7</ele>
        <time>2019-06-01T06:58:01Z</time>
      </trkpt>
      <trkpt lat="44.11389" lon="4.55013">
        <ele>159.1</ele>
        <time>2019-06-01T06:58:02Z</time>
      </trkpt>
      <trkpt lat="44.11392" lon="4.55013">
        <ele>159.4</ele>
        <time>2019-06-01T06:58:03Z</time>
      </trkpt>
      <trkpt lat="44.11395" lon="4.55011">
        <ele>159.7</ele>
        <time>2019-06-01T06:58:04Z</time>
      </trkpt>
      <trkpt lat="44.11398" lon="4.55007">
        <ele>159.9</ele>
        <time>2019-06-01T06:58:05Z</time>
      </trkpt>
      <trkpt lat="44.114" lon="4.55003">
        <ele>159.9</ele>
        <time>2019-06-01T06:58:06Z</time>
      </trkpt>
      <trkpt lat="44.11401" lon="4.54999">
        <ele>160</ele>
        <time>2019-06-01T06:58:07Z</time>
      </trkpt>
      <trkpt lat="44.11401" lon="4.54995">
        <ele>160</ele>
        <time>2019-06-01T06:58:08Z</time>
      </trkpt>
      <trkpt lat="44.11402" lon="4.5499">
        <ele>160</ele>
        <time>2019-06-01T06:58:09Z</time>
      </trkpt>
      <trkpt lat="44.11402" lon="4.54986">
        <ele>160</ele>
        <time>2019-06-01T06:58:10Z</time>
      </trkpt>
      <trkpt lat="44.11401" lon="4.54981">
        <ele>160</ele>
        <time>2019-06-01T06:58:11Z</time>
      </trkpt>
      <trkpt lat="44.114" lon="4.54976">
        <ele>159.8</ele>
        <time>2019-06-01T06:58:12Z</time>
      </trkpt>
      <trkpt lat="44.11398" lon="4.54971">
        <ele>159.8</ele>
        <time>2019-06-01T06:58:13Z</time>
      </trkpt>
      <trkpt lat="44.11397" lon="4.54967">
        <ele>159.8</ele>
        <time>2019-06-01T06:58:14Z</time>
      </trkpt>
      <trkpt lat="44.11397" lon="4.5496">
        <ele>159.8</ele>
        <time>2019-06-01T06:58:16Z</time>
      </trkpt>
      <trkpt lat="44.11396" lon="4.54954">
        <ele>159.8</ele>
        <time>2019-06-01T06:58:18Z</time>
      </trkpt>
      <trkpt lat="44.11396" lon="4.54947">
        <ele>159.8</ele>
        <time>2019-06-01T06:58:20Z</time>
      </trkpt>
      <trkpt lat="44.11395" lon="4.5494">
        <ele>159.9</ele>
        <time>2019-06-01T06:58:22Z</time>
      </trkpt>
      <trkpt lat="44.11395" lon="4.54935">
        <ele>160</ele>
        <time>2019-06-01T06:58:23Z</time>
      </trkpt>
      <trkpt lat="44.11395" lon="4.54931">
        <ele>160</ele>
        <time>2019-06-01T06:58:24Z</time>
      </trkpt>
      <trkpt lat="44.11395" lon="4.54927">
        <ele>160.1</ele>
        <time>2019-06-01T06:58:25Z</time>
      </trkpt>
      <trkpt lat="44.11395" lon="4.54923">
        <ele>160.3</ele>
        <time>2019-06-01T06:58:26Z</time>
      </trkpt>
      <trkpt lat="44.11395" lon="4.54919">
        <ele>160.4</ele>
        <time>2019-06-01T06:58:27Z</time>
      </trkpt>
      <trkpt lat="44.11395" lon="4.54915">
        <ele>160.5</ele>
        <time>2019-06-01T06:58:28Z</time>
      </trkpt>
      <trkpt lat="44.11395" lon="4.54911">
        <ele>160.6</ele>
        <time>2019-06-01T06:58:29Z</time>
      </trkpt>
      <trkpt lat="44.11395" lon="4.54907">
        <ele>160.6</ele>
        <time>2019-06-01T06:58:30Z</time>
      </trkpt>
      <trkpt lat="44.11396" lon="4.54903">
        <ele>160.7</ele>
        <time>2019-06-01T06:58:31Z</time>
      </trkpt>
      <trkpt lat="44.11396" lon="4.54899">
        <ele>160.9</ele>
        <time>2019-06-01T06:58:32Z</time>
      </trkpt>
      <trkpt lat="44.11397" lon="4.54896">
        <ele>161</ele>
        <time>2019-06-01T06:58:33Z</time>
      </trkpt>
      <trkpt lat="44.11399" lon="4.54892">
        <ele>161.2</ele>
        <time>2019-06-01T06:58:34Z</time>
      </trkpt>
      <trkpt lat="44.11401" lon="4.5489">
        <ele>161.2</ele>
        <time>2019-06-01T06:58:35Z</time>
      </trkpt>
      <trkpt lat="44.11404" lon="4.54889">
        <ele>161.4</ele>
        <time>2019-06-01T06:58:36Z</time>
      </trkpt>
      <trkpt lat="44.11407" lon="4.54887">
        <ele>161.4</ele>
        <time>2019-06-01T06:58:37Z</time>
      </trkpt>
      <trkpt lat="44.1141" lon="4.54886">
        <ele>161.5</ele>
        <time>2019-06-01T06:58:38Z</time>
      </trkpt>
      <trkpt lat="44.11413" lon="4.54885">
        <ele>161.7</ele>
        <time>2019-06-01T06:58:39Z</time>
      </trkpt>
      <trkpt lat="44.11418" lon="4.54882">
        <ele>161.8</ele>
        <time>2019-06-01T06:58:41Z</time>
      </trkpt>
      <trkpt lat="44.11423" lon="4.5488">
        <ele>162.3</ele>
        <time>2019-06-01T06:58:43Z</time>
      </trkpt>
      <trkpt lat="44.11428" lon="4.54877">
        <ele>162.7</ele>
        <time>2019-06-01T06:58:45Z</time>
      </trkpt>
      <trkpt lat="44.11432" lon="4.54875">
        <ele>162.8</ele>
        <time>2019-06-01T06:58:47Z</time>
      </trkpt>
      <trkpt lat="44.11437" lon="4.54873">
        <ele>163.1</ele>
        <time>2019-06-01T06:58:49Z</time>
      </trkpt>
      <trkpt lat="44.11439" lon="4.54872">
        <ele>163.3</ele>
        <time>2019-06-01T06:58:50Z</time>
      </trkpt>
      <trkpt lat="44.11444" lon="4.54869">
        <ele>163.6</ele>
        <time>2019-06-01T06:58:52Z</time>
      </trkpt>
      <trkpt lat="44.11448" lon="4.54866">
        <ele>164</ele>
        <time>2019-06-01T06:58:54Z</time>
      </trkpt>
      <trkpt lat="44.11452" lon="4.54864">
        <ele>164.5</ele>
        <time>2019-06-01T06:58:56Z</time>
      </trkpt>
      <trkpt lat="44.11456" lon="4.54864">
        <ele>164.8</ele>
        <time>2019-06-01T06:58:58Z</time>
      </trkpt>
      <trkpt lat="44.11461" lon="4.54864">
        <ele>164.9</ele>
        <time>2019-06-01T06:59:00Z</time>
      </trkpt>
      <trkpt lat="44.11466" lon="4.54865">
        <ele>165.4</ele>
        <time>2019-06-01T06:59:02Z</time>
      </trkpt>
      <trkpt lat="44.11471" lon="4.54864">
        <ele>166</ele>
        <time>2019-06-01T06:59:04Z</time>
      </trkpt>
      <trkpt lat="44.11475" lon="4.54863">
        <ele>166.5</ele>
        <time>2019-06-01T06:59:06Z</time>
      </trkpt>
      <trkpt lat="44.1148" lon="4.54862">
        <ele>167.2</ele>
        <time>2019-06-01T06:59:08Z</time>
      </trkpt>
      <trkpt lat="44.11485" lon="4.54862">
        <ele>167.5</ele>
        <time>2019-06-01T06:59:10Z</time>
      </trkpt>
      <trkpt lat="44.11489" lon="4.54861">
        <ele>167.8</ele>
        <time>2019-06-01T06:59:12Z</time>
      </trkpt>
      <trkpt lat="44.11493" lon="4.54861">
        <ele>168.5</ele>
        <time>2019-06-01T06:59:14Z</time>
      </trkpt>
      <trkpt lat="44.11497" lon="4.54862">
        <ele>168.8</ele>
        <time>2019-06-01T06:59:16Z</time>
      </trkpt>
      <trkpt lat="44.115" lon="4.54862">
        <ele>169.2</ele>
        <time>2019-06-01T06:59:18Z</time>
      </trkpt>
      <trkpt lat="44.11504" lon="4.54863">
        <ele>169.5</ele>
        <time>2019-06-01T06:59:20Z</time>
      </trkpt>
      <trkpt lat="44.11509" lon="4.54863">
        <ele>170.1</ele>
        <time>2019-06-01T06:59:22Z</time>
      </trkpt>
      <trkpt lat="44.11513" lon="4.54861">
        <ele>170.4</ele>
        <time>2019-06-01T06:59:24Z</time>
      </trkpt>
      <trkpt lat="44.11516" lon="4.5486">
        <ele>170.6</ele>
        <time>2019-06-01T06:59:26Z</time>
      </trkpt>
      <trkpt lat="44.1152" lon="4.54859">
        <ele>171.3</ele>
        <time>2019-06-01T06:59:28Z</time>
      </trkpt>
      <trkpt lat="44.11524" lon="4.54857">
        <ele>171.5</ele>
        <time>2019-06-01T06:59:30Z</time>
      </trkpt>
      <trkpt lat="44.11527" lon="4.54855">
        <ele>171.9</ele>
        <time>2019-06-01T06:59:32Z</time>
      </trkpt>
      <trkpt lat="44.11528" lon="4.5485">
        <ele>172</ele>
        <time>2019-06-01T06:59:34Z</time>
      </trkpt>
      <trkpt lat="44.11528" lon="4.54846">
        <ele>172.2</ele>
        <time>2019-06-01T06:59:36Z</time>
      </trkpt>
      <trkpt lat="44.11528" lon="4.54841">
        <ele>172.5</ele>
        <time>2019-06-01T06:59:38Z</time>
      </trkpt>
      <trkpt lat="44.11529" lon="4.54837">
        <ele>172.8</ele>
        <time>2019-06-01T06:59:40Z</time>
      </trkpt>
      <trkpt lat="44.1153" lon="4.54832">
        <ele>173.1</ele>
        <time>2019-06-01T06:59:42Z</time>
      </trkpt>
      <trkpt lat="44.11533" lon="4.54829">
        <ele>173.5</ele>
        <time>2019-06-01T06:59:44Z</time>
      </trkpt>
      <trkpt lat="44.11534" lon="4.54824">
        <ele>173.9</ele>
        <time>2019-06-01T06:59:46Z</time>
      </trkpt>
      <trkpt lat="44.11534" lon="4.5482">
        <ele>174.3</ele>
        <time>2019-06-01T06:59:48Z</time>
      </trkpt>
      <trkpt lat="44.11534" lon="4.54815">
        <ele>174.8</ele>
        <time>2019-06-01T06:59:50Z</time>
      </trkpt>
      <trkpt lat="44.11534" lon="4.54808">
        <ele>175.3</ele>
        <time>2019-06-01T06:59:52Z</time>
      </trkpt>
      <trkpt lat="44.11535" lon="4.54802">
        <ele>175.6</ele>
        <time>2019-06-01T06:59:54Z</time>
      </trkpt>
      <trkpt lat="44.11535" lon="4.54795">
        <ele>175.9</ele>
        <time>2019-06-01T06:59:56Z</time>
      </trkpt>
      <trkpt lat="44.11536" lon="4.54788">
        <ele>175.9</ele>
        <time>2019-06-01T06:59:58Z</time>
      </trkpt>
      <trkpt lat="44.11536" lon="4.54781">
        <ele>176</ele>
        <time>2019-06-01T07:00:00Z</time>
      </trkpt>
      <trkpt lat="44.11537" lon="4.54775">
        <ele>175.9</ele>
        <time>2019-06-01T07:00:02Z</time>
      </trkpt>
      <trkpt lat="44.11537" lon="4.54768">
        <ele>175.9</ele>
        <time>2019-06-01T07:00:04Z</time>
      </trkpt>
      <trkpt lat="44.11536" lon="4.54762">
        <ele>175.9</ele>
        <time>2019-06-01T07:00:06Z</time>
      </trkpt>
      <trkpt lat="44.11537" lon="4.54755">
        <ele>176</ele>
        <time>2019-06-01T07:00:08Z</time>
      </trkpt>
      <trkpt lat="44.11537" lon="4.54749">
        <ele>176</ele>
        <time>2019-06-01T07:00:10Z</time>
      </trkpt>
      <trkpt lat="44.11537" lon="4.54743">
        <ele>176</ele>
        <time>2019-06-01T07:00:12Z</time>
      </trkpt>
      <trkpt lat="44.11537" lon="4.54736">
        <ele>176.1</ele>
        <time>2019-06-01T07:00:14Z</time>
      </trkpt>
      <trkpt lat="44.11537" lon="4.5473">
        <ele>176.2</ele>
        <time>2019-06-01T07:00:16Z</time>
      </trkpt>
      <trkpt lat="44.11537" lon="4.54723">
        <ele>176.3</ele>
        <time>2019-06-01T07:00:18Z</time>
      </trkpt>
      <trkpt lat="44.11537" lon="4.54717">
        <ele>176.5</ele>
        <time>2019-06-01T07:00:20Z</time>
      </trkpt>
      <trkpt lat="44.11537" lon="4.54711">
        <ele>176.6</ele>
        <time>2019-06-01T07:00:22Z</time>
      </trkpt>
      <trkpt lat="44.11537" lon="4.54705">
        <ele>176.8</ele>
        <time>2019-06-01T07:00:24Z</time>
      </trkpt>
      <trkpt lat="44.11538" lon="4.547">
        <ele>176.9</ele>
        <time>2019-06-01T07:00:26Z</time>
      </trkpt>
      <trkpt lat="44.11539" lon="4.54694">
        <ele>177.1</ele>
        <time>2019-06-01T07:00:28Z</time>
      </trkpt>
      <trkpt lat="44.11541" lon="4.54689">
        <ele>177.3</ele>
        <time>2019-06-01T07:00:30Z</time>
      </trkpt>
      <trkpt lat="44.11543" lon="4.54684">
        <ele>177.5</ele>
        <time>2019-06-01T07:00:32Z</time>
      </trkpt>
      <trkpt lat="44.11545" lon="4.54681">
        <ele>177.7</ele>
        <time>2019-06-01T07:00:34Z</time>
      </trkpt>
      <trkpt lat="44.11548" lon="4.54676">
        <ele>178</ele>
        <time>2019-06-01T07:00:36Z</time>
      </trkpt>
      <trkpt lat="44.11549" lon="4.5467">
        <ele>178.2</ele>
        <time>2019-06-01T07:00:38Z</time>
      </trkpt>
      <trkpt lat="44.1155" lon="4.54663">
        <ele>178.5</ele>
        <time>2019-06-01T07:00:40Z</time>
      </trkpt>
      <trkpt lat="44.11551" lon="4.54656">
        <ele>178.7</ele>
        <time>2019-06-01T07:00:42Z</time>
      </trkpt>
      <trkpt lat="44.11551" lon="4.5465">
        <ele>178.9</ele>
        <time>2019-06-01T07:00:44Z</time>
      </trkpt>
      <trkpt lat="44.11552" lon="4.54644">
        <ele>179</ele>
        <time>2019-06-01T07:00:46Z</time>
      </trkpt>
      <trkpt lat="44.11554" lon="4.54639">
        <ele>179.1</ele>
        <time>2019-06-01T07:00:48Z</time>
      </trkpt>
      <trkpt lat="44.11556" lon="4.54634">
        <ele>179.2</ele>
        <time>2019-06-01T07:00:50Z</time>
      </trkpt>
      <trkpt lat="44.11557" lon="4.54628">
        <ele>179.3</ele>
        <time>2019-06-01T07:00:52Z</time>
      </trkpt>
      <trkpt lat="44.11557" lon="4.54622">
        <ele>179.4</ele>
        <time>2019-06-01T07:00:54Z</time>
      </trkpt>
      <trkpt lat="44.11558" lon="4.54617">
        <ele>179.5</ele>
        <time>2019-06-01T07:00:56Z</time>
      </trkpt>
      <trkpt lat="44.1156" lon="4.54611">
        <ele>179.6</ele>
        <time>2019-06-01T07:00:58Z</time>
      </trkpt>
      <trkpt lat="44.11562" lon="4.54609">
        <ele>179.7</ele>
        <time>2019-06-01T07:00:59Z</time>
      </trkpt>
      <trkpt lat="44.11565" lon="4.54608">
        <ele>179.7</ele>
        <time>2019-06-01T07:01:00Z</time>
      </trkpt>
      <trkpt lat="44.11568" lon="4.54609">
        <ele>179.8</ele>
        <time>2019-06-01T07:01:01Z</time>
      </trkpt>
      <trkpt lat="44.11571" lon="4.5461">
        <ele>179.8</ele>
        <time>2019-06-01T07:01:02Z</time>
      </trkpt>
      <trkpt lat="44.11574" lon="4.54612">
        <ele>179.8</ele>
        <time>2019-06-01T07:01:03Z</time>
      </trkpt>
      <trkpt lat="44.11576" lon="4.54614">
        <ele>179.8</ele>
        <time>2019-06-01T07:01:04Z</time>
      </trkpt>
      <trkpt lat="44.11579" lon="4.54615">
        <ele>179.9</ele>
        <time>2019-06-01T07:01:05Z</time>
      </trkpt>
      <trkpt lat="44.11582" lon="4.54616">
        <ele>179.9</ele>
        <time>2019-06-01T07:01:06Z</time>
      </trkpt>
      <trkpt lat="44.11584" lon="4.54618">
        <ele>179.9</ele>
        <time>2019-06-01T07:01:07Z</time>
      </trkpt>
      <trkpt lat="44.11587" lon="4.54619">
        <ele>180</ele>
        <time>2019-06-01T07:01:08Z</time>
      </trkpt>
      <trkpt lat="44.1159" lon="4.5462">
        <ele>180</ele>
        <time>2019-06-01T07:01:09Z</time>
      </trkpt>
      <trkpt lat="44.11595" lon="4.54622">
        <ele>180.2</ele>
        <time>2019-06-01T07:01:11Z</time>
      </trkpt>
      <trkpt lat="44.116" lon="4.54623">
        <ele>180.4</ele>
        <time>2019-06-01T07:01:13Z</time>
      </trkpt>
      <trkpt lat="44.11603" lon="4.54623">
        <ele>180.5</ele>
        <time>2019-06-01T07:01:14Z</time>
      </trkpt>
      <trkpt lat="44.11606" lon="4.54623">
        <ele>180.7</ele>
        <time>2019-06-01T07:01:15Z</time>
      </trkpt>
      <trkpt lat="44.11608" lon="4.54621">
        <ele>180.8</ele>
        <time>2019-06-01T07:01:16Z</time>
      </trkpt>
      <trkpt lat="44.11612" lon="4.54617">
        <ele>180.9</ele>
        <time>2019-06-01T07:01:18Z</time>
      </trkpt>
      <trkpt lat="44.11616" lon="4.54612">
        <ele>181.1</ele>
        <time>2019-06-01T07:01:20Z</time>
      </trkpt>
      <trkpt lat="44.11619" lon="4.54608">
        <ele>181.1</ele>
        <time>2019-06-01T07:01:22Z</time>
      </trkpt>
      <trkpt lat="44.11621" lon="4.54603">
        <ele>180.9</ele>
        <time>2019-06-01T07:01:24Z</time>
      </trkpt>
      <trkpt lat="44.11623" lon="4.54599">
        <ele>180.9</ele>
        <time>2019-06-01T07:01:26Z</time>
      </trkpt>
      <trkpt lat="44.11625" lon="4.54594">
        <ele>180.8</ele>
        <time>2019-06-01T07:01:28Z</time>
      </trkpt>
      <trkpt lat="44.11628" lon="4.5459">
        <ele>180.8</ele>
        <time>2019-06-01T07:01:30Z</time>
      </trkpt>
      <trkpt lat="44.1163" lon="4.54587">
        <ele>180.5</ele>
        <time>2019-06-01T07:02:04Z</time>
      </trkpt>
      <trkpt lat="44.11633" lon="4.54586">
        <ele>180.7</ele>
        <time>2019-06-01T07:02:06Z</time>
      </trkpt>
      <trkpt lat="44.11637" lon="4.54584">
        <ele>180.8</ele>
        <time>2019-06-01T07:02:08Z</time>
      </trkpt>
      <trkpt lat="44.11641" lon="4.54584">
        <ele>181.2</ele>
        <time>2019-06-01T07:02:10Z</time>
      </trkpt>
      <trkpt lat="44.11646" lon="4.54586">
        <ele>181.6</ele>
        <time>2019-06-01T07:02:12Z</time>
      </trkpt>
      <trkpt lat="44.11651" lon="4.54589">
        <ele>182</ele>
        <time>2019-06-01T07:02:14Z</time>
      </trkpt>
      <trkpt lat="44.11654" lon="4.54593">
        <ele>182.4</ele>
        <time>2019-06-01T07:02:16Z</time>
      </trkpt>
      <trkpt lat="44.11657" lon="4.54597">
        <ele>182.6</ele>
        <time>2019-06-01T07:02:18Z</time>
      </trkpt>
      <trkpt lat="44.1166" lon="4.54598">
        <ele>182.9</ele>
        <time>2019-06-01T07:02:21Z</time>
      </trkpt>
      <trkpt lat="44.11665" lon="4.546">
        <ele>183.2</ele>
        <time>2019-06-01T07:02:23Z</time>
      </trkpt>
      <trkpt lat="44.11669" lon="4.54601">
        <ele>183.4</ele>
        <time>2019-06-01T07:02:25Z</time>
      </trkpt>
      <trkpt lat="44.11673" lon="4.54603">
        <ele>183.7</ele>
        <time>2019-06-01T07:02:27Z</time>
      </trkpt>
      <trkpt lat="44.11677" lon="4.54604">
        <ele>184</ele>
        <time>2019-06-01T07:02:29Z</time>
      </trkpt>
      <trkpt lat="44.11681" lon="4.54607">
        <ele>184.3</ele>
        <time>2019-06-01T07:02:31Z</time>
      </trkpt>
      <trkpt lat="44.11686" lon="4.54609">
        <ele>184.6</ele>
        <time>2019-06-01T07:02:33Z</time>
      </trkpt>
      <trkpt lat="44.1169" lon="4.54611">
        <ele>184.8</ele>
        <time>2019-06-01T07:02:35Z</time>
      </trkpt>
      <trkpt lat="44.11694" lon="4.54613">
        <ele>185.1</ele>
        <time>2019-06-01T07:02:37Z</time>
      </trkpt>
      <trkpt lat="44.11697" lon="4.54614">
        <ele>185.4</ele>
        <time>2019-06-01T07:02:38Z</time>
      </trkpt>
      <trkpt lat="44.11701" lon="4.54616">
        <ele>185.6</ele>
        <time>2019-06-01T07:02:39Z</time>
      </trkpt>
      <trkpt lat="44.11704" lon="4.54619">
        <ele>185.8</ele>
        <time>2019-06-01T07:02:40Z</time>
      </trkpt>
      <trkpt lat="44.11707" lon="4.54621">
        <ele>186</ele>
        <time>2019-06-01T07:02:41Z</time>
      </trkpt>
      <trkpt lat="44.11709" lon="4.54625">
        <ele>186.2</ele>
        <time>2019-06-01T07:02:42Z</time>
      </trkpt>
      <trkpt lat="44.11712" lon="4.54628">
        <ele>186.4</ele>
        <time>2019-06-01T07:02:43Z</time>
      </trkpt>
      <trkpt lat="44.11716" lon="4.54631">
        <ele>186.6</ele>
        <time>2019-06-01T07:02:44Z</time>
      </trkpt>
      <trkpt lat="44.1172" lon="4.54634">
        <ele>186.8</ele>
        <time>2019-06-01T07:02:45Z</time>
      </trkpt>
      <trkpt lat="44.11724" lon="4.54637">
        <ele>187</ele>
        <time>2019-06-01T07:02:46Z</time>
      </trkpt>
      <trkpt lat="44.11728" lon="4.54639">
        <ele>187.1</ele>
        <time>2019-06-01T07:02:47Z</time>
      </trkpt>
      <trkpt lat="44.11732" lon="4.54639">
        <ele>187.3</ele>
        <time>2019-06-01T07:02:48Z</time>
      </trkpt>
      <trkpt lat="44.11736" lon="4.54637">
        <ele>187.5</ele>
        <time>2019-06-01T07:02:49Z</time>
      </trkpt>
      <trkpt lat="44.1174" lon="4.54634">
        <ele>187.5</ele>
        <time>2019-06-01T07:02:50Z</time>
      </trkpt>
      <trkpt lat="44.11744" lon="4.54631">
        <ele>187.4</ele>
        <time>2019-06-01T07:02:51Z</time>
      </trkpt>
      <trkpt lat="44.11753" lon="4.54623">
        <ele>187.2</ele>
        <time>2019-06-01T07:02:52Z</time>
      </trkpt>
      <trkpt lat="44.11758" lon="4.54622">
        <ele>187.1</ele>
        <time>2019-06-01T07:02:53Z</time>
      </trkpt>
      <trkpt lat="44.11762" lon="4.54619">
        <ele>187</ele>
        <time>2019-06-01T07:02:54Z</time>
      </trkpt>
      <trkpt lat="44.11766" lon="4.54619">
        <ele>187</ele>
        <time>2019-06-01T07:02:55Z</time>
      </trkpt>
      <trkpt lat="44.1177" lon="4.54618">
        <ele>186.9</ele>
        <time>2019-06-01T07:02:56Z</time>
      </trkpt>
      <trkpt lat="44.11776" lon="4.54616">
        <ele>186.9</ele>
        <time>2019-06-01T07:02:57Z</time>
      </trkpt>
      <trkpt lat="44.11781" lon="4.54615">
        <ele>186.8</ele>
        <time>2019-06-01T07:02:58Z</time>
      </trkpt>
      <trkpt lat="44.11788" lon="4.54617">
        <ele>186.7</ele>
        <time>2019-06-01T07:02:59Z</time>
      </trkpt>
      <trkpt lat="44.11792" lon="4.54614">
        <ele>186.7</ele>
        <time>2019-06-01T07:03:00Z</time>
      </trkpt>
      <trkpt lat="44.11798" lon="4.54612">
        <ele>186.6</ele>
        <time>2019-06-01T07:03:01Z</time>
      </trkpt>
      <trkpt lat="44.11803" lon="4.54609">
        <ele>186.5</ele>
        <time>2019-06-01T07:03:02Z</time>
      </trkpt>
      <trkpt lat="44.11808" lon="4.54609">
        <ele>186.4</ele>
        <time>2019-06-01T07:03:03Z</time>
      </trkpt>
      <trkpt lat="44.11814" lon="4.54606">
        <ele>186.3</ele>
        <time>2019-06-01T07:03:04Z</time>
      </trkpt>
      <trkpt lat="44.11818" lon="4.54601">
        <ele>186.3</ele>
        <time>2019-06-01T07:03:05Z</time>
      </trkpt>
      <trkpt lat="44.11823" lon="4.54597">
        <ele>186.2</ele>
        <time>2019-06-01T07:03:06Z</time>
      </trkpt>
      <trkpt lat="44.11827" lon="4.5459">
        <ele>186.2</ele>
        <time>2019-06-01T07:03:07Z</time>
      </trkpt>
      <trkpt lat="44.11831" lon="4.54579">
        <ele>186.1</ele>
        <time>2019-06-01T07:03:08Z</time>
      </trkpt>
      <trkpt lat="44.11834" lon="4.54571">
        <ele>186</ele>
        <time>2019-06-01T07:03:09Z</time>
      </trkpt>
      <trkpt lat="44.11838" lon="4.54563">
        <ele>186</ele>
        <time>2019-06-01T07:03:10Z</time>
      </trkpt>
      <trkpt lat="44.11841" lon="4.54556">
        <ele>186</ele>
        <time>2019-06-01T07:03:11Z</time>
      </trkpt>
      <trkpt lat="44.11843" lon="4.54549">
        <ele>186</ele>
        <time>2019-06-01T07:03:12Z</time>
      </trkpt>
      <trkpt lat="44.11845" lon="4.54542">
        <ele>186</ele>
        <time>2019-06-01T07:03:13Z</time>
      </trkpt>
      <trkpt lat="44.11847" lon="4.54533">
        <ele>186.1</ele>
        <time>2019-06-01T07:03:14Z</time>
      </trkpt>
      <trkpt lat="44.11849" lon="4.54526">
        <ele>186.3</ele>
        <time>2019-06-01T07:03:15Z</time>
      </trkpt>
      <trkpt lat="44.1185" lon="4.54518">
        <ele>186.5</ele>
        <time>2019-06-01T07:03:16Z</time>
      </trkpt>
      <trkpt lat="44.11853" lon="4.54511">
        <ele>186.8</ele>
        <time>2019-06-01T07:03:17Z</time>
      </trkpt>
      <trkpt lat="44.11856" lon="4.54504">
        <ele>187.1</ele>
        <time>2019-06-01T07:03:18Z</time>
      </trkpt>
      <trkpt lat="44.11858" lon="4.54497">
        <ele>187.3</ele>
        <time>2019-06-01T07:03:19Z</time>
      </trkpt>
      <trkpt lat="44.11861" lon="4.54491">
        <ele>187.5</ele>
        <time>2019-06-01T07:03:20Z</time>
      </trkpt>
      <trkpt lat="44.11864" lon="4.54486">
        <ele>187.7</ele>
        <time>2019-06-01T07:03:21Z</time>
      </trkpt>
      <trkpt lat="44.11866" lon="4.5448">
        <ele>187.8</ele>
        <time>2019-06-01T07:03:22Z</time>
      </trkpt>
      <trkpt lat="44.1187" lon="4.54475">
        <ele>187.9</ele>
        <time>2019-06-01T07:03:23Z</time>
      </trkpt>
      <trkpt lat="44.11873" lon="4.5447">
        <ele>187.9</ele>
        <time>2019-06-01T07:03:24Z</time>
      </trkpt>
      <trkpt lat="44.11878" lon="4.54465">
        <ele>187.9</ele>
        <time>2019-06-01T07:03:25Z</time>
      </trkpt>
      <trkpt lat="44.11883" lon="4.5446">
        <ele>187.8</ele>
        <time>2019-06-01T07:03:26Z</time>
      </trkpt>
      <trkpt lat="44.11887" lon="4.54455">
        <ele>187.7</ele>
        <time>2019-06-01T07:03:27Z</time>
      </trkpt>
      <trkpt lat="44.11892" lon="4.5445">
        <ele>187.6</ele>
        <time>2019-06-01T07:03:28Z</time>
      </trkpt>
      <trkpt lat="44.11896" lon="4.54445">
        <ele>187.4</ele>
        <time>2019-06-01T07:03:29Z</time>
      </trkpt>
      <trkpt lat="44.11901" lon="4.54439">
        <ele>187.3</ele>
        <time>2019-06-01T07:03:30Z</time>
      </trkpt>
      <trkpt lat="44.11906" lon="4.54435">
        <ele>187.2</ele>
        <time>2019-06-01T07:03:31Z</time>
      </trkpt>
      <trkpt lat="44.11911" lon="4.5443">
        <ele>187.1</ele>
        <time>2019-06-01T07:03:32Z</time>
      </trkpt>
      <trkpt lat="44.11915" lon="4.54426">
        <ele>187</ele>
        <time>2019-06-01T07:03:33Z</time>
      </trkpt>
      <trkpt lat="44.1192" lon="4.54421">
        <ele>186.9</ele>
        <time>2019-06-01T07:03:34Z</time>
      </trkpt>
      <trkpt lat="44.11925" lon="4.54417">
        <ele>186.7</ele>
        <time>2019-06-01T07:03:35Z</time>
      </trkpt>
      <trkpt lat="44.11929" lon="4.54414">
        <ele>186.7</ele>
        <time>2019-06-01T07:03:36Z</time>
      </trkpt>
      <trkpt lat="44.11934" lon="4.5441">
        <ele>186.5</ele>
        <time>2019-06-01T07:03:37Z</time>
      </trkpt>
      <trkpt lat="44.11939" lon="4.54407">
        <ele>186.4</ele>
        <time>2019-06-01T07:03:38Z</time>
      </trkpt>
      <trkpt lat="44.11944" lon="4.54403">
        <ele>186.3</ele>
        <time>2019-06-01T07:03:39Z</time>
      </trkpt>
      <trkpt lat="44.11949" lon="4.54401">
        <ele>186.1</ele>
        <time>2019-06-01T07:03:40Z</time>
      </trkpt>
      <trkpt lat="44.11953" lon="4.54394">
        <ele>186</ele>
        <time>2019-06-01T07:03:41Z</time>
      </trkpt>
      <trkpt lat="44.11957" lon="4.54386">
        <ele>185.7</ele>
        <time>2019-06-01T07:03:42Z</time>
      </trkpt>
      <trkpt lat="44.11961" lon="4.54378">
        <ele>185.5</ele>
        <time>2019-06-01T07:03:43Z</time>
      </trkpt>
      <trkpt lat="44.11964" lon="4.54371">
        <ele>185.3</ele>
        <time>2019-06-01T07:03:44Z</time>
      </trkpt>
      <trkpt lat="44.11973" lon="4.54358">
        <ele>185</ele>
        <time>2019-06-01T07:03:45Z</time>
      </trkpt>
      <trkpt lat="44.11975" lon="4.54353">
        <ele>184.9</ele>
        <time>2019-06-01T07:03:46Z</time>
      </trkpt>
      <trkpt lat="44.11979" lon="4.54354">
        <ele>184.9</ele>
        <time>2019-06-01T07:03:48Z</time>
      </trkpt>
      <trkpt lat="44.11983" lon="4.54355">
        <ele>184.9</ele>
        <time>2019-06-01T07:03:49Z</time>
      </trkpt>
      <trkpt lat="44.11987" lon="4.54354">
        <ele>184.8</ele>
        <time>2019-06-01T07:03:51Z</time>
      </trkpt>
      <trkpt lat="44.11991" lon="4.54353">
        <ele>184.8</ele>
        <time>2019-06-01T07:03:52Z</time>
      </trkpt>
      <trkpt lat="44.11999" lon="4.54351">
        <ele>184.9</ele>
        <time>2019-06-01T07:03:54Z</time>
      </trkpt>
      <trkpt lat="44.12003" lon="4.54346">
        <ele>184.9</ele>
        <time>2019-06-01T07:03:55Z</time>
      </trkpt>
      <trkpt lat="44.12008" lon="4.54341">
        <ele>184.9</ele>
        <time>2019-06-01T07:03:56Z</time>
      </trkpt>
      <trkpt lat="44.12014" lon="4.54328">
        <ele>185.1</ele>
        <time>2019-06-01T07:03:58Z</time>
      </trkpt>
      <trkpt lat="44.12016" lon="4.54323">
        <ele>185.1</ele>
        <time>2019-06-01T07:03:59Z</time>
      </trkpt>
      <trkpt lat="44.12015" lon="4.54313">
        <ele>185.2</ele>
        <time>2019-06-01T07:04:00Z</time>
      </trkpt>
      <trkpt lat="44.12017" lon="4.54308">
        <ele>185.2</ele>
        <time>2019-06-01T07:04:01Z</time>
      </trkpt>
      <trkpt lat="44.12024" lon="4.54301">
        <ele>185.4</ele>
        <time>2019-06-01T07:04:02Z</time>
      </trkpt>
      <trkpt lat="44.12027" lon="4.54298">
        <ele>185.4</ele>
        <time>2019-06-01T07:04:03Z</time>
      </trkpt>
      <trkpt lat="44.1203" lon="4.54294">
        <ele>185.5</ele>
        <time>2019-06-01T07:04:05Z</time>
      </trkpt>
      <trkpt lat="44.12033" lon="4.54293">
        <ele>185.6</ele>
        <time>2019-06-01T07:04:07Z</time>
      </trkpt>
      <trkpt lat="44.12037" lon="4.54291">
        <ele>185.7</ele>
        <time>2019-06-01T07:04:09Z</time>
      </trkpt>
      <trkpt lat="44.1204" lon="4.5429">
        <ele>185.8</ele>
        <time>2019-06-01T07:04:10Z</time>
      </trkpt>
      <trkpt lat="44.12042" lon="4.54288">
        <ele>187.1</ele>
        <time>2019-06-01T07:04:14Z</time>
      </trkpt>
      <trkpt lat="44.12045" lon="4.54289">
        <ele>187.2</ele>
        <time>2019-06-01T07:04:15Z</time>
      </trkpt>
      <trkpt lat="44.12049" lon="4.5429">
        <ele>187.3</ele>
        <time>2019-06-01T07:04:17Z</time>
      </trkpt>
      <trkpt lat="44.12052" lon="4.54291">
        <ele>187.4</ele>
        <time>2019-06-01T07:04:18Z</time>
      </trkpt>
      <trkpt lat="44.12055" lon="4.54292">
        <ele>187.5</ele>
        <time>2019-06-01T07:04:19Z</time>
      </trkpt>
      <trkpt lat="44.1206" lon="4.54292">
        <ele>187.7</ele>
        <time>2019-06-01T07:04:21Z</time>
      </trkpt>
      <trkpt lat="44.12063" lon="4.54292">
        <ele>187.8</ele>
        <time>2019-06-01T07:04:22Z</time>
      </trkpt>
      <trkpt lat="44.12066" lon="4.54291">
        <ele>187.9</ele>
        <time>2019-06-01T07:04:23Z</time>
      </trkpt>
      <trkpt lat="44.1207" lon="4.5429">
        <ele>188</ele>
        <time>2019-06-01T07:04:25Z</time>
      </trkpt>
      <trkpt lat="44.12072" lon="4.54286">
        <ele>188.1</ele>
        <time>2019-06-01T07:04:36Z</time>
      </trkpt>
      <trkpt lat="44.12074" lon="4.54283">
        <ele>188.2</ele>
        <time>2019-06-01T07:04:38Z</time>
      </trkpt>
      <trkpt lat="44.12076" lon="4.54278">
        <ele>188.3</ele>
        <time>2019-06-01T07:04:40Z</time>
      </trkpt>
      <trkpt lat="44.12076" lon="4.54275">
        <ele>188.4</ele>
        <time>2019-06-01T07:04:41Z</time>
      </trkpt>
      <trkpt lat="44.12077" lon="4.5427">
        <ele>188.5</ele>
        <time>2019-06-01T07:04:42Z</time>
      </trkpt>
      <trkpt lat="44.12078" lon="4.54264">
        <ele>188.6</ele>
        <time>2019-06-01T07:04:44Z</time>
      </trkpt>
      <trkpt lat="44.12078" lon="4.54258">
        <ele>188.7</ele>
        <time>2019-06-01T07:04:46Z</time>
      </trkpt>
      <trkpt lat="44.12079" lon="4.54253">
        <ele>188.8</ele>
        <time>2019-06-01T07:04:47Z</time>
      </trkpt>
      <trkpt lat="44.12079" lon="4.54249">
        <ele>188.9</ele>
        <time>2019-06-01T07:04:48Z</time>
      </trkpt>
      <trkpt lat="44.12079" lon="4.54241">
        <ele>189</ele>
        <time>2019-06-01T07:04:50Z</time>
      </trkpt>
      <trkpt lat="44.12079" lon="4.54236">
        <ele>189</ele>
        <time>2019-06-01T07:04:51Z</time>
      </trkpt>
      <trkpt lat="44.12079" lon="4.54231">
        <ele>189</ele>
        <time>2019-06-01T07:04:53Z</time>
      </trkpt>
      <trkpt lat="44.1208" lon="4.54227">
        <ele>189</ele>
        <time>2019-06-01T07:04:54Z</time>
      </trkpt>
      <trkpt lat="44.12081" lon="4.54222">
        <ele>189</ele>
        <time>2019-06-01T07:04:55Z</time>
      </trkpt>
      <trkpt lat="44.12082" lon="4.54217">
        <ele>189</ele>
        <time>2019-06-01T07:04:56Z</time>
      </trkpt>
      <trkpt lat="44.12082" lon="4.54213">
        <ele>189</ele>
        <time>2019-06-01T07:04:57Z</time>
      </trkpt>
      <trkpt lat="44.12083" lon="4.54207">
        <ele>188.9</ele>
        <time>2019-06-01T07:04:59Z</time>
      </trkpt>
      <trkpt lat="44.12085" lon="4.54204">
        <ele>188.9</ele>
        <time>2019-06-01T07:05:01Z</time>
      </trkpt>
      <trkpt lat="44.12087" lon="4.54199">
        <ele>188.8</ele>
        <time>2019-06-01T07:05:03Z</time>
      </trkpt>
      <trkpt lat="44.12087" lon="4.54193">
        <ele>188.7</ele>
        <time>2019-06-01T07:05:05Z</time>
      </trkpt>
      <trkpt lat="44.12088" lon="4.54188">
        <ele>188.6</ele>
        <time>2019-06-01T07:05:07Z</time>
      </trkpt>
      <trkpt lat="44.12088" lon="4.54184">
        <ele>188.5</ele>
        <time>2019-06-01T07:05:08Z</time>
      </trkpt>
      <trkpt lat="44.12089" lon="4.54179">
        <ele>188.5</ele>
        <time>2019-06-01T07:05:09Z</time>
      </trkpt>
      <trkpt lat="44.12089" lon="4.54174">
        <ele>188.4</ele>
        <time>2019-06-01T07:05:10Z</time>
      </trkpt>
      <trkpt lat="44.12089" lon="4.54169">
        <ele>188.4</ele>
        <time>2019-06-01T07:05:11Z</time>
      </trkpt>
      <trkpt lat="44.12089" lon="4.54165">
        <ele>188.4</ele>
        <time>2019-06-01T07:05:12Z</time>
      </trkpt>
      <trkpt lat="44.12089" lon="4.54161">
        <ele>188.4</ele>
        <time>2019-06-01T07:05:13Z</time>
      </trkpt>
      <trkpt lat="44.12091" lon="4.54154">
        <ele>188.5</ele>
        <time>2019-06-01T07:05:15Z</time>
      </trkpt>
      <trkpt lat="44.12093" lon="4.5415">
        <ele>188.5</ele>
        <time>2019-06-01T07:05:16Z</time>
      </trkpt>
      <trkpt lat="44.12096" lon="4.54148">
        <ele>188.5</ele>
        <time>2019-06-01T07:05:17Z</time>
      </trkpt>
      <trkpt lat="44.12098" lon="4.54144">
        <ele>188.7</ele>
        <time>2019-06-01T07:05:18Z</time>
      </trkpt>
      <trkpt lat="44.12099" lon="4.5414">
        <ele>188.8</ele>
        <time>2019-06-01T07:05:19Z</time>
      </trkpt>
      <trkpt lat="44.121" lon="4.54134">
        <ele>188.9</ele>
        <time>2019-06-01T07:05:20Z</time>
      </trkpt>
      <trkpt lat="44.12101" lon="4.54129">
        <ele>189.1</ele>
        <time>2019-06-01T07:05:21Z</time>
      </trkpt>
      <trkpt lat="44.12102" lon="4.54125">
        <ele>189.2</ele>
        <time>2019-06-01T07:05:22Z</time>
      </trkpt>
      <trkpt lat="44.12104" lon="4.54118">
        <ele>189.5</ele>
        <time>2019-06-01T07:05:24Z</time>
      </trkpt>
      <trkpt lat="44.12105" lon="4.54115">
        <ele>189.6</ele>
        <time>2019-06-01T07:05:25Z</time>
      </trkpt>
      <trkpt lat="44.12107" lon="4.54112">
        <ele>189.7</ele>
        <time>2019-06-01T07:05:26Z</time>
      </trkpt>
      <trkpt lat="44.1211" lon="4.5411">
        <ele>189.8</ele>
        <time>2019-06-01T07:05:27Z</time>
      </trkpt>
      <trkpt lat="44.12112" lon="4.54107">
        <ele>189.9</ele>
        <time>2019-06-01T07:05:28Z</time>
      </trkpt>
      <trkpt lat="44.12114" lon="4.54104">
        <ele>190</ele>
        <time>2019-06-01T07:05:29Z</time>
      </trkpt>
      <trkpt lat="44.12116" lon="4.541">
        <ele>190.1</ele>
        <time>2019-06-01T07:05:30Z</time>
      </trkpt>
      <trkpt lat="44.12117" lon="4.54097">
        <ele>190.2</ele>
        <time>2019-06-01T07:05:31Z</time>
      </trkpt>
      <trkpt lat="44.12118" lon="4.54093">
        <ele>190.2</ele>
        <time>2019-06-01T07:05:32Z</time>
      </trkpt>
      <trkpt lat="44.12119" lon="4.54089">
        <ele>190.3</ele>
        <time>2019-06-01T07:05:33Z</time>
      </trkpt>
      <trkpt lat="44.12121" lon="4.54085">
        <ele>190.3</ele>
        <time>2019-06-01T07:05:34Z</time>
      </trkpt>
      <trkpt lat="44.12122" lon="4.54082">
        <ele>190.4</ele>
        <time>2019-06-01T07:05:35Z</time>
      </trkpt>
      <trkpt lat="44.12124" lon="4.54078">
        <ele>190.4</ele>
        <time>2019-06-01T07:05:36Z</time>
      </trkpt>
      <trkpt lat="44.12126" lon="4.54074">
        <ele>190.5</ele>
        <time>2019-06-01T07:05:37Z</time>
      </trkpt>
      <trkpt lat="44.12128" lon="4.5407">
        <ele>190.5</ele>
        <time>2019-06-01T07:05:38Z</time>
      </trkpt>
      <trkpt lat="44.12129" lon="4.54066">
        <ele>190.6</ele>
        <time>2019-06-01T07:05:39Z</time>
      </trkpt>
      <trkpt lat="44.12131" lon="4.54061">
        <ele>190.6</ele>
        <time>2019-06-01T07:05:40Z</time>
      </trkpt>
      <trkpt lat="44.12133" lon="4.54058">
        <ele>190.7</ele>
        <time>2019-06-01T07:05:41Z</time>
      </trkpt>
      <trkpt lat="44.12134" lon="4.54054">
        <ele>190.7</ele>
        <time>2019-06-01T07:05:42Z</time>
      </trkpt>
      <trkpt lat="44.12136" lon="4.5405">
        <ele>190.7</ele>
        <time>2019-06-01T07:05:43Z</time>
      </trkpt>
      <trkpt lat="44.12137" lon="4.54046">
        <ele>190.8</ele>
        <time>2019-06-01T07:05:44Z</time>
      </trkpt>
      <trkpt lat="44.12137" lon="4.54042">
        <ele>190.8</ele>
        <time>2019-06-01T07:05:45Z</time>
      </trkpt>
      <trkpt lat="44.12138" lon="4.54037">
        <ele>190.8</ele>
        <time>2019-06-01T07:05:46Z</time>
      </trkpt>
      <trkpt lat="44.12138" lon="4.54032">
        <ele>190.8</ele>
        <time>2019-06-01T07:05:47Z</time>
      </trkpt>
      <trkpt lat="44.12139" lon="4.54028">
        <ele>190.9</ele>
        <time>2019-06-01T07:05:48Z</time>
      </trkpt>
      <trkpt lat="44.12141" lon="4.54024">
        <ele>190.9</ele>
        <time>2019-06-01T07:05:49Z</time>
      </trkpt>
      <trkpt lat="44.12143" lon="4.5402">
        <ele>190.9</ele>
        <time>2019-06-01T07:05:50Z</time>
      </trkpt>
      <trkpt lat="44.12146" lon="4.54016">
        <ele>190.9</ele>
        <time>2019-06-01T07:05:51Z</time>
      </trkpt>
      <trkpt lat="44.1215" lon="4.54011">
        <ele>191</ele>
        <time>2019-06-01T07:05:52Z</time>
      </trkpt>
      <trkpt lat="44.12153" lon="4.54006">
        <ele>191.1</ele>
        <time>2019-06-01T07:05:53Z</time>
      </trkpt>
      <trkpt lat="44.12156" lon="4.54001">
        <ele>191.3</ele>
        <time>2019-06-01T07:05:54Z</time>
      </trkpt>
      <trkpt lat="44.12158" lon="4.53997">
        <ele>191.4</ele>
        <time>2019-06-01T07:05:55Z</time>
      </trkpt>
      <trkpt lat="44.12161" lon="4.53993">
        <ele>191.6</ele>
        <time>2019-06-01T07:05:56Z</time>
      </trkpt>
      <trkpt lat="44.12163" lon="4.5399">
        <ele>191.7</ele>
        <time>2019-06-01T07:05:57Z</time>
      </trkpt>
      <trkpt lat="44.12166" lon="4.53987">
        <ele>191.9</ele>
        <time>2019-06-01T07:05:58Z</time>
      </trkpt>
      <trkpt lat="44.12168" lon="4.53984">
        <ele>192</ele>
        <time>2019-06-01T07:05:59Z</time>
      </trkpt>
      <trkpt lat="44.12171" lon="4.53982">
        <ele>192.2</ele>
        <time>2019-06-01T07:06:00Z</time>
      </trkpt>
      <trkpt lat="44.12174" lon="4.5398">
        <ele>192.3</ele>
        <time>2019-06-01T07:06:01Z</time>
      </trkpt>
      <trkpt lat="44.12178" lon="4.53978">
        <ele>192.5</ele>
        <time>2019-06-01T07:06:03Z</time>
      </trkpt>
      <trkpt lat="44.1218" lon="4.53976">
        <ele>192.6</ele>
        <time>2019-06-01T07:06:04Z</time>
      </trkpt>
      <trkpt lat="44.12182" lon="4.53973">
        <ele>192.8</ele>
        <time>2019-06-01T07:06:05Z</time>
      </trkpt>
      <trkpt lat="44.12185" lon="4.5397">
        <ele>192.9</ele>
        <time>2019-06-01T07:06:07Z</time>
      </trkpt>
      <trkpt lat="44.12187" lon="4.53965">
        <ele>193</ele>
        <time>2019-06-01T07:06:09Z</time>
      </trkpt>
      <trkpt lat="44.12189" lon="4.53962">
        <ele>193</ele>
        <time>2019-06-01T07:06:10Z</time>
      </trkpt>
      <trkpt lat="44.12191" lon="4.53959">
        <ele>193.1</ele>
        <time>2019-06-01T07:06:11Z</time>
      </trkpt>
      <trkpt lat="44.12194" lon="4.53957">
        <ele>193.2</ele>
        <time>2019-06-01T07:06:12Z</time>
      </trkpt>
      <trkpt lat="44.12197" lon="4.53954">
        <ele>193.2</ele>
        <time>2019-06-01T07:06:14Z</time>
      </trkpt>
      <trkpt lat="44.122" lon="4.5395">
        <ele>193.3</ele>
        <time>2019-06-01T07:06:16Z</time>
      </trkpt>
      <trkpt lat="44.12201" lon="4.53947">
        <ele>193.3</ele>
        <time>2019-06-01T07:06:17Z</time>
      </trkpt>
      <trkpt lat="44.12203" lon="4.53943">
        <ele>193.4</ele>
        <time>2019-06-01T07:06:18Z</time>
      </trkpt>
      <trkpt lat="44.12204" lon="4.53939">
        <ele>193.4</ele>
        <time>2019-06-01T07:06:19Z</time>
      </trkpt>
      <trkpt lat="44.12206" lon="4.53933">
        <ele>193.5</ele>
        <time>2019-06-01T07:06:21Z</time>
      </trkpt>
      <trkpt lat="44.12209" lon="4.53927">
        <ele>193.6</ele>
        <time>2019-06-01T07:06:23Z</time>
      </trkpt>
      <trkpt lat="44.1221" lon="4.53922">
        <ele>193.6</ele>
        <time>2019-06-01T07:06:24Z</time>
      </trkpt>
      <trkpt lat="44.12212" lon="4.53916">
        <ele>193.7</ele>
        <time>2019-06-01T07:06:26Z</time>
      </trkpt>
      <trkpt lat="44.12214" lon="4.53912">
        <ele>193.7</ele>
        <time>2019-06-01T07:06:28Z</time>
      </trkpt>
      <trkpt lat="44.12217" lon="4.53907">
        <ele>193.8</ele>
        <time>2019-06-01T07:06:30Z</time>
      </trkpt>
      <trkpt lat="44.1222" lon="4.53902">
        <ele>193.9</ele>
        <time>2019-06-01T07:06:32Z</time>
      </trkpt>
      <trkpt lat="44.12222" lon="4.53898">
        <ele>193.9</ele>
        <time>2019-06-01T07:06:33Z</time>
      </trkpt>
      <trkpt lat="44.12224" lon="4.53892">
        <ele>194</ele>
        <time>2019-06-01T07:06:35Z</time>
      </trkpt>
      <trkpt lat="44.12225" lon="4.53888">
        <ele>194</ele>
        <time>2019-06-01T07:06:36Z</time>
      </trkpt>
      <trkpt lat="44.12227" lon="4.53884">
        <ele>194</ele>
        <time>2019-06-01T07:06:37Z</time>
      </trkpt>
      <trkpt lat="44.12228" lon="4.5388">
        <ele>194.1</ele>
        <time>2019-06-01T07:06:38Z</time>
      </trkpt>
      <trkpt lat="44.12229" lon="4.53875">
        <ele>194.1</ele>
        <time>2019-06-01T07:06:39Z</time>
      </trkpt>
      <trkpt lat="44.1223" lon="4.53871">
        <ele>194.2</ele>
        <time>2019-06-01T07:06:40Z</time>
      </trkpt>
      <trkpt lat="44.12232" lon="4.53867">
        <ele>194.2</ele>
        <time>2019-06-01T07:06:42Z</time>
      </trkpt>
      <trkpt lat="44.12234" lon="4.53861">
        <ele>194.3</ele>
        <time>2019-06-01T07:06:44Z</time>
      </trkpt>
      <trkpt lat="44.12236" lon="4.53857">
        <ele>194.4</ele>
        <time>2019-06-01T07:06:46Z</time>
      </trkpt>
      <trkpt lat="44.12238" lon="4.53852">
        <ele>194.4</ele>
        <time>2019-06-01T07:06:48Z</time>
      </trkpt>
      <trkpt lat="44.1224" lon="4.53845">
        <ele>194.4</ele>
        <time>2019-06-01T07:06:50Z</time>
      </trkpt>
      <trkpt lat="44.12242" lon="4.53839">
        <ele>194.5</ele>
        <time>2019-06-01T07:06:52Z</time>
      </trkpt>
      <trkpt lat="44.12242" lon="4.53831">
        <ele>194.5</ele>
        <time>2019-06-01T07:06:54Z</time>
      </trkpt>
      <trkpt lat="44.12243" lon="4.53825">
        <ele>194.5</ele>
        <time>2019-06-01T07:06:56Z</time>
      </trkpt>
      <trkpt lat="44.12244" lon="4.53818">
        <ele>194.8</ele>
        <time>2019-06-01T07:06:58Z</time>
      </trkpt>
      <trkpt lat="44.12245" lon="4.53811">
        <ele>195</ele>
        <time>2019-06-01T07:07:00Z</time>
      </trkpt>
      <trkpt lat="44.12246" lon="4.53807">
        <ele>195.1</ele>
        <time>2019-06-01T07:07:01Z</time>
      </trkpt>
      <trkpt lat="44.12247" lon="4.53803">
        <ele>195.2</ele>
        <time>2019-06-01T07:07:02Z</time>
      </trkpt>
      <trkpt lat="44.12247" lon="4.53798">
        <ele>195.3</ele>
        <time>2019-06-01T07:07:03Z</time>
      </trkpt>
      <trkpt lat="44.12248" lon="4.53791">
        <ele>195.5</ele>
        <time>2019-06-01T07:07:05Z</time>
      </trkpt>
      <trkpt lat="44.12248" lon="4.53787">
        <ele>195.6</ele>
        <time>2019-06-01T07:07:06Z</time>
      </trkpt>
      <trkpt lat="44.12249" lon="4.53783">
        <ele>195.7</ele>
        <time>2019-06-01T07:07:07Z</time>
      </trkpt>
      <trkpt lat="44.1225" lon="4.53777">
        <ele>196.1</ele>
        <time>2019-06-01T07:07:09Z</time>
      </trkpt>
      <trkpt lat="44.12249" lon="4.5377">
        <ele>196.5</ele>
        <time>2019-06-01T07:07:11Z</time>
      </trkpt>
      <trkpt lat="44.12249" lon="4.53763">
        <ele>196.8</ele>
        <time>2019-06-01T07:07:13Z</time>
      </trkpt>
      <trkpt lat="44.12249" lon="4.53759">
        <ele>197.1</ele>
        <time>2019-06-01T07:07:14Z</time>
      </trkpt>
      <trkpt lat="44.1225" lon="4.53753">
        <ele>197.4</ele>
        <time>2019-06-01T07:07:16Z</time>
      </trkpt>
      <trkpt lat="44.12251" lon="4.53747">
        <ele>197.8</ele>
        <time>2019-06-01T07:07:18Z</time>
      </trkpt>
      <trkpt lat="44.12252" lon="4.53742">
        <ele>198.1</ele>
        <time>2019-06-01T07:07:19Z</time>
      </trkpt>
      <trkpt lat="44.12253" lon="4.53739">
        <ele>198.3</ele>
        <time>2019-06-01T07:07:20Z</time>
      </trkpt>
      <trkpt lat="44.12254" lon="4.53732">
        <ele>198.7</ele>
        <time>2019-06-01T07:07:22Z</time>
      </trkpt>
      <trkpt lat="44.12255" lon="4.53726">
        <ele>199</ele>
        <time>2019-06-01T07:07:24Z</time>
      </trkpt>
      <trkpt lat="44.12257" lon="4.5372">
        <ele>199.3</ele>
        <time>2019-06-01T07:07:26Z</time>
      </trkpt>
      <trkpt lat="44.12258" lon="4.53714">
        <ele>199.5</ele>
        <time>2019-06-01T07:07:28Z</time>
      </trkpt>
      <trkpt lat="44.12259" lon="4.5371">
        <ele>199.7</ele>
        <time>2019-06-01T07:07:30Z</time>
      </trkpt>
      <trkpt lat="44.12261" lon="4.53703">
        <ele>199.9</ele>
        <time>2019-06-01T07:07:32Z</time>
      </trkpt>
      <trkpt lat="44.12262" lon="4.53698">
        <ele>200</ele>
        <time>2019-06-01T07:07:33Z</time>
      </trkpt>
      <trkpt lat="44.12263" lon="4.53693">
        <ele>200.2</ele>
        <time>2019-06-01T07:07:34Z</time>
      </trkpt>
      <trkpt lat="44.12264" lon="4.53688">
        <ele>200.2</ele>
        <time>2019-06-01T07:07:35Z</time>
      </trkpt>
      <trkpt lat="44.12264" lon="4.53683">
        <ele>200.2</ele>
        <time>2019-06-01T07:07:36Z</time>
      </trkpt>
      <trkpt lat="44.12265" lon="4.53679">
        <ele>200.2</ele>
        <time>2019-06-01T07:07:37Z</time>
      </trkpt>
      <trkpt lat="44.12265" lon="4.53675">
        <ele>200.2</ele>
        <time>2019-06-01T07:07:38Z</time>
      </trkpt>
      <trkpt lat="44.12265" lon="4.53671">
        <ele>200.3</ele>
        <time>2019-06-01T07:07:39Z</time>
      </trkpt>
      <trkpt lat="44.12266" lon="4.53667">
        <ele>200.3</ele>
        <time>2019-06-01T07:07:40Z</time>
      </trkpt>
      <trkpt lat="44.12267" lon="4.53663">
        <ele>200.3</ele>
        <time>2019-06-01T07:07:41Z</time>
      </trkpt>
      <trkpt lat="44.12268" lon="4.53658">
        <ele>200.3</ele>
        <time>2019-06-01T07:07:42Z</time>
      </trkpt>
      <trkpt lat="44.12269" lon="4.53655">
        <ele>200.3</ele>
        <time>2019-06-01T07:07:43Z</time>
      </trkpt>
      <trkpt lat="44.12271" lon="4.53649">
        <ele>200.3</ele>
        <time>2019-06-01T07:07:45Z</time>
      </trkpt>
      <trkpt lat="44.12271" lon="4.53644">
        <ele>200.4</ele>
        <time>2019-06-01T07:07:47Z</time>
      </trkpt>
      <trkpt lat="44.12273" lon="4.5364">
        <ele>200.4</ele>
        <time>2019-06-01T07:07:49Z</time>
      </trkpt>
      <trkpt lat="44.12275" lon="4.53636">
        <ele>200.5</ele>
        <time>2019-06-01T07:07:51Z</time>
      </trkpt>
      <trkpt lat="44.12276" lon="4.53631">
        <ele>200.5</ele>
        <time>2019-06-01T07:07:53Z</time>
      </trkpt>
      <trkpt lat="44.12277" lon="4.53626">
        <ele>200.6</ele>
        <time>2019-06-01T07:07:55Z</time>
      </trkpt>
      <trkpt lat="44.12279" lon="4.53621">
        <ele>200.7</ele>
        <time>2019-06-01T07:07:57Z</time>
      </trkpt>
      <trkpt lat="44.12281" lon="4.53619">
        <ele>200.7</ele>
        <time>2019-06-01T07:07:59Z</time>
      </trkpt>
      <trkpt lat="44.12282" lon="4.53613">
        <ele>200.8</ele>
        <time>2019-06-01T07:08:02Z</time>
      </trkpt>
      <trkpt lat="44.12283" lon="4.53607">
        <ele>201</ele>
        <time>2019-06-01T07:08:04Z</time>
      </trkpt>
      <trkpt lat="44.12285" lon="4.536">
        <ele>201.2</ele>
        <time>2019-06-01T07:08:06Z</time>
      </trkpt>
      <trkpt lat="44.12286" lon="4.53595">
        <ele>201.4</ele>
        <time>2019-06-01T07:08:08Z</time>
      </trkpt>
      <trkpt lat="44.12288" lon="4.53589">
        <ele>201.7</ele>
        <time>2019-06-01T07:08:10Z</time>
      </trkpt>
      <trkpt lat="44.12289" lon="4.53582">
        <ele>202.1</ele>
        <time>2019-06-01T07:08:12Z</time>
      </trkpt>
      <trkpt lat="44.1229" lon="4.53577">
        <ele>202.3</ele>
        <time>2019-06-01T07:08:14Z</time>
      </trkpt>
      <trkpt lat="44.12291" lon="4.53572">
        <ele>202.5</ele>
        <time>2019-06-01T07:08:16Z</time>
      </trkpt>
      <trkpt lat="44.12291" lon="4.53568">
        <ele>202.8</ele>
        <time>2019-06-01T07:08:18Z</time>
      </trkpt>
      <trkpt lat="44.12291" lon="4.53562">
        <ele>203</ele>
        <time>2019-06-01T07:08:20Z</time>
      </trkpt>
      <trkpt lat="44.12291" lon="4.53556">
        <ele>203.4</ele>
        <time>2019-06-01T07:08:22Z</time>
      </trkpt>
      <trkpt lat="44.12292" lon="4.5355">
        <ele>203.7</ele>
        <time>2019-06-01T07:08:24Z</time>
      </trkpt>
      <trkpt lat="44.12294" lon="4.53545">
        <ele>204</ele>
        <time>2019-06-01T07:08:26Z</time>
      </trkpt>
      <trkpt lat="44.12296" lon="4.5354">
        <ele>204.4</ele>
        <time>2019-06-01T07:08:28Z</time>
      </trkpt>
      <trkpt lat="44.12297" lon="4.53535">
        <ele>204.5</ele>
        <time>2019-06-01T07:08:31Z</time>
      </trkpt>
      <trkpt lat="44.12299" lon="4.53529">
        <ele>204.7</ele>
        <time>2019-06-01T07:08:34Z</time>
      </trkpt>
      <trkpt lat="44.123" lon="4.53524">
        <ele>204.9</ele>
        <time>2019-06-01T07:08:36Z</time>
      </trkpt>
      <trkpt lat="44.123" lon="4.53519">
        <ele>205</ele>
        <time>2019-06-01T07:08:38Z</time>
      </trkpt>
      <trkpt lat="44.12301" lon="4.53513">
        <ele>205.2</ele>
        <time>2019-06-01T07:08:40Z</time>
      </trkpt>
      <trkpt lat="44.12301" lon="4.53509">
        <ele>205.3</ele>
        <time>2019-06-01T07:08:42Z</time>
      </trkpt>
      <trkpt lat="44.12301" lon="4.53505">
        <ele>205.5</ele>
        <time>2019-06-01T07:08:45Z</time>
      </trkpt>
      <trkpt lat="44.12301" lon="4.535">
        <ele>205.8</ele>
        <time>2019-06-01T07:08:48Z</time>
      </trkpt>
      <trkpt lat="44.12298" lon="4.53497">
        <ele>206.2</ele>
        <time>2019-06-01T07:08:50Z</time>
      </trkpt>
      <trkpt lat="44.12296" lon="4.53491">
        <ele>206.7</ele>
        <time>2019-06-01T07:08:52Z</time>
      </trkpt>
      <trkpt lat="44.12296" lon="4.53486">
        <ele>207</ele>
        <time>2019-06-01T07:08:53Z</time>
      </trkpt>
      <trkpt lat="44.12297" lon="4.53481">
        <ele>207.3</ele>
        <time>2019-06-01T07:08:54Z</time>
      </trkpt>
      <trkpt lat="44.12296" lon="4.53476">
        <ele>207.6</ele>
        <time>2019-06-01T07:08:55Z</time>
      </trkpt>
      <trkpt lat="44.12295" lon="4.53471">
        <ele>207.8</ele>
        <time>2019-06-01T07:08:56Z</time>
      </trkpt>
      <trkpt lat="44.12293" lon="4.53468">
        <ele>208</ele>
        <time>2019-06-01T07:08:57Z</time>
      </trkpt>
      <trkpt lat="44.12291" lon="4.53464">
        <ele>208.3</ele>
        <time>2019-06-01T07:08:59Z</time>
      </trkpt>
      <trkpt lat="44.12287" lon="4.53459">
        <ele>208.5</ele>
        <time>2019-06-01T07:09:01Z</time>
      </trkpt>
      <trkpt lat="44.12284" lon="4.53455">
        <ele>208.8</ele>
        <time>2019-06-01T07:09:03Z</time>
      </trkpt>
      <trkpt lat="44.12282" lon="4.53453">
        <ele>209</ele>
        <time>2019-06-01T07:09:04Z</time>
      </trkpt>
      <trkpt lat="44.12279" lon="4.53451">
        <ele>209.2</ele>
        <time>2019-06-01T07:09:05Z</time>
      </trkpt>
      <trkpt lat="44.12276" lon="4.53447">
        <ele>209.5</ele>
        <time>2019-06-01T07:09:07Z</time>
      </trkpt>
      <trkpt lat="44.12272" lon="4.53446">
        <ele>209.8</ele>
        <time>2019-06-01T07:09:09Z</time>
      </trkpt>
      <trkpt lat="44.1227" lon="4.53442">
        <ele>210</ele>
        <time>2019-06-01T07:09:11Z</time>
      </trkpt>
      <trkpt lat="44.12269" lon="4.53438">
        <ele>210.2</ele>
        <time>2019-06-01T07:09:13Z</time>
      </trkpt>
      <trkpt lat="44.12268" lon="4.53435">
        <ele>210.3</ele>
        <time>2019-06-01T07:09:18Z</time>
      </trkpt>
      <trkpt lat="44.12265" lon="4.53426">
        <ele>210.7</ele>
        <time>2019-06-01T07:10:33Z</time>
      </trkpt>
      <trkpt lat="44.12266" lon="4.53417">
        <ele>211</ele>
        <time>2019-06-01T07:12:37Z</time>
      </trkpt>
      <trkpt lat="44.12266" lon="4.53414">
        <ele>211.1</ele>
        <time>2019-06-01T07:17:21Z</time>
      </trkpt>
      <trkpt lat="44.12265" lon="4.5341">
        <ele>211.3</ele>
        <time>2019-06-01T07:17:25Z</time>
      </trkpt>
      <trkpt lat="44.12261" lon="4.53407">
        <ele>211.5</ele>
        <time>2019-06-01T07:17:27Z</time>
      </trkpt>
      <trkpt lat="44.12258" lon="4.53406">
        <ele>211.7</ele>
        <time>2019-06-01T07:17:28Z</time>
      </trkpt>
      <trkpt lat="44.12255" lon="4.53405">
        <ele>211.8</ele>
        <time>2019-06-01T07:17:29Z</time>
      </trkpt>
      <trkpt lat="44.12252" lon="4.53404">
        <ele>212</ele>
        <time>2019-06-01T07:17:30Z</time>
      </trkpt>
      <trkpt lat="44.12249" lon="4.53403">
        <ele>212.1</ele>
        <time>2019-06-01T07:17:31Z</time>
      </trkpt>
      <trkpt lat="44.12246" lon="4.534">
        <ele>212.3</ele>
        <time>2019-06-01T07:17:32Z</time>
      </trkpt>
      <trkpt lat="44.12244" lon="4.53396">
        <ele>212.5</ele>
        <time>2019-06-01T07:17:33Z</time>
      </trkpt>
      <trkpt lat="44.12243" lon="4.53391">
        <ele>212.6</ele>
        <time>2019-06-01T07:17:34Z</time>
      </trkpt>
      <trkpt lat="44.12243" lon="4.53388">
        <ele>212.8</ele>
        <time>2019-06-01T07:17:35Z</time>
      </trkpt>
      <trkpt lat="44.12243" lon="4.53384">
        <ele>212.9</ele>
        <time>2019-06-01T07:17:36Z</time>
      </trkpt>
      <trkpt lat="44.12241" lon="4.53381">
        <ele>213.1</ele>
        <time>2019-06-01T07:17:37Z</time>
      </trkpt>
      <trkpt lat="44.1224" lon="4.53376">
        <ele>213.2</ele>
        <time>2019-06-01T07:17:38Z</time>
      </trkpt>
      <trkpt lat="44.12238" lon="4.53372">
        <ele>213.3</ele>
        <time>2019-06-01T07:17:39Z</time>
      </trkpt>
      <trkpt lat="44.12237" lon="4.53368">
        <ele>213.3</ele>
        <time>2019-06-01T07:17:40Z</time>
      </trkpt>
      <trkpt lat="44.12236" lon="4.53362">
        <ele>213.4</ele>
        <time>2019-06-01T07:17:42Z</time>
      </trkpt>
      <trkpt lat="44.12238" lon="4.53356">
        <ele>213.5</ele>
        <time>2019-06-01T07:17:44Z</time>
      </trkpt>
      <trkpt lat="44.1224" lon="4.53351">
        <ele>213.5</ele>
        <time>2019-06-01T07:17:45Z</time>
      </trkpt>
      <trkpt lat="44.12241" lon="4.53345">
        <ele>213.6</ele>
        <time>2019-06-01T07:17:46Z</time>
      </trkpt>
      <trkpt lat="44.12242" lon="4.5334">
        <ele>213.7</ele>
        <time>2019-06-01T07:17:47Z</time>
      </trkpt>
      <trkpt lat="44.12244" lon="4.53334">
        <ele>213.8</ele>
        <time>2019-06-01T07:17:49Z</time>
      </trkpt>
      <trkpt lat="44.12244" lon="4.53329">
        <ele>213.8</ele>
        <time>2019-06-01T07:17:51Z</time>
      </trkpt>
      <trkpt lat="44.12245" lon="4.53322">
        <ele>213.9</ele>
        <time>2019-06-01T07:17:53Z</time>
      </trkpt>
      <trkpt lat="44.12247" lon="4.53315">
        <ele>214</ele>
        <time>2019-06-01T07:17:55Z</time>
      </trkpt>
      <trkpt lat="44.12247" lon="4.53311">
        <ele>214</ele>
        <time>2019-06-01T07:17:56Z</time>
      </trkpt>
      <trkpt lat="44.12247" lon="4.53306">
        <ele>214.1</ele>
        <time>2019-06-01T07:17:58Z</time>
      </trkpt>
      <trkpt lat="44.12249" lon="4.53298">
        <ele>214.2</ele>
        <time>2019-06-01T07:18:00Z</time>
      </trkpt>
      <trkpt lat="44.1225" lon="4.53294">
        <ele>214.2</ele>
        <time>2019-06-01T07:18:02Z</time>
      </trkpt>
      <trkpt lat="44.12252" lon="4.53289">
        <ele>214.3</ele>
        <time>2019-06-01T07:18:03Z</time>
      </trkpt>
      <trkpt lat="44.12253" lon="4.53285">
        <ele>214.4</ele>
        <time>2019-06-01T07:18:04Z</time>
      </trkpt>
      <trkpt lat="44.12255" lon="4.5328">
        <ele>214.4</ele>
        <time>2019-06-01T07:18:05Z</time>
      </trkpt>
      <trkpt lat="44.12257" lon="4.53275">
        <ele>214.5</ele>
        <time>2019-06-01T07:18:06Z</time>
      </trkpt>
      <trkpt lat="44.12259" lon="4.53271">
        <ele>214.6</ele>
        <time>2019-06-01T07:18:07Z</time>
      </trkpt>
      <trkpt lat="44.12261" lon="4.53267">
        <ele>214.6</ele>
        <time>2019-06-01T07:18:08Z</time>
      </trkpt>
      <trkpt lat="44.12262" lon="4.53262">
        <ele>214.7</ele>
        <time>2019-06-01T07:18:09Z</time>
      </trkpt>
      <trkpt lat="44.12263" lon="4.53256">
        <ele>214.9</ele>
        <time>2019-06-01T07:18:11Z</time>
      </trkpt>
      <trkpt lat="44.12264" lon="4.53249">
        <ele>215.1</ele>
        <time>2019-06-01T07:18:13Z</time>
      </trkpt>
      <trkpt lat="44.12264" lon="4.53245">
        <ele>215.2</ele>
        <time>2019-06-01T07:18:14Z</time>
      </trkpt>
      <trkpt lat="44.12264" lon="4.53241">
        <ele>215.3</ele>
        <time>2019-06-01T07:18:15Z</time>
      </trkpt>
      <trkpt lat="44.12264" lon="4.53237">
        <ele>215.5</ele>
        <time>2019-06-01T07:18:16Z</time>
      </trkpt>
      <trkpt lat="44.12264" lon="4.53231">
        <ele>215.7</ele>
        <time>2019-06-01T07:18:17Z</time>
      </trkpt>
      <trkpt lat="44.12264" lon="4.53227">
        <ele>215.9</ele>
        <time>2019-06-01T07:18:18Z</time>
      </trkpt>
      <trkpt lat="44.12264" lon="4.53221">
        <ele>216.1</ele>
        <time>2019-06-01T07:18:19Z</time>
      </trkpt>
      <trkpt lat="44.12265" lon="4.53215">
        <ele>216.3</ele>
        <time>2019-06-01T07:18:20Z</time>
      </trkpt>
      <trkpt lat="44.12265" lon="4.5321">
        <ele>216.5</ele>
        <time>2019-06-01T07:18:21Z</time>
      </trkpt>
      <trkpt lat="44.12266" lon="4.53205">
        <ele>216.8</ele>
        <time>2019-06-01T07:18:22Z</time>
      </trkpt>
      <trkpt lat="44.12267" lon="4.532">
        <ele>217</ele>
        <time>2019-06-01T07:18:23Z</time>
      </trkpt>
      <trkpt lat="44.12269" lon="4.53193">
        <ele>217.3</ele>
        <time>2019-06-01T07:18:25Z</time>
      </trkpt>
      <trkpt lat="44.1227" lon="4.53189">
        <ele>217.5</ele>
        <time>2019-06-01T07:18:26Z</time>
      </trkpt>
      <trkpt lat="44.12272" lon="4.53184">
        <ele>217.7</ele>
        <time>2019-06-01T07:18:28Z</time>
      </trkpt>
      <trkpt lat="44.12272" lon="4.53178">
        <ele>217.9</ele>
        <time>2019-06-01T07:18:30Z</time>
      </trkpt>
      <trkpt lat="44.12273" lon="4.53173">
        <ele>218.1</ele>
        <time>2019-06-01T07:18:32Z</time>
      </trkpt>
      <trkpt lat="44.12274" lon="4.53168">
        <ele>218.3</ele>
        <time>2019-06-01T07:18:34Z</time>
      </trkpt>
      <trkpt lat="44.12274" lon="4.53161">
        <ele>218.5</ele>
        <time>2019-06-01T07:18:36Z</time>
      </trkpt>
      <trkpt lat="44.12274" lon="4.53154">
        <ele>218.7</ele>
        <time>2019-06-01T07:18:38Z</time>
      </trkpt>
      <trkpt lat="44.12274" lon="4.53146">
        <ele>218.9</ele>
        <time>2019-06-01T07:18:40Z</time>
      </trkpt>
      <trkpt lat="44.12274" lon="4.53142">
        <ele>218.9</ele>
        <time>2019-06-01T07:18:41Z</time>
      </trkpt>
      <trkpt lat="44.12277" lon="4.53136">
        <ele>219</ele>
        <time>2019-06-01T07:18:43Z</time>
      </trkpt>
      <trkpt lat="44.1228" lon="4.53134">
        <ele>219</ele>
        <time>2019-06-01T07:18:44Z</time>
      </trkpt>
      <trkpt lat="44.12283" lon="4.53133">
        <ele>219</ele>
        <time>2019-06-01T07:18:45Z</time>
      </trkpt>
      <trkpt lat="44.12286" lon="4.53133">
        <ele>219</ele>
        <time>2019-06-01T07:18:47Z</time>
      </trkpt>
      <trkpt lat="44.12291" lon="4.53133">
        <ele>218.9</ele>
        <time>2019-06-01T07:18:49Z</time>
      </trkpt>
      <trkpt lat="44.12295" lon="4.53132">
        <ele>218.8</ele>
        <time>2019-06-01T07:18:51Z</time>
      </trkpt>
      <trkpt lat="44.12298" lon="4.53131">
        <ele>218.7</ele>
        <time>2019-06-01T07:18:52Z</time>
      </trkpt>
      <trkpt lat="44.12302" lon="4.53131">
        <ele>218.5</ele>
        <time>2019-06-01T07:18:53Z</time>
      </trkpt>
      <trkpt lat="44.12305" lon="4.53131">
        <ele>218.4</ele>
        <time>2019-06-01T07:18:54Z</time>
      </trkpt>
      <trkpt lat="44.12309" lon="4.53131">
        <ele>218.3</ele>
        <time>2019-06-01T07:18:55Z</time>
      </trkpt>
      <trkpt lat="44.12312" lon="4.53132">
        <ele>218.1</ele>
        <time>2019-06-01T07:18:56Z</time>
      </trkpt>
      <trkpt lat="44.12316" lon="4.53134">
        <ele>217.9</ele>
        <time>2019-06-01T07:18:57Z</time>
      </trkpt>
      <trkpt lat="44.1232" lon="4.53134">
        <ele>217.8</ele>
        <time>2019-06-01T07:18:58Z</time>
      </trkpt>
      <trkpt lat="44.12324" lon="4.53136">
        <ele>217.6</ele>
        <time>2019-06-01T07:18:59Z</time>
      </trkpt>
      <trkpt lat="44.12329" lon="4.53137">
        <ele>217.3</ele>
        <time>2019-06-01T07:19:00Z</time>
      </trkpt>
      <trkpt lat="44.12338" lon="4.53135">
        <ele>216.7</ele>
        <time>2019-06-01T07:19:01Z</time>
      </trkpt>
      <trkpt lat="44.12343" lon="4.53136">
        <ele>216.2</ele>
        <time>2019-06-01T07:19:02Z</time>
      </trkpt>
      <trkpt lat="44.12347" lon="4.53137">
        <ele>215.8</ele>
        <time>2019-06-01T07:19:03Z</time>
      </trkpt>
      <trkpt lat="44.12348" lon="4.53127">
        <ele>214.9</ele>
        <time>2019-06-01T07:19:06Z</time>
      </trkpt>
      <trkpt lat="44.12346" lon="4.53123">
        <ele>214.8</ele>
        <time>2019-06-01T07:19:07Z</time>
      </trkpt>
      <trkpt lat="44.12345" lon="4.53119">
        <ele>214.7</ele>
        <time>2019-06-01T07:19:10Z</time>
      </trkpt>
      <trkpt lat="44.12345" lon="4.53115">
        <ele>214.6</ele>
        <time>2019-06-01T07:19:11Z</time>
      </trkpt>
      <trkpt lat="44.12346" lon="4.53111">
        <ele>214.5</ele>
        <time>2019-06-01T07:19:12Z</time>
      </trkpt>
      <trkpt lat="44.1235" lon="4.53098">
        <ele>214.3</ele>
        <time>2019-06-01T07:19:13Z</time>
      </trkpt>
      <trkpt lat="44.1235" lon="4.53093">
        <ele>214.2</ele>
        <time>2019-06-01T07:19:15Z</time>
      </trkpt>
      <trkpt lat="44.1235" lon="4.53088">
        <ele>214.2</ele>
        <time>2019-06-01T07:19:16Z</time>
      </trkpt>
      <trkpt lat="44.1235" lon="4.53084">
        <ele>214.1</ele>
        <time>2019-06-01T07:19:17Z</time>
      </trkpt>
      <trkpt lat="44.12351" lon="4.5308">
        <ele>214</ele>
        <time>2019-06-01T07:19:18Z</time>
      </trkpt>
      <trkpt lat="44.12352" lon="4.53075">
        <ele>214</ele>
        <time>2019-06-01T07:19:19Z</time>
      </trkpt>
      <trkpt lat="44.12354" lon="4.53069">
        <ele>213.9</ele>
        <time>2019-06-01T07:19:20Z</time>
      </trkpt>
      <trkpt lat="44.12355" lon="4.53064">
        <ele>213.8</ele>
        <time>2019-06-01T07:19:21Z</time>
      </trkpt>
      <trkpt lat="44.12356" lon="4.53059">
        <ele>213.8</ele>
        <time>2019-06-01T07:19:22Z</time>
      </trkpt>
      <trkpt lat="44.12357" lon="4.53053">
        <ele>213.7</ele>
        <time>2019-06-01T07:19:23Z</time>
      </trkpt>
      <trkpt lat="44.12359" lon="4.53047">
        <ele>213.7</ele>
        <time>2019-06-01T07:19:24Z</time>
      </trkpt>
      <trkpt lat="44.1236" lon="4.53041">
        <ele>213.6</ele>
        <time>2019-06-01T07:19:25Z</time>
      </trkpt>
      <trkpt lat="44.12361" lon="4.53035">
        <ele>213.5</ele>
        <time>2019-06-01T07:19:26Z</time>
      </trkpt>
      <trkpt lat="44.12363" lon="4.53027">
        <ele>213.4</ele>
        <time>2019-06-01T07:19:27Z</time>
      </trkpt>
      <trkpt lat="44.12364" lon="4.5302">
        <ele>213.2</ele>
        <time>2019-06-01T07:19:28Z</time>
      </trkpt>
      <trkpt lat="44.12366" lon="4.53013">
        <ele>213.1</ele>
        <time>2019-06-01T07:19:29Z</time>
      </trkpt>
      <trkpt lat="44.12366" lon="4.53006">
        <ele>213</ele>
        <time>2019-06-01T07:19:30Z</time>
      </trkpt>
      <trkpt lat="44.12364" lon="4.53">
        <ele>212.9</ele>
        <time>2019-06-01T07:19:31Z</time>
      </trkpt>
      <trkpt lat="44.12362" lon="4.52996">
        <ele>212.8</ele>
        <time>2019-06-01T07:19:32Z</time>
      </trkpt>
      <trkpt lat="44.12358" lon="4.52994">
        <ele>212.6</ele>
        <time>2019-06-01T07:19:33Z</time>
      </trkpt>
      <trkpt lat="44.12354" lon="4.52992">
        <ele>212.5</ele>
        <time>2019-06-01T07:19:34Z</time>
      </trkpt>
      <trkpt lat="44.1235" lon="4.52987">
        <ele>212.4</ele>
        <time>2019-06-01T07:19:35Z</time>
      </trkpt>
      <trkpt lat="44.12347" lon="4.52983">
        <ele>212.2</ele>
        <time>2019-06-01T07:19:36Z</time>
      </trkpt>
      <trkpt lat="44.12348" lon="4.52977">
        <ele>212.2</ele>
        <time>2019-06-01T07:19:37Z</time>
      </trkpt>
      <trkpt lat="44.1235" lon="4.52971">
        <ele>212.1</ele>
        <time>2019-06-01T07:19:38Z</time>
      </trkpt>
      <trkpt lat="44.12351" lon="4.52966">
        <ele>212</ele>
        <time>2019-06-01T07:19:39Z</time>
      </trkpt>
      <trkpt lat="44.12353" lon="4.52961">
        <ele>211.9</ele>
        <time>2019-06-01T07:19:40Z</time>
      </trkpt>
      <trkpt lat="44.12354" lon="4.52956">
        <ele>211.9</ele>
        <time>2019-06-01T07:19:41Z</time>
      </trkpt>
      <trkpt lat="44.12355" lon="4.5295">
        <ele>211.8</ele>
        <time>2019-06-01T07:19:42Z</time>
      </trkpt>
      <trkpt lat="44.12352" lon="4.52943">
        <ele>211.7</ele>
        <time>2019-06-01T07:19:43Z</time>
      </trkpt>
      <trkpt lat="44.12351" lon="4.52938">
        <ele>211.6</ele>
        <time>2019-06-01T07:19:44Z</time>
      </trkpt>
      <trkpt lat="44.12348" lon="4.52934">
        <ele>211.5</ele>
        <time>2019-06-01T07:19:45Z</time>
      </trkpt>
      <trkpt lat="44.12344" lon="4.52933">
        <ele>211.4</ele>
        <time>2019-06-01T07:19:46Z</time>
      </trkpt>
      <trkpt lat="44.12337" lon="4.52935">
        <ele>211.2</ele>
        <time>2019-06-01T07:19:47Z</time>
      </trkpt>
      <trkpt lat="44.1233" lon="4.52937">
        <ele>211</ele>
        <time>2019-06-01T07:19:48Z</time>
      </trkpt>
      <trkpt lat="44.12325" lon="4.52937">
        <ele>210.9</ele>
        <time>2019-06-01T07:19:49Z</time>
      </trkpt>
      <trkpt lat="44.12319" lon="4.52937">
        <ele>210.8</ele>
        <time>2019-06-01T07:19:50Z</time>
      </trkpt>
      <trkpt lat="44.12313" lon="4.52936">
        <ele>210.6</ele>
        <time>2019-06-01T07:19:51Z</time>
      </trkpt>
      <trkpt lat="44.12307" lon="4.52936">
        <ele>210.2</ele>
        <time>2019-06-01T07:19:52Z</time>
      </trkpt>
      <trkpt lat="44.123" lon="4.52936">
        <ele>209.9</ele>
        <time>2019-06-01T07:19:53Z</time>
      </trkpt>
      <trkpt lat="44.12294" lon="4.52936">
        <ele>209.6</ele>
        <time>2019-06-01T07:19:54Z</time>
      </trkpt>
      <trkpt lat="44.12287" lon="4.52939">
        <ele>209.3</ele>
        <time>2019-06-01T07:19:55Z</time>
      </trkpt>
      <trkpt lat="44.12283" lon="4.52941">
        <ele>209.1</ele>
        <time>2019-06-01T07:19:56Z</time>
      </trkpt>
      <trkpt lat="44.12278" lon="4.52944">
        <ele>209</ele>
        <time>2019-06-01T07:19:57Z</time>
      </trkpt>
      <trkpt lat="44.12273" lon="4.52945">
        <ele>208.8</ele>
        <time>2019-06-01T07:19:58Z</time>
      </trkpt>
      <trkpt lat="44.12265" lon="4.52942">
        <ele>208.5</ele>
        <time>2019-06-01T07:20:00Z</time>
      </trkpt>
      <trkpt lat="44.12259" lon="4.5294">
        <ele>208.3</ele>
        <time>2019-06-01T07:20:01Z</time>
      </trkpt>
      <trkpt lat="44.12256" lon="4.52936">
        <ele>208.1</ele>
        <time>2019-06-01T07:20:03Z</time>
      </trkpt>
      <trkpt lat="44.12247" lon="4.52934">
        <ele>207.8</ele>
        <time>2019-06-01T07:20:04Z</time>
      </trkpt>
      <trkpt lat="44.12234" lon="4.52934">
        <ele>207.4</ele>
        <time>2019-06-01T07:20:05Z</time>
      </trkpt>
      <trkpt lat="44.12224" lon="4.52931">
        <ele>207.1</ele>
        <time>2019-06-01T07:20:06Z</time>
      </trkpt>
      <trkpt lat="44.12219" lon="4.52934">
        <ele>206.9</ele>
        <time>2019-06-01T07:20:07Z</time>
      </trkpt>
      <trkpt lat="44.12214" lon="4.52931">
        <ele>206.7</ele>
        <time>2019-06-01T07:20:09Z</time>
      </trkpt>
      <trkpt lat="44.12213" lon="4.52926">
        <ele>206.6</ele>
        <time>2019-06-01T07:20:10Z</time>
      </trkpt>
      <trkpt lat="44.1221" lon="4.52918">
        <ele>206.4</ele>
        <time>2019-06-01T07:20:11Z</time>
      </trkpt>
      <trkpt lat="44.12205" lon="4.52911">
        <ele>206.1</ele>
        <time>2019-06-01T07:20:12Z</time>
      </trkpt>
      <trkpt lat="44.12201" lon="4.52904">
        <ele>205.8</ele>
        <time>2019-06-01T07:20:13Z</time>
      </trkpt>
      <trkpt lat="44.12195" lon="4.52898">
        <ele>205.5</ele>
        <time>2019-06-01T07:20:14Z</time>
      </trkpt>
      <trkpt lat="44.12191" lon="4.52889">
        <ele>205.1</ele>
        <time>2019-06-01T07:20:15Z</time>
      </trkpt>
      <trkpt lat="44.12179" lon="4.52888">
        <ele>204.6</ele>
        <time>2019-06-01T07:20:16Z</time>
      </trkpt>
      <trkpt lat="44.12177" lon="4.52883">
        <ele>204.4</ele>
        <time>2019-06-01T07:20:17Z</time>
      </trkpt>
      <trkpt lat="44.1217" lon="4.52882">
        <ele>204.1</ele>
        <time>2019-06-01T07:20:18Z</time>
      </trkpt>
      <trkpt lat="44.12168" lon="4.52876">
        <ele>203.9</ele>
        <time>2019-06-01T07:20:19Z</time>
      </trkpt>
      <trkpt lat="44.12167" lon="4.52864">
        <ele>203.5</ele>
        <time>2019-06-01T07:20:21Z</time>
      </trkpt>
      <trkpt lat="44.12168" lon="4.52868">
        <ele>203.3</ele>
        <time>2019-06-01T07:20:23Z</time>
      </trkpt>
      <trkpt lat="44.12166" lon="4.52865">
        <ele>203.2</ele>
        <time>2019-06-01T07:20:28Z</time>
      </trkpt>
      <trkpt lat="44.12163" lon="4.52862">
        <ele>203</ele>
        <time>2019-06-01T07:20:32Z</time>
      </trkpt>
      <trkpt lat="44.12164" lon="4.52857">
        <ele>202.7</ele>
        <time>2019-06-01T07:20:35Z</time>
      </trkpt>
      <trkpt lat="44.12166" lon="4.52853">
        <ele>202</ele>
        <time>2019-06-01T07:20:40Z</time>
      </trkpt>
      <trkpt lat="44.12168" lon="4.52851">
        <ele>201.9</ele>
        <time>2019-06-01T07:20:41Z</time>
      </trkpt>
      <trkpt lat="44.12171" lon="4.52846">
        <ele>201.6</ele>
        <time>2019-06-01T07:20:43Z</time>
      </trkpt>
      <trkpt lat="44.12174" lon="4.5284">
        <ele>201.3</ele>
        <time>2019-06-01T07:20:45Z</time>
      </trkpt>
      <trkpt lat="44.12176" lon="4.52837">
        <ele>201.1</ele>
        <time>2019-06-01T07:20:47Z</time>
      </trkpt>
      <trkpt lat="44.1218" lon="4.52836">
        <ele>200.8</ele>
        <time>2019-06-01T07:20:49Z</time>
      </trkpt>
      <trkpt lat="44.12182" lon="4.52833">
        <ele>200.6</ele>
        <time>2019-06-01T07:20:52Z</time>
      </trkpt>
      <trkpt lat="44.12184" lon="4.52827">
        <ele>200.3</ele>
        <time>2019-06-01T07:20:54Z</time>
      </trkpt>
      <trkpt lat="44.12184" lon="4.52824">
        <ele>200.2</ele>
        <time>2019-06-01T07:20:55Z</time>
      </trkpt>
      <trkpt lat="44.12185" lon="4.5282">
        <ele>200</ele>
        <time>2019-06-01T07:20:56Z</time>
      </trkpt>
      <trkpt lat="44.12187" lon="4.52814">
        <ele>199.6</ele>
        <time>2019-06-01T07:21:00Z</time>
      </trkpt>
      <trkpt lat="44.1219" lon="4.52807">
        <ele>199.1</ele>
        <time>2019-06-01T07:21:02Z</time>
      </trkpt>
      <trkpt lat="44.12193" lon="4.52801">
        <ele>198.6</ele>
        <time>2019-06-01T07:21:04Z</time>
      </trkpt>
      <trkpt lat="44.12194" lon="4.52798">
        <ele>198.4</ele>
        <time>2019-06-01T07:21:05Z</time>
      </trkpt>
      <trkpt lat="44.12197" lon="4.52791">
        <ele>197.9</ele>
        <time>2019-06-01T07:21:07Z</time>
      </trkpt>
      <trkpt lat="44.12198" lon="4.52787">
        <ele>197.5</ele>
        <time>2019-06-01T07:21:08Z</time>
      </trkpt>
      <trkpt lat="44.122" lon="4.52783">
        <ele>197.2</ele>
        <time>2019-06-01T07:21:09Z</time>
      </trkpt>
      <trkpt lat="44.12204" lon="4.52777">
        <ele>196.6</ele>
        <time>2019-06-01T07:21:11Z</time>
      </trkpt>
      <trkpt lat="44.12205" lon="4.52773">
        <ele>196.2</ele>
        <time>2019-06-01T07:21:12Z</time>
      </trkpt>
      <trkpt lat="44.12207" lon="4.52769">
        <ele>195.8</ele>
        <time>2019-06-01T07:21:14Z</time>
      </trkpt>
      <trkpt lat="44.1221" lon="4.52764">
        <ele>195.2</ele>
        <time>2019-06-01T07:21:16Z</time>
      </trkpt>
      <trkpt lat="44.12212" lon="4.5276">
        <ele>194.9</ele>
        <time>2019-06-01T07:21:17Z</time>
      </trkpt>
      <trkpt lat="44.12213" lon="4.52756">
        <ele>194.5</ele>
        <time>2019-06-01T07:21:18Z</time>
      </trkpt>
      <trkpt lat="44.12213" lon="4.52752">
        <ele>194.1</ele>
        <time>2019-06-01T07:21:19Z</time>
      </trkpt>
      <trkpt lat="44.12212" lon="4.52746">
        <ele>193.4</ele>
        <time>2019-06-01T07:21:21Z</time>
      </trkpt>
      <trkpt lat="44.12209" lon="4.52742">
        <ele>192.7</ele>
        <time>2019-06-01T07:21:23Z</time>
      </trkpt>
      <trkpt lat="44.1221" lon="4.52733">
        <ele>191.6</ele>
        <time>2019-06-01T07:21:25Z</time>
      </trkpt>
      <trkpt lat="44.12212" lon="4.52728">
        <ele>190.8</ele>
        <time>2019-06-01T07:21:26Z</time>
      </trkpt>
      <trkpt lat="44.12214" lon="4.52725">
        <ele>190.1</ele>
        <time>2019-06-01T07:21:27Z</time>
      </trkpt>
      <trkpt lat="44.12214" lon="4.52719">
        <ele>189.1</ele>
        <time>2019-06-01T07:21:29Z</time>
      </trkpt>
      <trkpt lat="44.12216" lon="4.52713">
        <ele>188</ele>
        <time>2019-06-01T07:21:31Z</time>
      </trkpt>
      <trkpt lat="44.12219" lon="4.5271">
        <ele>186.2</ele>
        <time>2019-06-01T07:21:32Z</time>
      </trkpt>
      <trkpt lat="44.12222" lon="4.52709">
        <ele>185.5</ele>
        <time>2019-06-01T07:21:33Z</time>
      </trkpt>
      <trkpt lat="44.12225" lon="4.52708">
        <ele>184.9</ele>
        <time>2019-06-01T07:21:34Z</time>
      </trkpt>
      <trkpt lat="44.12229" lon="4.52705">
        <ele>184.2</ele>
        <time>2019-06-01T07:21:35Z</time>
      </trkpt>
      <trkpt lat="44.12233" lon="4.527">
        <ele>183.4</ele>
        <time>2019-06-01T07:21:36Z</time>
      </trkpt>
      <trkpt lat="44.12236" lon="4.52694">
        <ele>182.7</ele>
        <time>2019-06-01T07:21:37Z</time>
      </trkpt>
      <trkpt lat="44.12237" lon="4.52689">
        <ele>182.2</ele>
        <time>2019-06-01T07:21:38Z</time>
      </trkpt>
      <trkpt lat="44.1224" lon="4.52684">
        <ele>181.6</ele>
        <time>2019-06-01T07:21:39Z</time>
      </trkpt>
      <trkpt lat="44.12243" lon="4.5268">
        <ele>181</ele>
        <time>2019-06-01T07:21:40Z</time>
      </trkpt>
      <trkpt lat="44.12246" lon="4.52677">
        <ele>180.5</ele>
        <time>2019-06-01T07:21:41Z</time>
      </trkpt>
      <trkpt lat="44.1225" lon="4.52672">
        <ele>179.7</ele>
        <time>2019-06-01T07:21:42Z</time>
      </trkpt>
      <trkpt lat="44.12252" lon="4.52666">
        <ele>178.9</ele>
        <time>2019-06-01T07:21:43Z</time>
      </trkpt>
      <trkpt lat="44.12254" lon="4.52659">
        <ele>178.1</ele>
        <time>2019-06-01T07:21:44Z</time>
      </trkpt>
      <trkpt lat="44.12256" lon="4.52651">
        <ele>177.1</ele>
        <time>2019-06-01T07:21:45Z</time>
      </trkpt>
      <trkpt lat="44.12258" lon="4.52633">
        <ele>175.2</ele>
        <time>2019-06-01T07:21:46Z</time>
      </trkpt>
      <trkpt lat="44.12259" lon="4.52628">
        <ele>174.7</ele>
        <time>2019-06-01T07:21:47Z</time>
      </trkpt>
      <trkpt lat="44.1226" lon="4.52622">
        <ele>174.3</ele>
        <time>2019-06-01T07:21:48Z</time>
      </trkpt>
      <trkpt lat="44.12263" lon="4.52613">
        <ele>173.1</ele>
        <time>2019-06-01T07:21:49Z</time>
      </trkpt>
      <trkpt lat="44.12264" lon="4.52594">
        <ele>171</ele>
        <time>2019-06-01T07:21:50Z</time>
      </trkpt>
      <trkpt lat="44.12267" lon="4.5259">
        <ele>170.2</ele>
        <time>2019-06-01T07:21:51Z</time>
      </trkpt>
      <trkpt lat="44.12268" lon="4.52585">
        <ele>169.6</ele>
        <time>2019-06-01T07:21:53Z</time>
      </trkpt>
      <trkpt lat="44.12269" lon="4.52581">
        <ele>169.1</ele>
        <time>2019-06-01T07:21:54Z</time>
      </trkpt>
      <trkpt lat="44.12271" lon="4.52572">
        <ele>167.8</ele>
        <time>2019-06-01T07:21:56Z</time>
      </trkpt>
      <trkpt lat="44.12272" lon="4.52566">
        <ele>167</ele>
        <time>2019-06-01T07:21:57Z</time>
      </trkpt>
      <trkpt lat="44.12275" lon="4.52562">
        <ele>166.3</ele>
        <time>2019-06-01T07:22:03Z</time>
      </trkpt>
      <trkpt lat="44.12275" lon="4.52557">
        <ele>165.7</ele>
        <time>2019-06-01T07:22:05Z</time>
      </trkpt>
      <trkpt lat="44.12272" lon="4.52555">
        <ele>165.1</ele>
        <time>2019-06-01T07:22:07Z</time>
      </trkpt>
      <trkpt lat="44.12269" lon="4.52551">
        <ele>164.4</ele>
        <time>2019-06-01T07:22:09Z</time>
      </trkpt>
      <trkpt lat="44.12267" lon="4.52546">
        <ele>163.9</ele>
        <time>2019-06-01T07:22:11Z</time>
      </trkpt>
      <trkpt lat="44.12265" lon="4.52542">
        <ele>163.6</ele>
        <time>2019-06-01T07:22:13Z</time>
      </trkpt>
      <trkpt lat="44.12262" lon="4.5254">
        <ele>163.3</ele>
        <time>2019-06-01T07:22:15Z</time>
      </trkpt>
      <trkpt lat="44.12259" lon="4.52537">
        <ele>163.2</ele>
        <time>2019-06-01T07:22:17Z</time>
      </trkpt>
      <trkpt lat="44.12256" lon="4.52534">
        <ele>163</ele>
        <time>2019-06-01T07:22:19Z</time>
      </trkpt>
      <trkpt lat="44.12255" lon="4.5253">
        <ele>163</ele>
        <time>2019-06-01T07:22:20Z</time>
      </trkpt>
      <trkpt lat="44.12252" lon="4.52527">
        <ele>163</ele>
        <time>2019-06-01T07:22:23Z</time>
      </trkpt>
      <trkpt lat="44.12249" lon="4.52525">
        <ele>163</ele>
        <time>2019-06-01T07:22:25Z</time>
      </trkpt>
      <trkpt lat="44.12245" lon="4.52522">
        <ele>163.1</ele>
        <time>2019-06-01T07:22:27Z</time>
      </trkpt>
      <trkpt lat="44.12241" lon="4.52519">
        <ele>163.1</ele>
        <time>2019-06-01T07:22:29Z</time>
      </trkpt>
      <trkpt lat="44.12237" lon="4.52517">
        <ele>163.2</ele>
        <time>2019-06-01T07:22:30Z</time>
      </trkpt>
      <trkpt lat="44.12233" lon="4.52515">
        <ele>163.2</ele>
        <time>2019-06-01T07:22:32Z</time>
      </trkpt>
      <trkpt lat="44.1223" lon="4.52513">
        <ele>163.2</ele>
        <time>2019-06-01T07:22:34Z</time>
      </trkpt>
      <trkpt lat="44.12228" lon="4.5251">
        <ele>163.2</ele>
        <time>2019-06-01T07:22:35Z</time>
      </trkpt>
      <trkpt lat="44.12225" lon="4.52508">
        <ele>163.2</ele>
        <time>2019-06-01T07:22:36Z</time>
      </trkpt>
      <trkpt lat="44.12223" lon="4.52504">
        <ele>163.1</ele>
        <time>2019-06-01T07:22:37Z</time>
      </trkpt>
      <trkpt lat="44.1222" lon="4.525">
        <ele>163</ele>
        <time>2019-06-01T07:22:38Z</time>
      </trkpt>
      <trkpt lat="44.12217" lon="4.52497">
        <ele>162.9</ele>
        <time>2019-06-01T07:22:39Z</time>
      </trkpt>
      <trkpt lat="44.12214" lon="4.52494">
        <ele>162.7</ele>
        <time>2019-06-01T07:22:40Z</time>
      </trkpt>
      <trkpt lat="44.12211" lon="4.52491">
        <ele>162.5</ele>
        <time>2019-06-01T07:22:41Z</time>
      </trkpt>
      <trkpt lat="44.12208" lon="4.52488">
        <ele>162.2</ele>
        <time>2019-06-01T07:22:42Z</time>
      </trkpt>
      <trkpt lat="44.12205" lon="4.52486">
        <ele>162</ele>
        <time>2019-06-01T07:22:43Z</time>
      </trkpt>
      <trkpt lat="44.12201" lon="4.52483">
        <ele>161.6</ele>
        <time>2019-06-01T07:22:45Z</time>
      </trkpt>
      <trkpt lat="44.12198" lon="4.52473">
        <ele>160.8</ele>
        <time>2019-06-01T07:22:47Z</time>
      </trkpt>
      <trkpt lat="44.12195" lon="4.52467">
        <ele>160.3</ele>
        <time>2019-06-01T07:22:48Z</time>
      </trkpt>
      <trkpt lat="44.12196" lon="4.5246">
        <ele>159.7</ele>
        <time>2019-06-01T07:22:49Z</time>
      </trkpt>
      <trkpt lat="44.12197" lon="4.52456">
        <ele>159.6</ele>
        <time>2019-06-01T07:22:51Z</time>
      </trkpt>
      <trkpt lat="44.122" lon="4.52452">
        <ele>159.6</ele>
        <time>2019-06-01T07:22:53Z</time>
      </trkpt>
      <trkpt lat="44.12202" lon="4.52455">
        <ele>159.6</ele>
        <time>2019-06-01T07:22:55Z</time>
      </trkpt>
      <trkpt lat="44.12205" lon="4.52457">
        <ele>159.6</ele>
        <time>2019-06-01T07:22:56Z</time>
      </trkpt>
      <trkpt lat="44.12211" lon="4.52461">
        <ele>159.6</ele>
        <time>2019-06-01T07:22:58Z</time>
      </trkpt>
      <trkpt lat="44.12215" lon="4.52463">
        <ele>159.6</ele>
        <time>2019-06-01T07:22:59Z</time>
      </trkpt>
      <trkpt lat="44.12219" lon="4.52464">
        <ele>159.7</ele>
        <time>2019-06-01T07:23:00Z</time>
      </trkpt>
      <trkpt lat="44.12225" lon="4.52466">
        <ele>159.7</ele>
        <time>2019-06-01T07:23:02Z</time>
      </trkpt>
      <trkpt lat="44.12229" lon="4.52468">
        <ele>159.7</ele>
        <time>2019-06-01T07:23:03Z</time>
      </trkpt>
      <trkpt lat="44.12233" lon="4.5247">
        <ele>159.7</ele>
        <time>2019-06-01T07:23:04Z</time>
      </trkpt>
      <trkpt lat="44.12237" lon="4.52471">
        <ele>159.8</ele>
        <time>2019-06-01T07:23:05Z</time>
      </trkpt>
      <trkpt lat="44.12241" lon="4.52471">
        <ele>159.8</ele>
        <time>2019-06-01T07:23:06Z</time>
      </trkpt>
      <trkpt lat="44.12245" lon="4.52472">
        <ele>159.8</ele>
        <time>2019-06-01T07:23:07Z</time>
      </trkpt>
      <trkpt lat="44.1225" lon="4.52475">
        <ele>159.8</ele>
        <time>2019-06-01T07:23:08Z</time>
      </trkpt>
      <trkpt lat="44.12253" lon="4.52478">
        <ele>159.8</ele>
        <time>2019-06-01T07:23:09Z</time>
      </trkpt>
      <trkpt lat="44.12257" lon="4.5248">
        <ele>159.8</ele>
        <time>2019-06-01T07:23:10Z</time>
      </trkpt>
      <trkpt lat="44.1226" lon="4.52481">
        <ele>159.8</ele>
        <time>2019-06-01T07:23:11Z</time>
      </trkpt>
      <trkpt lat="44.12263" lon="4.5248">
        <ele>159.9</ele>
        <time>2019-06-01T07:23:12Z</time>
      </trkpt>
      <trkpt lat="44.12265" lon="4.52479">
        <ele>159.9</ele>
        <time>2019-06-01T07:23:13Z</time>
      </trkpt>
      <trkpt lat="44.1227" lon="4.52475">
        <ele>159.9</ele>
        <time>2019-06-01T07:23:15Z</time>
      </trkpt>
      <trkpt lat="44.12273" lon="4.52472">
        <ele>159.9</ele>
        <time>2019-06-01T07:23:16Z</time>
      </trkpt>
      <trkpt lat="44.12279" lon="4.5246">
        <ele>159.9</ele>
        <time>2019-06-01T07:23:17Z</time>
      </trkpt>
      <trkpt lat="44.12281" lon="4.52455">
        <ele>159.9</ele>
        <time>2019-06-01T07:23:18Z</time>
      </trkpt>
      <trkpt lat="44.12284" lon="4.5245">
        <ele>159.9</ele>
        <time>2019-06-01T07:23:19Z</time>
      </trkpt>
      <trkpt lat="44.12287" lon="4.52449">
        <ele>159.9</ele>
        <time>2019-06-01T07:23:20Z</time>
      </trkpt>
      <trkpt lat="44.12291" lon="4.52445">
        <ele>159.9</ele>
        <time>2019-06-01T07:23:21Z</time>
      </trkpt>
      <trkpt lat="44.12294" lon="4.5244">
        <ele>160</ele>
        <time>2019-06-01T07:23:22Z</time>
      </trkpt>
      <trkpt lat="44.123" lon="4.52434">
        <ele>160</ele>
        <time>2019-06-01T07:23:23Z</time>
      </trkpt>
      <trkpt lat="44.12305" lon="4.52425">
        <ele>160</ele>
        <time>2019-06-01T07:23:24Z</time>
      </trkpt>
      <trkpt lat="44.12309" lon="4.52421">
        <ele>160</ele>
        <time>2019-06-01T07:23:25Z</time>
      </trkpt>
      <trkpt lat="44.12314" lon="4.52413">
        <ele>160.1</ele>
        <time>2019-06-01T07:23:26Z</time>
      </trkpt>
      <trkpt lat="44.12318" lon="4.52408">
        <ele>160.1</ele>
        <time>2019-06-01T07:23:27Z</time>
      </trkpt>
      <trkpt lat="44.12321" lon="4.52403">
        <ele>160.1</ele>
        <time>2019-06-01T07:23:28Z</time>
      </trkpt>
      <trkpt lat="44.12326" lon="4.524">
        <ele>160.1</ele>
        <time>2019-06-01T07:23:29Z</time>
      </trkpt>
      <trkpt lat="44.1233" lon="4.52396">
        <ele>160.1</ele>
        <time>2019-06-01T07:23:30Z</time>
      </trkpt>
      <trkpt lat="44.12334" lon="4.52392">
        <ele>160.1</ele>
        <time>2019-06-01T07:23:31Z</time>
      </trkpt>
      <trkpt lat="44.12337" lon="4.52383">
        <ele>160.1</ele>
        <time>2019-06-01T07:23:32Z</time>
      </trkpt>
      <trkpt lat="44.1234" lon="4.52376">
        <ele>160.2</ele>
        <time>2019-06-01T07:23:33Z</time>
      </trkpt>
      <trkpt lat="44.12343" lon="4.52371">
        <ele>160.2</ele>
        <time>2019-06-01T07:23:34Z</time>
      </trkpt>
      <trkpt lat="44.12347" lon="4.52367">
        <ele>160.2</ele>
        <time>2019-06-01T07:23:35Z</time>
      </trkpt>
      <trkpt lat="44.12351" lon="4.52364">
        <ele>160.2</ele>
        <time>2019-06-01T07:23:36Z</time>
      </trkpt>
      <trkpt lat="44.12355" lon="4.52362">
        <ele>160.3</ele>
        <time>2019-06-01T07:23:37Z</time>
      </trkpt>
      <trkpt lat="44.1236" lon="4.5236">
        <ele>160.3</ele>
        <time>2019-06-01T07:23:38Z</time>
      </trkpt>
      <trkpt lat="44.12365" lon="4.52359">
        <ele>160.4</ele>
        <time>2019-06-01T07:23:39Z</time>
      </trkpt>
      <trkpt lat="44.1237" lon="4.52357">
        <ele>160.4</ele>
        <time>2019-06-01T07:23:40Z</time>
      </trkpt>
      <trkpt lat="44.12376" lon="4.52355">
        <ele>160.5</ele>
        <time>2019-06-01T07:23:41Z</time>
      </trkpt>
      <trkpt lat="44.12383" lon="4.52353">
        <ele>160.7</ele>
        <time>2019-06-01T07:23:42Z</time>
      </trkpt>
      <trkpt lat="44.1239" lon="4.5235">
        <ele>160.8</ele>
        <time>2019-06-01T07:23:43Z</time>
      </trkpt>
      <trkpt lat="44.12397" lon="4.52348">
        <ele>160.9</ele>
        <time>2019-06-01T07:23:44Z</time>
      </trkpt>
      <trkpt lat="44.12402" lon="4.52347">
        <ele>161</ele>
        <time>2019-06-01T07:23:45Z</time>
      </trkpt>
      <trkpt lat="44.12408" lon="4.52345">
        <ele>161.2</ele>
        <time>2019-06-01T07:23:46Z</time>
      </trkpt>
      <trkpt lat="44.12415" lon="4.52344">
        <ele>161.3</ele>
        <time>2019-06-01T07:23:47Z</time>
      </trkpt>
      <trkpt lat="44.12422" lon="4.52344">
        <ele>161.5</ele>
        <time>2019-06-01T07:23:48Z</time>
      </trkpt>
      <trkpt lat="44.12428" lon="4.52344">
        <ele>161.6</ele>
        <time>2019-06-01T07:23:49Z</time>
      </trkpt>
      <trkpt lat="44.12437" lon="4.52345">
        <ele>161.9</ele>
        <time>2019-06-01T07:23:50Z</time>
      </trkpt>
      <trkpt lat="44.12443" lon="4.52346">
        <ele>162</ele>
        <time>2019-06-01T07:23:51Z</time>
      </trkpt>
      <trkpt lat="44.12449" lon="4.52347">
        <ele>162.1</ele>
        <time>2019-06-01T07:23:52Z</time>
      </trkpt>
      <trkpt lat="44.12456" lon="4.52342">
        <ele>162.2</ele>
        <time>2019-06-01T07:23:53Z</time>
      </trkpt>
      <trkpt lat="44.12465" lon="4.52336">
        <ele>162.4</ele>
        <time>2019-06-01T07:23:54Z</time>
      </trkpt>
      <trkpt lat="44.12472" lon="4.52335">
        <ele>162.6</ele>
        <time>2019-06-01T07:23:55Z</time>
      </trkpt>
      <trkpt lat="44.1248" lon="4.52334">
        <ele>162.7</ele>
        <time>2019-06-01T07:23:56Z</time>
      </trkpt>
      <trkpt lat="44.12487" lon="4.52333">
        <ele>162.8</ele>
        <time>2019-06-01T07:23:57Z</time>
      </trkpt>
      <trkpt lat="44.12493" lon="4.52333">
        <ele>163</ele>
        <time>2019-06-01T07:23:58Z</time>
      </trkpt>
      <trkpt lat="44.12498" lon="4.52336">
        <ele>163</ele>
        <time>2019-06-01T07:23:59Z</time>
      </trkpt>
      <trkpt lat="44.12505" lon="4.52335">
        <ele>163.2</ele>
        <time>2019-06-01T07:24:00Z</time>
      </trkpt>
      <trkpt lat="44.12509" lon="4.52336">
        <ele>163.3</ele>
        <time>2019-06-01T07:24:01Z</time>
      </trkpt>
      <trkpt lat="44.12513" lon="4.52337">
        <ele>163.4</ele>
        <time>2019-06-01T07:24:02Z</time>
      </trkpt>
      <trkpt lat="44.12516" lon="4.52336">
        <ele>163.5</ele>
        <time>2019-06-01T07:24:03Z</time>
      </trkpt>
      <trkpt lat="44.12526" lon="4.52337">
        <ele>163.8</ele>
        <time>2019-06-01T07:24:04Z</time>
      </trkpt>
      <trkpt lat="44.12531" lon="4.5234">
        <ele>163.9</ele>
        <time>2019-06-01T07:24:05Z</time>
      </trkpt>
      <trkpt lat="44.1254" lon="4.52346">
        <ele>164</ele>
        <time>2019-06-01T07:24:06Z</time>
      </trkpt>
      <trkpt lat="44.12547" lon="4.5235">
        <ele>164.2</ele>
        <time>2019-06-01T07:24:07Z</time>
      </trkpt>
      <trkpt lat="44.12557" lon="4.52359">
        <ele>164.4</ele>
        <time>2019-06-01T07:24:08Z</time>
      </trkpt>
      <trkpt lat="44.1256" lon="4.5236">
        <ele>164.5</ele>
        <time>2019-06-01T07:24:09Z</time>
      </trkpt>
      <trkpt lat="44.12564" lon="4.52365">
        <ele>164.6</ele>
        <time>2019-06-01T07:24:10Z</time>
      </trkpt>
      <trkpt lat="44.12569" lon="4.52372">
        <ele>164.7</ele>
        <time>2019-06-01T07:24:11Z</time>
      </trkpt>
      <trkpt lat="44.12576" lon="4.52374">
        <ele>164.9</ele>
        <time>2019-06-01T07:24:12Z</time>
      </trkpt>
      <trkpt lat="44.12582" lon="4.5238">
        <ele>165.1</ele>
        <time>2019-06-01T07:24:14Z</time>
      </trkpt>
      <trkpt lat="44.12589" lon="4.5237">
        <ele>165.3</ele>
        <time>2019-06-01T07:24:15Z</time>
      </trkpt>
      <trkpt lat="44.12595" lon="4.52374">
        <ele>165.4</ele>
        <time>2019-06-01T07:24:16Z</time>
      </trkpt>
      <trkpt lat="44.126" lon="4.52372">
        <ele>165.6</ele>
        <time>2019-06-01T07:24:17Z</time>
      </trkpt>
      <trkpt lat="44.12603" lon="4.52369">
        <ele>165.7</ele>
        <time>2019-06-01T07:24:18Z</time>
      </trkpt>
      <trkpt lat="44.12607" lon="4.52373">
        <ele>165.8</ele>
        <time>2019-06-01T07:24:20Z</time>
      </trkpt>
      <trkpt lat="44.12616" lon="4.52375">
        <ele>165.9</ele>
        <time>2019-06-01T07:24:21Z</time>
      </trkpt>
      <trkpt lat="44.1262" lon="4.52374">
        <ele>166</ele>
        <time>2019-06-01T07:24:22Z</time>
      </trkpt>
      <trkpt lat="44.12624" lon="4.52373">
        <ele>166.1</ele>
        <time>2019-06-01T07:24:23Z</time>
      </trkpt>
      <trkpt lat="44.12627" lon="4.52373">
        <ele>166.1</ele>
        <time>2019-06-01T07:24:24Z</time>
      </trkpt>
      <trkpt lat="44.1263" lon="4.5237">
        <ele>166.2</ele>
        <time>2019-06-01T07:24:25Z</time>
      </trkpt>
      <trkpt lat="44.12632" lon="4.52366">
        <ele>166.2</ele>
        <time>2019-06-01T07:24:26Z</time>
      </trkpt>
      <trkpt lat="44.12636" lon="4.52366">
        <ele>166.4</ele>
        <time>2019-06-01T07:24:28Z</time>
      </trkpt>
      <trkpt lat="44.12641" lon="4.52363">
        <ele>166.5</ele>
        <time>2019-06-01T07:24:29Z</time>
      </trkpt>
      <trkpt lat="44.12644" lon="4.52359">
        <ele>166.7</ele>
        <time>2019-06-01T07:24:30Z</time>
      </trkpt>
      <trkpt lat="44.12649" lon="4.52356">
        <ele>166.8</ele>
        <time>2019-06-01T07:24:31Z</time>
      </trkpt>
      <trkpt lat="44.12663" lon="4.52336">
        <ele>167.3</ele>
        <time>2019-06-01T07:24:33Z</time>
      </trkpt>
      <trkpt lat="44.12667" lon="4.52329">
        <ele>167.4</ele>
        <time>2019-06-01T07:24:34Z</time>
      </trkpt>
      <trkpt lat="44.12672" lon="4.52326">
        <ele>167.6</ele>
        <time>2019-06-01T07:24:35Z</time>
      </trkpt>
      <trkpt lat="44.12677" lon="4.52324">
        <ele>167.8</ele>
        <time>2019-06-01T07:24:36Z</time>
      </trkpt>
      <trkpt lat="44.12682" lon="4.52322">
        <ele>168.1</ele>
        <time>2019-06-01T07:24:37Z</time>
      </trkpt>
      <trkpt lat="44.12688" lon="4.5232">
        <ele>167.9</ele>
        <time>2019-06-01T07:24:38Z</time>
      </trkpt>
      <trkpt lat="44.12692" lon="4.52319">
        <ele>167.8</ele>
        <time>2019-06-01T07:24:39Z</time>
      </trkpt>
      <trkpt lat="44.12696" lon="4.52317">
        <ele>167.7</ele>
        <time>2019-06-01T07:24:40Z</time>
      </trkpt>
      <trkpt lat="44.12699" lon="4.52316">
        <ele>167.6</ele>
        <time>2019-06-01T07:24:41Z</time>
      </trkpt>
      <trkpt lat="44.12702" lon="4.52309">
        <ele>167.5</ele>
        <time>2019-06-01T07:24:42Z</time>
      </trkpt>
      <trkpt lat="44.12706" lon="4.52295">
        <ele>167.4</ele>
        <time>2019-06-01T07:24:43Z</time>
      </trkpt>
      <trkpt lat="44.12707" lon="4.52291">
        <ele>167.4</ele>
        <time>2019-06-01T07:24:44Z</time>
      </trkpt>
      <trkpt lat="44.12709" lon="4.52285">
        <ele>167.4</ele>
        <time>2019-06-01T07:24:45Z</time>
      </trkpt>
      <trkpt lat="44.12709" lon="4.52278">
        <ele>167.4</ele>
        <time>2019-06-01T07:24:46Z</time>
      </trkpt>
      <trkpt lat="44.12711" lon="4.52271">
        <ele>167.4</ele>
        <time>2019-06-01T07:24:47Z</time>
      </trkpt>
      <trkpt lat="44.12713" lon="4.52266">
        <ele>167.3</ele>
        <time>2019-06-01T07:24:48Z</time>
      </trkpt>
      <trkpt lat="44.12714" lon="4.5226">
        <ele>167.3</ele>
        <time>2019-06-01T07:24:49Z</time>
      </trkpt>
      <trkpt lat="44.12716" lon="4.52255">
        <ele>167.3</ele>
        <time>2019-06-01T07:24:50Z</time>
      </trkpt>
      <trkpt lat="44.12718" lon="4.52251">
        <ele>167.3</ele>
        <time>2019-06-01T07:24:51Z</time>
      </trkpt>
      <trkpt lat="44.12719" lon="4.52248">
        <ele>167.3</ele>
        <time>2019-06-01T07:24:52Z</time>
      </trkpt>
      <trkpt lat="44.1272" lon="4.52244">
        <ele>167.3</ele>
        <time>2019-06-01T07:24:53Z</time>
      </trkpt>
      <trkpt lat="44.12721" lon="4.5224">
        <ele>167.3</ele>
        <time>2019-06-01T07:24:55Z</time>
      </trkpt>
      <trkpt lat="44.12723" lon="4.52237">
        <ele>167.3</ele>
        <time>2019-06-01T07:24:58Z</time>
      </trkpt>
      <trkpt lat="44.12726" lon="4.52233">
        <ele>167.3</ele>
        <time>2019-06-01T07:25:01Z</time>
      </trkpt>
      <trkpt lat="44.12727" lon="4.52227">
        <ele>167.4</ele>
        <time>2019-06-01T07:25:03Z</time>
      </trkpt>
      <trkpt lat="44.12727" lon="4.52221">
        <ele>167.4</ele>
        <time>2019-06-01T07:25:06Z</time>
      </trkpt>
      <trkpt lat="44.12729" lon="4.52218">
        <ele>167.4</ele>
        <time>2019-06-01T07:25:09Z</time>
      </trkpt>
      <trkpt lat="44.12731" lon="4.5221">
        <ele>167.5</ele>
        <time>2019-06-01T07:25:11Z</time>
      </trkpt>
      <trkpt lat="44.12732" lon="4.52206">
        <ele>167.5</ele>
        <time>2019-06-01T07:25:12Z</time>
      </trkpt>
      <trkpt lat="44.12733" lon="4.52202">
        <ele>167.6</ele>
        <time>2019-06-01T07:25:13Z</time>
      </trkpt>
      <trkpt lat="44.12734" lon="4.52198">
        <ele>167.7</ele>
        <time>2019-06-01T07:25:14Z</time>
      </trkpt>
      <trkpt lat="44.12735" lon="4.52194">
        <ele>167.7</ele>
        <time>2019-06-01T07:25:15Z</time>
      </trkpt>
      <trkpt lat="44.12736" lon="4.52189">
        <ele>167.9</ele>
        <time>2019-06-01T07:25:17Z</time>
      </trkpt>
      <trkpt lat="44.12738" lon="4.52183">
        <ele>168.3</ele>
        <time>2019-06-01T07:25:19Z</time>
      </trkpt>
      <trkpt lat="44.1274" lon="4.52179">
        <ele>168.6</ele>
        <time>2019-06-01T07:25:21Z</time>
      </trkpt>
      <trkpt lat="44.12743" lon="4.52176">
        <ele>168.9</ele>
        <time>2019-06-01T07:25:23Z</time>
      </trkpt>
      <trkpt lat="44.12746" lon="4.52172">
        <ele>169.2</ele>
        <time>2019-06-01T07:25:26Z</time>
      </trkpt>
      <trkpt lat="44.12749" lon="4.52168">
        <ele>169.5</ele>
        <time>2019-06-01T07:25:30Z</time>
      </trkpt>
      <trkpt lat="44.1275" lon="4.52162">
        <ele>169.8</ele>
        <time>2019-06-01T07:25:32Z</time>
      </trkpt>
      <trkpt lat="44.12752" lon="4.52159">
        <ele>170.2</ele>
        <time>2019-06-01T07:25:36Z</time>
      </trkpt>
      <trkpt lat="44.12754" lon="4.52155">
        <ele>170.6</ele>
        <time>2019-06-01T07:25:37Z</time>
      </trkpt>
      <trkpt lat="44.12755" lon="4.52151">
        <ele>171.1</ele>
        <time>2019-06-01T07:25:38Z</time>
      </trkpt>
      <trkpt lat="44.12757" lon="4.52147">
        <ele>171.5</ele>
        <time>2019-06-01T07:25:39Z</time>
      </trkpt>
      <trkpt lat="44.12759" lon="4.52143">
        <ele>171.9</ele>
        <time>2019-06-01T07:25:40Z</time>
      </trkpt>
      <trkpt lat="44.12762" lon="4.52137">
        <ele>172.5</ele>
        <time>2019-06-01T07:25:42Z</time>
      </trkpt>
      <trkpt lat="44.12765" lon="4.52135">
        <ele>172.9</ele>
        <time>2019-06-01T07:25:44Z</time>
      </trkpt>
      <trkpt lat="44.12768" lon="4.52134">
        <ele>173.3</ele>
        <time>2019-06-01T07:25:47Z</time>
      </trkpt>
      <trkpt lat="44.1277" lon="4.52132">
        <ele>173.5</ele>
        <time>2019-06-01T07:25:50Z</time>
      </trkpt>
      <trkpt lat="44.12772" lon="4.52127">
        <ele>173.9</ele>
        <time>2019-06-01T07:25:52Z</time>
      </trkpt>
      <trkpt lat="44.12775" lon="4.52123">
        <ele>174.2</ele>
        <time>2019-06-01T07:25:54Z</time>
      </trkpt>
      <trkpt lat="44.12778" lon="4.52121">
        <ele>174.6</ele>
        <time>2019-06-01T07:25:56Z</time>
      </trkpt>
      <trkpt lat="44.12783" lon="4.52117">
        <ele>175</ele>
        <time>2019-06-01T07:25:58Z</time>
      </trkpt>
      <trkpt lat="44.12785" lon="4.52114">
        <ele>175.2</ele>
        <time>2019-06-01T07:25:59Z</time>
      </trkpt>
      <trkpt lat="44.12786" lon="4.52111">
        <ele>175.4</ele>
        <time>2019-06-01T07:26:00Z</time>
      </trkpt>
      <trkpt lat="44.12788" lon="4.52105">
        <ele>175.7</ele>
        <time>2019-06-01T07:26:02Z</time>
      </trkpt>
      <trkpt lat="44.1279" lon="4.52101">
        <ele>175.9</ele>
        <time>2019-06-01T07:26:04Z</time>
      </trkpt>
      <trkpt lat="44.12793" lon="4.52097">
        <ele>176.2</ele>
        <time>2019-06-01T07:26:06Z</time>
      </trkpt>
      <trkpt lat="44.12795" lon="4.52092">
        <ele>176.7</ele>
        <time>2019-06-01T07:26:09Z</time>
      </trkpt>
      <trkpt lat="44.12797" lon="4.5209">
        <ele>177</ele>
        <time>2019-06-01T07:26:11Z</time>
      </trkpt>
      <trkpt lat="44.128" lon="4.52087">
        <ele>177.2</ele>
        <time>2019-06-01T07:26:13Z</time>
      </trkpt>
      <trkpt lat="44.12803" lon="4.52084">
        <ele>177.5</ele>
        <time>2019-06-01T07:26:15Z</time>
      </trkpt>
      <trkpt lat="44.12806" lon="4.5208">
        <ele>177.8</ele>
        <time>2019-06-01T07:26:17Z</time>
      </trkpt>
      <trkpt lat="44.12809" lon="4.52076">
        <ele>178.1</ele>
        <time>2019-06-01T07:26:19Z</time>
      </trkpt>
      <trkpt lat="44.12812" lon="4.52073">
        <ele>178.4</ele>
        <time>2019-06-01T07:26:21Z</time>
      </trkpt>
      <trkpt lat="44.12815" lon="4.52069">
        <ele>178.7</ele>
        <time>2019-06-01T07:26:24Z</time>
      </trkpt>
      <trkpt lat="44.12819" lon="4.52067">
        <ele>179.1</ele>
        <time>2019-06-01T07:26:28Z</time>
      </trkpt>
      <trkpt lat="44.12822" lon="4.52066">
        <ele>179.4</ele>
        <time>2019-06-01T07:26:29Z</time>
      </trkpt>
      <trkpt lat="44.12825" lon="4.52065">
        <ele>179.6</ele>
        <time>2019-06-01T07:26:30Z</time>
      </trkpt>
      <trkpt lat="44.12828" lon="4.52063">
        <ele>179.8</ele>
        <time>2019-06-01T07:26:31Z</time>
      </trkpt>
      <trkpt lat="44.12831" lon="4.52061">
        <ele>180</ele>
        <time>2019-06-01T07:26:32Z</time>
      </trkpt>
      <trkpt lat="44.12834" lon="4.52059">
        <ele>180.3</ele>
        <time>2019-06-01T07:26:33Z</time>
      </trkpt>
      <trkpt lat="44.12838" lon="4.52055">
        <ele>180.7</ele>
        <time>2019-06-01T07:26:34Z</time>
      </trkpt>
      <trkpt lat="44.12841" lon="4.52051">
        <ele>181</ele>
        <time>2019-06-01T07:26:35Z</time>
      </trkpt>
      <trkpt lat="44.12845" lon="4.52045">
        <ele>181.3</ele>
        <time>2019-06-01T07:26:36Z</time>
      </trkpt>
      <trkpt lat="44.12848" lon="4.52038">
        <ele>181.9</ele>
        <time>2019-06-01T07:26:37Z</time>
      </trkpt>
      <trkpt lat="44.12852" lon="4.52032">
        <ele>181.9</ele>
        <time>2019-06-01T07:26:38Z</time>
      </trkpt>
      <trkpt lat="44.12861" lon="4.52012">
        <ele>181.7</ele>
        <time>2019-06-01T07:26:39Z</time>
      </trkpt>
      <trkpt lat="44.12864" lon="4.52004">
        <ele>181.6</ele>
        <time>2019-06-01T07:26:40Z</time>
      </trkpt>
      <trkpt lat="44.12871" lon="4.51987">
        <ele>181.2</ele>
        <time>2019-06-01T07:26:41Z</time>
      </trkpt>
      <trkpt lat="44.12873" lon="4.51979">
        <ele>181</ele>
        <time>2019-06-01T07:26:42Z</time>
      </trkpt>
      <trkpt lat="44.12876" lon="4.51971">
        <ele>180.8</ele>
        <time>2019-06-01T07:26:43Z</time>
      </trkpt>
      <trkpt lat="44.12881" lon="4.51961">
        <ele>180.5</ele>
        <time>2019-06-01T07:26:44Z</time>
      </trkpt>
      <trkpt lat="44.12883" lon="4.51958">
        <ele>180.4</ele>
        <time>2019-06-01T07:26:45Z</time>
      </trkpt>
      <trkpt lat="44.1289" lon="4.51952">
        <ele>180.2</ele>
        <time>2019-06-01T07:26:46Z</time>
      </trkpt>
      <trkpt lat="44.12895" lon="4.51947">
        <ele>180.1</ele>
        <time>2019-06-01T07:26:47Z</time>
      </trkpt>
      <trkpt lat="44.12899" lon="4.51943">
        <ele>180</ele>
        <time>2019-06-01T07:26:48Z</time>
      </trkpt>
      <trkpt lat="44.12905" lon="4.51941">
        <ele>179.9</ele>
        <time>2019-06-01T07:26:49Z</time>
      </trkpt>
      <trkpt lat="44.1291" lon="4.51949">
        <ele>179.8</ele>
        <time>2019-06-01T07:26:50Z</time>
      </trkpt>
      <trkpt lat="44.12915" lon="4.51951">
        <ele>179.7</ele>
        <time>2019-06-01T07:26:51Z</time>
      </trkpt>
      <trkpt lat="44.12921" lon="4.51953">
        <ele>179.6</ele>
        <time>2019-06-01T07:26:52Z</time>
      </trkpt>
      <trkpt lat="44.12924" lon="4.51952">
        <ele>179.5</ele>
        <time>2019-06-01T07:26:53Z</time>
      </trkpt>
      <trkpt lat="44.12927" lon="4.51953">
        <ele>179.5</ele>
        <time>2019-06-01T07:26:54Z</time>
      </trkpt>
      <trkpt lat="44.12932" lon="4.51952">
        <ele>179.4</ele>
        <time>2019-06-01T07:26:55Z</time>
      </trkpt>
      <trkpt lat="44.12936" lon="4.51947">
        <ele>179.3</ele>
        <time>2019-06-01T07:26:56Z</time>
      </trkpt>
      <trkpt lat="44.12937" lon="4.51941">
        <ele>179.1</ele>
        <time>2019-06-01T07:26:57Z</time>
      </trkpt>
      <trkpt lat="44.1294" lon="4.51933">
        <ele>179</ele>
        <time>2019-06-01T07:26:58Z</time>
      </trkpt>
      <trkpt lat="44.12943" lon="4.51926">
        <ele>178.9</ele>
        <time>2019-06-01T07:26:59Z</time>
      </trkpt>
      <trkpt lat="44.12945" lon="4.5192">
        <ele>178.9</ele>
        <time>2019-06-01T07:27:00Z</time>
      </trkpt>
      <trkpt lat="44.12946" lon="4.51915">
        <ele>178.9</ele>
        <time>2019-06-01T07:27:01Z</time>
      </trkpt>
      <trkpt lat="44.12948" lon="4.5191">
        <ele>178.9</ele>
        <time>2019-06-01T07:27:02Z</time>
      </trkpt>
      <trkpt lat="44.1295" lon="4.51905">
        <ele>178.9</ele>
        <time>2019-06-01T07:27:03Z</time>
      </trkpt>
      <trkpt lat="44.12951" lon="4.51899">
        <ele>178.9</ele>
        <time>2019-06-01T07:27:04Z</time>
      </trkpt>
      <trkpt lat="44.12952" lon="4.51895">
        <ele>178.9</ele>
        <time>2019-06-01T07:27:05Z</time>
      </trkpt>
      <trkpt lat="44.12954" lon="4.5189">
        <ele>178.9</ele>
        <time>2019-06-01T07:27:06Z</time>
      </trkpt>
      <trkpt lat="44.12956" lon="4.51884">
        <ele>178.9</ele>
        <time>2019-06-01T07:27:07Z</time>
      </trkpt>
      <trkpt lat="44.12957" lon="4.51879">
        <ele>179</ele>
        <time>2019-06-01T07:27:08Z</time>
      </trkpt>
      <trkpt lat="44.12959" lon="4.51873">
        <ele>179.2</ele>
        <time>2019-06-01T07:27:09Z</time>
      </trkpt>
      <trkpt lat="44.12961" lon="4.51868">
        <ele>179.4</ele>
        <time>2019-06-01T07:27:10Z</time>
      </trkpt>
      <trkpt lat="44.12962" lon="4.51862">
        <ele>179.6</ele>
        <time>2019-06-01T07:27:11Z</time>
      </trkpt>
      <trkpt lat="44.12964" lon="4.51857">
        <ele>179.7</ele>
        <time>2019-06-01T07:27:12Z</time>
      </trkpt>
      <trkpt lat="44.12966" lon="4.51852">
        <ele>180</ele>
        <time>2019-06-01T07:27:13Z</time>
      </trkpt>
      <trkpt lat="44.12967" lon="4.51847">
        <ele>180.2</ele>
        <time>2019-06-01T07:27:14Z</time>
      </trkpt>
      <trkpt lat="44.12969" lon="4.51842">
        <ele>180.4</ele>
        <time>2019-06-01T07:27:15Z</time>
      </trkpt>
      <trkpt lat="44.12971" lon="4.51837">
        <ele>180.5</ele>
        <time>2019-06-01T07:27:16Z</time>
      </trkpt>
      <trkpt lat="44.12973" lon="4.51833">
        <ele>180.5</ele>
        <time>2019-06-01T07:27:17Z</time>
      </trkpt>
      <trkpt lat="44.12975" lon="4.51828">
        <ele>180.6</ele>
        <time>2019-06-01T07:27:18Z</time>
      </trkpt>
      <trkpt lat="44.12977" lon="4.51823">
        <ele>180.6</ele>
        <time>2019-06-01T07:27:19Z</time>
      </trkpt>
      <trkpt lat="44.12979" lon="4.51819">
        <ele>180.7</ele>
        <time>2019-06-01T07:27:20Z</time>
      </trkpt>
      <trkpt lat="44.12981" lon="4.51815">
        <ele>180.7</ele>
        <time>2019-06-01T07:27:21Z</time>
      </trkpt>
      <trkpt lat="44.12982" lon="4.5181">
        <ele>180.8</ele>
        <time>2019-06-01T07:27:22Z</time>
      </trkpt>
      <trkpt lat="44.12983" lon="4.51806">
        <ele>181</ele>
        <time>2019-06-01T07:27:23Z</time>
      </trkpt>
      <trkpt lat="44.12984" lon="4.51802">
        <ele>181.1</ele>
        <time>2019-06-01T07:27:24Z</time>
      </trkpt>
      <trkpt lat="44.12985" lon="4.51797">
        <ele>181.4</ele>
        <time>2019-06-01T07:27:25Z</time>
      </trkpt>
      <trkpt lat="44.12986" lon="4.51793">
        <ele>181.6</ele>
        <time>2019-06-01T07:27:26Z</time>
      </trkpt>
      <trkpt lat="44.12987" lon="4.51789">
        <ele>181.8</ele>
        <time>2019-06-01T07:27:27Z</time>
      </trkpt>
      <trkpt lat="44.12988" lon="4.51785">
        <ele>181.9</ele>
        <time>2019-06-01T07:27:28Z</time>
      </trkpt>
      <trkpt lat="44.12989" lon="4.5178">
        <ele>182.1</ele>
        <time>2019-06-01T07:27:29Z</time>
      </trkpt>
      <trkpt lat="44.12991" lon="4.51776">
        <ele>182.5</ele>
        <time>2019-06-01T07:27:30Z</time>
      </trkpt>
      <trkpt lat="44.12991" lon="4.51771">
        <ele>182.9</ele>
        <time>2019-06-01T07:27:31Z</time>
      </trkpt>
      <trkpt lat="44.12992" lon="4.51766">
        <ele>183</ele>
        <time>2019-06-01T07:27:32Z</time>
      </trkpt>
      <trkpt lat="44.12992" lon="4.51761">
        <ele>183.2</ele>
        <time>2019-06-01T07:27:33Z</time>
      </trkpt>
      <trkpt lat="44.12992" lon="4.51757">
        <ele>183.5</ele>
        <time>2019-06-01T07:27:34Z</time>
      </trkpt>
      <trkpt lat="44.12991" lon="4.51753">
        <ele>183.9</ele>
        <time>2019-06-01T07:27:35Z</time>
      </trkpt>
      <trkpt lat="44.12991" lon="4.51749">
        <ele>184.1</ele>
        <time>2019-06-01T07:27:36Z</time>
      </trkpt>
      <trkpt lat="44.1299" lon="4.51743">
        <ele>184.4</ele>
        <time>2019-06-01T07:27:38Z</time>
      </trkpt>
      <trkpt lat="44.1299" lon="4.51737">
        <ele>184.7</ele>
        <time>2019-06-01T07:27:41Z</time>
      </trkpt>
      <trkpt lat="44.12991" lon="4.51731">
        <ele>185.1</ele>
        <time>2019-06-01T07:27:43Z</time>
      </trkpt>
      <trkpt lat="44.12992" lon="4.51724">
        <ele>185.5</ele>
        <time>2019-06-01T07:27:45Z</time>
      </trkpt>
      <trkpt lat="44.12994" lon="4.51719">
        <ele>185.9</ele>
        <time>2019-06-01T07:27:47Z</time>
      </trkpt>
      <trkpt lat="44.12996" lon="4.51715">
        <ele>186.1</ele>
        <time>2019-06-01T07:27:49Z</time>
      </trkpt>
      <trkpt lat="44.12999" lon="4.51711">
        <ele>186.3</ele>
        <time>2019-06-01T07:27:51Z</time>
      </trkpt>
      <trkpt lat="44.13002" lon="4.51708">
        <ele>186.6</ele>
        <time>2019-06-01T07:27:53Z</time>
      </trkpt>
      <trkpt lat="44.13003" lon="4.51704">
        <ele>186.9</ele>
        <time>2019-06-01T07:27:56Z</time>
      </trkpt>
      <trkpt lat="44.13004" lon="4.51698">
        <ele>187.3</ele>
        <time>2019-06-01T07:27:58Z</time>
      </trkpt>
      <trkpt lat="44.13006" lon="4.51692">
        <ele>187.9</ele>
        <time>2019-06-01T07:28:00Z</time>
      </trkpt>
      <trkpt lat="44.13008" lon="4.51687">
        <ele>188.3</ele>
        <time>2019-06-01T07:28:02Z</time>
      </trkpt>
      <trkpt lat="44.13011" lon="4.51683">
        <ele>188.8</ele>
        <time>2019-06-01T07:28:04Z</time>
      </trkpt>
      <trkpt lat="44.13013" lon="4.5168">
        <ele>189.2</ele>
        <time>2019-06-01T07:28:06Z</time>
      </trkpt>
      <trkpt lat="44.13015" lon="4.51676">
        <ele>189.6</ele>
        <time>2019-06-01T07:28:08Z</time>
      </trkpt>
      <trkpt lat="44.13018" lon="4.51675">
        <ele>189.9</ele>
        <time>2019-06-01T07:28:11Z</time>
      </trkpt>
      <trkpt lat="44.13021" lon="4.51676">
        <ele>190.2</ele>
        <time>2019-06-01T07:28:13Z</time>
      </trkpt>
      <trkpt lat="44.13023" lon="4.51674">
        <ele>190.5</ele>
        <time>2019-06-01T07:28:15Z</time>
      </trkpt>
      <trkpt lat="44.13024" lon="4.5167">
        <ele>191</ele>
        <time>2019-06-01T07:28:17Z</time>
      </trkpt>
      <trkpt lat="44.13026" lon="4.51665">
        <ele>191.7</ele>
        <time>2019-06-01T07:28:20Z</time>
      </trkpt>
      <trkpt lat="44.13029" lon="4.51662">
        <ele>192</ele>
        <time>2019-06-01T07:28:22Z</time>
      </trkpt>
      <trkpt lat="44.13031" lon="4.51658">
        <ele>192.3</ele>
        <time>2019-06-01T07:28:24Z</time>
      </trkpt>
      <trkpt lat="44.13034" lon="4.51654">
        <ele>192.6</ele>
        <time>2019-06-01T07:28:26Z</time>
      </trkpt>
      <trkpt lat="44.13036" lon="4.51649">
        <ele>192.9</ele>
        <time>2019-06-01T07:28:28Z</time>
      </trkpt>
      <trkpt lat="44.13038" lon="4.51643">
        <ele>193.2</ele>
        <time>2019-06-01T07:28:30Z</time>
      </trkpt>
      <trkpt lat="44.13039" lon="4.5164">
        <ele>193.3</ele>
        <time>2019-06-01T07:28:32Z</time>
      </trkpt>
      <trkpt lat="44.13041" lon="4.51635">
        <ele>193.6</ele>
        <time>2019-06-01T07:28:34Z</time>
      </trkpt>
      <trkpt lat="44.13043" lon="4.51631">
        <ele>193.8</ele>
        <time>2019-06-01T07:28:36Z</time>
      </trkpt>
      <trkpt lat="44.13045" lon="4.51626">
        <ele>194.1</ele>
        <time>2019-06-01T07:28:38Z</time>
      </trkpt>
      <trkpt lat="44.13047" lon="4.5162">
        <ele>194.4</ele>
        <time>2019-06-01T07:28:40Z</time>
      </trkpt>
      <trkpt lat="44.13049" lon="4.51615">
        <ele>194.7</ele>
        <time>2019-06-01T07:28:42Z</time>
      </trkpt>
      <trkpt lat="44.1305" lon="4.5161">
        <ele>195</ele>
        <time>2019-06-01T07:28:44Z</time>
      </trkpt>
      <trkpt lat="44.13052" lon="4.51606">
        <ele>195.2</ele>
        <time>2019-06-01T07:28:46Z</time>
      </trkpt>
      <trkpt lat="44.13052" lon="4.51602">
        <ele>195.5</ele>
        <time>2019-06-01T07:28:49Z</time>
      </trkpt>
      <trkpt lat="44.13053" lon="4.51597">
        <ele>195.7</ele>
        <time>2019-06-01T07:28:51Z</time>
      </trkpt>
      <trkpt lat="44.13054" lon="4.51593">
        <ele>195.9</ele>
        <time>2019-06-01T07:28:53Z</time>
      </trkpt>
      <trkpt lat="44.13056" lon="4.51587">
        <ele>196.1</ele>
        <time>2019-06-01T07:28:55Z</time>
      </trkpt>
      <trkpt lat="44.13059" lon="4.51582">
        <ele>196.3</ele>
        <time>2019-06-01T07:28:57Z</time>
      </trkpt>
      <trkpt lat="44.1306" lon="4.51576">
        <ele>196.5</ele>
        <time>2019-06-01T07:28:59Z</time>
      </trkpt>
      <trkpt lat="44.13061" lon="4.51571">
        <ele>196.6</ele>
        <time>2019-06-01T07:29:01Z</time>
      </trkpt>
      <trkpt lat="44.13063" lon="4.51566">
        <ele>196.8</ele>
        <time>2019-06-01T07:29:03Z</time>
      </trkpt>
      <trkpt lat="44.13064" lon="4.51562">
        <ele>196.9</ele>
        <time>2019-06-01T07:29:05Z</time>
      </trkpt>
      <trkpt lat="44.13067" lon="4.51558">
        <ele>196.9</ele>
        <time>2019-06-01T07:29:07Z</time>
      </trkpt>
      <trkpt lat="44.13068" lon="4.51554">
        <ele>196.9</ele>
        <time>2019-06-01T07:29:10Z</time>
      </trkpt>
      <trkpt lat="44.1307" lon="4.51548">
        <ele>197.2</ele>
        <time>2019-06-01T07:29:13Z</time>
      </trkpt>
      <trkpt lat="44.13072" lon="4.51541">
        <ele>197.5</ele>
        <time>2019-06-01T07:29:15Z</time>
      </trkpt>
      <trkpt lat="44.13073" lon="4.51537">
        <ele>197.6</ele>
        <time>2019-06-01T07:29:16Z</time>
      </trkpt>
      <trkpt lat="44.13074" lon="4.51533">
        <ele>197.7</ele>
        <time>2019-06-01T07:29:17Z</time>
      </trkpt>
      <trkpt lat="44.13076" lon="4.51527">
        <ele>198</ele>
        <time>2019-06-01T07:29:19Z</time>
      </trkpt>
      <trkpt lat="44.13078" lon="4.51521">
        <ele>198.4</ele>
        <time>2019-06-01T07:29:21Z</time>
      </trkpt>
      <trkpt lat="44.1308" lon="4.51514">
        <ele>198.7</ele>
        <time>2019-06-01T07:29:23Z</time>
      </trkpt>
      <trkpt lat="44.13082" lon="4.51511">
        <ele>198.9</ele>
        <time>2019-06-01T07:29:24Z</time>
      </trkpt>
      <trkpt lat="44.13083" lon="4.51508">
        <ele>199.1</ele>
        <time>2019-06-01T07:29:25Z</time>
      </trkpt>
      <trkpt lat="44.13085" lon="4.51503">
        <ele>199.4</ele>
        <time>2019-06-01T07:29:27Z</time>
      </trkpt>
      <trkpt lat="44.13086" lon="4.51496">
        <ele>199.8</ele>
        <time>2019-06-01T07:29:29Z</time>
      </trkpt>
      <trkpt lat="44.13088" lon="4.51491">
        <ele>200</ele>
        <time>2019-06-01T07:29:31Z</time>
      </trkpt>
      <trkpt lat="44.1309" lon="4.51485">
        <ele>200.5</ele>
        <time>2019-06-01T07:29:33Z</time>
      </trkpt>
      <trkpt lat="44.13091" lon="4.51478">
        <ele>201</ele>
        <time>2019-06-01T07:29:35Z</time>
      </trkpt>
      <trkpt lat="44.13092" lon="4.51473">
        <ele>201.1</ele>
        <time>2019-06-01T07:29:37Z</time>
      </trkpt>
      <trkpt lat="44.13093" lon="4.51467">
        <ele>201.2</ele>
        <time>2019-06-01T07:29:40Z</time>
      </trkpt>
      <trkpt lat="44.13093" lon="4.51462">
        <ele>201.3</ele>
        <time>2019-06-01T07:29:42Z</time>
      </trkpt>
      <trkpt lat="44.13094" lon="4.51458">
        <ele>201.7</ele>
        <time>2019-06-01T07:29:44Z</time>
      </trkpt>
      <trkpt lat="44.13095" lon="4.51453">
        <ele>201.7</ele>
        <time>2019-06-01T07:29:46Z</time>
      </trkpt>
      <trkpt lat="44.13095" lon="4.51448">
        <ele>201.7</ele>
        <time>2019-06-01T07:29:48Z</time>
      </trkpt>
      <trkpt lat="44.13095" lon="4.5144">
        <ele>201.7</ele>
        <time>2019-06-01T07:29:50Z</time>
      </trkpt>
      <trkpt lat="44.13095" lon="4.51436">
        <ele>201.6</ele>
        <time>2019-06-01T07:29:51Z</time>
      </trkpt>
      <trkpt lat="44.13095" lon="4.5143">
        <ele>201.6</ele>
        <time>2019-06-01T07:29:53Z</time>
      </trkpt>
      <trkpt lat="44.13096" lon="4.51423">
        <ele>201.6</ele>
        <time>2019-06-01T07:29:55Z</time>
      </trkpt>
      <trkpt lat="44.13097" lon="4.51419">
        <ele>201.9</ele>
        <time>2019-06-01T07:29:57Z</time>
      </trkpt>
      <trkpt lat="44.13098" lon="4.51414">
        <ele>201.9</ele>
        <time>2019-06-01T07:29:59Z</time>
      </trkpt>
      <trkpt lat="44.13098" lon="4.51408">
        <ele>201.9</ele>
        <time>2019-06-01T07:30:01Z</time>
      </trkpt>
      <trkpt lat="44.13099" lon="4.51402">
        <ele>201.9</ele>
        <time>2019-06-01T07:30:03Z</time>
      </trkpt>
      <trkpt lat="44.131" lon="4.51398">
        <ele>202.1</ele>
        <time>2019-06-01T07:30:05Z</time>
      </trkpt>
      <trkpt lat="44.13103" lon="4.51393">
        <ele>202</ele>
        <time>2019-06-01T07:30:07Z</time>
      </trkpt>
      <trkpt lat="44.13105" lon="4.51389">
        <ele>202.2</ele>
        <time>2019-06-01T07:30:08Z</time>
      </trkpt>
      <trkpt lat="44.13106" lon="4.51385">
        <ele>202.1</ele>
        <time>2019-06-01T07:30:09Z</time>
      </trkpt>
      <trkpt lat="44.13106" lon="4.51381">
        <ele>202.2</ele>
        <time>2019-06-01T07:30:10Z</time>
      </trkpt>
      <trkpt lat="44.13108" lon="4.51377">
        <ele>202.1</ele>
        <time>2019-06-01T07:30:12Z</time>
      </trkpt>
      <trkpt lat="44.1311" lon="4.51373">
        <ele>202.2</ele>
        <time>2019-06-01T07:30:14Z</time>
      </trkpt>
      <trkpt lat="44.13111" lon="4.51367">
        <ele>202.1</ele>
        <time>2019-06-01T07:30:16Z</time>
      </trkpt>
      <trkpt lat="44.13113" lon="4.51363">
        <ele>202.1</ele>
        <time>2019-06-01T07:30:18Z</time>
      </trkpt>
      <trkpt lat="44.13114" lon="4.51359">
        <ele>202</ele>
        <time>2019-06-01T07:30:19Z</time>
      </trkpt>
      <trkpt lat="44.13116" lon="4.51355">
        <ele>202.1</ele>
        <time>2019-06-01T07:30:21Z</time>
      </trkpt>
      <trkpt lat="44.13119" lon="4.51352">
        <ele>202.2</ele>
        <time>2019-06-01T07:30:23Z</time>
      </trkpt>
      <trkpt lat="44.13121" lon="4.51348">
        <ele>202.2</ele>
        <time>2019-06-01T07:30:27Z</time>
      </trkpt>
      <trkpt lat="44.13122" lon="4.51339">
        <ele>202.4</ele>
        <time>2019-06-01T07:31:02Z</time>
      </trkpt>
      <trkpt lat="44.13124" lon="4.51334">
        <ele>202.4</ele>
        <time>2019-06-01T07:31:04Z</time>
      </trkpt>
      <trkpt lat="44.13126" lon="4.5133">
        <ele>202.6</ele>
        <time>2019-06-01T07:31:05Z</time>
      </trkpt>
      <trkpt lat="44.13129" lon="4.51327">
        <ele>202.9</ele>
        <time>2019-06-01T07:31:06Z</time>
      </trkpt>
      <trkpt lat="44.13132" lon="4.51324">
        <ele>203.3</ele>
        <time>2019-06-01T07:31:07Z</time>
      </trkpt>
      <trkpt lat="44.13135" lon="4.51322">
        <ele>203.6</ele>
        <time>2019-06-01T07:31:08Z</time>
      </trkpt>
      <trkpt lat="44.13138" lon="4.5132">
        <ele>203.9</ele>
        <time>2019-06-01T07:31:09Z</time>
      </trkpt>
      <trkpt lat="44.13141" lon="4.51318">
        <ele>204.2</ele>
        <time>2019-06-01T07:31:10Z</time>
      </trkpt>
      <trkpt lat="44.13144" lon="4.51317">
        <ele>204.5</ele>
        <time>2019-06-01T07:31:11Z</time>
      </trkpt>
      <trkpt lat="44.13148" lon="4.51314">
        <ele>204.8</ele>
        <time>2019-06-01T07:31:12Z</time>
      </trkpt>
      <trkpt lat="44.13151" lon="4.51311">
        <ele>205.1</ele>
        <time>2019-06-01T07:31:13Z</time>
      </trkpt>
      <trkpt lat="44.13155" lon="4.5131">
        <ele>205.4</ele>
        <time>2019-06-01T07:31:14Z</time>
      </trkpt>
      <trkpt lat="44.13159" lon="4.51309">
        <ele>206.1</ele>
        <time>2019-06-01T07:31:15Z</time>
      </trkpt>
      <trkpt lat="44.13163" lon="4.5131">
        <ele>206.4</ele>
        <time>2019-06-01T07:31:16Z</time>
      </trkpt>
      <trkpt lat="44.13167" lon="4.51309">
        <ele>206.8</ele>
        <time>2019-06-01T07:31:18Z</time>
      </trkpt>
      <trkpt lat="44.1317" lon="4.51306">
        <ele>207.1</ele>
        <time>2019-06-01T07:31:20Z</time>
      </trkpt>
      <trkpt lat="44.13172" lon="4.51301">
        <ele>207.4</ele>
        <time>2019-06-01T07:31:21Z</time>
      </trkpt>
      <trkpt lat="44.13174" lon="4.51295">
        <ele>207.7</ele>
        <time>2019-06-01T07:31:22Z</time>
      </trkpt>
      <trkpt lat="44.13176" lon="4.51291">
        <ele>207.7</ele>
        <time>2019-06-01T07:31:23Z</time>
      </trkpt>
      <trkpt lat="44.13178" lon="4.51285">
        <ele>208</ele>
        <time>2019-06-01T07:31:25Z</time>
      </trkpt>
      <trkpt lat="44.13179" lon="4.51279">
        <ele>208</ele>
        <time>2019-06-01T07:31:27Z</time>
      </trkpt>
      <trkpt lat="44.13178" lon="4.51274">
        <ele>208</ele>
        <time>2019-06-01T07:31:30Z</time>
      </trkpt>
      <trkpt lat="44.13177" lon="4.51268">
        <ele>207.5</ele>
        <time>2019-06-01T07:31:32Z</time>
      </trkpt>
      <trkpt lat="44.13176" lon="4.51264">
        <ele>207.5</ele>
        <time>2019-06-01T07:31:33Z</time>
      </trkpt>
      <trkpt lat="44.13176" lon="4.51259">
        <ele>207.5</ele>
        <time>2019-06-01T07:31:34Z</time>
      </trkpt>
      <trkpt lat="44.13173" lon="4.51255">
        <ele>207.1</ele>
        <time>2019-06-01T07:31:36Z</time>
      </trkpt>
      <trkpt lat="44.1317" lon="4.51252">
        <ele>206.6</ele>
        <time>2019-06-01T07:31:38Z</time>
      </trkpt>
      <trkpt lat="44.13168" lon="4.51248">
        <ele>206.7</ele>
        <time>2019-06-01T07:31:40Z</time>
      </trkpt>
      <trkpt lat="44.13167" lon="4.51242">
        <ele>206.3</ele>
        <time>2019-06-01T07:31:42Z</time>
      </trkpt>
      <trkpt lat="44.13164" lon="4.51236">
        <ele>206</ele>
        <time>2019-06-01T07:31:44Z</time>
      </trkpt>
      <trkpt lat="44.13162" lon="4.51231">
        <ele>205.7</ele>
        <time>2019-06-01T07:31:46Z</time>
      </trkpt>
      <trkpt lat="44.13162" lon="4.51225">
        <ele>206.1</ele>
        <time>2019-06-01T07:31:48Z</time>
      </trkpt>
      <trkpt lat="44.13162" lon="4.5122">
        <ele>206.2</ele>
        <time>2019-06-01T07:31:50Z</time>
      </trkpt>
      <trkpt lat="44.13162" lon="4.51214">
        <ele>206.2</ele>
        <time>2019-06-01T07:31:52Z</time>
      </trkpt>
      <trkpt lat="44.13163" lon="4.51207">
        <ele>206.3</ele>
        <time>2019-06-01T07:31:54Z</time>
      </trkpt>
      <trkpt lat="44.13163" lon="4.51202">
        <ele>206.4</ele>
        <time>2019-06-01T07:31:56Z</time>
      </trkpt>
      <trkpt lat="44.13163" lon="4.51199">
        <ele>206.4</ele>
        <time>2019-06-01T07:31:58Z</time>
      </trkpt>
      <trkpt lat="44.13164" lon="4.51195">
        <ele>206.4</ele>
        <time>2019-06-01T07:32:03Z</time>
      </trkpt>
      <trkpt lat="44.13165" lon="4.51191">
        <ele>206.7</ele>
        <time>2019-06-01T07:32:05Z</time>
      </trkpt>
      <trkpt lat="44.13167" lon="4.51186">
        <ele>206.8</ele>
        <time>2019-06-01T07:32:07Z</time>
      </trkpt>
      <trkpt lat="44.13169" lon="4.51181">
        <ele>207.3</ele>
        <time>2019-06-01T07:32:10Z</time>
      </trkpt>
      <trkpt lat="44.13171" lon="4.51177">
        <ele>207.7</ele>
        <time>2019-06-01T07:32:12Z</time>
      </trkpt>
      <trkpt lat="44.13173" lon="4.51173">
        <ele>207.8</ele>
        <time>2019-06-01T07:32:14Z</time>
      </trkpt>
      <trkpt lat="44.13174" lon="4.51168">
        <ele>207.9</ele>
        <time>2019-06-01T07:32:16Z</time>
      </trkpt>
      <trkpt lat="44.13174" lon="4.51164">
        <ele>208.3</ele>
        <time>2019-06-01T07:32:18Z</time>
      </trkpt>
      <trkpt lat="44.13175" lon="4.5116">
        <ele>208.4</ele>
        <time>2019-06-01T07:32:20Z</time>
      </trkpt>
      <trkpt lat="44.13176" lon="4.51155">
        <ele>208.5</ele>
        <time>2019-06-01T07:32:23Z</time>
      </trkpt>
      <trkpt lat="44.13178" lon="4.51149">
        <ele>208.8</ele>
        <time>2019-06-01T07:32:25Z</time>
      </trkpt>
      <trkpt lat="44.13179" lon="4.51142">
        <ele>208.8</ele>
        <time>2019-06-01T07:32:27Z</time>
      </trkpt>
      <trkpt lat="44.1318" lon="4.51135">
        <ele>209</ele>
        <time>2019-06-01T07:32:29Z</time>
      </trkpt>
      <trkpt lat="44.13183" lon="4.51129">
        <ele>208.9</ele>
        <time>2019-06-01T07:32:31Z</time>
      </trkpt>
      <trkpt lat="44.13185" lon="4.51124">
        <ele>209</ele>
        <time>2019-06-01T07:32:33Z</time>
      </trkpt>
      <trkpt lat="44.13187" lon="4.51119">
        <ele>209.2</ele>
        <time>2019-06-01T07:32:35Z</time>
      </trkpt>
      <trkpt lat="44.13188" lon="4.51115">
        <ele>209.1</ele>
        <time>2019-06-01T07:32:37Z</time>
      </trkpt>
      <trkpt lat="44.13192" lon="4.51112">
        <ele>209.2</ele>
        <time>2019-06-01T07:32:40Z</time>
      </trkpt>
      <trkpt lat="44.13196" lon="4.51113">
        <ele>209.7</ele>
        <time>2019-06-01T07:32:42Z</time>
      </trkpt>
      <trkpt lat="44.132" lon="4.51115">
        <ele>210.1</ele>
        <time>2019-06-01T07:32:44Z</time>
      </trkpt>
      <trkpt lat="44.13203" lon="4.51117">
        <ele>210.4</ele>
        <time>2019-06-01T07:32:46Z</time>
      </trkpt>
      <trkpt lat="44.13205" lon="4.51119">
        <ele>210.9</ele>
        <time>2019-06-01T07:32:48Z</time>
      </trkpt>
      <trkpt lat="44.13206" lon="4.51123">
        <ele>211.1</ele>
        <time>2019-06-01T07:32:51Z</time>
      </trkpt>
      <trkpt lat="44.13205" lon="4.51129">
        <ele>211.3</ele>
        <time>2019-06-01T07:32:53Z</time>
      </trkpt>
      <trkpt lat="44.13203" lon="4.51135">
        <ele>211.4</ele>
        <time>2019-06-01T07:32:55Z</time>
      </trkpt>
      <trkpt lat="44.132" lon="4.51141">
        <ele>211.2</ele>
        <time>2019-06-01T07:32:57Z</time>
      </trkpt>
      <trkpt lat="44.13198" lon="4.51145">
        <ele>210.9</ele>
        <time>2019-06-01T07:32:59Z</time>
      </trkpt>
      <trkpt lat="44.13197" lon="4.51151">
        <ele>211</ele>
        <time>2019-06-01T07:33:01Z</time>
      </trkpt>
      <trkpt lat="44.13198" lon="4.51156">
        <ele>211.1</ele>
        <time>2019-06-01T07:33:03Z</time>
      </trkpt>
      <trkpt lat="44.132" lon="4.51159">
        <ele>211.6</ele>
        <time>2019-06-01T07:33:04Z</time>
      </trkpt>
      <trkpt lat="44.13202" lon="4.51162">
        <ele>211.6</ele>
        <time>2019-06-01T07:33:05Z</time>
      </trkpt>
      <trkpt lat="44.13204" lon="4.51165">
        <ele>212</ele>
        <time>2019-06-01T07:33:06Z</time>
      </trkpt>
      <trkpt lat="44.13208" lon="4.51168">
        <ele>212.4</ele>
        <time>2019-06-01T07:33:08Z</time>
      </trkpt>
      <trkpt lat="44.13212" lon="4.51172">
        <ele>213.1</ele>
        <time>2019-06-01T07:33:10Z</time>
      </trkpt>
      <trkpt lat="44.13216" lon="4.51173">
        <ele>213.3</ele>
        <time>2019-06-01T07:33:12Z</time>
      </trkpt>
      <trkpt lat="44.1322" lon="4.51177">
        <ele>214</ele>
        <time>2019-06-01T07:33:14Z</time>
      </trkpt>
      <trkpt lat="44.13224" lon="4.5118">
        <ele>214.3</ele>
        <time>2019-06-01T07:33:16Z</time>
      </trkpt>
      <trkpt lat="44.13228" lon="4.51184">
        <ele>214.5</ele>
        <time>2019-06-01T07:33:18Z</time>
      </trkpt>
      <trkpt lat="44.13231" lon="4.51187">
        <ele>214.7</ele>
        <time>2019-06-01T07:33:20Z</time>
      </trkpt>
      <trkpt lat="44.13234" lon="4.51189">
        <ele>214.9</ele>
        <time>2019-06-01T07:33:22Z</time>
      </trkpt>
      <trkpt lat="44.13238" lon="4.51192">
        <ele>215.1</ele>
        <time>2019-06-01T07:33:24Z</time>
      </trkpt>
      <trkpt lat="44.13241" lon="4.51195">
        <ele>215.4</ele>
        <time>2019-06-01T07:33:26Z</time>
      </trkpt>
      <trkpt lat="44.13244" lon="4.51198">
        <ele>215.8</ele>
        <time>2019-06-01T07:33:28Z</time>
      </trkpt>
      <trkpt lat="44.13247" lon="4.51199">
        <ele>216.1</ele>
        <time>2019-06-01T07:33:30Z</time>
      </trkpt>
      <trkpt lat="44.13249" lon="4.512">
        <ele>216.5</ele>
        <time>2019-06-01T07:33:33Z</time>
      </trkpt>
      <trkpt lat="44.13253" lon="4.51202">
        <ele>216.9</ele>
        <time>2019-06-01T07:33:36Z</time>
      </trkpt>
      <trkpt lat="44.13257" lon="4.51204">
        <ele>217.2</ele>
        <time>2019-06-01T07:33:38Z</time>
      </trkpt>
      <trkpt lat="44.13261" lon="4.51206">
        <ele>218</ele>
        <time>2019-06-01T07:33:40Z</time>
      </trkpt>
      <trkpt lat="44.13264" lon="4.51209">
        <ele>218.2</ele>
        <time>2019-06-01T07:33:41Z</time>
      </trkpt>
      <trkpt lat="44.13267" lon="4.51212">
        <ele>218.6</ele>
        <time>2019-06-01T07:33:42Z</time>
      </trkpt>
      <trkpt lat="44.13271" lon="4.51215">
        <ele>218.9</ele>
        <time>2019-06-01T07:33:44Z</time>
      </trkpt>
      <trkpt lat="44.13275" lon="4.51219">
        <ele>219.2</ele>
        <time>2019-06-01T07:33:46Z</time>
      </trkpt>
      <trkpt lat="44.13277" lon="4.51221">
        <ele>219.5</ele>
        <time>2019-06-01T07:33:47Z</time>
      </trkpt>
      <trkpt lat="44.1328" lon="4.51225">
        <ele>219.9</ele>
        <time>2019-06-01T07:33:50Z</time>
      </trkpt>
      <trkpt lat="44.13283" lon="4.51228">
        <ele>220.4</ele>
        <time>2019-06-01T07:33:52Z</time>
      </trkpt>
      <trkpt lat="44.13286" lon="4.51231">
        <ele>220.8</ele>
        <time>2019-06-01T07:33:54Z</time>
      </trkpt>
      <trkpt lat="44.1329" lon="4.51233">
        <ele>221.2</ele>
        <time>2019-06-01T07:33:57Z</time>
      </trkpt>
      <trkpt lat="44.13294" lon="4.51236">
        <ele>221.6</ele>
        <time>2019-06-01T07:33:59Z</time>
      </trkpt>
      <trkpt lat="44.13298" lon="4.51239">
        <ele>222.4</ele>
        <time>2019-06-01T07:34:01Z</time>
      </trkpt>
      <trkpt lat="44.13302" lon="4.51239">
        <ele>222.8</ele>
        <time>2019-06-01T07:34:03Z</time>
      </trkpt>
      <trkpt lat="44.13304" lon="4.51237">
        <ele>223.2</ele>
        <time>2019-06-01T07:34:05Z</time>
      </trkpt>
      <trkpt lat="44.13307" lon="4.51234">
        <ele>223.7</ele>
        <time>2019-06-01T07:34:07Z</time>
      </trkpt>
      <trkpt lat="44.1331" lon="4.51232">
        <ele>224.1</ele>
        <time>2019-06-01T07:34:09Z</time>
      </trkpt>
      <trkpt lat="44.13313" lon="4.5123">
        <ele>224.5</ele>
        <time>2019-06-01T07:34:11Z</time>
      </trkpt>
      <trkpt lat="44.13316" lon="4.51228">
        <ele>224.9</ele>
        <time>2019-06-01T07:34:13Z</time>
      </trkpt>
      <trkpt lat="44.13319" lon="4.51225">
        <ele>224.8</ele>
        <time>2019-06-01T07:34:16Z</time>
      </trkpt>
      <trkpt lat="44.13321" lon="4.5122">
        <ele>225</ele>
        <time>2019-06-01T07:34:19Z</time>
      </trkpt>
      <trkpt lat="44.13325" lon="4.51218">
        <ele>225.7</ele>
        <time>2019-06-01T07:34:21Z</time>
      </trkpt>
      <trkpt lat="44.13327" lon="4.51219">
        <ele>226.1</ele>
        <time>2019-06-01T07:34:23Z</time>
      </trkpt>
      <trkpt lat="44.1333" lon="4.51221">
        <ele>226.5</ele>
        <time>2019-06-01T07:34:26Z</time>
      </trkpt>
      <trkpt lat="44.13331" lon="4.51226">
        <ele>226.9</ele>
        <time>2019-06-01T07:34:30Z</time>
      </trkpt>
      <trkpt lat="44.13331" lon="4.51232">
        <ele>227.5</ele>
        <time>2019-06-01T07:34:33Z</time>
      </trkpt>
      <trkpt lat="44.13332" lon="4.51236">
        <ele>227.9</ele>
        <time>2019-06-01T07:34:35Z</time>
      </trkpt>
      <trkpt lat="44.13336" lon="4.51238">
        <ele>228.5</ele>
        <time>2019-06-01T07:34:38Z</time>
      </trkpt>
      <trkpt lat="44.13338" lon="4.51239">
        <ele>229</ele>
        <time>2019-06-01T07:34:40Z</time>
      </trkpt>
      <trkpt lat="44.13341" lon="4.5124">
        <ele>229.4</ele>
        <time>2019-06-01T07:34:42Z</time>
      </trkpt>
      <trkpt lat="44.13345" lon="4.51241">
        <ele>230</ele>
        <time>2019-06-01T07:34:45Z</time>
      </trkpt>
      <trkpt lat="44.13347" lon="4.51244">
        <ele>230.4</ele>
        <time>2019-06-01T07:34:48Z</time>
      </trkpt>
      <trkpt lat="44.1335" lon="4.51244">
        <ele>231</ele>
        <time>2019-06-01T07:35:00Z</time>
      </trkpt>
      <trkpt lat="44.13354" lon="4.51245">
        <ele>231.5</ele>
        <time>2019-06-01T07:35:03Z</time>
      </trkpt>
      <trkpt lat="44.13356" lon="4.51249">
        <ele>231.9</ele>
        <time>2019-06-01T07:35:10Z</time>
      </trkpt>
      <trkpt lat="44.1336" lon="4.51251">
        <ele>232.4</ele>
        <time>2019-06-01T07:35:14Z</time>
      </trkpt>
      <trkpt lat="44.13364" lon="4.51253">
        <ele>232.8</ele>
        <time>2019-06-01T07:35:17Z</time>
      </trkpt>
      <trkpt lat="44.13367" lon="4.51254">
        <ele>233.3</ele>
        <time>2019-06-01T07:35:20Z</time>
      </trkpt>
      <trkpt lat="44.13371" lon="4.51254">
        <ele>233.8</ele>
        <time>2019-06-01T07:35:23Z</time>
      </trkpt>
      <trkpt lat="44.13374" lon="4.51255">
        <ele>234.2</ele>
        <time>2019-06-01T07:35:26Z</time>
      </trkpt>
      <trkpt lat="44.13377" lon="4.51257">
        <ele>234.7</ele>
        <time>2019-06-01T07:35:30Z</time>
      </trkpt>
      <trkpt lat="44.1338" lon="4.51257">
        <ele>235.2</ele>
        <time>2019-06-01T07:35:33Z</time>
      </trkpt>
      <trkpt lat="44.13384" lon="4.51257">
        <ele>235.7</ele>
        <time>2019-06-01T07:35:37Z</time>
      </trkpt>
      <trkpt lat="44.13386" lon="4.51259">
        <ele>236.2</ele>
        <time>2019-06-01T07:35:39Z</time>
      </trkpt>
      <trkpt lat="44.13389" lon="4.51262">
        <ele>236.7</ele>
        <time>2019-06-01T07:35:41Z</time>
      </trkpt>
      <trkpt lat="44.13391" lon="4.51265">
        <ele>236.9</ele>
        <time>2019-06-01T07:35:43Z</time>
      </trkpt>
      <trkpt lat="44.13393" lon="4.51268">
        <ele>237.2</ele>
        <time>2019-06-01T07:35:45Z</time>
      </trkpt>
      <trkpt lat="44.13396" lon="4.5127">
        <ele>237.6</ele>
        <time>2019-06-01T07:35:49Z</time>
      </trkpt>
      <trkpt lat="44.13399" lon="4.51272">
        <ele>238</ele>
        <time>2019-06-01T07:35:52Z</time>
      </trkpt>
      <trkpt lat="44.13403" lon="4.51276">
        <ele>238.6</ele>
        <time>2019-06-01T07:35:54Z</time>
      </trkpt>
      <trkpt lat="44.13405" lon="4.51279">
        <ele>239</ele>
        <time>2019-06-01T07:35:56Z</time>
      </trkpt>
      <trkpt lat="44.13408" lon="4.51283">
        <ele>239.5</ele>
        <time>2019-06-01T07:35:58Z</time>
      </trkpt>
      <trkpt lat="44.13412" lon="4.51286">
        <ele>240</ele>
        <time>2019-06-01T07:36:00Z</time>
      </trkpt>
      <trkpt lat="44.13416" lon="4.51287">
        <ele>240.4</ele>
        <time>2019-06-01T07:36:02Z</time>
      </trkpt>
      <trkpt lat="44.1342" lon="4.51289">
        <ele>240.8</ele>
        <time>2019-06-01T07:36:04Z</time>
      </trkpt>
      <trkpt lat="44.13423" lon="4.51292">
        <ele>241.2</ele>
        <time>2019-06-01T07:36:06Z</time>
      </trkpt>
      <trkpt lat="44.13426" lon="4.51293">
        <ele>241.5</ele>
        <time>2019-06-01T07:36:08Z</time>
      </trkpt>
      <trkpt lat="44.1343" lon="4.51295">
        <ele>241.8</ele>
        <time>2019-06-01T07:36:10Z</time>
      </trkpt>
      <trkpt lat="44.13433" lon="4.51297">
        <ele>242.1</ele>
        <time>2019-06-01T07:36:13Z</time>
      </trkpt>
      <trkpt lat="44.13436" lon="4.51299">
        <ele>242.4</ele>
        <time>2019-06-01T07:36:15Z</time>
      </trkpt>
      <trkpt lat="44.13439" lon="4.513">
        <ele>242.6</ele>
        <time>2019-06-01T07:36:17Z</time>
      </trkpt>
      <trkpt lat="44.13442" lon="4.513">
        <ele>242.9</ele>
        <time>2019-06-01T07:36:20Z</time>
      </trkpt>
      <trkpt lat="44.13446" lon="4.51303">
        <ele>243.3</ele>
        <time>2019-06-01T07:36:23Z</time>
      </trkpt>
      <trkpt lat="44.13448" lon="4.51305">
        <ele>243.5</ele>
        <time>2019-06-01T07:36:24Z</time>
      </trkpt>
      <trkpt lat="44.13453" lon="4.51308">
        <ele>243.8</ele>
        <time>2019-06-01T07:36:26Z</time>
      </trkpt>
      <trkpt lat="44.13457" lon="4.51309">
        <ele>244.1</ele>
        <time>2019-06-01T07:36:28Z</time>
      </trkpt>
      <trkpt lat="44.13462" lon="4.51309">
        <ele>244.3</ele>
        <time>2019-06-01T07:36:30Z</time>
      </trkpt>
      <trkpt lat="44.13465" lon="4.5131">
        <ele>244.5</ele>
        <time>2019-06-01T07:36:32Z</time>
      </trkpt>
      <trkpt lat="44.13469" lon="4.51312">
        <ele>244.8</ele>
        <time>2019-06-01T07:36:35Z</time>
      </trkpt>
      <trkpt lat="44.13472" lon="4.51315">
        <ele>245.1</ele>
        <time>2019-06-01T07:36:37Z</time>
      </trkpt>
      <trkpt lat="44.13476" lon="4.51317">
        <ele>245.4</ele>
        <time>2019-06-01T07:36:39Z</time>
      </trkpt>
      <trkpt lat="44.13481" lon="4.51317">
        <ele>245.8</ele>
        <time>2019-06-01T07:36:41Z</time>
      </trkpt>
      <trkpt lat="44.13484" lon="4.51318">
        <ele>246</ele>
        <time>2019-06-01T07:36:42Z</time>
      </trkpt>
      <trkpt lat="44.13487" lon="4.51321">
        <ele>246.1</ele>
        <time>2019-06-01T07:36:43Z</time>
      </trkpt>
      <trkpt lat="44.13491" lon="4.51325">
        <ele>246.3</ele>
        <time>2019-06-01T07:36:44Z</time>
      </trkpt>
      <trkpt lat="44.13496" lon="4.5133">
        <ele>246.5</ele>
        <time>2019-06-01T07:36:45Z</time>
      </trkpt>
      <trkpt lat="44.135" lon="4.51334">
        <ele>246.7</ele>
        <time>2019-06-01T07:36:46Z</time>
      </trkpt>
      <trkpt lat="44.13505" lon="4.51338">
        <ele>246.8</ele>
        <time>2019-06-01T07:36:47Z</time>
      </trkpt>
      <trkpt lat="44.13508" lon="4.5134">
        <ele>246.8</ele>
        <time>2019-06-01T07:36:48Z</time>
      </trkpt>
      <trkpt lat="44.1351" lon="4.51343">
        <ele>246.9</ele>
        <time>2019-06-01T07:36:49Z</time>
      </trkpt>
      <trkpt lat="44.13512" lon="4.51347">
        <ele>247</ele>
        <time>2019-06-01T07:36:50Z</time>
      </trkpt>
      <trkpt lat="44.13514" lon="4.5135">
        <ele>247.1</ele>
        <time>2019-06-01T07:36:51Z</time>
      </trkpt>
      <trkpt lat="44.13517" lon="4.51353">
        <ele>247.1</ele>
        <time>2019-06-01T07:36:52Z</time>
      </trkpt>
      <trkpt lat="44.13519" lon="4.51356">
        <ele>247.2</ele>
        <time>2019-06-01T07:36:53Z</time>
      </trkpt>
      <trkpt lat="44.13522" lon="4.51359">
        <ele>247.4</ele>
        <time>2019-06-01T07:36:54Z</time>
      </trkpt>
      <trkpt lat="44.13525" lon="4.51362">
        <ele>247.6</ele>
        <time>2019-06-01T07:36:55Z</time>
      </trkpt>
      <trkpt lat="44.13528" lon="4.51366">
        <ele>247.8</ele>
        <time>2019-06-01T07:36:56Z</time>
      </trkpt>
      <trkpt lat="44.1353" lon="4.51369">
        <ele>248</ele>
        <time>2019-06-01T07:36:57Z</time>
      </trkpt>
      <trkpt lat="44.13532" lon="4.51372">
        <ele>248.2</ele>
        <time>2019-06-01T07:36:58Z</time>
      </trkpt>
      <trkpt lat="44.13534" lon="4.51377">
        <ele>248.4</ele>
        <time>2019-06-01T07:36:59Z</time>
      </trkpt>
      <trkpt lat="44.13537" lon="4.51382">
        <ele>248.7</ele>
        <time>2019-06-01T07:37:00Z</time>
      </trkpt>
      <trkpt lat="44.1354" lon="4.51385">
        <ele>248.8</ele>
        <time>2019-06-01T07:37:01Z</time>
      </trkpt>
      <trkpt lat="44.13543" lon="4.51388">
        <ele>248.8</ele>
        <time>2019-06-01T07:37:02Z</time>
      </trkpt>
      <trkpt lat="44.13547" lon="4.5139">
        <ele>248.9</ele>
        <time>2019-06-01T07:37:03Z</time>
      </trkpt>
      <trkpt lat="44.13551" lon="4.51392">
        <ele>249</ele>
        <time>2019-06-01T07:37:04Z</time>
      </trkpt>
      <trkpt lat="44.13554" lon="4.51394">
        <ele>249.1</ele>
        <time>2019-06-01T07:37:05Z</time>
      </trkpt>
      <trkpt lat="44.13558" lon="4.51399">
        <ele>249.2</ele>
        <time>2019-06-01T07:37:07Z</time>
      </trkpt>
      <trkpt lat="44.1356" lon="4.51407">
        <ele>249.3</ele>
        <time>2019-06-01T07:37:09Z</time>
      </trkpt>
      <trkpt lat="44.13561" lon="4.51413">
        <ele>249.3</ele>
        <time>2019-06-01T07:37:10Z</time>
      </trkpt>
      <trkpt lat="44.13562" lon="4.51418">
        <ele>249.3</ele>
        <time>2019-06-01T07:37:11Z</time>
      </trkpt>
      <trkpt lat="44.13563" lon="4.51422">
        <ele>249.3</ele>
        <time>2019-06-01T07:37:12Z</time>
      </trkpt>
      <trkpt lat="44.13564" lon="4.51427">
        <ele>249.3</ele>
        <time>2019-06-01T07:37:13Z</time>
      </trkpt>
      <trkpt lat="44.13565" lon="4.51432">
        <ele>249.3</ele>
        <time>2019-06-01T07:37:14Z</time>
      </trkpt>
      <trkpt lat="44.13566" lon="4.51437">
        <ele>249.2</ele>
        <time>2019-06-01T07:37:15Z</time>
      </trkpt>
      <trkpt lat="44.13567" lon="4.51441">
        <ele>249.2</ele>
        <time>2019-06-01T07:37:16Z</time>
      </trkpt>
      <trkpt lat="44.13568" lon="4.51449">
        <ele>249.2</ele>
        <time>2019-06-01T07:37:18Z</time>
      </trkpt>
      <trkpt lat="44.13569" lon="4.51455">
        <ele>249.1</ele>
        <time>2019-06-01T07:37:19Z</time>
      </trkpt>
      <trkpt lat="44.13569" lon="4.5146">
        <ele>249</ele>
        <time>2019-06-01T07:37:20Z</time>
      </trkpt>
      <trkpt lat="44.1357" lon="4.51465">
        <ele>248.9</ele>
        <time>2019-06-01T07:37:21Z</time>
      </trkpt>
      <trkpt lat="44.1357" lon="4.51469">
        <ele>248.9</ele>
        <time>2019-06-01T07:37:22Z</time>
      </trkpt>
      <trkpt lat="44.1357" lon="4.51474">
        <ele>248.7</ele>
        <time>2019-06-01T07:37:23Z</time>
      </trkpt>
      <trkpt lat="44.13571" lon="4.51479">
        <ele>248.6</ele>
        <time>2019-06-01T07:37:24Z</time>
      </trkpt>
      <trkpt lat="44.13571" lon="4.51484">
        <ele>248.5</ele>
        <time>2019-06-01T07:37:25Z</time>
      </trkpt>
      <trkpt lat="44.13572" lon="4.51488">
        <ele>248.4</ele>
        <time>2019-06-01T07:37:26Z</time>
      </trkpt>
      <trkpt lat="44.13573" lon="4.51494">
        <ele>248.4</ele>
        <time>2019-06-01T07:37:28Z</time>
      </trkpt>
      <trkpt lat="44.13573" lon="4.51504">
        <ele>248.4</ele>
        <time>2019-06-01T07:37:30Z</time>
      </trkpt>
      <trkpt lat="44.13574" lon="4.51509">
        <ele>248.4</ele>
        <time>2019-06-01T07:37:31Z</time>
      </trkpt>
      <trkpt lat="44.13574" lon="4.51514">
        <ele>248.4</ele>
        <time>2019-06-01T07:37:32Z</time>
      </trkpt>
      <trkpt lat="44.13573" lon="4.51518">
        <ele>248.5</ele>
        <time>2019-06-01T07:37:33Z</time>
      </trkpt>
      <trkpt lat="44.13573" lon="4.51523">
        <ele>248.5</ele>
        <time>2019-06-01T07:37:34Z</time>
      </trkpt>
      <trkpt lat="44.13573" lon="4.51528">
        <ele>248.6</ele>
        <time>2019-06-01T07:37:35Z</time>
      </trkpt>
      <trkpt lat="44.13573" lon="4.51534">
        <ele>248.7</ele>
        <time>2019-06-01T07:37:36Z</time>
      </trkpt>
      <trkpt lat="44.13573" lon="4.5154">
        <ele>248.8</ele>
        <time>2019-06-01T07:37:37Z</time>
      </trkpt>
      <trkpt lat="44.13573" lon="4.51546">
        <ele>248.8</ele>
        <time>2019-06-01T07:37:38Z</time>
      </trkpt>
      <trkpt lat="44.13573" lon="4.51553">
        <ele>248.9</ele>
        <time>2019-06-01T07:37:39Z</time>
      </trkpt>
      <trkpt lat="44.13573" lon="4.51559">
        <ele>248.9</ele>
        <time>2019-06-01T07:37:40Z</time>
      </trkpt>
      <trkpt lat="44.13574" lon="4.51566">
        <ele>248.8</ele>
        <time>2019-06-01T07:37:41Z</time>
      </trkpt>
      <trkpt lat="44.13575" lon="4.51571">
        <ele>248.8</ele>
        <time>2019-06-01T07:37:42Z</time>
      </trkpt>
      <trkpt lat="44.13575" lon="4.51577">
        <ele>248.7</ele>
        <time>2019-06-01T07:37:43Z</time>
      </trkpt>
      <trkpt lat="44.13576" lon="4.51584">
        <ele>248.6</ele>
        <time>2019-06-01T07:37:44Z</time>
      </trkpt>
      <trkpt lat="44.13576" lon="4.51591">
        <ele>248.6</ele>
        <time>2019-06-01T07:37:45Z</time>
      </trkpt>
      <trkpt lat="44.13577" lon="4.51597">
        <ele>248.5</ele>
        <time>2019-06-01T07:37:46Z</time>
      </trkpt>
      <trkpt lat="44.13578" lon="4.51602">
        <ele>248.5</ele>
        <time>2019-06-01T07:37:47Z</time>
      </trkpt>
      <trkpt lat="44.13578" lon="4.51606">
        <ele>248.4</ele>
        <time>2019-06-01T07:37:49Z</time>
      </trkpt>
      <trkpt lat="44.13576" lon="4.51609">
        <ele>248.4</ele>
        <time>2019-06-01T07:37:51Z</time>
      </trkpt>
      <trkpt lat="44.13573" lon="4.5161">
        <ele>248.4</ele>
        <time>2019-06-01T07:37:52Z</time>
      </trkpt>
      <trkpt lat="44.1357" lon="4.51611">
        <ele>248.3</ele>
        <time>2019-06-01T07:37:53Z</time>
      </trkpt>
      <trkpt lat="44.13567" lon="4.51613">
        <ele>248.3</ele>
        <time>2019-06-01T07:37:54Z</time>
      </trkpt>
      <trkpt lat="44.13563" lon="4.51617">
        <ele>248.2</ele>
        <time>2019-06-01T07:37:55Z</time>
      </trkpt>
      <trkpt lat="44.1356" lon="4.51621">
        <ele>248.1</ele>
        <time>2019-06-01T07:37:56Z</time>
      </trkpt>
      <trkpt lat="44.13558" lon="4.51624">
        <ele>248.1</ele>
        <time>2019-06-01T07:37:57Z</time>
      </trkpt>
      <trkpt lat="44.13556" lon="4.51627">
        <ele>248</ele>
        <time>2019-06-01T07:37:59Z</time>
      </trkpt>
      <trkpt lat="44.13553" lon="4.51629">
        <ele>248</ele>
        <time>2019-06-01T07:38:02Z</time>
      </trkpt>
      <trkpt lat="44.13549" lon="4.51634">
        <ele>247.7</ele>
        <time>2019-06-01T07:38:04Z</time>
      </trkpt>
      <trkpt lat="44.13546" lon="4.51638">
        <ele>247.5</ele>
        <time>2019-06-01T07:38:05Z</time>
      </trkpt>
      <trkpt lat="44.13543" lon="4.51643">
        <ele>247</ele>
        <time>2019-06-01T07:38:06Z</time>
      </trkpt>
      <trkpt lat="44.13539" lon="4.51649">
        <ele>246.4</ele>
        <time>2019-06-01T07:38:07Z</time>
      </trkpt>
      <trkpt lat="44.13536" lon="4.51654">
        <ele>245.9</ele>
        <time>2019-06-01T07:38:08Z</time>
      </trkpt>
      <trkpt lat="44.13533" lon="4.51658">
        <ele>245.5</ele>
        <time>2019-06-01T07:38:09Z</time>
      </trkpt>
      <trkpt lat="44.13531" lon="4.51661">
        <ele>245</ele>
        <time>2019-06-01T07:38:10Z</time>
      </trkpt>
      <trkpt lat="44.13528" lon="4.51665">
        <ele>244.7</ele>
        <time>2019-06-01T07:38:11Z</time>
      </trkpt>
      <trkpt lat="44.13525" lon="4.51669">
        <ele>244.2</ele>
        <time>2019-06-01T07:38:12Z</time>
      </trkpt>
      <trkpt lat="44.13521" lon="4.51674">
        <ele>243.8</ele>
        <time>2019-06-01T07:38:13Z</time>
      </trkpt>
      <trkpt lat="44.13519" lon="4.51678">
        <ele>243.1</ele>
        <time>2019-06-01T07:38:14Z</time>
      </trkpt>
      <trkpt lat="44.13516" lon="4.51684">
        <ele>242.4</ele>
        <time>2019-06-01T07:38:15Z</time>
      </trkpt>
      <trkpt lat="44.13512" lon="4.51689">
        <ele>241.6</ele>
        <time>2019-06-01T07:38:16Z</time>
      </trkpt>
      <trkpt lat="44.13507" lon="4.51707">
        <ele>239.4</ele>
        <time>2019-06-01T07:38:17Z</time>
      </trkpt>
      <trkpt lat="44.13506" lon="4.51713">
        <ele>238.7</ele>
        <time>2019-06-01T07:38:18Z</time>
      </trkpt>
      <trkpt lat="44.13503" lon="4.51719">
        <ele>238</ele>
        <time>2019-06-01T07:38:19Z</time>
      </trkpt>
      <trkpt lat="44.135" lon="4.51725">
        <ele>237.6</ele>
        <time>2019-06-01T07:38:21Z</time>
      </trkpt>
      <trkpt lat="44.13501" lon="4.5173">
        <ele>237.2</ele>
        <time>2019-06-01T07:38:22Z</time>
      </trkpt>
      <trkpt lat="44.13497" lon="4.51739">
        <ele>236.6</ele>
        <time>2019-06-01T07:38:23Z</time>
      </trkpt>
      <trkpt lat="44.13496" lon="4.51744">
        <ele>236.2</ele>
        <time>2019-06-01T07:38:24Z</time>
      </trkpt>
      <trkpt lat="44.13494" lon="4.5175">
        <ele>235.8</ele>
        <time>2019-06-01T07:38:25Z</time>
      </trkpt>
      <trkpt lat="44.13492" lon="4.51751">
        <ele>235.5</ele>
        <time>2019-06-01T07:38:26Z</time>
      </trkpt>
      <trkpt lat="44.13491" lon="4.51757">
        <ele>235</ele>
        <time>2019-06-01T07:38:30Z</time>
      </trkpt>
      <trkpt lat="44.1349" lon="4.51762">
        <ele>234.5</ele>
        <time>2019-06-01T07:38:32Z</time>
      </trkpt>
      <trkpt lat="44.13488" lon="4.51768">
        <ele>233.9</ele>
        <time>2019-06-01T07:38:34Z</time>
      </trkpt>
      <trkpt lat="44.13488" lon="4.51772">
        <ele>233.6</ele>
        <time>2019-06-01T07:38:35Z</time>
      </trkpt>
      <trkpt lat="44.13488" lon="4.51777">
        <ele>233.2</ele>
        <time>2019-06-01T07:38:36Z</time>
      </trkpt>
      <trkpt lat="44.13486" lon="4.51781">
        <ele>232.7</ele>
        <time>2019-06-01T07:38:37Z</time>
      </trkpt>
      <trkpt lat="44.13485" lon="4.51786">
        <ele>232.2</ele>
        <time>2019-06-01T07:38:38Z</time>
      </trkpt>
      <trkpt lat="44.13483" lon="4.51789">
        <ele>231.8</ele>
        <time>2019-06-01T07:38:39Z</time>
      </trkpt>
      <trkpt lat="44.13479" lon="4.51794">
        <ele>230.8</ele>
        <time>2019-06-01T07:38:41Z</time>
      </trkpt>
      <trkpt lat="44.13476" lon="4.51799">
        <ele>229.7</ele>
        <time>2019-06-01T07:38:43Z</time>
      </trkpt>
      <trkpt lat="44.13474" lon="4.51805">
        <ele>228.6</ele>
        <time>2019-06-01T07:38:45Z</time>
      </trkpt>
      <trkpt lat="44.13472" lon="4.51808">
        <ele>227.8</ele>
        <time>2019-06-01T07:38:47Z</time>
      </trkpt>
      <trkpt lat="44.13469" lon="4.51814">
        <ele>226.7</ele>
        <time>2019-06-01T07:38:49Z</time>
      </trkpt>
      <trkpt lat="44.13468" lon="4.5182">
        <ele>225.5</ele>
        <time>2019-06-01T07:38:51Z</time>
      </trkpt>
      <trkpt lat="44.13468" lon="4.51824">
        <ele>224.7</ele>
        <time>2019-06-01T07:38:52Z</time>
      </trkpt>
      <trkpt lat="44.13467" lon="4.51828">
        <ele>223.8</ele>
        <time>2019-06-01T07:38:53Z</time>
      </trkpt>
      <trkpt lat="44.13465" lon="4.51833">
        <ele>222.8</ele>
        <time>2019-06-01T07:38:54Z</time>
      </trkpt>
      <trkpt lat="44.13464" lon="4.51836">
        <ele>221.9</ele>
        <time>2019-06-01T07:38:55Z</time>
      </trkpt>
      <trkpt lat="44.13462" lon="4.51839">
        <ele>221</ele>
        <time>2019-06-01T07:38:56Z</time>
      </trkpt>
      <trkpt lat="44.13458" lon="4.51843">
        <ele>219.6</ele>
        <time>2019-06-01T07:38:58Z</time>
      </trkpt>
      <trkpt lat="44.13458" lon="4.51849">
        <ele>218.3</ele>
        <time>2019-06-01T07:39:01Z</time>
      </trkpt>
      <trkpt lat="44.1346" lon="4.51853">
        <ele>217.2</ele>
        <time>2019-06-01T07:39:03Z</time>
      </trkpt>
      <trkpt lat="44.13461" lon="4.51856">
        <ele>216.2</ele>
        <time>2019-06-01T07:39:04Z</time>
      </trkpt>
      <trkpt lat="44.13464" lon="4.51859">
        <ele>215.2</ele>
        <time>2019-06-01T07:39:05Z</time>
      </trkpt>
      <trkpt lat="44.13467" lon="4.51863">
        <ele>214.2</ele>
        <time>2019-06-01T07:39:06Z</time>
      </trkpt>
      <trkpt lat="44.1347" lon="4.51866">
        <ele>214.2</ele>
        <time>2019-06-01T07:39:07Z</time>
      </trkpt>
      <trkpt lat="44.13473" lon="4.51868">
        <ele>214.3</ele>
        <time>2019-06-01T07:39:08Z</time>
      </trkpt>
      <trkpt lat="44.13477" lon="4.5187">
        <ele>214.4</ele>
        <time>2019-06-01T07:39:09Z</time>
      </trkpt>
      <trkpt lat="44.1348" lon="4.51871">
        <ele>214.5</ele>
        <time>2019-06-01T07:39:10Z</time>
      </trkpt>
      <trkpt lat="44.13484" lon="4.5187">
        <ele>214.5</ele>
        <time>2019-06-01T07:39:11Z</time>
      </trkpt>
      <trkpt lat="44.13487" lon="4.5187">
        <ele>214.6</ele>
        <time>2019-06-01T07:39:12Z</time>
      </trkpt>
      <trkpt lat="44.1349" lon="4.51871">
        <ele>214.7</ele>
        <time>2019-06-01T07:39:13Z</time>
      </trkpt>
      <trkpt lat="44.13493" lon="4.51871">
        <ele>214.8</ele>
        <time>2019-06-01T07:39:14Z</time>
      </trkpt>
      <trkpt lat="44.13496" lon="4.5187">
        <ele>214.8</ele>
        <time>2019-06-01T07:39:15Z</time>
      </trkpt>
      <trkpt lat="44.13499" lon="4.51869">
        <ele>214.9</ele>
        <time>2019-06-01T07:39:16Z</time>
      </trkpt>
      <trkpt lat="44.13502" lon="4.51867">
        <ele>215</ele>
        <time>2019-06-01T07:39:17Z</time>
      </trkpt>
      <trkpt lat="44.13505" lon="4.51865">
        <ele>215.2</ele>
        <time>2019-06-01T07:39:18Z</time>
      </trkpt>
      <trkpt lat="44.13507" lon="4.51862">
        <ele>215.3</ele>
        <time>2019-06-01T07:39:19Z</time>
      </trkpt>
      <trkpt lat="44.1351" lon="4.51859">
        <ele>215.4</ele>
        <time>2019-06-01T07:39:20Z</time>
      </trkpt>
      <trkpt lat="44.13512" lon="4.51855">
        <ele>215.6</ele>
        <time>2019-06-01T07:39:21Z</time>
      </trkpt>
      <trkpt lat="44.13515" lon="4.51852">
        <ele>215.8</ele>
        <time>2019-06-01T07:39:22Z</time>
      </trkpt>
      <trkpt lat="44.13517" lon="4.51849">
        <ele>216</ele>
        <time>2019-06-01T07:39:23Z</time>
      </trkpt>
      <trkpt lat="44.13521" lon="4.51845">
        <ele>216.2</ele>
        <time>2019-06-01T07:39:25Z</time>
      </trkpt>
      <trkpt lat="44.13525" lon="4.51842">
        <ele>216.3</ele>
        <time>2019-06-01T07:39:27Z</time>
      </trkpt>
      <trkpt lat="44.13528" lon="4.5184">
        <ele>216.5</ele>
        <time>2019-06-01T07:39:29Z</time>
      </trkpt>
      <trkpt lat="44.13532" lon="4.51836">
        <ele>216.6</ele>
        <time>2019-06-01T07:39:31Z</time>
      </trkpt>
      <trkpt lat="44.13537" lon="4.51832">
        <ele>216.8</ele>
        <time>2019-06-01T07:39:33Z</time>
      </trkpt>
      <trkpt lat="44.13542" lon="4.5183">
        <ele>217</ele>
        <time>2019-06-01T07:39:35Z</time>
      </trkpt>
      <trkpt lat="44.13545" lon="4.51828">
        <ele>217.2</ele>
        <time>2019-06-01T07:39:37Z</time>
      </trkpt>
      <trkpt lat="44.13548" lon="4.51825">
        <ele>217.4</ele>
        <time>2019-06-01T07:39:39Z</time>
      </trkpt>
      <trkpt lat="44.13554" lon="4.51822">
        <ele>217.7</ele>
        <time>2019-06-01T07:39:41Z</time>
      </trkpt>
      <trkpt lat="44.13558" lon="4.51819">
        <ele>218</ele>
        <time>2019-06-01T07:39:43Z</time>
      </trkpt>
      <trkpt lat="44.13561" lon="4.51815">
        <ele>218.2</ele>
        <time>2019-06-01T07:39:45Z</time>
      </trkpt>
      <trkpt lat="44.13564" lon="4.51813">
        <ele>218.4</ele>
        <time>2019-06-01T07:39:46Z</time>
      </trkpt>
      <trkpt lat="44.13566" lon="4.5181">
        <ele>218.6</ele>
        <time>2019-06-01T07:39:47Z</time>
      </trkpt>
      <trkpt lat="44.13569" lon="4.51807">
        <ele>218.8</ele>
        <time>2019-06-01T07:39:48Z</time>
      </trkpt>
      <trkpt lat="44.13573" lon="4.51802">
        <ele>219</ele>
        <time>2019-06-01T07:39:49Z</time>
      </trkpt>
      <trkpt lat="44.13577" lon="4.51797">
        <ele>219.3</ele>
        <time>2019-06-01T07:39:50Z</time>
      </trkpt>
      <trkpt lat="44.13581" lon="4.51794">
        <ele>219.5</ele>
        <time>2019-06-01T07:39:51Z</time>
      </trkpt>
      <trkpt lat="44.13583" lon="4.51792">
        <ele>219.7</ele>
        <time>2019-06-01T07:39:52Z</time>
      </trkpt>
      <trkpt lat="44.13586" lon="4.51791">
        <ele>219.8</ele>
        <time>2019-06-01T07:39:53Z</time>
      </trkpt>
      <trkpt lat="44.1359" lon="4.51791">
        <ele>220</ele>
        <time>2019-06-01T07:39:54Z</time>
      </trkpt>
      <trkpt lat="44.13593" lon="4.51791">
        <ele>220.1</ele>
        <time>2019-06-01T07:39:55Z</time>
      </trkpt>
      <trkpt lat="44.13596" lon="4.51792">
        <ele>220.2</ele>
        <time>2019-06-01T07:39:56Z</time>
      </trkpt>
      <trkpt lat="44.136" lon="4.51794">
        <ele>220.3</ele>
        <time>2019-06-01T07:39:57Z</time>
      </trkpt>
      <trkpt lat="44.13602" lon="4.51796">
        <ele>220.4</ele>
        <time>2019-06-01T07:39:58Z</time>
      </trkpt>
      <trkpt lat="44.13604" lon="4.51799">
        <ele>220.5</ele>
        <time>2019-06-01T07:39:59Z</time>
      </trkpt>
      <trkpt lat="44.13608" lon="4.51803">
        <ele>220.6</ele>
        <time>2019-06-01T07:40:01Z</time>
      </trkpt>
      <trkpt lat="44.13613" lon="4.51803">
        <ele>220.8</ele>
        <time>2019-06-01T07:40:03Z</time>
      </trkpt>
      <trkpt lat="44.13616" lon="4.51802">
        <ele>220.9</ele>
        <time>2019-06-01T07:40:04Z</time>
      </trkpt>
      <trkpt lat="44.1362" lon="4.518">
        <ele>221.1</ele>
        <time>2019-06-01T07:40:06Z</time>
      </trkpt>
      <trkpt lat="44.13625" lon="4.51797">
        <ele>221.4</ele>
        <time>2019-06-01T07:40:08Z</time>
      </trkpt>
      <trkpt lat="44.1363" lon="4.51797">
        <ele>221.5</ele>
        <time>2019-06-01T07:40:10Z</time>
      </trkpt>
      <trkpt lat="44.13634" lon="4.51799">
        <ele>221.7</ele>
        <time>2019-06-01T07:40:12Z</time>
      </trkpt>
      <trkpt lat="44.13637" lon="4.51801">
        <ele>221.8</ele>
        <time>2019-06-01T07:40:14Z</time>
      </trkpt>
      <trkpt lat="44.13641" lon="4.51804">
        <ele>221.9</ele>
        <time>2019-06-01T07:40:16Z</time>
      </trkpt>
      <trkpt lat="44.13645" lon="4.51807">
        <ele>222.1</ele>
        <time>2019-06-01T07:40:18Z</time>
      </trkpt>
      <trkpt lat="44.13649" lon="4.51808">
        <ele>222.2</ele>
        <time>2019-06-01T07:40:20Z</time>
      </trkpt>
      <trkpt lat="44.13652" lon="4.5181">
        <ele>222.4</ele>
        <time>2019-06-01T07:40:22Z</time>
      </trkpt>
      <trkpt lat="44.13655" lon="4.51812">
        <ele>222.5</ele>
        <time>2019-06-01T07:40:24Z</time>
      </trkpt>
      <trkpt lat="44.13657" lon="4.51812">
        <ele>222.6</ele>
        <time>2019-06-01T07:40:26Z</time>
      </trkpt>
      <trkpt lat="44.13661" lon="4.51813">
        <ele>222.8</ele>
        <time>2019-06-01T07:40:28Z</time>
      </trkpt>
      <trkpt lat="44.13665" lon="4.51815">
        <ele>223</ele>
        <time>2019-06-01T07:40:30Z</time>
      </trkpt>
      <trkpt lat="44.13667" lon="4.51816">
        <ele>223.1</ele>
        <time>2019-06-01T07:40:32Z</time>
      </trkpt>
      <trkpt lat="44.1367" lon="4.51819">
        <ele>223.3</ele>
        <time>2019-06-01T07:40:34Z</time>
      </trkpt>
      <trkpt lat="44.13674" lon="4.51823">
        <ele>223.6</ele>
        <time>2019-06-01T07:40:36Z</time>
      </trkpt>
      <trkpt lat="44.13677" lon="4.51827">
        <ele>223.8</ele>
        <time>2019-06-01T07:40:38Z</time>
      </trkpt>
      <trkpt lat="44.1368" lon="4.51831">
        <ele>224</ele>
        <time>2019-06-01T07:40:40Z</time>
      </trkpt>
      <trkpt lat="44.13683" lon="4.51835">
        <ele>224.2</ele>
        <time>2019-06-01T07:40:42Z</time>
      </trkpt>
      <trkpt lat="44.13684" lon="4.5184">
        <ele>224.4</ele>
        <time>2019-06-01T07:40:44Z</time>
      </trkpt>
      <trkpt lat="44.13685" lon="4.51844">
        <ele>224.5</ele>
        <time>2019-06-01T07:40:45Z</time>
      </trkpt>
      <trkpt lat="44.13687" lon="4.5185">
        <ele>224.7</ele>
        <time>2019-06-01T07:40:47Z</time>
      </trkpt>
      <trkpt lat="44.13689" lon="4.51853">
        <ele>224.8</ele>
        <time>2019-06-01T07:40:49Z</time>
      </trkpt>
      <trkpt lat="44.13692" lon="4.51856">
        <ele>225</ele>
        <time>2019-06-01T07:40:51Z</time>
      </trkpt>
      <trkpt lat="44.13694" lon="4.51858">
        <ele>225.2</ele>
        <time>2019-06-01T07:40:52Z</time>
      </trkpt>
      <trkpt lat="44.13698" lon="4.51861">
        <ele>225.3</ele>
        <time>2019-06-01T07:40:53Z</time>
      </trkpt>
      <trkpt lat="44.13701" lon="4.51865">
        <ele>225.4</ele>
        <time>2019-06-01T07:40:54Z</time>
      </trkpt>
      <trkpt lat="44.13704" lon="4.51868">
        <ele>225.5</ele>
        <time>2019-06-01T07:40:55Z</time>
      </trkpt>
      <trkpt lat="44.13707" lon="4.51872">
        <ele>225.6</ele>
        <time>2019-06-01T07:40:56Z</time>
      </trkpt>
      <trkpt lat="44.1371" lon="4.51875">
        <ele>225.7</ele>
        <time>2019-06-01T07:40:57Z</time>
      </trkpt>
      <trkpt lat="44.13712" lon="4.51878">
        <ele>225.8</ele>
        <time>2019-06-01T07:40:58Z</time>
      </trkpt>
      <trkpt lat="44.13713" lon="4.51881">
        <ele>225.8</ele>
        <time>2019-06-01T07:40:59Z</time>
      </trkpt>
      <trkpt lat="44.13715" lon="4.51886">
        <ele>225.9</ele>
        <time>2019-06-01T07:41:01Z</time>
      </trkpt>
      <trkpt lat="44.13718" lon="4.51893">
        <ele>226</ele>
        <time>2019-06-01T07:41:03Z</time>
      </trkpt>
      <trkpt lat="44.1372" lon="4.51896">
        <ele>226</ele>
        <time>2019-06-01T07:41:04Z</time>
      </trkpt>
      <trkpt lat="44.13723" lon="4.51898">
        <ele>226.1</ele>
        <time>2019-06-01T07:41:05Z</time>
      </trkpt>
      <trkpt lat="44.13726" lon="4.51901">
        <ele>226.1</ele>
        <time>2019-06-01T07:41:06Z</time>
      </trkpt>
      <trkpt lat="44.13728" lon="4.51904">
        <ele>226.2</ele>
        <time>2019-06-01T07:41:07Z</time>
      </trkpt>
      <trkpt lat="44.13732" lon="4.51907">
        <ele>226.3</ele>
        <time>2019-06-01T07:41:08Z</time>
      </trkpt>
      <trkpt lat="44.13735" lon="4.51908">
        <ele>226.4</ele>
        <time>2019-06-01T07:41:09Z</time>
      </trkpt>
      <trkpt lat="44.13739" lon="4.51909">
        <ele>226.5</ele>
        <time>2019-06-01T07:41:10Z</time>
      </trkpt>
      <trkpt lat="44.13743" lon="4.51909">
        <ele>226.6</ele>
        <time>2019-06-01T07:41:11Z</time>
      </trkpt>
      <trkpt lat="44.13746" lon="4.51908">
        <ele>226.7</ele>
        <time>2019-06-01T07:41:12Z</time>
      </trkpt>
      <trkpt lat="44.13749" lon="4.51909">
        <ele>226.7</ele>
        <time>2019-06-01T07:41:13Z</time>
      </trkpt>
      <trkpt lat="44.13752" lon="4.5191">
        <ele>226.8</ele>
        <time>2019-06-01T07:41:14Z</time>
      </trkpt>
      <trkpt lat="44.13756" lon="4.51913">
        <ele>226.9</ele>
        <time>2019-06-01T07:41:15Z</time>
      </trkpt>
      <trkpt lat="44.13761" lon="4.51916">
        <ele>227.1</ele>
        <time>2019-06-01T07:41:16Z</time>
      </trkpt>
      <trkpt lat="44.13765" lon="4.51919">
        <ele>227.3</ele>
        <time>2019-06-01T07:41:17Z</time>
      </trkpt>
      <trkpt lat="44.13768" lon="4.5192">
        <ele>227.4</ele>
        <time>2019-06-01T07:41:18Z</time>
      </trkpt>
      <trkpt lat="44.13774" lon="4.5192">
        <ele>227.6</ele>
        <time>2019-06-01T07:41:20Z</time>
      </trkpt>
      <trkpt lat="44.13776" lon="4.5192">
        <ele>227.8</ele>
        <time>2019-06-01T07:41:21Z</time>
      </trkpt>
      <trkpt lat="44.13779" lon="4.51918">
        <ele>228</ele>
        <time>2019-06-01T07:41:22Z</time>
      </trkpt>
      <trkpt lat="44.13782" lon="4.51915">
        <ele>228.2</ele>
        <time>2019-06-01T07:41:23Z</time>
      </trkpt>
      <trkpt lat="44.13785" lon="4.51913">
        <ele>228.4</ele>
        <time>2019-06-01T07:41:24Z</time>
      </trkpt>
      <trkpt lat="44.13788" lon="4.51911">
        <ele>228.6</ele>
        <time>2019-06-01T07:41:25Z</time>
      </trkpt>
      <trkpt lat="44.13792" lon="4.51909">
        <ele>228.9</ele>
        <time>2019-06-01T07:41:27Z</time>
      </trkpt>
      <trkpt lat="44.13795" lon="4.51906">
        <ele>229.1</ele>
        <time>2019-06-01T07:41:29Z</time>
      </trkpt>
      <trkpt lat="44.13797" lon="4.51904">
        <ele>229.2</ele>
        <time>2019-06-01T07:41:31Z</time>
      </trkpt>
      <trkpt lat="44.13799" lon="4.51901">
        <ele>229.4</ele>
        <time>2019-06-01T07:41:34Z</time>
      </trkpt>
      <trkpt lat="44.13801" lon="4.51898">
        <ele>229.6</ele>
        <time>2019-06-01T07:41:36Z</time>
      </trkpt>
      <trkpt lat="44.13805" lon="4.51897">
        <ele>229.9</ele>
        <time>2019-06-01T07:41:38Z</time>
      </trkpt>
      <trkpt lat="44.13801" lon="4.51899">
        <ele>230.2</ele>
        <time>2019-06-01T07:41:48Z</time>
      </trkpt>
      <trkpt lat="44.13798" lon="4.51902">
        <ele>230.8</ele>
        <time>2019-06-01T07:41:51Z</time>
      </trkpt>
      <trkpt lat="44.13795" lon="4.51905">
        <ele>230.9</ele>
        <time>2019-06-01T07:41:54Z</time>
      </trkpt>
      <trkpt lat="44.13792" lon="4.51907">
        <ele>231.1</ele>
        <time>2019-06-01T07:41:56Z</time>
      </trkpt>
      <trkpt lat="44.13787" lon="4.5191">
        <ele>231.3</ele>
        <time>2019-06-01T07:41:58Z</time>
      </trkpt>
      <trkpt lat="44.13784" lon="4.51914">
        <ele>231.6</ele>
        <time>2019-06-01T07:42:00Z</time>
      </trkpt>
      <trkpt lat="44.1378" lon="4.51916">
        <ele>231.9</ele>
        <time>2019-06-01T07:42:02Z</time>
      </trkpt>
      <trkpt lat="44.13776" lon="4.51918">
        <ele>232.2</ele>
        <time>2019-06-01T07:42:04Z</time>
      </trkpt>
      <trkpt lat="44.13772" lon="4.5192">
        <ele>232.5</ele>
        <time>2019-06-01T07:42:06Z</time>
      </trkpt>
      <trkpt lat="44.13768" lon="4.51921">
        <ele>232.8</ele>
        <time>2019-06-01T07:42:09Z</time>
      </trkpt>
      <trkpt lat="44.13764" lon="4.51922">
        <ele>233</ele>
        <time>2019-06-01T07:42:11Z</time>
      </trkpt>
      <trkpt lat="44.13762" lon="4.51924">
        <ele>233.2</ele>
        <time>2019-06-01T07:42:13Z</time>
      </trkpt>
      <trkpt lat="44.13758" lon="4.51925">
        <ele>233.5</ele>
        <time>2019-06-01T07:42:15Z</time>
      </trkpt>
      <trkpt lat="44.13753" lon="4.51923">
        <ele>233.8</ele>
        <time>2019-06-01T07:42:17Z</time>
      </trkpt>
      <trkpt lat="44.1375" lon="4.51922">
        <ele>234</ele>
        <time>2019-06-01T07:42:18Z</time>
      </trkpt>
      <trkpt lat="44.13745" lon="4.51919">
        <ele>234.2</ele>
        <time>2019-06-01T07:42:20Z</time>
      </trkpt>
      <trkpt lat="44.13742" lon="4.51918">
        <ele>234.3</ele>
        <time>2019-06-01T07:42:21Z</time>
      </trkpt>
      <trkpt lat="44.13737" lon="4.51916">
        <ele>234.4</ele>
        <time>2019-06-01T07:42:23Z</time>
      </trkpt>
      <trkpt lat="44.13733" lon="4.51916">
        <ele>234.5</ele>
        <time>2019-06-01T07:42:25Z</time>
      </trkpt>
      <trkpt lat="44.1373" lon="4.51917">
        <ele>234.6</ele>
        <time>2019-06-01T07:42:27Z</time>
      </trkpt>
      <trkpt lat="44.13727" lon="4.51919">
        <ele>234.6</ele>
        <time>2019-06-01T07:42:29Z</time>
      </trkpt>
      <trkpt lat="44.1372" lon="4.51919">
        <ele>234.8</ele>
        <time>2019-06-01T07:43:07Z</time>
      </trkpt>
      <trkpt lat="44.13717" lon="4.5192">
        <ele>234.9</ele>
        <time>2019-06-01T07:43:09Z</time>
      </trkpt>
      <trkpt lat="44.13714" lon="4.5192">
        <ele>235</ele>
        <time>2019-06-01T07:43:11Z</time>
      </trkpt>
      <trkpt lat="44.13711" lon="4.51921">
        <ele>235.1</ele>
        <time>2019-06-01T07:43:13Z</time>
      </trkpt>
      <trkpt lat="44.13709" lon="4.51924">
        <ele>235.3</ele>
        <time>2019-06-01T07:43:17Z</time>
      </trkpt>
      <trkpt lat="44.13708" lon="4.51929">
        <ele>235.4</ele>
        <time>2019-06-01T07:43:20Z</time>
      </trkpt>
      <trkpt lat="44.13706" lon="4.51934">
        <ele>235.6</ele>
        <time>2019-06-01T07:43:24Z</time>
      </trkpt>
      <trkpt lat="44.13704" lon="4.51936">
        <ele>235.7</ele>
        <time>2019-06-01T07:43:26Z</time>
      </trkpt>
      <trkpt lat="44.137" lon="4.51938">
        <ele>235.9</ele>
        <time>2019-06-01T07:43:28Z</time>
      </trkpt>
      <trkpt lat="44.13696" lon="4.51941">
        <ele>236.5</ele>
        <time>2019-06-01T07:43:30Z</time>
      </trkpt>
      <trkpt lat="44.13694" lon="4.51944">
        <ele>237</ele>
        <time>2019-06-01T07:43:32Z</time>
      </trkpt>
      <trkpt lat="44.1369" lon="4.51947">
        <ele>237.7</ele>
        <time>2019-06-01T07:43:35Z</time>
      </trkpt>
      <trkpt lat="44.13687" lon="4.51949">
        <ele>238.3</ele>
        <time>2019-06-01T07:43:37Z</time>
      </trkpt>
      <trkpt lat="44.13685" lon="4.51951">
        <ele>238.8</ele>
        <time>2019-06-01T07:43:39Z</time>
      </trkpt>
      <trkpt lat="44.13682" lon="4.51953">
        <ele>239.4</ele>
        <time>2019-06-01T07:43:41Z</time>
      </trkpt>
      <trkpt lat="44.13679" lon="4.51955">
        <ele>240</ele>
        <time>2019-06-01T07:43:45Z</time>
      </trkpt>
      <trkpt lat="44.13676" lon="4.51956">
        <ele>240.6</ele>
        <time>2019-06-01T07:43:48Z</time>
      </trkpt>
      <trkpt lat="44.13672" lon="4.51956">
        <ele>241.2</ele>
        <time>2019-06-01T07:43:51Z</time>
      </trkpt>
      <trkpt lat="44.13667" lon="4.51959">
        <ele>242.1</ele>
        <time>2019-06-01T07:43:53Z</time>
      </trkpt>
      <trkpt lat="44.13664" lon="4.5196">
        <ele>242.4</ele>
        <time>2019-06-01T07:43:54Z</time>
      </trkpt>
      <trkpt lat="44.13661" lon="4.51962">
        <ele>242.7</ele>
        <time>2019-06-01T07:43:56Z</time>
      </trkpt>
      <trkpt lat="44.13656" lon="4.51966">
        <ele>243</ele>
        <time>2019-06-01T07:43:58Z</time>
      </trkpt>
      <trkpt lat="44.13652" lon="4.51968">
        <ele>243.1</ele>
        <time>2019-06-01T07:44:00Z</time>
      </trkpt>
      <trkpt lat="44.13648" lon="4.51967">
        <ele>243.2</ele>
        <time>2019-06-01T07:44:02Z</time>
      </trkpt>
      <trkpt lat="44.13643" lon="4.51968">
        <ele>243.3</ele>
        <time>2019-06-01T07:44:04Z</time>
      </trkpt>
      <trkpt lat="44.13641" lon="4.5197">
        <ele>243.4</ele>
        <time>2019-06-01T07:44:05Z</time>
      </trkpt>
      <trkpt lat="44.13637" lon="4.51971">
        <ele>243.4</ele>
        <time>2019-06-01T07:44:07Z</time>
      </trkpt>
      <trkpt lat="44.13634" lon="4.51973">
        <ele>243.4</ele>
        <time>2019-06-01T07:44:09Z</time>
      </trkpt>
      <trkpt lat="44.13633" lon="4.51979">
        <ele>243.5</ele>
        <time>2019-06-01T07:44:12Z</time>
      </trkpt>
      <trkpt lat="44.13631" lon="4.51982">
        <ele>243.5</ele>
        <time>2019-06-01T07:44:14Z</time>
      </trkpt>
      <trkpt lat="44.13627" lon="4.51985">
        <ele>243.6</ele>
        <time>2019-06-01T07:44:16Z</time>
      </trkpt>
      <trkpt lat="44.13622" lon="4.51989">
        <ele>243.6</ele>
        <time>2019-06-01T07:44:18Z</time>
      </trkpt>
      <trkpt lat="44.13618" lon="4.51993">
        <ele>243.6</ele>
        <time>2019-06-01T07:44:20Z</time>
      </trkpt>
      <trkpt lat="44.13617" lon="4.51999">
        <ele>243.7</ele>
        <time>2019-06-01T07:44:22Z</time>
      </trkpt>
      <trkpt lat="44.13619" lon="4.52003">
        <ele>243.7</ele>
        <time>2019-06-01T07:44:24Z</time>
      </trkpt>
      <trkpt lat="44.13621" lon="4.52005">
        <ele>243.7</ele>
        <time>2019-06-01T07:44:26Z</time>
      </trkpt>
      <trkpt lat="44.13625" lon="4.52009">
        <ele>243.7</ele>
        <time>2019-06-01T07:44:28Z</time>
      </trkpt>
      <trkpt lat="44.13628" lon="4.52012">
        <ele>243.8</ele>
        <time>2019-06-01T07:44:30Z</time>
      </trkpt>
      <trkpt lat="44.13631" lon="4.52014">
        <ele>243.8</ele>
        <time>2019-06-01T07:44:33Z</time>
      </trkpt>
      <trkpt lat="44.13634" lon="4.52016">
        <ele>243.8</ele>
        <time>2019-06-01T07:44:35Z</time>
      </trkpt>
      <trkpt lat="44.13637" lon="4.52018">
        <ele>243.9</ele>
        <time>2019-06-01T07:44:36Z</time>
      </trkpt>
      <trkpt lat="44.13642" lon="4.52021">
        <ele>243.9</ele>
        <time>2019-06-01T07:44:37Z</time>
      </trkpt>
      <trkpt lat="44.13647" lon="4.52024">
        <ele>244</ele>
        <time>2019-06-01T07:44:38Z</time>
      </trkpt>
      <trkpt lat="44.13652" lon="4.52027">
        <ele>244.1</ele>
        <time>2019-06-01T07:44:39Z</time>
      </trkpt>
      <trkpt lat="44.13657" lon="4.52029">
        <ele>244.2</ele>
        <time>2019-06-01T07:44:40Z</time>
      </trkpt>
      <trkpt lat="44.13662" lon="4.52031">
        <ele>244.3</ele>
        <time>2019-06-01T07:44:41Z</time>
      </trkpt>
      <trkpt lat="44.13667" lon="4.52033">
        <ele>244.4</ele>
        <time>2019-06-01T07:44:42Z</time>
      </trkpt>
      <trkpt lat="44.1367" lon="4.52035">
        <ele>244.6</ele>
        <time>2019-06-01T07:44:43Z</time>
      </trkpt>
      <trkpt lat="44.13674" lon="4.52036">
        <ele>244.7</ele>
        <time>2019-06-01T07:44:44Z</time>
      </trkpt>
      <trkpt lat="44.13685" lon="4.52041">
        <ele>245.1</ele>
        <time>2019-06-01T07:44:45Z</time>
      </trkpt>
      <trkpt lat="44.13689" lon="4.52039">
        <ele>245.3</ele>
        <time>2019-06-01T07:44:46Z</time>
      </trkpt>
      <trkpt lat="44.13692" lon="4.52037">
        <ele>245.3</ele>
        <time>2019-06-01T07:44:47Z</time>
      </trkpt>
      <trkpt lat="44.13696" lon="4.52037">
        <ele>245.4</ele>
        <time>2019-06-01T07:44:48Z</time>
      </trkpt>
      <trkpt lat="44.13699" lon="4.52036">
        <ele>245.4</ele>
        <time>2019-06-01T07:44:49Z</time>
      </trkpt>
      <trkpt lat="44.13704" lon="4.52034">
        <ele>245.5</ele>
        <time>2019-06-01T07:44:50Z</time>
      </trkpt>
      <trkpt lat="44.13709" lon="4.52034">
        <ele>245.5</ele>
        <time>2019-06-01T07:44:52Z</time>
      </trkpt>
      <trkpt lat="44.13714" lon="4.52031">
        <ele>245.5</ele>
        <time>2019-06-01T07:44:53Z</time>
      </trkpt>
      <trkpt lat="44.13718" lon="4.52033">
        <ele>245.5</ele>
        <time>2019-06-01T07:44:54Z</time>
      </trkpt>
      <trkpt lat="44.13724" lon="4.52034">
        <ele>245.5</ele>
        <time>2019-06-01T07:44:55Z</time>
      </trkpt>
      <trkpt lat="44.13728" lon="4.52032">
        <ele>245.5</ele>
        <time>2019-06-01T07:44:56Z</time>
      </trkpt>
      <trkpt lat="44.13732" lon="4.52031">
        <ele>245.5</ele>
        <time>2019-06-01T07:44:57Z</time>
      </trkpt>
      <trkpt lat="44.13737" lon="4.52032">
        <ele>245.5</ele>
        <time>2019-06-01T07:44:58Z</time>
      </trkpt>
      <trkpt lat="44.13741" lon="4.52032">
        <ele>245.5</ele>
        <time>2019-06-01T07:44:59Z</time>
      </trkpt>
      <trkpt lat="44.13745" lon="4.52034">
        <ele>245.5</ele>
        <time>2019-06-01T07:45:00Z</time>
      </trkpt>
      <trkpt lat="44.13749" lon="4.52038">
        <ele>245.5</ele>
        <time>2019-06-01T07:45:01Z</time>
      </trkpt>
      <trkpt lat="44.13752" lon="4.52043">
        <ele>245.5</ele>
        <time>2019-06-01T07:45:02Z</time>
      </trkpt>
      <trkpt lat="44.13752" lon="4.52057">
        <ele>245.5</ele>
        <time>2019-06-01T07:45:03Z</time>
      </trkpt>
      <trkpt lat="44.13755" lon="4.52063">
        <ele>245.5</ele>
        <time>2019-06-01T07:45:04Z</time>
      </trkpt>
      <trkpt lat="44.13757" lon="4.5207">
        <ele>245.5</ele>
        <time>2019-06-01T07:45:05Z</time>
      </trkpt>
      <trkpt lat="44.13756" lon="4.52078">
        <ele>245.5</ele>
        <time>2019-06-01T07:45:06Z</time>
      </trkpt>
      <trkpt lat="44.13755" lon="4.52085">
        <ele>245.4</ele>
        <time>2019-06-01T07:45:07Z</time>
      </trkpt>
      <trkpt lat="44.1375" lon="4.52097">
        <ele>245.4</ele>
        <time>2019-06-01T07:45:08Z</time>
      </trkpt>
      <trkpt lat="44.13752" lon="4.52102">
        <ele>245.4</ele>
        <time>2019-06-01T07:45:09Z</time>
      </trkpt>
      <trkpt lat="44.13752" lon="4.52112">
        <ele>245.3</ele>
        <time>2019-06-01T07:45:10Z</time>
      </trkpt>
      <trkpt lat="44.1376" lon="4.52122">
        <ele>245.2</ele>
        <time>2019-06-01T07:45:11Z</time>
      </trkpt>
      <trkpt lat="44.13762" lon="4.5213">
        <ele>245.1</ele>
        <time>2019-06-01T07:45:12Z</time>
      </trkpt>
      <trkpt lat="44.13759" lon="4.52138">
        <ele>244.9</ele>
        <time>2019-06-01T07:45:13Z</time>
      </trkpt>
      <trkpt lat="44.1376" lon="4.52144">
        <ele>244.7</ele>
        <time>2019-06-01T07:45:14Z</time>
      </trkpt>
      <trkpt lat="44.1376" lon="4.52152">
        <ele>244.5</ele>
        <time>2019-06-01T07:45:15Z</time>
      </trkpt>
      <trkpt lat="44.13757" lon="4.52162">
        <ele>244.1</ele>
        <time>2019-06-01T07:45:16Z</time>
      </trkpt>
      <trkpt lat="44.1375" lon="4.52175">
        <ele>243.6</ele>
        <time>2019-06-01T07:45:17Z</time>
      </trkpt>
      <trkpt lat="44.13747" lon="4.52184">
        <ele>243.3</ele>
        <time>2019-06-01T07:45:18Z</time>
      </trkpt>
      <trkpt lat="44.1375" lon="4.52192">
        <ele>243</ele>
        <time>2019-06-01T07:45:19Z</time>
      </trkpt>
      <trkpt lat="44.13749" lon="4.52201">
        <ele>242.8</ele>
        <time>2019-06-01T07:45:20Z</time>
      </trkpt>
      <trkpt lat="44.13747" lon="4.52209">
        <ele>242.6</ele>
        <time>2019-06-01T07:45:21Z</time>
      </trkpt>
      <trkpt lat="44.13746" lon="4.52217">
        <ele>242.4</ele>
        <time>2019-06-01T07:45:22Z</time>
      </trkpt>
      <trkpt lat="44.13746" lon="4.52225">
        <ele>242.1</ele>
        <time>2019-06-01T07:45:23Z</time>
      </trkpt>
      <trkpt lat="44.1375" lon="4.5223">
        <ele>241.9</ele>
        <time>2019-06-01T07:45:24Z</time>
      </trkpt>
      <trkpt lat="44.13752" lon="4.52235">
        <ele>241.7</ele>
        <time>2019-06-01T07:45:25Z</time>
      </trkpt>
      <trkpt lat="44.13758" lon="4.5224">
        <ele>241.4</ele>
        <time>2019-06-01T07:45:26Z</time>
      </trkpt>
      <trkpt lat="44.13765" lon="4.52248">
        <ele>240.9</ele>
        <time>2019-06-01T07:45:27Z</time>
      </trkpt>
      <trkpt lat="44.13771" lon="4.52255">
        <ele>240.4</ele>
        <time>2019-06-01T07:45:28Z</time>
      </trkpt>
      <trkpt lat="44.13771" lon="4.52265">
        <ele>239.9</ele>
        <time>2019-06-01T07:45:30Z</time>
      </trkpt>
      <trkpt lat="44.13766" lon="4.52276">
        <ele>239.2</ele>
        <time>2019-06-01T07:45:32Z</time>
      </trkpt>
      <trkpt lat="44.13763" lon="4.5228">
        <ele>238.9</ele>
        <time>2019-06-01T07:45:33Z</time>
      </trkpt>
      <trkpt lat="44.1376" lon="4.52282">
        <ele>238.7</ele>
        <time>2019-06-01T07:45:34Z</time>
      </trkpt>
      <trkpt lat="44.13758" lon="4.52292">
        <ele>238.4</ele>
        <time>2019-06-01T07:45:36Z</time>
      </trkpt>
      <trkpt lat="44.13756" lon="4.52296">
        <ele>238.1</ele>
        <time>2019-06-01T07:45:37Z</time>
      </trkpt>
      <trkpt lat="44.13754" lon="4.52301">
        <ele>237.9</ele>
        <time>2019-06-01T07:45:39Z</time>
      </trkpt>
      <trkpt lat="44.13752" lon="4.52308">
        <ele>237.6</ele>
        <time>2019-06-01T07:45:41Z</time>
      </trkpt>
      <trkpt lat="44.13749" lon="4.52313">
        <ele>237.2</ele>
        <time>2019-06-01T07:45:42Z</time>
      </trkpt>
      <trkpt lat="44.13747" lon="4.52316">
        <ele>236.9</ele>
        <time>2019-06-01T07:45:43Z</time>
      </trkpt>
      <trkpt lat="44.13745" lon="4.52321">
        <ele>236.6</ele>
        <time>2019-06-01T07:45:44Z</time>
      </trkpt>
      <trkpt lat="44.13743" lon="4.52324">
        <ele>236.3</ele>
        <time>2019-06-01T07:45:45Z</time>
      </trkpt>
      <trkpt lat="44.13739" lon="4.52329">
        <ele>235.6</ele>
        <time>2019-06-01T07:45:47Z</time>
      </trkpt>
      <trkpt lat="44.13736" lon="4.52332">
        <ele>235.2</ele>
        <time>2019-06-01T07:45:48Z</time>
      </trkpt>
      <trkpt lat="44.13733" lon="4.52335">
        <ele>234.8</ele>
        <time>2019-06-01T07:45:49Z</time>
      </trkpt>
      <trkpt lat="44.1373" lon="4.52339">
        <ele>234.3</ele>
        <time>2019-06-01T07:45:50Z</time>
      </trkpt>
      <trkpt lat="44.13728" lon="4.52343">
        <ele>233.9</ele>
        <time>2019-06-01T07:45:51Z</time>
      </trkpt>
      <trkpt lat="44.13725" lon="4.52348">
        <ele>233.4</ele>
        <time>2019-06-01T07:45:52Z</time>
      </trkpt>
      <trkpt lat="44.13723" lon="4.52351">
        <ele>233.1</ele>
        <time>2019-06-01T07:45:53Z</time>
      </trkpt>
      <trkpt lat="44.13722" lon="4.52354">
        <ele>232.8</ele>
        <time>2019-06-01T07:45:54Z</time>
      </trkpt>
      <trkpt lat="44.1372" lon="4.52358">
        <ele>232.5</ele>
        <time>2019-06-01T07:45:55Z</time>
      </trkpt>
      <trkpt lat="44.13719" lon="4.52361">
        <ele>232.2</ele>
        <time>2019-06-01T07:45:56Z</time>
      </trkpt>
      <trkpt lat="44.13717" lon="4.52367">
        <ele>231.6</ele>
        <time>2019-06-01T07:45:58Z</time>
      </trkpt>
      <trkpt lat="44.13716" lon="4.52371">
        <ele>231.3</ele>
        <time>2019-06-01T07:45:59Z</time>
      </trkpt>
      <trkpt lat="44.13715" lon="4.52375">
        <ele>231</ele>
        <time>2019-06-01T07:46:00Z</time>
      </trkpt>
      <trkpt lat="44.13714" lon="4.52379">
        <ele>230.7</ele>
        <time>2019-06-01T07:46:01Z</time>
      </trkpt>
      <trkpt lat="44.13711" lon="4.52384">
        <ele>230.2</ele>
        <time>2019-06-01T07:46:02Z</time>
      </trkpt>
      <trkpt lat="44.13707" lon="4.52388">
        <ele>229.8</ele>
        <time>2019-06-01T07:46:03Z</time>
      </trkpt>
      <trkpt lat="44.13704" lon="4.52393">
        <ele>229.5</ele>
        <time>2019-06-01T07:46:04Z</time>
      </trkpt>
      <trkpt lat="44.13702" lon="4.52398">
        <ele>229.1</ele>
        <time>2019-06-01T07:46:05Z</time>
      </trkpt>
      <trkpt lat="44.137" lon="4.52402">
        <ele>228.8</ele>
        <time>2019-06-01T07:46:06Z</time>
      </trkpt>
      <trkpt lat="44.13698" lon="4.52407">
        <ele>228.3</ele>
        <time>2019-06-01T07:46:08Z</time>
      </trkpt>
      <trkpt lat="44.137" lon="4.52414">
        <ele>228</ele>
        <time>2019-06-01T07:46:10Z</time>
      </trkpt>
      <trkpt lat="44.13702" lon="4.52416">
        <ele>227.8</ele>
        <time>2019-06-01T07:46:12Z</time>
      </trkpt>
      <trkpt lat="44.13704" lon="4.52412">
        <ele>227.5</ele>
        <time>2019-06-01T07:46:16Z</time>
      </trkpt>
      <trkpt lat="44.137" lon="4.52407">
        <ele>227.4</ele>
        <time>2019-06-01T07:46:19Z</time>
      </trkpt>
      <trkpt lat="44.13697" lon="4.52406">
        <ele>227.3</ele>
        <time>2019-06-01T07:46:20Z</time>
      </trkpt>
      <trkpt lat="44.13695" lon="4.52404">
        <ele>227.3</ele>
        <time>2019-06-01T07:46:21Z</time>
      </trkpt>
      <trkpt lat="44.13691" lon="4.52403">
        <ele>227.3</ele>
        <time>2019-06-01T07:46:22Z</time>
      </trkpt>
      <trkpt lat="44.13687" lon="4.524">
        <ele>227.2</ele>
        <time>2019-06-01T07:46:23Z</time>
      </trkpt>
      <trkpt lat="44.13683" lon="4.52398">
        <ele>227.2</ele>
        <time>2019-06-01T07:46:24Z</time>
      </trkpt>
      <trkpt lat="44.13679" lon="4.52396">
        <ele>227.2</ele>
        <time>2019-06-01T07:46:25Z</time>
      </trkpt>
      <trkpt lat="44.13675" lon="4.52396">
        <ele>227.1</ele>
        <time>2019-06-01T07:46:26Z</time>
      </trkpt>
      <trkpt lat="44.1367" lon="4.52396">
        <ele>227.1</ele>
        <time>2019-06-01T07:46:27Z</time>
      </trkpt>
      <trkpt lat="44.13649" lon="4.52407">
        <ele>226.8</ele>
        <time>2019-06-01T07:46:29Z</time>
      </trkpt>
      <trkpt lat="44.13644" lon="4.52408">
        <ele>226.7</ele>
        <time>2019-06-01T07:46:30Z</time>
      </trkpt>
      <trkpt lat="44.13638" lon="4.52408">
        <ele>226.6</ele>
        <time>2019-06-01T07:46:31Z</time>
      </trkpt>
      <trkpt lat="44.13633" lon="4.52408">
        <ele>226.5</ele>
        <time>2019-06-01T07:46:32Z</time>
      </trkpt>
      <trkpt lat="44.13628" lon="4.52405">
        <ele>226.5</ele>
        <time>2019-06-01T07:46:33Z</time>
      </trkpt>
      <trkpt lat="44.13624" lon="4.52407">
        <ele>226.4</ele>
        <time>2019-06-01T07:46:34Z</time>
      </trkpt>
      <trkpt lat="44.13621" lon="4.52411">
        <ele>226.3</ele>
        <time>2019-06-01T07:46:35Z</time>
      </trkpt>
      <trkpt lat="44.13617" lon="4.52414">
        <ele>225.9</ele>
        <time>2019-06-01T07:46:36Z</time>
      </trkpt>
      <trkpt lat="44.13614" lon="4.52419">
        <ele>225.4</ele>
        <time>2019-06-01T07:46:38Z</time>
      </trkpt>
      <trkpt lat="44.13613" lon="4.52423">
        <ele>225</ele>
        <time>2019-06-01T07:46:40Z</time>
      </trkpt>
      <trkpt lat="44.13613" lon="4.52427">
        <ele>224.6</ele>
        <time>2019-06-01T07:46:42Z</time>
      </trkpt>
      <trkpt lat="44.13612" lon="4.52431">
        <ele>224.2</ele>
        <time>2019-06-01T07:46:43Z</time>
      </trkpt>
      <trkpt lat="44.13611" lon="4.52435">
        <ele>223.7</ele>
        <time>2019-06-01T07:46:45Z</time>
      </trkpt>
      <trkpt lat="44.13608" lon="4.52439">
        <ele>223</ele>
        <time>2019-06-01T07:46:47Z</time>
      </trkpt>
      <trkpt lat="44.13604" lon="4.52442">
        <ele>222.3</ele>
        <time>2019-06-01T07:46:49Z</time>
      </trkpt>
      <trkpt lat="44.13601" lon="4.52446">
        <ele>221.9</ele>
        <time>2019-06-01T07:46:51Z</time>
      </trkpt>
      <trkpt lat="44.13599" lon="4.5245">
        <ele>221.6</ele>
        <time>2019-06-01T07:46:52Z</time>
      </trkpt>
      <trkpt lat="44.13596" lon="4.52453">
        <ele>221.2</ele>
        <time>2019-06-01T07:46:53Z</time>
      </trkpt>
      <trkpt lat="44.13593" lon="4.52455">
        <ele>220.8</ele>
        <time>2019-06-01T07:46:54Z</time>
      </trkpt>
      <trkpt lat="44.1359" lon="4.52457">
        <ele>220.4</ele>
        <time>2019-06-01T07:46:55Z</time>
      </trkpt>
      <trkpt lat="44.13587" lon="4.52459">
        <ele>219.9</ele>
        <time>2019-06-01T07:46:56Z</time>
      </trkpt>
      <trkpt lat="44.13584" lon="4.52461">
        <ele>219.5</ele>
        <time>2019-06-01T07:46:57Z</time>
      </trkpt>
      <trkpt lat="44.13581" lon="4.52463">
        <ele>219.2</ele>
        <time>2019-06-01T07:46:58Z</time>
      </trkpt>
      <trkpt lat="44.13577" lon="4.52466">
        <ele>218.7</ele>
        <time>2019-06-01T07:47:00Z</time>
      </trkpt>
      <trkpt lat="44.13574" lon="4.52468">
        <ele>218.3</ele>
        <time>2019-06-01T07:47:01Z</time>
      </trkpt>
      <trkpt lat="44.13572" lon="4.52471">
        <ele>218.1</ele>
        <time>2019-06-01T07:47:03Z</time>
      </trkpt>
      <trkpt lat="44.13569" lon="4.52475">
        <ele>217.7</ele>
        <time>2019-06-01T07:47:08Z</time>
      </trkpt>
      <trkpt lat="44.13567" lon="4.52477">
        <ele>217.5</ele>
        <time>2019-06-01T07:47:17Z</time>
      </trkpt>
      <trkpt lat="44.13563" lon="4.5248">
        <ele>217.1</ele>
        <time>2019-06-01T07:47:19Z</time>
      </trkpt>
      <trkpt lat="44.13559" lon="4.52483">
        <ele>217</ele>
        <time>2019-06-01T07:47:21Z</time>
      </trkpt>
      <trkpt lat="44.13556" lon="4.52487">
        <ele>216.9</ele>
        <time>2019-06-01T07:47:23Z</time>
      </trkpt>
      <trkpt lat="44.13555" lon="4.52493">
        <ele>216.8</ele>
        <time>2019-06-01T07:47:25Z</time>
      </trkpt>
      <trkpt lat="44.13551" lon="4.52499">
        <ele>216.7</ele>
        <time>2019-06-01T07:47:27Z</time>
      </trkpt>
      <trkpt lat="44.13549" lon="4.52502">
        <ele>216.7</ele>
        <time>2019-06-01T07:47:28Z</time>
      </trkpt>
      <trkpt lat="44.13547" lon="4.52505">
        <ele>216.6</ele>
        <time>2019-06-01T07:47:29Z</time>
      </trkpt>
      <trkpt lat="44.13544" lon="4.5251">
        <ele>216.6</ele>
        <time>2019-06-01T07:47:31Z</time>
      </trkpt>
      <trkpt lat="44.13541" lon="4.52516">
        <ele>216.5</ele>
        <time>2019-06-01T07:47:33Z</time>
      </trkpt>
      <trkpt lat="44.13539" lon="4.52522">
        <ele>216.5</ele>
        <time>2019-06-01T07:47:35Z</time>
      </trkpt>
      <trkpt lat="44.13539" lon="4.52527">
        <ele>216.5</ele>
        <time>2019-06-01T07:47:37Z</time>
      </trkpt>
      <trkpt lat="44.13539" lon="4.5253">
        <ele>216.5</ele>
        <time>2019-06-01T07:47:39Z</time>
      </trkpt>
      <trkpt lat="44.13537" lon="4.52533">
        <ele>216.5</ele>
        <time>2019-06-01T07:47:40Z</time>
      </trkpt>
      <trkpt lat="44.13534" lon="4.52538">
        <ele>216.5</ele>
        <time>2019-06-01T07:47:42Z</time>
      </trkpt>
      <trkpt lat="44.13534" lon="4.52542">
        <ele>216.5</ele>
        <time>2019-06-01T07:47:43Z</time>
      </trkpt>
      <trkpt lat="44.13532" lon="4.52546">
        <ele>216.5</ele>
        <time>2019-06-01T07:47:44Z</time>
      </trkpt>
      <trkpt lat="44.1353" lon="4.52551">
        <ele>216.5</ele>
        <time>2019-06-01T07:47:45Z</time>
      </trkpt>
      <trkpt lat="44.13528" lon="4.52554">
        <ele>216.6</ele>
        <time>2019-06-01T07:47:46Z</time>
      </trkpt>
      <trkpt lat="44.13527" lon="4.5256">
        <ele>216.7</ele>
        <time>2019-06-01T07:47:48Z</time>
      </trkpt>
      <trkpt lat="44.13527" lon="4.52564">
        <ele>216.8</ele>
        <time>2019-06-01T07:47:50Z</time>
      </trkpt>
      <trkpt lat="44.13528" lon="4.5257">
        <ele>216.9</ele>
        <time>2019-06-01T07:47:53Z</time>
      </trkpt>
      <trkpt lat="44.13527" lon="4.52575">
        <ele>217.1</ele>
        <time>2019-06-01T07:47:56Z</time>
      </trkpt>
      <trkpt lat="44.13524" lon="4.52579">
        <ele>217.2</ele>
        <time>2019-06-01T07:47:58Z</time>
      </trkpt>
      <trkpt lat="44.13521" lon="4.52584">
        <ele>217.4</ele>
        <time>2019-06-01T07:48:00Z</time>
      </trkpt>
      <trkpt lat="44.13519" lon="4.52589">
        <ele>217.6</ele>
        <time>2019-06-01T07:48:02Z</time>
      </trkpt>
      <trkpt lat="44.13517" lon="4.52593">
        <ele>217.6</ele>
        <time>2019-06-01T07:48:05Z</time>
      </trkpt>
      <trkpt lat="44.13514" lon="4.52594">
        <ele>217.7</ele>
        <time>2019-06-01T07:48:07Z</time>
      </trkpt>
      <trkpt lat="44.13512" lon="4.52595">
        <ele>217.7</ele>
        <time>2019-06-01T07:48:09Z</time>
      </trkpt>
      <trkpt lat="44.13507" lon="4.52597">
        <ele>217.5</ele>
        <time>2019-06-01T07:48:11Z</time>
      </trkpt>
      <trkpt lat="44.13504" lon="4.526">
        <ele>217.5</ele>
        <time>2019-06-01T07:48:13Z</time>
      </trkpt>
      <trkpt lat="44.13502" lon="4.52602">
        <ele>217.3</ele>
        <time>2019-06-01T07:48:15Z</time>
      </trkpt>
      <trkpt lat="44.13498" lon="4.52601">
        <ele>217.1</ele>
        <time>2019-06-01T07:48:17Z</time>
      </trkpt>
      <trkpt lat="44.13495" lon="4.52601">
        <ele>216.9</ele>
        <time>2019-06-01T07:48:21Z</time>
      </trkpt>
      <trkpt lat="44.13492" lon="4.52598">
        <ele>216.7</ele>
        <time>2019-06-01T07:48:24Z</time>
      </trkpt>
      <trkpt lat="44.13489" lon="4.52597">
        <ele>216.5</ele>
        <time>2019-06-01T07:48:29Z</time>
      </trkpt>
      <trkpt lat="44.13488" lon="4.52592">
        <ele>215.8</ele>
        <time>2019-06-01T07:48:31Z</time>
      </trkpt>
      <trkpt lat="44.13486" lon="4.52589">
        <ele>215.3</ele>
        <time>2019-06-01T07:48:38Z</time>
      </trkpt>
      <trkpt lat="44.13485" lon="4.52585">
        <ele>214.5</ele>
        <time>2019-06-01T07:48:44Z</time>
      </trkpt>
      <trkpt lat="44.13482" lon="4.52588">
        <ele>213.5</ele>
        <time>2019-06-01T07:48:48Z</time>
      </trkpt>
      <trkpt lat="44.1348" lon="4.5259">
        <ele>212.8</ele>
        <time>2019-06-01T07:48:49Z</time>
      </trkpt>
      <trkpt lat="44.13477" lon="4.52592">
        <ele>212.2</ele>
        <time>2019-06-01T07:48:50Z</time>
      </trkpt>
      <trkpt lat="44.13475" lon="4.52595">
        <ele>211.4</ele>
        <time>2019-06-01T07:48:51Z</time>
      </trkpt>
      <trkpt lat="44.13472" lon="4.52597">
        <ele>210.6</ele>
        <time>2019-06-01T07:48:52Z</time>
      </trkpt>
      <trkpt lat="44.1347" lon="4.52599">
        <ele>210</ele>
        <time>2019-06-01T07:48:53Z</time>
      </trkpt>
      <trkpt lat="44.13466" lon="4.526">
        <ele>209.2</ele>
        <time>2019-06-01T07:48:55Z</time>
      </trkpt>
      <trkpt lat="44.13462" lon="4.52605">
        <ele>208.1</ele>
        <time>2019-06-01T07:48:57Z</time>
      </trkpt>
      <trkpt lat="44.13459" lon="4.52607">
        <ele>207.4</ele>
        <time>2019-06-01T07:48:58Z</time>
      </trkpt>
      <trkpt lat="44.13457" lon="4.52609">
        <ele>206.8</ele>
        <time>2019-06-01T07:48:59Z</time>
      </trkpt>
      <trkpt lat="44.13454" lon="4.52613">
        <ele>206</ele>
        <time>2019-06-01T07:49:01Z</time>
      </trkpt>
      <trkpt lat="44.13451" lon="4.52615">
        <ele>205.3</ele>
        <time>2019-06-01T07:49:03Z</time>
      </trkpt>
      <trkpt lat="44.13448" lon="4.52617">
        <ele>204.5</ele>
        <time>2019-06-01T07:49:06Z</time>
      </trkpt>
      <trkpt lat="44.13445" lon="4.52619">
        <ele>203.6</ele>
        <time>2019-06-01T07:49:08Z</time>
      </trkpt>
      <trkpt lat="44.13442" lon="4.52623">
        <ele>202.7</ele>
        <time>2019-06-01T07:49:10Z</time>
      </trkpt>
      <trkpt lat="44.13439" lon="4.52625">
        <ele>202</ele>
        <time>2019-06-01T07:49:12Z</time>
      </trkpt>
      <trkpt lat="44.13434" lon="4.52624">
        <ele>200.9</ele>
        <time>2019-06-01T07:49:14Z</time>
      </trkpt>
      <trkpt lat="44.13431" lon="4.52623">
        <ele>200.4</ele>
        <time>2019-06-01T07:49:15Z</time>
      </trkpt>
      <trkpt lat="44.13426" lon="4.5262">
        <ele>199.7</ele>
        <time>2019-06-01T07:49:17Z</time>
      </trkpt>
      <trkpt lat="44.13423" lon="4.52621">
        <ele>199.3</ele>
        <time>2019-06-01T07:49:19Z</time>
      </trkpt>
      <trkpt lat="44.13419" lon="4.5262">
        <ele>198.9</ele>
        <time>2019-06-01T07:49:21Z</time>
      </trkpt>
      <trkpt lat="44.13414" lon="4.52618">
        <ele>198.5</ele>
        <time>2019-06-01T07:49:23Z</time>
      </trkpt>
      <trkpt lat="44.13411" lon="4.52617">
        <ele>198.3</ele>
        <time>2019-06-01T07:49:24Z</time>
      </trkpt>
      <trkpt lat="44.13407" lon="4.52618">
        <ele>198</ele>
        <time>2019-06-01T07:49:25Z</time>
      </trkpt>
      <trkpt lat="44.13403" lon="4.52619">
        <ele>197.6</ele>
        <time>2019-06-01T07:49:26Z</time>
      </trkpt>
      <trkpt lat="44.13399" lon="4.5262">
        <ele>197.3</ele>
        <time>2019-06-01T07:49:27Z</time>
      </trkpt>
      <trkpt lat="44.13396" lon="4.52622">
        <ele>197</ele>
        <time>2019-06-01T07:49:30Z</time>
      </trkpt>
      <trkpt lat="44.13394" lon="4.52624">
        <ele>196.7</ele>
        <time>2019-06-01T07:49:33Z</time>
      </trkpt>
      <trkpt lat="44.13391" lon="4.52625">
        <ele>196.4</ele>
        <time>2019-06-01T07:49:34Z</time>
      </trkpt>
      <trkpt lat="44.13389" lon="4.52628">
        <ele>196.1</ele>
        <time>2019-06-01T07:49:36Z</time>
      </trkpt>
      <trkpt lat="44.13387" lon="4.52631">
        <ele>195.9</ele>
        <time>2019-06-01T07:49:39Z</time>
      </trkpt>
      <trkpt lat="44.13386" lon="4.52635">
        <ele>195.6</ele>
        <time>2019-06-01T07:49:41Z</time>
      </trkpt>
      <trkpt lat="44.13386" lon="4.52639">
        <ele>195.3</ele>
        <time>2019-06-01T07:49:43Z</time>
      </trkpt>
      <trkpt lat="44.13387" lon="4.52643">
        <ele>194.9</ele>
        <time>2019-06-01T07:49:45Z</time>
      </trkpt>
      <trkpt lat="44.1339" lon="4.52649">
        <ele>194.7</ele>
        <time>2019-06-01T07:49:47Z</time>
      </trkpt>
      <trkpt lat="44.13393" lon="4.52654">
        <ele>194.8</ele>
        <time>2019-06-01T07:49:49Z</time>
      </trkpt>
      <trkpt lat="44.13398" lon="4.52657">
        <ele>194.9</ele>
        <time>2019-06-01T07:49:51Z</time>
      </trkpt>
      <trkpt lat="44.13401" lon="4.52659">
        <ele>195</ele>
        <time>2019-06-01T07:49:52Z</time>
      </trkpt>
      <trkpt lat="44.13403" lon="4.52661">
        <ele>195.1</ele>
        <time>2019-06-01T07:49:53Z</time>
      </trkpt>
      <trkpt lat="44.13406" lon="4.52662">
        <ele>195.2</ele>
        <time>2019-06-01T07:49:54Z</time>
      </trkpt>
      <trkpt lat="44.13409" lon="4.52663">
        <ele>195.2</ele>
        <time>2019-06-01T07:49:55Z</time>
      </trkpt>
      <trkpt lat="44.13412" lon="4.52665">
        <ele>195.2</ele>
        <time>2019-06-01T07:49:56Z</time>
      </trkpt>
      <trkpt lat="44.13416" lon="4.52668">
        <ele>195.2</ele>
        <time>2019-06-01T07:49:57Z</time>
      </trkpt>
      <trkpt lat="44.13421" lon="4.52671">
        <ele>195.1</ele>
        <time>2019-06-01T07:49:58Z</time>
      </trkpt>
      <trkpt lat="44.13425" lon="4.52674">
        <ele>195</ele>
        <time>2019-06-01T07:49:59Z</time>
      </trkpt>
      <trkpt lat="44.1343" lon="4.52676">
        <ele>194.9</ele>
        <time>2019-06-01T07:50:00Z</time>
      </trkpt>
      <trkpt lat="44.13434" lon="4.52677">
        <ele>194.9</ele>
        <time>2019-06-01T07:50:01Z</time>
      </trkpt>
      <trkpt lat="44.13437" lon="4.52677">
        <ele>194.8</ele>
        <time>2019-06-01T07:50:02Z</time>
      </trkpt>
      <trkpt lat="44.13441" lon="4.52677">
        <ele>194.8</ele>
        <time>2019-06-01T07:50:03Z</time>
      </trkpt>
      <trkpt lat="44.13444" lon="4.52676">
        <ele>194.7</ele>
        <time>2019-06-01T07:50:04Z</time>
      </trkpt>
      <trkpt lat="44.13447" lon="4.52676">
        <ele>194.6</ele>
        <time>2019-06-01T07:50:05Z</time>
      </trkpt>
      <trkpt lat="44.1345" lon="4.52677">
        <ele>194.6</ele>
        <time>2019-06-01T07:50:06Z</time>
      </trkpt>
      <trkpt lat="44.13453" lon="4.52678">
        <ele>194.6</ele>
        <time>2019-06-01T07:50:07Z</time>
      </trkpt>
      <trkpt lat="44.13457" lon="4.52679">
        <ele>194.6</ele>
        <time>2019-06-01T07:50:09Z</time>
      </trkpt>
      <trkpt lat="44.13462" lon="4.52681">
        <ele>194.7</ele>
        <time>2019-06-01T07:50:11Z</time>
      </trkpt>
      <trkpt lat="44.13465" lon="4.52683">
        <ele>194.8</ele>
        <time>2019-06-01T07:50:12Z</time>
      </trkpt>
      <trkpt lat="44.13468" lon="4.52684">
        <ele>194.9</ele>
        <time>2019-06-01T07:50:14Z</time>
      </trkpt>
      <trkpt lat="44.13468" lon="4.52692">
        <ele>195</ele>
        <time>2019-06-01T07:51:22Z</time>
      </trkpt>
      <trkpt lat="44.13469" lon="4.52696">
        <ele>195.1</ele>
        <time>2019-06-01T07:51:26Z</time>
      </trkpt>
      <trkpt lat="44.13472" lon="4.527">
        <ele>195.3</ele>
        <time>2019-06-01T07:51:29Z</time>
      </trkpt>
      <trkpt lat="44.13473" lon="4.52704">
        <ele>195.5</ele>
        <time>2019-06-01T07:51:31Z</time>
      </trkpt>
      <trkpt lat="44.13476" lon="4.52708">
        <ele>195.7</ele>
        <time>2019-06-01T07:51:33Z</time>
      </trkpt>
      <trkpt lat="44.13479" lon="4.52712">
        <ele>195.9</ele>
        <time>2019-06-01T07:51:35Z</time>
      </trkpt>
      <trkpt lat="44.13483" lon="4.52714">
        <ele>196.2</ele>
        <time>2019-06-01T07:51:37Z</time>
      </trkpt>
      <trkpt lat="44.13486" lon="4.52718">
        <ele>196.7</ele>
        <time>2019-06-01T07:51:40Z</time>
      </trkpt>
      <trkpt lat="44.13488" lon="4.52721">
        <ele>197.2</ele>
        <time>2019-06-01T07:51:43Z</time>
      </trkpt>
      <trkpt lat="44.13489" lon="4.52725">
        <ele>197.6</ele>
        <time>2019-06-01T07:51:45Z</time>
      </trkpt>
      <trkpt lat="44.13491" lon="4.52731">
        <ele>198.4</ele>
        <time>2019-06-01T07:51:47Z</time>
      </trkpt>
      <trkpt lat="44.13493" lon="4.52735">
        <ele>198.9</ele>
        <time>2019-06-01T07:51:49Z</time>
      </trkpt>
      <trkpt lat="44.13495" lon="4.52738">
        <ele>199.4</ele>
        <time>2019-06-01T07:51:51Z</time>
      </trkpt>
      <trkpt lat="44.13498" lon="4.5274">
        <ele>200</ele>
        <time>2019-06-01T07:51:53Z</time>
      </trkpt>
      <trkpt lat="44.13501" lon="4.52743">
        <ele>201</ele>
        <time>2019-06-01T07:51:55Z</time>
      </trkpt>
      <trkpt lat="44.13505" lon="4.52748">
        <ele>202.5</ele>
        <time>2019-06-01T07:51:57Z</time>
      </trkpt>
      <trkpt lat="44.13508" lon="4.5275">
        <ele>203.3</ele>
        <time>2019-06-01T07:51:58Z</time>
      </trkpt>
      <trkpt lat="44.1351" lon="4.52753">
        <ele>203.9</ele>
        <time>2019-06-01T07:51:59Z</time>
      </trkpt>
      <trkpt lat="44.13512" lon="4.52758">
        <ele>204.8</ele>
        <time>2019-06-01T07:52:01Z</time>
      </trkpt>
      <trkpt lat="44.13513" lon="4.52763">
        <ele>205.7</ele>
        <time>2019-06-01T07:52:03Z</time>
      </trkpt>
      <trkpt lat="44.13515" lon="4.52767">
        <ele>206.9</ele>
        <time>2019-06-01T07:52:06Z</time>
      </trkpt>
      <trkpt lat="44.13517" lon="4.5277">
        <ele>207.6</ele>
        <time>2019-06-01T07:52:08Z</time>
      </trkpt>
      <trkpt lat="44.13521" lon="4.52777">
        <ele>208.8</ele>
        <time>2019-06-01T07:52:46Z</time>
      </trkpt>
      <trkpt lat="44.13518" lon="4.52775">
        <ele>209.2</ele>
        <time>2019-06-01T07:52:55Z</time>
      </trkpt>
      <trkpt lat="44.13516" lon="4.52777">
        <ele>209.5</ele>
        <time>2019-06-01T07:52:59Z</time>
      </trkpt>
      <trkpt lat="44.13514" lon="4.52781">
        <ele>209.9</ele>
        <time>2019-06-01T07:53:06Z</time>
      </trkpt>
      <trkpt lat="44.13515" lon="4.52785">
        <ele>210.2</ele>
        <time>2019-06-01T07:53:10Z</time>
      </trkpt>
      <trkpt lat="44.13515" lon="4.52789">
        <ele>210.5</ele>
        <time>2019-06-01T07:53:14Z</time>
      </trkpt>
      <trkpt lat="44.13513" lon="4.52793">
        <ele>210.9</ele>
        <time>2019-06-01T07:53:21Z</time>
      </trkpt>
      <trkpt lat="44.1351" lon="4.52792">
        <ele>211.1</ele>
        <time>2019-06-01T07:53:28Z</time>
      </trkpt>
      <trkpt lat="44.13507" lon="4.52792">
        <ele>211.4</ele>
        <time>2019-06-01T07:53:30Z</time>
      </trkpt>
      <trkpt lat="44.13504" lon="4.52791">
        <ele>211.6</ele>
        <time>2019-06-01T07:53:32Z</time>
      </trkpt>
      <trkpt lat="44.135" lon="4.5279">
        <ele>211.9</ele>
        <time>2019-06-01T07:53:35Z</time>
      </trkpt>
      <trkpt lat="44.13497" lon="4.52788">
        <ele>212.1</ele>
        <time>2019-06-01T07:53:37Z</time>
      </trkpt>
      <trkpt lat="44.13493" lon="4.52789">
        <ele>212.4</ele>
        <time>2019-06-01T07:53:39Z</time>
      </trkpt>
      <trkpt lat="44.1349" lon="4.52789">
        <ele>212.6</ele>
        <time>2019-06-01T07:53:41Z</time>
      </trkpt>
      <trkpt lat="44.13486" lon="4.52789">
        <ele>212.8</ele>
        <time>2019-06-01T07:53:43Z</time>
      </trkpt>
      <trkpt lat="44.13482" lon="4.52789">
        <ele>213.1</ele>
        <time>2019-06-01T07:53:45Z</time>
      </trkpt>
      <trkpt lat="44.13479" lon="4.52787">
        <ele>213.3</ele>
        <time>2019-06-01T07:53:48Z</time>
      </trkpt>
      <trkpt lat="44.13476" lon="4.52785">
        <ele>213.6</ele>
        <time>2019-06-01T07:53:50Z</time>
      </trkpt>
      <trkpt lat="44.13472" lon="4.52786">
        <ele>213.8</ele>
        <time>2019-06-01T07:53:52Z</time>
      </trkpt>
      <trkpt lat="44.13468" lon="4.52787">
        <ele>214.1</ele>
        <time>2019-06-01T07:53:54Z</time>
      </trkpt>
      <trkpt lat="44.13465" lon="4.52789">
        <ele>214.5</ele>
        <time>2019-06-01T07:53:56Z</time>
      </trkpt>
      <trkpt lat="44.13462" lon="4.52791">
        <ele>214.7</ele>
        <time>2019-06-01T07:53:58Z</time>
      </trkpt>
      <trkpt lat="44.13458" lon="4.52794">
        <ele>214.9</ele>
        <time>2019-06-01T07:54:00Z</time>
      </trkpt>
      <trkpt lat="44.13455" lon="4.52796">
        <ele>215.1</ele>
        <time>2019-06-01T07:54:03Z</time>
      </trkpt>
      <trkpt lat="44.13453" lon="4.52799">
        <ele>215.3</ele>
        <time>2019-06-01T07:54:05Z</time>
      </trkpt>
      <trkpt lat="44.13451" lon="4.52803">
        <ele>215.5</ele>
        <time>2019-06-01T07:54:08Z</time>
      </trkpt>
      <trkpt lat="44.13452" lon="4.52807">
        <ele>215.7</ele>
        <time>2019-06-01T07:54:11Z</time>
      </trkpt>
      <trkpt lat="44.13449" lon="4.52803">
        <ele>215.9</ele>
        <time>2019-06-01T07:54:21Z</time>
      </trkpt>
      <trkpt lat="44.13444" lon="4.52802">
        <ele>216.3</ele>
        <time>2019-06-01T07:54:23Z</time>
      </trkpt>
      <trkpt lat="44.13442" lon="4.52801">
        <ele>216.5</ele>
        <time>2019-06-01T07:54:25Z</time>
      </trkpt>
      <trkpt lat="44.13438" lon="4.52798">
        <ele>216.9</ele>
        <time>2019-06-01T07:54:27Z</time>
      </trkpt>
      <trkpt lat="44.13436" lon="4.52797">
        <ele>217.2</ele>
        <time>2019-06-01T07:54:29Z</time>
      </trkpt>
      <trkpt lat="44.13431" lon="4.52793">
        <ele>217.6</ele>
        <time>2019-06-01T07:54:31Z</time>
      </trkpt>
      <trkpt lat="44.13427" lon="4.52792">
        <ele>217.9</ele>
        <time>2019-06-01T07:54:33Z</time>
      </trkpt>
      <trkpt lat="44.13424" lon="4.52791">
        <ele>218.2</ele>
        <time>2019-06-01T07:54:35Z</time>
      </trkpt>
      <trkpt lat="44.1342" lon="4.52791">
        <ele>218.5</ele>
        <time>2019-06-01T07:54:37Z</time>
      </trkpt>
      <trkpt lat="44.13417" lon="4.52792">
        <ele>218.7</ele>
        <time>2019-06-01T07:54:39Z</time>
      </trkpt>
      <trkpt lat="44.13415" lon="4.52795">
        <ele>218.8</ele>
        <time>2019-06-01T07:54:41Z</time>
      </trkpt>
      <trkpt lat="44.13413" lon="4.52797">
        <ele>219</ele>
        <time>2019-06-01T07:54:43Z</time>
      </trkpt>
      <trkpt lat="44.1341" lon="4.52798">
        <ele>219.1</ele>
        <time>2019-06-01T07:54:46Z</time>
      </trkpt>
      <trkpt lat="44.13408" lon="4.52802">
        <ele>219.4</ele>
        <time>2019-06-01T07:54:49Z</time>
      </trkpt>
      <trkpt lat="44.13408" lon="4.52806">
        <ele>219.5</ele>
        <time>2019-06-01T07:54:51Z</time>
      </trkpt>
      <trkpt lat="44.13406" lon="4.52811">
        <ele>219.8</ele>
        <time>2019-06-01T07:54:53Z</time>
      </trkpt>
      <trkpt lat="44.13405" lon="4.52815">
        <ele>220</ele>
        <time>2019-06-01T07:54:55Z</time>
      </trkpt>
      <trkpt lat="44.13405" lon="4.52819">
        <ele>220.2</ele>
        <time>2019-06-01T07:54:57Z</time>
      </trkpt>
      <trkpt lat="44.13402" lon="4.52824">
        <ele>220.5</ele>
        <time>2019-06-01T07:55:00Z</time>
      </trkpt>
      <trkpt lat="44.134" lon="4.52825">
        <ele>220.6</ele>
        <time>2019-06-01T07:55:02Z</time>
      </trkpt>
      <trkpt lat="44.13396" lon="4.52827">
        <ele>220.8</ele>
        <time>2019-06-01T07:55:04Z</time>
      </trkpt>
      <trkpt lat="44.13392" lon="4.5283">
        <ele>221</ele>
        <time>2019-06-01T07:55:06Z</time>
      </trkpt>
      <trkpt lat="44.13389" lon="4.52834">
        <ele>221.2</ele>
        <time>2019-06-01T07:55:08Z</time>
      </trkpt>
      <trkpt lat="44.13387" lon="4.52838">
        <ele>221.4</ele>
        <time>2019-06-01T07:55:10Z</time>
      </trkpt>
      <trkpt lat="44.13384" lon="4.52841">
        <ele>221.6</ele>
        <time>2019-06-01T07:55:12Z</time>
      </trkpt>
      <trkpt lat="44.13382" lon="4.52845">
        <ele>221.8</ele>
        <time>2019-06-01T07:55:15Z</time>
      </trkpt>
      <trkpt lat="44.13379" lon="4.52848">
        <ele>221.9</ele>
        <time>2019-06-01T07:55:18Z</time>
      </trkpt>
      <trkpt lat="44.13376" lon="4.52848">
        <ele>222</ele>
        <time>2019-06-01T07:55:20Z</time>
      </trkpt>
      <trkpt lat="44.13373" lon="4.52849">
        <ele>222.1</ele>
        <time>2019-06-01T07:55:22Z</time>
      </trkpt>
      <trkpt lat="44.13371" lon="4.52851">
        <ele>222.2</ele>
        <time>2019-06-01T07:55:24Z</time>
      </trkpt>
      <trkpt lat="44.13368" lon="4.52854">
        <ele>222.4</ele>
        <time>2019-06-01T07:55:26Z</time>
      </trkpt>
      <trkpt lat="44.13365" lon="4.52856">
        <ele>222.5</ele>
        <time>2019-06-01T07:55:28Z</time>
      </trkpt>
      <trkpt lat="44.13362" lon="4.52858">
        <ele>222.6</ele>
        <time>2019-06-01T07:55:30Z</time>
      </trkpt>
      <trkpt lat="44.13359" lon="4.5286">
        <ele>222.8</ele>
        <time>2019-06-01T07:55:32Z</time>
      </trkpt>
      <trkpt lat="44.13355" lon="4.52862">
        <ele>223</ele>
        <time>2019-06-01T07:55:34Z</time>
      </trkpt>
      <trkpt lat="44.1335" lon="4.52863">
        <ele>223.3</ele>
        <time>2019-06-01T07:55:36Z</time>
      </trkpt>
      <trkpt lat="44.13347" lon="4.52867">
        <ele>223.6</ele>
        <time>2019-06-01T07:55:38Z</time>
      </trkpt>
      <trkpt lat="44.13345" lon="4.52872">
        <ele>223.9</ele>
        <time>2019-06-01T07:55:40Z</time>
      </trkpt>
      <trkpt lat="44.13344" lon="4.52878">
        <ele>224.2</ele>
        <time>2019-06-01T07:55:42Z</time>
      </trkpt>
      <trkpt lat="44.13342" lon="4.52883">
        <ele>224.5</ele>
        <time>2019-06-01T07:55:44Z</time>
      </trkpt>
      <trkpt lat="44.13341" lon="4.52888">
        <ele>224.8</ele>
        <time>2019-06-01T07:55:46Z</time>
      </trkpt>
      <trkpt lat="44.1334" lon="4.52891">
        <ele>225</ele>
        <time>2019-06-01T07:55:48Z</time>
      </trkpt>
      <trkpt lat="44.13337" lon="4.52895">
        <ele>225.3</ele>
        <time>2019-06-01T07:55:50Z</time>
      </trkpt>
      <trkpt lat="44.13333" lon="4.52899">
        <ele>225.8</ele>
        <time>2019-06-01T07:55:52Z</time>
      </trkpt>
      <trkpt lat="44.1333" lon="4.52903">
        <ele>226.1</ele>
        <time>2019-06-01T07:55:54Z</time>
      </trkpt>
      <trkpt lat="44.1333" lon="4.52908">
        <ele>226.6</ele>
        <time>2019-06-01T07:55:56Z</time>
      </trkpt>
      <trkpt lat="44.13332" lon="4.52913">
        <ele>227</ele>
        <time>2019-06-01T07:55:58Z</time>
      </trkpt>
      <trkpt lat="44.13333" lon="4.52918">
        <ele>227.2</ele>
        <time>2019-06-01T07:56:00Z</time>
      </trkpt>
      <trkpt lat="44.13335" lon="4.52921">
        <ele>227.4</ele>
        <time>2019-06-01T07:56:02Z</time>
      </trkpt>
      <trkpt lat="44.13335" lon="4.52926">
        <ele>227.7</ele>
        <time>2019-06-01T07:56:05Z</time>
      </trkpt>
      <trkpt lat="44.13334" lon="4.52929">
        <ele>227.8</ele>
        <time>2019-06-01T07:56:08Z</time>
      </trkpt>
      <trkpt lat="44.13334" lon="4.52935">
        <ele>228.1</ele>
        <time>2019-06-01T07:56:12Z</time>
      </trkpt>
      <trkpt lat="44.13333" lon="4.5294">
        <ele>228.4</ele>
        <time>2019-06-01T07:56:15Z</time>
      </trkpt>
      <trkpt lat="44.13333" lon="4.52946">
        <ele>228.7</ele>
        <time>2019-06-01T07:56:17Z</time>
      </trkpt>
      <trkpt lat="44.13333" lon="4.52951">
        <ele>229</ele>
        <time>2019-06-01T07:56:20Z</time>
      </trkpt>
      <trkpt lat="44.1333" lon="4.52956">
        <ele>229.4</ele>
        <time>2019-06-01T07:56:23Z</time>
      </trkpt>
      <trkpt lat="44.13327" lon="4.52957">
        <ele>229.7</ele>
        <time>2019-06-01T07:56:26Z</time>
      </trkpt>
      <trkpt lat="44.13324" lon="4.52957">
        <ele>230</ele>
        <time>2019-06-01T07:56:28Z</time>
      </trkpt>
      <trkpt lat="44.13322" lon="4.52961">
        <ele>230.2</ele>
        <time>2019-06-01T07:56:30Z</time>
      </trkpt>
      <trkpt lat="44.1332" lon="4.52964">
        <ele>230.4</ele>
        <time>2019-06-01T07:56:32Z</time>
      </trkpt>
      <trkpt lat="44.13319" lon="4.52967">
        <ele>230.6</ele>
        <time>2019-06-01T07:56:34Z</time>
      </trkpt>
      <trkpt lat="44.13317" lon="4.52971">
        <ele>230.9</ele>
        <time>2019-06-01T07:56:36Z</time>
      </trkpt>
      <trkpt lat="44.13317" lon="4.52977">
        <ele>231.2</ele>
        <time>2019-06-01T07:56:39Z</time>
      </trkpt>
      <trkpt lat="44.13316" lon="4.52984">
        <ele>231.6</ele>
        <time>2019-06-01T07:56:41Z</time>
      </trkpt>
      <trkpt lat="44.13316" lon="4.52989">
        <ele>232</ele>
        <time>2019-06-01T07:56:43Z</time>
      </trkpt>
      <trkpt lat="44.13316" lon="4.52994">
        <ele>232.3</ele>
        <time>2019-06-01T07:56:45Z</time>
      </trkpt>
      <trkpt lat="44.13316" lon="4.52999">
        <ele>232.6</ele>
        <time>2019-06-01T07:56:47Z</time>
      </trkpt>
      <trkpt lat="44.13317" lon="4.53004">
        <ele>232.8</ele>
        <time>2019-06-01T07:56:49Z</time>
      </trkpt>
      <trkpt lat="44.13317" lon="4.53009">
        <ele>233</ele>
        <time>2019-06-01T07:56:51Z</time>
      </trkpt>
      <trkpt lat="44.13317" lon="4.53013">
        <ele>233.2</ele>
        <time>2019-06-01T07:56:53Z</time>
      </trkpt>
      <trkpt lat="44.13318" lon="4.53018">
        <ele>233.4</ele>
        <time>2019-06-01T07:56:56Z</time>
      </trkpt>
      <trkpt lat="44.13317" lon="4.53023">
        <ele>233.6</ele>
        <time>2019-06-01T07:56:58Z</time>
      </trkpt>
      <trkpt lat="44.13315" lon="4.53027">
        <ele>233.8</ele>
        <time>2019-06-01T07:57:00Z</time>
      </trkpt>
      <trkpt lat="44.13312" lon="4.53029">
        <ele>234</ele>
        <time>2019-06-01T07:57:02Z</time>
      </trkpt>
      <trkpt lat="44.13311" lon="4.53033">
        <ele>234.1</ele>
        <time>2019-06-01T07:57:04Z</time>
      </trkpt>
      <trkpt lat="44.1331" lon="4.53036">
        <ele>234.3</ele>
        <time>2019-06-01T07:57:05Z</time>
      </trkpt>
      <trkpt lat="44.13309" lon="4.5304">
        <ele>234.5</ele>
        <time>2019-06-01T07:57:06Z</time>
      </trkpt>
      <trkpt lat="44.13308" lon="4.53047">
        <ele>234.7</ele>
        <time>2019-06-01T07:57:08Z</time>
      </trkpt>
      <trkpt lat="44.13308" lon="4.5305">
        <ele>234.8</ele>
        <time>2019-06-01T07:57:09Z</time>
      </trkpt>
      <trkpt lat="44.13308" lon="4.53056">
        <ele>234.9</ele>
        <time>2019-06-01T07:57:11Z</time>
      </trkpt>
      <trkpt lat="44.13309" lon="4.5306">
        <ele>235</ele>
        <time>2019-06-01T07:57:13Z</time>
      </trkpt>
      <trkpt lat="44.13309" lon="4.53066">
        <ele>235.1</ele>
        <time>2019-06-01T07:57:16Z</time>
      </trkpt>
      <trkpt lat="44.13311" lon="4.53069">
        <ele>235.1</ele>
        <time>2019-06-01T07:57:18Z</time>
      </trkpt>
      <trkpt lat="44.13313" lon="4.53076">
        <ele>235.2</ele>
        <time>2019-06-01T07:57:20Z</time>
      </trkpt>
      <trkpt lat="44.13313" lon="4.5308">
        <ele>235.3</ele>
        <time>2019-06-01T07:57:21Z</time>
      </trkpt>
      <trkpt lat="44.13315" lon="4.53087">
        <ele>235.4</ele>
        <time>2019-06-01T07:57:23Z</time>
      </trkpt>
      <trkpt lat="44.13315" lon="4.53093">
        <ele>235.5</ele>
        <time>2019-06-01T07:57:25Z</time>
      </trkpt>
      <trkpt lat="44.13316" lon="4.53097">
        <ele>235.6</ele>
        <time>2019-06-01T07:57:27Z</time>
      </trkpt>
      <trkpt lat="44.13318" lon="4.53103">
        <ele>235.7</ele>
        <time>2019-06-01T07:57:29Z</time>
      </trkpt>
      <trkpt lat="44.13319" lon="4.53107">
        <ele>235.8</ele>
        <time>2019-06-01T07:57:30Z</time>
      </trkpt>
      <trkpt lat="44.1332" lon="4.53111">
        <ele>235.9</ele>
        <time>2019-06-01T07:57:31Z</time>
      </trkpt>
      <trkpt lat="44.13319" lon="4.53118">
        <ele>236</ele>
        <time>2019-06-01T07:57:33Z</time>
      </trkpt>
      <trkpt lat="44.13319" lon="4.53123">
        <ele>236.2</ele>
        <time>2019-06-01T07:57:35Z</time>
      </trkpt>
      <trkpt lat="44.1332" lon="4.53128">
        <ele>236.3</ele>
        <time>2019-06-01T07:57:38Z</time>
      </trkpt>
      <trkpt lat="44.1332" lon="4.53134">
        <ele>236.4</ele>
        <time>2019-06-01T07:57:42Z</time>
      </trkpt>
      <trkpt lat="44.1332" lon="4.53138">
        <ele>236.5</ele>
        <time>2019-06-01T07:57:45Z</time>
      </trkpt>
      <trkpt lat="44.13319" lon="4.53144">
        <ele>236.6</ele>
        <time>2019-06-01T07:57:47Z</time>
      </trkpt>
      <trkpt lat="44.13319" lon="4.53148">
        <ele>236.7</ele>
        <time>2019-06-01T07:57:49Z</time>
      </trkpt>
      <trkpt lat="44.13318" lon="4.53152">
        <ele>236.8</ele>
        <time>2019-06-01T07:57:51Z</time>
      </trkpt>
      <trkpt lat="44.13317" lon="4.53156">
        <ele>236.8</ele>
        <time>2019-06-01T07:57:54Z</time>
      </trkpt>
      <trkpt lat="44.1332" lon="4.5316">
        <ele>236.9</ele>
        <time>2019-06-01T07:57:57Z</time>
      </trkpt>
      <trkpt lat="44.13322" lon="4.53163">
        <ele>236.9</ele>
        <time>2019-06-01T07:57:58Z</time>
      </trkpt>
      <trkpt lat="44.13323" lon="4.53168">
        <ele>236.9</ele>
        <time>2019-06-01T07:58:01Z</time>
      </trkpt>
      <trkpt lat="44.13324" lon="4.53172">
        <ele>236.8</ele>
        <time>2019-06-01T07:58:06Z</time>
      </trkpt>
      <trkpt lat="44.13324" lon="4.5318">
        <ele>236.7</ele>
        <time>2019-06-01T07:58:28Z</time>
      </trkpt>
      <trkpt lat="44.13324" lon="4.53184">
        <ele>236.7</ele>
        <time>2019-06-01T07:58:29Z</time>
      </trkpt>
      <trkpt lat="44.13326" lon="4.53188">
        <ele>236.6</ele>
        <time>2019-06-01T07:58:32Z</time>
      </trkpt>
      <trkpt lat="44.13329" lon="4.53188">
        <ele>236.5</ele>
        <time>2019-06-01T07:58:36Z</time>
      </trkpt>
      <trkpt lat="44.13332" lon="4.53187">
        <ele>236.4</ele>
        <time>2019-06-01T07:58:37Z</time>
      </trkpt>
      <trkpt lat="44.13336" lon="4.53187">
        <ele>236.3</ele>
        <time>2019-06-01T07:58:38Z</time>
      </trkpt>
      <trkpt lat="44.1334" lon="4.53188">
        <ele>236.1</ele>
        <time>2019-06-01T07:58:39Z</time>
      </trkpt>
      <trkpt lat="44.13343" lon="4.53189">
        <ele>235.9</ele>
        <time>2019-06-01T07:58:40Z</time>
      </trkpt>
      <trkpt lat="44.13345" lon="4.53191">
        <ele>235.8</ele>
        <time>2019-06-01T07:58:41Z</time>
      </trkpt>
      <trkpt lat="44.13349" lon="4.53193">
        <ele>235.6</ele>
        <time>2019-06-01T07:58:42Z</time>
      </trkpt>
      <trkpt lat="44.13353" lon="4.53194">
        <ele>235.5</ele>
        <time>2019-06-01T07:58:43Z</time>
      </trkpt>
      <trkpt lat="44.13356" lon="4.53194">
        <ele>235.4</ele>
        <time>2019-06-01T07:58:44Z</time>
      </trkpt>
      <trkpt lat="44.13361" lon="4.53195">
        <ele>235.2</ele>
        <time>2019-06-01T07:58:46Z</time>
      </trkpt>
      <trkpt lat="44.13365" lon="4.53194">
        <ele>235</ele>
        <time>2019-06-01T07:58:47Z</time>
      </trkpt>
      <trkpt lat="44.13369" lon="4.53193">
        <ele>234.8</ele>
        <time>2019-06-01T07:58:48Z</time>
      </trkpt>
      <trkpt lat="44.13373" lon="4.53192">
        <ele>234.5</ele>
        <time>2019-06-01T07:58:49Z</time>
      </trkpt>
      <trkpt lat="44.13379" lon="4.53191">
        <ele>234.4</ele>
        <time>2019-06-01T07:58:50Z</time>
      </trkpt>
      <trkpt lat="44.13384" lon="4.5319">
        <ele>234.2</ele>
        <time>2019-06-01T07:58:51Z</time>
      </trkpt>
      <trkpt lat="44.1339" lon="4.5319">
        <ele>233.9</ele>
        <time>2019-06-01T07:58:52Z</time>
      </trkpt>
      <trkpt lat="44.13396" lon="4.53189">
        <ele>233.7</ele>
        <time>2019-06-01T07:58:53Z</time>
      </trkpt>
      <trkpt lat="44.13403" lon="4.5319">
        <ele>233.5</ele>
        <time>2019-06-01T07:58:54Z</time>
      </trkpt>
      <trkpt lat="44.13409" lon="4.53191">
        <ele>233.3</ele>
        <time>2019-06-01T07:58:55Z</time>
      </trkpt>
      <trkpt lat="44.13425" lon="4.53197">
        <ele>232.8</ele>
        <time>2019-06-01T07:58:56Z</time>
      </trkpt>
      <trkpt lat="44.13432" lon="4.53199">
        <ele>232.6</ele>
        <time>2019-06-01T07:58:57Z</time>
      </trkpt>
      <trkpt lat="44.13436" lon="4.532">
        <ele>232.5</ele>
        <time>2019-06-01T07:58:58Z</time>
      </trkpt>
      <trkpt lat="44.13442" lon="4.53202">
        <ele>232.3</ele>
        <time>2019-06-01T07:58:59Z</time>
      </trkpt>
      <trkpt lat="44.13445" lon="4.53203">
        <ele>232.2</ele>
        <time>2019-06-01T07:59:00Z</time>
      </trkpt>
      <trkpt lat="44.13449" lon="4.53204">
        <ele>232.1</ele>
        <time>2019-06-01T07:59:01Z</time>
      </trkpt>
      <trkpt lat="44.13451" lon="4.53206">
        <ele>231.9</ele>
        <time>2019-06-01T07:59:02Z</time>
      </trkpt>
      <trkpt lat="44.13455" lon="4.5321">
        <ele>231.6</ele>
        <time>2019-06-01T07:59:03Z</time>
      </trkpt>
      <trkpt lat="44.13457" lon="4.53214">
        <ele>231.4</ele>
        <time>2019-06-01T07:59:04Z</time>
      </trkpt>
      <trkpt lat="44.1346" lon="4.53219">
        <ele>231.2</ele>
        <time>2019-06-01T07:59:05Z</time>
      </trkpt>
      <trkpt lat="44.13466" lon="4.53225">
        <ele>230.8</ele>
        <time>2019-06-01T07:59:06Z</time>
      </trkpt>
      <trkpt lat="44.13471" lon="4.53227">
        <ele>230.5</ele>
        <time>2019-06-01T07:59:07Z</time>
      </trkpt>
      <trkpt lat="44.13475" lon="4.53231">
        <ele>230.1</ele>
        <time>2019-06-01T07:59:08Z</time>
      </trkpt>
      <trkpt lat="44.1348" lon="4.53233">
        <ele>229.6</ele>
        <time>2019-06-01T07:59:09Z</time>
      </trkpt>
      <trkpt lat="44.13483" lon="4.53235">
        <ele>229.2</ele>
        <time>2019-06-01T07:59:10Z</time>
      </trkpt>
      <trkpt lat="44.13487" lon="4.53236">
        <ele>228.9</ele>
        <time>2019-06-01T07:59:11Z</time>
      </trkpt>
      <trkpt lat="44.13489" lon="4.53236">
        <ele>228.7</ele>
        <time>2019-06-01T07:59:12Z</time>
      </trkpt>
      <trkpt lat="44.13492" lon="4.53236">
        <ele>228.4</ele>
        <time>2019-06-01T07:59:13Z</time>
      </trkpt>
      <trkpt lat="44.13497" lon="4.53235">
        <ele>228.1</ele>
        <time>2019-06-01T07:59:15Z</time>
      </trkpt>
      <trkpt lat="44.13501" lon="4.53235">
        <ele>227.8</ele>
        <time>2019-06-01T07:59:17Z</time>
      </trkpt>
      <trkpt lat="44.13506" lon="4.53236">
        <ele>227.4</ele>
        <time>2019-06-01T07:59:19Z</time>
      </trkpt>
      <trkpt lat="44.1351" lon="4.53237">
        <ele>227.1</ele>
        <time>2019-06-01T07:59:20Z</time>
      </trkpt>
      <trkpt lat="44.13514" lon="4.53237">
        <ele>226.8</ele>
        <time>2019-06-01T07:59:21Z</time>
      </trkpt>
      <trkpt lat="44.13517" lon="4.53238">
        <ele>226.5</ele>
        <time>2019-06-01T07:59:22Z</time>
      </trkpt>
      <trkpt lat="44.13521" lon="4.53238">
        <ele>226.3</ele>
        <time>2019-06-01T07:59:23Z</time>
      </trkpt>
      <trkpt lat="44.13524" lon="4.53237">
        <ele>226</ele>
        <time>2019-06-01T07:59:24Z</time>
      </trkpt>
      <trkpt lat="44.13528" lon="4.53236">
        <ele>225.8</ele>
        <time>2019-06-01T07:59:25Z</time>
      </trkpt>
      <trkpt lat="44.13531" lon="4.53235">
        <ele>225.4</ele>
        <time>2019-06-01T07:59:26Z</time>
      </trkpt>
      <trkpt lat="44.13535" lon="4.53235">
        <ele>225.1</ele>
        <time>2019-06-01T07:59:27Z</time>
      </trkpt>
      <trkpt lat="44.13539" lon="4.53236">
        <ele>224.7</ele>
        <time>2019-06-01T07:59:28Z</time>
      </trkpt>
      <trkpt lat="44.13551" lon="4.53244">
        <ele>223.2</ele>
        <time>2019-06-01T07:59:29Z</time>
      </trkpt>
      <trkpt lat="44.13555" lon="4.53247">
        <ele>222.9</ele>
        <time>2019-06-01T07:59:31Z</time>
      </trkpt>
      <trkpt lat="44.13556" lon="4.53253">
        <ele>222.5</ele>
        <time>2019-06-01T07:59:33Z</time>
      </trkpt>
      <trkpt lat="44.13558" lon="4.53257">
        <ele>222.1</ele>
        <time>2019-06-01T07:59:34Z</time>
      </trkpt>
      <trkpt lat="44.13563" lon="4.53266">
        <ele>220.9</ele>
        <time>2019-06-01T07:59:36Z</time>
      </trkpt>
      <trkpt lat="44.13563" lon="4.5327">
        <ele>220.6</ele>
        <time>2019-06-01T07:59:37Z</time>
      </trkpt>
      <trkpt lat="44.13566" lon="4.53274">
        <ele>220.1</ele>
        <time>2019-06-01T07:59:38Z</time>
      </trkpt>
      <trkpt lat="44.13569" lon="4.53276">
        <ele>219.7</ele>
        <time>2019-06-01T07:59:39Z</time>
      </trkpt>
      <trkpt lat="44.13572" lon="4.53278">
        <ele>219.1</ele>
        <time>2019-06-01T07:59:40Z</time>
      </trkpt>
      <trkpt lat="44.13575" lon="4.5328">
        <ele>218.5</ele>
        <time>2019-06-01T07:59:41Z</time>
      </trkpt>
      <trkpt lat="44.13579" lon="4.5328">
        <ele>217.7</ele>
        <time>2019-06-01T07:59:43Z</time>
      </trkpt>
      <trkpt lat="44.13584" lon="4.5328">
        <ele>216.6</ele>
        <time>2019-06-01T07:59:45Z</time>
      </trkpt>
      <trkpt lat="44.13587" lon="4.53281">
        <ele>215.9</ele>
        <time>2019-06-01T07:59:46Z</time>
      </trkpt>
      <trkpt lat="44.13589" lon="4.53282">
        <ele>215.3</ele>
        <time>2019-06-01T07:59:47Z</time>
      </trkpt>
      <trkpt lat="44.13593" lon="4.53282">
        <ele>214.5</ele>
        <time>2019-06-01T07:59:48Z</time>
      </trkpt>
      <trkpt lat="44.13596" lon="4.53281">
        <ele>213.6</ele>
        <time>2019-06-01T07:59:49Z</time>
      </trkpt>
      <trkpt lat="44.136" lon="4.53279">
        <ele>212.3</ele>
        <time>2019-06-01T07:59:50Z</time>
      </trkpt>
      <trkpt lat="44.13605" lon="4.53275">
        <ele>211.7</ele>
        <time>2019-06-01T07:59:51Z</time>
      </trkpt>
      <trkpt lat="44.13611" lon="4.53262">
        <ele>210.3</ele>
        <time>2019-06-01T07:59:52Z</time>
      </trkpt>
      <trkpt lat="44.13616" lon="4.53256">
        <ele>209.8</ele>
        <time>2019-06-01T07:59:53Z</time>
      </trkpt>
      <trkpt lat="44.13619" lon="4.53249">
        <ele>209.5</ele>
        <time>2019-06-01T07:59:54Z</time>
      </trkpt>
      <trkpt lat="44.13621" lon="4.53242">
        <ele>209.2</ele>
        <time>2019-06-01T07:59:56Z</time>
      </trkpt>
      <trkpt lat="44.13622" lon="4.53239">
        <ele>209.1</ele>
        <time>2019-06-01T07:59:57Z</time>
      </trkpt>
      <trkpt lat="44.13625" lon="4.53234">
        <ele>209</ele>
        <time>2019-06-01T07:59:59Z</time>
      </trkpt>
      <trkpt lat="44.13626" lon="4.53231">
        <ele>209</ele>
        <time>2019-06-01T08:00:01Z</time>
      </trkpt>
      <trkpt lat="44.13629" lon="4.53231">
        <ele>209</ele>
        <time>2019-06-01T08:00:04Z</time>
      </trkpt>
      <trkpt lat="44.13633" lon="4.53232">
        <ele>209</ele>
        <time>2019-06-01T08:00:06Z</time>
      </trkpt>
      <trkpt lat="44.13636" lon="4.53233">
        <ele>209</ele>
        <time>2019-06-01T08:00:08Z</time>
      </trkpt>
      <trkpt lat="44.1364" lon="4.53231">
        <ele>209</ele>
        <time>2019-06-01T08:00:10Z</time>
      </trkpt>
      <trkpt lat="44.13643" lon="4.53229">
        <ele>209.1</ele>
        <time>2019-06-01T08:00:12Z</time>
      </trkpt>
      <trkpt lat="44.13647" lon="4.53226">
        <ele>209.1</ele>
        <time>2019-06-01T08:00:14Z</time>
      </trkpt>
      <trkpt lat="44.1365" lon="4.53223">
        <ele>208.4</ele>
        <time>2019-06-01T08:00:15Z</time>
      </trkpt>
      <trkpt lat="44.13653" lon="4.5322">
        <ele>208.4</ele>
        <time>2019-06-01T08:00:16Z</time>
      </trkpt>
      <trkpt lat="44.13656" lon="4.53216">
        <ele>208.4</ele>
        <time>2019-06-01T08:00:17Z</time>
      </trkpt>
      <trkpt lat="44.13662" lon="4.53208">
        <ele>207.8</ele>
        <time>2019-06-01T08:00:18Z</time>
      </trkpt>
      <trkpt lat="44.13665" lon="4.53207">
        <ele>207.9</ele>
        <time>2019-06-01T08:00:19Z</time>
      </trkpt>
      <trkpt lat="44.1367" lon="4.53204">
        <ele>208</ele>
        <time>2019-06-01T08:00:20Z</time>
      </trkpt>
      <trkpt lat="44.13673" lon="4.53204">
        <ele>208.1</ele>
        <time>2019-06-01T08:00:21Z</time>
      </trkpt>
      <trkpt lat="44.13677" lon="4.53206">
        <ele>208.2</ele>
        <time>2019-06-01T08:00:22Z</time>
      </trkpt>
      <trkpt lat="44.13681" lon="4.53208">
        <ele>208.2</ele>
        <time>2019-06-01T08:00:23Z</time>
      </trkpt>
      <trkpt lat="44.13685" lon="4.53209">
        <ele>208.2</ele>
        <time>2019-06-01T08:00:24Z</time>
      </trkpt>
      <trkpt lat="44.1369" lon="4.5321">
        <ele>208.2</ele>
        <time>2019-06-01T08:00:25Z</time>
      </trkpt>
      <trkpt lat="44.13697" lon="4.53212">
        <ele>208.1</ele>
        <time>2019-06-01T08:00:26Z</time>
      </trkpt>
      <trkpt lat="44.13703" lon="4.53213">
        <ele>208</ele>
        <time>2019-06-01T08:00:27Z</time>
      </trkpt>
      <trkpt lat="44.13708" lon="4.53215">
        <ele>207.8</ele>
        <time>2019-06-01T08:00:28Z</time>
      </trkpt>
      <trkpt lat="44.13715" lon="4.53218">
        <ele>207.4</ele>
        <time>2019-06-01T08:00:29Z</time>
      </trkpt>
      <trkpt lat="44.1372" lon="4.5322">
        <ele>207.1</ele>
        <time>2019-06-01T08:00:30Z</time>
      </trkpt>
      <trkpt lat="44.13727" lon="4.53223">
        <ele>206.8</ele>
        <time>2019-06-01T08:00:31Z</time>
      </trkpt>
      <trkpt lat="44.13733" lon="4.53226">
        <ele>206.9</ele>
        <time>2019-06-01T08:00:32Z</time>
      </trkpt>
      <trkpt lat="44.13739" lon="4.5323">
        <ele>206.9</ele>
        <time>2019-06-01T08:00:33Z</time>
      </trkpt>
      <trkpt lat="44.13744" lon="4.53233">
        <ele>207</ele>
        <time>2019-06-01T08:00:34Z</time>
      </trkpt>
      <trkpt lat="44.1375" lon="4.53237">
        <ele>207</ele>
        <time>2019-06-01T08:00:35Z</time>
      </trkpt>
      <trkpt lat="44.13755" lon="4.5324">
        <ele>207</ele>
        <time>2019-06-01T08:00:36Z</time>
      </trkpt>
      <trkpt lat="44.13761" lon="4.53242">
        <ele>207.1</ele>
        <time>2019-06-01T08:00:37Z</time>
      </trkpt>
      <trkpt lat="44.13767" lon="4.53244">
        <ele>207.2</ele>
        <time>2019-06-01T08:00:38Z</time>
      </trkpt>
      <trkpt lat="44.13772" lon="4.53247">
        <ele>207.3</ele>
        <time>2019-06-01T08:00:39Z</time>
      </trkpt>
      <trkpt lat="44.13778" lon="4.53246">
        <ele>207.4</ele>
        <time>2019-06-01T08:00:40Z</time>
      </trkpt>
      <trkpt lat="44.13784" lon="4.53246">
        <ele>207.5</ele>
        <time>2019-06-01T08:00:41Z</time>
      </trkpt>
      <trkpt lat="44.13789" lon="4.53244">
        <ele>207.6</ele>
        <time>2019-06-01T08:00:42Z</time>
      </trkpt>
      <trkpt lat="44.13795" lon="4.53243">
        <ele>207.8</ele>
        <time>2019-06-01T08:00:43Z</time>
      </trkpt>
      <trkpt lat="44.138" lon="4.53241">
        <ele>207.9</ele>
        <time>2019-06-01T08:00:44Z</time>
      </trkpt>
      <trkpt lat="44.13805" lon="4.53238">
        <ele>208</ele>
        <time>2019-06-01T08:00:45Z</time>
      </trkpt>
      <trkpt lat="44.13809" lon="4.53234">
        <ele>208.1</ele>
        <time>2019-06-01T08:00:46Z</time>
      </trkpt>
      <trkpt lat="44.13813" lon="4.53229">
        <ele>208.1</ele>
        <time>2019-06-01T08:00:47Z</time>
      </trkpt>
      <trkpt lat="44.13816" lon="4.53225">
        <ele>208.2</ele>
        <time>2019-06-01T08:00:48Z</time>
      </trkpt>
      <trkpt lat="44.13819" lon="4.53224">
        <ele>208.6</ele>
        <time>2019-06-01T08:00:49Z</time>
      </trkpt>
      <trkpt lat="44.13822" lon="4.53223">
        <ele>208.8</ele>
        <time>2019-06-01T08:00:50Z</time>
      </trkpt>
      <trkpt lat="44.13825" lon="4.53224">
        <ele>209</ele>
        <time>2019-06-01T08:00:51Z</time>
      </trkpt>
      <trkpt lat="44.13829" lon="4.53226">
        <ele>209.3</ele>
        <time>2019-06-01T08:00:52Z</time>
      </trkpt>
      <trkpt lat="44.13832" lon="4.53228">
        <ele>209.5</ele>
        <time>2019-06-01T08:00:53Z</time>
      </trkpt>
      <trkpt lat="44.13836" lon="4.53232">
        <ele>209.8</ele>
        <time>2019-06-01T08:00:54Z</time>
      </trkpt>
      <trkpt lat="44.1384" lon="4.53234">
        <ele>210.1</ele>
        <time>2019-06-01T08:00:55Z</time>
      </trkpt>
      <trkpt lat="44.13843" lon="4.53236">
        <ele>210.4</ele>
        <time>2019-06-01T08:00:56Z</time>
      </trkpt>
      <trkpt lat="44.13847" lon="4.53238">
        <ele>210.8</ele>
        <time>2019-06-01T08:00:57Z</time>
      </trkpt>
      <trkpt lat="44.13851" lon="4.53241">
        <ele>211.1</ele>
        <time>2019-06-01T08:00:58Z</time>
      </trkpt>
      <trkpt lat="44.13855" lon="4.53243">
        <ele>211.4</ele>
        <time>2019-06-01T08:00:59Z</time>
      </trkpt>
      <trkpt lat="44.13858" lon="4.53246">
        <ele>211.6</ele>
        <time>2019-06-01T08:01:00Z</time>
      </trkpt>
      <trkpt lat="44.13862" lon="4.53248">
        <ele>211.9</ele>
        <time>2019-06-01T08:01:01Z</time>
      </trkpt>
      <trkpt lat="44.13865" lon="4.53251">
        <ele>212.1</ele>
        <time>2019-06-01T08:01:02Z</time>
      </trkpt>
      <trkpt lat="44.13869" lon="4.53253">
        <ele>212.3</ele>
        <time>2019-06-01T08:01:03Z</time>
      </trkpt>
      <trkpt lat="44.13872" lon="4.53255">
        <ele>212.5</ele>
        <time>2019-06-01T08:01:04Z</time>
      </trkpt>
      <trkpt lat="44.13875" lon="4.53256">
        <ele>212.5</ele>
        <time>2019-06-01T08:01:05Z</time>
      </trkpt>
      <trkpt lat="44.13879" lon="4.53258">
        <ele>212.5</ele>
        <time>2019-06-01T08:01:06Z</time>
      </trkpt>
      <trkpt lat="44.13882" lon="4.5326">
        <ele>212.6</ele>
        <time>2019-06-01T08:01:07Z</time>
      </trkpt>
      <trkpt lat="44.13885" lon="4.53261">
        <ele>212.7</ele>
        <time>2019-06-01T08:01:08Z</time>
      </trkpt>
      <trkpt lat="44.13889" lon="4.53262">
        <ele>212.7</ele>
        <time>2019-06-01T08:01:10Z</time>
      </trkpt>
      <trkpt lat="44.13895" lon="4.5326">
        <ele>212.7</ele>
        <time>2019-06-01T08:01:12Z</time>
      </trkpt>
      <trkpt lat="44.13897" lon="4.53258">
        <ele>212.8</ele>
        <time>2019-06-01T08:01:13Z</time>
      </trkpt>
      <trkpt lat="44.139" lon="4.53257">
        <ele>212.8</ele>
        <time>2019-06-01T08:01:14Z</time>
      </trkpt>
      <trkpt lat="44.13905" lon="4.53255">
        <ele>212.8</ele>
        <time>2019-06-01T08:01:16Z</time>
      </trkpt>
      <trkpt lat="44.13909" lon="4.53254">
        <ele>212.8</ele>
        <time>2019-06-01T08:01:18Z</time>
      </trkpt>
      <trkpt lat="44.13912" lon="4.53253">
        <ele>212.9</ele>
        <time>2019-06-01T08:01:22Z</time>
      </trkpt>
      <trkpt lat="44.13909" lon="4.53249">
        <ele>212.9</ele>
        <time>2019-06-01T08:01:27Z</time>
      </trkpt>
      <trkpt lat="44.13905" lon="4.53252">
        <ele>212.9</ele>
        <time>2019-06-01T08:01:29Z</time>
      </trkpt>
      <trkpt lat="44.13902" lon="4.53252">
        <ele>212.9</ele>
        <time>2019-06-01T08:01:30Z</time>
      </trkpt>
      <trkpt lat="44.13899" lon="4.53253">
        <ele>213</ele>
        <time>2019-06-01T08:01:31Z</time>
      </trkpt>
      <trkpt lat="44.13896" lon="4.53253">
        <ele>213</ele>
        <time>2019-06-01T08:01:32Z</time>
      </trkpt>
      <trkpt lat="44.13891" lon="4.53254">
        <ele>213</ele>
        <time>2019-06-01T08:01:34Z</time>
      </trkpt>
      <trkpt lat="44.13889" lon="4.53254">
        <ele>213</ele>
        <time>2019-06-01T08:01:36Z</time>
      </trkpt>
      <trkpt lat="44.13885" lon="4.53256">
        <ele>213.1</ele>
        <time>2019-06-01T08:01:38Z</time>
      </trkpt>
      <trkpt lat="44.13882" lon="4.53259">
        <ele>213.1</ele>
        <time>2019-06-01T08:01:40Z</time>
      </trkpt>
      <trkpt lat="44.13885" lon="4.53258">
        <ele>213.1</ele>
        <time>2019-06-01T08:01:50Z</time>
      </trkpt>
      <trkpt lat="44.13888" lon="4.53259">
        <ele>213.1</ele>
        <time>2019-06-01T08:01:52Z</time>
      </trkpt>
      <trkpt lat="44.13891" lon="4.5326">
        <ele>213.2</ele>
        <time>2019-06-01T08:01:54Z</time>
      </trkpt>
      <trkpt lat="44.13894" lon="4.53259">
        <ele>213.2</ele>
        <time>2019-06-01T08:01:56Z</time>
      </trkpt>
      <trkpt lat="44.13898" lon="4.53258">
        <ele>213.2</ele>
        <time>2019-06-01T08:01:58Z</time>
      </trkpt>
      <trkpt lat="44.13901" lon="4.53256">
        <ele>213.2</ele>
        <time>2019-06-01T08:02:00Z</time>
      </trkpt>
      <trkpt lat="44.13905" lon="4.53254">
        <ele>213.3</ele>
        <time>2019-06-01T08:02:02Z</time>
      </trkpt>
      <trkpt lat="44.13909" lon="4.53254">
        <ele>213.3</ele>
        <time>2019-06-01T08:02:04Z</time>
      </trkpt>
      <trkpt lat="44.13913" lon="4.53254">
        <ele>213.3</ele>
        <time>2019-06-01T08:02:06Z</time>
      </trkpt>
      <trkpt lat="44.13915" lon="4.53258">
        <ele>213.4</ele>
        <time>2019-06-01T08:02:08Z</time>
      </trkpt>
      <trkpt lat="44.13916" lon="4.53262">
        <ele>213.4</ele>
        <time>2019-06-01T08:02:10Z</time>
      </trkpt>
      <trkpt lat="44.13914" lon="4.53266">
        <ele>213.4</ele>
        <time>2019-06-01T08:02:12Z</time>
      </trkpt>
      <trkpt lat="44.13914" lon="4.5327">
        <ele>213.4</ele>
        <time>2019-06-01T08:02:15Z</time>
      </trkpt>
      <trkpt lat="44.13911" lon="4.53265">
        <ele>213.5</ele>
        <time>2019-06-01T08:02:18Z</time>
      </trkpt>
      <trkpt lat="44.1391" lon="4.5326">
        <ele>213.5</ele>
        <time>2019-06-01T08:02:19Z</time>
      </trkpt>
      <trkpt lat="44.1391" lon="4.53255">
        <ele>213.5</ele>
        <time>2019-06-01T08:02:20Z</time>
      </trkpt>
      <trkpt lat="44.13911" lon="4.53249">
        <ele>213.6</ele>
        <time>2019-06-01T08:02:21Z</time>
      </trkpt>
      <trkpt lat="44.13912" lon="4.53243">
        <ele>213.6</ele>
        <time>2019-06-01T08:02:22Z</time>
      </trkpt>
      <trkpt lat="44.13912" lon="4.53238">
        <ele>213.6</ele>
        <time>2019-06-01T08:02:23Z</time>
      </trkpt>
      <trkpt lat="44.13913" lon="4.53234">
        <ele>213.5</ele>
        <time>2019-06-01T08:02:24Z</time>
      </trkpt>
      <trkpt lat="44.13912" lon="4.53226">
        <ele>213.3</ele>
        <time>2019-06-01T08:02:26Z</time>
      </trkpt>
      <trkpt lat="44.13912" lon="4.53222">
        <ele>213.2</ele>
        <time>2019-06-01T08:02:27Z</time>
      </trkpt>
      <trkpt lat="44.13911" lon="4.53217">
        <ele>213.1</ele>
        <time>2019-06-01T08:02:28Z</time>
      </trkpt>
      <trkpt lat="44.13911" lon="4.53213">
        <ele>213</ele>
        <time>2019-06-01T08:02:29Z</time>
      </trkpt>
      <trkpt lat="44.13911" lon="4.53209">
        <ele>212.8</ele>
        <time>2019-06-01T08:02:30Z</time>
      </trkpt>
      <trkpt lat="44.13912" lon="4.53204">
        <ele>212.6</ele>
        <time>2019-06-01T08:02:31Z</time>
      </trkpt>
      <trkpt lat="44.13913" lon="4.53199">
        <ele>212.5</ele>
        <time>2019-06-01T08:02:32Z</time>
      </trkpt>
      <trkpt lat="44.13914" lon="4.53194">
        <ele>212.3</ele>
        <time>2019-06-01T08:02:33Z</time>
      </trkpt>
      <trkpt lat="44.13915" lon="4.5319">
        <ele>212.3</ele>
        <time>2019-06-01T08:02:34Z</time>
      </trkpt>
      <trkpt lat="44.13918" lon="4.53186">
        <ele>212.1</ele>
        <time>2019-06-01T08:02:36Z</time>
      </trkpt>
      <trkpt lat="44.13923" lon="4.53185">
        <ele>212.1</ele>
        <time>2019-06-01T08:02:38Z</time>
      </trkpt>
      <trkpt lat="44.13927" lon="4.53186">
        <ele>212.2</ele>
        <time>2019-06-01T08:02:39Z</time>
      </trkpt>
      <trkpt lat="44.13931" lon="4.53186">
        <ele>212.4</ele>
        <time>2019-06-01T08:02:40Z</time>
      </trkpt>
      <trkpt lat="44.13935" lon="4.53186">
        <ele>212.4</ele>
        <time>2019-06-01T08:02:41Z</time>
      </trkpt>
      <trkpt lat="44.13938" lon="4.53185">
        <ele>212.3</ele>
        <time>2019-06-01T08:02:42Z</time>
      </trkpt>
      <trkpt lat="44.13941" lon="4.53182">
        <ele>212.3</ele>
        <time>2019-06-01T08:02:43Z</time>
      </trkpt>
      <trkpt lat="44.13945" lon="4.53179">
        <ele>212.3</ele>
        <time>2019-06-01T08:02:44Z</time>
      </trkpt>
      <trkpt lat="44.13948" lon="4.53176">
        <ele>212.3</ele>
        <time>2019-06-01T08:02:45Z</time>
      </trkpt>
      <trkpt lat="44.13951" lon="4.53174">
        <ele>212.3</ele>
        <time>2019-06-01T08:02:46Z</time>
      </trkpt>
      <trkpt lat="44.13955" lon="4.53173">
        <ele>212.3</ele>
        <time>2019-06-01T08:02:47Z</time>
      </trkpt>
      <trkpt lat="44.13959" lon="4.53173">
        <ele>212.2</ele>
        <time>2019-06-01T08:02:48Z</time>
      </trkpt>
      <trkpt lat="44.13963" lon="4.53173">
        <ele>212.2</ele>
        <time>2019-06-01T08:02:49Z</time>
      </trkpt>
      <trkpt lat="44.13967" lon="4.53174">
        <ele>212.2</ele>
        <time>2019-06-01T08:02:50Z</time>
      </trkpt>
      <trkpt lat="44.13972" lon="4.53175">
        <ele>212.2</ele>
        <time>2019-06-01T08:02:51Z</time>
      </trkpt>
      <trkpt lat="44.13976" lon="4.53176">
        <ele>212.1</ele>
        <time>2019-06-01T08:02:52Z</time>
      </trkpt>
      <trkpt lat="44.1398" lon="4.53178">
        <ele>212.1</ele>
        <time>2019-06-01T08:02:53Z</time>
      </trkpt>
      <trkpt lat="44.13984" lon="4.5318">
        <ele>212.1</ele>
        <time>2019-06-01T08:02:54Z</time>
      </trkpt>
      <trkpt lat="44.13988" lon="4.53182">
        <ele>212.2</ele>
        <time>2019-06-01T08:02:55Z</time>
      </trkpt>
      <trkpt lat="44.13992" lon="4.53185">
        <ele>212.3</ele>
        <time>2019-06-01T08:02:56Z</time>
      </trkpt>
      <trkpt lat="44.13996" lon="4.53188">
        <ele>212.4</ele>
        <time>2019-06-01T08:02:57Z</time>
      </trkpt>
      <trkpt lat="44.14" lon="4.5319">
        <ele>212.5</ele>
        <time>2019-06-01T08:02:58Z</time>
      </trkpt>
      <trkpt lat="44.14004" lon="4.53192">
        <ele>212.6</ele>
        <time>2019-06-01T08:02:59Z</time>
      </trkpt>
      <trkpt lat="44.14008" lon="4.53194">
        <ele>212.8</ele>
        <time>2019-06-01T08:03:00Z</time>
      </trkpt>
      <trkpt lat="44.14012" lon="4.53196">
        <ele>213.1</ele>
        <time>2019-06-01T08:03:01Z</time>
      </trkpt>
      <trkpt lat="44.14017" lon="4.53197">
        <ele>213.3</ele>
        <time>2019-06-01T08:03:02Z</time>
      </trkpt>
      <trkpt lat="44.14021" lon="4.53198">
        <ele>213.5</ele>
        <time>2019-06-01T08:03:03Z</time>
      </trkpt>
      <trkpt lat="44.14025" lon="4.53199">
        <ele>213.7</ele>
        <time>2019-06-01T08:03:04Z</time>
      </trkpt>
      <trkpt lat="44.14029" lon="4.532">
        <ele>213.8</ele>
        <time>2019-06-01T08:03:05Z</time>
      </trkpt>
      <trkpt lat="44.14033" lon="4.53201">
        <ele>213.9</ele>
        <time>2019-06-01T08:03:06Z</time>
      </trkpt>
      <trkpt lat="44.14038" lon="4.53202">
        <ele>214</ele>
        <time>2019-06-01T08:03:07Z</time>
      </trkpt>
      <trkpt lat="44.14042" lon="4.53202">
        <ele>214.1</ele>
        <time>2019-06-01T08:03:08Z</time>
      </trkpt>
      <trkpt lat="44.14046" lon="4.53203">
        <ele>214.2</ele>
        <time>2019-06-01T08:03:09Z</time>
      </trkpt>
      <trkpt lat="44.1405" lon="4.53202">
        <ele>214.2</ele>
        <time>2019-06-01T08:03:10Z</time>
      </trkpt>
      <trkpt lat="44.14054" lon="4.53201">
        <ele>214.3</ele>
        <time>2019-06-01T08:03:11Z</time>
      </trkpt>
      <trkpt lat="44.14059" lon="4.532">
        <ele>214.3</ele>
        <time>2019-06-01T08:03:12Z</time>
      </trkpt>
      <trkpt lat="44.14063" lon="4.53199">
        <ele>214.4</ele>
        <time>2019-06-01T08:03:13Z</time>
      </trkpt>
      <trkpt lat="44.14067" lon="4.53197">
        <ele>214.4</ele>
        <time>2019-06-01T08:03:14Z</time>
      </trkpt>
      <trkpt lat="44.14071" lon="4.53196">
        <ele>214.5</ele>
        <time>2019-06-01T08:03:15Z</time>
      </trkpt>
      <trkpt lat="44.14075" lon="4.53196">
        <ele>214.5</ele>
        <time>2019-06-01T08:03:16Z</time>
      </trkpt>
      <trkpt lat="44.14079" lon="4.53195">
        <ele>214.6</ele>
        <time>2019-06-01T08:03:17Z</time>
      </trkpt>
      <trkpt lat="44.14083" lon="4.53195">
        <ele>214.6</ele>
        <time>2019-06-01T08:03:18Z</time>
      </trkpt>
      <trkpt lat="44.14087" lon="4.53195">
        <ele>214.7</ele>
        <time>2019-06-01T08:03:19Z</time>
      </trkpt>
      <trkpt lat="44.14091" lon="4.53194">
        <ele>214.7</ele>
        <time>2019-06-01T08:03:20Z</time>
      </trkpt>
      <trkpt lat="44.14095" lon="4.53194">
        <ele>214.8</ele>
        <time>2019-06-01T08:03:21Z</time>
      </trkpt>
      <trkpt lat="44.14099" lon="4.53193">
        <ele>214.8</ele>
        <time>2019-06-01T08:03:22Z</time>
      </trkpt>
      <trkpt lat="44.14103" lon="4.53193">
        <ele>214.9</ele>
        <time>2019-06-01T08:03:23Z</time>
      </trkpt>
      <trkpt lat="44.14107" lon="4.53192">
        <ele>215</ele>
        <time>2019-06-01T08:03:24Z</time>
      </trkpt>
      <trkpt lat="44.1411" lon="4.53191">
        <ele>215.1</ele>
        <time>2019-06-01T08:03:25Z</time>
      </trkpt>
      <trkpt lat="44.14114" lon="4.5319">
        <ele>215.1</ele>
        <time>2019-06-01T08:03:26Z</time>
      </trkpt>
      <trkpt lat="44.14118" lon="4.5319">
        <ele>215.2</ele>
        <time>2019-06-01T08:03:27Z</time>
      </trkpt>
      <trkpt lat="44.14121" lon="4.53189">
        <ele>215.3</ele>
        <time>2019-06-01T08:03:28Z</time>
      </trkpt>
      <trkpt lat="44.14125" lon="4.53188">
        <ele>215.4</ele>
        <time>2019-06-01T08:03:29Z</time>
      </trkpt>
      <trkpt lat="44.14128" lon="4.53188">
        <ele>215.5</ele>
        <time>2019-06-01T08:03:30Z</time>
      </trkpt>
      <trkpt lat="44.14132" lon="4.53188">
        <ele>215.7</ele>
        <time>2019-06-01T08:03:31Z</time>
      </trkpt>
      <trkpt lat="44.14135" lon="4.53188">
        <ele>215.9</ele>
        <time>2019-06-01T08:03:32Z</time>
      </trkpt>
      <trkpt lat="44.14138" lon="4.53188">
        <ele>216.1</ele>
        <time>2019-06-01T08:03:33Z</time>
      </trkpt>
      <trkpt lat="44.14141" lon="4.53188">
        <ele>216.4</ele>
        <time>2019-06-01T08:03:34Z</time>
      </trkpt>
      <trkpt lat="44.14145" lon="4.53188">
        <ele>216.5</ele>
        <time>2019-06-01T08:03:35Z</time>
      </trkpt>
      <trkpt lat="44.14148" lon="4.53187">
        <ele>216.7</ele>
        <time>2019-06-01T08:03:36Z</time>
      </trkpt>
      <trkpt lat="44.14152" lon="4.53187">
        <ele>216.9</ele>
        <time>2019-06-01T08:03:37Z</time>
      </trkpt>
      <trkpt lat="44.14155" lon="4.53187">
        <ele>217</ele>
        <time>2019-06-01T08:03:38Z</time>
      </trkpt>
      <trkpt lat="44.14159" lon="4.53187">
        <ele>217.2</ele>
        <time>2019-06-01T08:03:39Z</time>
      </trkpt>
      <trkpt lat="44.14162" lon="4.53186">
        <ele>217.3</ele>
        <time>2019-06-01T08:03:40Z</time>
      </trkpt>
      <trkpt lat="44.14165" lon="4.53185">
        <ele>217.6</ele>
        <time>2019-06-01T08:03:41Z</time>
      </trkpt>
      <trkpt lat="44.14168" lon="4.53184">
        <ele>217.9</ele>
        <time>2019-06-01T08:03:42Z</time>
      </trkpt>
      <trkpt lat="44.14171" lon="4.53183">
        <ele>218.2</ele>
        <time>2019-06-01T08:03:43Z</time>
      </trkpt>
      <trkpt lat="44.14174" lon="4.53183">
        <ele>218.5</ele>
        <time>2019-06-01T08:03:44Z</time>
      </trkpt>
      <trkpt lat="44.14178" lon="4.53182">
        <ele>218.7</ele>
        <time>2019-06-01T08:03:45Z</time>
      </trkpt>
      <trkpt lat="44.1418" lon="4.53182">
        <ele>218.9</ele>
        <time>2019-06-01T08:03:46Z</time>
      </trkpt>
      <trkpt lat="44.14185" lon="4.53182">
        <ele>219.3</ele>
        <time>2019-06-01T08:03:48Z</time>
      </trkpt>
      <trkpt lat="44.1419" lon="4.53181">
        <ele>220.4</ele>
        <time>2019-06-01T08:03:50Z</time>
      </trkpt>
      <trkpt lat="44.14195" lon="4.53181">
        <ele>220.6</ele>
        <time>2019-06-01T08:03:52Z</time>
      </trkpt>
      <trkpt lat="44.14198" lon="4.53181">
        <ele>220.7</ele>
        <time>2019-06-01T08:03:53Z</time>
      </trkpt>
      <trkpt lat="44.14201" lon="4.53181">
        <ele>220.8</ele>
        <time>2019-06-01T08:03:54Z</time>
      </trkpt>
      <trkpt lat="44.14205" lon="4.5318">
        <ele>220.9</ele>
        <time>2019-06-01T08:03:55Z</time>
      </trkpt>
      <trkpt lat="44.14208" lon="4.53178">
        <ele>221</ele>
        <time>2019-06-01T08:03:56Z</time>
      </trkpt>
      <trkpt lat="44.14211" lon="4.53174">
        <ele>221.2</ele>
        <time>2019-06-01T08:03:57Z</time>
      </trkpt>
      <trkpt lat="44.14214" lon="4.5317">
        <ele>221.3</ele>
        <time>2019-06-01T08:03:58Z</time>
      </trkpt>
      <trkpt lat="44.14216" lon="4.53166">
        <ele>221.5</ele>
        <time>2019-06-01T08:03:59Z</time>
      </trkpt>
      <trkpt lat="44.14217" lon="4.53161">
        <ele>221.6</ele>
        <time>2019-06-01T08:04:00Z</time>
      </trkpt>
      <trkpt lat="44.14218" lon="4.53157">
        <ele>221.8</ele>
        <time>2019-06-01T08:04:01Z</time>
      </trkpt>
      <trkpt lat="44.14218" lon="4.53152">
        <ele>221.9</ele>
        <time>2019-06-01T08:04:02Z</time>
      </trkpt>
      <trkpt lat="44.14219" lon="4.53146">
        <ele>222.1</ele>
        <time>2019-06-01T08:04:04Z</time>
      </trkpt>
      <trkpt lat="44.14222" lon="4.53141">
        <ele>222.4</ele>
        <time>2019-06-01T08:04:06Z</time>
      </trkpt>
      <trkpt lat="44.14226" lon="4.5314">
        <ele>222.7</ele>
        <time>2019-06-01T08:04:08Z</time>
      </trkpt>
      <trkpt lat="44.14231" lon="4.53142">
        <ele>223</ele>
        <time>2019-06-01T08:04:10Z</time>
      </trkpt>
      <trkpt lat="44.14235" lon="4.53146">
        <ele>223.3</ele>
        <time>2019-06-01T08:04:12Z</time>
      </trkpt>
      <trkpt lat="44.14237" lon="4.53149">
        <ele>223.6</ele>
        <time>2019-06-01T08:04:14Z</time>
      </trkpt>
      <trkpt lat="44.14238" lon="4.53153">
        <ele>223.8</ele>
        <time>2019-06-01T08:04:16Z</time>
      </trkpt>
      <trkpt lat="44.14239" lon="4.53159">
        <ele>224.2</ele>
        <time>2019-06-01T08:04:18Z</time>
      </trkpt>
      <trkpt lat="44.14241" lon="4.53164">
        <ele>224.5</ele>
        <time>2019-06-01T08:04:20Z</time>
      </trkpt>
      <trkpt lat="44.14243" lon="4.53169">
        <ele>226.9</ele>
        <time>2019-06-01T08:04:22Z</time>
      </trkpt>
      <trkpt lat="44.14243" lon="4.53173">
        <ele>227.1</ele>
        <time>2019-06-01T08:04:24Z</time>
      </trkpt>
      <trkpt lat="44.1424" lon="4.53177">
        <ele>227.3</ele>
        <time>2019-06-01T08:04:27Z</time>
      </trkpt>
      <trkpt lat="44.14237" lon="4.53181">
        <ele>227.5</ele>
        <time>2019-06-01T08:04:30Z</time>
      </trkpt>
      <trkpt lat="44.14235" lon="4.53185">
        <ele>227.7</ele>
        <time>2019-06-01T08:04:33Z</time>
      </trkpt>
      <trkpt lat="44.14234" lon="4.53189">
        <ele>227.9</ele>
        <time>2019-06-01T08:04:35Z</time>
      </trkpt>
      <trkpt lat="44.14235" lon="4.53193">
        <ele>228.2</ele>
        <time>2019-06-01T08:04:37Z</time>
      </trkpt>
      <trkpt lat="44.14235" lon="4.53198">
        <ele>228.5</ele>
        <time>2019-06-01T08:04:39Z</time>
      </trkpt>
      <trkpt lat="44.14235" lon="4.53202">
        <ele>228.8</ele>
        <time>2019-06-01T08:04:42Z</time>
      </trkpt>
      <trkpt lat="44.14236" lon="4.53207">
        <ele>229.1</ele>
        <time>2019-06-01T08:04:44Z</time>
      </trkpt>
      <trkpt lat="44.14238" lon="4.53211">
        <ele>229.3</ele>
        <time>2019-06-01T08:04:46Z</time>
      </trkpt>
      <trkpt lat="44.14239" lon="4.53216">
        <ele>229.6</ele>
        <time>2019-06-01T08:04:48Z</time>
      </trkpt>
      <trkpt lat="44.14241" lon="4.53222">
        <ele>229.8</ele>
        <time>2019-06-01T08:04:50Z</time>
      </trkpt>
      <trkpt lat="44.14242" lon="4.53227">
        <ele>230</ele>
        <time>2019-06-01T08:04:52Z</time>
      </trkpt>
      <trkpt lat="44.14243" lon="4.53233">
        <ele>230.2</ele>
        <time>2019-06-01T08:04:54Z</time>
      </trkpt>
      <trkpt lat="44.14244" lon="4.5324">
        <ele>230.4</ele>
        <time>2019-06-01T08:04:56Z</time>
      </trkpt>
      <trkpt lat="44.14244" lon="4.53245">
        <ele>230.5</ele>
        <time>2019-06-01T08:04:58Z</time>
      </trkpt>
      <trkpt lat="44.14245" lon="4.53251">
        <ele>230.7</ele>
        <time>2019-06-01T08:05:00Z</time>
      </trkpt>
      <trkpt lat="44.14246" lon="4.53255">
        <ele>230.9</ele>
        <time>2019-06-01T08:05:02Z</time>
      </trkpt>
      <trkpt lat="44.14246" lon="4.53261">
        <ele>231.2</ele>
        <time>2019-06-01T08:05:04Z</time>
      </trkpt>
      <trkpt lat="44.14247" lon="4.53267">
        <ele>231.4</ele>
        <time>2019-06-01T08:05:06Z</time>
      </trkpt>
      <trkpt lat="44.14248" lon="4.53272">
        <ele>231.5</ele>
        <time>2019-06-01T08:05:08Z</time>
      </trkpt>
      <trkpt lat="44.14247" lon="4.53277">
        <ele>231.7</ele>
        <time>2019-06-01T08:05:10Z</time>
      </trkpt>
      <trkpt lat="44.14247" lon="4.53282">
        <ele>231.9</ele>
        <time>2019-06-01T08:05:12Z</time>
      </trkpt>
      <trkpt lat="44.14246" lon="4.53288">
        <ele>232.1</ele>
        <time>2019-06-01T08:05:14Z</time>
      </trkpt>
      <trkpt lat="44.14246" lon="4.53292">
        <ele>232.2</ele>
        <time>2019-06-01T08:05:15Z</time>
      </trkpt>
      <trkpt lat="44.14247" lon="4.53297">
        <ele>232.3</ele>
        <time>2019-06-01T08:05:17Z</time>
      </trkpt>
      <trkpt lat="44.14247" lon="4.53302">
        <ele>232.4</ele>
        <time>2019-06-01T08:05:19Z</time>
      </trkpt>
      <trkpt lat="44.14248" lon="4.53308">
        <ele>232.6</ele>
        <time>2019-06-01T08:05:21Z</time>
      </trkpt>
      <trkpt lat="44.14248" lon="4.53311">
        <ele>232.7</ele>
        <time>2019-06-01T08:05:22Z</time>
      </trkpt>
      <trkpt lat="44.14248" lon="4.53315">
        <ele>232.7</ele>
        <time>2019-06-01T08:05:23Z</time>
      </trkpt>
      <trkpt lat="44.14247" lon="4.53323">
        <ele>232.8</ele>
        <time>2019-06-01T08:05:25Z</time>
      </trkpt>
      <trkpt lat="44.14247" lon="4.53331">
        <ele>232.9</ele>
        <time>2019-06-01T08:05:27Z</time>
      </trkpt>
      <trkpt lat="44.14247" lon="4.53336">
        <ele>232.9</ele>
        <time>2019-06-01T08:05:28Z</time>
      </trkpt>
      <trkpt lat="44.14246" lon="4.53341">
        <ele>232.9</ele>
        <time>2019-06-01T08:05:29Z</time>
      </trkpt>
      <trkpt lat="44.14246" lon="4.53346">
        <ele>232.9</ele>
        <time>2019-06-01T08:05:30Z</time>
      </trkpt>
      <trkpt lat="44.14246" lon="4.53351">
        <ele>232.9</ele>
        <time>2019-06-01T08:05:31Z</time>
      </trkpt>
      <trkpt lat="44.14246" lon="4.53359">
        <ele>232.9</ele>
        <time>2019-06-01T08:05:33Z</time>
      </trkpt>
      <trkpt lat="44.14246" lon="4.53363">
        <ele>232.9</ele>
        <time>2019-06-01T08:05:34Z</time>
      </trkpt>
      <trkpt lat="44.14245" lon="4.53368">
        <ele>232.8</ele>
        <time>2019-06-01T08:05:35Z</time>
      </trkpt>
      <trkpt lat="44.14246" lon="4.53375">
        <ele>232.8</ele>
        <time>2019-06-01T08:05:36Z</time>
      </trkpt>
      <trkpt lat="44.14246" lon="4.5338">
        <ele>232.7</ele>
        <time>2019-06-01T08:05:37Z</time>
      </trkpt>
      <trkpt lat="44.14246" lon="4.53386">
        <ele>232.7</ele>
        <time>2019-06-01T08:05:38Z</time>
      </trkpt>
      <trkpt lat="44.14247" lon="4.53392">
        <ele>232.6</ele>
        <time>2019-06-01T08:05:39Z</time>
      </trkpt>
      <trkpt lat="44.14247" lon="4.53398">
        <ele>232.4</ele>
        <time>2019-06-01T08:05:40Z</time>
      </trkpt>
      <trkpt lat="44.14247" lon="4.53404">
        <ele>232.3</ele>
        <time>2019-06-01T08:05:41Z</time>
      </trkpt>
      <trkpt lat="44.14247" lon="4.5341">
        <ele>232.1</ele>
        <time>2019-06-01T08:05:42Z</time>
      </trkpt>
      <trkpt lat="44.14246" lon="4.53415">
        <ele>231.9</ele>
        <time>2019-06-01T08:05:43Z</time>
      </trkpt>
      <trkpt lat="44.14244" lon="4.53421">
        <ele>231.7</ele>
        <time>2019-06-01T08:05:44Z</time>
      </trkpt>
      <trkpt lat="44.14243" lon="4.53427">
        <ele>231.4</ele>
        <time>2019-06-01T08:05:45Z</time>
      </trkpt>
      <trkpt lat="44.14243" lon="4.53434">
        <ele>231.1</ele>
        <time>2019-06-01T08:05:46Z</time>
      </trkpt>
      <trkpt lat="44.14243" lon="4.5344">
        <ele>232.6</ele>
        <time>2019-06-01T08:05:47Z</time>
      </trkpt>
      <trkpt lat="44.14242" lon="4.53446">
        <ele>233</ele>
        <time>2019-06-01T08:05:48Z</time>
      </trkpt>
      <trkpt lat="44.14243" lon="4.53452">
        <ele>233.4</ele>
        <time>2019-06-01T08:05:49Z</time>
      </trkpt>
      <trkpt lat="44.14244" lon="4.53459">
        <ele>233.8</ele>
        <time>2019-06-01T08:05:50Z</time>
      </trkpt>
      <trkpt lat="44.14245" lon="4.53466">
        <ele>234.2</ele>
        <time>2019-06-01T08:05:51Z</time>
      </trkpt>
      <trkpt lat="44.14247" lon="4.53471">
        <ele>234.5</ele>
        <time>2019-06-01T08:05:52Z</time>
      </trkpt>
      <trkpt lat="44.14249" lon="4.53474">
        <ele>234.8</ele>
        <time>2019-06-01T08:05:53Z</time>
      </trkpt>
      <trkpt lat="44.14252" lon="4.53476">
        <ele>235.1</ele>
        <time>2019-06-01T08:05:55Z</time>
      </trkpt>
      <trkpt lat="44.14256" lon="4.53475">
        <ele>235.4</ele>
        <time>2019-06-01T08:05:57Z</time>
      </trkpt>
      <trkpt lat="44.14259" lon="4.53473">
        <ele>235.8</ele>
        <time>2019-06-01T08:05:59Z</time>
      </trkpt>
      <trkpt lat="44.14262" lon="4.53473">
        <ele>236.2</ele>
        <time>2019-06-01T08:06:02Z</time>
      </trkpt>
      <trkpt lat="44.14265" lon="4.53474">
        <ele>236.5</ele>
        <time>2019-06-01T08:06:04Z</time>
      </trkpt>
      <trkpt lat="44.1427" lon="4.53475">
        <ele>237.1</ele>
        <time>2019-06-01T08:06:06Z</time>
      </trkpt>
      <trkpt lat="44.14274" lon="4.53477">
        <ele>237.7</ele>
        <time>2019-06-01T08:06:08Z</time>
      </trkpt>
      <trkpt lat="44.14278" lon="4.53482">
        <ele>238.3</ele>
        <time>2019-06-01T08:06:10Z</time>
      </trkpt>
      <trkpt lat="44.1428" lon="4.53485">
        <ele>238.6</ele>
        <time>2019-06-01T08:06:11Z</time>
      </trkpt>
      <trkpt lat="44.14283" lon="4.5349">
        <ele>239</ele>
        <time>2019-06-01T08:06:13Z</time>
      </trkpt>
      <trkpt lat="44.14285" lon="4.53495">
        <ele>239.3</ele>
        <time>2019-06-01T08:06:15Z</time>
      </trkpt>
      <trkpt lat="44.14289" lon="4.53499">
        <ele>239.6</ele>
        <time>2019-06-01T08:06:17Z</time>
      </trkpt>
      <trkpt lat="44.14292" lon="4.53499">
        <ele>239.7</ele>
        <time>2019-06-01T08:06:18Z</time>
      </trkpt>
      <trkpt lat="44.14297" lon="4.53501">
        <ele>240</ele>
        <time>2019-06-01T08:06:20Z</time>
      </trkpt>
      <trkpt lat="44.143" lon="4.53502">
        <ele>240</ele>
        <time>2019-06-01T08:06:21Z</time>
      </trkpt>
      <trkpt lat="44.14302" lon="4.53502">
        <ele>240.1</ele>
        <time>2019-06-01T08:06:22Z</time>
      </trkpt>
      <trkpt lat="44.14307" lon="4.53503">
        <ele>240.2</ele>
        <time>2019-06-01T08:06:24Z</time>
      </trkpt>
      <trkpt lat="44.14309" lon="4.53507">
        <ele>240.3</ele>
        <time>2019-06-01T08:06:27Z</time>
      </trkpt>
      <trkpt lat="44.14309" lon="4.53511">
        <ele>240.4</ele>
        <time>2019-06-01T08:06:30Z</time>
      </trkpt>
      <trkpt lat="44.14307" lon="4.53515">
        <ele>240.5</ele>
        <time>2019-06-01T08:06:32Z</time>
      </trkpt>
      <trkpt lat="44.14305" lon="4.5352">
        <ele>240.6</ele>
        <time>2019-06-01T08:06:34Z</time>
      </trkpt>
      <trkpt lat="44.14301" lon="4.53522">
        <ele>240.7</ele>
        <time>2019-06-01T08:06:36Z</time>
      </trkpt>
      <trkpt lat="44.14295" lon="4.53525">
        <ele>240.7</ele>
        <time>2019-06-01T08:06:38Z</time>
      </trkpt>
      <trkpt lat="44.14293" lon="4.53528">
        <ele>240.8</ele>
        <time>2019-06-01T08:06:39Z</time>
      </trkpt>
      <trkpt lat="44.1429" lon="4.53532">
        <ele>240.8</ele>
        <time>2019-06-01T08:06:40Z</time>
      </trkpt>
      <trkpt lat="44.14288" lon="4.53536">
        <ele>240.8</ele>
        <time>2019-06-01T08:06:41Z</time>
      </trkpt>
      <trkpt lat="44.14285" lon="4.53539">
        <ele>240.9</ele>
        <time>2019-06-01T08:06:42Z</time>
      </trkpt>
      <trkpt lat="44.14281" lon="4.53541">
        <ele>240.9</ele>
        <time>2019-06-01T08:06:43Z</time>
      </trkpt>
      <trkpt lat="44.14277" lon="4.53543">
        <ele>240.9</ele>
        <time>2019-06-01T08:06:44Z</time>
      </trkpt>
      <trkpt lat="44.1427" lon="4.53554">
        <ele>238.8</ele>
        <time>2019-06-01T08:06:45Z</time>
      </trkpt>
      <trkpt lat="44.14264" lon="4.53562">
        <ele>238.1</ele>
        <time>2019-06-01T08:06:46Z</time>
      </trkpt>
      <trkpt lat="44.1426" lon="4.53571">
        <ele>237.4</ele>
        <time>2019-06-01T08:06:47Z</time>
      </trkpt>
      <trkpt lat="44.14254" lon="4.53579">
        <ele>236.8</ele>
        <time>2019-06-01T08:06:48Z</time>
      </trkpt>
      <trkpt lat="44.1425" lon="4.53583">
        <ele>236.5</ele>
        <time>2019-06-01T08:06:49Z</time>
      </trkpt>
      <trkpt lat="44.14243" lon="4.53588">
        <ele>236.1</ele>
        <time>2019-06-01T08:06:50Z</time>
      </trkpt>
      <trkpt lat="44.14239" lon="4.53592">
        <ele>235.9</ele>
        <time>2019-06-01T08:06:51Z</time>
      </trkpt>
      <trkpt lat="44.14234" lon="4.53596">
        <ele>235.8</ele>
        <time>2019-06-01T08:06:52Z</time>
      </trkpt>
      <trkpt lat="44.14223" lon="4.53603">
        <ele>235.5</ele>
        <time>2019-06-01T08:06:53Z</time>
      </trkpt>
      <trkpt lat="44.14218" lon="4.53613">
        <ele>235.4</ele>
        <time>2019-06-01T08:06:54Z</time>
      </trkpt>
      <trkpt lat="44.14215" lon="4.53622">
        <ele>235.2</ele>
        <time>2019-06-01T08:06:55Z</time>
      </trkpt>
      <trkpt lat="44.14211" lon="4.53629">
        <ele>235.1</ele>
        <time>2019-06-01T08:06:56Z</time>
      </trkpt>
      <trkpt lat="44.14207" lon="4.53637">
        <ele>235</ele>
        <time>2019-06-01T08:06:57Z</time>
      </trkpt>
      <trkpt lat="44.14203" lon="4.53644">
        <ele>234.8</ele>
        <time>2019-06-01T08:06:58Z</time>
      </trkpt>
      <trkpt lat="44.142" lon="4.5365">
        <ele>234.7</ele>
        <time>2019-06-01T08:06:59Z</time>
      </trkpt>
      <trkpt lat="44.14196" lon="4.53657">
        <ele>234.6</ele>
        <time>2019-06-01T08:07:00Z</time>
      </trkpt>
      <trkpt lat="44.14191" lon="4.53663">
        <ele>234.5</ele>
        <time>2019-06-01T08:07:01Z</time>
      </trkpt>
      <trkpt lat="44.14186" lon="4.53668">
        <ele>234.4</ele>
        <time>2019-06-01T08:07:02Z</time>
      </trkpt>
      <trkpt lat="44.14181" lon="4.53673">
        <ele>234.3</ele>
        <time>2019-06-01T08:07:03Z</time>
      </trkpt>
      <trkpt lat="44.14177" lon="4.53675">
        <ele>234.3</ele>
        <time>2019-06-01T08:07:04Z</time>
      </trkpt>
      <trkpt lat="44.14172" lon="4.53677">
        <ele>234.3</ele>
        <time>2019-06-01T08:07:06Z</time>
      </trkpt>
      <trkpt lat="44.14169" lon="4.5368">
        <ele>234.3</ele>
        <time>2019-06-01T08:07:07Z</time>
      </trkpt>
      <trkpt lat="44.14166" lon="4.53683">
        <ele>234.3</ele>
        <time>2019-06-01T08:07:08Z</time>
      </trkpt>
      <trkpt lat="44.14162" lon="4.53686">
        <ele>234.3</ele>
        <time>2019-06-01T08:07:10Z</time>
      </trkpt>
      <trkpt lat="44.14158" lon="4.53689">
        <ele>234.3</ele>
        <time>2019-06-01T08:07:11Z</time>
      </trkpt>
      <trkpt lat="44.14155" lon="4.53691">
        <ele>234.4</ele>
        <time>2019-06-01T08:07:12Z</time>
      </trkpt>
      <trkpt lat="44.14149" lon="4.53696">
        <ele>234.4</ele>
        <time>2019-06-01T08:07:13Z</time>
      </trkpt>
      <trkpt lat="44.14145" lon="4.53697">
        <ele>234.5</ele>
        <time>2019-06-01T08:07:14Z</time>
      </trkpt>
      <trkpt lat="44.14142" lon="4.53698">
        <ele>234.6</ele>
        <time>2019-06-01T08:07:15Z</time>
      </trkpt>
      <trkpt lat="44.14138" lon="4.53699">
        <ele>234.7</ele>
        <time>2019-06-01T08:07:16Z</time>
      </trkpt>
      <trkpt lat="44.14135" lon="4.537">
        <ele>234.8</ele>
        <time>2019-06-01T08:07:17Z</time>
      </trkpt>
      <trkpt lat="44.14131" lon="4.53703">
        <ele>234.9</ele>
        <time>2019-06-01T08:07:18Z</time>
      </trkpt>
      <trkpt lat="44.14128" lon="4.53707">
        <ele>235.1</ele>
        <time>2019-06-01T08:07:20Z</time>
      </trkpt>
      <trkpt lat="44.14126" lon="4.53711">
        <ele>235.2</ele>
        <time>2019-06-01T08:07:21Z</time>
      </trkpt>
      <trkpt lat="44.14122" lon="4.53715">
        <ele>235.3</ele>
        <time>2019-06-01T08:07:22Z</time>
      </trkpt>
      <trkpt lat="44.14118" lon="4.53719">
        <ele>235.5</ele>
        <time>2019-06-01T08:07:23Z</time>
      </trkpt>
      <trkpt lat="44.14114" lon="4.53722">
        <ele>235.6</ele>
        <time>2019-06-01T08:07:24Z</time>
      </trkpt>
      <trkpt lat="44.1411" lon="4.53724">
        <ele>235.6</ele>
        <time>2019-06-01T08:07:25Z</time>
      </trkpt>
      <trkpt lat="44.14105" lon="4.53725">
        <ele>235.7</ele>
        <time>2019-06-01T08:07:26Z</time>
      </trkpt>
      <trkpt lat="44.14097" lon="4.53729">
        <ele>235.9</ele>
        <time>2019-06-01T08:07:27Z</time>
      </trkpt>
      <trkpt lat="44.14092" lon="4.53733">
        <ele>236</ele>
        <time>2019-06-01T08:07:28Z</time>
      </trkpt>
      <trkpt lat="44.14088" lon="4.53738">
        <ele>236</ele>
        <time>2019-06-01T08:07:29Z</time>
      </trkpt>
      <trkpt lat="44.14085" lon="4.53745">
        <ele>236.1</ele>
        <time>2019-06-01T08:07:30Z</time>
      </trkpt>
      <trkpt lat="44.14081" lon="4.5375">
        <ele>236.2</ele>
        <time>2019-06-01T08:07:31Z</time>
      </trkpt>
      <trkpt lat="44.14075" lon="4.53754">
        <ele>236.2</ele>
        <time>2019-06-01T08:07:32Z</time>
      </trkpt>
      <trkpt lat="44.14072" lon="4.53758">
        <ele>236.3</ele>
        <time>2019-06-01T08:07:33Z</time>
      </trkpt>
      <trkpt lat="44.14066" lon="4.5376">
        <ele>236.3</ele>
        <time>2019-06-01T08:07:34Z</time>
      </trkpt>
      <trkpt lat="44.14062" lon="4.53764">
        <ele>236.3</ele>
        <time>2019-06-01T08:07:35Z</time>
      </trkpt>
      <trkpt lat="44.14058" lon="4.53768">
        <ele>236.3</ele>
        <time>2019-06-01T08:07:36Z</time>
      </trkpt>
      <trkpt lat="44.14055" lon="4.53772">
        <ele>236.3</ele>
        <time>2019-06-01T08:07:37Z</time>
      </trkpt>
      <trkpt lat="44.1405" lon="4.53776">
        <ele>236.3</ele>
        <time>2019-06-01T08:07:38Z</time>
      </trkpt>
      <trkpt lat="44.14047" lon="4.53777">
        <ele>236.3</ele>
        <time>2019-06-01T08:07:39Z</time>
      </trkpt>
      <trkpt lat="44.14043" lon="4.53781">
        <ele>236.3</ele>
        <time>2019-06-01T08:07:40Z</time>
      </trkpt>
      <trkpt lat="44.14038" lon="4.53785">
        <ele>236.2</ele>
        <time>2019-06-01T08:07:41Z</time>
      </trkpt>
      <trkpt lat="44.14035" lon="4.53789">
        <ele>236.1</ele>
        <time>2019-06-01T08:07:42Z</time>
      </trkpt>
      <trkpt lat="44.14033" lon="4.53792">
        <ele>236</ele>
        <time>2019-06-01T08:07:43Z</time>
      </trkpt>
      <trkpt lat="44.1403" lon="4.53799">
        <ele>235.9</ele>
        <time>2019-06-01T08:07:44Z</time>
      </trkpt>
      <trkpt lat="44.14026" lon="4.53802">
        <ele>235.8</ele>
        <time>2019-06-01T08:07:45Z</time>
      </trkpt>
      <trkpt lat="44.14025" lon="4.53808">
        <ele>235.7</ele>
        <time>2019-06-01T08:07:46Z</time>
      </trkpt>
      <trkpt lat="44.14021" lon="4.53811">
        <ele>235.7</ele>
        <time>2019-06-01T08:07:47Z</time>
      </trkpt>
      <trkpt lat="44.14018" lon="4.53823">
        <ele>235.7</ele>
        <time>2019-06-01T08:07:48Z</time>
      </trkpt>
      <trkpt lat="44.14016" lon="4.53831">
        <ele>235.7</ele>
        <time>2019-06-01T08:07:49Z</time>
      </trkpt>
      <trkpt lat="44.14018" lon="4.53836">
        <ele>235.7</ele>
        <time>2019-06-01T08:07:50Z</time>
      </trkpt>
      <trkpt lat="44.14018" lon="4.5384">
        <ele>235.7</ele>
        <time>2019-06-01T08:07:51Z</time>
      </trkpt>
      <trkpt lat="44.14018" lon="4.53844">
        <ele>235.7</ele>
        <time>2019-06-01T08:07:52Z</time>
      </trkpt>
      <trkpt lat="44.14016" lon="4.53848">
        <ele>235.7</ele>
        <time>2019-06-01T08:07:53Z</time>
      </trkpt>
      <trkpt lat="44.14014" lon="4.53852">
        <ele>235.7</ele>
        <time>2019-06-01T08:07:54Z</time>
      </trkpt>
      <trkpt lat="44.14011" lon="4.53856">
        <ele>235.7</ele>
        <time>2019-06-01T08:07:55Z</time>
      </trkpt>
      <trkpt lat="44.14006" lon="4.53859">
        <ele>235.8</ele>
        <time>2019-06-01T08:07:56Z</time>
      </trkpt>
      <trkpt lat="44.14003" lon="4.53863">
        <ele>235.8</ele>
        <time>2019-06-01T08:07:57Z</time>
      </trkpt>
      <trkpt lat="44.14" lon="4.53866">
        <ele>235.9</ele>
        <time>2019-06-01T08:07:59Z</time>
      </trkpt>
      <trkpt lat="44.13996" lon="4.53866">
        <ele>236</ele>
        <time>2019-06-01T08:08:00Z</time>
      </trkpt>
      <trkpt lat="44.13992" lon="4.53868">
        <ele>236.1</ele>
        <time>2019-06-01T08:08:01Z</time>
      </trkpt>
      <trkpt lat="44.13989" lon="4.53871">
        <ele>236.2</ele>
        <time>2019-06-01T08:08:03Z</time>
      </trkpt>
      <trkpt lat="44.13984" lon="4.53872">
        <ele>236.4</ele>
        <time>2019-06-01T08:08:05Z</time>
      </trkpt>
      <trkpt lat="44.13979" lon="4.53874">
        <ele>236.3</ele>
        <time>2019-06-01T08:08:07Z</time>
      </trkpt>
      <trkpt lat="44.13976" lon="4.53873">
        <ele>236.3</ele>
        <time>2019-06-01T08:08:08Z</time>
      </trkpt>
      <trkpt lat="44.13973" lon="4.53871">
        <ele>236.2</ele>
        <time>2019-06-01T08:08:09Z</time>
      </trkpt>
      <trkpt lat="44.13969" lon="4.53868">
        <ele>235.5</ele>
        <time>2019-06-01T08:08:10Z</time>
      </trkpt>
      <trkpt lat="44.13966" lon="4.53865">
        <ele>235.2</ele>
        <time>2019-06-01T08:08:11Z</time>
      </trkpt>
      <trkpt lat="44.13963" lon="4.53861">
        <ele>235</ele>
        <time>2019-06-01T08:08:12Z</time>
      </trkpt>
      <trkpt lat="44.13961" lon="4.53857">
        <ele>234.8</ele>
        <time>2019-06-01T08:08:13Z</time>
      </trkpt>
      <trkpt lat="44.13959" lon="4.53852">
        <ele>234.6</ele>
        <time>2019-06-01T08:08:14Z</time>
      </trkpt>
      <trkpt lat="44.13957" lon="4.53843">
        <ele>234.1</ele>
        <time>2019-06-01T08:08:15Z</time>
      </trkpt>
      <trkpt lat="44.13953" lon="4.53839">
        <ele>233.8</ele>
        <time>2019-06-01T08:08:16Z</time>
      </trkpt>
      <trkpt lat="44.13946" lon="4.53837">
        <ele>233.4</ele>
        <time>2019-06-01T08:08:17Z</time>
      </trkpt>
      <trkpt lat="44.1394" lon="4.53836">
        <ele>233</ele>
        <time>2019-06-01T08:08:18Z</time>
      </trkpt>
      <trkpt lat="44.13936" lon="4.53833">
        <ele>232.8</ele>
        <time>2019-06-01T08:08:19Z</time>
      </trkpt>
      <trkpt lat="44.13928" lon="4.53831">
        <ele>232.5</ele>
        <time>2019-06-01T08:08:20Z</time>
      </trkpt>
      <trkpt lat="44.13922" lon="4.53831">
        <ele>232.2</ele>
        <time>2019-06-01T08:08:21Z</time>
      </trkpt>
      <trkpt lat="44.13915" lon="4.53831">
        <ele>231.9</ele>
        <time>2019-06-01T08:08:22Z</time>
      </trkpt>
      <trkpt lat="44.13908" lon="4.53831">
        <ele>231.7</ele>
        <time>2019-06-01T08:08:23Z</time>
      </trkpt>
      <trkpt lat="44.13902" lon="4.53832">
        <ele>231.4</ele>
        <time>2019-06-01T08:08:24Z</time>
      </trkpt>
      <trkpt lat="44.13895" lon="4.53833">
        <ele>231.1</ele>
        <time>2019-06-01T08:08:25Z</time>
      </trkpt>
      <trkpt lat="44.13889" lon="4.53833">
        <ele>231</ele>
        <time>2019-06-01T08:08:26Z</time>
      </trkpt>
      <trkpt lat="44.13883" lon="4.53831">
        <ele>230.9</ele>
        <time>2019-06-01T08:08:27Z</time>
      </trkpt>
      <trkpt lat="44.13877" lon="4.53829">
        <ele>230.8</ele>
        <time>2019-06-01T08:08:28Z</time>
      </trkpt>
      <trkpt lat="44.13871" lon="4.53827">
        <ele>230.7</ele>
        <time>2019-06-01T08:08:29Z</time>
      </trkpt>
      <trkpt lat="44.13865" lon="4.53825">
        <ele>230.7</ele>
        <time>2019-06-01T08:08:30Z</time>
      </trkpt>
      <trkpt lat="44.13859" lon="4.53823">
        <ele>230.7</ele>
        <time>2019-06-01T08:08:31Z</time>
      </trkpt>
      <trkpt lat="44.13854" lon="4.53817">
        <ele>230.6</ele>
        <time>2019-06-01T08:08:32Z</time>
      </trkpt>
      <trkpt lat="44.13849" lon="4.5381">
        <ele>230.6</ele>
        <time>2019-06-01T08:08:33Z</time>
      </trkpt>
      <trkpt lat="44.13845" lon="4.53804">
        <ele>230.6</ele>
        <time>2019-06-01T08:08:34Z</time>
      </trkpt>
      <trkpt lat="44.1384" lon="4.53799">
        <ele>230.5</ele>
        <time>2019-06-01T08:08:35Z</time>
      </trkpt>
      <trkpt lat="44.13834" lon="4.53793">
        <ele>230.5</ele>
        <time>2019-06-01T08:08:36Z</time>
      </trkpt>
      <trkpt lat="44.13829" lon="4.53788">
        <ele>230.4</ele>
        <time>2019-06-01T08:08:37Z</time>
      </trkpt>
      <trkpt lat="44.13823" lon="4.53785">
        <ele>230.4</ele>
        <time>2019-06-01T08:08:38Z</time>
      </trkpt>
      <trkpt lat="44.13816" lon="4.53784">
        <ele>230.3</ele>
        <time>2019-06-01T08:08:39Z</time>
      </trkpt>
      <trkpt lat="44.1381" lon="4.53781">
        <ele>230.2</ele>
        <time>2019-06-01T08:08:40Z</time>
      </trkpt>
      <trkpt lat="44.13805" lon="4.53777">
        <ele>230.1</ele>
        <time>2019-06-01T08:08:41Z</time>
      </trkpt>
      <trkpt lat="44.13799" lon="4.53773">
        <ele>230</ele>
        <time>2019-06-01T08:08:42Z</time>
      </trkpt>
      <trkpt lat="44.13793" lon="4.53769">
        <ele>229.7</ele>
        <time>2019-06-01T08:08:43Z</time>
      </trkpt>
      <trkpt lat="44.13789" lon="4.53763">
        <ele>229.5</ele>
        <time>2019-06-01T08:08:44Z</time>
      </trkpt>
      <trkpt lat="44.13785" lon="4.53757">
        <ele>229.4</ele>
        <time>2019-06-01T08:08:45Z</time>
      </trkpt>
      <trkpt lat="44.1378" lon="4.53752">
        <ele>229.2</ele>
        <time>2019-06-01T08:08:46Z</time>
      </trkpt>
      <trkpt lat="44.13775" lon="4.53747">
        <ele>228.6</ele>
        <time>2019-06-01T08:08:47Z</time>
      </trkpt>
      <trkpt lat="44.13771" lon="4.53742">
        <ele>228.2</ele>
        <time>2019-06-01T08:08:48Z</time>
      </trkpt>
      <trkpt lat="44.13764" lon="4.53739">
        <ele>227.8</ele>
        <time>2019-06-01T08:08:49Z</time>
      </trkpt>
      <trkpt lat="44.13761" lon="4.53735">
        <ele>227.5</ele>
        <time>2019-06-01T08:08:50Z</time>
      </trkpt>
      <trkpt lat="44.13757" lon="4.53732">
        <ele>227.2</ele>
        <time>2019-06-01T08:08:51Z</time>
      </trkpt>
      <trkpt lat="44.13751" lon="4.53729">
        <ele>226.8</ele>
        <time>2019-06-01T08:08:52Z</time>
      </trkpt>
      <trkpt lat="44.13745" lon="4.53727">
        <ele>226.5</ele>
        <time>2019-06-01T08:08:53Z</time>
      </trkpt>
      <trkpt lat="44.1374" lon="4.53722">
        <ele>226.2</ele>
        <time>2019-06-01T08:08:54Z</time>
      </trkpt>
      <trkpt lat="44.13735" lon="4.53719">
        <ele>226</ele>
        <time>2019-06-01T08:08:55Z</time>
      </trkpt>
      <trkpt lat="44.13738" lon="4.53716">
        <ele>225.9</ele>
        <time>2019-06-01T08:08:56Z</time>
      </trkpt>
      <trkpt lat="44.13735" lon="4.53717">
        <ele>225.9</ele>
        <time>2019-06-01T08:08:57Z</time>
      </trkpt>
      <trkpt lat="44.13731" lon="4.5372">
        <ele>226</ele>
        <time>2019-06-01T08:08:58Z</time>
      </trkpt>
      <trkpt lat="44.13728" lon="4.53721">
        <ele>226</ele>
        <time>2019-06-01T08:08:59Z</time>
      </trkpt>
      <trkpt lat="44.13724" lon="4.53724">
        <ele>226.1</ele>
        <time>2019-06-01T08:09:01Z</time>
      </trkpt>
      <trkpt lat="44.1372" lon="4.53726">
        <ele>226.2</ele>
        <time>2019-06-01T08:09:03Z</time>
      </trkpt>
      <trkpt lat="44.13717" lon="4.53728">
        <ele>226.2</ele>
        <time>2019-06-01T08:09:05Z</time>
      </trkpt>
      <trkpt lat="44.13713" lon="4.53732">
        <ele>226.6</ele>
        <time>2019-06-01T08:09:07Z</time>
      </trkpt>
      <trkpt lat="44.1371" lon="4.53734">
        <ele>226.9</ele>
        <time>2019-06-01T08:09:09Z</time>
      </trkpt>
      <trkpt lat="44.13706" lon="4.53734">
        <ele>227.4</ele>
        <time>2019-06-01T08:09:12Z</time>
      </trkpt>
      <trkpt lat="44.13702" lon="4.53734">
        <ele>227.9</ele>
        <time>2019-06-01T08:09:14Z</time>
      </trkpt>
      <trkpt lat="44.13699" lon="4.53735">
        <ele>228.3</ele>
        <time>2019-06-01T08:09:16Z</time>
      </trkpt>
      <trkpt lat="44.13696" lon="4.53734">
        <ele>228.6</ele>
        <time>2019-06-01T08:09:19Z</time>
      </trkpt>
      <trkpt lat="44.13693" lon="4.53735">
        <ele>228.8</ele>
        <time>2019-06-01T08:09:21Z</time>
      </trkpt>
      <trkpt lat="44.1369" lon="4.53737">
        <ele>229.2</ele>
        <time>2019-06-01T08:09:24Z</time>
      </trkpt>
      <trkpt lat="44.13686" lon="4.53737">
        <ele>229.5</ele>
        <time>2019-06-01T08:09:26Z</time>
      </trkpt>
      <trkpt lat="44.13683" lon="4.53736">
        <ele>229.9</ele>
        <time>2019-06-01T08:09:28Z</time>
      </trkpt>
      <trkpt lat="44.13678" lon="4.53736">
        <ele>230.5</ele>
        <time>2019-06-01T08:09:30Z</time>
      </trkpt>
      <trkpt lat="44.13674" lon="4.53736">
        <ele>231.1</ele>
        <time>2019-06-01T08:09:32Z</time>
      </trkpt>
      <trkpt lat="44.1367" lon="4.53737">
        <ele>231.5</ele>
        <time>2019-06-01T08:09:34Z</time>
      </trkpt>
      <trkpt lat="44.13667" lon="4.53737">
        <ele>232</ele>
        <time>2019-06-01T08:09:36Z</time>
      </trkpt>
      <trkpt lat="44.13662" lon="4.53737">
        <ele>232.5</ele>
        <time>2019-06-01T08:09:38Z</time>
      </trkpt>
      <trkpt lat="44.13658" lon="4.53737">
        <ele>232.8</ele>
        <time>2019-06-01T08:09:40Z</time>
      </trkpt>
      <trkpt lat="44.13655" lon="4.53737">
        <ele>233.2</ele>
        <time>2019-06-01T08:09:42Z</time>
      </trkpt>
      <trkpt lat="44.13651" lon="4.53738">
        <ele>233.7</ele>
        <time>2019-06-01T08:09:44Z</time>
      </trkpt>
      <trkpt lat="44.13649" lon="4.53738">
        <ele>234.1</ele>
        <time>2019-06-01T08:09:46Z</time>
      </trkpt>
      <trkpt lat="44.13646" lon="4.5374">
        <ele>234.4</ele>
        <time>2019-06-01T08:09:48Z</time>
      </trkpt>
      <trkpt lat="44.13645" lon="4.53744">
        <ele>234.7</ele>
        <time>2019-06-01T08:09:51Z</time>
      </trkpt>
      <trkpt lat="44.13641" lon="4.53744">
        <ele>235.1</ele>
        <time>2019-06-01T08:09:53Z</time>
      </trkpt>
      <trkpt lat="44.13637" lon="4.53744">
        <ele>235.6</ele>
        <time>2019-06-01T08:09:55Z</time>
      </trkpt>
      <trkpt lat="44.13634" lon="4.53745">
        <ele>236</ele>
        <time>2019-06-01T08:09:57Z</time>
      </trkpt>
      <trkpt lat="44.1363" lon="4.53745">
        <ele>236.4</ele>
        <time>2019-06-01T08:10:00Z</time>
      </trkpt>
      <trkpt lat="44.13626" lon="4.53745">
        <ele>236.9</ele>
        <time>2019-06-01T08:10:02Z</time>
      </trkpt>
      <trkpt lat="44.13622" lon="4.53745">
        <ele>237.3</ele>
        <time>2019-06-01T08:10:04Z</time>
      </trkpt>
      <trkpt lat="44.13618" lon="4.53747">
        <ele>237.6</ele>
        <time>2019-06-01T08:10:06Z</time>
      </trkpt>
      <trkpt lat="44.13615" lon="4.53747">
        <ele>237.9</ele>
        <time>2019-06-01T08:10:10Z</time>
      </trkpt>
      <trkpt lat="44.13611" lon="4.53748">
        <ele>238.2</ele>
        <time>2019-06-01T08:10:12Z</time>
      </trkpt>
      <trkpt lat="44.13608" lon="4.5375">
        <ele>238.3</ele>
        <time>2019-06-01T08:10:14Z</time>
      </trkpt>
      <trkpt lat="44.13604" lon="4.5375">
        <ele>238.6</ele>
        <time>2019-06-01T08:10:16Z</time>
      </trkpt>
      <trkpt lat="44.13599" lon="4.53751">
        <ele>238.8</ele>
        <time>2019-06-01T08:10:18Z</time>
      </trkpt>
      <trkpt lat="44.13595" lon="4.53754">
        <ele>239</ele>
        <time>2019-06-01T08:10:20Z</time>
      </trkpt>
      <trkpt lat="44.13591" lon="4.53756">
        <ele>239.3</ele>
        <time>2019-06-01T08:10:22Z</time>
      </trkpt>
      <trkpt lat="44.13588" lon="4.53755">
        <ele>239.5</ele>
        <time>2019-06-01T08:10:26Z</time>
      </trkpt>
      <trkpt lat="44.13584" lon="4.53756">
        <ele>239.7</ele>
        <time>2019-06-01T08:10:28Z</time>
      </trkpt>
      <trkpt lat="44.1358" lon="4.53757">
        <ele>239.9</ele>
        <time>2019-06-01T08:10:30Z</time>
      </trkpt>
      <trkpt lat="44.13577" lon="4.53756">
        <ele>240.2</ele>
        <time>2019-06-01T08:10:33Z</time>
      </trkpt>
      <trkpt lat="44.13573" lon="4.53756">
        <ele>240.5</ele>
        <time>2019-06-01T08:10:35Z</time>
      </trkpt>
      <trkpt lat="44.13568" lon="4.53757">
        <ele>240.7</ele>
        <time>2019-06-01T08:10:37Z</time>
      </trkpt>
      <trkpt lat="44.13563" lon="4.53757">
        <ele>240.9</ele>
        <time>2019-06-01T08:10:39Z</time>
      </trkpt>
      <trkpt lat="44.1356" lon="4.53758">
        <ele>241.1</ele>
        <time>2019-06-01T08:10:41Z</time>
      </trkpt>
      <trkpt lat="44.13556" lon="4.53762">
        <ele>241.3</ele>
        <time>2019-06-01T08:10:43Z</time>
      </trkpt>
      <trkpt lat="44.13552" lon="4.53765">
        <ele>241.6</ele>
        <time>2019-06-01T08:10:45Z</time>
      </trkpt>
      <trkpt lat="44.13548" lon="4.53766">
        <ele>241.8</ele>
        <time>2019-06-01T08:10:47Z</time>
      </trkpt>
      <trkpt lat="44.13544" lon="4.53767">
        <ele>242.1</ele>
        <time>2019-06-01T08:10:49Z</time>
      </trkpt>
      <trkpt lat="44.13539" lon="4.53768">
        <ele>242.3</ele>
        <time>2019-06-01T08:10:51Z</time>
      </trkpt>
      <trkpt lat="44.13536" lon="4.53768">
        <ele>242.5</ele>
        <time>2019-06-01T08:10:52Z</time>
      </trkpt>
      <trkpt lat="44.13533" lon="4.53768">
        <ele>242.7</ele>
        <time>2019-06-01T08:10:53Z</time>
      </trkpt>
      <trkpt lat="44.13529" lon="4.53768">
        <ele>242.9</ele>
        <time>2019-06-01T08:10:55Z</time>
      </trkpt>
      <trkpt lat="44.13526" lon="4.5377">
        <ele>243.1</ele>
        <time>2019-06-01T08:10:56Z</time>
      </trkpt>
      <trkpt lat="44.13524" lon="4.53773">
        <ele>243.2</ele>
        <time>2019-06-01T08:10:57Z</time>
      </trkpt>
      <trkpt lat="44.13522" lon="4.53778">
        <ele>243.5</ele>
        <time>2019-06-01T08:10:59Z</time>
      </trkpt>
      <trkpt lat="44.13518" lon="4.53781">
        <ele>243.7</ele>
        <time>2019-06-01T08:11:01Z</time>
      </trkpt>
      <trkpt lat="44.13516" lon="4.53784">
        <ele>243.8</ele>
        <time>2019-06-01T08:11:03Z</time>
      </trkpt>
      <trkpt lat="44.13516" lon="4.5379">
        <ele>244</ele>
        <time>2019-06-01T08:11:05Z</time>
      </trkpt>
      <trkpt lat="44.13518" lon="4.53797">
        <ele>244.2</ele>
        <time>2019-06-01T08:11:07Z</time>
      </trkpt>
      <trkpt lat="44.13519" lon="4.53801">
        <ele>244.3</ele>
        <time>2019-06-01T08:11:08Z</time>
      </trkpt>
      <trkpt lat="44.13521" lon="4.53805">
        <ele>244.4</ele>
        <time>2019-06-01T08:11:09Z</time>
      </trkpt>
      <trkpt lat="44.13522" lon="4.53812">
        <ele>244.5</ele>
        <time>2019-06-01T08:11:11Z</time>
      </trkpt>
      <trkpt lat="44.13523" lon="4.53815">
        <ele>244.8</ele>
        <time>2019-06-01T08:11:12Z</time>
      </trkpt>
      <trkpt lat="44.13524" lon="4.53819">
        <ele>245</ele>
        <time>2019-06-01T08:11:13Z</time>
      </trkpt>
      <trkpt lat="44.13525" lon="4.53824">
        <ele>245.2</ele>
        <time>2019-06-01T08:11:14Z</time>
      </trkpt>
      <trkpt lat="44.13526" lon="4.53829">
        <ele>245.4</ele>
        <time>2019-06-01T08:11:15Z</time>
      </trkpt>
      <trkpt lat="44.13527" lon="4.53834">
        <ele>245.6</ele>
        <time>2019-06-01T08:11:16Z</time>
      </trkpt>
      <trkpt lat="44.13527" lon="4.53838">
        <ele>245.6</ele>
        <time>2019-06-01T08:11:17Z</time>
      </trkpt>
      <trkpt lat="44.13529" lon="4.53842">
        <ele>245.7</ele>
        <time>2019-06-01T08:11:18Z</time>
      </trkpt>
      <trkpt lat="44.1353" lon="4.53846">
        <ele>245.8</ele>
        <time>2019-06-01T08:11:19Z</time>
      </trkpt>
      <trkpt lat="44.13531" lon="4.53851">
        <ele>245.9</ele>
        <time>2019-06-01T08:11:20Z</time>
      </trkpt>
      <trkpt lat="44.13532" lon="4.53856">
        <ele>245.9</ele>
        <time>2019-06-01T08:11:21Z</time>
      </trkpt>
      <trkpt lat="44.13532" lon="4.5386">
        <ele>246</ele>
        <time>2019-06-01T08:11:22Z</time>
      </trkpt>
      <trkpt lat="44.13532" lon="4.53867">
        <ele>246</ele>
        <time>2019-06-01T08:11:24Z</time>
      </trkpt>
      <trkpt lat="44.13535" lon="4.53874">
        <ele>246</ele>
        <time>2019-06-01T08:11:26Z</time>
      </trkpt>
      <trkpt lat="44.13536" lon="4.53879">
        <ele>246.1</ele>
        <time>2019-06-01T08:11:27Z</time>
      </trkpt>
      <trkpt lat="44.13538" lon="4.53883">
        <ele>246.1</ele>
        <time>2019-06-01T08:11:28Z</time>
      </trkpt>
      <trkpt lat="44.1354" lon="4.53887">
        <ele>246.1</ele>
        <time>2019-06-01T08:11:29Z</time>
      </trkpt>
      <trkpt lat="44.13541" lon="4.5389">
        <ele>246.1</ele>
        <time>2019-06-01T08:11:30Z</time>
      </trkpt>
      <trkpt lat="44.13543" lon="4.53893">
        <ele>246.2</ele>
        <time>2019-06-01T08:11:31Z</time>
      </trkpt>
      <trkpt lat="44.13545" lon="4.53898">
        <ele>246.2</ele>
        <time>2019-06-01T08:11:33Z</time>
      </trkpt>
      <trkpt lat="44.13547" lon="4.53904">
        <ele>246.2</ele>
        <time>2019-06-01T08:11:35Z</time>
      </trkpt>
      <trkpt lat="44.13549" lon="4.53908">
        <ele>246.2</ele>
        <time>2019-06-01T08:11:36Z</time>
      </trkpt>
      <trkpt lat="44.13551" lon="4.53913">
        <ele>246.2</ele>
        <time>2019-06-01T08:11:37Z</time>
      </trkpt>
      <trkpt lat="44.13553" lon="4.53918">
        <ele>246.2</ele>
        <time>2019-06-01T08:11:38Z</time>
      </trkpt>
      <trkpt lat="44.13556" lon="4.53922">
        <ele>246.2</ele>
        <time>2019-06-01T08:11:39Z</time>
      </trkpt>
      <trkpt lat="44.13558" lon="4.53927">
        <ele>246.2</ele>
        <time>2019-06-01T08:11:40Z</time>
      </trkpt>
      <trkpt lat="44.13561" lon="4.53931">
        <ele>246.2</ele>
        <time>2019-06-01T08:11:41Z</time>
      </trkpt>
      <trkpt lat="44.13564" lon="4.53936">
        <ele>246.2</ele>
        <time>2019-06-01T08:11:42Z</time>
      </trkpt>
      <trkpt lat="44.13567" lon="4.53942">
        <ele>246.2</ele>
        <time>2019-06-01T08:11:43Z</time>
      </trkpt>
      <trkpt lat="44.13571" lon="4.53948">
        <ele>246.2</ele>
        <time>2019-06-01T08:11:44Z</time>
      </trkpt>
      <trkpt lat="44.13574" lon="4.53953">
        <ele>246.2</ele>
        <time>2019-06-01T08:11:45Z</time>
      </trkpt>
      <trkpt lat="44.13577" lon="4.53956">
        <ele>246.1</ele>
        <time>2019-06-01T08:11:46Z</time>
      </trkpt>
      <trkpt lat="44.13579" lon="4.53959">
        <ele>246.1</ele>
        <time>2019-06-01T08:11:47Z</time>
      </trkpt>
      <trkpt lat="44.13582" lon="4.53961">
        <ele>246.1</ele>
        <time>2019-06-01T08:11:48Z</time>
      </trkpt>
      <trkpt lat="44.13584" lon="4.53964">
        <ele>246.1</ele>
        <time>2019-06-01T08:11:49Z</time>
      </trkpt>
      <trkpt lat="44.13587" lon="4.53966">
        <ele>246.1</ele>
        <time>2019-06-01T08:11:50Z</time>
      </trkpt>
      <trkpt lat="44.1359" lon="4.53969">
        <ele>246.1</ele>
        <time>2019-06-01T08:11:51Z</time>
      </trkpt>
      <trkpt lat="44.13592" lon="4.53973">
        <ele>246.1</ele>
        <time>2019-06-01T08:11:52Z</time>
      </trkpt>
      <trkpt lat="44.13596" lon="4.53977">
        <ele>246.1</ele>
        <time>2019-06-01T08:11:53Z</time>
      </trkpt>
      <trkpt lat="44.13599" lon="4.53983">
        <ele>246.1</ele>
        <time>2019-06-01T08:11:54Z</time>
      </trkpt>
      <trkpt lat="44.13603" lon="4.53987">
        <ele>246.1</ele>
        <time>2019-06-01T08:11:55Z</time>
      </trkpt>
      <trkpt lat="44.13605" lon="4.53991">
        <ele>246.1</ele>
        <time>2019-06-01T08:11:56Z</time>
      </trkpt>
      <trkpt lat="44.13608" lon="4.53995">
        <ele>246.1</ele>
        <time>2019-06-01T08:11:57Z</time>
      </trkpt>
      <trkpt lat="44.1361" lon="4.53998">
        <ele>246.1</ele>
        <time>2019-06-01T08:11:58Z</time>
      </trkpt>
      <trkpt lat="44.13613" lon="4.54">
        <ele>246.1</ele>
        <time>2019-06-01T08:11:59Z</time>
      </trkpt>
      <trkpt lat="44.13617" lon="4.54004">
        <ele>246.1</ele>
        <time>2019-06-01T08:12:01Z</time>
      </trkpt>
      <trkpt lat="44.1362" lon="4.54006">
        <ele>246.1</ele>
        <time>2019-06-01T08:12:02Z</time>
      </trkpt>
      <trkpt lat="44.13623" lon="4.5401">
        <ele>246.1</ele>
        <time>2019-06-01T08:12:03Z</time>
      </trkpt>
      <trkpt lat="44.13628" lon="4.54014">
        <ele>246.1</ele>
        <time>2019-06-01T08:12:04Z</time>
      </trkpt>
      <trkpt lat="44.13632" lon="4.54018">
        <ele>246.1</ele>
        <time>2019-06-01T08:12:05Z</time>
      </trkpt>
      <trkpt lat="44.13636" lon="4.54022">
        <ele>246.1</ele>
        <time>2019-06-01T08:12:06Z</time>
      </trkpt>
      <trkpt lat="44.13639" lon="4.54024">
        <ele>246.1</ele>
        <time>2019-06-01T08:12:07Z</time>
      </trkpt>
      <trkpt lat="44.13643" lon="4.54026">
        <ele>246.1</ele>
        <time>2019-06-01T08:12:08Z</time>
      </trkpt>
      <trkpt lat="44.13646" lon="4.54028">
        <ele>246.1</ele>
        <time>2019-06-01T08:12:09Z</time>
      </trkpt>
      <trkpt lat="44.1365" lon="4.5403">
        <ele>246.1</ele>
        <time>2019-06-01T08:12:10Z</time>
      </trkpt>
      <trkpt lat="44.13653" lon="4.54032">
        <ele>246.1</ele>
        <time>2019-06-01T08:12:11Z</time>
      </trkpt>
      <trkpt lat="44.13656" lon="4.54035">
        <ele>246.1</ele>
        <time>2019-06-01T08:12:12Z</time>
      </trkpt>
      <trkpt lat="44.13659" lon="4.54037">
        <ele>246.1</ele>
        <time>2019-06-01T08:12:13Z</time>
      </trkpt>
      <trkpt lat="44.13663" lon="4.5404">
        <ele>246.1</ele>
        <time>2019-06-01T08:12:14Z</time>
      </trkpt>
      <trkpt lat="44.13666" lon="4.54044">
        <ele>246.1</ele>
        <time>2019-06-01T08:12:15Z</time>
      </trkpt>
      <trkpt lat="44.13669" lon="4.54047">
        <ele>246.1</ele>
        <time>2019-06-01T08:12:16Z</time>
      </trkpt>
      <trkpt lat="44.13672" lon="4.5405">
        <ele>246.1</ele>
        <time>2019-06-01T08:12:17Z</time>
      </trkpt>
      <trkpt lat="44.13676" lon="4.54053">
        <ele>246.1</ele>
        <time>2019-06-01T08:12:18Z</time>
      </trkpt>
      <trkpt lat="44.13679" lon="4.54056">
        <ele>246.1</ele>
        <time>2019-06-01T08:12:19Z</time>
      </trkpt>
      <trkpt lat="44.13682" lon="4.54059">
        <ele>246.1</ele>
        <time>2019-06-01T08:12:20Z</time>
      </trkpt>
      <trkpt lat="44.13684" lon="4.54061">
        <ele>246.1</ele>
        <time>2019-06-01T08:12:21Z</time>
      </trkpt>
      <trkpt lat="44.13687" lon="4.54064">
        <ele>246.1</ele>
        <time>2019-06-01T08:12:22Z</time>
      </trkpt>
      <trkpt lat="44.13691" lon="4.54068">
        <ele>246.1</ele>
        <time>2019-06-01T08:12:23Z</time>
      </trkpt>
      <trkpt lat="44.13695" lon="4.54071">
        <ele>246.1</ele>
        <time>2019-06-01T08:12:24Z</time>
      </trkpt>
      <trkpt lat="44.137" lon="4.54076">
        <ele>246.1</ele>
        <time>2019-06-01T08:12:25Z</time>
      </trkpt>
      <trkpt lat="44.13703" lon="4.54079">
        <ele>246.1</ele>
        <time>2019-06-01T08:12:26Z</time>
      </trkpt>
      <trkpt lat="44.13706" lon="4.54083">
        <ele>246.1</ele>
        <time>2019-06-01T08:12:27Z</time>
      </trkpt>
      <trkpt lat="44.13709" lon="4.54087">
        <ele>246.1</ele>
        <time>2019-06-01T08:12:28Z</time>
      </trkpt>
      <trkpt lat="44.13712" lon="4.5409">
        <ele>246.2</ele>
        <time>2019-06-01T08:12:29Z</time>
      </trkpt>
      <trkpt lat="44.13714" lon="4.54094">
        <ele>246.2</ele>
        <time>2019-06-01T08:12:30Z</time>
      </trkpt>
      <trkpt lat="44.13717" lon="4.54097">
        <ele>246.2</ele>
        <time>2019-06-01T08:12:31Z</time>
      </trkpt>
      <trkpt lat="44.1372" lon="4.54101">
        <ele>246.2</ele>
        <time>2019-06-01T08:12:32Z</time>
      </trkpt>
      <trkpt lat="44.13723" lon="4.54105">
        <ele>246.3</ele>
        <time>2019-06-01T08:12:33Z</time>
      </trkpt>
      <trkpt lat="44.13725" lon="4.54108">
        <ele>246.3</ele>
        <time>2019-06-01T08:12:34Z</time>
      </trkpt>
      <trkpt lat="44.13729" lon="4.54112">
        <ele>246.3</ele>
        <time>2019-06-01T08:12:35Z</time>
      </trkpt>
      <trkpt lat="44.13733" lon="4.54116">
        <ele>246.4</ele>
        <time>2019-06-01T08:12:36Z</time>
      </trkpt>
      <trkpt lat="44.13736" lon="4.5412">
        <ele>246.4</ele>
        <time>2019-06-01T08:12:37Z</time>
      </trkpt>
      <trkpt lat="44.1374" lon="4.54124">
        <ele>246.6</ele>
        <time>2019-06-01T08:12:38Z</time>
      </trkpt>
      <trkpt lat="44.13743" lon="4.54128">
        <ele>246.8</ele>
        <time>2019-06-01T08:12:39Z</time>
      </trkpt>
      <trkpt lat="44.13747" lon="4.54132">
        <ele>247.1</ele>
        <time>2019-06-01T08:12:40Z</time>
      </trkpt>
      <trkpt lat="44.1375" lon="4.54136">
        <ele>247.3</ele>
        <time>2019-06-01T08:12:41Z</time>
      </trkpt>
      <trkpt lat="44.13754" lon="4.5414">
        <ele>247.5</ele>
        <time>2019-06-01T08:12:42Z</time>
      </trkpt>
      <trkpt lat="44.13757" lon="4.54144">
        <ele>247.7</ele>
        <time>2019-06-01T08:12:43Z</time>
      </trkpt>
      <trkpt lat="44.13759" lon="4.54147">
        <ele>247.8</ele>
        <time>2019-06-01T08:12:44Z</time>
      </trkpt>
      <trkpt lat="44.13762" lon="4.54153">
        <ele>247.9</ele>
        <time>2019-06-01T08:12:46Z</time>
      </trkpt>
      <trkpt lat="44.13764" lon="4.54157">
        <ele>247.9</ele>
        <time>2019-06-01T08:12:47Z</time>
      </trkpt>
      <trkpt lat="44.13766" lon="4.54161">
        <ele>247.9</ele>
        <time>2019-06-01T08:12:48Z</time>
      </trkpt>
      <trkpt lat="44.13769" lon="4.54163">
        <ele>248</ele>
        <time>2019-06-01T08:12:49Z</time>
      </trkpt>
      <trkpt lat="44.13772" lon="4.54168">
        <ele>248</ele>
        <time>2019-06-01T08:12:51Z</time>
      </trkpt>
      <trkpt lat="44.13776" lon="4.54175">
        <ele>248</ele>
        <time>2019-06-01T08:12:53Z</time>
      </trkpt>
      <trkpt lat="44.13779" lon="4.54181">
        <ele>248.1</ele>
        <time>2019-06-01T08:12:54Z</time>
      </trkpt>
      <trkpt lat="44.13782" lon="4.54187">
        <ele>248.1</ele>
        <time>2019-06-01T08:12:55Z</time>
      </trkpt>
      <trkpt lat="44.13785" lon="4.54192">
        <ele>248.1</ele>
        <time>2019-06-01T08:12:56Z</time>
      </trkpt>
      <trkpt lat="44.13788" lon="4.54198">
        <ele>248.1</ele>
        <time>2019-06-01T08:12:57Z</time>
      </trkpt>
      <trkpt lat="44.13792" lon="4.54203">
        <ele>248.1</ele>
        <time>2019-06-01T08:12:58Z</time>
      </trkpt>
      <trkpt lat="44.13795" lon="4.54207">
        <ele>248.1</ele>
        <time>2019-06-01T08:12:59Z</time>
      </trkpt>
      <trkpt lat="44.13797" lon="4.54212">
        <ele>248.1</ele>
        <time>2019-06-01T08:13:00Z</time>
      </trkpt>
      <trkpt lat="44.13799" lon="4.54217">
        <ele>248.1</ele>
        <time>2019-06-01T08:13:01Z</time>
      </trkpt>
      <trkpt lat="44.138" lon="4.54223">
        <ele>248.1</ele>
        <time>2019-06-01T08:13:02Z</time>
      </trkpt>
      <trkpt lat="44.13809" lon="4.5425">
        <ele>248.1</ele>
        <time>2019-06-01T08:13:04Z</time>
      </trkpt>
      <trkpt lat="44.13812" lon="4.54254">
        <ele>248.1</ele>
        <time>2019-06-01T08:13:05Z</time>
      </trkpt>
      <trkpt lat="44.13814" lon="4.54258">
        <ele>248.1</ele>
        <time>2019-06-01T08:13:06Z</time>
      </trkpt>
      <trkpt lat="44.13819" lon="4.54261">
        <ele>248</ele>
        <time>2019-06-01T08:13:08Z</time>
      </trkpt>
      <trkpt lat="44.13824" lon="4.54262">
        <ele>248</ele>
        <time>2019-06-01T08:13:10Z</time>
      </trkpt>
      <trkpt lat="44.13827" lon="4.54263">
        <ele>248</ele>
        <time>2019-06-01T08:13:11Z</time>
      </trkpt>
      <trkpt lat="44.13831" lon="4.54264">
        <ele>248</ele>
        <time>2019-06-01T08:13:12Z</time>
      </trkpt>
      <trkpt lat="44.13834" lon="4.54267">
        <ele>248</ele>
        <time>2019-06-01T08:13:13Z</time>
      </trkpt>
      <trkpt lat="44.13838" lon="4.54269">
        <ele>248</ele>
        <time>2019-06-01T08:13:14Z</time>
      </trkpt>
      <trkpt lat="44.1384" lon="4.54272">
        <ele>247.9</ele>
        <time>2019-06-01T08:13:15Z</time>
      </trkpt>
      <trkpt lat="44.13843" lon="4.54275">
        <ele>247.9</ele>
        <time>2019-06-01T08:13:16Z</time>
      </trkpt>
      <trkpt lat="44.13846" lon="4.54277">
        <ele>247.9</ele>
        <time>2019-06-01T08:13:17Z</time>
      </trkpt>
      <trkpt lat="44.13849" lon="4.54279">
        <ele>248</ele>
        <time>2019-06-01T08:13:18Z</time>
      </trkpt>
      <trkpt lat="44.13852" lon="4.54281">
        <ele>248</ele>
        <time>2019-06-01T08:13:19Z</time>
      </trkpt>
      <trkpt lat="44.13856" lon="4.54282">
        <ele>248.1</ele>
        <time>2019-06-01T08:13:20Z</time>
      </trkpt>
      <trkpt lat="44.13859" lon="4.54283">
        <ele>248.1</ele>
        <time>2019-06-01T08:13:21Z</time>
      </trkpt>
      <trkpt lat="44.13863" lon="4.54284">
        <ele>248.1</ele>
        <time>2019-06-01T08:13:22Z</time>
      </trkpt>
      <trkpt lat="44.13866" lon="4.54286">
        <ele>248.2</ele>
        <time>2019-06-01T08:13:23Z</time>
      </trkpt>
      <trkpt lat="44.13869" lon="4.54287">
        <ele>248.2</ele>
        <time>2019-06-01T08:13:24Z</time>
      </trkpt>
      <trkpt lat="44.13873" lon="4.54288">
        <ele>248.3</ele>
        <time>2019-06-01T08:13:26Z</time>
      </trkpt>
      <trkpt lat="44.13877" lon="4.54287">
        <ele>248.4</ele>
        <time>2019-06-01T08:13:28Z</time>
      </trkpt>
      <trkpt lat="44.13881" lon="4.54288">
        <ele>248.4</ele>
        <time>2019-06-01T08:13:30Z</time>
      </trkpt>
      <trkpt lat="44.13884" lon="4.54292">
        <ele>248.5</ele>
        <time>2019-06-01T08:13:32Z</time>
      </trkpt>
      <trkpt lat="44.13887" lon="4.54295">
        <ele>248.6</ele>
        <time>2019-06-01T08:13:34Z</time>
      </trkpt>
      <trkpt lat="44.13891" lon="4.54298">
        <ele>248.7</ele>
        <time>2019-06-01T08:13:36Z</time>
      </trkpt>
      <trkpt lat="44.13893" lon="4.543">
        <ele>248.8</ele>
        <time>2019-06-01T08:13:37Z</time>
      </trkpt>
      <trkpt lat="44.13895" lon="4.54303">
        <ele>248.9</ele>
        <time>2019-06-01T08:13:38Z</time>
      </trkpt>
      <trkpt lat="44.13899" lon="4.54306">
        <ele>249</ele>
        <time>2019-06-01T08:13:40Z</time>
      </trkpt>
      <trkpt lat="44.13903" lon="4.54307">
        <ele>249.3</ele>
        <time>2019-06-01T08:13:43Z</time>
      </trkpt>
      <trkpt lat="44.13907" lon="4.54307">
        <ele>249.4</ele>
        <time>2019-06-01T08:13:45Z</time>
      </trkpt>
      <trkpt lat="44.1391" lon="4.54306">
        <ele>249.6</ele>
        <time>2019-06-01T08:13:47Z</time>
      </trkpt>
      <trkpt lat="44.13915" lon="4.54305">
        <ele>249.7</ele>
        <time>2019-06-01T08:13:49Z</time>
      </trkpt>
      <trkpt lat="44.13919" lon="4.54302">
        <ele>249.8</ele>
        <time>2019-06-01T08:13:51Z</time>
      </trkpt>
      <trkpt lat="44.13924" lon="4.54299">
        <ele>249.9</ele>
        <time>2019-06-01T08:13:53Z</time>
      </trkpt>
      <trkpt lat="44.13927" lon="4.54296">
        <ele>249.9</ele>
        <time>2019-06-01T08:13:55Z</time>
      </trkpt>
      <trkpt lat="44.1393" lon="4.54292">
        <ele>250</ele>
        <time>2019-06-01T08:13:57Z</time>
      </trkpt>
      <trkpt lat="44.13933" lon="4.54288">
        <ele>250</ele>
        <time>2019-06-01T08:13:59Z</time>
      </trkpt>
      <trkpt lat="44.13936" lon="4.54284">
        <ele>250.1</ele>
        <time>2019-06-01T08:14:00Z</time>
      </trkpt>
      <trkpt lat="44.13938" lon="4.54281">
        <ele>250.1</ele>
        <time>2019-06-01T08:14:01Z</time>
      </trkpt>
      <trkpt lat="44.1394" lon="4.54279">
        <ele>250.1</ele>
        <time>2019-06-01T08:14:02Z</time>
      </trkpt>
      <trkpt lat="44.13944" lon="4.54275">
        <ele>250.2</ele>
        <time>2019-06-01T08:14:04Z</time>
      </trkpt>
      <trkpt lat="44.13947" lon="4.54272">
        <ele>250.2</ele>
        <time>2019-06-01T08:14:06Z</time>
      </trkpt>
      <trkpt lat="44.13952" lon="4.5427">
        <ele>250.2</ele>
        <time>2019-06-01T08:14:08Z</time>
      </trkpt>
      <trkpt lat="44.13955" lon="4.54269">
        <ele>250.2</ele>
        <time>2019-06-01T08:14:09Z</time>
      </trkpt>
      <trkpt lat="44.1396" lon="4.54269">
        <ele>250.3</ele>
        <time>2019-06-01T08:14:11Z</time>
      </trkpt>
      <trkpt lat="44.13963" lon="4.5427">
        <ele>250.3</ele>
        <time>2019-06-01T08:14:12Z</time>
      </trkpt>
      <trkpt lat="44.13966" lon="4.54271">
        <ele>250.3</ele>
        <time>2019-06-01T08:14:13Z</time>
      </trkpt>
      <trkpt lat="44.1397" lon="4.54272">
        <ele>250.3</ele>
        <time>2019-06-01T08:14:14Z</time>
      </trkpt>
      <trkpt lat="44.13972" lon="4.54272">
        <ele>250.3</ele>
        <time>2019-06-01T08:14:15Z</time>
      </trkpt>
      <trkpt lat="44.13977" lon="4.54273">
        <ele>250.3</ele>
        <time>2019-06-01T08:14:17Z</time>
      </trkpt>
      <trkpt lat="44.1398" lon="4.54277">
        <ele>250.3</ele>
        <time>2019-06-01T08:14:19Z</time>
      </trkpt>
      <trkpt lat="44.13985" lon="4.54278">
        <ele>250.3</ele>
        <time>2019-06-01T08:14:21Z</time>
      </trkpt>
      <trkpt lat="44.13988" lon="4.54279">
        <ele>250.3</ele>
        <time>2019-06-01T08:14:22Z</time>
      </trkpt>
      <trkpt lat="44.13991" lon="4.54279">
        <ele>250.3</ele>
        <time>2019-06-01T08:14:23Z</time>
      </trkpt>
      <trkpt lat="44.13994" lon="4.5428">
        <ele>250.3</ele>
        <time>2019-06-01T08:14:24Z</time>
      </trkpt>
      <trkpt lat="44.13997" lon="4.54281">
        <ele>250.3</ele>
        <time>2019-06-01T08:14:25Z</time>
      </trkpt>
      <trkpt lat="44.14" lon="4.54281">
        <ele>250.3</ele>
        <time>2019-06-01T08:14:26Z</time>
      </trkpt>
      <trkpt lat="44.14005" lon="4.54283">
        <ele>250.3</ele>
        <time>2019-06-01T08:14:28Z</time>
      </trkpt>
      <trkpt lat="44.14009" lon="4.54286">
        <ele>250.3</ele>
        <time>2019-06-01T08:14:30Z</time>
      </trkpt>
      <trkpt lat="44.14013" lon="4.54288">
        <ele>250.3</ele>
        <time>2019-06-01T08:14:32Z</time>
      </trkpt>
      <trkpt lat="44.14016" lon="4.54289">
        <ele>250.3</ele>
        <time>2019-06-01T08:14:33Z</time>
      </trkpt>
      <trkpt lat="44.14019" lon="4.5429">
        <ele>250.3</ele>
        <time>2019-06-01T08:14:34Z</time>
      </trkpt>
      <trkpt lat="44.14022" lon="4.54291">
        <ele>250.3</ele>
        <time>2019-06-01T08:14:35Z</time>
      </trkpt>
      <trkpt lat="44.14025" lon="4.54293">
        <ele>250.3</ele>
        <time>2019-06-01T08:14:36Z</time>
      </trkpt>
      <trkpt lat="44.14029" lon="4.54294">
        <ele>250.3</ele>
        <time>2019-06-01T08:14:37Z</time>
      </trkpt>
      <trkpt lat="44.14032" lon="4.54298">
        <ele>250.3</ele>
        <time>2019-06-01T08:14:38Z</time>
      </trkpt>
      <trkpt lat="44.14035" lon="4.54302">
        <ele>250.3</ele>
        <time>2019-06-01T08:14:39Z</time>
      </trkpt>
      <trkpt lat="44.14038" lon="4.54308">
        <ele>250.3</ele>
        <time>2019-06-01T08:14:40Z</time>
      </trkpt>
      <trkpt lat="44.14041" lon="4.54313">
        <ele>250.3</ele>
        <time>2019-06-01T08:14:41Z</time>
      </trkpt>
      <trkpt lat="44.14044" lon="4.54318">
        <ele>250.3</ele>
        <time>2019-06-01T08:14:42Z</time>
      </trkpt>
      <trkpt lat="44.14048" lon="4.54322">
        <ele>250.3</ele>
        <time>2019-06-01T08:14:43Z</time>
      </trkpt>
      <trkpt lat="44.1405" lon="4.54327">
        <ele>250.3</ele>
        <time>2019-06-01T08:14:44Z</time>
      </trkpt>
      <trkpt lat="44.14053" lon="4.54331">
        <ele>250.3</ele>
        <time>2019-06-01T08:14:45Z</time>
      </trkpt>
      <trkpt lat="44.14056" lon="4.54336">
        <ele>250.3</ele>
        <time>2019-06-01T08:14:46Z</time>
      </trkpt>
      <trkpt lat="44.14058" lon="4.54339">
        <ele>250.3</ele>
        <time>2019-06-01T08:14:47Z</time>
      </trkpt>
      <trkpt lat="44.1406" lon="4.54346">
        <ele>250.3</ele>
        <time>2019-06-01T08:14:49Z</time>
      </trkpt>
      <trkpt lat="44.1406" lon="4.54351">
        <ele>250.3</ele>
        <time>2019-06-01T08:14:50Z</time>
      </trkpt>
      <trkpt lat="44.1406" lon="4.54357">
        <ele>250.3</ele>
        <time>2019-06-01T08:14:51Z</time>
      </trkpt>
      <trkpt lat="44.14062" lon="4.54361">
        <ele>250.3</ele>
        <time>2019-06-01T08:14:52Z</time>
      </trkpt>
      <trkpt lat="44.14064" lon="4.54365">
        <ele>250.3</ele>
        <time>2019-06-01T08:14:53Z</time>
      </trkpt>
      <trkpt lat="44.14066" lon="4.54368">
        <ele>250.3</ele>
        <time>2019-06-01T08:14:54Z</time>
      </trkpt>
      <trkpt lat="44.14069" lon="4.54371">
        <ele>250.3</ele>
        <time>2019-06-01T08:14:55Z</time>
      </trkpt>
      <trkpt lat="44.14071" lon="4.54375">
        <ele>250.3</ele>
        <time>2019-06-01T08:14:56Z</time>
      </trkpt>
      <trkpt lat="44.14074" lon="4.54378">
        <ele>250.3</ele>
        <time>2019-06-01T08:14:57Z</time>
      </trkpt>
      <trkpt lat="44.14077" lon="4.54381">
        <ele>250.3</ele>
        <time>2019-06-01T08:14:58Z</time>
      </trkpt>
      <trkpt lat="44.1408" lon="4.54384">
        <ele>250.3</ele>
        <time>2019-06-01T08:14:59Z</time>
      </trkpt>
      <trkpt lat="44.14082" lon="4.54387">
        <ele>250.3</ele>
        <time>2019-06-01T08:15:00Z</time>
      </trkpt>
      <trkpt lat="44.14085" lon="4.5439">
        <ele>250.3</ele>
        <time>2019-06-01T08:15:01Z</time>
      </trkpt>
      <trkpt lat="44.14088" lon="4.54393">
        <ele>250.3</ele>
        <time>2019-06-01T08:15:02Z</time>
      </trkpt>
      <trkpt lat="44.1409" lon="4.54396">
        <ele>250.3</ele>
        <time>2019-06-01T08:15:03Z</time>
      </trkpt>
      <trkpt lat="44.14093" lon="4.54399">
        <ele>250.3</ele>
        <time>2019-06-01T08:15:04Z</time>
      </trkpt>
      <trkpt lat="44.14096" lon="4.54401">
        <ele>250.3</ele>
        <time>2019-06-01T08:15:05Z</time>
      </trkpt>
      <trkpt lat="44.14099" lon="4.54404">
        <ele>250.3</ele>
        <time>2019-06-01T08:15:06Z</time>
      </trkpt>
      <trkpt lat="44.14101" lon="4.54407">
        <ele>250.3</ele>
        <time>2019-06-01T08:15:07Z</time>
      </trkpt>
      <trkpt lat="44.14104" lon="4.54409">
        <ele>250.3</ele>
        <time>2019-06-01T08:15:08Z</time>
      </trkpt>
      <trkpt lat="44.14106" lon="4.54411">
        <ele>250.3</ele>
        <time>2019-06-01T08:15:09Z</time>
      </trkpt>
      <trkpt lat="44.1411" lon="4.54414">
        <ele>250.3</ele>
        <time>2019-06-01T08:15:11Z</time>
      </trkpt>
      <trkpt lat="44.14112" lon="4.54417">
        <ele>250.3</ele>
        <time>2019-06-01T08:15:14Z</time>
      </trkpt>
      <trkpt lat="44.14116" lon="4.54418">
        <ele>250.3</ele>
        <time>2019-06-01T08:17:06Z</time>
      </trkpt>
      <trkpt lat="44.14117" lon="4.54422">
        <ele>250.2</ele>
        <time>2019-06-01T08:17:07Z</time>
      </trkpt>
      <trkpt lat="44.14117" lon="4.54427">
        <ele>250</ele>
        <time>2019-06-01T08:17:08Z</time>
      </trkpt>
      <trkpt lat="44.14116" lon="4.54433">
        <ele>249.9</ele>
        <time>2019-06-01T08:17:09Z</time>
      </trkpt>
      <trkpt lat="44.14115" lon="4.54439">
        <ele>249.8</ele>
        <time>2019-06-01T08:17:10Z</time>
      </trkpt>
      <trkpt lat="44.14114" lon="4.54445">
        <ele>249.7</ele>
        <time>2019-06-01T08:17:11Z</time>
      </trkpt>
      <trkpt lat="44.14112" lon="4.54451">
        <ele>249.6</ele>
        <time>2019-06-01T08:17:12Z</time>
      </trkpt>
      <trkpt lat="44.1411" lon="4.54457">
        <ele>249.6</ele>
        <time>2019-06-01T08:17:13Z</time>
      </trkpt>
      <trkpt lat="44.14107" lon="4.54463">
        <ele>249.5</ele>
        <time>2019-06-01T08:17:14Z</time>
      </trkpt>
      <trkpt lat="44.14105" lon="4.5447">
        <ele>249.5</ele>
        <time>2019-06-01T08:17:15Z</time>
      </trkpt>
      <trkpt lat="44.14103" lon="4.54476">
        <ele>249.4</ele>
        <time>2019-06-01T08:17:16Z</time>
      </trkpt>
      <trkpt lat="44.14101" lon="4.54482">
        <ele>249.4</ele>
        <time>2019-06-01T08:17:17Z</time>
      </trkpt>
      <trkpt lat="44.14099" lon="4.54488">
        <ele>249.4</ele>
        <time>2019-06-01T08:17:18Z</time>
      </trkpt>
      <trkpt lat="44.14098" lon="4.54494">
        <ele>249.3</ele>
        <time>2019-06-01T08:17:19Z</time>
      </trkpt>
      <trkpt lat="44.14096" lon="4.545">
        <ele>249.3</ele>
        <time>2019-06-01T08:17:20Z</time>
      </trkpt>
      <trkpt lat="44.14095" lon="4.54506">
        <ele>249.3</ele>
        <time>2019-06-01T08:17:21Z</time>
      </trkpt>
      <trkpt lat="44.14094" lon="4.54513">
        <ele>249.3</ele>
        <time>2019-06-01T08:17:22Z</time>
      </trkpt>
      <trkpt lat="44.14092" lon="4.54519">
        <ele>249.3</ele>
        <time>2019-06-01T08:17:23Z</time>
      </trkpt>
      <trkpt lat="44.1409" lon="4.54526">
        <ele>249.3</ele>
        <time>2019-06-01T08:17:24Z</time>
      </trkpt>
      <trkpt lat="44.14089" lon="4.54532">
        <ele>249.3</ele>
        <time>2019-06-01T08:17:25Z</time>
      </trkpt>
      <trkpt lat="44.14086" lon="4.54538">
        <ele>249.3</ele>
        <time>2019-06-01T08:17:26Z</time>
      </trkpt>
      <trkpt lat="44.14084" lon="4.54544">
        <ele>249.3</ele>
        <time>2019-06-01T08:17:27Z</time>
      </trkpt>
      <trkpt lat="44.14082" lon="4.54549">
        <ele>249.4</ele>
        <time>2019-06-01T08:17:28Z</time>
      </trkpt>
      <trkpt lat="44.14081" lon="4.54555">
        <ele>249.4</ele>
        <time>2019-06-01T08:17:29Z</time>
      </trkpt>
      <trkpt lat="44.14079" lon="4.54559">
        <ele>249.4</ele>
        <time>2019-06-01T08:17:30Z</time>
      </trkpt>
      <trkpt lat="44.14077" lon="4.54564">
        <ele>249.4</ele>
        <time>2019-06-01T08:17:31Z</time>
      </trkpt>
      <trkpt lat="44.14076" lon="4.54568">
        <ele>249.4</ele>
        <time>2019-06-01T08:17:32Z</time>
      </trkpt>
      <trkpt lat="44.14075" lon="4.54572">
        <ele>249.4</ele>
        <time>2019-06-01T08:17:33Z</time>
      </trkpt>
      <trkpt lat="44.14074" lon="4.54576">
        <ele>249.4</ele>
        <time>2019-06-01T08:17:34Z</time>
      </trkpt>
      <trkpt lat="44.14074" lon="4.5458">
        <ele>249.3</ele>
        <time>2019-06-01T08:17:35Z</time>
      </trkpt>
      <trkpt lat="44.14074" lon="4.54584">
        <ele>249.3</ele>
        <time>2019-06-01T08:17:36Z</time>
      </trkpt>
      <trkpt lat="44.14074" lon="4.54588">
        <ele>249.3</ele>
        <time>2019-06-01T08:17:37Z</time>
      </trkpt>
      <trkpt lat="44.14074" lon="4.54594">
        <ele>249.3</ele>
        <time>2019-06-01T08:17:39Z</time>
      </trkpt>
      <trkpt lat="44.14077" lon="4.54599">
        <ele>249.3</ele>
        <time>2019-06-01T08:17:41Z</time>
      </trkpt>
      <trkpt lat="44.14079" lon="4.54604">
        <ele>249.3</ele>
        <time>2019-06-01T08:17:43Z</time>
      </trkpt>
      <trkpt lat="44.14083" lon="4.5461">
        <ele>249.4</ele>
        <time>2019-06-01T08:17:45Z</time>
      </trkpt>
      <trkpt lat="44.14085" lon="4.54613">
        <ele>249.4</ele>
        <time>2019-06-01T08:17:46Z</time>
      </trkpt>
      <trkpt lat="44.14088" lon="4.54616">
        <ele>249.4</ele>
        <time>2019-06-01T08:17:47Z</time>
      </trkpt>
      <trkpt lat="44.1409" lon="4.54619">
        <ele>249.5</ele>
        <time>2019-06-01T08:17:48Z</time>
      </trkpt>
      <trkpt lat="44.14093" lon="4.54623">
        <ele>249.5</ele>
        <time>2019-06-01T08:17:49Z</time>
      </trkpt>
      <trkpt lat="44.14096" lon="4.54627">
        <ele>249.6</ele>
        <time>2019-06-01T08:17:50Z</time>
      </trkpt>
      <trkpt lat="44.14099" lon="4.5463">
        <ele>249.7</ele>
        <time>2019-06-01T08:17:51Z</time>
      </trkpt>
      <trkpt lat="44.14101" lon="4.54633">
        <ele>249.8</ele>
        <time>2019-06-01T08:17:52Z</time>
      </trkpt>
      <trkpt lat="44.14104" lon="4.54636">
        <ele>249.9</ele>
        <time>2019-06-01T08:17:53Z</time>
      </trkpt>
      <trkpt lat="44.14107" lon="4.5464">
        <ele>250.1</ele>
        <time>2019-06-01T08:17:54Z</time>
      </trkpt>
      <trkpt lat="44.1411" lon="4.54643">
        <ele>250.2</ele>
        <time>2019-06-01T08:17:55Z</time>
      </trkpt>
      <trkpt lat="44.14115" lon="4.54646">
        <ele>250.5</ele>
        <time>2019-06-01T08:17:56Z</time>
      </trkpt>
      <trkpt lat="44.14119" lon="4.54648">
        <ele>250.5</ele>
        <time>2019-06-01T08:17:57Z</time>
      </trkpt>
      <trkpt lat="44.14123" lon="4.5465">
        <ele>250.5</ele>
        <time>2019-06-01T08:17:58Z</time>
      </trkpt>
      <trkpt lat="44.14127" lon="4.54652">
        <ele>250.5</ele>
        <time>2019-06-01T08:17:59Z</time>
      </trkpt>
      <trkpt lat="44.14131" lon="4.54654">
        <ele>250.5</ele>
        <time>2019-06-01T08:18:00Z</time>
      </trkpt>
      <trkpt lat="44.14135" lon="4.54657">
        <ele>250.5</ele>
        <time>2019-06-01T08:18:01Z</time>
      </trkpt>
      <trkpt lat="44.14139" lon="4.54659">
        <ele>250.5</ele>
        <time>2019-06-01T08:18:02Z</time>
      </trkpt>
      <trkpt lat="44.14142" lon="4.54662">
        <ele>250.5</ele>
        <time>2019-06-01T08:18:03Z</time>
      </trkpt>
      <trkpt lat="44.14145" lon="4.54664">
        <ele>250.5</ele>
        <time>2019-06-01T08:18:04Z</time>
      </trkpt>
      <trkpt lat="44.14148" lon="4.54667">
        <ele>250.5</ele>
        <time>2019-06-01T08:18:05Z</time>
      </trkpt>
      <trkpt lat="44.14151" lon="4.54669">
        <ele>250.5</ele>
        <time>2019-06-01T08:18:06Z</time>
      </trkpt>
      <trkpt lat="44.14154" lon="4.54671">
        <ele>250.5</ele>
        <time>2019-06-01T08:18:07Z</time>
      </trkpt>
      <trkpt lat="44.14158" lon="4.54674">
        <ele>250.5</ele>
        <time>2019-06-01T08:18:09Z</time>
      </trkpt>
      <trkpt lat="44.14163" lon="4.54676">
        <ele>250.5</ele>
        <time>2019-06-01T08:18:12Z</time>
      </trkpt>
      <trkpt lat="44.14166" lon="4.54678">
        <ele>250.6</ele>
        <time>2019-06-01T08:18:13Z</time>
      </trkpt>
      <trkpt lat="44.14169" lon="4.54681">
        <ele>250.6</ele>
        <time>2019-06-01T08:18:14Z</time>
      </trkpt>
      <trkpt lat="44.14173" lon="4.54684">
        <ele>250.6</ele>
        <time>2019-06-01T08:18:15Z</time>
      </trkpt>
      <trkpt lat="44.14176" lon="4.54687">
        <ele>250.7</ele>
        <time>2019-06-01T08:18:16Z</time>
      </trkpt>
      <trkpt lat="44.14179" lon="4.5469">
        <ele>250.7</ele>
        <time>2019-06-01T08:18:17Z</time>
      </trkpt>
      <trkpt lat="44.14181" lon="4.54693">
        <ele>250.8</ele>
        <time>2019-06-01T08:18:18Z</time>
      </trkpt>
      <trkpt lat="44.14185" lon="4.54697">
        <ele>250.9</ele>
        <time>2019-06-01T08:18:20Z</time>
      </trkpt>
      <trkpt lat="44.14187" lon="4.54699">
        <ele>250.9</ele>
        <time>2019-06-01T08:18:21Z</time>
      </trkpt>
      <trkpt lat="44.1419" lon="4.54701">
        <ele>251</ele>
        <time>2019-06-01T08:18:22Z</time>
      </trkpt>
      <trkpt lat="44.14193" lon="4.54702">
        <ele>251.1</ele>
        <time>2019-06-01T08:18:23Z</time>
      </trkpt>
      <trkpt lat="44.14197" lon="4.54704">
        <ele>251.3</ele>
        <time>2019-06-01T08:18:24Z</time>
      </trkpt>
      <trkpt lat="44.14201" lon="4.54707">
        <ele>251.6</ele>
        <time>2019-06-01T08:18:25Z</time>
      </trkpt>
      <trkpt lat="44.14205" lon="4.54711">
        <ele>251.8</ele>
        <time>2019-06-01T08:18:26Z</time>
      </trkpt>
      <trkpt lat="44.14207" lon="4.54713">
        <ele>252.1</ele>
        <time>2019-06-01T08:18:27Z</time>
      </trkpt>
      <trkpt lat="44.14212" lon="4.54718">
        <ele>252.5</ele>
        <time>2019-06-01T08:18:29Z</time>
      </trkpt>
      <trkpt lat="44.14215" lon="4.54721">
        <ele>252.8</ele>
        <time>2019-06-01T08:18:30Z</time>
      </trkpt>
      <trkpt lat="44.14217" lon="4.54724">
        <ele>253</ele>
        <time>2019-06-01T08:18:31Z</time>
      </trkpt>
      <trkpt lat="44.14219" lon="4.54726">
        <ele>253.2</ele>
        <time>2019-06-01T08:18:32Z</time>
      </trkpt>
      <trkpt lat="44.14222" lon="4.54729">
        <ele>253.4</ele>
        <time>2019-06-01T08:18:33Z</time>
      </trkpt>
      <trkpt lat="44.14224" lon="4.5473">
        <ele>253.6</ele>
        <time>2019-06-01T08:18:34Z</time>
      </trkpt>
      <trkpt lat="44.14227" lon="4.54731">
        <ele>253.8</ele>
        <time>2019-06-01T08:18:35Z</time>
      </trkpt>
      <trkpt lat="44.14231" lon="4.54732">
        <ele>254</ele>
        <time>2019-06-01T08:18:36Z</time>
      </trkpt>
      <trkpt lat="44.14234" lon="4.54734">
        <ele>254</ele>
        <time>2019-06-01T08:18:37Z</time>
      </trkpt>
      <trkpt lat="44.14237" lon="4.54735">
        <ele>254.1</ele>
        <time>2019-06-01T08:18:38Z</time>
      </trkpt>
      <trkpt lat="44.1424" lon="4.54736">
        <ele>254.2</ele>
        <time>2019-06-01T08:18:39Z</time>
      </trkpt>
      <trkpt lat="44.14243" lon="4.54737">
        <ele>254.2</ele>
        <time>2019-06-01T08:18:40Z</time>
      </trkpt>
      <trkpt lat="44.14246" lon="4.54738">
        <ele>254.3</ele>
        <time>2019-06-01T08:18:41Z</time>
      </trkpt>
      <trkpt lat="44.14249" lon="4.54739">
        <ele>254.3</ele>
        <time>2019-06-01T08:18:42Z</time>
      </trkpt>
      <trkpt lat="44.14253" lon="4.54742">
        <ele>254.4</ele>
        <time>2019-06-01T08:18:43Z</time>
      </trkpt>
      <trkpt lat="44.14257" lon="4.54745">
        <ele>254.4</ele>
        <time>2019-06-01T08:18:44Z</time>
      </trkpt>
      <trkpt lat="44.1426" lon="4.54747">
        <ele>254.5</ele>
        <time>2019-06-01T08:18:45Z</time>
      </trkpt>
      <trkpt lat="44.14262" lon="4.54749">
        <ele>254.5</ele>
        <time>2019-06-01T08:18:46Z</time>
      </trkpt>
      <trkpt lat="44.14265" lon="4.54752">
        <ele>254.6</ele>
        <time>2019-06-01T08:18:47Z</time>
      </trkpt>
      <trkpt lat="44.14268" lon="4.54754">
        <ele>254.6</ele>
        <time>2019-06-01T08:18:48Z</time>
      </trkpt>
      <trkpt lat="44.14271" lon="4.54756">
        <ele>254.6</ele>
        <time>2019-06-01T08:18:49Z</time>
      </trkpt>
      <trkpt lat="44.14274" lon="4.5476">
        <ele>255</ele>
        <time>2019-06-01T08:18:50Z</time>
      </trkpt>
      <trkpt lat="44.14277" lon="4.54763">
        <ele>255.3</ele>
        <time>2019-06-01T08:18:51Z</time>
      </trkpt>
      <trkpt lat="44.14279" lon="4.54768">
        <ele>255.6</ele>
        <time>2019-06-01T08:18:53Z</time>
      </trkpt>
      <trkpt lat="44.14278" lon="4.54773">
        <ele>255.8</ele>
        <time>2019-06-01T08:18:55Z</time>
      </trkpt>
      <trkpt lat="44.14276" lon="4.54778">
        <ele>256</ele>
        <time>2019-06-01T08:18:57Z</time>
      </trkpt>
      <trkpt lat="44.14275" lon="4.54782">
        <ele>256.2</ele>
        <time>2019-06-01T08:19:00Z</time>
      </trkpt>
      <trkpt lat="44.14274" lon="4.54787">
        <ele>256.3</ele>
        <time>2019-06-01T08:19:02Z</time>
      </trkpt>
      <trkpt lat="44.14273" lon="4.54794">
        <ele>256.6</ele>
        <time>2019-06-01T08:19:04Z</time>
      </trkpt>
      <trkpt lat="44.14273" lon="4.54798">
        <ele>256.7</ele>
        <time>2019-06-01T08:19:05Z</time>
      </trkpt>
      <trkpt lat="44.1427" lon="4.54802">
        <ele>256.9</ele>
        <time>2019-06-01T08:19:07Z</time>
      </trkpt>
      <trkpt lat="44.14266" lon="4.54803">
        <ele>257.1</ele>
        <time>2019-06-01T08:19:08Z</time>
      </trkpt>
      <trkpt lat="44.14262" lon="4.54802">
        <ele>257.3</ele>
        <time>2019-06-01T08:19:09Z</time>
      </trkpt>
      <trkpt lat="44.14258" lon="4.548">
        <ele>257.5</ele>
        <time>2019-06-01T08:19:10Z</time>
      </trkpt>
      <trkpt lat="44.14256" lon="4.54798">
        <ele>257.6</ele>
        <time>2019-06-01T08:19:11Z</time>
      </trkpt>
      <trkpt lat="44.14253" lon="4.54795">
        <ele>257.8</ele>
        <time>2019-06-01T08:19:12Z</time>
      </trkpt>
      <trkpt lat="44.1425" lon="4.54793">
        <ele>257.9</ele>
        <time>2019-06-01T08:19:13Z</time>
      </trkpt>
      <trkpt lat="44.14246" lon="4.54789">
        <ele>258</ele>
        <time>2019-06-01T08:19:14Z</time>
      </trkpt>
      <trkpt lat="44.14239" lon="4.54783">
        <ele>258.1</ele>
        <time>2019-06-01T08:19:15Z</time>
      </trkpt>
      <trkpt lat="44.14236" lon="4.54782">
        <ele>258</ele>
        <time>2019-06-01T08:19:16Z</time>
      </trkpt>
      <trkpt lat="44.14233" lon="4.5478">
        <ele>258</ele>
        <time>2019-06-01T08:19:17Z</time>
      </trkpt>
      <trkpt lat="44.1423" lon="4.54779">
        <ele>258</ele>
        <time>2019-06-01T08:19:18Z</time>
      </trkpt>
      <trkpt lat="44.14227" lon="4.54779">
        <ele>257.9</ele>
        <time>2019-06-01T08:19:19Z</time>
      </trkpt>
      <trkpt lat="44.14224" lon="4.5478">
        <ele>257.9</ele>
        <time>2019-06-01T08:19:20Z</time>
      </trkpt>
      <trkpt lat="44.14221" lon="4.54784">
        <ele>257.8</ele>
        <time>2019-06-01T08:19:21Z</time>
      </trkpt>
      <trkpt lat="44.14208" lon="4.54788">
        <ele>257.4</ele>
        <time>2019-06-01T08:19:22Z</time>
      </trkpt>
      <trkpt lat="44.14207" lon="4.54791">
        <ele>257.2</ele>
        <time>2019-06-01T08:19:23Z</time>
      </trkpt>
      <trkpt lat="44.14211" lon="4.54793">
        <ele>256.8</ele>
        <time>2019-06-01T08:19:24Z</time>
      </trkpt>
      <trkpt lat="44.14213" lon="4.54802">
        <ele>256.1</ele>
        <time>2019-06-01T08:19:26Z</time>
      </trkpt>
      <trkpt lat="44.14212" lon="4.54808">
        <ele>255.6</ele>
        <time>2019-06-01T08:19:27Z</time>
      </trkpt>
      <trkpt lat="44.14212" lon="4.54813">
        <ele>255.2</ele>
        <time>2019-06-01T08:19:28Z</time>
      </trkpt>
      <trkpt lat="44.14215" lon="4.54822">
        <ele>254.6</ele>
        <time>2019-06-01T08:19:29Z</time>
      </trkpt>
      <trkpt lat="44.14218" lon="4.54826">
        <ele>254.4</ele>
        <time>2019-06-01T08:19:30Z</time>
      </trkpt>
      <trkpt lat="44.14222" lon="4.54829">
        <ele>254.2</ele>
        <time>2019-06-01T08:19:31Z</time>
      </trkpt>
      <trkpt lat="44.14225" lon="4.54832">
        <ele>254.1</ele>
        <time>2019-06-01T08:19:32Z</time>
      </trkpt>
      <trkpt lat="44.14228" lon="4.54835">
        <ele>254</ele>
        <time>2019-06-01T08:19:33Z</time>
      </trkpt>
      <trkpt lat="44.1423" lon="4.54839">
        <ele>253.9</ele>
        <time>2019-06-01T08:19:34Z</time>
      </trkpt>
      <trkpt lat="44.14231" lon="4.54844">
        <ele>253.8</ele>
        <time>2019-06-01T08:19:35Z</time>
      </trkpt>
      <trkpt lat="44.14231" lon="4.54849">
        <ele>253.8</ele>
        <time>2019-06-01T08:19:36Z</time>
      </trkpt>
      <trkpt lat="44.1423" lon="4.54854">
        <ele>253.8</ele>
        <time>2019-06-01T08:19:37Z</time>
      </trkpt>
      <trkpt lat="44.14228" lon="4.54858">
        <ele>253.7</ele>
        <time>2019-06-01T08:19:38Z</time>
      </trkpt>
      <trkpt lat="44.14226" lon="4.54863">
        <ele>253.7</ele>
        <time>2019-06-01T08:19:39Z</time>
      </trkpt>
      <trkpt lat="44.14223" lon="4.54868">
        <ele>253.7</ele>
        <time>2019-06-01T08:19:40Z</time>
      </trkpt>
      <trkpt lat="44.14221" lon="4.54873">
        <ele>253.7</ele>
        <time>2019-06-01T08:19:41Z</time>
      </trkpt>
      <trkpt lat="44.14219" lon="4.54879">
        <ele>253.7</ele>
        <time>2019-06-01T08:19:42Z</time>
      </trkpt>
      <trkpt lat="44.14217" lon="4.54885">
        <ele>253.7</ele>
        <time>2019-06-01T08:19:43Z</time>
      </trkpt>
      <trkpt lat="44.14216" lon="4.5489">
        <ele>253.7</ele>
        <time>2019-06-01T08:19:44Z</time>
      </trkpt>
      <trkpt lat="44.14213" lon="4.54895">
        <ele>253.7</ele>
        <time>2019-06-01T08:19:45Z</time>
      </trkpt>
      <trkpt lat="44.14211" lon="4.549">
        <ele>253.7</ele>
        <time>2019-06-01T08:19:46Z</time>
      </trkpt>
      <trkpt lat="44.14209" lon="4.54905">
        <ele>253.7</ele>
        <time>2019-06-01T08:19:47Z</time>
      </trkpt>
      <trkpt lat="44.14208" lon="4.5491">
        <ele>253.7</ele>
        <time>2019-06-01T08:19:48Z</time>
      </trkpt>
      <trkpt lat="44.14207" lon="4.54915">
        <ele>253.7</ele>
        <time>2019-06-01T08:19:49Z</time>
      </trkpt>
      <trkpt lat="44.14208" lon="4.54919">
        <ele>253.7</ele>
        <time>2019-06-01T08:19:50Z</time>
      </trkpt>
      <trkpt lat="44.1421" lon="4.54922">
        <ele>253.7</ele>
        <time>2019-06-01T08:19:51Z</time>
      </trkpt>
      <trkpt lat="44.14213" lon="4.54925">
        <ele>253.8</ele>
        <time>2019-06-01T08:19:52Z</time>
      </trkpt>
      <trkpt lat="44.14215" lon="4.54929">
        <ele>253.8</ele>
        <time>2019-06-01T08:19:53Z</time>
      </trkpt>
      <trkpt lat="44.14217" lon="4.54932">
        <ele>253.9</ele>
        <time>2019-06-01T08:19:54Z</time>
      </trkpt>
      <trkpt lat="44.14219" lon="4.54936">
        <ele>254</ele>
        <time>2019-06-01T08:19:55Z</time>
      </trkpt>
      <trkpt lat="44.14221" lon="4.54939">
        <ele>254</ele>
        <time>2019-06-01T08:19:56Z</time>
      </trkpt>
      <trkpt lat="44.14223" lon="4.54942">
        <ele>254.1</ele>
        <time>2019-06-01T08:19:57Z</time>
      </trkpt>
      <trkpt lat="44.14225" lon="4.54945">
        <ele>254.1</ele>
        <time>2019-06-01T08:19:58Z</time>
      </trkpt>
      <trkpt lat="44.14227" lon="4.54948">
        <ele>254.2</ele>
        <time>2019-06-01T08:19:59Z</time>
      </trkpt>
      <trkpt lat="44.1423" lon="4.54951">
        <ele>254.2</ele>
        <time>2019-06-01T08:20:01Z</time>
      </trkpt>
      <trkpt lat="44.1423" lon="4.54955">
        <ele>254.3</ele>
        <time>2019-06-01T08:20:03Z</time>
      </trkpt>
      <trkpt lat="44.14227" lon="4.54962">
        <ele>254.4</ele>
        <time>2019-06-01T08:20:05Z</time>
      </trkpt>
      <trkpt lat="44.14224" lon="4.54967">
        <ele>254.5</ele>
        <time>2019-06-01T08:20:06Z</time>
      </trkpt>
      <trkpt lat="44.14222" lon="4.54973">
        <ele>254.7</ele>
        <time>2019-06-01T08:20:07Z</time>
      </trkpt>
      <trkpt lat="44.14221" lon="4.54979">
        <ele>254.7</ele>
        <time>2019-06-01T08:20:08Z</time>
      </trkpt>
      <trkpt lat="44.14221" lon="4.54985">
        <ele>254.8</ele>
        <time>2019-06-01T08:20:09Z</time>
      </trkpt>
      <trkpt lat="44.14222" lon="4.54989">
        <ele>254.8</ele>
        <time>2019-06-01T08:20:10Z</time>
      </trkpt>
      <trkpt lat="44.14224" lon="4.54993">
        <ele>254.8</ele>
        <time>2019-06-01T08:20:11Z</time>
      </trkpt>
      <trkpt lat="44.14227" lon="4.54995">
        <ele>254.8</ele>
        <time>2019-06-01T08:20:12Z</time>
      </trkpt>
      <trkpt lat="44.14229" lon="4.54997">
        <ele>255.4</ele>
        <time>2019-06-01T08:20:13Z</time>
      </trkpt>
      <trkpt lat="44.14231" lon="4.55">
        <ele>255.8</ele>
        <time>2019-06-01T08:20:14Z</time>
      </trkpt>
      <trkpt lat="44.14233" lon="4.55003">
        <ele>256.1</ele>
        <time>2019-06-01T08:20:15Z</time>
      </trkpt>
      <trkpt lat="44.14235" lon="4.55006">
        <ele>256.3</ele>
        <time>2019-06-01T08:20:16Z</time>
      </trkpt>
      <trkpt lat="44.14237" lon="4.55009">
        <ele>256.6</ele>
        <time>2019-06-01T08:20:17Z</time>
      </trkpt>
      <trkpt lat="44.14238" lon="4.55015">
        <ele>257</ele>
        <time>2019-06-01T08:20:19Z</time>
      </trkpt>
      <trkpt lat="44.14238" lon="4.55023">
        <ele>257.4</ele>
        <time>2019-06-01T08:20:21Z</time>
      </trkpt>
      <trkpt lat="44.14238" lon="4.55027">
        <ele>257.6</ele>
        <time>2019-06-01T08:20:22Z</time>
      </trkpt>
      <trkpt lat="44.14239" lon="4.55031">
        <ele>257.8</ele>
        <time>2019-06-01T08:20:23Z</time>
      </trkpt>
      <trkpt lat="44.1424" lon="4.55038">
        <ele>258.2</ele>
        <time>2019-06-01T08:20:25Z</time>
      </trkpt>
      <trkpt lat="44.14241" lon="4.55041">
        <ele>258.3</ele>
        <time>2019-06-01T08:20:26Z</time>
      </trkpt>
      <trkpt lat="44.14242" lon="4.55045">
        <ele>258.5</ele>
        <time>2019-06-01T08:20:27Z</time>
      </trkpt>
      <trkpt lat="44.14243" lon="4.55049">
        <ele>258.7</ele>
        <time>2019-06-01T08:20:28Z</time>
      </trkpt>
      <trkpt lat="44.14244" lon="4.55052">
        <ele>258.8</ele>
        <time>2019-06-01T08:20:29Z</time>
      </trkpt>
      <trkpt lat="44.14245" lon="4.55056">
        <ele>259</ele>
        <time>2019-06-01T08:20:30Z</time>
      </trkpt>
      <trkpt lat="44.14246" lon="4.5506">
        <ele>259.1</ele>
        <time>2019-06-01T08:20:31Z</time>
      </trkpt>
      <trkpt lat="44.14247" lon="4.55063">
        <ele>259.3</ele>
        <time>2019-06-01T08:20:32Z</time>
      </trkpt>
      <trkpt lat="44.14249" lon="4.5507">
        <ele>259.5</ele>
        <time>2019-06-01T08:20:34Z</time>
      </trkpt>
      <trkpt lat="44.14251" lon="4.55073">
        <ele>259.6</ele>
        <time>2019-06-01T08:20:35Z</time>
      </trkpt>
      <trkpt lat="44.14252" lon="4.55076">
        <ele>259.7</ele>
        <time>2019-06-01T08:20:36Z</time>
      </trkpt>
      <trkpt lat="44.14255" lon="4.55083">
        <ele>259.9</ele>
        <time>2019-06-01T08:20:38Z</time>
      </trkpt>
      <trkpt lat="44.14257" lon="4.55087">
        <ele>260.1</ele>
        <time>2019-06-01T08:20:39Z</time>
      </trkpt>
      <trkpt lat="44.14258" lon="4.55091">
        <ele>260.2</ele>
        <time>2019-06-01T08:20:40Z</time>
      </trkpt>
      <trkpt lat="44.1426" lon="4.55095">
        <ele>260.3</ele>
        <time>2019-06-01T08:20:41Z</time>
      </trkpt>
      <trkpt lat="44.14261" lon="4.55098">
        <ele>260.4</ele>
        <time>2019-06-01T08:20:42Z</time>
      </trkpt>
      <trkpt lat="44.14263" lon="4.55102">
        <ele>260.5</ele>
        <time>2019-06-01T08:20:43Z</time>
      </trkpt>
      <trkpt lat="44.14264" lon="4.55105">
        <ele>260.6</ele>
        <time>2019-06-01T08:20:44Z</time>
      </trkpt>
      <trkpt lat="44.14266" lon="4.55109">
        <ele>260.7</ele>
        <time>2019-06-01T08:20:45Z</time>
      </trkpt>
      <trkpt lat="44.14268" lon="4.55113">
        <ele>260.8</ele>
        <time>2019-06-01T08:20:46Z</time>
      </trkpt>
      <trkpt lat="44.1427" lon="4.55117">
        <ele>260.9</ele>
        <time>2019-06-01T08:20:47Z</time>
      </trkpt>
      <trkpt lat="44.14272" lon="4.5512">
        <ele>261</ele>
        <time>2019-06-01T08:20:48Z</time>
      </trkpt>
      <trkpt lat="44.14274" lon="4.55123">
        <ele>261.1</ele>
        <time>2019-06-01T08:20:49Z</time>
      </trkpt>
      <trkpt lat="44.14275" lon="4.55127">
        <ele>261.2</ele>
        <time>2019-06-01T08:20:50Z</time>
      </trkpt>
      <trkpt lat="44.14277" lon="4.5513">
        <ele>261.3</ele>
        <time>2019-06-01T08:20:51Z</time>
      </trkpt>
      <trkpt lat="44.14279" lon="4.55133">
        <ele>261.4</ele>
        <time>2019-06-01T08:20:52Z</time>
      </trkpt>
      <trkpt lat="44.14281" lon="4.55136">
        <ele>261.5</ele>
        <time>2019-06-01T08:20:53Z</time>
      </trkpt>
      <trkpt lat="44.14283" lon="4.55139">
        <ele>261.6</ele>
        <time>2019-06-01T08:20:54Z</time>
      </trkpt>
      <trkpt lat="44.14286" lon="4.55141">
        <ele>261.8</ele>
        <time>2019-06-01T08:20:55Z</time>
      </trkpt>
      <trkpt lat="44.14288" lon="4.55144">
        <ele>261.9</ele>
        <time>2019-06-01T08:20:56Z</time>
      </trkpt>
      <trkpt lat="44.1429" lon="4.55147">
        <ele>262</ele>
        <time>2019-06-01T08:20:57Z</time>
      </trkpt>
      <trkpt lat="44.14292" lon="4.55149">
        <ele>262.1</ele>
        <time>2019-06-01T08:20:58Z</time>
      </trkpt>
      <trkpt lat="44.14294" lon="4.55152">
        <ele>262.3</ele>
        <time>2019-06-01T08:20:59Z</time>
      </trkpt>
      <trkpt lat="44.14296" lon="4.55155">
        <ele>262.4</ele>
        <time>2019-06-01T08:21:00Z</time>
      </trkpt>
      <trkpt lat="44.14298" lon="4.55158">
        <ele>262.5</ele>
        <time>2019-06-01T08:21:01Z</time>
      </trkpt>
      <trkpt lat="44.14299" lon="4.55161">
        <ele>262.7</ele>
        <time>2019-06-01T08:21:02Z</time>
      </trkpt>
      <trkpt lat="44.14301" lon="4.55164">
        <ele>262.8</ele>
        <time>2019-06-01T08:21:03Z</time>
      </trkpt>
      <trkpt lat="44.14303" lon="4.55167">
        <ele>262.9</ele>
        <time>2019-06-01T08:21:04Z</time>
      </trkpt>
      <trkpt lat="44.14305" lon="4.5517">
        <ele>263.1</ele>
        <time>2019-06-01T08:21:05Z</time>
      </trkpt>
      <trkpt lat="44.14307" lon="4.55172">
        <ele>263.2</ele>
        <time>2019-06-01T08:21:06Z</time>
      </trkpt>
      <trkpt lat="44.1431" lon="4.55174">
        <ele>263.3</ele>
        <time>2019-06-01T08:21:07Z</time>
      </trkpt>
      <trkpt lat="44.14313" lon="4.55176">
        <ele>263.5</ele>
        <time>2019-06-01T08:21:08Z</time>
      </trkpt>
      <trkpt lat="44.14315" lon="4.55178">
        <ele>263.6</ele>
        <time>2019-06-01T08:21:09Z</time>
      </trkpt>
      <trkpt lat="44.14318" lon="4.55181">
        <ele>263.7</ele>
        <time>2019-06-01T08:21:10Z</time>
      </trkpt>
      <trkpt lat="44.1432" lon="4.55183">
        <ele>263.9</ele>
        <time>2019-06-01T08:21:11Z</time>
      </trkpt>
      <trkpt lat="44.14323" lon="4.55184">
        <ele>264</ele>
        <time>2019-06-01T08:21:12Z</time>
      </trkpt>
      <trkpt lat="44.14325" lon="4.55186">
        <ele>264.1</ele>
        <time>2019-06-01T08:21:13Z</time>
      </trkpt>
      <trkpt lat="44.14328" lon="4.55189">
        <ele>264.2</ele>
        <time>2019-06-01T08:21:14Z</time>
      </trkpt>
      <trkpt lat="44.1433" lon="4.55191">
        <ele>264.4</ele>
        <time>2019-06-01T08:21:15Z</time>
      </trkpt>
      <trkpt lat="44.14333" lon="4.55193">
        <ele>264.5</ele>
        <time>2019-06-01T08:21:16Z</time>
      </trkpt>
      <trkpt lat="44.14335" lon="4.55195">
        <ele>264.6</ele>
        <time>2019-06-01T08:21:17Z</time>
      </trkpt>
      <trkpt lat="44.14338" lon="4.55198">
        <ele>264.8</ele>
        <time>2019-06-01T08:21:18Z</time>
      </trkpt>
      <trkpt lat="44.1434" lon="4.552">
        <ele>264.9</ele>
        <time>2019-06-01T08:21:19Z</time>
      </trkpt>
      <trkpt lat="44.14343" lon="4.55203">
        <ele>265.1</ele>
        <time>2019-06-01T08:21:20Z</time>
      </trkpt>
      <trkpt lat="44.14345" lon="4.55205">
        <ele>265.2</ele>
        <time>2019-06-01T08:21:21Z</time>
      </trkpt>
      <trkpt lat="44.14347" lon="4.55207">
        <ele>265.3</ele>
        <time>2019-06-01T08:21:22Z</time>
      </trkpt>
      <trkpt lat="44.1435" lon="4.55209">
        <ele>265.5</ele>
        <time>2019-06-01T08:21:23Z</time>
      </trkpt>
      <trkpt lat="44.14352" lon="4.55211">
        <ele>265.6</ele>
        <time>2019-06-01T08:21:24Z</time>
      </trkpt>
      <trkpt lat="44.14355" lon="4.55214">
        <ele>265.8</ele>
        <time>2019-06-01T08:21:25Z</time>
      </trkpt>
      <trkpt lat="44.14357" lon="4.55216">
        <ele>265.9</ele>
        <time>2019-06-01T08:21:26Z</time>
      </trkpt>
      <trkpt lat="44.14359" lon="4.55218">
        <ele>266</ele>
        <time>2019-06-01T08:21:27Z</time>
      </trkpt>
      <trkpt lat="44.14362" lon="4.5522">
        <ele>266.2</ele>
        <time>2019-06-01T08:21:28Z</time>
      </trkpt>
      <trkpt lat="44.14364" lon="4.55223">
        <ele>266.3</ele>
        <time>2019-06-01T08:21:29Z</time>
      </trkpt>
      <trkpt lat="44.14366" lon="4.55225">
        <ele>266.5</ele>
        <time>2019-06-01T08:21:30Z</time>
      </trkpt>
      <trkpt lat="44.14369" lon="4.55227">
        <ele>266.6</ele>
        <time>2019-06-01T08:21:31Z</time>
      </trkpt>
      <trkpt lat="44.14371" lon="4.55229">
        <ele>266.8</ele>
        <time>2019-06-01T08:21:32Z</time>
      </trkpt>
      <trkpt lat="44.14373" lon="4.55232">
        <ele>266.9</ele>
        <time>2019-06-01T08:21:33Z</time>
      </trkpt>
      <trkpt lat="44.14376" lon="4.55234">
        <ele>267.1</ele>
        <time>2019-06-01T08:21:34Z</time>
      </trkpt>
      <trkpt lat="44.14378" lon="4.55236">
        <ele>267.3</ele>
        <time>2019-06-01T08:21:35Z</time>
      </trkpt>
      <trkpt lat="44.14381" lon="4.55238">
        <ele>267.4</ele>
        <time>2019-06-01T08:21:36Z</time>
      </trkpt>
      <trkpt lat="44.14385" lon="4.5524">
        <ele>267.6</ele>
        <time>2019-06-01T08:21:38Z</time>
      </trkpt>
      <trkpt lat="44.14388" lon="4.55241">
        <ele>267.8</ele>
        <time>2019-06-01T08:21:39Z</time>
      </trkpt>
      <trkpt lat="44.14391" lon="4.55241">
        <ele>267.9</ele>
        <time>2019-06-01T08:21:40Z</time>
      </trkpt>
      <trkpt lat="44.14394" lon="4.55242">
        <ele>268</ele>
        <time>2019-06-01T08:21:41Z</time>
      </trkpt>
      <trkpt lat="44.14399" lon="4.55241">
        <ele>268.2</ele>
        <time>2019-06-01T08:21:43Z</time>
      </trkpt>
      <trkpt lat="44.14404" lon="4.55239">
        <ele>268.5</ele>
        <time>2019-06-01T08:21:45Z</time>
      </trkpt>
      <trkpt lat="44.14407" lon="4.55237">
        <ele>268.6</ele>
        <time>2019-06-01T08:21:47Z</time>
      </trkpt>
      <trkpt lat="44.1441" lon="4.55235">
        <ele>268.7</ele>
        <time>2019-06-01T08:21:50Z</time>
      </trkpt>
      <trkpt lat="44.14412" lon="4.55233">
        <ele>268.7</ele>
        <time>2019-06-01T08:21:52Z</time>
      </trkpt>
      <trkpt lat="44.14415" lon="4.55232">
        <ele>268.8</ele>
        <time>2019-06-01T08:21:54Z</time>
      </trkpt>
      <trkpt lat="44.14421" lon="4.55232">
        <ele>268.9</ele>
        <time>2019-06-01T08:21:56Z</time>
      </trkpt>
      <trkpt lat="44.14425" lon="4.55232">
        <ele>268.9</ele>
        <time>2019-06-01T08:21:57Z</time>
      </trkpt>
      <trkpt lat="44.14429" lon="4.55231">
        <ele>268.8</ele>
        <time>2019-06-01T08:21:58Z</time>
      </trkpt>
      <trkpt lat="44.14433" lon="4.55231">
        <ele>268.8</ele>
        <time>2019-06-01T08:21:59Z</time>
      </trkpt>
      <trkpt lat="44.14436" lon="4.55231">
        <ele>268.7</ele>
        <time>2019-06-01T08:22:00Z</time>
      </trkpt>
      <trkpt lat="44.14441" lon="4.5523">
        <ele>268.6</ele>
        <time>2019-06-01T08:22:01Z</time>
      </trkpt>
      <trkpt lat="44.14449" lon="4.55224">
        <ele>268.3</ele>
        <time>2019-06-01T08:22:02Z</time>
      </trkpt>
      <trkpt lat="44.14454" lon="4.55223">
        <ele>268.2</ele>
        <time>2019-06-01T08:22:03Z</time>
      </trkpt>
      <trkpt lat="44.14459" lon="4.55222">
        <ele>268</ele>
        <time>2019-06-01T08:22:04Z</time>
      </trkpt>
      <trkpt lat="44.14463" lon="4.55219">
        <ele>267.9</ele>
        <time>2019-06-01T08:22:05Z</time>
      </trkpt>
      <trkpt lat="44.14467" lon="4.55218">
        <ele>267.8</ele>
        <time>2019-06-01T08:22:06Z</time>
      </trkpt>
      <trkpt lat="44.1447" lon="4.55217">
        <ele>267.9</ele>
        <time>2019-06-01T08:22:07Z</time>
      </trkpt>
      <trkpt lat="44.14474" lon="4.55215">
        <ele>267.7</ele>
        <time>2019-06-01T08:22:08Z</time>
      </trkpt>
      <trkpt lat="44.14471" lon="4.55221">
        <ele>268</ele>
        <time>2019-06-01T08:22:13Z</time>
      </trkpt>
      <trkpt lat="44.14468" lon="4.55223">
        <ele>268</ele>
        <time>2019-06-01T08:22:14Z</time>
      </trkpt>
      <trkpt lat="44.14465" lon="4.55227">
        <ele>268.2</ele>
        <time>2019-06-01T08:22:15Z</time>
      </trkpt>
      <trkpt lat="44.14462" lon="4.5523">
        <ele>268.3</ele>
        <time>2019-06-01T08:22:16Z</time>
      </trkpt>
      <trkpt lat="44.1446" lon="4.55234">
        <ele>268.5</ele>
        <time>2019-06-01T08:22:17Z</time>
      </trkpt>
      <trkpt lat="44.14458" lon="4.55238">
        <ele>268.7</ele>
        <time>2019-06-01T08:22:18Z</time>
      </trkpt>
      <trkpt lat="44.14457" lon="4.55244">
        <ele>268.9</ele>
        <time>2019-06-01T08:22:20Z</time>
      </trkpt>
      <trkpt lat="44.14458" lon="4.55249">
        <ele>269.1</ele>
        <time>2019-06-01T08:22:22Z</time>
      </trkpt>
      <trkpt lat="44.14458" lon="4.55254">
        <ele>269.3</ele>
        <time>2019-06-01T08:22:25Z</time>
      </trkpt>
      <trkpt lat="44.14459" lon="4.5526">
        <ele>269.7</ele>
        <time>2019-06-01T08:22:28Z</time>
      </trkpt>
      <trkpt lat="44.14461" lon="4.55264">
        <ele>269.9</ele>
        <time>2019-06-01T08:22:30Z</time>
      </trkpt>
      <trkpt lat="44.14465" lon="4.55263">
        <ele>269.9</ele>
        <time>2019-06-01T08:22:33Z</time>
      </trkpt>
      <trkpt lat="44.14466" lon="4.55267">
        <ele>269.9</ele>
        <time>2019-06-01T08:22:36Z</time>
      </trkpt>
      <trkpt lat="44.14469" lon="4.5527">
        <ele>270.2</ele>
        <time>2019-06-01T08:22:40Z</time>
      </trkpt>
      <trkpt lat="44.14469" lon="4.55274">
        <ele>270.4</ele>
        <time>2019-06-01T08:22:42Z</time>
      </trkpt>
      <trkpt lat="44.1447" lon="4.5528">
        <ele>270.6</ele>
        <time>2019-06-01T08:22:44Z</time>
      </trkpt>
      <trkpt lat="44.14472" lon="4.55284">
        <ele>270.8</ele>
        <time>2019-06-01T08:22:46Z</time>
      </trkpt>
      <trkpt lat="44.14474" lon="4.5529">
        <ele>271.2</ele>
        <time>2019-06-01T08:22:48Z</time>
      </trkpt>
      <trkpt lat="44.14474" lon="4.55295">
        <ele>271.5</ele>
        <time>2019-06-01T08:22:49Z</time>
      </trkpt>
      <trkpt lat="44.14475" lon="4.55299">
        <ele>271.6</ele>
        <time>2019-06-01T08:22:50Z</time>
      </trkpt>
      <trkpt lat="44.14476" lon="4.55304">
        <ele>271.8</ele>
        <time>2019-06-01T08:22:51Z</time>
      </trkpt>
      <trkpt lat="44.14477" lon="4.55308">
        <ele>272.1</ele>
        <time>2019-06-01T08:22:52Z</time>
      </trkpt>
      <trkpt lat="44.14478" lon="4.55312">
        <ele>272.2</ele>
        <time>2019-06-01T08:22:53Z</time>
      </trkpt>
      <trkpt lat="44.14479" lon="4.55316">
        <ele>272.4</ele>
        <time>2019-06-01T08:22:54Z</time>
      </trkpt>
      <trkpt lat="44.1448" lon="4.55321">
        <ele>272.5</ele>
        <time>2019-06-01T08:22:56Z</time>
      </trkpt>
      <trkpt lat="44.14481" lon="4.55326">
        <ele>272.8</ele>
        <time>2019-06-01T08:22:57Z</time>
      </trkpt>
      <trkpt lat="44.14482" lon="4.55331">
        <ele>272.9</ele>
        <time>2019-06-01T08:22:58Z</time>
      </trkpt>
      <trkpt lat="44.14483" lon="4.55334">
        <ele>273.1</ele>
        <time>2019-06-01T08:22:59Z</time>
      </trkpt>
      <trkpt lat="44.14483" lon="4.55339">
        <ele>273.3</ele>
        <time>2019-06-01T08:23:00Z</time>
      </trkpt>
      <trkpt lat="44.14484" lon="4.55342">
        <ele>273.4</ele>
        <time>2019-06-01T08:23:01Z</time>
      </trkpt>
      <trkpt lat="44.14485" lon="4.55347">
        <ele>273.5</ele>
        <time>2019-06-01T08:23:02Z</time>
      </trkpt>
      <trkpt lat="44.14485" lon="4.55351">
        <ele>273.7</ele>
        <time>2019-06-01T08:23:03Z</time>
      </trkpt>
      <trkpt lat="44.14487" lon="4.55355">
        <ele>273.8</ele>
        <time>2019-06-01T08:23:04Z</time>
      </trkpt>
      <trkpt lat="44.14489" lon="4.55361">
        <ele>273.9</ele>
        <time>2019-06-01T08:23:06Z</time>
      </trkpt>
      <trkpt lat="44.1449" lon="4.55367">
        <ele>274.2</ele>
        <time>2019-06-01T08:23:08Z</time>
      </trkpt>
      <trkpt lat="44.1449" lon="4.55371">
        <ele>274.3</ele>
        <time>2019-06-01T08:23:11Z</time>
      </trkpt>
      <trkpt lat="44.14488" lon="4.55367">
        <ele>274.1</ele>
        <time>2019-06-01T08:23:21Z</time>
      </trkpt>
      <trkpt lat="44.14487" lon="4.5536">
        <ele>273.9</ele>
        <time>2019-06-01T08:23:23Z</time>
      </trkpt>
      <trkpt lat="44.14486" lon="4.55357">
        <ele>273.8</ele>
        <time>2019-06-01T08:23:24Z</time>
      </trkpt>
      <trkpt lat="44.14485" lon="4.55353">
        <ele>273.7</ele>
        <time>2019-06-01T08:23:25Z</time>
      </trkpt>
      <trkpt lat="44.14484" lon="4.55349">
        <ele>273.6</ele>
        <time>2019-06-01T08:23:26Z</time>
      </trkpt>
      <trkpt lat="44.14483" lon="4.55344">
        <ele>273.4</ele>
        <time>2019-06-01T08:23:27Z</time>
      </trkpt>
      <trkpt lat="44.14482" lon="4.5534">
        <ele>273.3</ele>
        <time>2019-06-01T08:23:28Z</time>
      </trkpt>
      <trkpt lat="44.1448" lon="4.55335">
        <ele>273.2</ele>
        <time>2019-06-01T08:23:29Z</time>
      </trkpt>
      <trkpt lat="44.1448" lon="4.5533">
        <ele>272.9</ele>
        <time>2019-06-01T08:23:30Z</time>
      </trkpt>
      <trkpt lat="44.14479" lon="4.55325">
        <ele>272.8</ele>
        <time>2019-06-01T08:23:31Z</time>
      </trkpt>
      <trkpt lat="44.14479" lon="4.5532">
        <ele>272.6</ele>
        <time>2019-06-01T08:23:32Z</time>
      </trkpt>
      <trkpt lat="44.14478" lon="4.55315">
        <ele>272.5</ele>
        <time>2019-06-01T08:23:33Z</time>
      </trkpt>
      <trkpt lat="44.14478" lon="4.5531">
        <ele>272.2</ele>
        <time>2019-06-01T08:23:34Z</time>
      </trkpt>
      <trkpt lat="44.14477" lon="4.55305">
        <ele>271.9</ele>
        <time>2019-06-01T08:23:35Z</time>
      </trkpt>
      <trkpt lat="44.14476" lon="4.55299">
        <ele>271.8</ele>
        <time>2019-06-01T08:23:36Z</time>
      </trkpt>
      <trkpt lat="44.14475" lon="4.55294">
        <ele>271.6</ele>
        <time>2019-06-01T08:23:37Z</time>
      </trkpt>
      <trkpt lat="44.14474" lon="4.55289">
        <ele>271.2</ele>
        <time>2019-06-01T08:23:38Z</time>
      </trkpt>
      <trkpt lat="44.14473" lon="4.55283">
        <ele>271</ele>
        <time>2019-06-01T08:23:39Z</time>
      </trkpt>
      <trkpt lat="44.14473" lon="4.55277">
        <ele>270.8</ele>
        <time>2019-06-01T08:23:40Z</time>
      </trkpt>
      <trkpt lat="44.14472" lon="4.55271">
        <ele>270.4</ele>
        <time>2019-06-01T08:23:41Z</time>
      </trkpt>
      <trkpt lat="44.14471" lon="4.55267">
        <ele>270.2</ele>
        <time>2019-06-01T08:23:42Z</time>
      </trkpt>
      <trkpt lat="44.1447" lon="4.55263">
        <ele>270</ele>
        <time>2019-06-01T08:23:43Z</time>
      </trkpt>
      <trkpt lat="44.14469" lon="4.55257">
        <ele>269.8</ele>
        <time>2019-06-01T08:23:45Z</time>
      </trkpt>
      <trkpt lat="44.14467" lon="4.55254">
        <ele>269.6</ele>
        <time>2019-06-01T08:23:47Z</time>
      </trkpt>
      <trkpt lat="44.14462" lon="4.55253">
        <ele>269.6</ele>
        <time>2019-06-01T08:23:49Z</time>
      </trkpt>
      <trkpt lat="44.14458" lon="4.55255">
        <ele>269.7</ele>
        <time>2019-06-01T08:23:51Z</time>
      </trkpt>
      <trkpt lat="44.14457" lon="4.55261">
        <ele>269.9</ele>
        <time>2019-06-01T08:23:54Z</time>
      </trkpt>
      <trkpt lat="44.14456" lon="4.55264">
        <ele>270</ele>
        <time>2019-06-01T08:23:57Z</time>
      </trkpt>
      <trkpt lat="44.14453" lon="4.55267">
        <ele>270.1</ele>
        <time>2019-06-01T08:24:00Z</time>
      </trkpt>
      <trkpt lat="44.14449" lon="4.55272">
        <ele>270.2</ele>
        <time>2019-06-01T08:24:02Z</time>
      </trkpt>
      <trkpt lat="44.14447" lon="4.55275">
        <ele>270.3</ele>
        <time>2019-06-01T08:24:03Z</time>
      </trkpt>
      <trkpt lat="44.14446" lon="4.55279">
        <ele>270.4</ele>
        <time>2019-06-01T08:24:04Z</time>
      </trkpt>
      <trkpt lat="44.14444" lon="4.55286">
        <ele>270.6</ele>
        <time>2019-06-01T08:24:06Z</time>
      </trkpt>
      <trkpt lat="44.14443" lon="4.55291">
        <ele>270.6</ele>
        <time>2019-06-01T08:24:07Z</time>
      </trkpt>
      <trkpt lat="44.14442" lon="4.55294">
        <ele>270.7</ele>
        <time>2019-06-01T08:24:08Z</time>
      </trkpt>
      <trkpt lat="44.14442" lon="4.55299">
        <ele>270.8</ele>
        <time>2019-06-01T08:24:09Z</time>
      </trkpt>
      <trkpt lat="44.14442" lon="4.55305">
        <ele>270.9</ele>
        <time>2019-06-01T08:24:10Z</time>
      </trkpt>
      <trkpt lat="44.14442" lon="4.5531">
        <ele>271</ele>
        <time>2019-06-01T08:24:11Z</time>
      </trkpt>
      <trkpt lat="44.14441" lon="4.55316">
        <ele>271.1</ele>
        <time>2019-06-01T08:24:12Z</time>
      </trkpt>
      <trkpt lat="44.14441" lon="4.55321">
        <ele>271.2</ele>
        <time>2019-06-01T08:24:13Z</time>
      </trkpt>
      <trkpt lat="44.1444" lon="4.55327">
        <ele>271.3</ele>
        <time>2019-06-01T08:24:14Z</time>
      </trkpt>
      <trkpt lat="44.14439" lon="4.55332">
        <ele>271.4</ele>
        <time>2019-06-01T08:24:15Z</time>
      </trkpt>
      <trkpt lat="44.14438" lon="4.55339">
        <ele>271.5</ele>
        <time>2019-06-01T08:24:16Z</time>
      </trkpt>
      <trkpt lat="44.14438" lon="4.55345">
        <ele>271.6</ele>
        <time>2019-06-01T08:24:17Z</time>
      </trkpt>
      <trkpt lat="44.14438" lon="4.55351">
        <ele>271.7</ele>
        <time>2019-06-01T08:24:18Z</time>
      </trkpt>
      <trkpt lat="44.14437" lon="4.55357">
        <ele>272.1</ele>
        <time>2019-06-01T08:24:19Z</time>
      </trkpt>
      <trkpt lat="44.14437" lon="4.55362">
        <ele>272.4</ele>
        <time>2019-06-01T08:24:20Z</time>
      </trkpt>
      <trkpt lat="44.14437" lon="4.55368">
        <ele>272.7</ele>
        <time>2019-06-01T08:24:21Z</time>
      </trkpt>
      <trkpt lat="44.14436" lon="4.55375">
        <ele>272.9</ele>
        <time>2019-06-01T08:24:22Z</time>
      </trkpt>
      <trkpt lat="44.14435" lon="4.55381">
        <ele>273.1</ele>
        <time>2019-06-01T08:24:23Z</time>
      </trkpt>
      <trkpt lat="44.14434" lon="4.55388">
        <ele>273.2</ele>
        <time>2019-06-01T08:24:24Z</time>
      </trkpt>
      <trkpt lat="44.14433" lon="4.55394">
        <ele>273.3</ele>
        <time>2019-06-01T08:24:25Z</time>
      </trkpt>
      <trkpt lat="44.14431" lon="4.554">
        <ele>273.3</ele>
        <time>2019-06-01T08:24:26Z</time>
      </trkpt>
      <trkpt lat="44.1443" lon="4.55405">
        <ele>273.3</ele>
        <time>2019-06-01T08:24:27Z</time>
      </trkpt>
      <trkpt lat="44.14428" lon="4.55409">
        <ele>273.4</ele>
        <time>2019-06-01T08:24:28Z</time>
      </trkpt>
      <trkpt lat="44.14426" lon="4.55414">
        <ele>273.4</ele>
        <time>2019-06-01T08:24:29Z</time>
      </trkpt>
      <trkpt lat="44.14425" lon="4.55418">
        <ele>273.4</ele>
        <time>2019-06-01T08:24:30Z</time>
      </trkpt>
      <trkpt lat="44.14424" lon="4.55423">
        <ele>273.7</ele>
        <time>2019-06-01T08:24:32Z</time>
      </trkpt>
      <trkpt lat="44.14423" lon="4.55427">
        <ele>273.8</ele>
        <time>2019-06-01T08:24:34Z</time>
      </trkpt>
      <trkpt lat="44.14423" lon="4.55432">
        <ele>273.9</ele>
        <time>2019-06-01T08:24:36Z</time>
      </trkpt>
      <trkpt lat="44.14424" lon="4.55436">
        <ele>274.2</ele>
        <time>2019-06-01T08:24:38Z</time>
      </trkpt>
      <trkpt lat="44.14426" lon="4.5544">
        <ele>274.4</ele>
        <time>2019-06-01T08:24:41Z</time>
      </trkpt>
      <trkpt lat="44.14429" lon="4.55445">
        <ele>274.6</ele>
        <time>2019-06-01T08:24:43Z</time>
      </trkpt>
      <trkpt lat="44.1443" lon="4.55449">
        <ele>274.8</ele>
        <time>2019-06-01T08:24:45Z</time>
      </trkpt>
      <trkpt lat="44.14428" lon="4.55454">
        <ele>275.2</ele>
        <time>2019-06-01T08:24:47Z</time>
      </trkpt>
      <trkpt lat="44.14426" lon="4.55458">
        <ele>275.3</ele>
        <time>2019-06-01T08:24:49Z</time>
      </trkpt>
      <trkpt lat="44.14424" lon="4.55461">
        <ele>275.5</ele>
        <time>2019-06-01T08:24:50Z</time>
      </trkpt>
      <trkpt lat="44.14422" lon="4.55464">
        <ele>275.6</ele>
        <time>2019-06-01T08:24:51Z</time>
      </trkpt>
      <trkpt lat="44.14419" lon="4.55469">
        <ele>275.8</ele>
        <time>2019-06-01T08:24:53Z</time>
      </trkpt>
      <trkpt lat="44.14416" lon="4.55473">
        <ele>276</ele>
        <time>2019-06-01T08:24:55Z</time>
      </trkpt>
      <trkpt lat="44.14413" lon="4.55477">
        <ele>276.2</ele>
        <time>2019-06-01T08:24:58Z</time>
      </trkpt>
      <trkpt lat="44.1441" lon="4.5548">
        <ele>276.3</ele>
        <time>2019-06-01T08:25:00Z</time>
      </trkpt>
      <trkpt lat="44.14407" lon="4.55483">
        <ele>276.5</ele>
        <time>2019-06-01T08:25:02Z</time>
      </trkpt>
      <trkpt lat="44.14406" lon="4.55489">
        <ele>276.7</ele>
        <time>2019-06-01T08:25:05Z</time>
      </trkpt>
      <trkpt lat="44.14407" lon="4.55492">
        <ele>276.8</ele>
        <time>2019-06-01T08:25:07Z</time>
      </trkpt>
      <trkpt lat="44.14407" lon="4.55497">
        <ele>276.8</ele>
        <time>2019-06-01T08:25:11Z</time>
      </trkpt>
      <trkpt lat="44.14407" lon="4.55504">
        <ele>276.8</ele>
        <time>2019-06-01T08:25:13Z</time>
      </trkpt>
      <trkpt lat="44.14408" lon="4.55508">
        <ele>276.8</ele>
        <time>2019-06-01T08:25:15Z</time>
      </trkpt>
      <trkpt lat="44.14411" lon="4.55512">
        <ele>276.7</ele>
        <time>2019-06-01T08:25:17Z</time>
      </trkpt>
      <trkpt lat="44.14414" lon="4.55515">
        <ele>276.7</ele>
        <time>2019-06-01T08:25:19Z</time>
      </trkpt>
      <trkpt lat="44.14418" lon="4.55518">
        <ele>276.7</ele>
        <time>2019-06-01T08:25:21Z</time>
      </trkpt>
      <trkpt lat="44.14422" lon="4.55519">
        <ele>276.6</ele>
        <time>2019-06-01T08:25:23Z</time>
      </trkpt>
      <trkpt lat="44.14426" lon="4.55521">
        <ele>276.6</ele>
        <time>2019-06-01T08:25:25Z</time>
      </trkpt>
      <trkpt lat="44.14431" lon="4.55523">
        <ele>276.6</ele>
        <time>2019-06-01T08:25:27Z</time>
      </trkpt>
      <trkpt lat="44.14433" lon="4.55525">
        <ele>276.5</ele>
        <time>2019-06-01T08:25:28Z</time>
      </trkpt>
      <trkpt lat="44.14437" lon="4.55527">
        <ele>276.5</ele>
        <time>2019-06-01T08:25:30Z</time>
      </trkpt>
      <trkpt lat="44.1444" lon="4.55527">
        <ele>276.5</ele>
        <time>2019-06-01T08:25:32Z</time>
      </trkpt>
      <trkpt lat="44.14443" lon="4.55528">
        <ele>276.4</ele>
        <time>2019-06-01T08:25:34Z</time>
      </trkpt>
      <trkpt lat="44.14447" lon="4.5553">
        <ele>276.4</ele>
        <time>2019-06-01T08:25:36Z</time>
      </trkpt>
      <trkpt lat="44.1445" lon="4.5553">
        <ele>276.3</ele>
        <time>2019-06-01T08:25:38Z</time>
      </trkpt>
      <trkpt lat="44.14455" lon="4.55531">
        <ele>276.3</ele>
        <time>2019-06-01T08:25:40Z</time>
      </trkpt>
      <trkpt lat="44.14459" lon="4.55535">
        <ele>276.2</ele>
        <time>2019-06-01T08:25:42Z</time>
      </trkpt>
      <trkpt lat="44.14463" lon="4.55539">
        <ele>276.2</ele>
        <time>2019-06-01T08:25:44Z</time>
      </trkpt>
      <trkpt lat="44.14465" lon="4.5554">
        <ele>276.2</ele>
        <time>2019-06-01T08:25:45Z</time>
      </trkpt>
      <trkpt lat="44.14468" lon="4.55541">
        <ele>276.1</ele>
        <time>2019-06-01T08:25:46Z</time>
      </trkpt>
      <trkpt lat="44.14471" lon="4.55543">
        <ele>276.1</ele>
        <time>2019-06-01T08:25:47Z</time>
      </trkpt>
      <trkpt lat="44.14474" lon="4.55545">
        <ele>276.1</ele>
        <time>2019-06-01T08:25:48Z</time>
      </trkpt>
      <trkpt lat="44.14479" lon="4.55548">
        <ele>276</ele>
        <time>2019-06-01T08:25:50Z</time>
      </trkpt>
      <trkpt lat="44.14481" lon="4.5555">
        <ele>276</ele>
        <time>2019-06-01T08:25:51Z</time>
      </trkpt>
      <trkpt lat="44.14484" lon="4.55551">
        <ele>275.9</ele>
        <time>2019-06-01T08:25:52Z</time>
      </trkpt>
      <trkpt lat="44.14487" lon="4.55553">
        <ele>275.8</ele>
        <time>2019-06-01T08:25:53Z</time>
      </trkpt>
      <trkpt lat="44.1449" lon="4.55555">
        <ele>275.7</ele>
        <time>2019-06-01T08:25:54Z</time>
      </trkpt>
      <trkpt lat="44.14493" lon="4.55556">
        <ele>275.6</ele>
        <time>2019-06-01T08:25:55Z</time>
      </trkpt>
      <trkpt lat="44.14498" lon="4.55556">
        <ele>275.4</ele>
        <time>2019-06-01T08:25:57Z</time>
      </trkpt>
      <trkpt lat="44.14501" lon="4.55557">
        <ele>275.3</ele>
        <time>2019-06-01T08:25:58Z</time>
      </trkpt>
      <trkpt lat="44.14504" lon="4.55557">
        <ele>275.2</ele>
        <time>2019-06-01T08:25:59Z</time>
      </trkpt>
      <trkpt lat="44.14508" lon="4.55558">
        <ele>275</ele>
        <time>2019-06-01T08:26:01Z</time>
      </trkpt>
      <trkpt lat="44.1451" lon="4.5556">
        <ele>274.8</ele>
        <time>2019-06-01T08:26:04Z</time>
      </trkpt>
      <trkpt lat="44.14512" lon="4.55564">
        <ele>274.5</ele>
        <time>2019-06-01T08:26:08Z</time>
      </trkpt>
      <trkpt lat="44.14514" lon="4.55569">
        <ele>274.2</ele>
        <time>2019-06-01T08:26:11Z</time>
      </trkpt>
      <trkpt lat="44.14516" lon="4.55571">
        <ele>273.9</ele>
        <time>2019-06-01T08:26:13Z</time>
      </trkpt>
      <trkpt lat="44.14517" lon="4.55575">
        <ele>273.6</ele>
        <time>2019-06-01T08:26:17Z</time>
      </trkpt>
      <trkpt lat="44.1452" lon="4.55579">
        <ele>273.2</ele>
        <time>2019-06-01T08:26:20Z</time>
      </trkpt>
      <trkpt lat="44.14522" lon="4.55582">
        <ele>272.8</ele>
        <time>2019-06-01T08:26:22Z</time>
      </trkpt>
      <trkpt lat="44.14524" lon="4.55585">
        <ele>272.6</ele>
        <time>2019-06-01T08:26:24Z</time>
      </trkpt>
      <trkpt lat="44.14527" lon="4.55587">
        <ele>272.3</ele>
        <time>2019-06-01T08:26:26Z</time>
      </trkpt>
      <trkpt lat="44.1453" lon="4.55589">
        <ele>272</ele>
        <time>2019-06-01T08:26:28Z</time>
      </trkpt>
      <trkpt lat="44.14533" lon="4.55593">
        <ele>271.8</ele>
        <time>2019-06-01T08:26:30Z</time>
      </trkpt>
      <trkpt lat="44.14533" lon="4.55597">
        <ele>271.6</ele>
        <time>2019-06-01T08:26:32Z</time>
      </trkpt>
      <trkpt lat="44.14533" lon="4.55602">
        <ele>271.4</ele>
        <time>2019-06-01T08:26:35Z</time>
      </trkpt>
      <trkpt lat="44.14534" lon="4.55606">
        <ele>271.2</ele>
        <time>2019-06-01T08:26:37Z</time>
      </trkpt>
      <trkpt lat="44.14535" lon="4.55612">
        <ele>270.9</ele>
        <time>2019-06-01T08:26:39Z</time>
      </trkpt>
      <trkpt lat="44.14536" lon="4.55617">
        <ele>270.7</ele>
        <time>2019-06-01T08:26:40Z</time>
      </trkpt>
      <trkpt lat="44.14537" lon="4.5562">
        <ele>270.5</ele>
        <time>2019-06-01T08:26:41Z</time>
      </trkpt>
      <trkpt lat="44.1454" lon="4.55627">
        <ele>269.9</ele>
        <time>2019-06-01T08:26:43Z</time>
      </trkpt>
      <trkpt lat="44.14542" lon="4.5563">
        <ele>269.5</ele>
        <time>2019-06-01T08:26:44Z</time>
      </trkpt>
      <trkpt lat="44.14545" lon="4.55632">
        <ele>269.2</ele>
        <time>2019-06-01T08:26:45Z</time>
      </trkpt>
      <trkpt lat="44.14549" lon="4.55635">
        <ele>268.8</ele>
        <time>2019-06-01T08:26:47Z</time>
      </trkpt>
      <trkpt lat="44.14552" lon="4.55634">
        <ele>268.5</ele>
        <time>2019-06-01T08:26:49Z</time>
      </trkpt>
      <trkpt lat="44.14556" lon="4.55631">
        <ele>268.1</ele>
        <time>2019-06-01T08:26:51Z</time>
      </trkpt>
      <trkpt lat="44.14559" lon="4.55631">
        <ele>268</ele>
        <time>2019-06-01T08:26:52Z</time>
      </trkpt>
      <trkpt lat="44.14561" lon="4.5563">
        <ele>267.9</ele>
        <time>2019-06-01T08:26:53Z</time>
      </trkpt>
      <trkpt lat="44.14564" lon="4.55629">
        <ele>267.8</ele>
        <time>2019-06-01T08:26:54Z</time>
      </trkpt>
      <trkpt lat="44.14567" lon="4.55626">
        <ele>267.7</ele>
        <time>2019-06-01T08:26:55Z</time>
      </trkpt>
      <trkpt lat="44.14571" lon="4.55622">
        <ele>267.6</ele>
        <time>2019-06-01T08:26:57Z</time>
      </trkpt>
      <trkpt lat="44.14574" lon="4.55619">
        <ele>267.6</ele>
        <time>2019-06-01T08:26:59Z</time>
      </trkpt>
      <trkpt lat="44.14576" lon="4.55616">
        <ele>267.6</ele>
        <time>2019-06-01T08:27:03Z</time>
      </trkpt>
      <trkpt lat="44.14578" lon="4.55613">
        <ele>267.6</ele>
        <time>2019-06-01T08:27:08Z</time>
      </trkpt>
      <trkpt lat="44.14582" lon="4.55613">
        <ele>267.7</ele>
        <time>2019-06-01T08:27:13Z</time>
      </trkpt>
      <trkpt lat="44.14585" lon="4.55611">
        <ele>267.8</ele>
        <time>2019-06-01T08:27:16Z</time>
      </trkpt>
      <trkpt lat="44.14587" lon="4.55607">
        <ele>268</ele>
        <time>2019-06-01T08:27:18Z</time>
      </trkpt>
      <trkpt lat="44.14591" lon="4.55606">
        <ele>268.3</ele>
        <time>2019-06-01T08:27:21Z</time>
      </trkpt>
      <trkpt lat="44.14595" lon="4.55605">
        <ele>268.7</ele>
        <time>2019-06-01T08:27:24Z</time>
      </trkpt>
      <trkpt lat="44.14599" lon="4.55604">
        <ele>269.3</ele>
        <time>2019-06-01T08:27:26Z</time>
      </trkpt>
      <trkpt lat="44.14603" lon="4.55602">
        <ele>270.1</ele>
        <time>2019-06-01T08:27:28Z</time>
      </trkpt>
      <trkpt lat="44.14606" lon="4.556">
        <ele>270.6</ele>
        <time>2019-06-01T08:27:29Z</time>
      </trkpt>
      <trkpt lat="44.14609" lon="4.55598">
        <ele>271.3</ele>
        <time>2019-06-01T08:27:31Z</time>
      </trkpt>
      <trkpt lat="44.14612" lon="4.55597">
        <ele>272.1</ele>
        <time>2019-06-01T08:27:33Z</time>
      </trkpt>
      <trkpt lat="44.14616" lon="4.55595">
        <ele>272.8</ele>
        <time>2019-06-01T08:27:35Z</time>
      </trkpt>
      <trkpt lat="44.14619" lon="4.55594">
        <ele>273.4</ele>
        <time>2019-06-01T08:27:37Z</time>
      </trkpt>
      <trkpt lat="44.14623" lon="4.55592">
        <ele>274.2</ele>
        <time>2019-06-01T08:27:39Z</time>
      </trkpt>
      <trkpt lat="44.14626" lon="4.55589">
        <ele>274.9</ele>
        <time>2019-06-01T08:27:41Z</time>
      </trkpt>
      <trkpt lat="44.1463" lon="4.55586">
        <ele>275.7</ele>
        <time>2019-06-01T08:27:43Z</time>
      </trkpt>
      <trkpt lat="44.14632" lon="4.55583">
        <ele>276.3</ele>
        <time>2019-06-01T08:27:45Z</time>
      </trkpt>
      <trkpt lat="44.14634" lon="4.55579">
        <ele>276.8</ele>
        <time>2019-06-01T08:27:47Z</time>
      </trkpt>
      <trkpt lat="44.14636" lon="4.55575">
        <ele>277.4</ele>
        <time>2019-06-01T08:27:49Z</time>
      </trkpt>
      <trkpt lat="44.14637" lon="4.55571">
        <ele>277.9</ele>
        <time>2019-06-01T08:27:51Z</time>
      </trkpt>
      <trkpt lat="44.14639" lon="4.55567">
        <ele>278.4</ele>
        <time>2019-06-01T08:27:53Z</time>
      </trkpt>
      <trkpt lat="44.14642" lon="4.55564">
        <ele>279</ele>
        <time>2019-06-01T08:27:56Z</time>
      </trkpt>
      <trkpt lat="44.14643" lon="4.5556">
        <ele>279.3</ele>
        <time>2019-06-01T08:28:00Z</time>
      </trkpt>
      <trkpt lat="44.14646" lon="4.55557">
        <ele>279.6</ele>
        <time>2019-06-01T08:28:03Z</time>
      </trkpt>
      <trkpt lat="44.14647" lon="4.55554">
        <ele>279.8</ele>
        <time>2019-06-01T08:28:08Z</time>
      </trkpt>
      <trkpt lat="44.14649" lon="4.5555">
        <ele>280.1</ele>
        <time>2019-06-01T08:28:11Z</time>
      </trkpt>
      <trkpt lat="44.14652" lon="4.55547">
        <ele>280.4</ele>
        <time>2019-06-01T08:28:14Z</time>
      </trkpt>
      <trkpt lat="44.14654" lon="4.55544">
        <ele>280.6</ele>
        <time>2019-06-01T08:28:18Z</time>
      </trkpt>
      <trkpt lat="44.14659" lon="4.55538">
        <ele>281</ele>
        <time>2019-06-01T08:28:30Z</time>
      </trkpt>
      <trkpt lat="44.1466" lon="4.55534">
        <ele>281.2</ele>
        <time>2019-06-01T08:28:32Z</time>
      </trkpt>
      <trkpt lat="44.14661" lon="4.55529">
        <ele>281.4</ele>
        <time>2019-06-01T08:28:35Z</time>
      </trkpt>
      <trkpt lat="44.14662" lon="4.55525">
        <ele>281.6</ele>
        <time>2019-06-01T08:28:37Z</time>
      </trkpt>
      <trkpt lat="44.14664" lon="4.55522">
        <ele>281.8</ele>
        <time>2019-06-01T08:28:39Z</time>
      </trkpt>
      <trkpt lat="44.14666" lon="4.55519">
        <ele>282</ele>
        <time>2019-06-01T08:28:41Z</time>
      </trkpt>
      <trkpt lat="44.14669" lon="4.55519">
        <ele>282.1</ele>
        <time>2019-06-01T08:28:45Z</time>
      </trkpt>
      <trkpt lat="44.14671" lon="4.55521">
        <ele>282.3</ele>
        <time>2019-06-01T08:28:49Z</time>
      </trkpt>
      <trkpt lat="44.14674" lon="4.5552">
        <ele>282.4</ele>
        <time>2019-06-01T08:28:51Z</time>
      </trkpt>
      <trkpt lat="44.14677" lon="4.55519">
        <ele>282.5</ele>
        <time>2019-06-01T08:28:53Z</time>
      </trkpt>
      <trkpt lat="44.1468" lon="4.55517">
        <ele>282.6</ele>
        <time>2019-06-01T08:28:56Z</time>
      </trkpt>
      <trkpt lat="44.14684" lon="4.55516">
        <ele>282.6</ele>
        <time>2019-06-01T08:28:58Z</time>
      </trkpt>
      <trkpt lat="44.14689" lon="4.55519">
        <ele>282.7</ele>
        <time>2019-06-01T08:29:00Z</time>
      </trkpt>
      <trkpt lat="44.14693" lon="4.55521">
        <ele>282.8</ele>
        <time>2019-06-01T08:29:02Z</time>
      </trkpt>
      <trkpt lat="44.14697" lon="4.55523">
        <ele>282.8</ele>
        <time>2019-06-01T08:29:04Z</time>
      </trkpt>
      <trkpt lat="44.147" lon="4.55523">
        <ele>282.9</ele>
        <time>2019-06-01T08:29:06Z</time>
      </trkpt>
      <trkpt lat="44.14705" lon="4.55525">
        <ele>283</ele>
        <time>2019-06-01T08:29:08Z</time>
      </trkpt>
      <trkpt lat="44.14709" lon="4.55527">
        <ele>283</ele>
        <time>2019-06-01T08:29:10Z</time>
      </trkpt>
      <trkpt lat="44.14713" lon="4.55531">
        <ele>283</ele>
        <time>2019-06-01T08:29:12Z</time>
      </trkpt>
      <trkpt lat="44.14717" lon="4.55534">
        <ele>282.9</ele>
        <time>2019-06-01T08:29:14Z</time>
      </trkpt>
      <trkpt lat="44.1472" lon="4.55537">
        <ele>282.9</ele>
        <time>2019-06-01T08:29:17Z</time>
      </trkpt>
      <trkpt lat="44.14724" lon="4.55541">
        <ele>282.9</ele>
        <time>2019-06-01T08:29:19Z</time>
      </trkpt>
      <trkpt lat="44.14726" lon="4.55543">
        <ele>282.9</ele>
        <time>2019-06-01T08:29:20Z</time>
      </trkpt>
      <trkpt lat="44.14728" lon="4.55546">
        <ele>282.9</ele>
        <time>2019-06-01T08:29:21Z</time>
      </trkpt>
      <trkpt lat="44.14731" lon="4.55549">
        <ele>282.9</ele>
        <time>2019-06-01T08:29:22Z</time>
      </trkpt>
      <trkpt lat="44.14733" lon="4.55551">
        <ele>282.9</ele>
        <time>2019-06-01T08:29:23Z</time>
      </trkpt>
      <trkpt lat="44.14736" lon="4.55553">
        <ele>282.9</ele>
        <time>2019-06-01T08:29:24Z</time>
      </trkpt>
      <trkpt lat="44.14738" lon="4.55554">
        <ele>282.8</ele>
        <time>2019-06-01T08:29:25Z</time>
      </trkpt>
      <trkpt lat="44.14743" lon="4.55558">
        <ele>282.8</ele>
        <time>2019-06-01T08:29:27Z</time>
      </trkpt>
      <trkpt lat="44.14749" lon="4.55559">
        <ele>282.7</ele>
        <time>2019-06-01T08:29:29Z</time>
      </trkpt>
      <trkpt lat="44.14752" lon="4.55559">
        <ele>282.7</ele>
        <time>2019-06-01T08:29:30Z</time>
      </trkpt>
      <trkpt lat="44.14755" lon="4.55557">
        <ele>282.7</ele>
        <time>2019-06-01T08:29:31Z</time>
      </trkpt>
      <trkpt lat="44.14759" lon="4.55555">
        <ele>282.6</ele>
        <time>2019-06-01T08:29:32Z</time>
      </trkpt>
      <trkpt lat="44.14762" lon="4.55553">
        <ele>282.5</ele>
        <time>2019-06-01T08:29:33Z</time>
      </trkpt>
      <trkpt lat="44.14765" lon="4.55553">
        <ele>282.5</ele>
        <time>2019-06-01T08:29:35Z</time>
      </trkpt>
      <trkpt lat="44.14771" lon="4.55556">
        <ele>282.4</ele>
        <time>2019-06-01T08:29:37Z</time>
      </trkpt>
      <trkpt lat="44.14775" lon="4.55557">
        <ele>282.3</ele>
        <time>2019-06-01T08:29:39Z</time>
      </trkpt>
      <trkpt lat="44.1478" lon="4.55556">
        <ele>282.2</ele>
        <time>2019-06-01T08:29:41Z</time>
      </trkpt>
      <trkpt lat="44.14785" lon="4.55554">
        <ele>282.1</ele>
        <time>2019-06-01T08:29:43Z</time>
      </trkpt>
      <trkpt lat="44.14788" lon="4.55552">
        <ele>281.9</ele>
        <time>2019-06-01T08:29:44Z</time>
      </trkpt>
      <trkpt lat="44.14791" lon="4.5555">
        <ele>281.7</ele>
        <time>2019-06-01T08:29:45Z</time>
      </trkpt>
      <trkpt lat="44.14793" lon="4.55546">
        <ele>281.5</ele>
        <time>2019-06-01T08:29:46Z</time>
      </trkpt>
      <trkpt lat="44.14796" lon="4.55542">
        <ele>281.3</ele>
        <time>2019-06-01T08:29:47Z</time>
      </trkpt>
      <trkpt lat="44.14798" lon="4.55538">
        <ele>281</ele>
        <time>2019-06-01T08:29:48Z</time>
      </trkpt>
      <trkpt lat="44.14801" lon="4.55534">
        <ele>280.6</ele>
        <time>2019-06-01T08:29:49Z</time>
      </trkpt>
      <trkpt lat="44.14802" lon="4.55529">
        <ele>280.4</ele>
        <time>2019-06-01T08:29:50Z</time>
      </trkpt>
      <trkpt lat="44.14804" lon="4.55525">
        <ele>280.1</ele>
        <time>2019-06-01T08:29:51Z</time>
      </trkpt>
      <trkpt lat="44.14805" lon="4.55521">
        <ele>279.9</ele>
        <time>2019-06-01T08:29:52Z</time>
      </trkpt>
      <trkpt lat="44.14807" lon="4.55517">
        <ele>279.6</ele>
        <time>2019-06-01T08:29:53Z</time>
      </trkpt>
      <trkpt lat="44.14809" lon="4.55514">
        <ele>279.4</ele>
        <time>2019-06-01T08:29:54Z</time>
      </trkpt>
      <trkpt lat="44.14812" lon="4.55511">
        <ele>279.2</ele>
        <time>2019-06-01T08:29:55Z</time>
      </trkpt>
      <trkpt lat="44.14814" lon="4.55508">
        <ele>278.9</ele>
        <time>2019-06-01T08:29:57Z</time>
      </trkpt>
      <trkpt lat="44.14817" lon="4.55507">
        <ele>278.6</ele>
        <time>2019-06-01T08:30:00Z</time>
      </trkpt>
      <trkpt lat="44.14821" lon="4.55505">
        <ele>278.4</ele>
        <time>2019-06-01T08:30:05Z</time>
      </trkpt>
      <trkpt lat="44.14826" lon="4.55505">
        <ele>278.1</ele>
        <time>2019-06-01T08:30:07Z</time>
      </trkpt>
      <trkpt lat="44.14832" lon="4.55506">
        <ele>277.7</ele>
        <time>2019-06-01T08:30:09Z</time>
      </trkpt>
      <trkpt lat="44.14837" lon="4.55507">
        <ele>277.2</ele>
        <time>2019-06-01T08:30:11Z</time>
      </trkpt>
      <trkpt lat="44.14839" lon="4.55508">
        <ele>277</ele>
        <time>2019-06-01T08:30:12Z</time>
      </trkpt>
      <trkpt lat="44.14842" lon="4.5551">
        <ele>276.8</ele>
        <time>2019-06-01T08:30:13Z</time>
      </trkpt>
      <trkpt lat="44.14845" lon="4.55511">
        <ele>276.6</ele>
        <time>2019-06-01T08:30:14Z</time>
      </trkpt>
      <trkpt lat="44.14848" lon="4.55511">
        <ele>276.5</ele>
        <time>2019-06-01T08:30:15Z</time>
      </trkpt>
      <trkpt lat="44.14852" lon="4.5551">
        <ele>276.2</ele>
        <time>2019-06-01T08:30:17Z</time>
      </trkpt>
      <trkpt lat="44.14856" lon="4.55509">
        <ele>276</ele>
        <time>2019-06-01T08:30:19Z</time>
      </trkpt>
      <trkpt lat="44.14858" lon="4.55508">
        <ele>275.8</ele>
        <time>2019-06-01T08:30:20Z</time>
      </trkpt>
      <trkpt lat="44.14861" lon="4.55508">
        <ele>275.6</ele>
        <time>2019-06-01T08:30:21Z</time>
      </trkpt>
      <trkpt lat="44.14866" lon="4.55504">
        <ele>275</ele>
        <time>2019-06-01T08:30:23Z</time>
      </trkpt>
      <trkpt lat="44.1487" lon="4.555">
        <ele>274.2</ele>
        <time>2019-06-01T08:30:25Z</time>
      </trkpt>
      <trkpt lat="44.14874" lon="4.55497">
        <ele>273.4</ele>
        <time>2019-06-01T08:30:27Z</time>
      </trkpt>
      <trkpt lat="44.14879" lon="4.55494">
        <ele>272.7</ele>
        <time>2019-06-01T08:30:29Z</time>
      </trkpt>
      <trkpt lat="44.14884" lon="4.55489">
        <ele>271.8</ele>
        <time>2019-06-01T08:30:31Z</time>
      </trkpt>
      <trkpt lat="44.14888" lon="4.55484">
        <ele>271.2</ele>
        <time>2019-06-01T08:30:32Z</time>
      </trkpt>
      <trkpt lat="44.14901" lon="4.55466">
        <ele>270.4</ele>
        <time>2019-06-01T08:30:34Z</time>
      </trkpt>
      <trkpt lat="44.14907" lon="4.55464">
        <ele>270.1</ele>
        <time>2019-06-01T08:30:35Z</time>
      </trkpt>
      <trkpt lat="44.1491" lon="4.55463">
        <ele>270</ele>
        <time>2019-06-01T08:30:36Z</time>
      </trkpt>
      <trkpt lat="44.14913" lon="4.55462">
        <ele>269.9</ele>
        <time>2019-06-01T08:30:37Z</time>
      </trkpt>
      <trkpt lat="44.14917" lon="4.55463">
        <ele>269.7</ele>
        <time>2019-06-01T08:30:38Z</time>
      </trkpt>
      <trkpt lat="44.14922" lon="4.55462">
        <ele>269.5</ele>
        <time>2019-06-01T08:30:39Z</time>
      </trkpt>
      <trkpt lat="44.14929" lon="4.55466">
        <ele>269.2</ele>
        <time>2019-06-01T08:30:40Z</time>
      </trkpt>
      <trkpt lat="44.14932" lon="4.55468">
        <ele>269</ele>
        <time>2019-06-01T08:30:43Z</time>
      </trkpt>
      <trkpt lat="44.14935" lon="4.55473">
        <ele>268.7</ele>
        <time>2019-06-01T08:30:45Z</time>
      </trkpt>
      <trkpt lat="44.14939" lon="4.55476">
        <ele>268.4</ele>
        <time>2019-06-01T08:30:47Z</time>
      </trkpt>
      <trkpt lat="44.14944" lon="4.55477">
        <ele>268.2</ele>
        <time>2019-06-01T08:30:49Z</time>
      </trkpt>
      <trkpt lat="44.14948" lon="4.55476">
        <ele>268</ele>
        <time>2019-06-01T08:30:51Z</time>
      </trkpt>
      <trkpt lat="44.14952" lon="4.55477">
        <ele>267.9</ele>
        <time>2019-06-01T08:30:53Z</time>
      </trkpt>
      <trkpt lat="44.14955" lon="4.55478">
        <ele>267.8</ele>
        <time>2019-06-01T08:30:54Z</time>
      </trkpt>
      <trkpt lat="44.14958" lon="4.5548">
        <ele>267.8</ele>
        <time>2019-06-01T08:30:55Z</time>
      </trkpt>
      <trkpt lat="44.14961" lon="4.55482">
        <ele>267.7</ele>
        <time>2019-06-01T08:30:56Z</time>
      </trkpt>
      <trkpt lat="44.14964" lon="4.55487">
        <ele>267.5</ele>
        <time>2019-06-01T08:30:58Z</time>
      </trkpt>
      <trkpt lat="44.14967" lon="4.55493">
        <ele>267.4</ele>
        <time>2019-06-01T08:31:00Z</time>
      </trkpt>
      <trkpt lat="44.1497" lon="4.55497">
        <ele>267.2</ele>
        <time>2019-06-01T08:31:01Z</time>
      </trkpt>
      <trkpt lat="44.14972" lon="4.55501">
        <ele>267.1</ele>
        <time>2019-06-01T08:31:02Z</time>
      </trkpt>
      <trkpt lat="44.14975" lon="4.55504">
        <ele>266.9</ele>
        <time>2019-06-01T08:31:03Z</time>
      </trkpt>
      <trkpt lat="44.14979" lon="4.55507">
        <ele>266.6</ele>
        <time>2019-06-01T08:31:05Z</time>
      </trkpt>
      <trkpt lat="44.14982" lon="4.55507">
        <ele>266.4</ele>
        <time>2019-06-01T08:31:07Z</time>
      </trkpt>
      <trkpt lat="44.14987" lon="4.55506">
        <ele>266.1</ele>
        <time>2019-06-01T08:31:09Z</time>
      </trkpt>
      <trkpt lat="44.1499" lon="4.55506">
        <ele>266</ele>
        <time>2019-06-01T08:31:10Z</time>
      </trkpt>
      <trkpt lat="44.14994" lon="4.55508">
        <ele>265.9</ele>
        <time>2019-06-01T08:31:12Z</time>
      </trkpt>
      <trkpt lat="44.14998" lon="4.55509">
        <ele>265.9</ele>
        <time>2019-06-01T08:31:14Z</time>
      </trkpt>
      <trkpt lat="44.15001" lon="4.5551">
        <ele>265.8</ele>
        <time>2019-06-01T08:31:18Z</time>
      </trkpt>
      <trkpt lat="44.15003" lon="4.55507">
        <ele>265.8</ele>
        <time>2019-06-01T08:31:22Z</time>
      </trkpt>
      <trkpt lat="44.15006" lon="4.55505">
        <ele>265.8</ele>
        <time>2019-06-01T08:31:26Z</time>
      </trkpt>
      <trkpt lat="44.15005" lon="4.55501">
        <ele>265.8</ele>
        <time>2019-06-01T08:31:36Z</time>
      </trkpt>
      <trkpt lat="44.15009" lon="4.55499">
        <ele>265.9</ele>
        <time>2019-06-01T08:31:42Z</time>
      </trkpt>
      <trkpt lat="44.15011" lon="4.555">
        <ele>266.1</ele>
        <time>2019-06-01T08:31:45Z</time>
      </trkpt>
      <trkpt lat="44.15014" lon="4.555">
        <ele>266.2</ele>
        <time>2019-06-01T08:31:47Z</time>
      </trkpt>
      <trkpt lat="44.15017" lon="4.55504">
        <ele>266.4</ele>
        <time>2019-06-01T08:31:49Z</time>
      </trkpt>
      <trkpt lat="44.1502" lon="4.55505">
        <ele>266.6</ele>
        <time>2019-06-01T08:31:50Z</time>
      </trkpt>
      <trkpt lat="44.15023" lon="4.55506">
        <ele>266.8</ele>
        <time>2019-06-01T08:31:51Z</time>
      </trkpt>
      <trkpt lat="44.15026" lon="4.55505">
        <ele>267.1</ele>
        <time>2019-06-01T08:31:52Z</time>
      </trkpt>
      <trkpt lat="44.15029" lon="4.55505">
        <ele>267.2</ele>
        <time>2019-06-01T08:31:53Z</time>
      </trkpt>
      <trkpt lat="44.15032" lon="4.55505">
        <ele>267.4</ele>
        <time>2019-06-01T08:31:54Z</time>
      </trkpt>
      <trkpt lat="44.15035" lon="4.55506">
        <ele>267.5</ele>
        <time>2019-06-01T08:31:55Z</time>
      </trkpt>
      <trkpt lat="44.1504" lon="4.55507">
        <ele>267.8</ele>
        <time>2019-06-01T08:31:57Z</time>
      </trkpt>
      <trkpt lat="44.15044" lon="4.55508">
        <ele>268</ele>
        <time>2019-06-01T08:31:58Z</time>
      </trkpt>
      <trkpt lat="44.15047" lon="4.5551">
        <ele>268.1</ele>
        <time>2019-06-01T08:31:59Z</time>
      </trkpt>
      <trkpt lat="44.15051" lon="4.55512">
        <ele>268.2</ele>
        <time>2019-06-01T08:32:01Z</time>
      </trkpt>
      <trkpt lat="44.15055" lon="4.55513">
        <ele>268.3</ele>
        <time>2019-06-01T08:32:03Z</time>
      </trkpt>
      <trkpt lat="44.15057" lon="4.55512">
        <ele>268.4</ele>
        <time>2019-06-01T08:32:04Z</time>
      </trkpt>
      <trkpt lat="44.15061" lon="4.55511">
        <ele>268.5</ele>
        <time>2019-06-01T08:32:05Z</time>
      </trkpt>
      <trkpt lat="44.15064" lon="4.5551">
        <ele>268.6</ele>
        <time>2019-06-01T08:32:06Z</time>
      </trkpt>
      <trkpt lat="44.15066" lon="4.55508">
        <ele>268.7</ele>
        <time>2019-06-01T08:32:07Z</time>
      </trkpt>
      <trkpt lat="44.15071" lon="4.55505">
        <ele>268.8</ele>
        <time>2019-06-01T08:32:09Z</time>
      </trkpt>
      <trkpt lat="44.15074" lon="4.55503">
        <ele>268.9</ele>
        <time>2019-06-01T08:32:10Z</time>
      </trkpt>
      <trkpt lat="44.15078" lon="4.55502">
        <ele>269.1</ele>
        <time>2019-06-01T08:32:11Z</time>
      </trkpt>
      <trkpt lat="44.15081" lon="4.55501">
        <ele>269.2</ele>
        <time>2019-06-01T08:32:12Z</time>
      </trkpt>
      <trkpt lat="44.15085" lon="4.55499">
        <ele>269.4</ele>
        <time>2019-06-01T08:32:14Z</time>
      </trkpt>
      <trkpt lat="44.15089" lon="4.55496">
        <ele>269.6</ele>
        <time>2019-06-01T08:32:16Z</time>
      </trkpt>
      <trkpt lat="44.15091" lon="4.55492">
        <ele>269.7</ele>
        <time>2019-06-01T08:32:18Z</time>
      </trkpt>
      <trkpt lat="44.15095" lon="4.55487">
        <ele>269.8</ele>
        <time>2019-06-01T08:32:20Z</time>
      </trkpt>
      <trkpt lat="44.15097" lon="4.55484">
        <ele>269.9</ele>
        <time>2019-06-01T08:32:21Z</time>
      </trkpt>
      <trkpt lat="44.151" lon="4.55479">
        <ele>269.9</ele>
        <time>2019-06-01T08:32:23Z</time>
      </trkpt>
      <trkpt lat="44.15103" lon="4.55474">
        <ele>269.9</ele>
        <time>2019-06-01T08:32:25Z</time>
      </trkpt>
      <trkpt lat="44.15105" lon="4.55471">
        <ele>269.9</ele>
        <time>2019-06-01T08:32:26Z</time>
      </trkpt>
      <trkpt lat="44.15108" lon="4.55468">
        <ele>269.9</ele>
        <time>2019-06-01T08:32:27Z</time>
      </trkpt>
      <trkpt lat="44.15111" lon="4.55464">
        <ele>269.8</ele>
        <time>2019-06-01T08:32:28Z</time>
      </trkpt>
      <trkpt lat="44.15113" lon="4.5546">
        <ele>269.7</ele>
        <time>2019-06-01T08:32:29Z</time>
      </trkpt>
      <trkpt lat="44.15115" lon="4.55455">
        <ele>269.6</ele>
        <time>2019-06-01T08:32:30Z</time>
      </trkpt>
      <trkpt lat="44.15116" lon="4.5545">
        <ele>269.4</ele>
        <time>2019-06-01T08:32:31Z</time>
      </trkpt>
      <trkpt lat="44.15118" lon="4.55445">
        <ele>269.2</ele>
        <time>2019-06-01T08:32:32Z</time>
      </trkpt>
      <trkpt lat="44.1512" lon="4.55439">
        <ele>269</ele>
        <time>2019-06-01T08:32:33Z</time>
      </trkpt>
      <trkpt lat="44.15122" lon="4.55433">
        <ele>268.6</ele>
        <time>2019-06-01T08:32:34Z</time>
      </trkpt>
      <trkpt lat="44.15125" lon="4.55428">
        <ele>268.4</ele>
        <time>2019-06-01T08:32:35Z</time>
      </trkpt>
      <trkpt lat="44.15126" lon="4.55425">
        <ele>268.2</ele>
        <time>2019-06-01T08:32:36Z</time>
      </trkpt>
      <trkpt lat="44.15129" lon="4.55422">
        <ele>268</ele>
        <time>2019-06-01T08:32:38Z</time>
      </trkpt>
      <trkpt lat="44.15132" lon="4.55422">
        <ele>267.9</ele>
        <time>2019-06-01T08:32:40Z</time>
      </trkpt>
      <trkpt lat="44.15133" lon="4.55429">
        <ele>267.7</ele>
        <time>2019-06-01T08:32:42Z</time>
      </trkpt>
      <trkpt lat="44.15134" lon="4.55434">
        <ele>267.7</ele>
        <time>2019-06-01T08:32:43Z</time>
      </trkpt>
      <trkpt lat="44.15135" lon="4.55439">
        <ele>267.7</ele>
        <time>2019-06-01T08:32:44Z</time>
      </trkpt>
      <trkpt lat="44.15136" lon="4.55445">
        <ele>267.7</ele>
        <time>2019-06-01T08:32:45Z</time>
      </trkpt>
      <trkpt lat="44.15137" lon="4.5545">
        <ele>267.8</ele>
        <time>2019-06-01T08:32:46Z</time>
      </trkpt>
      <trkpt lat="44.15138" lon="4.55454">
        <ele>267.8</ele>
        <time>2019-06-01T08:32:47Z</time>
      </trkpt>
      <trkpt lat="44.1514" lon="4.55458">
        <ele>267.8</ele>
        <time>2019-06-01T08:32:48Z</time>
      </trkpt>
      <trkpt lat="44.15141" lon="4.55463">
        <ele>267.8</ele>
        <time>2019-06-01T08:32:49Z</time>
      </trkpt>
      <trkpt lat="44.15142" lon="4.55467">
        <ele>267.8</ele>
        <time>2019-06-01T08:32:50Z</time>
      </trkpt>
      <trkpt lat="44.15143" lon="4.55471">
        <ele>267.9</ele>
        <time>2019-06-01T08:32:51Z</time>
      </trkpt>
      <trkpt lat="44.15144" lon="4.55475">
        <ele>267.9</ele>
        <time>2019-06-01T08:32:52Z</time>
      </trkpt>
      <trkpt lat="44.15144" lon="4.55479">
        <ele>267.9</ele>
        <time>2019-06-01T08:32:53Z</time>
      </trkpt>
      <trkpt lat="44.15145" lon="4.55485">
        <ele>267.9</ele>
        <time>2019-06-01T08:32:55Z</time>
      </trkpt>
      <trkpt lat="44.15146" lon="4.5549">
        <ele>267.9</ele>
        <time>2019-06-01T08:32:57Z</time>
      </trkpt>
      <trkpt lat="44.15147" lon="4.55496">
        <ele>267.9</ele>
        <time>2019-06-01T08:33:00Z</time>
      </trkpt>
      <trkpt lat="44.15149" lon="4.55504">
        <ele>268</ele>
        <time>2019-06-01T08:33:02Z</time>
      </trkpt>
      <trkpt lat="44.15151" lon="4.55508">
        <ele>268</ele>
        <time>2019-06-01T08:33:03Z</time>
      </trkpt>
      <trkpt lat="44.15152" lon="4.55512">
        <ele>268</ele>
        <time>2019-06-01T08:33:04Z</time>
      </trkpt>
      <trkpt lat="44.15154" lon="4.55516">
        <ele>268</ele>
        <time>2019-06-01T08:33:05Z</time>
      </trkpt>
      <trkpt lat="44.15155" lon="4.55521">
        <ele>268</ele>
        <time>2019-06-01T08:33:06Z</time>
      </trkpt>
      <trkpt lat="44.15156" lon="4.55525">
        <ele>268</ele>
        <time>2019-06-01T08:33:07Z</time>
      </trkpt>
      <trkpt lat="44.15158" lon="4.55531">
        <ele>268</ele>
        <time>2019-06-01T08:33:08Z</time>
      </trkpt>
      <trkpt lat="44.15159" lon="4.55536">
        <ele>268</ele>
        <time>2019-06-01T08:33:09Z</time>
      </trkpt>
      <trkpt lat="44.1516" lon="4.55541">
        <ele>268</ele>
        <time>2019-06-01T08:33:10Z</time>
      </trkpt>
      <trkpt lat="44.15161" lon="4.55546">
        <ele>268</ele>
        <time>2019-06-01T08:33:11Z</time>
      </trkpt>
      <trkpt lat="44.15162" lon="4.55552">
        <ele>268</ele>
        <time>2019-06-01T08:33:12Z</time>
      </trkpt>
      <trkpt lat="44.15163" lon="4.55558">
        <ele>268</ele>
        <time>2019-06-01T08:33:13Z</time>
      </trkpt>
      <trkpt lat="44.15164" lon="4.55564">
        <ele>268</ele>
        <time>2019-06-01T08:33:14Z</time>
      </trkpt>
      <trkpt lat="44.15162" lon="4.55572">
        <ele>268</ele>
        <time>2019-06-01T08:33:15Z</time>
      </trkpt>
      <trkpt lat="44.1516" lon="4.55577">
        <ele>268</ele>
        <time>2019-06-01T08:33:16Z</time>
      </trkpt>
      <trkpt lat="44.15157" lon="4.5558">
        <ele>268</ele>
        <time>2019-06-01T08:33:17Z</time>
      </trkpt>
      <trkpt lat="44.15153" lon="4.55582">
        <ele>268</ele>
        <time>2019-06-01T08:33:18Z</time>
      </trkpt>
      <trkpt lat="44.15149" lon="4.55585">
        <ele>268</ele>
        <time>2019-06-01T08:33:19Z</time>
      </trkpt>
      <trkpt lat="44.15145" lon="4.5559">
        <ele>268</ele>
        <time>2019-06-01T08:33:20Z</time>
      </trkpt>
      <trkpt lat="44.1514" lon="4.55594">
        <ele>268.1</ele>
        <time>2019-06-01T08:33:21Z</time>
      </trkpt>
      <trkpt lat="44.15135" lon="4.55597">
        <ele>268.1</ele>
        <time>2019-06-01T08:33:22Z</time>
      </trkpt>
      <trkpt lat="44.1513" lon="4.556">
        <ele>268.2</ele>
        <time>2019-06-01T08:33:23Z</time>
      </trkpt>
      <trkpt lat="44.15126" lon="4.55607">
        <ele>268.2</ele>
        <time>2019-06-01T08:33:24Z</time>
      </trkpt>
      <trkpt lat="44.1512" lon="4.55608">
        <ele>268.3</ele>
        <time>2019-06-01T08:33:25Z</time>
      </trkpt>
      <trkpt lat="44.15115" lon="4.55613">
        <ele>268.4</ele>
        <time>2019-06-01T08:33:26Z</time>
      </trkpt>
      <trkpt lat="44.1511" lon="4.55614">
        <ele>268.5</ele>
        <time>2019-06-01T08:33:27Z</time>
      </trkpt>
      <trkpt lat="44.15105" lon="4.55617">
        <ele>268.7</ele>
        <time>2019-06-01T08:33:28Z</time>
      </trkpt>
      <trkpt lat="44.15099" lon="4.55618">
        <ele>268.9</ele>
        <time>2019-06-01T08:33:29Z</time>
      </trkpt>
      <trkpt lat="44.15095" lon="4.5562">
        <ele>269</ele>
        <time>2019-06-01T08:33:30Z</time>
      </trkpt>
      <trkpt lat="44.15091" lon="4.55624">
        <ele>269.2</ele>
        <time>2019-06-01T08:33:31Z</time>
      </trkpt>
      <trkpt lat="44.15085" lon="4.55625">
        <ele>269.4</ele>
        <time>2019-06-01T08:33:32Z</time>
      </trkpt>
      <trkpt lat="44.15079" lon="4.55629">
        <ele>269.6</ele>
        <time>2019-06-01T08:33:33Z</time>
      </trkpt>
      <trkpt lat="44.15075" lon="4.55636">
        <ele>269.7</ele>
        <time>2019-06-01T08:33:34Z</time>
      </trkpt>
      <trkpt lat="44.15072" lon="4.55644">
        <ele>269.9</ele>
        <time>2019-06-01T08:33:35Z</time>
      </trkpt>
      <trkpt lat="44.15068" lon="4.5565">
        <ele>270.1</ele>
        <time>2019-06-01T08:33:36Z</time>
      </trkpt>
      <trkpt lat="44.15065" lon="4.55657">
        <ele>270.3</ele>
        <time>2019-06-01T08:33:37Z</time>
      </trkpt>
      <trkpt lat="44.15062" lon="4.55664">
        <ele>270.5</ele>
        <time>2019-06-01T08:33:38Z</time>
      </trkpt>
      <trkpt lat="44.15059" lon="4.55671">
        <ele>270.6</ele>
        <time>2019-06-01T08:33:39Z</time>
      </trkpt>
      <trkpt lat="44.15058" lon="4.5568">
        <ele>270.8</ele>
        <time>2019-06-01T08:33:40Z</time>
      </trkpt>
      <trkpt lat="44.15057" lon="4.55686">
        <ele>270.9</ele>
        <time>2019-06-01T08:33:41Z</time>
      </trkpt>
      <trkpt lat="44.15057" lon="4.55693">
        <ele>271</ele>
        <time>2019-06-01T08:33:42Z</time>
      </trkpt>
      <trkpt lat="44.15057" lon="4.55698">
        <ele>271.1</ele>
        <time>2019-06-01T08:33:43Z</time>
      </trkpt>
      <trkpt lat="44.15057" lon="4.55704">
        <ele>271.2</ele>
        <time>2019-06-01T08:33:44Z</time>
      </trkpt>
      <trkpt lat="44.15057" lon="4.5571">
        <ele>271.3</ele>
        <time>2019-06-01T08:33:45Z</time>
      </trkpt>
      <trkpt lat="44.15059" lon="4.55717">
        <ele>271.5</ele>
        <time>2019-06-01T08:33:46Z</time>
      </trkpt>
      <trkpt lat="44.1506" lon="4.55724">
        <ele>271.6</ele>
        <time>2019-06-01T08:33:47Z</time>
      </trkpt>
      <trkpt lat="44.1506" lon="4.55729">
        <ele>271.7</ele>
        <time>2019-06-01T08:33:48Z</time>
      </trkpt>
      <trkpt lat="44.15062" lon="4.55733">
        <ele>271.4</ele>
        <time>2019-06-01T08:33:49Z</time>
      </trkpt>
      <trkpt lat="44.15062" lon="4.55737">
        <ele>271.2</ele>
        <time>2019-06-01T08:33:50Z</time>
      </trkpt>
      <trkpt lat="44.15061" lon="4.55743">
        <ele>270.9</ele>
        <time>2019-06-01T08:33:51Z</time>
      </trkpt>
      <trkpt lat="44.15059" lon="4.55748">
        <ele>270.6</ele>
        <time>2019-06-01T08:33:52Z</time>
      </trkpt>
      <trkpt lat="44.15058" lon="4.55752">
        <ele>270.2</ele>
        <time>2019-06-01T08:33:53Z</time>
      </trkpt>
      <trkpt lat="44.15058" lon="4.55757">
        <ele>269.8</ele>
        <time>2019-06-01T08:33:54Z</time>
      </trkpt>
      <trkpt lat="44.15057" lon="4.55763">
        <ele>269.2</ele>
        <time>2019-06-01T08:33:55Z</time>
      </trkpt>
      <trkpt lat="44.15057" lon="4.5577">
        <ele>268.6</ele>
        <time>2019-06-01T08:33:56Z</time>
      </trkpt>
      <trkpt lat="44.15057" lon="4.55777">
        <ele>268</ele>
        <time>2019-06-01T08:33:57Z</time>
      </trkpt>
      <trkpt lat="44.15057" lon="4.55785">
        <ele>267.4</ele>
        <time>2019-06-01T08:33:58Z</time>
      </trkpt>
      <trkpt lat="44.15056" lon="4.55794">
        <ele>266.7</ele>
        <time>2019-06-01T08:33:59Z</time>
      </trkpt>
      <trkpt lat="44.15055" lon="4.55802">
        <ele>266</ele>
        <time>2019-06-01T08:34:00Z</time>
      </trkpt>
      <trkpt lat="44.15054" lon="4.5581">
        <ele>265.4</ele>
        <time>2019-06-01T08:34:01Z</time>
      </trkpt>
      <trkpt lat="44.15052" lon="4.55817">
        <ele>264.8</ele>
        <time>2019-06-01T08:34:02Z</time>
      </trkpt>
      <trkpt lat="44.15052" lon="4.55824">
        <ele>264.2</ele>
        <time>2019-06-01T08:34:03Z</time>
      </trkpt>
      <trkpt lat="44.15051" lon="4.55829">
        <ele>263.6</ele>
        <time>2019-06-01T08:34:04Z</time>
      </trkpt>
      <trkpt lat="44.15048" lon="4.55838">
        <ele>262.8</ele>
        <time>2019-06-01T08:34:06Z</time>
      </trkpt>
      <trkpt lat="44.15047" lon="4.55847">
        <ele>262.4</ele>
        <time>2019-06-01T08:34:07Z</time>
      </trkpt>
      <trkpt lat="44.15045" lon="4.55854">
        <ele>262</ele>
        <time>2019-06-01T08:34:08Z</time>
      </trkpt>
      <trkpt lat="44.15044" lon="4.5586">
        <ele>261.7</ele>
        <time>2019-06-01T08:34:09Z</time>
      </trkpt>
      <trkpt lat="44.15041" lon="4.55864">
        <ele>261.4</ele>
        <time>2019-06-01T08:34:10Z</time>
      </trkpt>
      <trkpt lat="44.15038" lon="4.55866">
        <ele>261.2</ele>
        <time>2019-06-01T08:34:11Z</time>
      </trkpt>
      <trkpt lat="44.15036" lon="4.55869">
        <ele>261</ele>
        <time>2019-06-01T08:34:12Z</time>
      </trkpt>
      <trkpt lat="44.15036" lon="4.55874">
        <ele>260.8</ele>
        <time>2019-06-01T08:34:13Z</time>
      </trkpt>
      <trkpt lat="44.15036" lon="4.55881">
        <ele>260.5</ele>
        <time>2019-06-01T08:34:15Z</time>
      </trkpt>
      <trkpt lat="44.15036" lon="4.5589">
        <ele>260</ele>
        <time>2019-06-01T08:34:16Z</time>
      </trkpt>
      <trkpt lat="44.15035" lon="4.559">
        <ele>259.6</ele>
        <time>2019-06-01T08:34:17Z</time>
      </trkpt>
      <trkpt lat="44.15034" lon="4.55909">
        <ele>259.2</ele>
        <time>2019-06-01T08:34:18Z</time>
      </trkpt>
      <trkpt lat="44.15031" lon="4.55915">
        <ele>258.8</ele>
        <time>2019-06-01T08:34:19Z</time>
      </trkpt>
      <trkpt lat="44.15027" lon="4.55919">
        <ele>258.5</ele>
        <time>2019-06-01T08:34:20Z</time>
      </trkpt>
      <trkpt lat="44.15024" lon="4.55924">
        <ele>258.2</ele>
        <time>2019-06-01T08:34:21Z</time>
      </trkpt>
      <trkpt lat="44.15023" lon="4.55931">
        <ele>257.7</ele>
        <time>2019-06-01T08:34:22Z</time>
      </trkpt>
      <trkpt lat="44.15021" lon="4.55936">
        <ele>257.5</ele>
        <time>2019-06-01T08:34:23Z</time>
      </trkpt>
      <trkpt lat="44.1502" lon="4.5594">
        <ele>257.2</ele>
        <time>2019-06-01T08:34:24Z</time>
      </trkpt>
      <trkpt lat="44.15018" lon="4.55944">
        <ele>257</ele>
        <time>2019-06-01T08:34:25Z</time>
      </trkpt>
      <trkpt lat="44.15017" lon="4.55951">
        <ele>256.6</ele>
        <time>2019-06-01T08:34:26Z</time>
      </trkpt>
      <trkpt lat="44.15015" lon="4.55956">
        <ele>256.3</ele>
        <time>2019-06-01T08:34:27Z</time>
      </trkpt>
      <trkpt lat="44.15013" lon="4.5596">
        <ele>256.1</ele>
        <time>2019-06-01T08:34:28Z</time>
      </trkpt>
      <trkpt lat="44.15013" lon="4.55965">
        <ele>255.8</ele>
        <time>2019-06-01T08:34:29Z</time>
      </trkpt>
      <trkpt lat="44.1501" lon="4.55967">
        <ele>255.5</ele>
        <time>2019-06-01T08:34:31Z</time>
      </trkpt>
      <trkpt lat="44.15008" lon="4.55972">
        <ele>255.2</ele>
        <time>2019-06-01T08:34:32Z</time>
      </trkpt>
      <trkpt lat="44.15005" lon="4.55976">
        <ele>254.2</ele>
        <time>2019-06-01T08:34:34Z</time>
      </trkpt>
      <trkpt lat="44.15001" lon="4.55976">
        <ele>253.2</ele>
        <time>2019-06-01T08:34:36Z</time>
      </trkpt>
      <trkpt lat="44.14999" lon="4.55974">
        <ele>252.3</ele>
        <time>2019-06-01T08:34:38Z</time>
      </trkpt>
      <trkpt lat="44.14998" lon="4.55969">
        <ele>252.2</ele>
        <time>2019-06-01T08:34:43Z</time>
      </trkpt>
      <trkpt lat="44.14994" lon="4.55965">
        <ele>250.5</ele>
        <time>2019-06-01T08:34:45Z</time>
      </trkpt>
      <trkpt lat="44.14991" lon="4.55964">
        <ele>249.6</ele>
        <time>2019-06-01T08:34:46Z</time>
      </trkpt>
      <trkpt lat="44.14987" lon="4.55962">
        <ele>248.8</ele>
        <time>2019-06-01T08:34:47Z</time>
      </trkpt>
      <trkpt lat="44.14984" lon="4.55961">
        <ele>247.9</ele>
        <time>2019-06-01T08:34:48Z</time>
      </trkpt>
      <trkpt lat="44.14979" lon="4.55962">
        <ele>247.1</ele>
        <time>2019-06-01T08:34:49Z</time>
      </trkpt>
      <trkpt lat="44.14975" lon="4.55964">
        <ele>245.4</ele>
        <time>2019-06-01T08:34:50Z</time>
      </trkpt>
      <trkpt lat="44.14971" lon="4.55965">
        <ele>244.6</ele>
        <time>2019-06-01T08:34:51Z</time>
      </trkpt>
      <trkpt lat="44.14968" lon="4.55967">
        <ele>243.7</ele>
        <time>2019-06-01T08:34:52Z</time>
      </trkpt>
      <trkpt lat="44.14965" lon="4.55967">
        <ele>242.8</ele>
        <time>2019-06-01T08:34:53Z</time>
      </trkpt>
      <trkpt lat="44.14961" lon="4.55968">
        <ele>242.1</ele>
        <time>2019-06-01T08:34:54Z</time>
      </trkpt>
      <trkpt lat="44.14955" lon="4.55967">
        <ele>240.9</ele>
        <time>2019-06-01T08:34:55Z</time>
      </trkpt>
      <trkpt lat="44.1495" lon="4.55967">
        <ele>239.7</ele>
        <time>2019-06-01T08:34:56Z</time>
      </trkpt>
      <trkpt lat="44.14945" lon="4.55966">
        <ele>238.4</ele>
        <time>2019-06-01T08:34:57Z</time>
      </trkpt>
      <trkpt lat="44.1494" lon="4.55965">
        <ele>237.7</ele>
        <time>2019-06-01T08:34:58Z</time>
      </trkpt>
      <trkpt lat="44.14926" lon="4.5597">
        <ele>235.4</ele>
        <time>2019-06-01T08:34:59Z</time>
      </trkpt>
      <trkpt lat="44.14921" lon="4.55973">
        <ele>234.6</ele>
        <time>2019-06-01T08:35:00Z</time>
      </trkpt>
      <trkpt lat="44.14917" lon="4.55973">
        <ele>233.6</ele>
        <time>2019-06-01T08:35:01Z</time>
      </trkpt>
      <trkpt lat="44.14912" lon="4.55974">
        <ele>233.1</ele>
        <time>2019-06-01T08:35:02Z</time>
      </trkpt>
      <trkpt lat="44.14908" lon="4.55976">
        <ele>232.2</ele>
        <time>2019-06-01T08:35:05Z</time>
      </trkpt>
      <trkpt lat="44.149" lon="4.55976">
        <ele>231.2</ele>
        <time>2019-06-01T08:35:07Z</time>
      </trkpt>
      <trkpt lat="44.14897" lon="4.55978">
        <ele>230.7</ele>
        <time>2019-06-01T08:35:08Z</time>
      </trkpt>
      <trkpt lat="44.14894" lon="4.55982">
        <ele>230</ele>
        <time>2019-06-01T08:35:09Z</time>
      </trkpt>
      <trkpt lat="44.14889" lon="4.55982">
        <ele>229.1</ele>
        <time>2019-06-01T08:35:10Z</time>
      </trkpt>
      <trkpt lat="44.14882" lon="4.55985">
        <ele>228</ele>
        <time>2019-06-01T08:35:11Z</time>
      </trkpt>
      <trkpt lat="44.14877" lon="4.55987">
        <ele>227.2</ele>
        <time>2019-06-01T08:35:12Z</time>
      </trkpt>
      <trkpt lat="44.14873" lon="4.5599">
        <ele>226.5</ele>
        <time>2019-06-01T08:35:14Z</time>
      </trkpt>
      <trkpt lat="44.1487" lon="4.55992">
        <ele>226.1</ele>
        <time>2019-06-01T08:35:15Z</time>
      </trkpt>
      <trkpt lat="44.14867" lon="4.55993">
        <ele>225.4</ele>
        <time>2019-06-01T08:35:16Z</time>
      </trkpt>
      <trkpt lat="44.14864" lon="4.55994">
        <ele>224.9</ele>
        <time>2019-06-01T08:35:17Z</time>
      </trkpt>
      <trkpt lat="44.14859" lon="4.55997">
        <ele>224.4</ele>
        <time>2019-06-01T08:35:18Z</time>
      </trkpt>
      <trkpt lat="44.14855" lon="4.55995">
        <ele>223.5</ele>
        <time>2019-06-01T08:35:19Z</time>
      </trkpt>
      <trkpt lat="44.14851" lon="4.55995">
        <ele>223</ele>
        <time>2019-06-01T08:35:20Z</time>
      </trkpt>
      <trkpt lat="44.14846" lon="4.55998">
        <ele>221.8</ele>
        <time>2019-06-01T08:35:21Z</time>
      </trkpt>
      <trkpt lat="44.14843" lon="4.55996">
        <ele>221.6</ele>
        <time>2019-06-01T08:35:22Z</time>
      </trkpt>
      <trkpt lat="44.14841" lon="4.55994">
        <ele>221.4</ele>
        <time>2019-06-01T08:35:23Z</time>
      </trkpt>
      <trkpt lat="44.14838" lon="4.55993">
        <ele>220.7</ele>
        <time>2019-06-01T08:35:24Z</time>
      </trkpt>
      <trkpt lat="44.14835" lon="4.55993">
        <ele>220</ele>
        <time>2019-06-01T08:35:25Z</time>
      </trkpt>
      <trkpt lat="44.14831" lon="4.55993">
        <ele>218.8</ele>
        <time>2019-06-01T08:35:26Z</time>
      </trkpt>
      <trkpt lat="44.14823" lon="4.55996">
        <ele>217.6</ele>
        <time>2019-06-01T08:35:27Z</time>
      </trkpt>
      <trkpt lat="44.14819" lon="4.56001">
        <ele>216.7</ele>
        <time>2019-06-01T08:35:28Z</time>
      </trkpt>
      <trkpt lat="44.14817" lon="4.56003">
        <ele>215.7</ele>
        <time>2019-06-01T08:35:29Z</time>
      </trkpt>
      <trkpt lat="44.14813" lon="4.56001">
        <ele>215.4</ele>
        <time>2019-06-01T08:35:31Z</time>
      </trkpt>
      <trkpt lat="44.14807" lon="4.56">
        <ele>214.3</ele>
        <time>2019-06-01T08:35:33Z</time>
      </trkpt>
      <trkpt lat="44.14803" lon="4.56">
        <ele>213.3</ele>
        <time>2019-06-01T08:35:34Z</time>
      </trkpt>
      <trkpt lat="44.148" lon="4.55999">
        <ele>212.7</ele>
        <time>2019-06-01T08:35:35Z</time>
      </trkpt>
      <trkpt lat="44.14798" lon="4.56005">
        <ele>212.1</ele>
        <time>2019-06-01T08:35:36Z</time>
      </trkpt>
      <trkpt lat="44.14796" lon="4.56009">
        <ele>211.3</ele>
        <time>2019-06-01T08:35:37Z</time>
      </trkpt>
      <trkpt lat="44.14794" lon="4.56014">
        <ele>210.6</ele>
        <time>2019-06-01T08:35:38Z</time>
      </trkpt>
      <trkpt lat="44.14794" lon="4.56024">
        <ele>209.8</ele>
        <time>2019-06-01T08:35:39Z</time>
      </trkpt>
      <trkpt lat="44.14791" lon="4.56029">
        <ele>209.1</ele>
        <time>2019-06-01T08:35:40Z</time>
      </trkpt>
      <trkpt lat="44.14789" lon="4.56036">
        <ele>208.7</ele>
        <time>2019-06-01T08:35:41Z</time>
      </trkpt>
      <trkpt lat="44.14789" lon="4.56044">
        <ele>208.2</ele>
        <time>2019-06-01T08:35:42Z</time>
      </trkpt>
      <trkpt lat="44.14789" lon="4.56052">
        <ele>207.4</ele>
        <time>2019-06-01T08:35:43Z</time>
      </trkpt>
      <trkpt lat="44.14786" lon="4.5605">
        <ele>206.9</ele>
        <time>2019-06-01T08:35:45Z</time>
      </trkpt>
      <trkpt lat="44.14783" lon="4.56051">
        <ele>206.3</ele>
        <time>2019-06-01T08:35:46Z</time>
      </trkpt>
      <trkpt lat="44.14781" lon="4.56054">
        <ele>205.3</ele>
        <time>2019-06-01T08:35:47Z</time>
      </trkpt>
      <trkpt lat="44.14776" lon="4.56055">
        <ele>204.7</ele>
        <time>2019-06-01T08:35:48Z</time>
      </trkpt>
      <trkpt lat="44.14771" lon="4.56057">
        <ele>203.6</ele>
        <time>2019-06-01T08:35:49Z</time>
      </trkpt>
      <trkpt lat="44.14767" lon="4.56058">
        <ele>202.6</ele>
        <time>2019-06-01T08:35:50Z</time>
      </trkpt>
      <trkpt lat="44.14764" lon="4.5606">
        <ele>202</ele>
        <time>2019-06-01T08:35:52Z</time>
      </trkpt>
      <trkpt lat="44.14761" lon="4.5606">
        <ele>201.4</ele>
        <time>2019-06-01T08:35:54Z</time>
      </trkpt>
      <trkpt lat="44.14758" lon="4.56054">
        <ele>201.1</ele>
        <time>2019-06-01T08:35:58Z</time>
      </trkpt>
      <trkpt lat="44.14758" lon="4.56049">
        <ele>200.7</ele>
        <time>2019-06-01T08:35:59Z</time>
      </trkpt>
      <trkpt lat="44.14757" lon="4.56044">
        <ele>200.4</ele>
        <time>2019-06-01T08:36:00Z</time>
      </trkpt>
      <trkpt lat="44.14757" lon="4.56039">
        <ele>200</ele>
        <time>2019-06-01T08:36:02Z</time>
      </trkpt>
      <trkpt lat="44.14753" lon="4.56038">
        <ele>199.7</ele>
        <time>2019-06-01T08:36:07Z</time>
      </trkpt>
      <trkpt lat="44.14749" lon="4.56037">
        <ele>199.5</ele>
        <time>2019-06-01T08:36:10Z</time>
      </trkpt>
      <trkpt lat="44.14745" lon="4.56036">
        <ele>199.2</ele>
        <time>2019-06-01T08:36:12Z</time>
      </trkpt>
      <trkpt lat="44.14741" lon="4.56036">
        <ele>199</ele>
        <time>2019-06-01T08:36:13Z</time>
      </trkpt>
      <trkpt lat="44.14739" lon="4.56036">
        <ele>198.9</ele>
        <time>2019-06-01T08:36:14Z</time>
      </trkpt>
      <trkpt lat="44.14734" lon="4.56037">
        <ele>198.5</ele>
        <time>2019-06-01T08:36:16Z</time>
      </trkpt>
      <trkpt lat="44.14728" lon="4.56039">
        <ele>198.1</ele>
        <time>2019-06-01T08:36:18Z</time>
      </trkpt>
      <trkpt lat="44.14725" lon="4.56039">
        <ele>197.9</ele>
        <time>2019-06-01T08:36:19Z</time>
      </trkpt>
      <trkpt lat="44.14722" lon="4.5604">
        <ele>197.7</ele>
        <time>2019-06-01T08:36:20Z</time>
      </trkpt>
      <trkpt lat="44.14718" lon="4.56042">
        <ele>197.4</ele>
        <time>2019-06-01T08:36:21Z</time>
      </trkpt>
      <trkpt lat="44.14714" lon="4.56045">
        <ele>197.1</ele>
        <time>2019-06-01T08:36:22Z</time>
      </trkpt>
      <trkpt lat="44.14711" lon="4.5605">
        <ele>196.8</ele>
        <time>2019-06-01T08:36:23Z</time>
      </trkpt>
      <trkpt lat="44.14707" lon="4.56054">
        <ele>196.5</ele>
        <time>2019-06-01T08:36:24Z</time>
      </trkpt>
      <trkpt lat="44.14704" lon="4.56059">
        <ele>196.2</ele>
        <time>2019-06-01T08:36:25Z</time>
      </trkpt>
      <trkpt lat="44.14702" lon="4.56063">
        <ele>195.9</ele>
        <time>2019-06-01T08:36:26Z</time>
      </trkpt>
      <trkpt lat="44.14699" lon="4.56068">
        <ele>195.7</ele>
        <time>2019-06-01T08:36:27Z</time>
      </trkpt>
      <trkpt lat="44.14696" lon="4.56072">
        <ele>195.5</ele>
        <time>2019-06-01T08:36:28Z</time>
      </trkpt>
      <trkpt lat="44.14692" lon="4.56076">
        <ele>195.3</ele>
        <time>2019-06-01T08:36:29Z</time>
      </trkpt>
      <trkpt lat="44.14687" lon="4.5608">
        <ele>195.2</ele>
        <time>2019-06-01T08:36:30Z</time>
      </trkpt>
      <trkpt lat="44.14673" lon="4.56085">
        <ele>195.1</ele>
        <time>2019-06-01T08:36:31Z</time>
      </trkpt>
      <trkpt lat="44.14673" lon="4.56092">
        <ele>195.1</ele>
        <time>2019-06-01T08:36:32Z</time>
      </trkpt>
      <trkpt lat="44.1467" lon="4.56096">
        <ele>195.1</ele>
        <time>2019-06-01T08:36:33Z</time>
      </trkpt>
      <trkpt lat="44.14665" lon="4.56099">
        <ele>195</ele>
        <time>2019-06-01T08:36:34Z</time>
      </trkpt>
      <trkpt lat="44.14661" lon="4.56107">
        <ele>195</ele>
        <time>2019-06-01T08:36:36Z</time>
      </trkpt>
      <trkpt lat="44.14658" lon="4.56113">
        <ele>195</ele>
        <time>2019-06-01T08:36:37Z</time>
      </trkpt>
      <trkpt lat="44.14655" lon="4.56117">
        <ele>195</ele>
        <time>2019-06-01T08:36:38Z</time>
      </trkpt>
      <trkpt lat="44.14653" lon="4.56124">
        <ele>195</ele>
        <time>2019-06-01T08:36:39Z</time>
      </trkpt>
      <trkpt lat="44.1465" lon="4.56128">
        <ele>195</ele>
        <time>2019-06-01T08:36:40Z</time>
      </trkpt>
      <trkpt lat="44.14646" lon="4.56136">
        <ele>195</ele>
        <time>2019-06-01T08:36:41Z</time>
      </trkpt>
      <trkpt lat="44.14644" lon="4.56144">
        <ele>195</ele>
        <time>2019-06-01T08:36:42Z</time>
      </trkpt>
      <trkpt lat="44.14639" lon="4.56151">
        <ele>195</ele>
        <time>2019-06-01T08:36:43Z</time>
      </trkpt>
      <trkpt lat="44.14635" lon="4.56157">
        <ele>195</ele>
        <time>2019-06-01T08:36:44Z</time>
      </trkpt>
      <trkpt lat="44.14631" lon="4.56168">
        <ele>195</ele>
        <time>2019-06-01T08:36:45Z</time>
      </trkpt>
      <trkpt lat="44.14623" lon="4.56173">
        <ele>195</ele>
        <time>2019-06-01T08:36:46Z</time>
      </trkpt>
      <trkpt lat="44.14617" lon="4.56178">
        <ele>195</ele>
        <time>2019-06-01T08:36:47Z</time>
      </trkpt>
      <trkpt lat="44.14612" lon="4.56183">
        <ele>195</ele>
        <time>2019-06-01T08:36:48Z</time>
      </trkpt>
      <trkpt lat="44.14607" lon="4.56189">
        <ele>195</ele>
        <time>2019-06-01T08:36:49Z</time>
      </trkpt>
      <trkpt lat="44.14603" lon="4.56194">
        <ele>195</ele>
        <time>2019-06-01T08:36:50Z</time>
      </trkpt>
      <trkpt lat="44.146" lon="4.56202">
        <ele>195</ele>
        <time>2019-06-01T08:36:51Z</time>
      </trkpt>
      <trkpt lat="44.14595" lon="4.56207">
        <ele>195</ele>
        <time>2019-06-01T08:36:52Z</time>
      </trkpt>
      <trkpt lat="44.1459" lon="4.56214">
        <ele>195</ele>
        <time>2019-06-01T08:36:53Z</time>
      </trkpt>
      <trkpt lat="44.14587" lon="4.56219">
        <ele>195</ele>
        <time>2019-06-01T08:36:54Z</time>
      </trkpt>
      <trkpt lat="44.14583" lon="4.5623">
        <ele>195</ele>
        <time>2019-06-01T08:36:55Z</time>
      </trkpt>
      <trkpt lat="44.14579" lon="4.56236">
        <ele>195</ele>
        <time>2019-06-01T08:36:56Z</time>
      </trkpt>
      <trkpt lat="44.14575" lon="4.56238">
        <ele>195</ele>
        <time>2019-06-01T08:36:57Z</time>
      </trkpt>
      <trkpt lat="44.14572" lon="4.56242">
        <ele>195</ele>
        <time>2019-06-01T08:36:58Z</time>
      </trkpt>
      <trkpt lat="44.14569" lon="4.56248">
        <ele>195</ele>
        <time>2019-06-01T08:36:59Z</time>
      </trkpt>
      <trkpt lat="44.14564" lon="4.56249">
        <ele>195</ele>
        <time>2019-06-01T08:37:00Z</time>
      </trkpt>
      <trkpt lat="44.14562" lon="4.56251">
        <ele>195</ele>
        <time>2019-06-01T08:37:01Z</time>
      </trkpt>
      <trkpt lat="44.14558" lon="4.56253">
        <ele>195</ele>
        <time>2019-06-01T08:37:02Z</time>
      </trkpt>
      <trkpt lat="44.14556" lon="4.56258">
        <ele>195</ele>
        <time>2019-06-01T08:37:03Z</time>
      </trkpt>
      <trkpt lat="44.1455" lon="4.56263">
        <ele>195</ele>
        <time>2019-06-01T08:37:04Z</time>
      </trkpt>
      <trkpt lat="44.14545" lon="4.56263">
        <ele>195.1</ele>
        <time>2019-06-01T08:37:05Z</time>
      </trkpt>
      <trkpt lat="44.1454" lon="4.56264">
        <ele>195.1</ele>
        <time>2019-06-01T08:37:06Z</time>
      </trkpt>
      <trkpt lat="44.14536" lon="4.56263">
        <ele>195.2</ele>
        <time>2019-06-01T08:37:07Z</time>
      </trkpt>
      <trkpt lat="44.1453" lon="4.56269">
        <ele>195.4</ele>
        <time>2019-06-01T08:37:08Z</time>
      </trkpt>
      <trkpt lat="44.14526" lon="4.56268">
        <ele>195.5</ele>
        <time>2019-06-01T08:37:09Z</time>
      </trkpt>
      <trkpt lat="44.14525" lon="4.56273">
        <ele>195.7</ele>
        <time>2019-06-01T08:37:12Z</time>
      </trkpt>
      <trkpt lat="44.14523" lon="4.56276">
        <ele>195.9</ele>
        <time>2019-06-01T08:37:15Z</time>
      </trkpt>
      <trkpt lat="44.14519" lon="4.56274">
        <ele>196.1</ele>
        <time>2019-06-01T08:37:17Z</time>
      </trkpt>
      <trkpt lat="44.14515" lon="4.56275">
        <ele>196.4</ele>
        <time>2019-06-01T08:37:18Z</time>
      </trkpt>
      <trkpt lat="44.14512" lon="4.56276">
        <ele>196.6</ele>
        <time>2019-06-01T08:37:20Z</time>
      </trkpt>
      <trkpt lat="44.14508" lon="4.56276">
        <ele>196.8</ele>
        <time>2019-06-01T08:37:22Z</time>
      </trkpt>
      <trkpt lat="44.14505" lon="4.56277">
        <ele>196.9</ele>
        <time>2019-06-01T08:37:24Z</time>
      </trkpt>
      <trkpt lat="44.145" lon="4.56276">
        <ele>197.1</ele>
        <time>2019-06-01T08:37:27Z</time>
      </trkpt>
      <trkpt lat="44.14496" lon="4.56272">
        <ele>197.4</ele>
        <time>2019-06-01T08:37:29Z</time>
      </trkpt>
      <trkpt lat="44.14491" lon="4.56271">
        <ele>197.7</ele>
        <time>2019-06-01T08:37:31Z</time>
      </trkpt>
      <trkpt lat="44.14487" lon="4.56273">
        <ele>198.1</ele>
        <time>2019-06-01T08:37:33Z</time>
      </trkpt>
      <trkpt lat="44.14483" lon="4.56274">
        <ele>198.3</ele>
        <time>2019-06-01T08:37:34Z</time>
      </trkpt>
      <trkpt lat="44.1448" lon="4.56274">
        <ele>198.6</ele>
        <time>2019-06-01T08:37:35Z</time>
      </trkpt>
      <trkpt lat="44.14476" lon="4.56275">
        <ele>198.9</ele>
        <time>2019-06-01T08:37:37Z</time>
      </trkpt>
      <trkpt lat="44.14472" lon="4.56276">
        <ele>199.2</ele>
        <time>2019-06-01T08:37:39Z</time>
      </trkpt>
      <trkpt lat="44.14468" lon="4.56275">
        <ele>199.5</ele>
        <time>2019-06-01T08:37:41Z</time>
      </trkpt>
      <trkpt lat="44.14464" lon="4.56275">
        <ele>199.9</ele>
        <time>2019-06-01T08:37:43Z</time>
      </trkpt>
      <trkpt lat="44.14461" lon="4.56277">
        <ele>200.3</ele>
        <time>2019-06-01T08:37:45Z</time>
      </trkpt>
      <trkpt lat="44.14459" lon="4.5628">
        <ele>200.6</ele>
        <time>2019-06-01T08:37:47Z</time>
      </trkpt>
      <trkpt lat="44.14457" lon="4.56285">
        <ele>200.9</ele>
        <time>2019-06-01T08:37:50Z</time>
      </trkpt>
      <trkpt lat="44.14456" lon="4.56288">
        <ele>201.3</ele>
        <time>2019-06-01T08:37:52Z</time>
      </trkpt>
      <trkpt lat="44.14455" lon="4.56292">
        <ele>201.6</ele>
        <time>2019-06-01T08:37:54Z</time>
      </trkpt>
      <trkpt lat="44.14452" lon="4.56296">
        <ele>202.1</ele>
        <time>2019-06-01T08:37:57Z</time>
      </trkpt>
      <trkpt lat="44.14447" lon="4.56298">
        <ele>202.8</ele>
        <time>2019-06-01T08:37:59Z</time>
      </trkpt>
      <trkpt lat="44.14443" lon="4.56301">
        <ele>203.2</ele>
        <time>2019-06-01T08:38:01Z</time>
      </trkpt>
      <trkpt lat="44.14442" lon="4.56304">
        <ele>203.5</ele>
        <time>2019-06-01T08:38:03Z</time>
      </trkpt>
      <trkpt lat="44.1444" lon="4.56309">
        <ele>203.8</ele>
        <time>2019-06-01T08:38:05Z</time>
      </trkpt>
      <trkpt lat="44.14437" lon="4.56312">
        <ele>204.1</ele>
        <time>2019-06-01T08:38:07Z</time>
      </trkpt>
      <trkpt lat="44.14435" lon="4.56315">
        <ele>204.4</ele>
        <time>2019-06-01T08:38:09Z</time>
      </trkpt>
      <trkpt lat="44.14435" lon="4.56319">
        <ele>204.9</ele>
        <time>2019-06-01T08:38:10Z</time>
      </trkpt>
      <trkpt lat="44.14436" lon="4.56323">
        <ele>205.3</ele>
        <time>2019-06-01T08:38:11Z</time>
      </trkpt>
      <trkpt lat="44.14436" lon="4.56327">
        <ele>205.7</ele>
        <time>2019-06-01T08:38:12Z</time>
      </trkpt>
      <trkpt lat="44.14439" lon="4.56333">
        <ele>206.3</ele>
        <time>2019-06-01T08:38:14Z</time>
      </trkpt>
      <trkpt lat="44.14442" lon="4.56338">
        <ele>206.7</ele>
        <time>2019-06-01T08:38:16Z</time>
      </trkpt>
      <trkpt lat="44.14444" lon="4.56341">
        <ele>207</ele>
        <time>2019-06-01T08:38:18Z</time>
      </trkpt>
      <trkpt lat="44.14446" lon="4.56345">
        <ele>207.3</ele>
        <time>2019-06-01T08:38:21Z</time>
      </trkpt>
      <trkpt lat="44.14449" lon="4.56347">
        <ele>207.8</ele>
        <time>2019-06-01T08:38:23Z</time>
      </trkpt>
      <trkpt lat="44.14453" lon="4.56349">
        <ele>208.2</ele>
        <time>2019-06-01T08:38:25Z</time>
      </trkpt>
      <trkpt lat="44.14455" lon="4.5635">
        <ele>208.5</ele>
        <time>2019-06-01T08:38:27Z</time>
      </trkpt>
      <trkpt lat="44.14459" lon="4.56354">
        <ele>209</ele>
        <time>2019-06-01T08:38:29Z</time>
      </trkpt>
      <trkpt lat="44.14462" lon="4.56359">
        <ele>209.3</ele>
        <time>2019-06-01T08:38:31Z</time>
      </trkpt>
      <trkpt lat="44.14464" lon="4.56363">
        <ele>209.6</ele>
        <time>2019-06-01T08:38:33Z</time>
      </trkpt>
      <trkpt lat="44.14466" lon="4.56366">
        <ele>209.8</ele>
        <time>2019-06-01T08:38:35Z</time>
      </trkpt>
      <trkpt lat="44.14469" lon="4.56369">
        <ele>210.1</ele>
        <time>2019-06-01T08:38:37Z</time>
      </trkpt>
      <trkpt lat="44.14472" lon="4.56372">
        <ele>210.3</ele>
        <time>2019-06-01T08:38:39Z</time>
      </trkpt>
      <trkpt lat="44.14473" lon="4.56376">
        <ele>210.8</ele>
        <time>2019-06-01T08:38:41Z</time>
      </trkpt>
      <trkpt lat="44.14474" lon="4.56381">
        <ele>211.2</ele>
        <time>2019-06-01T08:38:43Z</time>
      </trkpt>
      <trkpt lat="44.14474" lon="4.56384">
        <ele>211.6</ele>
        <time>2019-06-01T08:38:47Z</time>
      </trkpt>
      <trkpt lat="44.14471" lon="4.56386">
        <ele>212</ele>
        <time>2019-06-01T08:38:50Z</time>
      </trkpt>
      <trkpt lat="44.1447" lon="4.56391">
        <ele>212.4</ele>
        <time>2019-06-01T08:38:52Z</time>
      </trkpt>
      <trkpt lat="44.14472" lon="4.56396">
        <ele>212.9</ele>
        <time>2019-06-01T08:38:54Z</time>
      </trkpt>
      <trkpt lat="44.14471" lon="4.56399">
        <ele>213.2</ele>
        <time>2019-06-01T08:38:59Z</time>
      </trkpt>
      <trkpt lat="44.14472" lon="4.56403">
        <ele>213.5</ele>
        <time>2019-06-01T08:39:03Z</time>
      </trkpt>
      <trkpt lat="44.14473" lon="4.56407">
        <ele>213.9</ele>
        <time>2019-06-01T08:39:06Z</time>
      </trkpt>
      <trkpt lat="44.14475" lon="4.56412">
        <ele>214.2</ele>
        <time>2019-06-01T08:39:09Z</time>
      </trkpt>
      <trkpt lat="44.14477" lon="4.56416">
        <ele>214.5</ele>
        <time>2019-06-01T08:39:11Z</time>
      </trkpt>
      <trkpt lat="44.14478" lon="4.5642">
        <ele>214.8</ele>
        <time>2019-06-01T08:39:14Z</time>
      </trkpt>
      <trkpt lat="44.14478" lon="4.56424">
        <ele>215.1</ele>
        <time>2019-06-01T08:39:16Z</time>
      </trkpt>
      <trkpt lat="44.14478" lon="4.56428">
        <ele>215.5</ele>
        <time>2019-06-01T08:39:18Z</time>
      </trkpt>
      <trkpt lat="44.1448" lon="4.56432">
        <ele>216</ele>
        <time>2019-06-01T08:39:20Z</time>
      </trkpt>
      <trkpt lat="44.14481" lon="4.56436">
        <ele>216.3</ele>
        <time>2019-06-01T08:39:22Z</time>
      </trkpt>
      <trkpt lat="44.14482" lon="4.5644">
        <ele>216.6</ele>
        <time>2019-06-01T08:39:26Z</time>
      </trkpt>
      <trkpt lat="44.14483" lon="4.56445">
        <ele>217.1</ele>
        <time>2019-06-01T08:39:29Z</time>
      </trkpt>
      <trkpt lat="44.14485" lon="4.56449">
        <ele>217.6</ele>
        <time>2019-06-01T08:39:31Z</time>
      </trkpt>
      <trkpt lat="44.14488" lon="4.56453">
        <ele>218.1</ele>
        <time>2019-06-01T08:39:34Z</time>
      </trkpt>
      <trkpt lat="44.14489" lon="4.56457">
        <ele>218.5</ele>
        <time>2019-06-01T08:39:37Z</time>
      </trkpt>
      <trkpt lat="44.14492" lon="4.56459">
        <ele>218.9</ele>
        <time>2019-06-01T08:39:41Z</time>
      </trkpt>
      <trkpt lat="44.14493" lon="4.56463">
        <ele>219.3</ele>
        <time>2019-06-01T08:39:43Z</time>
      </trkpt>
      <trkpt lat="44.14494" lon="4.56468">
        <ele>219.7</ele>
        <time>2019-06-01T08:39:45Z</time>
      </trkpt>
      <trkpt lat="44.14495" lon="4.56472">
        <ele>220.1</ele>
        <time>2019-06-01T08:39:47Z</time>
      </trkpt>
      <trkpt lat="44.14497" lon="4.56477">
        <ele>220.5</ele>
        <time>2019-06-01T08:39:49Z</time>
      </trkpt>
      <trkpt lat="44.14498" lon="4.56481">
        <ele>220.7</ele>
        <time>2019-06-01T08:39:51Z</time>
      </trkpt>
      <trkpt lat="44.145" lon="4.56485">
        <ele>221</ele>
        <time>2019-06-01T08:39:54Z</time>
      </trkpt>
      <trkpt lat="44.14502" lon="4.5649">
        <ele>221.3</ele>
        <time>2019-06-01T08:39:56Z</time>
      </trkpt>
      <trkpt lat="44.14504" lon="4.56496">
        <ele>221.6</ele>
        <time>2019-06-01T08:39:58Z</time>
      </trkpt>
      <trkpt lat="44.14506" lon="4.565">
        <ele>221.8</ele>
        <time>2019-06-01T08:40:00Z</time>
      </trkpt>
      <trkpt lat="44.14508" lon="4.56505">
        <ele>221.9</ele>
        <time>2019-06-01T08:40:02Z</time>
      </trkpt>
      <trkpt lat="44.1451" lon="4.56509">
        <ele>222.1</ele>
        <time>2019-06-01T08:40:04Z</time>
      </trkpt>
      <trkpt lat="44.14512" lon="4.56514">
        <ele>222.2</ele>
        <time>2019-06-01T08:40:06Z</time>
      </trkpt>
      <trkpt lat="44.14513" lon="4.56518">
        <ele>222.2</ele>
        <time>2019-06-01T08:40:07Z</time>
      </trkpt>
      <trkpt lat="44.14515" lon="4.56522">
        <ele>222.3</ele>
        <time>2019-06-01T08:40:08Z</time>
      </trkpt>
      <trkpt lat="44.14517" lon="4.56526">
        <ele>222.4</ele>
        <time>2019-06-01T08:40:09Z</time>
      </trkpt>
      <trkpt lat="44.14518" lon="4.56531">
        <ele>222.5</ele>
        <time>2019-06-01T08:40:10Z</time>
      </trkpt>
      <trkpt lat="44.1452" lon="4.56536">
        <ele>222.5</ele>
        <time>2019-06-01T08:40:11Z</time>
      </trkpt>
      <trkpt lat="44.14522" lon="4.5654">
        <ele>222.5</ele>
        <time>2019-06-01T08:40:12Z</time>
      </trkpt>
      <trkpt lat="44.14523" lon="4.56546">
        <ele>222.5</ele>
        <time>2019-06-01T08:40:13Z</time>
      </trkpt>
      <trkpt lat="44.14524" lon="4.56551">
        <ele>222.6</ele>
        <time>2019-06-01T08:40:14Z</time>
      </trkpt>
      <trkpt lat="44.14525" lon="4.56556">
        <ele>222.6</ele>
        <time>2019-06-01T08:40:15Z</time>
      </trkpt>
      <trkpt lat="44.14525" lon="4.56561">
        <ele>222.6</ele>
        <time>2019-06-01T08:40:16Z</time>
      </trkpt>
      <trkpt lat="44.14525" lon="4.56566">
        <ele>222.6</ele>
        <time>2019-06-01T08:40:17Z</time>
      </trkpt>
      <trkpt lat="44.14524" lon="4.56571">
        <ele>222.7</ele>
        <time>2019-06-01T08:40:19Z</time>
      </trkpt>
      <trkpt lat="44.14519" lon="4.56574">
        <ele>222.7</ele>
        <time>2019-06-01T08:40:21Z</time>
      </trkpt>
      <trkpt lat="44.14516" lon="4.56575">
        <ele>222.7</ele>
        <time>2019-06-01T08:40:22Z</time>
      </trkpt>
      <trkpt lat="44.14513" lon="4.56575">
        <ele>222.7</ele>
        <time>2019-06-01T08:40:23Z</time>
      </trkpt>
      <trkpt lat="44.1451" lon="4.56576">
        <ele>222.7</ele>
        <time>2019-06-01T08:40:24Z</time>
      </trkpt>
      <trkpt lat="44.14506" lon="4.56576">
        <ele>222.8</ele>
        <time>2019-06-01T08:40:25Z</time>
      </trkpt>
      <trkpt lat="44.14503" lon="4.56576">
        <ele>222.9</ele>
        <time>2019-06-01T08:40:26Z</time>
      </trkpt>
      <trkpt lat="44.145" lon="4.56577">
        <ele>222.9</ele>
        <time>2019-06-01T08:40:27Z</time>
      </trkpt>
      <trkpt lat="44.14496" lon="4.56582">
        <ele>223</ele>
        <time>2019-06-01T08:40:29Z</time>
      </trkpt>
      <trkpt lat="44.14495" lon="4.56586">
        <ele>223.1</ele>
        <time>2019-06-01T08:40:30Z</time>
      </trkpt>
      <trkpt lat="44.14495" lon="4.5659">
        <ele>223.2</ele>
        <time>2019-06-01T08:40:31Z</time>
      </trkpt>
      <trkpt lat="44.14496" lon="4.56595">
        <ele>223.3</ele>
        <time>2019-06-01T08:40:32Z</time>
      </trkpt>
      <trkpt lat="44.14497" lon="4.566">
        <ele>223.5</ele>
        <time>2019-06-01T08:40:33Z</time>
      </trkpt>
      <trkpt lat="44.14498" lon="4.56605">
        <ele>223.6</ele>
        <time>2019-06-01T08:40:34Z</time>
      </trkpt>
      <trkpt lat="44.145" lon="4.5661">
        <ele>223.8</ele>
        <time>2019-06-01T08:40:35Z</time>
      </trkpt>
      <trkpt lat="44.14501" lon="4.56617">
        <ele>223.9</ele>
        <time>2019-06-01T08:40:36Z</time>
      </trkpt>
      <trkpt lat="44.14511" lon="4.56644">
        <ele>224</ele>
        <time>2019-06-01T08:40:38Z</time>
      </trkpt>
      <trkpt lat="44.14511" lon="4.5665">
        <ele>223.8</ele>
        <time>2019-06-01T08:40:39Z</time>
      </trkpt>
      <trkpt lat="44.1451" lon="4.56655">
        <ele>223.9</ele>
        <time>2019-06-01T08:40:40Z</time>
      </trkpt>
      <trkpt lat="44.14509" lon="4.56659">
        <ele>224.1</ele>
        <time>2019-06-01T08:40:41Z</time>
      </trkpt>
      <trkpt lat="44.14506" lon="4.56663">
        <ele>224.3</ele>
        <time>2019-06-01T08:40:42Z</time>
      </trkpt>
      <trkpt lat="44.14507" lon="4.56673">
        <ele>224.7</ele>
        <time>2019-06-01T08:40:43Z</time>
      </trkpt>
      <trkpt lat="44.14508" lon="4.56679">
        <ele>224.9</ele>
        <time>2019-06-01T08:40:44Z</time>
      </trkpt>
      <trkpt lat="44.14507" lon="4.56684">
        <ele>225.2</ele>
        <time>2019-06-01T08:40:46Z</time>
      </trkpt>
      <trkpt lat="44.14502" lon="4.56688">
        <ele>225.5</ele>
        <time>2019-06-01T08:40:48Z</time>
      </trkpt>
      <trkpt lat="44.145" lon="4.56692">
        <ele>225.7</ele>
        <time>2019-06-01T08:40:49Z</time>
      </trkpt>
      <trkpt lat="44.14497" lon="4.56695">
        <ele>225.6</ele>
        <time>2019-06-01T08:40:50Z</time>
      </trkpt>
      <trkpt lat="44.14494" lon="4.56698">
        <ele>225.6</ele>
        <time>2019-06-01T08:40:51Z</time>
      </trkpt>
      <trkpt lat="44.1449" lon="4.56701">
        <ele>226.1</ele>
        <time>2019-06-01T08:40:52Z</time>
      </trkpt>
      <trkpt lat="44.14487" lon="4.56702">
        <ele>226.5</ele>
        <time>2019-06-01T08:40:53Z</time>
      </trkpt>
      <trkpt lat="44.14484" lon="4.56704">
        <ele>227.2</ele>
        <time>2019-06-01T08:40:54Z</time>
      </trkpt>
      <trkpt lat="44.1448" lon="4.56706">
        <ele>228</ele>
        <time>2019-06-01T08:40:55Z</time>
      </trkpt>
      <trkpt lat="44.14477" lon="4.56709">
        <ele>228.7</ele>
        <time>2019-06-01T08:40:56Z</time>
      </trkpt>
      <trkpt lat="44.14472" lon="4.56711">
        <ele>229.4</ele>
        <time>2019-06-01T08:40:57Z</time>
      </trkpt>
      <trkpt lat="44.14468" lon="4.56714">
        <ele>230.7</ele>
        <time>2019-06-01T08:40:58Z</time>
      </trkpt>
      <trkpt lat="44.14457" lon="4.56718">
        <ele>232.5</ele>
        <time>2019-06-01T08:40:59Z</time>
      </trkpt>
      <trkpt lat="44.14453" lon="4.56721">
        <ele>233.1</ele>
        <time>2019-06-01T08:41:00Z</time>
      </trkpt>
      <trkpt lat="44.1445" lon="4.56724">
        <ele>233.7</ele>
        <time>2019-06-01T08:41:01Z</time>
      </trkpt>
      <trkpt lat="44.14447" lon="4.56725">
        <ele>234.3</ele>
        <time>2019-06-01T08:41:02Z</time>
      </trkpt>
      <trkpt lat="44.14444" lon="4.56726">
        <ele>234.8</ele>
        <time>2019-06-01T08:41:03Z</time>
      </trkpt>
      <trkpt lat="44.14439" lon="4.5673">
        <ele>235.3</ele>
        <time>2019-06-01T08:41:04Z</time>
      </trkpt>
      <trkpt lat="44.14437" lon="4.56732">
        <ele>235.3</ele>
        <time>2019-06-01T08:41:05Z</time>
      </trkpt>
      <trkpt lat="44.1443" lon="4.56733">
        <ele>235.3</ele>
        <time>2019-06-01T08:41:06Z</time>
      </trkpt>
      <trkpt lat="44.14427" lon="4.56734">
        <ele>235.2</ele>
        <time>2019-06-01T08:41:07Z</time>
      </trkpt>
      <trkpt lat="44.14422" lon="4.56735">
        <ele>235.2</ele>
        <time>2019-06-01T08:41:08Z</time>
      </trkpt>
      <trkpt lat="44.14416" lon="4.56736">
        <ele>235.1</ele>
        <time>2019-06-01T08:41:09Z</time>
      </trkpt>
      <trkpt lat="44.1441" lon="4.56736">
        <ele>235</ele>
        <time>2019-06-01T08:41:10Z</time>
      </trkpt>
      <trkpt lat="44.14405" lon="4.56737">
        <ele>234.9</ele>
        <time>2019-06-01T08:41:11Z</time>
      </trkpt>
      <trkpt lat="44.144" lon="4.56735">
        <ele>234.8</ele>
        <time>2019-06-01T08:41:12Z</time>
      </trkpt>
      <trkpt lat="44.14396" lon="4.56735">
        <ele>234.7</ele>
        <time>2019-06-01T08:41:13Z</time>
      </trkpt>
      <trkpt lat="44.14392" lon="4.56735">
        <ele>234.7</ele>
        <time>2019-06-01T08:41:14Z</time>
      </trkpt>
      <trkpt lat="44.14387" lon="4.56736">
        <ele>234.5</ele>
        <time>2019-06-01T08:41:15Z</time>
      </trkpt>
      <trkpt lat="44.14382" lon="4.56737">
        <ele>234.4</ele>
        <time>2019-06-01T08:41:16Z</time>
      </trkpt>
      <trkpt lat="44.14377" lon="4.56737">
        <ele>234.3</ele>
        <time>2019-06-01T08:41:17Z</time>
      </trkpt>
      <trkpt lat="44.14373" lon="4.5674">
        <ele>234.2</ele>
        <time>2019-06-01T08:41:18Z</time>
      </trkpt>
      <trkpt lat="44.14369" lon="4.5674">
        <ele>234.1</ele>
        <time>2019-06-01T08:41:19Z</time>
      </trkpt>
      <trkpt lat="44.14363" lon="4.56741">
        <ele>233.9</ele>
        <time>2019-06-01T08:41:20Z</time>
      </trkpt>
      <trkpt lat="44.14359" lon="4.56741">
        <ele>233.8</ele>
        <time>2019-06-01T08:41:21Z</time>
      </trkpt>
      <trkpt lat="44.14354" lon="4.5674">
        <ele>233.6</ele>
        <time>2019-06-01T08:41:22Z</time>
      </trkpt>
      <trkpt lat="44.14349" lon="4.5674">
        <ele>233.4</ele>
        <time>2019-06-01T08:41:23Z</time>
      </trkpt>
      <trkpt lat="44.14344" lon="4.5674">
        <ele>233.3</ele>
        <time>2019-06-01T08:41:24Z</time>
      </trkpt>
      <trkpt lat="44.14339" lon="4.56741">
        <ele>233.1</ele>
        <time>2019-06-01T08:41:25Z</time>
      </trkpt>
      <trkpt lat="44.14335" lon="4.56742">
        <ele>232.9</ele>
        <time>2019-06-01T08:41:26Z</time>
      </trkpt>
      <trkpt lat="44.1433" lon="4.56742">
        <ele>232.6</ele>
        <time>2019-06-01T08:41:27Z</time>
      </trkpt>
      <trkpt lat="44.14325" lon="4.56742">
        <ele>232.4</ele>
        <time>2019-06-01T08:41:28Z</time>
      </trkpt>
      <trkpt lat="44.14321" lon="4.56742">
        <ele>232.2</ele>
        <time>2019-06-01T08:41:29Z</time>
      </trkpt>
      <trkpt lat="44.14316" lon="4.56741">
        <ele>232</ele>
        <time>2019-06-01T08:41:30Z</time>
      </trkpt>
      <trkpt lat="44.14308" lon="4.56739">
        <ele>231.7</ele>
        <time>2019-06-01T08:41:31Z</time>
      </trkpt>
      <trkpt lat="44.14301" lon="4.5674">
        <ele>231.3</ele>
        <time>2019-06-01T08:41:32Z</time>
      </trkpt>
      <trkpt lat="44.14296" lon="4.56742">
        <ele>231</ele>
        <time>2019-06-01T08:41:33Z</time>
      </trkpt>
      <trkpt lat="44.14292" lon="4.56743">
        <ele>230.8</ele>
        <time>2019-06-01T08:41:34Z</time>
      </trkpt>
      <trkpt lat="44.14292" lon="4.56748">
        <ele>230.7</ele>
        <time>2019-06-01T08:41:36Z</time>
      </trkpt>
      <trkpt lat="44.14293" lon="4.56753">
        <ele>229.1</ele>
        <time>2019-06-01T08:41:38Z</time>
      </trkpt>
      <trkpt lat="44.14294" lon="4.56758">
        <ele>228.3</ele>
        <time>2019-06-01T08:41:39Z</time>
      </trkpt>
      <trkpt lat="44.14293" lon="4.56764">
        <ele>227.5</ele>
        <time>2019-06-01T08:41:40Z</time>
      </trkpt>
      <trkpt lat="44.14291" lon="4.56771">
        <ele>225.7</ele>
        <time>2019-06-01T08:41:41Z</time>
      </trkpt>
      <trkpt lat="44.14291" lon="4.56779">
        <ele>224.2</ele>
        <time>2019-06-01T08:41:42Z</time>
      </trkpt>
      <trkpt lat="44.14289" lon="4.56786">
        <ele>223.5</ele>
        <time>2019-06-01T08:41:43Z</time>
      </trkpt>
      <trkpt lat="44.14287" lon="4.56794">
        <ele>222</ele>
        <time>2019-06-01T08:41:44Z</time>
      </trkpt>
      <trkpt lat="44.14285" lon="4.56803">
        <ele>220.5</ele>
        <time>2019-06-01T08:41:45Z</time>
      </trkpt>
      <trkpt lat="44.14282" lon="4.56813">
        <ele>218.3</ele>
        <time>2019-06-01T08:41:46Z</time>
      </trkpt>
      <trkpt lat="44.14279" lon="4.56825">
        <ele>216.9</ele>
        <time>2019-06-01T08:41:47Z</time>
      </trkpt>
      <trkpt lat="44.14276" lon="4.56837">
        <ele>215.1</ele>
        <time>2019-06-01T08:41:48Z</time>
      </trkpt>
      <trkpt lat="44.14273" lon="4.5685">
        <ele>213.3</ele>
        <time>2019-06-01T08:41:49Z</time>
      </trkpt>
      <trkpt lat="44.1427" lon="4.56863">
        <ele>211.6</ele>
        <time>2019-06-01T08:41:50Z</time>
      </trkpt>
      <trkpt lat="44.14267" lon="4.56876">
        <ele>210.3</ele>
        <time>2019-06-01T08:41:51Z</time>
      </trkpt>
      <trkpt lat="44.14265" lon="4.56889">
        <ele>209.6</ele>
        <time>2019-06-01T08:41:52Z</time>
      </trkpt>
      <trkpt lat="44.14263" lon="4.56902">
        <ele>209</ele>
        <time>2019-06-01T08:41:53Z</time>
      </trkpt>
      <trkpt lat="44.14262" lon="4.56913">
        <ele>208.4</ele>
        <time>2019-06-01T08:41:54Z</time>
      </trkpt>
      <trkpt lat="44.1426" lon="4.56923">
        <ele>207.9</ele>
        <time>2019-06-01T08:41:55Z</time>
      </trkpt>
      <trkpt lat="44.14258" lon="4.56935">
        <ele>207.2</ele>
        <time>2019-06-01T08:41:56Z</time>
      </trkpt>
      <trkpt lat="44.14257" lon="4.56946">
        <ele>206.6</ele>
        <time>2019-06-01T08:41:57Z</time>
      </trkpt>
      <trkpt lat="44.14257" lon="4.56958">
        <ele>206.3</ele>
        <time>2019-06-01T08:41:58Z</time>
      </trkpt>
      <trkpt lat="44.14257" lon="4.5697">
        <ele>205.9</ele>
        <time>2019-06-01T08:41:59Z</time>
      </trkpt>
      <trkpt lat="44.14255" lon="4.56983">
        <ele>205.7</ele>
        <time>2019-06-01T08:42:00Z</time>
      </trkpt>
      <trkpt lat="44.14255" lon="4.56997">
        <ele>205.2</ele>
        <time>2019-06-01T08:42:01Z</time>
      </trkpt>
      <trkpt lat="44.14254" lon="4.57008">
        <ele>204.9</ele>
        <time>2019-06-01T08:42:02Z</time>
      </trkpt>
      <trkpt lat="44.14253" lon="4.57019">
        <ele>204.7</ele>
        <time>2019-06-01T08:42:03Z</time>
      </trkpt>
      <trkpt lat="44.14252" lon="4.5703">
        <ele>204.5</ele>
        <time>2019-06-01T08:42:04Z</time>
      </trkpt>
      <trkpt lat="44.1425" lon="4.5704">
        <ele>204.4</ele>
        <time>2019-06-01T08:42:05Z</time>
      </trkpt>
      <trkpt lat="44.1425" lon="4.57051">
        <ele>204.4</ele>
        <time>2019-06-01T08:42:06Z</time>
      </trkpt>
      <trkpt lat="44.14249" lon="4.57059">
        <ele>204.4</ele>
        <time>2019-06-01T08:42:07Z</time>
      </trkpt>
      <trkpt lat="44.14248" lon="4.57066">
        <ele>204.4</ele>
        <time>2019-06-01T08:42:08Z</time>
      </trkpt>
      <trkpt lat="44.14248" lon="4.57074">
        <ele>204.4</ele>
        <time>2019-06-01T08:42:09Z</time>
      </trkpt>
      <trkpt lat="44.14247" lon="4.57081">
        <ele>204.4</ele>
        <time>2019-06-01T08:42:10Z</time>
      </trkpt>
      <trkpt lat="44.14247" lon="4.57087">
        <ele>204.3</ele>
        <time>2019-06-01T08:42:11Z</time>
      </trkpt>
      <trkpt lat="44.14246" lon="4.57093">
        <ele>204.3</ele>
        <time>2019-06-01T08:42:12Z</time>
      </trkpt>
      <trkpt lat="44.14246" lon="4.57099">
        <ele>204.2</ele>
        <time>2019-06-01T08:42:13Z</time>
      </trkpt>
      <trkpt lat="44.14246" lon="4.57105">
        <ele>204.1</ele>
        <time>2019-06-01T08:42:14Z</time>
      </trkpt>
      <trkpt lat="44.14245" lon="4.5711">
        <ele>204.1</ele>
        <time>2019-06-01T08:42:15Z</time>
      </trkpt>
      <trkpt lat="44.14244" lon="4.57116">
        <ele>204</ele>
        <time>2019-06-01T08:42:16Z</time>
      </trkpt>
      <trkpt lat="44.14242" lon="4.57121">
        <ele>203.8</ele>
        <time>2019-06-01T08:42:17Z</time>
      </trkpt>
      <trkpt lat="44.14241" lon="4.57126">
        <ele>203.6</ele>
        <time>2019-06-01T08:42:18Z</time>
      </trkpt>
      <trkpt lat="44.14242" lon="4.5713">
        <ele>203.5</ele>
        <time>2019-06-01T08:42:19Z</time>
      </trkpt>
      <trkpt lat="44.14244" lon="4.57136">
        <ele>203.6</ele>
        <time>2019-06-01T08:42:20Z</time>
      </trkpt>
      <trkpt lat="44.14247" lon="4.57137">
        <ele>203.7</ele>
        <time>2019-06-01T08:42:21Z</time>
      </trkpt>
      <trkpt lat="44.14249" lon="4.57144">
        <ele>203.7</ele>
        <time>2019-06-01T08:42:22Z</time>
      </trkpt>
      <trkpt lat="44.14251" lon="4.57147">
        <ele>203.8</ele>
        <time>2019-06-01T08:42:23Z</time>
      </trkpt>
      <trkpt lat="44.14258" lon="4.5715">
        <ele>204</ele>
        <time>2019-06-01T08:42:24Z</time>
      </trkpt>
      <trkpt lat="44.1426" lon="4.57156">
        <ele>204.1</ele>
        <time>2019-06-01T08:42:25Z</time>
      </trkpt>
      <trkpt lat="44.14264" lon="4.57163">
        <ele>204.3</ele>
        <time>2019-06-01T08:42:26Z</time>
      </trkpt>
      <trkpt lat="44.14271" lon="4.57166">
        <ele>204.5</ele>
        <time>2019-06-01T08:42:27Z</time>
      </trkpt>
      <trkpt lat="44.14276" lon="4.57174">
        <ele>204.6</ele>
        <time>2019-06-01T08:42:28Z</time>
      </trkpt>
      <trkpt lat="44.1428" lon="4.5718">
        <ele>204.5</ele>
        <time>2019-06-01T08:42:29Z</time>
      </trkpt>
      <trkpt lat="44.14285" lon="4.57184">
        <ele>204.4</ele>
        <time>2019-06-01T08:42:30Z</time>
      </trkpt>
      <trkpt lat="44.14291" lon="4.57189">
        <ele>204.2</ele>
        <time>2019-06-01T08:42:31Z</time>
      </trkpt>
      <trkpt lat="44.14294" lon="4.57196">
        <ele>204.1</ele>
        <time>2019-06-01T08:42:32Z</time>
      </trkpt>
      <trkpt lat="44.14299" lon="4.572">
        <ele>203.9</ele>
        <time>2019-06-01T08:42:33Z</time>
      </trkpt>
      <trkpt lat="44.14305" lon="4.57205">
        <ele>203.5</ele>
        <time>2019-06-01T08:42:34Z</time>
      </trkpt>
      <trkpt lat="44.1431" lon="4.57212">
        <ele>203</ele>
        <time>2019-06-01T08:42:35Z</time>
      </trkpt>
      <trkpt lat="44.14315" lon="4.57218">
        <ele>202.5</ele>
        <time>2019-06-01T08:42:36Z</time>
      </trkpt>
      <trkpt lat="44.14317" lon="4.57222">
        <ele>202.2</ele>
        <time>2019-06-01T08:42:37Z</time>
      </trkpt>
      <trkpt lat="44.14324" lon="4.57228">
        <ele>201.5</ele>
        <time>2019-06-01T08:42:39Z</time>
      </trkpt>
      <trkpt lat="44.14329" lon="4.57231">
        <ele>201.1</ele>
        <time>2019-06-01T08:42:41Z</time>
      </trkpt>
      <trkpt lat="44.14334" lon="4.57238">
        <ele>200.5</ele>
        <time>2019-06-01T08:42:42Z</time>
      </trkpt>
      <trkpt lat="44.14338" lon="4.57241">
        <ele>200.1</ele>
        <time>2019-06-01T08:42:43Z</time>
      </trkpt>
      <trkpt lat="44.14343" lon="4.57246">
        <ele>199.4</ele>
        <time>2019-06-01T08:42:44Z</time>
      </trkpt>
      <trkpt lat="44.14348" lon="4.57251">
        <ele>198.8</ele>
        <time>2019-06-01T08:42:45Z</time>
      </trkpt>
      <trkpt lat="44.14353" lon="4.57252">
        <ele>198.4</ele>
        <time>2019-06-01T08:42:46Z</time>
      </trkpt>
      <trkpt lat="44.14357" lon="4.57254">
        <ele>198.1</ele>
        <time>2019-06-01T08:42:49Z</time>
      </trkpt>
      <trkpt lat="44.1436" lon="4.57255">
        <ele>197.9</ele>
        <time>2019-06-01T08:42:51Z</time>
      </trkpt>
      <trkpt lat="44.14361" lon="4.57259">
        <ele>197.7</ele>
        <time>2019-06-01T08:42:52Z</time>
      </trkpt>
      <trkpt lat="44.14364" lon="4.57263">
        <ele>197.2</ele>
        <time>2019-06-01T08:42:53Z</time>
      </trkpt>
      <trkpt lat="44.14366" lon="4.57269">
        <ele>196.6</ele>
        <time>2019-06-01T08:42:54Z</time>
      </trkpt>
      <trkpt lat="44.14372" lon="4.57276">
        <ele>195.5</ele>
        <time>2019-06-01T08:42:55Z</time>
      </trkpt>
      <trkpt lat="44.14378" lon="4.57283">
        <ele>194.2</ele>
        <time>2019-06-01T08:42:56Z</time>
      </trkpt>
      <trkpt lat="44.14381" lon="4.57286">
        <ele>193.6</ele>
        <time>2019-06-01T08:42:57Z</time>
      </trkpt>
      <trkpt lat="44.14384" lon="4.57295">
        <ele>192.5</ele>
        <time>2019-06-01T08:42:58Z</time>
      </trkpt>
      <trkpt lat="44.14386" lon="4.573">
        <ele>191.9</ele>
        <time>2019-06-01T08:42:59Z</time>
      </trkpt>
      <trkpt lat="44.1439" lon="4.57305">
        <ele>191</ele>
        <time>2019-06-01T08:43:00Z</time>
      </trkpt>
      <trkpt lat="44.14393" lon="4.57313">
        <ele>189.3</ele>
        <time>2019-06-01T08:43:02Z</time>
      </trkpt>
      <trkpt lat="44.14397" lon="4.57323">
        <ele>187.7</ele>
        <time>2019-06-01T08:43:03Z</time>
      </trkpt>
      <trkpt lat="44.14399" lon="4.57335">
        <ele>186.2</ele>
        <time>2019-06-01T08:43:05Z</time>
      </trkpt>
      <trkpt lat="44.14403" lon="4.57339">
        <ele>185.2</ele>
        <time>2019-06-01T08:43:06Z</time>
      </trkpt>
      <trkpt lat="44.14405" lon="4.57345">
        <ele>184.2</ele>
        <time>2019-06-01T08:43:07Z</time>
      </trkpt>
      <trkpt lat="44.14407" lon="4.5735">
        <ele>183.4</ele>
        <time>2019-06-01T08:43:08Z</time>
      </trkpt>
      <trkpt lat="44.14411" lon="4.57361">
        <ele>181.5</ele>
        <time>2019-06-01T08:43:09Z</time>
      </trkpt>
      <trkpt lat="44.14413" lon="4.57364">
        <ele>180.7</ele>
        <time>2019-06-01T08:43:10Z</time>
      </trkpt>
      <trkpt lat="44.14417" lon="4.57367">
        <ele>179.9</ele>
        <time>2019-06-01T08:43:11Z</time>
      </trkpt>
      <trkpt lat="44.14418" lon="4.57375">
        <ele>178.7</ele>
        <time>2019-06-01T08:43:12Z</time>
      </trkpt>
      <trkpt lat="44.1442" lon="4.5738">
        <ele>177.7</ele>
        <time>2019-06-01T08:43:13Z</time>
      </trkpt>
      <trkpt lat="44.14425" lon="4.57386">
        <ele>176.4</ele>
        <time>2019-06-01T08:43:14Z</time>
      </trkpt>
      <trkpt lat="44.14427" lon="4.5739">
        <ele>175.9</ele>
        <time>2019-06-01T08:43:15Z</time>
      </trkpt>
      <trkpt lat="44.1443" lon="4.57392">
        <ele>175.2</ele>
        <time>2019-06-01T08:43:16Z</time>
      </trkpt>
      <trkpt lat="44.14433" lon="4.57394">
        <ele>174.5</ele>
        <time>2019-06-01T08:43:17Z</time>
      </trkpt>
      <trkpt lat="44.14436" lon="4.57398">
        <ele>173.9</ele>
        <time>2019-06-01T08:43:18Z</time>
      </trkpt>
      <trkpt lat="44.1444" lon="4.57401">
        <ele>173.1</ele>
        <time>2019-06-01T08:43:19Z</time>
      </trkpt>
      <trkpt lat="44.14443" lon="4.57403">
        <ele>172.4</ele>
        <time>2019-06-01T08:43:20Z</time>
      </trkpt>
      <trkpt lat="44.14448" lon="4.57405">
        <ele>170.5</ele>
        <time>2019-06-01T08:43:22Z</time>
      </trkpt>
      <trkpt lat="44.14452" lon="4.57406">
        <ele>168.9</ele>
        <time>2019-06-01T08:43:23Z</time>
      </trkpt>
      <trkpt lat="44.14456" lon="4.57406">
        <ele>167.7</ele>
        <time>2019-06-01T08:43:24Z</time>
      </trkpt>
      <trkpt lat="44.14459" lon="4.57406">
        <ele>167.2</ele>
        <time>2019-06-01T08:43:25Z</time>
      </trkpt>
      <trkpt lat="44.14462" lon="4.57407">
        <ele>166.7</ele>
        <time>2019-06-01T08:43:26Z</time>
      </trkpt>
      <trkpt lat="44.14467" lon="4.57406">
        <ele>165.9</ele>
        <time>2019-06-01T08:43:27Z</time>
      </trkpt>
      <trkpt lat="44.14472" lon="4.57405">
        <ele>165.1</ele>
        <time>2019-06-01T08:43:28Z</time>
      </trkpt>
      <trkpt lat="44.14476" lon="4.57404">
        <ele>164.4</ele>
        <time>2019-06-01T08:43:29Z</time>
      </trkpt>
      <trkpt lat="44.14479" lon="4.57402">
        <ele>163.8</ele>
        <time>2019-06-01T08:43:30Z</time>
      </trkpt>
      <trkpt lat="44.14483" lon="4.574">
        <ele>163.1</ele>
        <time>2019-06-01T08:43:32Z</time>
      </trkpt>
      <trkpt lat="44.14486" lon="4.57398">
        <ele>162.4</ele>
        <time>2019-06-01T08:43:34Z</time>
      </trkpt>
      <trkpt lat="44.14489" lon="4.57399">
        <ele>161.8</ele>
        <time>2019-06-01T08:43:38Z</time>
      </trkpt>
      <trkpt lat="44.14492" lon="4.57396">
        <ele>161.1</ele>
        <time>2019-06-01T08:43:44Z</time>
      </trkpt>
      <trkpt lat="44.14494" lon="4.57396">
        <ele>160.5</ele>
        <time>2019-06-01T08:43:47Z</time>
      </trkpt>
      <trkpt lat="44.14497" lon="4.57395">
        <ele>159.8</ele>
        <time>2019-06-01T08:43:50Z</time>
      </trkpt>
      <trkpt lat="44.14503" lon="4.57387">
        <ele>157.7</ele>
        <time>2019-06-01T08:46:22Z</time>
      </trkpt>
      <trkpt lat="44.14505" lon="4.57391">
        <ele>156.5</ele>
        <time>2019-06-01T08:46:24Z</time>
      </trkpt>
      <trkpt lat="44.14507" lon="4.57397">
        <ele>155</ele>
        <time>2019-06-01T08:46:26Z</time>
      </trkpt>
      <trkpt lat="44.14509" lon="4.57404">
        <ele>152.5</ele>
        <time>2019-06-01T08:46:28Z</time>
      </trkpt>
      <trkpt lat="44.14509" lon="4.57409">
        <ele>151.3</ele>
        <time>2019-06-01T08:46:30Z</time>
      </trkpt>
      <trkpt lat="44.14509" lon="4.57413">
        <ele>150.5</ele>
        <time>2019-06-01T08:46:31Z</time>
      </trkpt>
      <trkpt lat="44.1451" lon="4.57418">
        <ele>149.5</ele>
        <time>2019-06-01T08:46:32Z</time>
      </trkpt>
      <trkpt lat="44.1451" lon="4.57422">
        <ele>148.7</ele>
        <time>2019-06-01T08:46:33Z</time>
      </trkpt>
      <trkpt lat="44.14509" lon="4.57427">
        <ele>147.4</ele>
        <time>2019-06-01T08:46:34Z</time>
      </trkpt>
      <trkpt lat="44.14508" lon="4.57433">
        <ele>145.8</ele>
        <time>2019-06-01T08:46:35Z</time>
      </trkpt>
      <trkpt lat="44.14507" lon="4.57439">
        <ele>144.6</ele>
        <time>2019-06-01T08:46:36Z</time>
      </trkpt>
      <trkpt lat="44.14507" lon="4.57445">
        <ele>143.8</ele>
        <time>2019-06-01T08:46:37Z</time>
      </trkpt>
      <trkpt lat="44.14508" lon="4.57449">
        <ele>143.2</ele>
        <time>2019-06-01T08:46:38Z</time>
      </trkpt>
      <trkpt lat="44.14509" lon="4.57453">
        <ele>142.6</ele>
        <time>2019-06-01T08:46:39Z</time>
      </trkpt>
      <trkpt lat="44.14511" lon="4.57458">
        <ele>141.8</ele>
        <time>2019-06-01T08:46:41Z</time>
      </trkpt>
      <trkpt lat="44.14515" lon="4.57463">
        <ele>140.7</ele>
        <time>2019-06-01T08:46:43Z</time>
      </trkpt>
      <trkpt lat="44.14517" lon="4.57466">
        <ele>140.2</ele>
        <time>2019-06-01T08:46:44Z</time>
      </trkpt>
      <trkpt lat="44.14522" lon="4.57468">
        <ele>138.4</ele>
        <time>2019-06-01T08:46:46Z</time>
      </trkpt>
      <trkpt lat="44.14525" lon="4.57469">
        <ele>137.5</ele>
        <time>2019-06-01T08:46:47Z</time>
      </trkpt>
      <trkpt lat="44.14528" lon="4.57471">
        <ele>136.8</ele>
        <time>2019-06-01T08:46:48Z</time>
      </trkpt>
      <trkpt lat="44.14531" lon="4.57474">
        <ele>136.1</ele>
        <time>2019-06-01T08:46:49Z</time>
      </trkpt>
      <trkpt lat="44.14534" lon="4.57475">
        <ele>135.5</ele>
        <time>2019-06-01T08:46:50Z</time>
      </trkpt>
      <trkpt lat="44.14537" lon="4.57477">
        <ele>134.7</ele>
        <time>2019-06-01T08:46:52Z</time>
      </trkpt>
      <trkpt lat="44.14542" lon="4.57477">
        <ele>133.6</ele>
        <time>2019-06-01T08:46:54Z</time>
      </trkpt>
      <trkpt lat="44.14546" lon="4.57477">
        <ele>133.2</ele>
        <time>2019-06-01T08:46:55Z</time>
      </trkpt>
      <trkpt lat="44.14549" lon="4.57476">
        <ele>132.8</ele>
        <time>2019-06-01T08:46:56Z</time>
      </trkpt>
      <trkpt lat="44.14552" lon="4.57475">
        <ele>132.5</ele>
        <time>2019-06-01T08:46:57Z</time>
      </trkpt>
      <trkpt lat="44.14556" lon="4.57471">
        <ele>131.9</ele>
        <time>2019-06-01T08:46:59Z</time>
      </trkpt>
      <trkpt lat="44.14561" lon="4.57467">
        <ele>131.1</ele>
        <time>2019-06-01T08:47:01Z</time>
      </trkpt>
      <trkpt lat="44.14565" lon="4.57464">
        <ele>130.5</ele>
        <time>2019-06-01T08:47:02Z</time>
      </trkpt>
      <trkpt lat="44.14568" lon="4.57462">
        <ele>130.1</ele>
        <time>2019-06-01T08:47:03Z</time>
      </trkpt>
      <trkpt lat="44.14571" lon="4.57459">
        <ele>129.8</ele>
        <time>2019-06-01T08:47:04Z</time>
      </trkpt>
      <trkpt lat="44.14575" lon="4.57455">
        <ele>129.4</ele>
        <time>2019-06-01T08:47:06Z</time>
      </trkpt>
      <trkpt lat="44.1458" lon="4.57452">
        <ele>129.2</ele>
        <time>2019-06-01T08:47:08Z</time>
      </trkpt>
      <trkpt lat="44.14583" lon="4.57451">
        <ele>128.8</ele>
        <time>2019-06-01T08:47:09Z</time>
      </trkpt>
      <trkpt lat="44.14586" lon="4.57451">
        <ele>128.5</ele>
        <time>2019-06-01T08:47:10Z</time>
      </trkpt>
      <trkpt lat="44.14588" lon="4.57452">
        <ele>128.2</ele>
        <time>2019-06-01T08:47:11Z</time>
      </trkpt>
      <trkpt lat="44.14591" lon="4.57453">
        <ele>127.6</ele>
        <time>2019-06-01T08:47:12Z</time>
      </trkpt>
      <trkpt lat="44.14594" lon="4.57454">
        <ele>127.6</ele>
        <time>2019-06-01T08:47:13Z</time>
      </trkpt>
      <trkpt lat="44.14597" lon="4.57456">
        <ele>127</ele>
        <time>2019-06-01T08:47:15Z</time>
      </trkpt>
      <trkpt lat="44.14597" lon="4.57461">
        <ele>126.5</ele>
        <time>2019-06-01T08:47:17Z</time>
      </trkpt>
      <trkpt lat="44.14597" lon="4.57465">
        <ele>126.1</ele>
        <time>2019-06-01T08:47:19Z</time>
      </trkpt>
      <trkpt lat="44.14598" lon="4.57461">
        <ele>126.5</ele>
        <time>2019-06-01T08:47:27Z</time>
      </trkpt>
      <trkpt lat="44.14595" lon="4.57463">
        <ele>126.6</ele>
        <time>2019-06-01T08:47:36Z</time>
      </trkpt>
      <trkpt lat="44.14595" lon="4.57467">
        <ele>126.3</ele>
        <time>2019-06-01T08:47:38Z</time>
      </trkpt>
      <trkpt lat="44.14593" lon="4.57471">
        <ele>126</ele>
        <time>2019-06-01T08:47:40Z</time>
      </trkpt>
      <trkpt lat="44.14591" lon="4.57474">
        <ele>125.6</ele>
        <time>2019-06-01T08:47:42Z</time>
      </trkpt>
      <trkpt lat="44.14588" lon="4.57476">
        <ele>125.7</ele>
        <time>2019-06-01T08:47:46Z</time>
      </trkpt>
      <trkpt lat="44.14587" lon="4.5748">
        <ele>125.5</ele>
        <time>2019-06-01T08:47:50Z</time>
      </trkpt>
      <trkpt lat="44.14586" lon="4.57485">
        <ele>125</ele>
        <time>2019-06-01T08:47:53Z</time>
      </trkpt>
      <trkpt lat="44.14585" lon="4.57489">
        <ele>124.6</ele>
        <time>2019-06-01T08:47:55Z</time>
      </trkpt>
      <trkpt lat="44.14584" lon="4.57492">
        <ele>124.3</ele>
        <time>2019-06-01T08:47:57Z</time>
      </trkpt>
      <trkpt lat="44.14582" lon="4.57497">
        <ele>123.9</ele>
        <time>2019-06-01T08:47:59Z</time>
      </trkpt>
      <trkpt lat="44.14581" lon="4.57502">
        <ele>123.7</ele>
        <time>2019-06-01T08:48:01Z</time>
      </trkpt>
      <trkpt lat="44.1458" lon="4.57506">
        <ele>123.3</ele>
        <time>2019-06-01T08:48:03Z</time>
      </trkpt>
      <trkpt lat="44.1458" lon="4.57511">
        <ele>123</ele>
        <time>2019-06-01T08:48:05Z</time>
      </trkpt>
      <trkpt lat="44.14579" lon="4.57516">
        <ele>122.4</ele>
        <time>2019-06-01T08:48:07Z</time>
      </trkpt>
      <trkpt lat="44.14578" lon="4.57521">
        <ele>122.2</ele>
        <time>2019-06-01T08:48:09Z</time>
      </trkpt>
      <trkpt lat="44.14576" lon="4.57526">
        <ele>121.9</ele>
        <time>2019-06-01T08:48:11Z</time>
      </trkpt>
      <trkpt lat="44.14573" lon="4.57531">
        <ele>121.7</ele>
        <time>2019-06-01T08:48:13Z</time>
      </trkpt>
      <trkpt lat="44.14571" lon="4.57537">
        <ele>121.6</ele>
        <time>2019-06-01T08:48:15Z</time>
      </trkpt>
      <trkpt lat="44.14571" lon="4.57544">
        <ele>121.1</ele>
        <time>2019-06-01T08:48:17Z</time>
      </trkpt>
      <trkpt lat="44.1457" lon="4.5755">
        <ele>120.9</ele>
        <time>2019-06-01T08:48:19Z</time>
      </trkpt>
      <trkpt lat="44.14569" lon="4.57556">
        <ele>120.6</ele>
        <time>2019-06-01T08:48:21Z</time>
      </trkpt>
      <trkpt lat="44.14567" lon="4.57563">
        <ele>120.4</ele>
        <time>2019-06-01T08:48:23Z</time>
      </trkpt>
      <trkpt lat="44.14566" lon="4.57566">
        <ele>120.3</ele>
        <time>2019-06-01T08:48:24Z</time>
      </trkpt>
      <trkpt lat="44.14565" lon="4.5757">
        <ele>120.1</ele>
        <time>2019-06-01T08:48:25Z</time>
      </trkpt>
      <trkpt lat="44.14564" lon="4.57575">
        <ele>119.9</ele>
        <time>2019-06-01T08:48:26Z</time>
      </trkpt>
      <trkpt lat="44.14564" lon="4.5758">
        <ele>119.6</ele>
        <time>2019-06-01T08:48:27Z</time>
      </trkpt>
      <trkpt lat="44.14564" lon="4.57586">
        <ele>119.1</ele>
        <time>2019-06-01T08:48:28Z</time>
      </trkpt>
      <trkpt lat="44.14564" lon="4.57591">
        <ele>118.9</ele>
        <time>2019-06-01T08:48:29Z</time>
      </trkpt>
      <trkpt lat="44.14564" lon="4.57596">
        <ele>118.8</ele>
        <time>2019-06-01T08:48:30Z</time>
      </trkpt>
      <trkpt lat="44.14563" lon="4.57601">
        <ele>118.8</ele>
        <time>2019-06-01T08:48:31Z</time>
      </trkpt>
      <trkpt lat="44.14563" lon="4.57607">
        <ele>118.5</ele>
        <time>2019-06-01T08:48:32Z</time>
      </trkpt>
      <trkpt lat="44.14562" lon="4.57613">
        <ele>118.4</ele>
        <time>2019-06-01T08:48:33Z</time>
      </trkpt>
      <trkpt lat="44.14562" lon="4.57619">
        <ele>118.3</ele>
        <time>2019-06-01T08:48:34Z</time>
      </trkpt>
      <trkpt lat="44.14561" lon="4.57625">
        <ele>117.9</ele>
        <time>2019-06-01T08:48:35Z</time>
      </trkpt>
      <trkpt lat="44.1456" lon="4.57631">
        <ele>117.7</ele>
        <time>2019-06-01T08:48:36Z</time>
      </trkpt>
      <trkpt lat="44.14559" lon="4.57636">
        <ele>117.5</ele>
        <time>2019-06-01T08:48:37Z</time>
      </trkpt>
      <trkpt lat="44.14558" lon="4.5764">
        <ele>117.2</ele>
        <time>2019-06-01T08:48:38Z</time>
      </trkpt>
      <trkpt lat="44.14557" lon="4.57646">
        <ele>116.6</ele>
        <time>2019-06-01T08:48:40Z</time>
      </trkpt>
      <trkpt lat="44.14556" lon="4.57651">
        <ele>116.2</ele>
        <time>2019-06-01T08:48:42Z</time>
      </trkpt>
      <trkpt lat="44.14557" lon="4.57657">
        <ele>115.7</ele>
        <time>2019-06-01T08:48:47Z</time>
      </trkpt>
      <trkpt lat="44.14557" lon="4.57662">
        <ele>115.2</ele>
        <time>2019-06-01T08:48:48Z</time>
      </trkpt>
      <trkpt lat="44.14557" lon="4.57667">
        <ele>114.4</ele>
        <time>2019-06-01T08:48:49Z</time>
      </trkpt>
      <trkpt lat="44.14557" lon="4.57672">
        <ele>113.9</ele>
        <time>2019-06-01T08:48:50Z</time>
      </trkpt>
      <trkpt lat="44.14558" lon="4.57677">
        <ele>113.5</ele>
        <time>2019-06-01T08:48:51Z</time>
      </trkpt>
      <trkpt lat="44.14558" lon="4.57682">
        <ele>113.1</ele>
        <time>2019-06-01T08:48:52Z</time>
      </trkpt>
      <trkpt lat="44.14558" lon="4.57688">
        <ele>112.8</ele>
        <time>2019-06-01T08:48:53Z</time>
      </trkpt>
      <trkpt lat="44.14558" lon="4.57693">
        <ele>112.1</ele>
        <time>2019-06-01T08:48:54Z</time>
      </trkpt>
      <trkpt lat="44.14558" lon="4.57698">
        <ele>111.9</ele>
        <time>2019-06-01T08:48:55Z</time>
      </trkpt>
      <trkpt lat="44.14558" lon="4.57702">
        <ele>111.6</ele>
        <time>2019-06-01T08:48:56Z</time>
      </trkpt>
      <trkpt lat="44.14559" lon="4.57707">
        <ele>111.4</ele>
        <time>2019-06-01T08:48:58Z</time>
      </trkpt>
      <trkpt lat="44.14561" lon="4.5771">
        <ele>111.2</ele>
        <time>2019-06-01T08:49:00Z</time>
      </trkpt>
      <trkpt lat="44.14561" lon="4.57714">
        <ele>111.1</ele>
        <time>2019-06-01T08:49:14Z</time>
      </trkpt>
      <trkpt lat="44.14561" lon="4.57718">
        <ele>110.9</ele>
        <time>2019-06-01T08:49:22Z</time>
      </trkpt>
      <trkpt lat="44.14563" lon="4.57723">
        <ele>110.7</ele>
        <time>2019-06-01T08:49:24Z</time>
      </trkpt>
      <trkpt lat="44.14565" lon="4.57726">
        <ele>110.5</ele>
        <time>2019-06-01T08:49:25Z</time>
      </trkpt>
      <trkpt lat="44.14567" lon="4.57729">
        <ele>110.3</ele>
        <time>2019-06-01T08:49:26Z</time>
      </trkpt>
      <trkpt lat="44.1457" lon="4.57733">
        <ele>110.2</ele>
        <time>2019-06-01T08:49:27Z</time>
      </trkpt>
      <trkpt lat="44.14572" lon="4.57736">
        <ele>110</ele>
        <time>2019-06-01T08:49:28Z</time>
      </trkpt>
      <trkpt lat="44.14575" lon="4.57739">
        <ele>109.7</ele>
        <time>2019-06-01T08:49:29Z</time>
      </trkpt>
      <trkpt lat="44.14578" lon="4.57742">
        <ele>109.5</ele>
        <time>2019-06-01T08:49:30Z</time>
      </trkpt>
      <trkpt lat="44.14581" lon="4.57745">
        <ele>109.3</ele>
        <time>2019-06-01T08:49:31Z</time>
      </trkpt>
      <trkpt lat="44.14586" lon="4.5775">
        <ele>109</ele>
        <time>2019-06-01T08:49:32Z</time>
      </trkpt>
      <trkpt lat="44.1459" lon="4.57754">
        <ele>108.8</ele>
        <time>2019-06-01T08:49:33Z</time>
      </trkpt>
      <trkpt lat="44.14592" lon="4.57758">
        <ele>108.6</ele>
        <time>2019-06-01T08:49:34Z</time>
      </trkpt>
      <trkpt lat="44.14595" lon="4.57761">
        <ele>108.3</ele>
        <time>2019-06-01T08:49:35Z</time>
      </trkpt>
      <trkpt lat="44.14597" lon="4.57766">
        <ele>108.1</ele>
        <time>2019-06-01T08:49:36Z</time>
      </trkpt>
      <trkpt lat="44.146" lon="4.5777">
        <ele>107.9</ele>
        <time>2019-06-01T08:49:37Z</time>
      </trkpt>
      <trkpt lat="44.14602" lon="4.57773">
        <ele>107.7</ele>
        <time>2019-06-01T08:49:38Z</time>
      </trkpt>
      <trkpt lat="44.14606" lon="4.57777">
        <ele>107.5</ele>
        <time>2019-06-01T08:49:39Z</time>
      </trkpt>
      <trkpt lat="44.1461" lon="4.5778">
        <ele>107.3</ele>
        <time>2019-06-01T08:49:40Z</time>
      </trkpt>
      <trkpt lat="44.14614" lon="4.57784">
        <ele>107</ele>
        <time>2019-06-01T08:49:41Z</time>
      </trkpt>
      <trkpt lat="44.14619" lon="4.57789">
        <ele>106.7</ele>
        <time>2019-06-01T08:49:42Z</time>
      </trkpt>
      <trkpt lat="44.14623" lon="4.57793">
        <ele>106.5</ele>
        <time>2019-06-01T08:49:43Z</time>
      </trkpt>
      <trkpt lat="44.14627" lon="4.57799">
        <ele>106.7</ele>
        <time>2019-06-01T08:49:44Z</time>
      </trkpt>
      <trkpt lat="44.1463" lon="4.57805">
        <ele>106.9</ele>
        <time>2019-06-01T08:49:45Z</time>
      </trkpt>
      <trkpt lat="44.14633" lon="4.57811">
        <ele>107.1</ele>
        <time>2019-06-01T08:49:46Z</time>
      </trkpt>
      <trkpt lat="44.14636" lon="4.57817">
        <ele>107.3</ele>
        <time>2019-06-01T08:49:47Z</time>
      </trkpt>
      <trkpt lat="44.14639" lon="4.57823">
        <ele>107.5</ele>
        <time>2019-06-01T08:49:48Z</time>
      </trkpt>
      <trkpt lat="44.14642" lon="4.57829">
        <ele>107.7</ele>
        <time>2019-06-01T08:49:49Z</time>
      </trkpt>
      <trkpt lat="44.14645" lon="4.57837">
        <ele>108</ele>
        <time>2019-06-01T08:49:50Z</time>
      </trkpt>
      <trkpt lat="44.14646" lon="4.57843">
        <ele>108.2</ele>
        <time>2019-06-01T08:49:51Z</time>
      </trkpt>
      <trkpt lat="44.14648" lon="4.57849">
        <ele>108.4</ele>
        <time>2019-06-01T08:49:52Z</time>
      </trkpt>
      <trkpt lat="44.1465" lon="4.57853">
        <ele>108.6</ele>
        <time>2019-06-01T08:49:54Z</time>
      </trkpt>
      <trkpt lat="44.14652" lon="4.57855">
        <ele>108.7</ele>
        <time>2019-06-01T08:49:56Z</time>
      </trkpt>
      <trkpt lat="44.14652" lon="4.57859">
        <ele>108.9</ele>
        <time>2019-06-01T08:49:57Z</time>
      </trkpt>
      <trkpt lat="44.14656" lon="4.57865">
        <ele>109</ele>
        <time>2019-06-01T08:49:59Z</time>
      </trkpt>
      <trkpt lat="44.14659" lon="4.57869">
        <ele>109.1</ele>
        <time>2019-06-01T08:50:00Z</time>
      </trkpt>
      <trkpt lat="44.14661" lon="4.57874">
        <ele>109.1</ele>
        <time>2019-06-01T08:50:01Z</time>
      </trkpt>
      <trkpt lat="44.14663" lon="4.57879">
        <ele>109.2</ele>
        <time>2019-06-01T08:50:02Z</time>
      </trkpt>
      <trkpt lat="44.14666" lon="4.57883">
        <ele>109.3</ele>
        <time>2019-06-01T08:50:03Z</time>
      </trkpt>
      <trkpt lat="44.14669" lon="4.57887">
        <ele>109.4</ele>
        <time>2019-06-01T08:50:04Z</time>
      </trkpt>
      <trkpt lat="44.14673" lon="4.57892">
        <ele>109.1</ele>
        <time>2019-06-01T08:50:05Z</time>
      </trkpt>
      <trkpt lat="44.14676" lon="4.579">
        <ele>108.8</ele>
        <time>2019-06-01T08:50:06Z</time>
      </trkpt>
      <trkpt lat="44.14681" lon="4.57901">
        <ele>108.5</ele>
        <time>2019-06-01T08:50:07Z</time>
      </trkpt>
      <trkpt lat="44.14686" lon="4.57905">
        <ele>108.2</ele>
        <time>2019-06-01T08:50:08Z</time>
      </trkpt>
      <trkpt lat="44.14688" lon="4.57907">
        <ele>108.1</ele>
        <time>2019-06-01T08:50:09Z</time>
      </trkpt>
      <trkpt lat="44.1469" lon="4.5791">
        <ele>107.9</ele>
        <time>2019-06-01T08:50:11Z</time>
      </trkpt>
      <trkpt lat="44.14693" lon="4.57912">
        <ele>107.8</ele>
        <time>2019-06-01T08:50:13Z</time>
      </trkpt>
      <trkpt lat="44.14696" lon="4.57911">
        <ele>107.6</ele>
        <time>2019-06-01T08:50:15Z</time>
      </trkpt>
      <trkpt lat="44.14699" lon="4.57908">
        <ele>107.5</ele>
        <time>2019-06-01T08:50:17Z</time>
      </trkpt>
      <trkpt lat="44.14704" lon="4.57906">
        <ele>107.6</ele>
        <time>2019-06-01T08:50:19Z</time>
      </trkpt>
      <trkpt lat="44.14708" lon="4.57905">
        <ele>107.6</ele>
        <time>2019-06-01T08:50:21Z</time>
      </trkpt>
      <trkpt lat="44.1471" lon="4.57901">
        <ele>107.6</ele>
        <time>2019-06-01T08:50:23Z</time>
      </trkpt>
      <trkpt lat="44.14711" lon="4.57897">
        <ele>107.6</ele>
        <time>2019-06-01T08:50:24Z</time>
      </trkpt>
      <trkpt lat="44.14711" lon="4.57892">
        <ele>107.5</ele>
        <time>2019-06-01T08:50:25Z</time>
      </trkpt>
      <trkpt lat="44.14711" lon="4.57885">
        <ele>107.5</ele>
        <time>2019-06-01T08:50:26Z</time>
      </trkpt>
      <trkpt lat="44.1471" lon="4.57878">
        <ele>107.4</ele>
        <time>2019-06-01T08:50:27Z</time>
      </trkpt>
      <trkpt lat="44.1471" lon="4.57871">
        <ele>107.3</ele>
        <time>2019-06-01T08:50:28Z</time>
      </trkpt>
      <trkpt lat="44.1471" lon="4.57865">
        <ele>107.3</ele>
        <time>2019-06-01T08:50:29Z</time>
      </trkpt>
      <trkpt lat="44.1471" lon="4.57859">
        <ele>107.1</ele>
        <time>2019-06-01T08:50:30Z</time>
      </trkpt>
      <trkpt lat="44.14709" lon="4.57852">
        <ele>107</ele>
        <time>2019-06-01T08:50:31Z</time>
      </trkpt>
      <trkpt lat="44.14708" lon="4.57846">
        <ele>106.8</ele>
        <time>2019-06-01T08:50:32Z</time>
      </trkpt>
      <trkpt lat="44.14708" lon="4.5784">
        <ele>106.7</ele>
        <time>2019-06-01T08:50:33Z</time>
      </trkpt>
      <trkpt lat="44.14708" lon="4.57834">
        <ele>106.6</ele>
        <time>2019-06-01T08:50:34Z</time>
      </trkpt>
      <trkpt lat="44.14709" lon="4.57828">
        <ele>106.5</ele>
        <time>2019-06-01T08:50:35Z</time>
      </trkpt>
      <trkpt lat="44.14712" lon="4.57824">
        <ele>106.4</ele>
        <time>2019-06-01T08:50:36Z</time>
      </trkpt>
      <trkpt lat="44.14719" lon="4.57822">
        <ele>106.4</ele>
        <time>2019-06-01T08:50:37Z</time>
      </trkpt>
      <trkpt lat="44.14723" lon="4.57821">
        <ele>106.9</ele>
        <time>2019-06-01T08:50:38Z</time>
      </trkpt>
      <trkpt lat="44.14727" lon="4.57822">
        <ele>107</ele>
        <time>2019-06-01T08:50:39Z</time>
      </trkpt>
      <trkpt lat="44.14733" lon="4.57822">
        <ele>107.2</ele>
        <time>2019-06-01T08:50:40Z</time>
      </trkpt>
      <trkpt lat="44.14738" lon="4.57822">
        <ele>107.4</ele>
        <time>2019-06-01T08:50:41Z</time>
      </trkpt>
      <trkpt lat="44.14743" lon="4.57822">
        <ele>107.5</ele>
        <time>2019-06-01T08:50:42Z</time>
      </trkpt>
      <trkpt lat="44.14747" lon="4.5782">
        <ele>107.7</ele>
        <time>2019-06-01T08:50:43Z</time>
      </trkpt>
      <trkpt lat="44.14751" lon="4.5782">
        <ele>107.9</ele>
        <time>2019-06-01T08:50:44Z</time>
      </trkpt>
      <trkpt lat="44.14756" lon="4.57819">
        <ele>108.1</ele>
        <time>2019-06-01T08:50:45Z</time>
      </trkpt>
      <trkpt lat="44.14759" lon="4.57816">
        <ele>108.2</ele>
        <time>2019-06-01T08:50:46Z</time>
      </trkpt>
      <trkpt lat="44.14761" lon="4.5781">
        <ele>108.5</ele>
        <time>2019-06-01T08:50:47Z</time>
      </trkpt>
      <trkpt lat="44.14762" lon="4.57804">
        <ele>108.7</ele>
        <time>2019-06-01T08:50:48Z</time>
      </trkpt>
      <trkpt lat="44.14762" lon="4.57797">
        <ele>108.9</ele>
        <time>2019-06-01T08:50:49Z</time>
      </trkpt>
      <trkpt lat="44.14761" lon="4.57792">
        <ele>109.1</ele>
        <time>2019-06-01T08:50:50Z</time>
      </trkpt>
      <trkpt lat="44.14761" lon="4.57788">
        <ele>109.3</ele>
        <time>2019-06-01T08:50:51Z</time>
      </trkpt>
      <trkpt lat="44.14761" lon="4.57783">
        <ele>109.5</ele>
        <time>2019-06-01T08:50:52Z</time>
      </trkpt>
      <trkpt lat="44.14761" lon="4.57777">
        <ele>109.6</ele>
        <time>2019-06-01T08:50:53Z</time>
      </trkpt>
      <trkpt lat="44.1476" lon="4.57772">
        <ele>109.8</ele>
        <time>2019-06-01T08:50:54Z</time>
      </trkpt>
      <trkpt lat="44.1476" lon="4.57766">
        <ele>110</ele>
        <time>2019-06-01T08:50:55Z</time>
      </trkpt>
      <trkpt lat="44.14759" lon="4.57761">
        <ele>110.1</ele>
        <time>2019-06-01T08:50:56Z</time>
      </trkpt>
      <trkpt lat="44.14759" lon="4.57755">
        <ele>110.3</ele>
        <time>2019-06-01T08:50:57Z</time>
      </trkpt>
      <trkpt lat="44.14759" lon="4.57749">
        <ele>110.6</ele>
        <time>2019-06-01T08:50:58Z</time>
      </trkpt>
      <trkpt lat="44.14759" lon="4.57743">
        <ele>110.8</ele>
        <time>2019-06-01T08:50:59Z</time>
      </trkpt>
      <trkpt lat="44.14759" lon="4.57737">
        <ele>111</ele>
        <time>2019-06-01T08:51:00Z</time>
      </trkpt>
      <trkpt lat="44.14759" lon="4.57731">
        <ele>111.2</ele>
        <time>2019-06-01T08:51:01Z</time>
      </trkpt>
      <trkpt lat="44.14759" lon="4.57725">
        <ele>111.4</ele>
        <time>2019-06-01T08:51:02Z</time>
      </trkpt>
      <trkpt lat="44.14759" lon="4.57719">
        <ele>111.5</ele>
        <time>2019-06-01T08:51:03Z</time>
      </trkpt>
      <trkpt lat="44.14758" lon="4.57713">
        <ele>111.8</ele>
        <time>2019-06-01T08:51:04Z</time>
      </trkpt>
      <trkpt lat="44.14758" lon="4.57707">
        <ele>112</ele>
        <time>2019-06-01T08:51:05Z</time>
      </trkpt>
      <trkpt lat="44.14759" lon="4.57701">
        <ele>112.2</ele>
        <time>2019-06-01T08:51:06Z</time>
      </trkpt>
      <trkpt lat="44.14759" lon="4.57696">
        <ele>112.4</ele>
        <time>2019-06-01T08:51:07Z</time>
      </trkpt>
      <trkpt lat="44.1476" lon="4.5769">
        <ele>112.5</ele>
        <time>2019-06-01T08:51:08Z</time>
      </trkpt>
      <trkpt lat="44.1476" lon="4.57685">
        <ele>112.7</ele>
        <time>2019-06-01T08:51:09Z</time>
      </trkpt>
      <trkpt lat="44.1476" lon="4.57679">
        <ele>112.8</ele>
        <time>2019-06-01T08:51:10Z</time>
      </trkpt>
      <trkpt lat="44.1476" lon="4.57673">
        <ele>113</ele>
        <time>2019-06-01T08:51:11Z</time>
      </trkpt>
      <trkpt lat="44.1476" lon="4.57667">
        <ele>113.2</ele>
        <time>2019-06-01T08:51:12Z</time>
      </trkpt>
      <trkpt lat="44.1476" lon="4.57661">
        <ele>113.4</ele>
        <time>2019-06-01T08:51:13Z</time>
      </trkpt>
      <trkpt lat="44.1476" lon="4.57655">
        <ele>113.6</ele>
        <time>2019-06-01T08:51:14Z</time>
      </trkpt>
      <trkpt lat="44.1476" lon="4.57649">
        <ele>113.8</ele>
        <time>2019-06-01T08:51:15Z</time>
      </trkpt>
      <trkpt lat="44.1476" lon="4.57643">
        <ele>114</ele>
        <time>2019-06-01T08:51:16Z</time>
      </trkpt>
      <trkpt lat="44.1476" lon="4.57637">
        <ele>114.3</ele>
        <time>2019-06-01T08:51:17Z</time>
      </trkpt>
      <trkpt lat="44.1476" lon="4.57632">
        <ele>114.5</ele>
        <time>2019-06-01T08:51:18Z</time>
      </trkpt>
      <trkpt lat="44.14761" lon="4.57626">
        <ele>114.8</ele>
        <time>2019-06-01T08:51:19Z</time>
      </trkpt>
      <trkpt lat="44.14761" lon="4.57621">
        <ele>115</ele>
        <time>2019-06-01T08:51:20Z</time>
      </trkpt>
      <trkpt lat="44.14761" lon="4.57615">
        <ele>115.2</ele>
        <time>2019-06-01T08:51:21Z</time>
      </trkpt>
      <trkpt lat="44.14761" lon="4.5761">
        <ele>115.4</ele>
        <time>2019-06-01T08:51:22Z</time>
      </trkpt>
      <trkpt lat="44.1476" lon="4.57605">
        <ele>115.6</ele>
        <time>2019-06-01T08:51:23Z</time>
      </trkpt>
      <trkpt lat="44.1476" lon="4.57599">
        <ele>115.8</ele>
        <time>2019-06-01T08:51:24Z</time>
      </trkpt>
      <trkpt lat="44.1476" lon="4.57594">
        <ele>116.1</ele>
        <time>2019-06-01T08:51:25Z</time>
      </trkpt>
      <trkpt lat="44.1476" lon="4.57589">
        <ele>116.3</ele>
        <time>2019-06-01T08:51:26Z</time>
      </trkpt>
      <trkpt lat="44.1476" lon="4.57583">
        <ele>116.6</ele>
        <time>2019-06-01T08:51:27Z</time>
      </trkpt>
      <trkpt lat="44.1476" lon="4.57578">
        <ele>116.8</ele>
        <time>2019-06-01T08:51:28Z</time>
      </trkpt>
      <trkpt lat="44.1476" lon="4.57572">
        <ele>117</ele>
        <time>2019-06-01T08:51:29Z</time>
      </trkpt>
      <trkpt lat="44.1476" lon="4.57567">
        <ele>117.2</ele>
        <time>2019-06-01T08:51:30Z</time>
      </trkpt>
      <trkpt lat="44.1476" lon="4.57562">
        <ele>117.4</ele>
        <time>2019-06-01T08:51:31Z</time>
      </trkpt>
      <trkpt lat="44.1476" lon="4.57558">
        <ele>117.6</ele>
        <time>2019-06-01T08:51:32Z</time>
      </trkpt>
      <trkpt lat="44.1476" lon="4.57552">
        <ele>117.8</ele>
        <time>2019-06-01T08:51:33Z</time>
      </trkpt>
      <trkpt lat="44.1476" lon="4.57547">
        <ele>118</ele>
        <time>2019-06-01T08:51:34Z</time>
      </trkpt>
      <trkpt lat="44.1476" lon="4.57542">
        <ele>118.2</ele>
        <time>2019-06-01T08:51:35Z</time>
      </trkpt>
      <trkpt lat="44.1476" lon="4.57537">
        <ele>118.4</ele>
        <time>2019-06-01T08:51:36Z</time>
      </trkpt>
      <trkpt lat="44.14761" lon="4.57531">
        <ele>118.6</ele>
        <time>2019-06-01T08:51:37Z</time>
      </trkpt>
      <trkpt lat="44.14761" lon="4.57526">
        <ele>118.9</ele>
        <time>2019-06-01T08:51:38Z</time>
      </trkpt>
      <trkpt lat="44.14761" lon="4.57522">
        <ele>119.1</ele>
        <time>2019-06-01T08:51:39Z</time>
      </trkpt>
      <trkpt lat="44.14761" lon="4.57517">
        <ele>119.3</ele>
        <time>2019-06-01T08:51:40Z</time>
      </trkpt>
      <trkpt lat="44.14761" lon="4.57513">
        <ele>119.4</ele>
        <time>2019-06-01T08:51:41Z</time>
      </trkpt>
      <trkpt lat="44.14761" lon="4.57508">
        <ele>119.6</ele>
        <time>2019-06-01T08:51:42Z</time>
      </trkpt>
      <trkpt lat="44.14762" lon="4.57503">
        <ele>119.8</ele>
        <time>2019-06-01T08:51:43Z</time>
      </trkpt>
      <trkpt lat="44.14762" lon="4.57499">
        <ele>119.9</ele>
        <time>2019-06-01T08:51:44Z</time>
      </trkpt>
      <trkpt lat="44.14762" lon="4.57495">
        <ele>120.1</ele>
        <time>2019-06-01T08:51:45Z</time>
      </trkpt>
      <trkpt lat="44.14763" lon="4.57491">
        <ele>120.2</ele>
        <time>2019-06-01T08:51:46Z</time>
      </trkpt>
      <trkpt lat="44.14763" lon="4.57487">
        <ele>120.4</ele>
        <time>2019-06-01T08:51:47Z</time>
      </trkpt>
      <trkpt lat="44.14762" lon="4.57482">
        <ele>120.6</ele>
        <time>2019-06-01T08:51:48Z</time>
      </trkpt>
      <trkpt lat="44.14762" lon="4.57478">
        <ele>120.8</ele>
        <time>2019-06-01T08:51:49Z</time>
      </trkpt>
      <trkpt lat="44.14762" lon="4.57474">
        <ele>120.9</ele>
        <time>2019-06-01T08:51:50Z</time>
      </trkpt>
      <trkpt lat="44.14762" lon="4.5747">
        <ele>121.1</ele>
        <time>2019-06-01T08:51:51Z</time>
      </trkpt>
      <trkpt lat="44.14762" lon="4.57463">
        <ele>121.4</ele>
        <time>2019-06-01T08:51:53Z</time>
      </trkpt>
      <trkpt lat="44.14762" lon="4.57459">
        <ele>121.6</ele>
        <time>2019-06-01T08:51:54Z</time>
      </trkpt>
      <trkpt lat="44.14762" lon="4.57454">
        <ele>121.8</ele>
        <time>2019-06-01T08:51:55Z</time>
      </trkpt>
      <trkpt lat="44.14762" lon="4.5745">
        <ele>122</ele>
        <time>2019-06-01T08:51:56Z</time>
      </trkpt>
      <trkpt lat="44.14762" lon="4.57446">
        <ele>122.2</ele>
        <time>2019-06-01T08:51:57Z</time>
      </trkpt>
      <trkpt lat="44.14763" lon="4.57442">
        <ele>122.4</ele>
        <time>2019-06-01T08:51:58Z</time>
      </trkpt>
      <trkpt lat="44.14763" lon="4.57437">
        <ele>122.6</ele>
        <time>2019-06-01T08:51:59Z</time>
      </trkpt>
      <trkpt lat="44.14763" lon="4.57433">
        <ele>122.9</ele>
        <time>2019-06-01T08:52:00Z</time>
      </trkpt>
      <trkpt lat="44.14763" lon="4.57429">
        <ele>123.1</ele>
        <time>2019-06-01T08:52:01Z</time>
      </trkpt>
      <trkpt lat="44.14763" lon="4.57425">
        <ele>123.3</ele>
        <time>2019-06-01T08:52:02Z</time>
      </trkpt>
      <trkpt lat="44.14763" lon="4.5742">
        <ele>123.5</ele>
        <time>2019-06-01T08:52:03Z</time>
      </trkpt>
      <trkpt lat="44.14763" lon="4.57416">
        <ele>123.7</ele>
        <time>2019-06-01T08:52:04Z</time>
      </trkpt>
      <trkpt lat="44.14763" lon="4.57412">
        <ele>123.9</ele>
        <time>2019-06-01T08:52:05Z</time>
      </trkpt>
      <trkpt lat="44.14763" lon="4.57407">
        <ele>124.2</ele>
        <time>2019-06-01T08:52:06Z</time>
      </trkpt>
      <trkpt lat="44.14763" lon="4.574">
        <ele>124.5</ele>
        <time>2019-06-01T08:52:08Z</time>
      </trkpt>
      <trkpt lat="44.14763" lon="4.57396">
        <ele>124.8</ele>
        <time>2019-06-01T08:52:09Z</time>
      </trkpt>
      <trkpt lat="44.14762" lon="4.57392">
        <ele>125.1</ele>
        <time>2019-06-01T08:52:10Z</time>
      </trkpt>
      <trkpt lat="44.14763" lon="4.57389">
        <ele>125.6</ele>
        <time>2019-06-01T08:52:11Z</time>
      </trkpt>
      <trkpt lat="44.14765" lon="4.57382">
        <ele>125.5</ele>
        <time>2019-06-01T08:52:13Z</time>
      </trkpt>
      <trkpt lat="44.14768" lon="4.57381">
        <ele>125.5</ele>
        <time>2019-06-01T08:52:14Z</time>
      </trkpt>
      <trkpt lat="44.14771" lon="4.57381">
        <ele>125.4</ele>
        <time>2019-06-01T08:52:15Z</time>
      </trkpt>
      <trkpt lat="44.14774" lon="4.57381">
        <ele>125.4</ele>
        <time>2019-06-01T08:52:16Z</time>
      </trkpt>
      <trkpt lat="44.14776" lon="4.57382">
        <ele>125.4</ele>
        <time>2019-06-01T08:52:17Z</time>
      </trkpt>
      <trkpt lat="44.14779" lon="4.57382">
        <ele>125.3</ele>
        <time>2019-06-01T08:52:18Z</time>
      </trkpt>
      <trkpt lat="44.14785" lon="4.57383">
        <ele>125.2</ele>
        <time>2019-06-01T08:52:20Z</time>
      </trkpt>
      <trkpt lat="44.14788" lon="4.57382">
        <ele>125.1</ele>
        <time>2019-06-01T08:52:21Z</time>
      </trkpt>
      <trkpt lat="44.14791" lon="4.57381">
        <ele>125.1</ele>
        <time>2019-06-01T08:52:22Z</time>
      </trkpt>
      <trkpt lat="44.14794" lon="4.57381">
        <ele>125</ele>
        <time>2019-06-01T08:52:23Z</time>
      </trkpt>
      <trkpt lat="44.14798" lon="4.57381">
        <ele>124.9</ele>
        <time>2019-06-01T08:52:24Z</time>
      </trkpt>
      <trkpt lat="44.14802" lon="4.57381">
        <ele>124.8</ele>
        <time>2019-06-01T08:52:25Z</time>
      </trkpt>
      <trkpt lat="44.14806" lon="4.57382">
        <ele>124.8</ele>
        <time>2019-06-01T08:52:26Z</time>
      </trkpt>
      <trkpt lat="44.14809" lon="4.57382">
        <ele>124.7</ele>
        <time>2019-06-01T08:52:27Z</time>
      </trkpt>
      <trkpt lat="44.14812" lon="4.57383">
        <ele>124.6</ele>
        <time>2019-06-01T08:52:28Z</time>
      </trkpt>
      <trkpt lat="44.14815" lon="4.57384">
        <ele>124.5</ele>
        <time>2019-06-01T08:52:29Z</time>
      </trkpt>
      <trkpt lat="44.14818" lon="4.57385">
        <ele>124.4</ele>
        <time>2019-06-01T08:52:30Z</time>
      </trkpt>
      <trkpt lat="44.14822" lon="4.57386">
        <ele>124.3</ele>
        <time>2019-06-01T08:52:31Z</time>
      </trkpt>
      <trkpt lat="44.14825" lon="4.57387">
        <ele>124.2</ele>
        <time>2019-06-01T08:52:32Z</time>
      </trkpt>
      <trkpt lat="44.14829" lon="4.57387">
        <ele>124.1</ele>
        <time>2019-06-01T08:52:33Z</time>
      </trkpt>
      <trkpt lat="44.14832" lon="4.57386">
        <ele>124</ele>
        <time>2019-06-01T08:52:34Z</time>
      </trkpt>
      <trkpt lat="44.14836" lon="4.57388">
        <ele>123.8</ele>
        <time>2019-06-01T08:52:35Z</time>
      </trkpt>
      <trkpt lat="44.1484" lon="4.5739">
        <ele>123.7</ele>
        <time>2019-06-01T08:52:36Z</time>
      </trkpt>
      <trkpt lat="44.14844" lon="4.57394">
        <ele>123.6</ele>
        <time>2019-06-01T08:52:37Z</time>
      </trkpt>
      <trkpt lat="44.14847" lon="4.57397">
        <ele>123.4</ele>
        <time>2019-06-01T08:52:38Z</time>
      </trkpt>
      <trkpt lat="44.14851" lon="4.57401">
        <ele>123.2</ele>
        <time>2019-06-01T08:52:39Z</time>
      </trkpt>
      <trkpt lat="44.14855" lon="4.57404">
        <ele>123.1</ele>
        <time>2019-06-01T08:52:40Z</time>
      </trkpt>
      <trkpt lat="44.14859" lon="4.57406">
        <ele>122.9</ele>
        <time>2019-06-01T08:52:41Z</time>
      </trkpt>
      <trkpt lat="44.14863" lon="4.57407">
        <ele>122.8</ele>
        <time>2019-06-01T08:52:42Z</time>
      </trkpt>
      <trkpt lat="44.14868" lon="4.57407">
        <ele>122.7</ele>
        <time>2019-06-01T08:52:43Z</time>
      </trkpt>
      <trkpt lat="44.14872" lon="4.57409">
        <ele>122.5</ele>
        <time>2019-06-01T08:52:44Z</time>
      </trkpt>
      <trkpt lat="44.14877" lon="4.57411">
        <ele>122.4</ele>
        <time>2019-06-01T08:52:45Z</time>
      </trkpt>
      <trkpt lat="44.14881" lon="4.57413">
        <ele>122.3</ele>
        <time>2019-06-01T08:52:46Z</time>
      </trkpt>
      <trkpt lat="44.14884" lon="4.57415">
        <ele>122.2</ele>
        <time>2019-06-01T08:52:47Z</time>
      </trkpt>
      <trkpt lat="44.14889" lon="4.57416">
        <ele>122.1</ele>
        <time>2019-06-01T08:52:48Z</time>
      </trkpt>
      <trkpt lat="44.14898" lon="4.57416">
        <ele>121.8</ele>
        <time>2019-06-01T08:52:49Z</time>
      </trkpt>
      <trkpt lat="44.14903" lon="4.57419">
        <ele>121.7</ele>
        <time>2019-06-01T08:52:50Z</time>
      </trkpt>
      <trkpt lat="44.14907" lon="4.57421">
        <ele>121.5</ele>
        <time>2019-06-01T08:52:51Z</time>
      </trkpt>
      <trkpt lat="44.1491" lon="4.57425">
        <ele>121.4</ele>
        <time>2019-06-01T08:52:52Z</time>
      </trkpt>
      <trkpt lat="44.14916" lon="4.57429">
        <ele>121.2</ele>
        <time>2019-06-01T08:52:53Z</time>
      </trkpt>
      <trkpt lat="44.14919" lon="4.57433">
        <ele>121</ele>
        <time>2019-06-01T08:52:54Z</time>
      </trkpt>
      <trkpt lat="44.14924" lon="4.57435">
        <ele>120.8</ele>
        <time>2019-06-01T08:52:55Z</time>
      </trkpt>
      <trkpt lat="44.14927" lon="4.57439">
        <ele>120.6</ele>
        <time>2019-06-01T08:52:56Z</time>
      </trkpt>
      <trkpt lat="44.14933" lon="4.57444">
        <ele>120.3</ele>
        <time>2019-06-01T08:52:57Z</time>
      </trkpt>
      <trkpt lat="44.14937" lon="4.57449">
        <ele>120</ele>
        <time>2019-06-01T08:52:58Z</time>
      </trkpt>
      <trkpt lat="44.14941" lon="4.57452">
        <ele>119.8</ele>
        <time>2019-06-01T08:52:59Z</time>
      </trkpt>
      <trkpt lat="44.14944" lon="4.57456">
        <ele>119.5</ele>
        <time>2019-06-01T08:53:00Z</time>
      </trkpt>
      <trkpt lat="44.1495" lon="4.57459">
        <ele>119</ele>
        <time>2019-06-01T08:53:01Z</time>
      </trkpt>
      <trkpt lat="44.14957" lon="4.57461">
        <ele>118.4</ele>
        <time>2019-06-01T08:53:02Z</time>
      </trkpt>
      <trkpt lat="44.14963" lon="4.57459">
        <ele>117.9</ele>
        <time>2019-06-01T08:53:03Z</time>
      </trkpt>
      <trkpt lat="44.14972" lon="4.57465">
        <ele>117.2</ele>
        <time>2019-06-01T08:53:04Z</time>
      </trkpt>
      <trkpt lat="44.14981" lon="4.57468">
        <ele>116.6</ele>
        <time>2019-06-01T08:53:05Z</time>
      </trkpt>
      <trkpt lat="44.14993" lon="4.57475">
        <ele>115.7</ele>
        <time>2019-06-01T08:53:06Z</time>
      </trkpt>
      <trkpt lat="44.15003" lon="4.57477">
        <ele>115.2</ele>
        <time>2019-06-01T08:53:07Z</time>
      </trkpt>
      <trkpt lat="44.15011" lon="4.57481">
        <ele>114.9</ele>
        <time>2019-06-01T08:53:08Z</time>
      </trkpt>
      <trkpt lat="44.15021" lon="4.57483">
        <ele>114.6</ele>
        <time>2019-06-01T08:53:09Z</time>
      </trkpt>
      <trkpt lat="44.15029" lon="4.57485">
        <ele>114.2</ele>
        <time>2019-06-01T08:53:10Z</time>
      </trkpt>
      <trkpt lat="44.15036" lon="4.57488">
        <ele>113.9</ele>
        <time>2019-06-01T08:53:11Z</time>
      </trkpt>
      <trkpt lat="44.15043" lon="4.57492">
        <ele>113.6</ele>
        <time>2019-06-01T08:53:12Z</time>
      </trkpt>
      <trkpt lat="44.15051" lon="4.57498">
        <ele>113.2</ele>
        <time>2019-06-01T08:53:13Z</time>
      </trkpt>
      <trkpt lat="44.15058" lon="4.57504">
        <ele>112.8</ele>
        <time>2019-06-01T08:53:14Z</time>
      </trkpt>
      <trkpt lat="44.15065" lon="4.57511">
        <ele>112.2</ele>
        <time>2019-06-01T08:53:15Z</time>
      </trkpt>
      <trkpt lat="44.15072" lon="4.57517">
        <ele>111.6</ele>
        <time>2019-06-01T08:53:16Z</time>
      </trkpt>
      <trkpt lat="44.15079" lon="4.57524">
        <ele>111.1</ele>
        <time>2019-06-01T08:53:17Z</time>
      </trkpt>
      <trkpt lat="44.15087" lon="4.57532">
        <ele>110.6</ele>
        <time>2019-06-01T08:53:18Z</time>
      </trkpt>
      <trkpt lat="44.15095" lon="4.57539">
        <ele>110.1</ele>
        <time>2019-06-01T08:53:19Z</time>
      </trkpt>
      <trkpt lat="44.15102" lon="4.57548">
        <ele>109.4</ele>
        <time>2019-06-01T08:53:20Z</time>
      </trkpt>
      <trkpt lat="44.15109" lon="4.57555">
        <ele>109.3</ele>
        <time>2019-06-01T08:53:21Z</time>
      </trkpt>
      <trkpt lat="44.15115" lon="4.57562">
        <ele>108.4</ele>
        <time>2019-06-01T08:53:22Z</time>
      </trkpt>
      <trkpt lat="44.15121" lon="4.57569">
        <ele>107.6</ele>
        <time>2019-06-01T08:53:23Z</time>
      </trkpt>
      <trkpt lat="44.15128" lon="4.57577">
        <ele>106.9</ele>
        <time>2019-06-01T08:53:24Z</time>
      </trkpt>
      <trkpt lat="44.15134" lon="4.57585">
        <ele>106.3</ele>
        <time>2019-06-01T08:53:25Z</time>
      </trkpt>
      <trkpt lat="44.1514" lon="4.57592">
        <ele>106.2</ele>
        <time>2019-06-01T08:53:26Z</time>
      </trkpt>
      <trkpt lat="44.15145" lon="4.57599">
        <ele>105.8</ele>
        <time>2019-06-01T08:53:27Z</time>
      </trkpt>
      <trkpt lat="44.15151" lon="4.57605">
        <ele>105.9</ele>
        <time>2019-06-01T08:53:28Z</time>
      </trkpt>
      <trkpt lat="44.1516" lon="4.57609">
        <ele>105.9</ele>
        <time>2019-06-01T08:53:29Z</time>
      </trkpt>
      <trkpt lat="44.15166" lon="4.57615">
        <ele>105.9</ele>
        <time>2019-06-01T08:53:30Z</time>
      </trkpt>
      <trkpt lat="44.15175" lon="4.57617">
        <ele>106.1</ele>
        <time>2019-06-01T08:53:31Z</time>
      </trkpt>
      <trkpt lat="44.15182" lon="4.57621">
        <ele>106</ele>
        <time>2019-06-01T08:53:32Z</time>
      </trkpt>
      <trkpt lat="44.15184" lon="4.5763">
        <ele>105.3</ele>
        <time>2019-06-01T08:53:33Z</time>
      </trkpt>
      <trkpt lat="44.1519" lon="4.57634">
        <ele>105.3</ele>
        <time>2019-06-01T08:53:34Z</time>
      </trkpt>
      <trkpt lat="44.15195" lon="4.5764">
        <ele>105.2</ele>
        <time>2019-06-01T08:53:35Z</time>
      </trkpt>
      <trkpt lat="44.152" lon="4.5765">
        <ele>104.4</ele>
        <time>2019-06-01T08:53:36Z</time>
      </trkpt>
      <trkpt lat="44.15206" lon="4.57657">
        <ele>104.2</ele>
        <time>2019-06-01T08:53:37Z</time>
      </trkpt>
      <trkpt lat="44.15212" lon="4.57665">
        <ele>103.8</ele>
        <time>2019-06-01T08:53:38Z</time>
      </trkpt>
      <trkpt lat="44.15213" lon="4.57671">
        <ele>103.2</ele>
        <time>2019-06-01T08:53:39Z</time>
      </trkpt>
      <trkpt lat="44.15217" lon="4.57681">
        <ele>102.8</ele>
        <time>2019-06-01T08:53:40Z</time>
      </trkpt>
      <trkpt lat="44.15225" lon="4.57688">
        <ele>102.2</ele>
        <time>2019-06-01T08:53:41Z</time>
      </trkpt>
      <trkpt lat="44.15232" lon="4.5769">
        <ele>102.1</ele>
        <time>2019-06-01T08:53:42Z</time>
      </trkpt>
      <trkpt lat="44.15238" lon="4.57688">
        <ele>101.8</ele>
        <time>2019-06-01T08:53:43Z</time>
      </trkpt>
      <trkpt lat="44.15245" lon="4.57689">
        <ele>101.4</ele>
        <time>2019-06-01T08:53:44Z</time>
      </trkpt>
      <trkpt lat="44.15253" lon="4.57689">
        <ele>101</ele>
        <time>2019-06-01T08:53:45Z</time>
      </trkpt>
      <trkpt lat="44.1526" lon="4.57692">
        <ele>100</ele>
        <time>2019-06-01T08:53:46Z</time>
      </trkpt>
      <trkpt lat="44.15265" lon="4.57693">
        <ele>99.8</ele>
        <time>2019-06-01T08:53:47Z</time>
      </trkpt>
      <trkpt lat="44.15267" lon="4.57696">
        <ele>99.6</ele>
        <time>2019-06-01T08:53:48Z</time>
      </trkpt>
      <trkpt lat="44.15269" lon="4.57697">
        <ele>99.2</ele>
        <time>2019-06-01T08:53:49Z</time>
      </trkpt>
      <trkpt lat="44.15273" lon="4.57702">
        <ele>98.7</ele>
        <time>2019-06-01T08:53:50Z</time>
      </trkpt>
      <trkpt lat="44.15276" lon="4.57707">
        <ele>98.2</ele>
        <time>2019-06-01T08:53:51Z</time>
      </trkpt>
      <trkpt lat="44.15281" lon="4.57712">
        <ele>97.6</ele>
        <time>2019-06-01T08:53:52Z</time>
      </trkpt>
      <trkpt lat="44.15285" lon="4.57717">
        <ele>96.9</ele>
        <time>2019-06-01T08:53:53Z</time>
      </trkpt>
      <trkpt lat="44.1529" lon="4.57723">
        <ele>96.2</ele>
        <time>2019-06-01T08:53:54Z</time>
      </trkpt>
      <trkpt lat="44.15295" lon="4.57726">
        <ele>95.8</ele>
        <time>2019-06-01T08:53:55Z</time>
      </trkpt>
      <trkpt lat="44.15303" lon="4.57729">
        <ele>95</ele>
        <time>2019-06-01T08:53:56Z</time>
      </trkpt>
      <trkpt lat="44.15307" lon="4.5773">
        <ele>94.9</ele>
        <time>2019-06-01T08:53:57Z</time>
      </trkpt>
      <trkpt lat="44.15312" lon="4.57732">
        <ele>94.3</ele>
        <time>2019-06-01T08:53:58Z</time>
      </trkpt>
      <trkpt lat="44.15314" lon="4.57738">
        <ele>94</ele>
        <time>2019-06-01T08:53:59Z</time>
      </trkpt>
      <trkpt lat="44.15319" lon="4.57745">
        <ele>93.2</ele>
        <time>2019-06-01T08:54:00Z</time>
      </trkpt>
      <trkpt lat="44.15323" lon="4.57751">
        <ele>92.8</ele>
        <time>2019-06-01T08:54:01Z</time>
      </trkpt>
      <trkpt lat="44.15328" lon="4.57757">
        <ele>92.2</ele>
        <time>2019-06-01T08:54:02Z</time>
      </trkpt>
      <trkpt lat="44.15332" lon="4.57762">
        <ele>91.9</ele>
        <time>2019-06-01T08:54:03Z</time>
      </trkpt>
      <trkpt lat="44.15335" lon="4.57767">
        <ele>91.6</ele>
        <time>2019-06-01T08:54:04Z</time>
      </trkpt>
      <trkpt lat="44.15338" lon="4.57772">
        <ele>91.4</ele>
        <time>2019-06-01T08:54:05Z</time>
      </trkpt>
      <trkpt lat="44.1534" lon="4.57777">
        <ele>91.2</ele>
        <time>2019-06-01T08:54:06Z</time>
      </trkpt>
      <trkpt lat="44.1534" lon="4.57784">
        <ele>90.9</ele>
        <time>2019-06-01T08:54:07Z</time>
      </trkpt>
      <trkpt lat="44.15341" lon="4.57792">
        <ele>90.6</ele>
        <time>2019-06-01T08:54:08Z</time>
      </trkpt>
      <trkpt lat="44.15341" lon="4.57801">
        <ele>90.3</ele>
        <time>2019-06-01T08:54:09Z</time>
      </trkpt>
      <trkpt lat="44.15341" lon="4.57811">
        <ele>90</ele>
        <time>2019-06-01T08:54:10Z</time>
      </trkpt>
      <trkpt lat="44.1534" lon="4.57815">
        <ele>89.9</ele>
        <time>2019-06-01T08:54:11Z</time>
      </trkpt>
      <trkpt lat="44.15343" lon="4.57822">
        <ele>89.6</ele>
        <time>2019-06-01T08:54:13Z</time>
      </trkpt>
      <trkpt lat="44.15346" lon="4.57826">
        <ele>89.5</ele>
        <time>2019-06-01T08:54:15Z</time>
      </trkpt>
      <trkpt lat="44.15349" lon="4.57829">
        <ele>89.5</ele>
        <time>2019-06-01T08:54:16Z</time>
      </trkpt>
      <trkpt lat="44.1535" lon="4.57833">
        <ele>89.4</ele>
        <time>2019-06-01T08:54:17Z</time>
      </trkpt>
      <trkpt lat="44.1535" lon="4.57839">
        <ele>89.2</ele>
        <time>2019-06-01T08:54:18Z</time>
      </trkpt>
      <trkpt lat="44.1535" lon="4.57844">
        <ele>89.1</ele>
        <time>2019-06-01T08:54:19Z</time>
      </trkpt>
      <trkpt lat="44.15349" lon="4.5785">
        <ele>89</ele>
        <time>2019-06-01T08:54:20Z</time>
      </trkpt>
      <trkpt lat="44.15349" lon="4.57856">
        <ele>89</ele>
        <time>2019-06-01T08:54:21Z</time>
      </trkpt>
      <trkpt lat="44.15349" lon="4.57861">
        <ele>88.9</ele>
        <time>2019-06-01T08:54:22Z</time>
      </trkpt>
      <trkpt lat="44.15349" lon="4.57865">
        <ele>88.9</ele>
        <time>2019-06-01T08:54:23Z</time>
      </trkpt>
      <trkpt lat="44.1535" lon="4.57869">
        <ele>88.9</ele>
        <time>2019-06-01T08:54:24Z</time>
      </trkpt>
      <trkpt lat="44.1535" lon="4.57873">
        <ele>88.8</ele>
        <time>2019-06-01T08:54:25Z</time>
      </trkpt>
      <trkpt lat="44.15351" lon="4.57878">
        <ele>88.8</ele>
        <time>2019-06-01T08:54:26Z</time>
      </trkpt>
      <trkpt lat="44.15351" lon="4.57882">
        <ele>88.8</ele>
        <time>2019-06-01T08:54:27Z</time>
      </trkpt>
      <trkpt lat="44.15351" lon="4.57886">
        <ele>88.8</ele>
        <time>2019-06-01T08:54:28Z</time>
      </trkpt>
      <trkpt lat="44.1535" lon="4.57894">
        <ele>88.8</ele>
        <time>2019-06-01T08:54:30Z</time>
      </trkpt>
      <trkpt lat="44.1535" lon="4.57899">
        <ele>88.8</ele>
        <time>2019-06-01T08:54:31Z</time>
      </trkpt>
      <trkpt lat="44.1535" lon="4.57904">
        <ele>88.8</ele>
        <time>2019-06-01T08:54:32Z</time>
      </trkpt>
      <trkpt lat="44.1535" lon="4.57909">
        <ele>88.9</ele>
        <time>2019-06-01T08:54:33Z</time>
      </trkpt>
      <trkpt lat="44.1535" lon="4.57914">
        <ele>88.9</ele>
        <time>2019-06-01T08:54:34Z</time>
      </trkpt>
      <trkpt lat="44.15351" lon="4.57919">
        <ele>89</ele>
        <time>2019-06-01T08:54:35Z</time>
      </trkpt>
      <trkpt lat="44.15351" lon="4.57924">
        <ele>89.1</ele>
        <time>2019-06-01T08:54:36Z</time>
      </trkpt>
      <trkpt lat="44.15352" lon="4.57929">
        <ele>89.3</ele>
        <time>2019-06-01T08:54:37Z</time>
      </trkpt>
      <trkpt lat="44.15352" lon="4.57933">
        <ele>89.4</ele>
        <time>2019-06-01T08:54:38Z</time>
      </trkpt>
      <trkpt lat="44.15353" lon="4.57938">
        <ele>89.5</ele>
        <time>2019-06-01T08:54:39Z</time>
      </trkpt>
      <trkpt lat="44.15354" lon="4.57943">
        <ele>89.7</ele>
        <time>2019-06-01T08:54:40Z</time>
      </trkpt>
      <trkpt lat="44.15356" lon="4.57948">
        <ele>89.8</ele>
        <time>2019-06-01T08:54:41Z</time>
      </trkpt>
      <trkpt lat="44.15358" lon="4.57952">
        <ele>90</ele>
        <time>2019-06-01T08:54:42Z</time>
      </trkpt>
      <trkpt lat="44.1536" lon="4.57955">
        <ele>90</ele>
        <time>2019-06-01T08:54:43Z</time>
      </trkpt>
      <trkpt lat="44.15364" lon="4.57959">
        <ele>89.7</ele>
        <time>2019-06-01T08:54:45Z</time>
      </trkpt>
      <trkpt lat="44.15369" lon="4.57962">
        <ele>89.6</ele>
        <time>2019-06-01T08:54:47Z</time>
      </trkpt>
      <trkpt lat="44.15372" lon="4.57963">
        <ele>89.6</ele>
        <time>2019-06-01T08:54:48Z</time>
      </trkpt>
      <trkpt lat="44.15377" lon="4.57965">
        <ele>89.4</ele>
        <time>2019-06-01T08:54:50Z</time>
      </trkpt>
      <trkpt lat="44.15379" lon="4.57966">
        <ele>89.4</ele>
        <time>2019-06-01T08:54:51Z</time>
      </trkpt>
      <trkpt lat="44.15384" lon="4.57968">
        <ele>89.1</ele>
        <time>2019-06-01T08:54:53Z</time>
      </trkpt>
      <trkpt lat="44.15389" lon="4.57971">
        <ele>89</ele>
        <time>2019-06-01T08:54:55Z</time>
      </trkpt>
      <trkpt lat="44.15392" lon="4.57974">
        <ele>89</ele>
        <time>2019-06-01T08:54:57Z</time>
      </trkpt>
      <trkpt lat="44.15396" lon="4.57976">
        <ele>89</ele>
        <time>2019-06-01T08:54:59Z</time>
      </trkpt>
      <trkpt lat="44.15401" lon="4.57978">
        <ele>89</ele>
        <time>2019-06-01T08:55:01Z</time>
      </trkpt>
      <trkpt lat="44.15405" lon="4.5798">
        <ele>88.9</ele>
        <time>2019-06-01T08:55:03Z</time>
      </trkpt>
      <trkpt lat="44.1541" lon="4.57982">
        <ele>89.1</ele>
        <time>2019-06-01T08:55:05Z</time>
      </trkpt>
      <trkpt lat="44.15414" lon="4.57984">
        <ele>89.4</ele>
        <time>2019-06-01T08:55:06Z</time>
      </trkpt>
      <trkpt lat="44.15417" lon="4.57986">
        <ele>89.6</ele>
        <time>2019-06-01T08:55:07Z</time>
      </trkpt>
      <trkpt lat="44.1542" lon="4.57989">
        <ele>89.7</ele>
        <time>2019-06-01T08:55:08Z</time>
      </trkpt>
      <trkpt lat="44.15424" lon="4.57994">
        <ele>89.9</ele>
        <time>2019-06-01T08:55:10Z</time>
      </trkpt>
      <trkpt lat="44.15426" lon="4.57997">
        <ele>90.2</ele>
        <time>2019-06-01T08:55:11Z</time>
      </trkpt>
      <trkpt lat="44.15428" lon="4.58">
        <ele>90.4</ele>
        <time>2019-06-01T08:55:12Z</time>
      </trkpt>
      <trkpt lat="44.15431" lon="4.58003">
        <ele>90.6</ele>
        <time>2019-06-01T08:55:13Z</time>
      </trkpt>
      <trkpt lat="44.15433" lon="4.58006">
        <ele>90.8</ele>
        <time>2019-06-01T08:55:14Z</time>
      </trkpt>
      <trkpt lat="44.15435" lon="4.58009">
        <ele>90.9</ele>
        <time>2019-06-01T08:55:15Z</time>
      </trkpt>
      <trkpt lat="44.15438" lon="4.58012">
        <ele>91.1</ele>
        <time>2019-06-01T08:55:16Z</time>
      </trkpt>
      <trkpt lat="44.1544" lon="4.58015">
        <ele>91.3</ele>
        <time>2019-06-01T08:55:17Z</time>
      </trkpt>
      <trkpt lat="44.15443" lon="4.58017">
        <ele>91.2</ele>
        <time>2019-06-01T08:55:18Z</time>
      </trkpt>
      <trkpt lat="44.15447" lon="4.58018">
        <ele>91.1</ele>
        <time>2019-06-01T08:55:19Z</time>
      </trkpt>
      <trkpt lat="44.15451" lon="4.58019">
        <ele>91</ele>
        <time>2019-06-01T08:55:20Z</time>
      </trkpt>
      <trkpt lat="44.15455" lon="4.5802">
        <ele>90.9</ele>
        <time>2019-06-01T08:55:21Z</time>
      </trkpt>
      <trkpt lat="44.15459" lon="4.5802">
        <ele>90.7</ele>
        <time>2019-06-01T08:55:22Z</time>
      </trkpt>
      <trkpt lat="44.15463" lon="4.58021">
        <ele>90.7</ele>
        <time>2019-06-01T08:55:23Z</time>
      </trkpt>
      <trkpt lat="44.15467" lon="4.58022">
        <ele>90.6</ele>
        <time>2019-06-01T08:55:24Z</time>
      </trkpt>
      <trkpt lat="44.15472" lon="4.58022">
        <ele>90.7</ele>
        <time>2019-06-01T08:55:25Z</time>
      </trkpt>
      <trkpt lat="44.15476" lon="4.58022">
        <ele>90.8</ele>
        <time>2019-06-01T08:55:26Z</time>
      </trkpt>
      <trkpt lat="44.15481" lon="4.58022">
        <ele>90.7</ele>
        <time>2019-06-01T08:55:27Z</time>
      </trkpt>
      <trkpt lat="44.15485" lon="4.58022">
        <ele>90.7</ele>
        <time>2019-06-01T08:55:28Z</time>
      </trkpt>
      <trkpt lat="44.15489" lon="4.58025">
        <ele>90.7</ele>
        <time>2019-06-01T08:55:29Z</time>
      </trkpt>
      <trkpt lat="44.15494" lon="4.58027">
        <ele>90.8</ele>
        <time>2019-06-01T08:55:30Z</time>
      </trkpt>
      <trkpt lat="44.15499" lon="4.5803">
        <ele>91</ele>
        <time>2019-06-01T08:55:31Z</time>
      </trkpt>
      <trkpt lat="44.15505" lon="4.58034">
        <ele>91.1</ele>
        <time>2019-06-01T08:55:32Z</time>
      </trkpt>
      <trkpt lat="44.1551" lon="4.58038">
        <ele>91.3</ele>
        <time>2019-06-01T08:55:33Z</time>
      </trkpt>
      <trkpt lat="44.15515" lon="4.58043">
        <ele>91.6</ele>
        <time>2019-06-01T08:55:34Z</time>
      </trkpt>
      <trkpt lat="44.1552" lon="4.58047">
        <ele>91.7</ele>
        <time>2019-06-01T08:55:35Z</time>
      </trkpt>
      <trkpt lat="44.15525" lon="4.58051">
        <ele>91.8</ele>
        <time>2019-06-01T08:55:36Z</time>
      </trkpt>
      <trkpt lat="44.1553" lon="4.58057">
        <ele>91.8</ele>
        <time>2019-06-01T08:55:37Z</time>
      </trkpt>
      <trkpt lat="44.15534" lon="4.58062">
        <ele>92</ele>
        <time>2019-06-01T08:55:38Z</time>
      </trkpt>
      <trkpt lat="44.15539" lon="4.58065">
        <ele>92.1</ele>
        <time>2019-06-01T08:55:39Z</time>
      </trkpt>
      <trkpt lat="44.15544" lon="4.5807">
        <ele>92.2</ele>
        <time>2019-06-01T08:55:40Z</time>
      </trkpt>
      <trkpt lat="44.15547" lon="4.58076">
        <ele>92.2</ele>
        <time>2019-06-01T08:55:41Z</time>
      </trkpt>
      <trkpt lat="44.1555" lon="4.58082">
        <ele>92.3</ele>
        <time>2019-06-01T08:55:42Z</time>
      </trkpt>
      <trkpt lat="44.15553" lon="4.58086">
        <ele>92.5</ele>
        <time>2019-06-01T08:55:43Z</time>
      </trkpt>
      <trkpt lat="44.15555" lon="4.58091">
        <ele>92.7</ele>
        <time>2019-06-01T08:55:44Z</time>
      </trkpt>
      <trkpt lat="44.15555" lon="4.58095">
        <ele>92.8</ele>
        <time>2019-06-01T08:55:46Z</time>
      </trkpt>
      <trkpt lat="44.15559" lon="4.58097">
        <ele>92.9</ele>
        <time>2019-06-01T08:55:48Z</time>
      </trkpt>
      <trkpt lat="44.15562" lon="4.58098">
        <ele>93.2</ele>
        <time>2019-06-01T08:55:50Z</time>
      </trkpt>
      <trkpt lat="44.15564" lon="4.58091">
        <ele>93.5</ele>
        <time>2019-06-01T08:55:52Z</time>
      </trkpt>
      <trkpt lat="44.15563" lon="4.58085">
        <ele>93.5</ele>
        <time>2019-06-01T08:55:54Z</time>
      </trkpt>
      <trkpt lat="44.15559" lon="4.58081">
        <ele>93.5</ele>
        <time>2019-06-01T08:55:56Z</time>
      </trkpt>
      <trkpt lat="44.15555" lon="4.58078">
        <ele>93.2</ele>
        <time>2019-06-01T08:55:58Z</time>
      </trkpt>
      <trkpt lat="44.15553" lon="4.58074">
        <ele>92.9</ele>
        <time>2019-06-01T08:56:01Z</time>
      </trkpt>
      <trkpt lat="44.1555" lon="4.58071">
        <ele>92.7</ele>
        <time>2019-06-01T08:56:03Z</time>
      </trkpt>
      <trkpt lat="44.15546" lon="4.58066">
        <ele>92.4</ele>
        <time>2019-06-01T08:56:05Z</time>
      </trkpt>
      <trkpt lat="44.15543" lon="4.58064">
        <ele>92.3</ele>
        <time>2019-06-01T08:56:06Z</time>
      </trkpt>
      <trkpt lat="44.1554" lon="4.58062">
        <ele>92.3</ele>
        <time>2019-06-01T08:56:07Z</time>
      </trkpt>
      <trkpt lat="44.15537" lon="4.5806">
        <ele>92.2</ele>
        <time>2019-06-01T08:56:08Z</time>
      </trkpt>
      <trkpt lat="44.15534" lon="4.58057">
        <ele>92.2</ele>
        <time>2019-06-01T08:56:09Z</time>
      </trkpt>
      <trkpt lat="44.15531" lon="4.58053">
        <ele>92.1</ele>
        <time>2019-06-01T08:56:10Z</time>
      </trkpt>
      <trkpt lat="44.1553" lon="4.5805">
        <ele>92.1</ele>
        <time>2019-06-01T08:56:11Z</time>
      </trkpt>
      <trkpt lat="44.15525" lon="4.58043">
        <ele>91.9</ele>
        <time>2019-06-01T08:56:13Z</time>
      </trkpt>
      <trkpt lat="44.15522" lon="4.58038">
        <ele>91.8</ele>
        <time>2019-06-01T08:56:14Z</time>
      </trkpt>
      <trkpt lat="44.15518" lon="4.58035">
        <ele>91.7</ele>
        <time>2019-06-01T08:56:15Z</time>
      </trkpt>
      <trkpt lat="44.15514" lon="4.58031">
        <ele>91.6</ele>
        <time>2019-06-01T08:56:16Z</time>
      </trkpt>
      <trkpt lat="44.1551" lon="4.58028">
        <ele>91.4</ele>
        <time>2019-06-01T08:56:17Z</time>
      </trkpt>
      <trkpt lat="44.15506" lon="4.58025">
        <ele>91.2</ele>
        <time>2019-06-01T08:56:18Z</time>
      </trkpt>
      <trkpt lat="44.15502" lon="4.58022">
        <ele>91.1</ele>
        <time>2019-06-01T08:56:19Z</time>
      </trkpt>
      <trkpt lat="44.15499" lon="4.5802">
        <ele>91</ele>
        <time>2019-06-01T08:56:20Z</time>
      </trkpt>
      <trkpt lat="44.15496" lon="4.58018">
        <ele>90.9</ele>
        <time>2019-06-01T08:56:21Z</time>
      </trkpt>
      <trkpt lat="44.15493" lon="4.58016">
        <ele>90.8</ele>
        <time>2019-06-01T08:56:22Z</time>
      </trkpt>
      <trkpt lat="44.15489" lon="4.58016">
        <ele>90.7</ele>
        <time>2019-06-01T08:56:23Z</time>
      </trkpt>
      <trkpt lat="44.15485" lon="4.58016">
        <ele>90.7</ele>
        <time>2019-06-01T08:56:24Z</time>
      </trkpt>
      <trkpt lat="44.15481" lon="4.58016">
        <ele>90.7</ele>
        <time>2019-06-01T08:56:25Z</time>
      </trkpt>
      <trkpt lat="44.15478" lon="4.58016">
        <ele>90.8</ele>
        <time>2019-06-01T08:56:26Z</time>
      </trkpt>
      <trkpt lat="44.15475" lon="4.58016">
        <ele>90.7</ele>
        <time>2019-06-01T08:56:27Z</time>
      </trkpt>
      <trkpt lat="44.15472" lon="4.58016">
        <ele>90.7</ele>
        <time>2019-06-01T08:56:28Z</time>
      </trkpt>
      <trkpt lat="44.15469" lon="4.58015">
        <ele>90.7</ele>
        <time>2019-06-01T08:56:30Z</time>
      </trkpt>
      <trkpt lat="44.15465" lon="4.58015">
        <ele>90.8</ele>
        <time>2019-06-01T08:56:33Z</time>
      </trkpt>
      <trkpt lat="44.15469" lon="4.58018">
        <ele>90.7</ele>
        <time>2019-06-01T08:56:37Z</time>
      </trkpt>
      <trkpt lat="44.15473" lon="4.58018">
        <ele>90.7</ele>
        <time>2019-06-01T08:56:39Z</time>
      </trkpt>
      <trkpt lat="44.15478" lon="4.58018">
        <ele>90.7</ele>
        <time>2019-06-01T08:56:41Z</time>
      </trkpt>
      <trkpt lat="44.1548" lon="4.58018">
        <ele>90.7</ele>
        <time>2019-06-01T08:56:42Z</time>
      </trkpt>
      <trkpt lat="44.15484" lon="4.58018">
        <ele>90.8</ele>
        <time>2019-06-01T08:56:43Z</time>
      </trkpt>
      <trkpt lat="44.15487" lon="4.58018">
        <ele>90.9</ele>
        <time>2019-06-01T08:56:44Z</time>
      </trkpt>
      <trkpt lat="44.15491" lon="4.58018">
        <ele>91</ele>
        <time>2019-06-01T08:56:45Z</time>
      </trkpt>
      <trkpt lat="44.15495" lon="4.58021">
        <ele>91.1</ele>
        <time>2019-06-01T08:56:46Z</time>
      </trkpt>
      <trkpt lat="44.155" lon="4.58024">
        <ele>91.3</ele>
        <time>2019-06-01T08:56:47Z</time>
      </trkpt>
      <trkpt lat="44.15503" lon="4.58029">
        <ele>91.6</ele>
        <time>2019-06-01T08:56:48Z</time>
      </trkpt>
      <trkpt lat="44.15507" lon="4.58032">
        <ele>91.6</ele>
        <time>2019-06-01T08:56:49Z</time>
      </trkpt>
      <trkpt lat="44.15511" lon="4.58036">
        <ele>91.7</ele>
        <time>2019-06-01T08:56:50Z</time>
      </trkpt>
      <trkpt lat="44.15516" lon="4.58039">
        <ele>91.8</ele>
        <time>2019-06-01T08:56:51Z</time>
      </trkpt>
      <trkpt lat="44.15519" lon="4.58042">
        <ele>91.8</ele>
        <time>2019-06-01T08:56:52Z</time>
      </trkpt>
      <trkpt lat="44.15522" lon="4.58045">
        <ele>91.9</ele>
        <time>2019-06-01T08:56:54Z</time>
      </trkpt>
      <trkpt lat="44.15527" lon="4.58048">
        <ele>92.1</ele>
        <time>2019-06-01T08:56:56Z</time>
      </trkpt>
      <trkpt lat="44.15531" lon="4.58053">
        <ele>92.1</ele>
        <time>2019-06-01T08:56:58Z</time>
      </trkpt>
      <trkpt lat="44.15533" lon="4.58055">
        <ele>92.2</ele>
        <time>2019-06-01T08:56:59Z</time>
      </trkpt>
      <trkpt lat="44.15535" lon="4.58054">
        <ele>92.2</ele>
        <time>2019-06-01T08:57:01Z</time>
      </trkpt>
      <trkpt lat="44.15538" lon="4.58057">
        <ele>92.2</ele>
        <time>2019-06-01T08:57:03Z</time>
      </trkpt>
      <trkpt lat="44.15542" lon="4.58061">
        <ele>92.3</ele>
        <time>2019-06-01T08:57:05Z</time>
      </trkpt>
      <trkpt lat="44.15545" lon="4.58064">
        <ele>92.5</ele>
        <time>2019-06-01T08:57:06Z</time>
      </trkpt>
      <trkpt lat="44.15547" lon="4.58067">
        <ele>92.7</ele>
        <time>2019-06-01T08:57:07Z</time>
      </trkpt>
      <trkpt lat="44.1555" lon="4.58071">
        <ele>92.8</ele>
        <time>2019-06-01T08:57:08Z</time>
      </trkpt>
      <trkpt lat="44.15552" lon="4.58074">
        <ele>92.9</ele>
        <time>2019-06-01T08:57:09Z</time>
      </trkpt>
      <trkpt lat="44.15555" lon="4.58078">
        <ele>93.2</ele>
        <time>2019-06-01T08:57:10Z</time>
      </trkpt>
      <trkpt lat="44.15558" lon="4.58082">
        <ele>93.5</ele>
        <time>2019-06-01T08:57:11Z</time>
      </trkpt>
      <trkpt lat="44.1556" lon="4.58086">
        <ele>93.5</ele>
        <time>2019-06-01T08:57:12Z</time>
      </trkpt>
      <trkpt lat="44.15562" lon="4.5809">
        <ele>93.9</ele>
        <time>2019-06-01T08:57:13Z</time>
      </trkpt>
      <trkpt lat="44.15564" lon="4.58094">
        <ele>94.1</ele>
        <time>2019-06-01T08:57:14Z</time>
      </trkpt>
      <trkpt lat="44.15566" lon="4.58097">
        <ele>94.4</ele>
        <time>2019-06-01T08:57:15Z</time>
      </trkpt>
      <trkpt lat="44.15568" lon="4.581">
        <ele>94.6</ele>
        <time>2019-06-01T08:57:16Z</time>
      </trkpt>
      <trkpt lat="44.1557" lon="4.58103">
        <ele>94.8</ele>
        <time>2019-06-01T08:57:17Z</time>
      </trkpt>
      <trkpt lat="44.15571" lon="4.58106">
        <ele>95.1</ele>
        <time>2019-06-01T08:57:18Z</time>
      </trkpt>
      <trkpt lat="44.15573" lon="4.5811">
        <ele>95.3</ele>
        <time>2019-06-01T08:57:19Z</time>
      </trkpt>
      <trkpt lat="44.15576" lon="4.58116">
        <ele>95.7</ele>
        <time>2019-06-01T08:57:21Z</time>
      </trkpt>
      <trkpt lat="44.15578" lon="4.58121">
        <ele>96</ele>
        <time>2019-06-01T08:57:22Z</time>
      </trkpt>
      <trkpt lat="44.1558" lon="4.58126">
        <ele>96.3</ele>
        <time>2019-06-01T08:57:23Z</time>
      </trkpt>
      <trkpt lat="44.15582" lon="4.58131">
        <ele>96.5</ele>
        <time>2019-06-01T08:57:24Z</time>
      </trkpt>
      <trkpt lat="44.15583" lon="4.58136">
        <ele>96.7</ele>
        <time>2019-06-01T08:57:25Z</time>
      </trkpt>
      <trkpt lat="44.15585" lon="4.58139">
        <ele>96.9</ele>
        <time>2019-06-01T08:57:26Z</time>
      </trkpt>
      <trkpt lat="44.15588" lon="4.58142">
        <ele>97.1</ele>
        <time>2019-06-01T08:57:27Z</time>
      </trkpt>
      <trkpt lat="44.1559" lon="4.58145">
        <ele>97.2</ele>
        <time>2019-06-01T08:57:28Z</time>
      </trkpt>
      <trkpt lat="44.15592" lon="4.58148">
        <ele>97.3</ele>
        <time>2019-06-01T08:57:29Z</time>
      </trkpt>
      <trkpt lat="44.15594" lon="4.58152">
        <ele>97.5</ele>
        <time>2019-06-01T08:57:30Z</time>
      </trkpt>
      <trkpt lat="44.15596" lon="4.58156">
        <ele>97.7</ele>
        <time>2019-06-01T08:57:31Z</time>
      </trkpt>
      <trkpt lat="44.15599" lon="4.58159">
        <ele>97.8</ele>
        <time>2019-06-01T08:57:32Z</time>
      </trkpt>
      <trkpt lat="44.15601" lon="4.58162">
        <ele>98</ele>
        <time>2019-06-01T08:57:33Z</time>
      </trkpt>
      <trkpt lat="44.15603" lon="4.58167">
        <ele>98.3</ele>
        <time>2019-06-01T08:57:35Z</time>
      </trkpt>
      <trkpt lat="44.15605" lon="4.58171">
        <ele>98.5</ele>
        <time>2019-06-01T08:57:37Z</time>
      </trkpt>
      <trkpt lat="44.15604" lon="4.58177">
        <ele>98.8</ele>
        <time>2019-06-01T08:57:40Z</time>
      </trkpt>
      <trkpt lat="44.15601" lon="4.5818">
        <ele>99</ele>
        <time>2019-06-01T08:57:42Z</time>
      </trkpt>
      <trkpt lat="44.15597" lon="4.58185">
        <ele>99.3</ele>
        <time>2019-06-01T08:57:44Z</time>
      </trkpt>
      <trkpt lat="44.15594" lon="4.5819">
        <ele>99.7</ele>
        <time>2019-06-01T08:57:46Z</time>
      </trkpt>
      <trkpt lat="44.15591" lon="4.58196">
        <ele>100</ele>
        <time>2019-06-01T08:57:48Z</time>
      </trkpt>
      <trkpt lat="44.15587" lon="4.58202">
        <ele>100.5</ele>
        <time>2019-06-01T08:57:50Z</time>
      </trkpt>
      <trkpt lat="44.15586" lon="4.58205">
        <ele>100.7</ele>
        <time>2019-06-01T08:57:51Z</time>
      </trkpt>
      <trkpt lat="44.15584" lon="4.58208">
        <ele>100.9</ele>
        <time>2019-06-01T08:57:52Z</time>
      </trkpt>
      <trkpt lat="44.15584" lon="4.58212">
        <ele>101.2</ele>
        <time>2019-06-01T08:57:53Z</time>
      </trkpt>
      <trkpt lat="44.15583" lon="4.58216">
        <ele>101.4</ele>
        <time>2019-06-01T08:57:54Z</time>
      </trkpt>
      <trkpt lat="44.15584" lon="4.58221">
        <ele>101.7</ele>
        <time>2019-06-01T08:57:55Z</time>
      </trkpt>
      <trkpt lat="44.15585" lon="4.58224">
        <ele>101.9</ele>
        <time>2019-06-01T08:57:56Z</time>
      </trkpt>
      <trkpt lat="44.15586" lon="4.5823">
        <ele>102.2</ele>
        <time>2019-06-01T08:57:58Z</time>
      </trkpt>
      <trkpt lat="44.15586" lon="4.58237">
        <ele>102.5</ele>
        <time>2019-06-01T08:58:00Z</time>
      </trkpt>
      <trkpt lat="44.15586" lon="4.58244">
        <ele>102.8</ele>
        <time>2019-06-01T08:58:02Z</time>
      </trkpt>
      <trkpt lat="44.15587" lon="4.5825">
        <ele>103.1</ele>
        <time>2019-06-01T08:58:04Z</time>
      </trkpt>
      <trkpt lat="44.15588" lon="4.58256">
        <ele>103.3</ele>
        <time>2019-06-01T08:58:06Z</time>
      </trkpt>
      <trkpt lat="44.15588" lon="4.5826">
        <ele>103.5</ele>
        <time>2019-06-01T08:58:07Z</time>
      </trkpt>
      <trkpt lat="44.15588" lon="4.58265">
        <ele>103.7</ele>
        <time>2019-06-01T08:58:08Z</time>
      </trkpt>
      <trkpt lat="44.15587" lon="4.58269">
        <ele>103.9</ele>
        <time>2019-06-01T08:58:09Z</time>
      </trkpt>
      <trkpt lat="44.15587" lon="4.58274">
        <ele>104.1</ele>
        <time>2019-06-01T08:58:10Z</time>
      </trkpt>
      <trkpt lat="44.15586" lon="4.58279">
        <ele>104.4</ele>
        <time>2019-06-01T08:58:11Z</time>
      </trkpt>
      <trkpt lat="44.15586" lon="4.58285">
        <ele>104.4</ele>
        <time>2019-06-01T08:58:12Z</time>
      </trkpt>
      <trkpt lat="44.15586" lon="4.5829">
        <ele>104.4</ele>
        <time>2019-06-01T08:58:13Z</time>
      </trkpt>
      <trkpt lat="44.15586" lon="4.58295">
        <ele>104.3</ele>
        <time>2019-06-01T08:58:14Z</time>
      </trkpt>
      <trkpt lat="44.15585" lon="4.583">
        <ele>104.3</ele>
        <time>2019-06-01T08:58:15Z</time>
      </trkpt>
      <trkpt lat="44.15585" lon="4.58307">
        <ele>104.3</ele>
        <time>2019-06-01T08:58:16Z</time>
      </trkpt>
      <trkpt lat="44.15584" lon="4.58313">
        <ele>104.3</ele>
        <time>2019-06-01T08:58:17Z</time>
      </trkpt>
      <trkpt lat="44.15583" lon="4.5832">
        <ele>104.3</ele>
        <time>2019-06-01T08:58:18Z</time>
      </trkpt>
      <trkpt lat="44.15581" lon="4.58326">
        <ele>104.4</ele>
        <time>2019-06-01T08:58:19Z</time>
      </trkpt>
      <trkpt lat="44.15579" lon="4.58331">
        <ele>104.6</ele>
        <time>2019-06-01T08:58:20Z</time>
      </trkpt>
      <trkpt lat="44.15577" lon="4.58336">
        <ele>104.7</ele>
        <time>2019-06-01T08:58:21Z</time>
      </trkpt>
      <trkpt lat="44.15575" lon="4.58341">
        <ele>104.8</ele>
        <time>2019-06-01T08:58:22Z</time>
      </trkpt>
      <trkpt lat="44.15574" lon="4.58345">
        <ele>105</ele>
        <time>2019-06-01T08:58:23Z</time>
      </trkpt>
      <trkpt lat="44.15572" lon="4.58349">
        <ele>105.2</ele>
        <time>2019-06-01T08:58:24Z</time>
      </trkpt>
      <trkpt lat="44.15569" lon="4.58352">
        <ele>105.4</ele>
        <time>2019-06-01T08:58:26Z</time>
      </trkpt>
      <trkpt lat="44.15564" lon="4.58352">
        <ele>105.7</ele>
        <time>2019-06-01T08:58:28Z</time>
      </trkpt>
      <trkpt lat="44.15561" lon="4.58353">
        <ele>105.9</ele>
        <time>2019-06-01T08:58:29Z</time>
      </trkpt>
      <trkpt lat="44.15558" lon="4.58357">
        <ele>106.2</ele>
        <time>2019-06-01T08:58:31Z</time>
      </trkpt>
      <trkpt lat="44.15555" lon="4.58362">
        <ele>106.5</ele>
        <time>2019-06-01T08:58:33Z</time>
      </trkpt>
      <trkpt lat="44.15553" lon="4.58366">
        <ele>106.7</ele>
        <time>2019-06-01T08:58:34Z</time>
      </trkpt>
      <trkpt lat="44.15551" lon="4.58369">
        <ele>106.9</ele>
        <time>2019-06-01T08:58:35Z</time>
      </trkpt>
      <trkpt lat="44.15549" lon="4.58372">
        <ele>107.1</ele>
        <time>2019-06-01T08:58:36Z</time>
      </trkpt>
      <trkpt lat="44.15546" lon="4.58377">
        <ele>107.4</ele>
        <time>2019-06-01T08:58:38Z</time>
      </trkpt>
      <trkpt lat="44.15541" lon="4.58382">
        <ele>107.7</ele>
        <time>2019-06-01T08:58:40Z</time>
      </trkpt>
      <trkpt lat="44.15539" lon="4.58385">
        <ele>107.9</ele>
        <time>2019-06-01T08:58:41Z</time>
      </trkpt>
      <trkpt lat="44.15537" lon="4.58388">
        <ele>108.4</ele>
        <time>2019-06-01T08:58:42Z</time>
      </trkpt>
      <trkpt lat="44.15536" lon="4.58392">
        <ele>108.5</ele>
        <time>2019-06-01T08:58:43Z</time>
      </trkpt>
      <trkpt lat="44.15536" lon="4.58396">
        <ele>108.6</ele>
        <time>2019-06-01T08:58:44Z</time>
      </trkpt>
      <trkpt lat="44.15535" lon="4.584">
        <ele>108.7</ele>
        <time>2019-06-01T08:58:45Z</time>
      </trkpt>
      <trkpt lat="44.15535" lon="4.58404">
        <ele>108.9</ele>
        <time>2019-06-01T08:58:46Z</time>
      </trkpt>
      <trkpt lat="44.15534" lon="4.58408">
        <ele>109</ele>
        <time>2019-06-01T08:58:47Z</time>
      </trkpt>
      <trkpt lat="44.15533" lon="4.58411">
        <ele>109.1</ele>
        <time>2019-06-01T08:58:48Z</time>
      </trkpt>
      <trkpt lat="44.15532" lon="4.58415">
        <ele>109.1</ele>
        <time>2019-06-01T08:58:49Z</time>
      </trkpt>
      <trkpt lat="44.15531" lon="4.58419">
        <ele>109.1</ele>
        <time>2019-06-01T08:58:50Z</time>
      </trkpt>
      <trkpt lat="44.1553" lon="4.58423">
        <ele>109.2</ele>
        <time>2019-06-01T08:58:51Z</time>
      </trkpt>
      <trkpt lat="44.15528" lon="4.58427">
        <ele>109.4</ele>
        <time>2019-06-01T08:58:52Z</time>
      </trkpt>
      <trkpt lat="44.15528" lon="4.58431">
        <ele>109.6</ele>
        <time>2019-06-01T08:58:53Z</time>
      </trkpt>
      <trkpt lat="44.15527" lon="4.58435">
        <ele>109.7</ele>
        <time>2019-06-01T08:58:54Z</time>
      </trkpt>
      <trkpt lat="44.15526" lon="4.5844">
        <ele>109.8</ele>
        <time>2019-06-01T08:58:55Z</time>
      </trkpt>
      <trkpt lat="44.15525" lon="4.58444">
        <ele>109.9</ele>
        <time>2019-06-01T08:58:56Z</time>
      </trkpt>
      <trkpt lat="44.15524" lon="4.58448">
        <ele>110</ele>
        <time>2019-06-01T08:58:57Z</time>
      </trkpt>
      <trkpt lat="44.15522" lon="4.58452">
        <ele>110.1</ele>
        <time>2019-06-01T08:58:58Z</time>
      </trkpt>
      <trkpt lat="44.15521" lon="4.58456">
        <ele>110.2</ele>
        <time>2019-06-01T08:58:59Z</time>
      </trkpt>
      <trkpt lat="44.15519" lon="4.5846">
        <ele>110.3</ele>
        <time>2019-06-01T08:59:00Z</time>
      </trkpt>
      <trkpt lat="44.15517" lon="4.58465">
        <ele>110.4</ele>
        <time>2019-06-01T08:59:02Z</time>
      </trkpt>
      <trkpt lat="44.15514" lon="4.58471">
        <ele>110.6</ele>
        <time>2019-06-01T08:59:04Z</time>
      </trkpt>
      <trkpt lat="44.15514" lon="4.58475">
        <ele>110.7</ele>
        <time>2019-06-01T08:59:05Z</time>
      </trkpt>
      <trkpt lat="44.15513" lon="4.5848">
        <ele>110.8</ele>
        <time>2019-06-01T08:59:06Z</time>
      </trkpt>
      <trkpt lat="44.15512" lon="4.58484">
        <ele>110.8</ele>
        <time>2019-06-01T08:59:07Z</time>
      </trkpt>
      <trkpt lat="44.15511" lon="4.58488">
        <ele>110.9</ele>
        <time>2019-06-01T08:59:08Z</time>
      </trkpt>
      <trkpt lat="44.15508" lon="4.58493">
        <ele>111.1</ele>
        <time>2019-06-01T08:59:10Z</time>
      </trkpt>
      <trkpt lat="44.15506" lon="4.58498">
        <ele>111.1</ele>
        <time>2019-06-01T08:59:12Z</time>
      </trkpt>
      <trkpt lat="44.15505" lon="4.58501">
        <ele>111.1</ele>
        <time>2019-06-01T08:59:13Z</time>
      </trkpt>
      <trkpt lat="44.15504" lon="4.58509">
        <ele>111.2</ele>
        <time>2019-06-01T08:59:15Z</time>
      </trkpt>
      <trkpt lat="44.15503" lon="4.58514">
        <ele>111.2</ele>
        <time>2019-06-01T08:59:16Z</time>
      </trkpt>
      <trkpt lat="44.15502" lon="4.58519">
        <ele>111.2</ele>
        <time>2019-06-01T08:59:17Z</time>
      </trkpt>
      <trkpt lat="44.15502" lon="4.58524">
        <ele>111.2</ele>
        <time>2019-06-01T08:59:18Z</time>
      </trkpt>
      <trkpt lat="44.15501" lon="4.58528">
        <ele>111.2</ele>
        <time>2019-06-01T08:59:19Z</time>
      </trkpt>
      <trkpt lat="44.15501" lon="4.58533">
        <ele>111.1</ele>
        <time>2019-06-01T08:59:21Z</time>
      </trkpt>
      <trkpt lat="44.155" lon="4.58537">
        <ele>111</ele>
        <time>2019-06-01T08:59:23Z</time>
      </trkpt>
      <trkpt lat="44.15501" lon="4.58542">
        <ele>110.8</ele>
        <time>2019-06-01T08:59:26Z</time>
      </trkpt>
      <trkpt lat="44.15501" lon="4.58546">
        <ele>110.7</ele>
        <time>2019-06-01T08:59:28Z</time>
      </trkpt>
      <trkpt lat="44.15501" lon="4.5855">
        <ele>110.6</ele>
        <time>2019-06-01T08:59:31Z</time>
      </trkpt>
      <trkpt lat="44.15499" lon="4.58548">
        <ele>110.5</ele>
        <time>2019-06-01T08:59:33Z</time>
      </trkpt>
      <trkpt lat="44.15497" lon="4.58545">
        <ele>110.4</ele>
        <time>2019-06-01T08:59:35Z</time>
      </trkpt>
      <trkpt lat="44.15494" lon="4.58544">
        <ele>110.1</ele>
        <time>2019-06-01T08:59:37Z</time>
      </trkpt>
      <trkpt lat="44.1549" lon="4.58547">
        <ele>109.5</ele>
        <time>2019-06-01T08:59:39Z</time>
      </trkpt>
      <trkpt lat="44.15485" lon="4.5855">
        <ele>109.3</ele>
        <time>2019-06-01T08:59:41Z</time>
      </trkpt>
      <trkpt lat="44.15482" lon="4.58554">
        <ele>108.9</ele>
        <time>2019-06-01T08:59:43Z</time>
      </trkpt>
      <trkpt lat="44.15483" lon="4.5856">
        <ele>108.5</ele>
        <time>2019-06-01T08:59:45Z</time>
      </trkpt>
      <trkpt lat="44.15486" lon="4.58566">
        <ele>108.4</ele>
        <time>2019-06-01T08:59:47Z</time>
      </trkpt>
      <trkpt lat="44.15487" lon="4.58571">
        <ele>108.4</ele>
        <time>2019-06-01T08:59:48Z</time>
      </trkpt>
      <trkpt lat="44.15488" lon="4.58577">
        <ele>108</ele>
        <time>2019-06-01T08:59:49Z</time>
      </trkpt>
      <trkpt lat="44.15487" lon="4.58583">
        <ele>107.7</ele>
        <time>2019-06-01T08:59:50Z</time>
      </trkpt>
      <trkpt lat="44.15483" lon="4.58593">
        <ele>107</ele>
        <time>2019-06-01T08:59:51Z</time>
      </trkpt>
      <trkpt lat="44.15481" lon="4.58603">
        <ele>106.3</ele>
        <time>2019-06-01T08:59:52Z</time>
      </trkpt>
      <trkpt lat="44.15479" lon="4.58612">
        <ele>105.5</ele>
        <time>2019-06-01T08:59:53Z</time>
      </trkpt>
      <trkpt lat="44.15476" lon="4.58621">
        <ele>104.8</ele>
        <time>2019-06-01T08:59:54Z</time>
      </trkpt>
      <trkpt lat="44.15474" lon="4.58632">
        <ele>104.2</ele>
        <time>2019-06-01T08:59:55Z</time>
      </trkpt>
      <trkpt lat="44.15472" lon="4.58641">
        <ele>103.6</ele>
        <time>2019-06-01T08:59:56Z</time>
      </trkpt>
      <trkpt lat="44.15468" lon="4.5865">
        <ele>102.9</ele>
        <time>2019-06-01T08:59:57Z</time>
      </trkpt>
      <trkpt lat="44.15463" lon="4.58658">
        <ele>102.6</ele>
        <time>2019-06-01T08:59:58Z</time>
      </trkpt>
      <trkpt lat="44.15459" lon="4.58667">
        <ele>101.6</ele>
        <time>2019-06-01T08:59:59Z</time>
      </trkpt>
      <trkpt lat="44.15457" lon="4.58676">
        <ele>101.1</ele>
        <time>2019-06-01T09:00:00Z</time>
      </trkpt>
      <trkpt lat="44.15453" lon="4.58683">
        <ele>100.7</ele>
        <time>2019-06-01T09:00:01Z</time>
      </trkpt>
      <trkpt lat="44.1545" lon="4.58692">
        <ele>100.1</ele>
        <time>2019-06-01T09:00:02Z</time>
      </trkpt>
      <trkpt lat="44.15447" lon="4.58701">
        <ele>99.4</ele>
        <time>2019-06-01T09:00:03Z</time>
      </trkpt>
      <trkpt lat="44.15444" lon="4.58709">
        <ele>99.1</ele>
        <time>2019-06-01T09:00:04Z</time>
      </trkpt>
      <trkpt lat="44.15441" lon="4.58716">
        <ele>98.7</ele>
        <time>2019-06-01T09:00:05Z</time>
      </trkpt>
      <trkpt lat="44.15438" lon="4.58724">
        <ele>98.3</ele>
        <time>2019-06-01T09:00:06Z</time>
      </trkpt>
      <trkpt lat="44.15434" lon="4.58731">
        <ele>98</ele>
        <time>2019-06-01T09:00:07Z</time>
      </trkpt>
      <trkpt lat="44.15431" lon="4.58739">
        <ele>97.7</ele>
        <time>2019-06-01T09:00:08Z</time>
      </trkpt>
      <trkpt lat="44.15428" lon="4.58747">
        <ele>97.6</ele>
        <time>2019-06-01T09:00:09Z</time>
      </trkpt>
      <trkpt lat="44.15425" lon="4.58755">
        <ele>97.2</ele>
        <time>2019-06-01T09:00:10Z</time>
      </trkpt>
      <trkpt lat="44.15422" lon="4.58763">
        <ele>97.1</ele>
        <time>2019-06-01T09:00:11Z</time>
      </trkpt>
      <trkpt lat="44.1542" lon="4.58772">
        <ele>97</ele>
        <time>2019-06-01T09:00:12Z</time>
      </trkpt>
      <trkpt lat="44.15417" lon="4.5878">
        <ele>97</ele>
        <time>2019-06-01T09:00:13Z</time>
      </trkpt>
      <trkpt lat="44.15415" lon="4.58789">
        <ele>97.2</ele>
        <time>2019-06-01T09:00:14Z</time>
      </trkpt>
      <trkpt lat="44.15412" lon="4.58797">
        <ele>97.3</ele>
        <time>2019-06-01T09:00:15Z</time>
      </trkpt>
      <trkpt lat="44.1541" lon="4.58805">
        <ele>97.5</ele>
        <time>2019-06-01T09:00:16Z</time>
      </trkpt>
      <trkpt lat="44.15407" lon="4.58813">
        <ele>97.6</ele>
        <time>2019-06-01T09:00:17Z</time>
      </trkpt>
      <trkpt lat="44.15405" lon="4.5882">
        <ele>97.8</ele>
        <time>2019-06-01T09:00:18Z</time>
      </trkpt>
      <trkpt lat="44.15403" lon="4.58828">
        <ele>98.1</ele>
        <time>2019-06-01T09:00:19Z</time>
      </trkpt>
      <trkpt lat="44.15401" lon="4.58836">
        <ele>98.1</ele>
        <time>2019-06-01T09:00:20Z</time>
      </trkpt>
      <trkpt lat="44.15399" lon="4.58844">
        <ele>98.4</ele>
        <time>2019-06-01T09:00:21Z</time>
      </trkpt>
      <trkpt lat="44.15396" lon="4.58852">
        <ele>98.7</ele>
        <time>2019-06-01T09:00:22Z</time>
      </trkpt>
      <trkpt lat="44.15394" lon="4.58859">
        <ele>98.9</ele>
        <time>2019-06-01T09:00:23Z</time>
      </trkpt>
      <trkpt lat="44.15392" lon="4.58867">
        <ele>98.9</ele>
        <time>2019-06-01T09:00:24Z</time>
      </trkpt>
      <trkpt lat="44.1539" lon="4.58874">
        <ele>99.1</ele>
        <time>2019-06-01T09:00:25Z</time>
      </trkpt>
      <trkpt lat="44.15387" lon="4.58882">
        <ele>99.3</ele>
        <time>2019-06-01T09:00:26Z</time>
      </trkpt>
      <trkpt lat="44.15384" lon="4.5889">
        <ele>99.6</ele>
        <time>2019-06-01T09:00:27Z</time>
      </trkpt>
      <trkpt lat="44.15382" lon="4.58898">
        <ele>99.6</ele>
        <time>2019-06-01T09:00:28Z</time>
      </trkpt>
      <trkpt lat="44.1538" lon="4.58905">
        <ele>99.8</ele>
        <time>2019-06-01T09:00:29Z</time>
      </trkpt>
      <trkpt lat="44.15378" lon="4.58912">
        <ele>100</ele>
        <time>2019-06-01T09:00:30Z</time>
      </trkpt>
      <trkpt lat="44.15376" lon="4.58919">
        <ele>100</ele>
        <time>2019-06-01T09:00:31Z</time>
      </trkpt>
      <trkpt lat="44.15375" lon="4.58926">
        <ele>100.2</ele>
        <time>2019-06-01T09:00:32Z</time>
      </trkpt>
      <trkpt lat="44.15373" lon="4.58934">
        <ele>100.3</ele>
        <time>2019-06-01T09:00:33Z</time>
      </trkpt>
      <trkpt lat="44.15371" lon="4.58941">
        <ele>100.5</ele>
        <time>2019-06-01T09:00:34Z</time>
      </trkpt>
      <trkpt lat="44.15369" lon="4.58947">
        <ele>100.8</ele>
        <time>2019-06-01T09:00:35Z</time>
      </trkpt>
      <trkpt lat="44.15367" lon="4.58954">
        <ele>100.9</ele>
        <time>2019-06-01T09:00:36Z</time>
      </trkpt>
      <trkpt lat="44.15365" lon="4.5896">
        <ele>101.2</ele>
        <time>2019-06-01T09:00:37Z</time>
      </trkpt>
      <trkpt lat="44.15362" lon="4.58965">
        <ele>101.4</ele>
        <time>2019-06-01T09:00:38Z</time>
      </trkpt>
      <trkpt lat="44.15359" lon="4.58968">
        <ele>101.7</ele>
        <time>2019-06-01T09:00:39Z</time>
      </trkpt>
      <trkpt lat="44.15357" lon="4.58975">
        <ele>101.9</ele>
        <time>2019-06-01T09:00:40Z</time>
      </trkpt>
      <trkpt lat="44.15355" lon="4.58981">
        <ele>101.9</ele>
        <time>2019-06-01T09:00:41Z</time>
      </trkpt>
      <trkpt lat="44.15353" lon="4.58984">
        <ele>102.1</ele>
        <time>2019-06-01T09:00:42Z</time>
      </trkpt>
      <trkpt lat="44.15351" lon="4.58989">
        <ele>102.2</ele>
        <time>2019-06-01T09:00:43Z</time>
      </trkpt>
      <trkpt lat="44.15349" lon="4.58995">
        <ele>102.2</ele>
        <time>2019-06-01T09:00:44Z</time>
      </trkpt>
      <trkpt lat="44.15347" lon="4.59">
        <ele>102.4</ele>
        <time>2019-06-01T09:00:45Z</time>
      </trkpt>
      <trkpt lat="44.15346" lon="4.59004">
        <ele>102.4</ele>
        <time>2019-06-01T09:00:46Z</time>
      </trkpt>
      <trkpt lat="44.15345" lon="4.59011">
        <ele>102.7</ele>
        <time>2019-06-01T09:00:47Z</time>
      </trkpt>
      <trkpt lat="44.15344" lon="4.59017">
        <ele>102.8</ele>
        <time>2019-06-01T09:00:48Z</time>
      </trkpt>
      <trkpt lat="44.15344" lon="4.59023">
        <ele>103</ele>
        <time>2019-06-01T09:00:49Z</time>
      </trkpt>
      <trkpt lat="44.15344" lon="4.59027">
        <ele>103.2</ele>
        <time>2019-06-01T09:00:50Z</time>
      </trkpt>
      <trkpt lat="44.15343" lon="4.59031">
        <ele>103.2</ele>
        <time>2019-06-01T09:00:51Z</time>
      </trkpt>
      <trkpt lat="44.15343" lon="4.59035">
        <ele>103.3</ele>
        <time>2019-06-01T09:00:52Z</time>
      </trkpt>
      <trkpt lat="44.15342" lon="4.59039">
        <ele>103.7</ele>
        <time>2019-06-01T09:00:53Z</time>
      </trkpt>
      <trkpt lat="44.15341" lon="4.59042">
        <ele>103.9</ele>
        <time>2019-06-01T09:00:54Z</time>
      </trkpt>
      <trkpt lat="44.1534" lon="4.59049">
        <ele>104.1</ele>
        <time>2019-06-01T09:00:56Z</time>
      </trkpt>
      <trkpt lat="44.15339" lon="4.59056">
        <ele>104.2</ele>
        <time>2019-06-01T09:00:58Z</time>
      </trkpt>
      <trkpt lat="44.15338" lon="4.59062">
        <ele>104.6</ele>
        <time>2019-06-01T09:01:00Z</time>
      </trkpt>
      <trkpt lat="44.15337" lon="4.59065">
        <ele>104.6</ele>
        <time>2019-06-01T09:01:01Z</time>
      </trkpt>
      <trkpt lat="44.15336" lon="4.59072">
        <ele>104.9</ele>
        <time>2019-06-01T09:01:03Z</time>
      </trkpt>
      <trkpt lat="44.15334" lon="4.59079">
        <ele>105</ele>
        <time>2019-06-01T09:01:05Z</time>
      </trkpt>
      <trkpt lat="44.15332" lon="4.59086">
        <ele>105.2</ele>
        <time>2019-06-01T09:01:07Z</time>
      </trkpt>
      <trkpt lat="44.15332" lon="4.5909">
        <ele>105.2</ele>
        <time>2019-06-01T09:01:08Z</time>
      </trkpt>
      <trkpt lat="44.15331" lon="4.59097">
        <ele>105.3</ele>
        <time>2019-06-01T09:01:10Z</time>
      </trkpt>
      <trkpt lat="44.1533" lon="4.59104">
        <ele>105.3</ele>
        <time>2019-06-01T09:01:12Z</time>
      </trkpt>
      <trkpt lat="44.15329" lon="4.59111">
        <ele>105.6</ele>
        <time>2019-06-01T09:01:14Z</time>
      </trkpt>
      <trkpt lat="44.15329" lon="4.59118">
        <ele>105.6</ele>
        <time>2019-06-01T09:01:16Z</time>
      </trkpt>
      <trkpt lat="44.15328" lon="4.59122">
        <ele>105.6</ele>
        <time>2019-06-01T09:01:17Z</time>
      </trkpt>
      <trkpt lat="44.15327" lon="4.59129">
        <ele>105.6</ele>
        <time>2019-06-01T09:01:19Z</time>
      </trkpt>
      <trkpt lat="44.15326" lon="4.59135">
        <ele>105.8</ele>
        <time>2019-06-01T09:01:21Z</time>
      </trkpt>
      <trkpt lat="44.15325" lon="4.59142">
        <ele>105.7</ele>
        <time>2019-06-01T09:01:23Z</time>
      </trkpt>
      <trkpt lat="44.15324" lon="4.59148">
        <ele>105.5</ele>
        <time>2019-06-01T09:01:25Z</time>
      </trkpt>
      <trkpt lat="44.15321" lon="4.59153">
        <ele>105.6</ele>
        <time>2019-06-01T09:01:27Z</time>
      </trkpt>
      <trkpt lat="44.15318" lon="4.59157">
        <ele>105.6</ele>
        <time>2019-06-01T09:01:29Z</time>
      </trkpt>
      <trkpt lat="44.15316" lon="4.59161">
        <ele>105.4</ele>
        <time>2019-06-01T09:01:31Z</time>
      </trkpt>
      <trkpt lat="44.15315" lon="4.59164">
        <ele>105.2</ele>
        <time>2019-06-01T09:01:36Z</time>
      </trkpt>
      <trkpt lat="44.15318" lon="4.59164">
        <ele>105</ele>
        <time>2019-06-01T09:02:03Z</time>
      </trkpt>
      <trkpt lat="44.15323" lon="4.59166">
        <ele>104.8</ele>
        <time>2019-06-01T09:02:05Z</time>
      </trkpt>
      <trkpt lat="44.15325" lon="4.59169">
        <ele>104.7</ele>
        <time>2019-06-01T09:02:06Z</time>
      </trkpt>
      <trkpt lat="44.15329" lon="4.59171">
        <ele>104.5</ele>
        <time>2019-06-01T09:02:07Z</time>
      </trkpt>
      <trkpt lat="44.15333" lon="4.59173">
        <ele>104.3</ele>
        <time>2019-06-01T09:02:08Z</time>
      </trkpt>
      <trkpt lat="44.15337" lon="4.59174">
        <ele>104</ele>
        <time>2019-06-01T09:02:09Z</time>
      </trkpt>
      <trkpt lat="44.15342" lon="4.59175">
        <ele>103.8</ele>
        <time>2019-06-01T09:02:10Z</time>
      </trkpt>
      <trkpt lat="44.15345" lon="4.59175">
        <ele>103.5</ele>
        <time>2019-06-01T09:02:11Z</time>
      </trkpt>
      <trkpt lat="44.15349" lon="4.59175">
        <ele>103.2</ele>
        <time>2019-06-01T09:02:12Z</time>
      </trkpt>
      <trkpt lat="44.15354" lon="4.59175">
        <ele>102.8</ele>
        <time>2019-06-01T09:02:13Z</time>
      </trkpt>
      <trkpt lat="44.15358" lon="4.59175">
        <ele>102.5</ele>
        <time>2019-06-01T09:02:14Z</time>
      </trkpt>
      <trkpt lat="44.15362" lon="4.59176">
        <ele>102.2</ele>
        <time>2019-06-01T09:02:15Z</time>
      </trkpt>
      <trkpt lat="44.15366" lon="4.59176">
        <ele>101.9</ele>
        <time>2019-06-01T09:02:16Z</time>
      </trkpt>
      <trkpt lat="44.15369" lon="4.59177">
        <ele>101.6</ele>
        <time>2019-06-01T09:02:17Z</time>
      </trkpt>
      <trkpt lat="44.15373" lon="4.59177">
        <ele>101.3</ele>
        <time>2019-06-01T09:02:18Z</time>
      </trkpt>
      <trkpt lat="44.15376" lon="4.59176">
        <ele>101.1</ele>
        <time>2019-06-01T09:02:19Z</time>
      </trkpt>
      <trkpt lat="44.15379" lon="4.59176">
        <ele>100.9</ele>
        <time>2019-06-01T09:02:20Z</time>
      </trkpt>
      <trkpt lat="44.15382" lon="4.59176">
        <ele>100.7</ele>
        <time>2019-06-01T09:02:21Z</time>
      </trkpt>
      <trkpt lat="44.15386" lon="4.59175">
        <ele>100.6</ele>
        <time>2019-06-01T09:02:22Z</time>
      </trkpt>
      <trkpt lat="44.1539" lon="4.59174">
        <ele>100.3</ele>
        <time>2019-06-01T09:02:23Z</time>
      </trkpt>
      <trkpt lat="44.15398" lon="4.59171">
        <ele>99.9</ele>
        <time>2019-06-01T09:02:24Z</time>
      </trkpt>
      <trkpt lat="44.15404" lon="4.59172">
        <ele>99.6</ele>
        <time>2019-06-01T09:02:25Z</time>
      </trkpt>
      <trkpt lat="44.15408" lon="4.59175">
        <ele>99.4</ele>
        <time>2019-06-01T09:02:26Z</time>
      </trkpt>
      <trkpt lat="44.15412" lon="4.59175">
        <ele>99.2</ele>
        <time>2019-06-01T09:02:27Z</time>
      </trkpt>
      <trkpt lat="44.15415" lon="4.59174">
        <ele>99</ele>
        <time>2019-06-01T09:02:28Z</time>
      </trkpt>
      <trkpt lat="44.15418" lon="4.59172">
        <ele>98.9</ele>
        <time>2019-06-01T09:02:29Z</time>
      </trkpt>
      <trkpt lat="44.15422" lon="4.59168">
        <ele>98.7</ele>
        <time>2019-06-01T09:02:30Z</time>
      </trkpt>
      <trkpt lat="44.15428" lon="4.59167">
        <ele>98.4</ele>
        <time>2019-06-01T09:02:32Z</time>
      </trkpt>
      <trkpt lat="44.1543" lon="4.59168">
        <ele>98.3</ele>
        <time>2019-06-01T09:02:33Z</time>
      </trkpt>
      <trkpt lat="44.15435" lon="4.59167">
        <ele>98.1</ele>
        <time>2019-06-01T09:02:34Z</time>
      </trkpt>
      <trkpt lat="44.1544" lon="4.59167">
        <ele>97.9</ele>
        <time>2019-06-01T09:02:35Z</time>
      </trkpt>
      <trkpt lat="44.15445" lon="4.59169">
        <ele>97.7</ele>
        <time>2019-06-01T09:02:36Z</time>
      </trkpt>
      <trkpt lat="44.15451" lon="4.59169">
        <ele>97.4</ele>
        <time>2019-06-01T09:02:37Z</time>
      </trkpt>
      <trkpt lat="44.15457" lon="4.59168">
        <ele>97</ele>
        <time>2019-06-01T09:02:38Z</time>
      </trkpt>
      <trkpt lat="44.15461" lon="4.59167">
        <ele>96.6</ele>
        <time>2019-06-01T09:02:39Z</time>
      </trkpt>
      <trkpt lat="44.15465" lon="4.59166">
        <ele>96.3</ele>
        <time>2019-06-01T09:02:40Z</time>
      </trkpt>
      <trkpt lat="44.15468" lon="4.59165">
        <ele>96</ele>
        <time>2019-06-01T09:02:41Z</time>
      </trkpt>
      <trkpt lat="44.15472" lon="4.59163">
        <ele>95.8</ele>
        <time>2019-06-01T09:02:42Z</time>
      </trkpt>
      <trkpt lat="44.15478" lon="4.5916">
        <ele>95.4</ele>
        <time>2019-06-01T09:02:43Z</time>
      </trkpt>
      <trkpt lat="44.15482" lon="4.59158">
        <ele>95.1</ele>
        <time>2019-06-01T09:02:44Z</time>
      </trkpt>
      <trkpt lat="44.15486" lon="4.59161">
        <ele>94.8</ele>
        <time>2019-06-01T09:02:45Z</time>
      </trkpt>
      <trkpt lat="44.1549" lon="4.59163">
        <ele>94.3</ele>
        <time>2019-06-01T09:02:46Z</time>
      </trkpt>
      <trkpt lat="44.15493" lon="4.59163">
        <ele>93.9</ele>
        <time>2019-06-01T09:02:47Z</time>
      </trkpt>
      <trkpt lat="44.15496" lon="4.59163">
        <ele>93.6</ele>
        <time>2019-06-01T09:02:51Z</time>
      </trkpt>
      <trkpt lat="44.15499" lon="4.59161">
        <ele>93.3</ele>
        <time>2019-06-01T09:03:03Z</time>
      </trkpt>
      <trkpt lat="44.15501" lon="4.59156">
        <ele>93</ele>
        <time>2019-06-01T09:03:06Z</time>
      </trkpt>
      <trkpt lat="44.15503" lon="4.59154">
        <ele>92.8</ele>
        <time>2019-06-01T09:03:09Z</time>
      </trkpt>
      <trkpt lat="44.15505" lon="4.59151">
        <ele>92.5</ele>
        <time>2019-06-01T09:03:11Z</time>
      </trkpt>
      <trkpt lat="44.1551" lon="4.5915">
        <ele>92.1</ele>
        <time>2019-06-01T09:03:13Z</time>
      </trkpt>
      <trkpt lat="44.15512" lon="4.59151">
        <ele>91.9</ele>
        <time>2019-06-01T09:03:14Z</time>
      </trkpt>
      <trkpt lat="44.15515" lon="4.59153">
        <ele>91.6</ele>
        <time>2019-06-01T09:03:15Z</time>
      </trkpt>
      <trkpt lat="44.15519" lon="4.59156">
        <ele>91.2</ele>
        <time>2019-06-01T09:03:17Z</time>
      </trkpt>
      <trkpt lat="44.15522" lon="4.59155">
        <ele>90.8</ele>
        <time>2019-06-01T09:03:20Z</time>
      </trkpt>
      <trkpt lat="44.15526" lon="4.59157">
        <ele>90.3</ele>
        <time>2019-06-01T09:03:23Z</time>
      </trkpt>
      <trkpt lat="44.1553" lon="4.59158">
        <ele>89.9</ele>
        <time>2019-06-01T09:03:25Z</time>
      </trkpt>
      <trkpt lat="44.15533" lon="4.5916">
        <ele>89.5</ele>
        <time>2019-06-01T09:03:27Z</time>
      </trkpt>
      <trkpt lat="44.15536" lon="4.59158">
        <ele>89.2</ele>
        <time>2019-06-01T09:03:30Z</time>
      </trkpt>
      <trkpt lat="44.15539" lon="4.59155">
        <ele>88.9</ele>
        <time>2019-06-01T09:03:32Z</time>
      </trkpt>
      <trkpt lat="44.15541" lon="4.59154">
        <ele>88.7</ele>
        <time>2019-06-01T09:03:38Z</time>
      </trkpt>
      <trkpt lat="44.15544" lon="4.59158">
        <ele>88.6</ele>
        <time>2019-06-01T09:03:40Z</time>
      </trkpt>
      <trkpt lat="44.15546" lon="4.5916">
        <ele>88.4</ele>
        <time>2019-06-01T09:03:41Z</time>
      </trkpt>
      <trkpt lat="44.1555" lon="4.59163">
        <ele>88.3</ele>
        <time>2019-06-01T09:03:42Z</time>
      </trkpt>
      <trkpt lat="44.15553" lon="4.59165">
        <ele>88.3</ele>
        <time>2019-06-01T09:03:43Z</time>
      </trkpt>
      <trkpt lat="44.15555" lon="4.59167">
        <ele>88.3</ele>
        <time>2019-06-01T09:03:44Z</time>
      </trkpt>
      <trkpt lat="44.15558" lon="4.59168">
        <ele>88.3</ele>
        <time>2019-06-01T09:03:45Z</time>
      </trkpt>
      <trkpt lat="44.15562" lon="4.5917">
        <ele>88.2</ele>
        <time>2019-06-01T09:03:46Z</time>
      </trkpt>
      <trkpt lat="44.15566" lon="4.59171">
        <ele>88.2</ele>
        <time>2019-06-01T09:03:47Z</time>
      </trkpt>
      <trkpt lat="44.1557" lon="4.59173">
        <ele>88.2</ele>
        <time>2019-06-01T09:03:48Z</time>
      </trkpt>
      <trkpt lat="44.15573" lon="4.59174">
        <ele>88.2</ele>
        <time>2019-06-01T09:03:49Z</time>
      </trkpt>
      <trkpt lat="44.15576" lon="4.59176">
        <ele>88.3</ele>
        <time>2019-06-01T09:03:50Z</time>
      </trkpt>
      <trkpt lat="44.15579" lon="4.59179">
        <ele>88.3</ele>
        <time>2019-06-01T09:03:51Z</time>
      </trkpt>
      <trkpt lat="44.15583" lon="4.59182">
        <ele>88.3</ele>
        <time>2019-06-01T09:03:52Z</time>
      </trkpt>
      <trkpt lat="44.15587" lon="4.59184">
        <ele>88.4</ele>
        <time>2019-06-01T09:03:53Z</time>
      </trkpt>
      <trkpt lat="44.15591" lon="4.59186">
        <ele>88.5</ele>
        <time>2019-06-01T09:03:54Z</time>
      </trkpt>
      <trkpt lat="44.15595" lon="4.59189">
        <ele>88.5</ele>
        <time>2019-06-01T09:03:55Z</time>
      </trkpt>
      <trkpt lat="44.15599" lon="4.59191">
        <ele>88.6</ele>
        <time>2019-06-01T09:03:56Z</time>
      </trkpt>
      <trkpt lat="44.15603" lon="4.59193">
        <ele>88.7</ele>
        <time>2019-06-01T09:03:57Z</time>
      </trkpt>
      <trkpt lat="44.15607" lon="4.59195">
        <ele>88.8</ele>
        <time>2019-06-01T09:03:58Z</time>
      </trkpt>
      <trkpt lat="44.1561" lon="4.59197">
        <ele>88.9</ele>
        <time>2019-06-01T09:03:59Z</time>
      </trkpt>
      <trkpt lat="44.15614" lon="4.59199">
        <ele>89</ele>
        <time>2019-06-01T09:04:00Z</time>
      </trkpt>
      <trkpt lat="44.15618" lon="4.59201">
        <ele>89.1</ele>
        <time>2019-06-01T09:04:01Z</time>
      </trkpt>
      <trkpt lat="44.15622" lon="4.59203">
        <ele>89.2</ele>
        <time>2019-06-01T09:04:02Z</time>
      </trkpt>
      <trkpt lat="44.15626" lon="4.59206">
        <ele>89.3</ele>
        <time>2019-06-01T09:04:03Z</time>
      </trkpt>
      <trkpt lat="44.15629" lon="4.59209">
        <ele>89.5</ele>
        <time>2019-06-01T09:04:04Z</time>
      </trkpt>
      <trkpt lat="44.15632" lon="4.59212">
        <ele>89.6</ele>
        <time>2019-06-01T09:04:05Z</time>
      </trkpt>
      <trkpt lat="44.15635" lon="4.59215">
        <ele>89.7</ele>
        <time>2019-06-01T09:04:06Z</time>
      </trkpt>
      <trkpt lat="44.15638" lon="4.59218">
        <ele>89.8</ele>
        <time>2019-06-01T09:04:07Z</time>
      </trkpt>
      <trkpt lat="44.15642" lon="4.59221">
        <ele>90</ele>
        <time>2019-06-01T09:04:08Z</time>
      </trkpt>
      <trkpt lat="44.15645" lon="4.59224">
        <ele>90.2</ele>
        <time>2019-06-01T09:04:09Z</time>
      </trkpt>
      <trkpt lat="44.15649" lon="4.59226">
        <ele>90.3</ele>
        <time>2019-06-01T09:04:10Z</time>
      </trkpt>
      <trkpt lat="44.15652" lon="4.59228">
        <ele>90.5</ele>
        <time>2019-06-01T09:04:11Z</time>
      </trkpt>
      <trkpt lat="44.15655" lon="4.59229">
        <ele>90.6</ele>
        <time>2019-06-01T09:04:12Z</time>
      </trkpt>
      <trkpt lat="44.15658" lon="4.59231">
        <ele>90.7</ele>
        <time>2019-06-01T09:04:13Z</time>
      </trkpt>
      <trkpt lat="44.15662" lon="4.59234">
        <ele>90.9</ele>
        <time>2019-06-01T09:04:14Z</time>
      </trkpt>
      <trkpt lat="44.15666" lon="4.59236">
        <ele>91</ele>
        <time>2019-06-01T09:04:15Z</time>
      </trkpt>
      <trkpt lat="44.1567" lon="4.59239">
        <ele>91.2</ele>
        <time>2019-06-01T09:04:16Z</time>
      </trkpt>
      <trkpt lat="44.15673" lon="4.59241">
        <ele>91.3</ele>
        <time>2019-06-01T09:04:17Z</time>
      </trkpt>
      <trkpt lat="44.15677" lon="4.59244">
        <ele>91.4</ele>
        <time>2019-06-01T09:04:18Z</time>
      </trkpt>
      <trkpt lat="44.1568" lon="4.59248">
        <ele>91.5</ele>
        <time>2019-06-01T09:04:19Z</time>
      </trkpt>
      <trkpt lat="44.15683" lon="4.5925">
        <ele>91.6</ele>
        <time>2019-06-01T09:04:20Z</time>
      </trkpt>
      <trkpt lat="44.15686" lon="4.59253">
        <ele>91.7</ele>
        <time>2019-06-01T09:04:21Z</time>
      </trkpt>
      <trkpt lat="44.15688" lon="4.59256">
        <ele>91.7</ele>
        <time>2019-06-01T09:04:22Z</time>
      </trkpt>
      <trkpt lat="44.15692" lon="4.59258">
        <ele>91.8</ele>
        <time>2019-06-01T09:04:23Z</time>
      </trkpt>
      <trkpt lat="44.15695" lon="4.59261">
        <ele>91.8</ele>
        <time>2019-06-01T09:04:24Z</time>
      </trkpt>
      <trkpt lat="44.15698" lon="4.59263">
        <ele>91.9</ele>
        <time>2019-06-01T09:04:25Z</time>
      </trkpt>
      <trkpt lat="44.15701" lon="4.59265">
        <ele>91.9</ele>
        <time>2019-06-01T09:04:26Z</time>
      </trkpt>
      <trkpt lat="44.15704" lon="4.59267">
        <ele>91.9</ele>
        <time>2019-06-01T09:04:27Z</time>
      </trkpt>
      <trkpt lat="44.15708" lon="4.5927">
        <ele>92</ele>
        <time>2019-06-01T09:04:28Z</time>
      </trkpt>
      <trkpt lat="44.15712" lon="4.59273">
        <ele>92</ele>
        <time>2019-06-01T09:04:29Z</time>
      </trkpt>
      <trkpt lat="44.15715" lon="4.59276">
        <ele>92</ele>
        <time>2019-06-01T09:04:30Z</time>
      </trkpt>
      <trkpt lat="44.15719" lon="4.59279">
        <ele>92</ele>
        <time>2019-06-01T09:04:31Z</time>
      </trkpt>
      <trkpt lat="44.15722" lon="4.59283">
        <ele>92.1</ele>
        <time>2019-06-01T09:04:32Z</time>
      </trkpt>
      <trkpt lat="44.15725" lon="4.59285">
        <ele>92.1</ele>
        <time>2019-06-01T09:04:33Z</time>
      </trkpt>
      <trkpt lat="44.15728" lon="4.59287">
        <ele>92.1</ele>
        <time>2019-06-01T09:04:34Z</time>
      </trkpt>
      <trkpt lat="44.15732" lon="4.59291">
        <ele>92.1</ele>
        <time>2019-06-01T09:04:36Z</time>
      </trkpt>
      <trkpt lat="44.15733" lon="4.59293">
        <ele>92.1</ele>
        <time>2019-06-01T09:04:38Z</time>
      </trkpt>
      <trkpt lat="44.15734" lon="4.59298">
        <ele>92</ele>
        <time>2019-06-01T09:04:40Z</time>
      </trkpt>
      <trkpt lat="44.15735" lon="4.59303">
        <ele>92</ele>
        <time>2019-06-01T09:04:42Z</time>
      </trkpt>
      <trkpt lat="44.15736" lon="4.59309">
        <ele>92</ele>
        <time>2019-06-01T09:04:44Z</time>
      </trkpt>
      <trkpt lat="44.15737" lon="4.59314">
        <ele>91.9</ele>
        <time>2019-06-01T09:04:46Z</time>
      </trkpt>
      <trkpt lat="44.15739" lon="4.59321">
        <ele>91.6</ele>
        <time>2019-06-01T09:04:48Z</time>
      </trkpt>
      <trkpt lat="44.1574" lon="4.59325">
        <ele>91.4</ele>
        <time>2019-06-01T09:04:49Z</time>
      </trkpt>
      <trkpt lat="44.15741" lon="4.5933">
        <ele>91.2</ele>
        <time>2019-06-01T09:04:50Z</time>
      </trkpt>
      <trkpt lat="44.15741" lon="4.59334">
        <ele>91.1</ele>
        <time>2019-06-01T09:04:51Z</time>
      </trkpt>
      <trkpt lat="44.15742" lon="4.59338">
        <ele>90.9</ele>
        <time>2019-06-01T09:04:52Z</time>
      </trkpt>
      <trkpt lat="44.15743" lon="4.59343">
        <ele>90.8</ele>
        <time>2019-06-01T09:04:53Z</time>
      </trkpt>
      <trkpt lat="44.15748" lon="4.59353">
        <ele>90.4</ele>
        <time>2019-06-01T09:04:54Z</time>
      </trkpt>
      <trkpt lat="44.15752" lon="4.59359">
        <ele>90</ele>
        <time>2019-06-01T09:04:56Z</time>
      </trkpt>
      <trkpt lat="44.15755" lon="4.59362">
        <ele>89.8</ele>
        <time>2019-06-01T09:04:57Z</time>
      </trkpt>
      <trkpt lat="44.15758" lon="4.59366">
        <ele>89.7</ele>
        <time>2019-06-01T09:04:58Z</time>
      </trkpt>
      <trkpt lat="44.15762" lon="4.5937">
        <ele>89.5</ele>
        <time>2019-06-01T09:04:59Z</time>
      </trkpt>
      <trkpt lat="44.15764" lon="4.59374">
        <ele>89.4</ele>
        <time>2019-06-01T09:05:00Z</time>
      </trkpt>
      <trkpt lat="44.15769" lon="4.59379">
        <ele>89.2</ele>
        <time>2019-06-01T09:05:01Z</time>
      </trkpt>
      <trkpt lat="44.15773" lon="4.59382">
        <ele>89.1</ele>
        <time>2019-06-01T09:05:02Z</time>
      </trkpt>
      <trkpt lat="44.15777" lon="4.59389">
        <ele>88.9</ele>
        <time>2019-06-01T09:05:04Z</time>
      </trkpt>
      <trkpt lat="44.15782" lon="4.59394">
        <ele>88.8</ele>
        <time>2019-06-01T09:05:05Z</time>
      </trkpt>
      <trkpt lat="44.15788" lon="4.59397">
        <ele>88.6</ele>
        <time>2019-06-01T09:05:06Z</time>
      </trkpt>
      <trkpt lat="44.15791" lon="4.59398">
        <ele>88.5</ele>
        <time>2019-06-01T09:05:07Z</time>
      </trkpt>
      <trkpt lat="44.15794" lon="4.594">
        <ele>88.5</ele>
        <time>2019-06-01T09:05:08Z</time>
      </trkpt>
      <trkpt lat="44.15797" lon="4.59403">
        <ele>88.4</ele>
        <time>2019-06-01T09:05:09Z</time>
      </trkpt>
      <trkpt lat="44.158" lon="4.59406">
        <ele>88.4</ele>
        <time>2019-06-01T09:05:10Z</time>
      </trkpt>
      <trkpt lat="44.15804" lon="4.59408">
        <ele>88.3</ele>
        <time>2019-06-01T09:05:11Z</time>
      </trkpt>
      <trkpt lat="44.15807" lon="4.59411">
        <ele>88.2</ele>
        <time>2019-06-01T09:05:12Z</time>
      </trkpt>
      <trkpt lat="44.15811" lon="4.59414">
        <ele>88.2</ele>
        <time>2019-06-01T09:05:13Z</time>
      </trkpt>
      <trkpt lat="44.15813" lon="4.59417">
        <ele>88.2</ele>
        <time>2019-06-01T09:05:14Z</time>
      </trkpt>
      <trkpt lat="44.15816" lon="4.59418">
        <ele>88.1</ele>
        <time>2019-06-01T09:05:15Z</time>
      </trkpt>
      <trkpt lat="44.15821" lon="4.59421">
        <ele>88.1</ele>
        <time>2019-06-01T09:05:16Z</time>
      </trkpt>
      <trkpt lat="44.15825" lon="4.59425">
        <ele>88</ele>
        <time>2019-06-01T09:05:17Z</time>
      </trkpt>
      <trkpt lat="44.15829" lon="4.59428">
        <ele>88</ele>
        <time>2019-06-01T09:05:18Z</time>
      </trkpt>
      <trkpt lat="44.15834" lon="4.5943">
        <ele>88</ele>
        <time>2019-06-01T09:05:19Z</time>
      </trkpt>
      <trkpt lat="44.15841" lon="4.59436">
        <ele>88</ele>
        <time>2019-06-01T09:05:20Z</time>
      </trkpt>
      <trkpt lat="44.15846" lon="4.5944">
        <ele>88</ele>
        <time>2019-06-01T09:05:21Z</time>
      </trkpt>
      <trkpt lat="44.15849" lon="4.59443">
        <ele>88</ele>
        <time>2019-06-01T09:05:22Z</time>
      </trkpt>
      <trkpt lat="44.15851" lon="4.59447">
        <ele>87.9</ele>
        <time>2019-06-01T09:05:23Z</time>
      </trkpt>
      <trkpt lat="44.15856" lon="4.59451">
        <ele>87.9</ele>
        <time>2019-06-01T09:05:24Z</time>
      </trkpt>
      <trkpt lat="44.15859" lon="4.59456">
        <ele>87.9</ele>
        <time>2019-06-01T09:05:25Z</time>
      </trkpt>
      <trkpt lat="44.15863" lon="4.59459">
        <ele>87.9</ele>
        <time>2019-06-01T09:05:26Z</time>
      </trkpt>
      <trkpt lat="44.15871" lon="4.59467">
        <ele>87.9</ele>
        <time>2019-06-01T09:05:27Z</time>
      </trkpt>
      <trkpt lat="44.15876" lon="4.59469">
        <ele>87.9</ele>
        <time>2019-06-01T09:05:28Z</time>
      </trkpt>
      <trkpt lat="44.1588" lon="4.59472">
        <ele>87.9</ele>
        <time>2019-06-01T09:05:29Z</time>
      </trkpt>
      <trkpt lat="44.15883" lon="4.59473">
        <ele>87.9</ele>
        <time>2019-06-01T09:05:30Z</time>
      </trkpt>
      <trkpt lat="44.15887" lon="4.59476">
        <ele>87.9</ele>
        <time>2019-06-01T09:05:31Z</time>
      </trkpt>
      <trkpt lat="44.1589" lon="4.59483">
        <ele>87.9</ele>
        <time>2019-06-01T09:05:32Z</time>
      </trkpt>
      <trkpt lat="44.15893" lon="4.59485">
        <ele>87.9</ele>
        <time>2019-06-01T09:05:33Z</time>
      </trkpt>
      <trkpt lat="44.15895" lon="4.59489">
        <ele>87.9</ele>
        <time>2019-06-01T09:05:34Z</time>
      </trkpt>
      <trkpt lat="44.15899" lon="4.59488">
        <ele>87.9</ele>
        <time>2019-06-01T09:05:35Z</time>
      </trkpt>
      <trkpt lat="44.15903" lon="4.5949">
        <ele>88</ele>
        <time>2019-06-01T09:05:36Z</time>
      </trkpt>
      <trkpt lat="44.15909" lon="4.59496">
        <ele>88</ele>
        <time>2019-06-01T09:05:37Z</time>
      </trkpt>
      <trkpt lat="44.15913" lon="4.59499">
        <ele>88.1</ele>
        <time>2019-06-01T09:05:38Z</time>
      </trkpt>
      <trkpt lat="44.15916" lon="4.59502">
        <ele>88.1</ele>
        <time>2019-06-01T09:05:39Z</time>
      </trkpt>
      <trkpt lat="44.15919" lon="4.59505">
        <ele>88.2</ele>
        <time>2019-06-01T09:05:40Z</time>
      </trkpt>
      <trkpt lat="44.15922" lon="4.59509">
        <ele>88.2</ele>
        <time>2019-06-01T09:05:41Z</time>
      </trkpt>
      <trkpt lat="44.15926" lon="4.59514">
        <ele>88.3</ele>
        <time>2019-06-01T09:05:42Z</time>
      </trkpt>
      <trkpt lat="44.1593" lon="4.59517">
        <ele>88.4</ele>
        <time>2019-06-01T09:05:43Z</time>
      </trkpt>
      <trkpt lat="44.15933" lon="4.5952">
        <ele>88.5</ele>
        <time>2019-06-01T09:05:44Z</time>
      </trkpt>
      <trkpt lat="44.15937" lon="4.59523">
        <ele>88.6</ele>
        <time>2019-06-01T09:05:45Z</time>
      </trkpt>
      <trkpt lat="44.15941" lon="4.59527">
        <ele>88.7</ele>
        <time>2019-06-01T09:05:46Z</time>
      </trkpt>
      <trkpt lat="44.15945" lon="4.59532">
        <ele>88.9</ele>
        <time>2019-06-01T09:05:47Z</time>
      </trkpt>
      <trkpt lat="44.15949" lon="4.59537">
        <ele>89.1</ele>
        <time>2019-06-01T09:05:48Z</time>
      </trkpt>
      <trkpt lat="44.15953" lon="4.59542">
        <ele>89.3</ele>
        <time>2019-06-01T09:05:49Z</time>
      </trkpt>
      <trkpt lat="44.15956" lon="4.59546">
        <ele>89.5</ele>
        <time>2019-06-01T09:05:50Z</time>
      </trkpt>
      <trkpt lat="44.15958" lon="4.5955">
        <ele>89.6</ele>
        <time>2019-06-01T09:05:51Z</time>
      </trkpt>
      <trkpt lat="44.15961" lon="4.59554">
        <ele>89.8</ele>
        <time>2019-06-01T09:05:52Z</time>
      </trkpt>
      <trkpt lat="44.15963" lon="4.59557">
        <ele>89.9</ele>
        <time>2019-06-01T09:05:53Z</time>
      </trkpt>
      <trkpt lat="44.15965" lon="4.5956">
        <ele>90</ele>
        <time>2019-06-01T09:05:54Z</time>
      </trkpt>
      <trkpt lat="44.15967" lon="4.59563">
        <ele>90.1</ele>
        <time>2019-06-01T09:05:55Z</time>
      </trkpt>
      <trkpt lat="44.1597" lon="4.59567">
        <ele>90.2</ele>
        <time>2019-06-01T09:05:56Z</time>
      </trkpt>
      <trkpt lat="44.15973" lon="4.59573">
        <ele>90.3</ele>
        <time>2019-06-01T09:05:57Z</time>
      </trkpt>
      <trkpt lat="44.15976" lon="4.59578">
        <ele>90.4</ele>
        <time>2019-06-01T09:05:58Z</time>
      </trkpt>
      <trkpt lat="44.15979" lon="4.59584">
        <ele>90.5</ele>
        <time>2019-06-01T09:05:59Z</time>
      </trkpt>
      <trkpt lat="44.15981" lon="4.59589">
        <ele>90.6</ele>
        <time>2019-06-01T09:06:00Z</time>
      </trkpt>
      <trkpt lat="44.15983" lon="4.59594">
        <ele>90.6</ele>
        <time>2019-06-01T09:06:01Z</time>
      </trkpt>
      <trkpt lat="44.15985" lon="4.59599">
        <ele>90.6</ele>
        <time>2019-06-01T09:06:02Z</time>
      </trkpt>
      <trkpt lat="44.15986" lon="4.59604">
        <ele>90.6</ele>
        <time>2019-06-01T09:06:03Z</time>
      </trkpt>
      <trkpt lat="44.15988" lon="4.59609">
        <ele>90.7</ele>
        <time>2019-06-01T09:06:05Z</time>
      </trkpt>
      <trkpt lat="44.15989" lon="4.59615">
        <ele>90.7</ele>
        <time>2019-06-01T09:06:07Z</time>
      </trkpt>
      <trkpt lat="44.15987" lon="4.5962">
        <ele>90.7</ele>
        <time>2019-06-01T09:06:09Z</time>
      </trkpt>
      <trkpt lat="44.15986" lon="4.59625">
        <ele>90.7</ele>
        <time>2019-06-01T09:06:12Z</time>
      </trkpt>
      <trkpt lat="44.15987" lon="4.59631">
        <ele>90.7</ele>
        <time>2019-06-01T09:06:14Z</time>
      </trkpt>
      <trkpt lat="44.15989" lon="4.59626">
        <ele>90.6</ele>
        <time>2019-06-01T09:06:17Z</time>
      </trkpt>
      <trkpt lat="44.15987" lon="4.59619">
        <ele>90.6</ele>
        <time>2019-06-01T09:06:19Z</time>
      </trkpt>
      <trkpt lat="44.15986" lon="4.59615">
        <ele>90.6</ele>
        <time>2019-06-01T09:06:20Z</time>
      </trkpt>
      <trkpt lat="44.15985" lon="4.59611">
        <ele>90.6</ele>
        <time>2019-06-01T09:06:21Z</time>
      </trkpt>
      <trkpt lat="44.15984" lon="4.59607">
        <ele>90.5</ele>
        <time>2019-06-01T09:06:22Z</time>
      </trkpt>
      <trkpt lat="44.15982" lon="4.59602">
        <ele>90.4</ele>
        <time>2019-06-01T09:06:23Z</time>
      </trkpt>
      <trkpt lat="44.15981" lon="4.59597">
        <ele>90.4</ele>
        <time>2019-06-01T09:06:24Z</time>
      </trkpt>
      <trkpt lat="44.15979" lon="4.59592">
        <ele>90.3</ele>
        <time>2019-06-01T09:06:25Z</time>
      </trkpt>
      <trkpt lat="44.15977" lon="4.59587">
        <ele>90.2</ele>
        <time>2019-06-01T09:06:26Z</time>
      </trkpt>
      <trkpt lat="44.15975" lon="4.59584">
        <ele>90.1</ele>
        <time>2019-06-01T09:06:27Z</time>
      </trkpt>
      <trkpt lat="44.15972" lon="4.59579">
        <ele>90</ele>
        <time>2019-06-01T09:06:28Z</time>
      </trkpt>
      <trkpt lat="44.1597" lon="4.59574">
        <ele>89.9</ele>
        <time>2019-06-01T09:06:29Z</time>
      </trkpt>
      <trkpt lat="44.15968" lon="4.59569">
        <ele>89.8</ele>
        <time>2019-06-01T09:06:30Z</time>
      </trkpt>
      <trkpt lat="44.15967" lon="4.59563">
        <ele>89.6</ele>
        <time>2019-06-01T09:06:31Z</time>
      </trkpt>
      <trkpt lat="44.15964" lon="4.59557">
        <ele>89.5</ele>
        <time>2019-06-01T09:06:32Z</time>
      </trkpt>
      <trkpt lat="44.15962" lon="4.5955">
        <ele>89.2</ele>
        <time>2019-06-01T09:06:33Z</time>
      </trkpt>
      <trkpt lat="44.15958" lon="4.59545">
        <ele>89</ele>
        <time>2019-06-01T09:06:34Z</time>
      </trkpt>
      <trkpt lat="44.15954" lon="4.5954">
        <ele>88.8</ele>
        <time>2019-06-01T09:06:35Z</time>
      </trkpt>
      <trkpt lat="44.15949" lon="4.59535">
        <ele>88.7</ele>
        <time>2019-06-01T09:06:36Z</time>
      </trkpt>
      <trkpt lat="44.15948" lon="4.5953">
        <ele>88.6</ele>
        <time>2019-06-01T09:06:37Z</time>
      </trkpt>
      <trkpt lat="44.15943" lon="4.59526">
        <ele>88.5</ele>
        <time>2019-06-01T09:06:38Z</time>
      </trkpt>
      <trkpt lat="44.15939" lon="4.59522">
        <ele>88.3</ele>
        <time>2019-06-01T09:06:39Z</time>
      </trkpt>
      <trkpt lat="44.1593" lon="4.59518">
        <ele>88.2</ele>
        <time>2019-06-01T09:06:40Z</time>
      </trkpt>
      <trkpt lat="44.15926" lon="4.59514">
        <ele>88.2</ele>
        <time>2019-06-01T09:06:41Z</time>
      </trkpt>
      <trkpt lat="44.15921" lon="4.5951">
        <ele>88.1</ele>
        <time>2019-06-01T09:06:42Z</time>
      </trkpt>
      <trkpt lat="44.15915" lon="4.59504">
        <ele>88</ele>
        <time>2019-06-01T09:06:43Z</time>
      </trkpt>
      <trkpt lat="44.1591" lon="4.595">
        <ele>88</ele>
        <time>2019-06-01T09:06:44Z</time>
      </trkpt>
      <trkpt lat="44.15906" lon="4.59496">
        <ele>87.9</ele>
        <time>2019-06-01T09:06:45Z</time>
      </trkpt>
      <trkpt lat="44.15899" lon="4.59491">
        <ele>87.9</ele>
        <time>2019-06-01T09:06:46Z</time>
      </trkpt>
      <trkpt lat="44.15894" lon="4.59488">
        <ele>87.9</ele>
        <time>2019-06-01T09:06:47Z</time>
      </trkpt>
      <trkpt lat="44.15891" lon="4.59482">
        <ele>87.9</ele>
        <time>2019-06-01T09:06:48Z</time>
      </trkpt>
      <trkpt lat="44.15888" lon="4.59478">
        <ele>87.9</ele>
        <time>2019-06-01T09:06:49Z</time>
      </trkpt>
      <trkpt lat="44.15884" lon="4.59474">
        <ele>87.9</ele>
        <time>2019-06-01T09:06:50Z</time>
      </trkpt>
      <trkpt lat="44.1588" lon="4.5947">
        <ele>87.9</ele>
        <time>2019-06-01T09:06:51Z</time>
      </trkpt>
      <trkpt lat="44.15874" lon="4.59466">
        <ele>87.9</ele>
        <time>2019-06-01T09:06:52Z</time>
      </trkpt>
      <trkpt lat="44.1587" lon="4.59461">
        <ele>87.9</ele>
        <time>2019-06-01T09:06:53Z</time>
      </trkpt>
      <trkpt lat="44.15867" lon="4.59458">
        <ele>87.9</ele>
        <time>2019-06-01T09:06:54Z</time>
      </trkpt>
      <trkpt lat="44.15859" lon="4.59454">
        <ele>87.9</ele>
        <time>2019-06-01T09:06:55Z</time>
      </trkpt>
      <trkpt lat="44.15852" lon="4.59453">
        <ele>88</ele>
        <time>2019-06-01T09:06:56Z</time>
      </trkpt>
      <trkpt lat="44.15847" lon="4.59452">
        <ele>88</ele>
        <time>2019-06-01T09:06:57Z</time>
      </trkpt>
      <trkpt lat="44.15843" lon="4.59447">
        <ele>88</ele>
        <time>2019-06-01T09:06:58Z</time>
      </trkpt>
      <trkpt lat="44.15846" lon="4.5944">
        <ele>88</ele>
        <time>2019-06-01T09:06:59Z</time>
      </trkpt>
      <trkpt lat="44.15847" lon="4.59436">
        <ele>88</ele>
        <time>2019-06-01T09:07:00Z</time>
      </trkpt>
      <trkpt lat="44.1585" lon="4.59431">
        <ele>88</ele>
        <time>2019-06-01T09:07:01Z</time>
      </trkpt>
      <trkpt lat="44.15845" lon="4.59424">
        <ele>88</ele>
        <time>2019-06-01T09:07:03Z</time>
      </trkpt>
      <trkpt lat="44.15842" lon="4.59421">
        <ele>88.1</ele>
        <time>2019-06-01T09:07:04Z</time>
      </trkpt>
      <trkpt lat="44.15837" lon="4.59419">
        <ele>88.1</ele>
        <time>2019-06-01T09:07:05Z</time>
      </trkpt>
      <trkpt lat="44.15835" lon="4.59415">
        <ele>88.1</ele>
        <time>2019-06-01T09:07:06Z</time>
      </trkpt>
      <trkpt lat="44.1583" lon="4.5941">
        <ele>88.2</ele>
        <time>2019-06-01T09:07:08Z</time>
      </trkpt>
      <trkpt lat="44.15826" lon="4.59406">
        <ele>88.2</ele>
        <time>2019-06-01T09:07:10Z</time>
      </trkpt>
      <trkpt lat="44.15823" lon="4.59402">
        <ele>88.3</ele>
        <time>2019-06-01T09:07:11Z</time>
      </trkpt>
      <trkpt lat="44.15813" lon="4.59396">
        <ele>88.5</ele>
        <time>2019-06-01T09:07:12Z</time>
      </trkpt>
      <trkpt lat="44.15806" lon="4.59393">
        <ele>88.6</ele>
        <time>2019-06-01T09:07:13Z</time>
      </trkpt>
      <trkpt lat="44.15802" lon="4.59393">
        <ele>88.7</ele>
        <time>2019-06-01T09:07:14Z</time>
      </trkpt>
      <trkpt lat="44.15799" lon="4.59388">
        <ele>88.8</ele>
        <time>2019-06-01T09:07:16Z</time>
      </trkpt>
      <trkpt lat="44.15794" lon="4.59384">
        <ele>88.9</ele>
        <time>2019-06-01T09:07:17Z</time>
      </trkpt>
      <trkpt lat="44.1579" lon="4.5938">
        <ele>89.1</ele>
        <time>2019-06-01T09:07:18Z</time>
      </trkpt>
      <trkpt lat="44.15788" lon="4.59376">
        <ele>89.2</ele>
        <time>2019-06-01T09:07:19Z</time>
      </trkpt>
      <trkpt lat="44.15781" lon="4.59371">
        <ele>89.4</ele>
        <time>2019-06-01T09:07:20Z</time>
      </trkpt>
      <trkpt lat="44.15776" lon="4.59366">
        <ele>89.5</ele>
        <time>2019-06-01T09:07:21Z</time>
      </trkpt>
      <trkpt lat="44.15773" lon="4.59361">
        <ele>89.7</ele>
        <time>2019-06-01T09:07:22Z</time>
      </trkpt>
      <trkpt lat="44.15769" lon="4.59356">
        <ele>90</ele>
        <time>2019-06-01T09:07:23Z</time>
      </trkpt>
      <trkpt lat="44.15767" lon="4.59349">
        <ele>90.2</ele>
        <time>2019-06-01T09:07:24Z</time>
      </trkpt>
      <trkpt lat="44.15763" lon="4.59343">
        <ele>90.5</ele>
        <time>2019-06-01T09:07:25Z</time>
      </trkpt>
      <trkpt lat="44.1576" lon="4.59337">
        <ele>90.7</ele>
        <time>2019-06-01T09:07:26Z</time>
      </trkpt>
      <trkpt lat="44.15757" lon="4.59331">
        <ele>90.9</ele>
        <time>2019-06-01T09:07:27Z</time>
      </trkpt>
      <trkpt lat="44.15755" lon="4.59325">
        <ele>91.2</ele>
        <time>2019-06-01T09:07:28Z</time>
      </trkpt>
      <trkpt lat="44.15752" lon="4.5932">
        <ele>91.4</ele>
        <time>2019-06-01T09:07:29Z</time>
      </trkpt>
      <trkpt lat="44.1575" lon="4.59316">
        <ele>91.6</ele>
        <time>2019-06-01T09:07:30Z</time>
      </trkpt>
      <trkpt lat="44.15748" lon="4.59312">
        <ele>91.8</ele>
        <time>2019-06-01T09:07:31Z</time>
      </trkpt>
      <trkpt lat="44.15745" lon="4.59307">
        <ele>92</ele>
        <time>2019-06-01T09:07:32Z</time>
      </trkpt>
      <trkpt lat="44.15743" lon="4.59303">
        <ele>92</ele>
        <time>2019-06-01T09:07:33Z</time>
      </trkpt>
      <trkpt lat="44.15742" lon="4.59299">
        <ele>92</ele>
        <time>2019-06-01T09:07:34Z</time>
      </trkpt>
      <trkpt lat="44.1574" lon="4.59295">
        <ele>92</ele>
        <time>2019-06-01T09:07:35Z</time>
      </trkpt>
      <trkpt lat="44.15739" lon="4.59291">
        <ele>92</ele>
        <time>2019-06-01T09:07:36Z</time>
      </trkpt>
      <trkpt lat="44.15737" lon="4.59287">
        <ele>92.1</ele>
        <time>2019-06-01T09:07:37Z</time>
      </trkpt>
      <trkpt lat="44.15736" lon="4.59283">
        <ele>92.1</ele>
        <time>2019-06-01T09:07:38Z</time>
      </trkpt>
      <trkpt lat="44.15733" lon="4.59279">
        <ele>92.1</ele>
        <time>2019-06-01T09:07:39Z</time>
      </trkpt>
      <trkpt lat="44.1573" lon="4.59276">
        <ele>92.1</ele>
        <time>2019-06-01T09:07:40Z</time>
      </trkpt>
      <trkpt lat="44.15726" lon="4.59274">
        <ele>92</ele>
        <time>2019-06-01T09:07:41Z</time>
      </trkpt>
      <trkpt lat="44.15722" lon="4.59271">
        <ele>92</ele>
        <time>2019-06-01T09:07:42Z</time>
      </trkpt>
      <trkpt lat="44.15718" lon="4.5927">
        <ele>92</ele>
        <time>2019-06-01T09:07:43Z</time>
      </trkpt>
      <trkpt lat="44.15714" lon="4.59268">
        <ele>92</ele>
        <time>2019-06-01T09:07:44Z</time>
      </trkpt>
      <trkpt lat="44.15711" lon="4.59266">
        <ele>92</ele>
        <time>2019-06-01T09:07:45Z</time>
      </trkpt>
      <trkpt lat="44.15707" lon="4.59263">
        <ele>91.9</ele>
        <time>2019-06-01T09:07:46Z</time>
      </trkpt>
      <trkpt lat="44.15703" lon="4.59261">
        <ele>91.9</ele>
        <time>2019-06-01T09:07:47Z</time>
      </trkpt>
      <trkpt lat="44.157" lon="4.59259">
        <ele>91.8</ele>
        <time>2019-06-01T09:07:48Z</time>
      </trkpt>
      <trkpt lat="44.15697" lon="4.59256">
        <ele>91.8</ele>
        <time>2019-06-01T09:07:49Z</time>
      </trkpt>
      <trkpt lat="44.15694" lon="4.59253">
        <ele>91.8</ele>
        <time>2019-06-01T09:07:50Z</time>
      </trkpt>
      <trkpt lat="44.15692" lon="4.5925">
        <ele>91.7</ele>
        <time>2019-06-01T09:07:51Z</time>
      </trkpt>
      <trkpt lat="44.1569" lon="4.59247">
        <ele>91.6</ele>
        <time>2019-06-01T09:07:52Z</time>
      </trkpt>
      <trkpt lat="44.15688" lon="4.59243">
        <ele>91.5</ele>
        <time>2019-06-01T09:07:53Z</time>
      </trkpt>
      <trkpt lat="44.15686" lon="4.5924">
        <ele>91.5</ele>
        <time>2019-06-01T09:07:54Z</time>
      </trkpt>
      <trkpt lat="44.15683" lon="4.59237">
        <ele>91.4</ele>
        <time>2019-06-01T09:07:55Z</time>
      </trkpt>
      <trkpt lat="44.15681" lon="4.59234">
        <ele>91.3</ele>
        <time>2019-06-01T09:07:56Z</time>
      </trkpt>
      <trkpt lat="44.15677" lon="4.59232">
        <ele>91.2</ele>
        <time>2019-06-01T09:07:57Z</time>
      </trkpt>
      <trkpt lat="44.15674" lon="4.59229">
        <ele>91.1</ele>
        <time>2019-06-01T09:07:58Z</time>
      </trkpt>
      <trkpt lat="44.1567" lon="4.59226">
        <ele>90.9</ele>
        <time>2019-06-01T09:07:59Z</time>
      </trkpt>
      <trkpt lat="44.15667" lon="4.59223">
        <ele>90.8</ele>
        <time>2019-06-01T09:08:00Z</time>
      </trkpt>
      <trkpt lat="44.15663" lon="4.5922">
        <ele>90.6</ele>
        <time>2019-06-01T09:08:01Z</time>
      </trkpt>
      <trkpt lat="44.15659" lon="4.59218">
        <ele>90.5</ele>
        <time>2019-06-01T09:08:02Z</time>
      </trkpt>
      <trkpt lat="44.15655" lon="4.59215">
        <ele>90.3</ele>
        <time>2019-06-01T09:08:03Z</time>
      </trkpt>
      <trkpt lat="44.15649" lon="4.59209">
        <ele>90</ele>
        <time>2019-06-01T09:08:04Z</time>
      </trkpt>
      <trkpt lat="44.15642" lon="4.59208">
        <ele>89.7</ele>
        <time>2019-06-01T09:08:05Z</time>
      </trkpt>
      <trkpt lat="44.15637" lon="4.59205">
        <ele>89.6</ele>
        <time>2019-06-01T09:08:06Z</time>
      </trkpt>
      <trkpt lat="44.15634" lon="4.59202">
        <ele>89.4</ele>
        <time>2019-06-01T09:08:07Z</time>
      </trkpt>
      <trkpt lat="44.15631" lon="4.59198">
        <ele>89.3</ele>
        <time>2019-06-01T09:08:08Z</time>
      </trkpt>
      <trkpt lat="44.15627" lon="4.59194">
        <ele>89.2</ele>
        <time>2019-06-01T09:08:09Z</time>
      </trkpt>
      <trkpt lat="44.15623" lon="4.59192">
        <ele>89.1</ele>
        <time>2019-06-01T09:08:10Z</time>
      </trkpt>
      <trkpt lat="44.15619" lon="4.59189">
        <ele>89</ele>
        <time>2019-06-01T09:08:11Z</time>
      </trkpt>
      <trkpt lat="44.15614" lon="4.59185">
        <ele>88.8</ele>
        <time>2019-06-01T09:08:12Z</time>
      </trkpt>
      <trkpt lat="44.1561" lon="4.59182">
        <ele>88.7</ele>
        <time>2019-06-01T09:08:13Z</time>
      </trkpt>
      <trkpt lat="44.15605" lon="4.59178">
        <ele>88.6</ele>
        <time>2019-06-01T09:08:14Z</time>
      </trkpt>
      <trkpt lat="44.15601" lon="4.59175">
        <ele>88.5</ele>
        <time>2019-06-01T09:08:15Z</time>
      </trkpt>
      <trkpt lat="44.15596" lon="4.59172">
        <ele>88.4</ele>
        <time>2019-06-01T09:08:16Z</time>
      </trkpt>
      <trkpt lat="44.15592" lon="4.59169">
        <ele>88.3</ele>
        <time>2019-06-01T09:08:17Z</time>
      </trkpt>
      <trkpt lat="44.15587" lon="4.59165">
        <ele>88.3</ele>
        <time>2019-06-01T09:08:18Z</time>
      </trkpt>
      <trkpt lat="44.15582" lon="4.59162">
        <ele>88.3</ele>
        <time>2019-06-01T09:08:19Z</time>
      </trkpt>
      <trkpt lat="44.15577" lon="4.5916">
        <ele>88.2</ele>
        <time>2019-06-01T09:08:20Z</time>
      </trkpt>
      <trkpt lat="44.15573" lon="4.59158">
        <ele>88.2</ele>
        <time>2019-06-01T09:08:21Z</time>
      </trkpt>
      <trkpt lat="44.15568" lon="4.59156">
        <ele>88.2</ele>
        <time>2019-06-01T09:08:22Z</time>
      </trkpt>
      <trkpt lat="44.15564" lon="4.59154">
        <ele>88.3</ele>
        <time>2019-06-01T09:08:23Z</time>
      </trkpt>
      <trkpt lat="44.15562" lon="4.59151">
        <ele>88.3</ele>
        <time>2019-06-01T09:08:24Z</time>
      </trkpt>
      <trkpt lat="44.15558" lon="4.59152">
        <ele>88.3</ele>
        <time>2019-06-01T09:08:28Z</time>
      </trkpt>
      <trkpt lat="44.15556" lon="4.59147">
        <ele>88.4</ele>
        <time>2019-06-01T09:08:32Z</time>
      </trkpt>
      <trkpt lat="44.15554" lon="4.59146">
        <ele>88.5</ele>
        <time>2019-06-01T09:08:42Z</time>
      </trkpt>
      <trkpt lat="44.15552" lon="4.59143">
        <ele>88.6</ele>
        <time>2019-06-01T09:08:52Z</time>
      </trkpt>
      <trkpt lat="44.15549" lon="4.59144">
        <ele>88.8</ele>
        <time>2019-06-01T09:08:57Z</time>
      </trkpt>
      <trkpt lat="44.15547" lon="4.59144">
        <ele>89</ele>
        <time>2019-06-01T09:09:03Z</time>
      </trkpt>
      <trkpt lat="44.15544" lon="4.59143">
        <ele>89.3</ele>
        <time>2019-06-01T09:09:09Z</time>
      </trkpt>
      <trkpt lat="44.15541" lon="4.59144">
        <ele>89.5</ele>
        <time>2019-06-01T09:09:12Z</time>
      </trkpt>
      <trkpt lat="44.15538" lon="4.59145">
        <ele>89.9</ele>
        <time>2019-06-01T09:09:17Z</time>
      </trkpt>
      <trkpt lat="44.15534" lon="4.59145">
        <ele>90.3</ele>
        <time>2019-06-01T09:09:19Z</time>
      </trkpt>
      <trkpt lat="44.15532" lon="4.59144">
        <ele>90.6</ele>
        <time>2019-06-01T09:09:21Z</time>
      </trkpt>
      <trkpt lat="44.15528" lon="4.59144">
        <ele>91</ele>
        <time>2019-06-01T09:09:23Z</time>
      </trkpt>
      <trkpt lat="44.15526" lon="4.59142">
        <ele>91.3</ele>
        <time>2019-06-01T09:09:25Z</time>
      </trkpt>
      <trkpt lat="44.15523" lon="4.59142">
        <ele>91.6</ele>
        <time>2019-06-01T09:09:27Z</time>
      </trkpt>
      <trkpt lat="44.15519" lon="4.59141">
        <ele>91.9</ele>
        <time>2019-06-01T09:09:29Z</time>
      </trkpt>
      <trkpt lat="44.15516" lon="4.5914">
        <ele>92.2</ele>
        <time>2019-06-01T09:09:31Z</time>
      </trkpt>
      <trkpt lat="44.15513" lon="4.59139">
        <ele>92.4</ele>
        <time>2019-06-01T09:09:33Z</time>
      </trkpt>
      <trkpt lat="44.1551" lon="4.59138">
        <ele>92.7</ele>
        <time>2019-06-01T09:09:35Z</time>
      </trkpt>
      <trkpt lat="44.15507" lon="4.59139">
        <ele>92.9</ele>
        <time>2019-06-01T09:09:37Z</time>
      </trkpt>
      <trkpt lat="44.15504" lon="4.59143">
        <ele>93.2</ele>
        <time>2019-06-01T09:09:40Z</time>
      </trkpt>
      <trkpt lat="44.15502" lon="4.59146">
        <ele>93.5</ele>
        <time>2019-06-01T09:09:43Z</time>
      </trkpt>
      <trkpt lat="44.15499" lon="4.59148">
        <ele>93.8</ele>
        <time>2019-06-01T09:09:54Z</time>
      </trkpt>
      <trkpt lat="44.15497" lon="4.59147">
        <ele>94.1</ele>
        <time>2019-06-01T09:09:58Z</time>
      </trkpt>
      <trkpt lat="44.15493" lon="4.59145">
        <ele>94.5</ele>
        <time>2019-06-01T09:10:01Z</time>
      </trkpt>
      <trkpt lat="44.1549" lon="4.59147">
        <ele>94.9</ele>
        <time>2019-06-01T09:10:04Z</time>
      </trkpt>
      <trkpt lat="44.15487" lon="4.59148">
        <ele>95.1</ele>
        <time>2019-06-01T09:10:07Z</time>
      </trkpt>
      <trkpt lat="44.15483" lon="4.59149">
        <ele>95.4</ele>
        <time>2019-06-01T09:10:10Z</time>
      </trkpt>
      <trkpt lat="44.1548" lon="4.59149">
        <ele>95.6</ele>
        <time>2019-06-01T09:10:12Z</time>
      </trkpt>
      <trkpt lat="44.15477" lon="4.59147">
        <ele>95.8</ele>
        <time>2019-06-01T09:10:14Z</time>
      </trkpt>
      <trkpt lat="44.15473" lon="4.59145">
        <ele>96</ele>
        <time>2019-06-01T09:10:17Z</time>
      </trkpt>
      <trkpt lat="44.15471" lon="4.59145">
        <ele>96.2</ele>
        <time>2019-06-01T09:10:20Z</time>
      </trkpt>
      <trkpt lat="44.15468" lon="4.59146">
        <ele>96.4</ele>
        <time>2019-06-01T09:10:24Z</time>
      </trkpt>
      <trkpt lat="44.15465" lon="4.59148">
        <ele>96.7</ele>
        <time>2019-06-01T09:10:27Z</time>
      </trkpt>
      <trkpt lat="44.15463" lon="4.5915">
        <ele>96.9</ele>
        <time>2019-06-01T09:10:33Z</time>
      </trkpt>
      <trkpt lat="44.15461" lon="4.59153">
        <ele>97.2</ele>
        <time>2019-06-01T09:10:36Z</time>
      </trkpt>
      <trkpt lat="44.15458" lon="4.59152">
        <ele>97.4</ele>
        <time>2019-06-01T09:10:38Z</time>
      </trkpt>
      <trkpt lat="44.15454" lon="4.5915">
        <ele>97.6</ele>
        <time>2019-06-01T09:10:41Z</time>
      </trkpt>
      <trkpt lat="44.15452" lon="4.59149">
        <ele>97.7</ele>
        <time>2019-06-01T09:10:43Z</time>
      </trkpt>
      <trkpt lat="44.15449" lon="4.59146">
        <ele>97.8</ele>
        <time>2019-06-01T09:10:46Z</time>
      </trkpt>
      <trkpt lat="44.15444" lon="4.59146">
        <ele>98</ele>
        <time>2019-06-01T09:10:59Z</time>
      </trkpt>
      <trkpt lat="44.15441" lon="4.59144">
        <ele>98.2</ele>
        <time>2019-06-01T09:11:01Z</time>
      </trkpt>
      <trkpt lat="44.15438" lon="4.59143">
        <ele>98.3</ele>
        <time>2019-06-01T09:11:03Z</time>
      </trkpt>
      <trkpt lat="44.15434" lon="4.59141">
        <ele>98.5</ele>
        <time>2019-06-01T09:11:05Z</time>
      </trkpt>
      <trkpt lat="44.15431" lon="4.59143">
        <ele>98.6</ele>
        <time>2019-06-01T09:11:07Z</time>
      </trkpt>
      <trkpt lat="44.15428" lon="4.59145">
        <ele>98.8</ele>
        <time>2019-06-01T09:11:09Z</time>
      </trkpt>
      <trkpt lat="44.15426" lon="4.59147">
        <ele>98.9</ele>
        <time>2019-06-01T09:11:11Z</time>
      </trkpt>
      <trkpt lat="44.15423" lon="4.5915">
        <ele>99.1</ele>
        <time>2019-06-01T09:11:13Z</time>
      </trkpt>
      <trkpt lat="44.1542" lon="4.59155">
        <ele>99.2</ele>
        <time>2019-06-01T09:11:15Z</time>
      </trkpt>
      <trkpt lat="44.15418" lon="4.59158">
        <ele>99.4</ele>
        <time>2019-06-01T09:11:17Z</time>
      </trkpt>
      <trkpt lat="44.15416" lon="4.59161">
        <ele>99.5</ele>
        <time>2019-06-01T09:11:19Z</time>
      </trkpt>
      <trkpt lat="44.15413" lon="4.59162">
        <ele>99.7</ele>
        <time>2019-06-01T09:11:21Z</time>
      </trkpt>
      <trkpt lat="44.15409" lon="4.59162">
        <ele>99.9</ele>
        <time>2019-06-01T09:11:23Z</time>
      </trkpt>
      <trkpt lat="44.15405" lon="4.59162">
        <ele>100.1</ele>
        <time>2019-06-01T09:11:25Z</time>
      </trkpt>
      <trkpt lat="44.15403" lon="4.59161">
        <ele>100.2</ele>
        <time>2019-06-01T09:11:27Z</time>
      </trkpt>
      <trkpt lat="44.15399" lon="4.5916">
        <ele>100.4</ele>
        <time>2019-06-01T09:11:30Z</time>
      </trkpt>
      <trkpt lat="44.15396" lon="4.59159">
        <ele>100.5</ele>
        <time>2019-06-01T09:11:32Z</time>
      </trkpt>
      <trkpt lat="44.15392" lon="4.59161">
        <ele>100.8</ele>
        <time>2019-06-01T09:11:36Z</time>
      </trkpt>
      <trkpt lat="44.15388" lon="4.59162">
        <ele>101</ele>
        <time>2019-06-01T09:11:38Z</time>
      </trkpt>
      <trkpt lat="44.15384" lon="4.59164">
        <ele>101.2</ele>
        <time>2019-06-01T09:11:40Z</time>
      </trkpt>
      <trkpt lat="44.15379" lon="4.59166">
        <ele>101.6</ele>
        <time>2019-06-01T09:11:42Z</time>
      </trkpt>
      <trkpt lat="44.15376" lon="4.59166">
        <ele>101.9</ele>
        <time>2019-06-01T09:11:45Z</time>
      </trkpt>
      <trkpt lat="44.15373" lon="4.59167">
        <ele>102.1</ele>
        <time>2019-06-01T09:11:47Z</time>
      </trkpt>
      <trkpt lat="44.1537" lon="4.59168">
        <ele>102.3</ele>
        <time>2019-06-01T09:11:49Z</time>
      </trkpt>
      <trkpt lat="44.15366" lon="4.59168">
        <ele>102.7</ele>
        <time>2019-06-01T09:11:51Z</time>
      </trkpt>
      <trkpt lat="44.15361" lon="4.59168">
        <ele>103.1</ele>
        <time>2019-06-01T09:11:53Z</time>
      </trkpt>
      <trkpt lat="44.15357" lon="4.59169">
        <ele>103.5</ele>
        <time>2019-06-01T09:11:55Z</time>
      </trkpt>
      <trkpt lat="44.15353" lon="4.59169">
        <ele>103.7</ele>
        <time>2019-06-01T09:11:57Z</time>
      </trkpt>
      <trkpt lat="44.1535" lon="4.59169">
        <ele>103.9</ele>
        <time>2019-06-01T09:11:59Z</time>
      </trkpt>
      <trkpt lat="44.15346" lon="4.5917">
        <ele>104.1</ele>
        <time>2019-06-01T09:12:01Z</time>
      </trkpt>
      <trkpt lat="44.15343" lon="4.59171">
        <ele>104.3</ele>
        <time>2019-06-01T09:12:03Z</time>
      </trkpt>
      <trkpt lat="44.1534" lon="4.59169">
        <ele>104.4</ele>
        <time>2019-06-01T09:12:07Z</time>
      </trkpt>
      <trkpt lat="44.15337" lon="4.59168">
        <ele>104.6</ele>
        <time>2019-06-01T09:12:10Z</time>
      </trkpt>
      <trkpt lat="44.15333" lon="4.59168">
        <ele>104.8</ele>
        <time>2019-06-01T09:12:13Z</time>
      </trkpt>
      <trkpt lat="44.1533" lon="4.59167">
        <ele>104.9</ele>
        <time>2019-06-01T09:12:17Z</time>
      </trkpt>
      <trkpt lat="44.15326" lon="4.59165">
        <ele>105.1</ele>
        <time>2019-06-01T09:12:22Z</time>
      </trkpt>
      <trkpt lat="44.15323" lon="4.59166">
        <ele>105.2</ele>
        <time>2019-06-01T09:12:26Z</time>
      </trkpt>
      <trkpt lat="44.1532" lon="4.59165">
        <ele>105.5</ele>
        <time>2019-06-01T09:12:29Z</time>
      </trkpt>
      <trkpt lat="44.15316" lon="4.59165">
        <ele>105.7</ele>
        <time>2019-06-01T09:12:31Z</time>
      </trkpt>
      <trkpt lat="44.15313" lon="4.59165">
        <ele>106.1</ele>
        <time>2019-06-01T09:12:34Z</time>
      </trkpt>
      <trkpt lat="44.1531" lon="4.59165">
        <ele>106.5</ele>
        <time>2019-06-01T09:12:41Z</time>
      </trkpt>
      <trkpt lat="44.15306" lon="4.59168">
        <ele>107</ele>
        <time>2019-06-01T09:12:45Z</time>
      </trkpt>
      <trkpt lat="44.15301" lon="4.59168">
        <ele>107.6</ele>
        <time>2019-06-01T09:12:47Z</time>
      </trkpt>
      <trkpt lat="44.15296" lon="4.59167">
        <ele>108.1</ele>
        <time>2019-06-01T09:12:49Z</time>
      </trkpt>
      <trkpt lat="44.15293" lon="4.59166">
        <ele>108.4</ele>
        <time>2019-06-01T09:12:51Z</time>
      </trkpt>
      <trkpt lat="44.1529" lon="4.59163">
        <ele>108.7</ele>
        <time>2019-06-01T09:12:54Z</time>
      </trkpt>
      <trkpt lat="44.15286" lon="4.59163">
        <ele>109.2</ele>
        <time>2019-06-01T09:12:56Z</time>
      </trkpt>
      <trkpt lat="44.15282" lon="4.59162">
        <ele>109.5</ele>
        <time>2019-06-01T09:12:58Z</time>
      </trkpt>
      <trkpt lat="44.15277" lon="4.59161">
        <ele>109.9</ele>
        <time>2019-06-01T09:13:00Z</time>
      </trkpt>
      <trkpt lat="44.15272" lon="4.5916">
        <ele>110.3</ele>
        <time>2019-06-01T09:13:02Z</time>
      </trkpt>
      <trkpt lat="44.15269" lon="4.5916">
        <ele>110.5</ele>
        <time>2019-06-01T09:13:04Z</time>
      </trkpt>
      <trkpt lat="44.15265" lon="4.59161">
        <ele>110.8</ele>
        <time>2019-06-01T09:13:07Z</time>
      </trkpt>
      <trkpt lat="44.15262" lon="4.59162">
        <ele>111</ele>
        <time>2019-06-01T09:13:09Z</time>
      </trkpt>
      <trkpt lat="44.15259" lon="4.59163">
        <ele>111.3</ele>
        <time>2019-06-01T09:13:11Z</time>
      </trkpt>
      <trkpt lat="44.15256" lon="4.59164">
        <ele>111.6</ele>
        <time>2019-06-01T09:13:13Z</time>
      </trkpt>
      <trkpt lat="44.15252" lon="4.59164">
        <ele>112</ele>
        <time>2019-06-01T09:13:16Z</time>
      </trkpt>
      <trkpt lat="44.15248" lon="4.59163">
        <ele>112.5</ele>
        <time>2019-06-01T09:13:18Z</time>
      </trkpt>
      <trkpt lat="44.15243" lon="4.59161">
        <ele>113.2</ele>
        <time>2019-06-01T09:13:20Z</time>
      </trkpt>
      <trkpt lat="44.15239" lon="4.59159">
        <ele>113.7</ele>
        <time>2019-06-01T09:13:22Z</time>
      </trkpt>
      <trkpt lat="44.15235" lon="4.59157">
        <ele>114.2</ele>
        <time>2019-06-01T09:13:24Z</time>
      </trkpt>
      <trkpt lat="44.15232" lon="4.59155">
        <ele>114.7</ele>
        <time>2019-06-01T09:13:27Z</time>
      </trkpt>
      <trkpt lat="44.1523" lon="4.59153">
        <ele>115</ele>
        <time>2019-06-01T09:13:29Z</time>
      </trkpt>
      <trkpt lat="44.15226" lon="4.59152">
        <ele>115.3</ele>
        <time>2019-06-01T09:13:31Z</time>
      </trkpt>
      <trkpt lat="44.15223" lon="4.59151">
        <ele>115.6</ele>
        <time>2019-06-01T09:13:34Z</time>
      </trkpt>
      <trkpt lat="44.15217" lon="4.59151">
        <ele>115.9</ele>
        <time>2019-06-01T09:13:36Z</time>
      </trkpt>
      <trkpt lat="44.15214" lon="4.59151">
        <ele>116.1</ele>
        <time>2019-06-01T09:13:37Z</time>
      </trkpt>
      <trkpt lat="44.15211" lon="4.5915">
        <ele>116.3</ele>
        <time>2019-06-01T09:13:38Z</time>
      </trkpt>
      <trkpt lat="44.15207" lon="4.59149">
        <ele>116.5</ele>
        <time>2019-06-01T09:13:39Z</time>
      </trkpt>
      <trkpt lat="44.15204" lon="4.59149">
        <ele>116.7</ele>
        <time>2019-06-01T09:13:40Z</time>
      </trkpt>
      <trkpt lat="44.15201" lon="4.59148">
        <ele>117</ele>
        <time>2019-06-01T09:13:41Z</time>
      </trkpt>
      <trkpt lat="44.15198" lon="4.59148">
        <ele>117.2</ele>
        <time>2019-06-01T09:13:42Z</time>
      </trkpt>
      <trkpt lat="44.15194" lon="4.59148">
        <ele>117.6</ele>
        <time>2019-06-01T09:13:44Z</time>
      </trkpt>
      <trkpt lat="44.1519" lon="4.59148">
        <ele>117.9</ele>
        <time>2019-06-01T09:13:46Z</time>
      </trkpt>
      <trkpt lat="44.15187" lon="4.59148">
        <ele>118.2</ele>
        <time>2019-06-01T09:13:49Z</time>
      </trkpt>
      <trkpt lat="44.15184" lon="4.59147">
        <ele>118.5</ele>
        <time>2019-06-01T09:13:52Z</time>
      </trkpt>
      <trkpt lat="44.15181" lon="4.59145">
        <ele>118.8</ele>
        <time>2019-06-01T09:13:55Z</time>
      </trkpt>
      <trkpt lat="44.15179" lon="4.59144">
        <ele>119.1</ele>
        <time>2019-06-01T09:13:56Z</time>
      </trkpt>
      <trkpt lat="44.15175" lon="4.59144">
        <ele>119.3</ele>
        <time>2019-06-01T09:13:57Z</time>
      </trkpt>
      <trkpt lat="44.1517" lon="4.59143">
        <ele>119.7</ele>
        <time>2019-06-01T09:13:59Z</time>
      </trkpt>
      <trkpt lat="44.15166" lon="4.59141">
        <ele>120</ele>
        <time>2019-06-01T09:14:01Z</time>
      </trkpt>
      <trkpt lat="44.15161" lon="4.59141">
        <ele>120.4</ele>
        <time>2019-06-01T09:14:03Z</time>
      </trkpt>
      <trkpt lat="44.15154" lon="4.59143">
        <ele>120.8</ele>
        <time>2019-06-01T09:14:05Z</time>
      </trkpt>
      <trkpt lat="44.15149" lon="4.59145">
        <ele>121.1</ele>
        <time>2019-06-01T09:15:38Z</time>
      </trkpt>
      <trkpt lat="44.15145" lon="4.59147">
        <ele>121.7</ele>
        <time>2019-06-01T09:15:39Z</time>
      </trkpt>
      <trkpt lat="44.15142" lon="4.59147">
        <ele>122.1</ele>
        <time>2019-06-01T09:15:40Z</time>
      </trkpt>
      <trkpt lat="44.15138" lon="4.59148">
        <ele>122.5</ele>
        <time>2019-06-01T09:15:42Z</time>
      </trkpt>
      <trkpt lat="44.15136" lon="4.59148">
        <ele>122.8</ele>
        <time>2019-06-01T09:15:43Z</time>
      </trkpt>
      <trkpt lat="44.1513" lon="4.59151">
        <ele>123.4</ele>
        <time>2019-06-01T09:15:45Z</time>
      </trkpt>
      <trkpt lat="44.15126" lon="4.59152">
        <ele>123.8</ele>
        <time>2019-06-01T09:15:46Z</time>
      </trkpt>
      <trkpt lat="44.15123" lon="4.59155">
        <ele>124.2</ele>
        <time>2019-06-01T09:15:47Z</time>
      </trkpt>
      <trkpt lat="44.15119" lon="4.59157">
        <ele>124.6</ele>
        <time>2019-06-01T09:15:48Z</time>
      </trkpt>
      <trkpt lat="44.15117" lon="4.59159">
        <ele>125</ele>
        <time>2019-06-01T09:15:49Z</time>
      </trkpt>
      <trkpt lat="44.15114" lon="4.59161">
        <ele>125.4</ele>
        <time>2019-06-01T09:15:50Z</time>
      </trkpt>
      <trkpt lat="44.15111" lon="4.59163">
        <ele>126</ele>
        <time>2019-06-01T09:15:52Z</time>
      </trkpt>
      <trkpt lat="44.15108" lon="4.59166">
        <ele>126.4</ele>
        <time>2019-06-01T09:15:54Z</time>
      </trkpt>
      <trkpt lat="44.15104" lon="4.59169">
        <ele>126.9</ele>
        <time>2019-06-01T09:15:56Z</time>
      </trkpt>
      <trkpt lat="44.15101" lon="4.5917">
        <ele>127.2</ele>
        <time>2019-06-01T09:15:57Z</time>
      </trkpt>
      <trkpt lat="44.15098" lon="4.59171">
        <ele>127.5</ele>
        <time>2019-06-01T09:15:58Z</time>
      </trkpt>
      <trkpt lat="44.15095" lon="4.59172">
        <ele>127.8</ele>
        <time>2019-06-01T09:15:59Z</time>
      </trkpt>
      <trkpt lat="44.1509" lon="4.59173">
        <ele>128.6</ele>
        <time>2019-06-01T09:16:01Z</time>
      </trkpt>
      <trkpt lat="44.15088" lon="4.59174">
        <ele>128.7</ele>
        <time>2019-06-01T09:16:03Z</time>
      </trkpt>
      <trkpt lat="44.15084" lon="4.59175">
        <ele>128.8</ele>
        <time>2019-06-01T09:16:06Z</time>
      </trkpt>
      <trkpt lat="44.15081" lon="4.59177">
        <ele>129</ele>
        <time>2019-06-01T09:16:08Z</time>
      </trkpt>
      <trkpt lat="44.15076" lon="4.59178">
        <ele>129.1</ele>
        <time>2019-06-01T09:16:10Z</time>
      </trkpt>
      <trkpt lat="44.15073" lon="4.59178">
        <ele>129.3</ele>
        <time>2019-06-01T09:16:11Z</time>
      </trkpt>
      <trkpt lat="44.1507" lon="4.59178">
        <ele>129.4</ele>
        <time>2019-06-01T09:16:13Z</time>
      </trkpt>
      <trkpt lat="44.15066" lon="4.59176">
        <ele>129.5</ele>
        <time>2019-06-01T09:16:18Z</time>
      </trkpt>
      <trkpt lat="44.15071" lon="4.59175">
        <ele>129.6</ele>
        <time>2019-06-01T09:16:25Z</time>
      </trkpt>
      <trkpt lat="44.15076" lon="4.59174">
        <ele>129.3</ele>
        <time>2019-06-01T09:16:27Z</time>
      </trkpt>
      <trkpt lat="44.1508" lon="4.59175">
        <ele>129.1</ele>
        <time>2019-06-01T09:16:29Z</time>
      </trkpt>
      <trkpt lat="44.15085" lon="4.59175">
        <ele>128.8</ele>
        <time>2019-06-01T09:16:31Z</time>
      </trkpt>
      <trkpt lat="44.15089" lon="4.59174">
        <ele>128.6</ele>
        <time>2019-06-01T09:16:32Z</time>
      </trkpt>
      <trkpt lat="44.15093" lon="4.59174">
        <ele>128.1</ele>
        <time>2019-06-01T09:16:33Z</time>
      </trkpt>
      <trkpt lat="44.15097" lon="4.59174">
        <ele>127.7</ele>
        <time>2019-06-01T09:16:34Z</time>
      </trkpt>
      <trkpt lat="44.15101" lon="4.59173">
        <ele>127.2</ele>
        <time>2019-06-01T09:16:35Z</time>
      </trkpt>
      <trkpt lat="44.15106" lon="4.59174">
        <ele>126.8</ele>
        <time>2019-06-01T09:16:36Z</time>
      </trkpt>
      <trkpt lat="44.15111" lon="4.59172">
        <ele>126.4</ele>
        <time>2019-06-01T09:16:37Z</time>
      </trkpt>
      <trkpt lat="44.15114" lon="4.59171">
        <ele>126</ele>
        <time>2019-06-01T09:16:38Z</time>
      </trkpt>
      <trkpt lat="44.15118" lon="4.59172">
        <ele>125.6</ele>
        <time>2019-06-01T09:16:39Z</time>
      </trkpt>
      <trkpt lat="44.15125" lon="4.5917">
        <ele>124.7</ele>
        <time>2019-06-01T09:16:41Z</time>
      </trkpt>
      <trkpt lat="44.15128" lon="4.59169">
        <ele>124.3</ele>
        <time>2019-06-01T09:16:42Z</time>
      </trkpt>
      <trkpt lat="44.15135" lon="4.59166">
        <ele>123.7</ele>
        <time>2019-06-01T09:16:45Z</time>
      </trkpt>
      <trkpt lat="44.15139" lon="4.59162">
        <ele>123.2</ele>
        <time>2019-06-01T09:16:46Z</time>
      </trkpt>
      <trkpt lat="44.15141" lon="4.59156">
        <ele>122.8</ele>
        <time>2019-06-01T09:16:47Z</time>
      </trkpt>
      <trkpt lat="44.15142" lon="4.59151">
        <ele>122.5</ele>
        <time>2019-06-01T09:16:48Z</time>
      </trkpt>
      <trkpt lat="44.15142" lon="4.59145">
        <ele>122</ele>
        <time>2019-06-01T09:16:49Z</time>
      </trkpt>
      <trkpt lat="44.15141" lon="4.5914">
        <ele>121.6</ele>
        <time>2019-06-01T09:16:50Z</time>
      </trkpt>
      <trkpt lat="44.1514" lon="4.59134">
        <ele>121.9</ele>
        <time>2019-06-01T09:16:51Z</time>
      </trkpt>
      <trkpt lat="44.15138" lon="4.5913">
        <ele>122.2</ele>
        <time>2019-06-01T09:16:52Z</time>
      </trkpt>
      <trkpt lat="44.15136" lon="4.59125">
        <ele>122.4</ele>
        <time>2019-06-01T09:16:53Z</time>
      </trkpt>
      <trkpt lat="44.15133" lon="4.59122">
        <ele>122.7</ele>
        <time>2019-06-01T09:16:54Z</time>
      </trkpt>
      <trkpt lat="44.15131" lon="4.59118">
        <ele>122.9</ele>
        <time>2019-06-01T09:16:55Z</time>
      </trkpt>
      <trkpt lat="44.15128" lon="4.59115">
        <ele>123.1</ele>
        <time>2019-06-01T09:16:56Z</time>
      </trkpt>
      <trkpt lat="44.15125" lon="4.5911">
        <ele>123.5</ele>
        <time>2019-06-01T09:16:58Z</time>
      </trkpt>
      <trkpt lat="44.15121" lon="4.59107">
        <ele>123.7</ele>
        <time>2019-06-01T09:16:59Z</time>
      </trkpt>
      <trkpt lat="44.15117" lon="4.59105">
        <ele>124</ele>
        <time>2019-06-01T09:17:00Z</time>
      </trkpt>
      <trkpt lat="44.15113" lon="4.59101">
        <ele>124.3</ele>
        <time>2019-06-01T09:17:01Z</time>
      </trkpt>
      <trkpt lat="44.15109" lon="4.59098">
        <ele>124.7</ele>
        <time>2019-06-01T09:17:02Z</time>
      </trkpt>
      <trkpt lat="44.15106" lon="4.59094">
        <ele>125</ele>
        <time>2019-06-01T09:17:03Z</time>
      </trkpt>
      <trkpt lat="44.15103" lon="4.59092">
        <ele>125.2</ele>
        <time>2019-06-01T09:17:04Z</time>
      </trkpt>
      <trkpt lat="44.15099" lon="4.5909">
        <ele>125.5</ele>
        <time>2019-06-01T09:17:05Z</time>
      </trkpt>
      <trkpt lat="44.1509" lon="4.59086">
        <ele>126.1</ele>
        <time>2019-06-01T09:17:06Z</time>
      </trkpt>
      <trkpt lat="44.15084" lon="4.59085">
        <ele>126.4</ele>
        <time>2019-06-01T09:17:07Z</time>
      </trkpt>
      <trkpt lat="44.15078" lon="4.59084">
        <ele>126.8</ele>
        <time>2019-06-01T09:17:08Z</time>
      </trkpt>
      <trkpt lat="44.15073" lon="4.59084">
        <ele>127.1</ele>
        <time>2019-06-01T09:17:09Z</time>
      </trkpt>
      <trkpt lat="44.15066" lon="4.59082">
        <ele>127.5</ele>
        <time>2019-06-01T09:17:11Z</time>
      </trkpt>
      <trkpt lat="44.15061" lon="4.59079">
        <ele>127.8</ele>
        <time>2019-06-01T09:17:12Z</time>
      </trkpt>
      <trkpt lat="44.15058" lon="4.59076">
        <ele>128</ele>
        <time>2019-06-01T09:17:13Z</time>
      </trkpt>
      <trkpt lat="44.15053" lon="4.59075">
        <ele>128.2</ele>
        <time>2019-06-01T09:17:14Z</time>
      </trkpt>
      <trkpt lat="44.15049" lon="4.59077">
        <ele>128.4</ele>
        <time>2019-06-01T09:17:15Z</time>
      </trkpt>
      <trkpt lat="44.15044" lon="4.59077">
        <ele>128.6</ele>
        <time>2019-06-01T09:17:17Z</time>
      </trkpt>
      <trkpt lat="44.1504" lon="4.59075">
        <ele>128.8</ele>
        <time>2019-06-01T09:17:18Z</time>
      </trkpt>
      <trkpt lat="44.15036" lon="4.59073">
        <ele>129</ele>
        <time>2019-06-01T09:17:19Z</time>
      </trkpt>
      <trkpt lat="44.15033" lon="4.59072">
        <ele>129.1</ele>
        <time>2019-06-01T09:17:20Z</time>
      </trkpt>
      <trkpt lat="44.15029" lon="4.5907">
        <ele>129.3</ele>
        <time>2019-06-01T09:17:21Z</time>
      </trkpt>
      <trkpt lat="44.15025" lon="4.59067">
        <ele>129.4</ele>
        <time>2019-06-01T09:17:22Z</time>
      </trkpt>
      <trkpt lat="44.15021" lon="4.59064">
        <ele>129.6</ele>
        <time>2019-06-01T09:17:23Z</time>
      </trkpt>
      <trkpt lat="44.15018" lon="4.59062">
        <ele>129.7</ele>
        <time>2019-06-01T09:17:24Z</time>
      </trkpt>
      <trkpt lat="44.15014" lon="4.59059">
        <ele>129.8</ele>
        <time>2019-06-01T09:17:26Z</time>
      </trkpt>
      <trkpt lat="44.15011" lon="4.59057">
        <ele>129.9</ele>
        <time>2019-06-01T09:17:28Z</time>
      </trkpt>
      <trkpt lat="44.15007" lon="4.59054">
        <ele>130.1</ele>
        <time>2019-06-01T09:17:30Z</time>
      </trkpt>
      <trkpt lat="44.15003" lon="4.59053">
        <ele>130.2</ele>
        <time>2019-06-01T09:17:31Z</time>
      </trkpt>
      <trkpt lat="44.14998" lon="4.59052">
        <ele>130.4</ele>
        <time>2019-06-01T09:17:32Z</time>
      </trkpt>
      <trkpt lat="44.14994" lon="4.59052">
        <ele>130.6</ele>
        <time>2019-06-01T09:17:33Z</time>
      </trkpt>
      <trkpt lat="44.1499" lon="4.59051">
        <ele>130.6</ele>
        <time>2019-06-01T09:17:34Z</time>
      </trkpt>
      <trkpt lat="44.14986" lon="4.5905">
        <ele>130.7</ele>
        <time>2019-06-01T09:17:35Z</time>
      </trkpt>
      <trkpt lat="44.14983" lon="4.59049">
        <ele>130.8</ele>
        <time>2019-06-01T09:17:36Z</time>
      </trkpt>
      <trkpt lat="44.1498" lon="4.59047">
        <ele>130.8</ele>
        <time>2019-06-01T09:17:38Z</time>
      </trkpt>
      <trkpt lat="44.14976" lon="4.59045">
        <ele>130.9</ele>
        <time>2019-06-01T09:17:40Z</time>
      </trkpt>
      <trkpt lat="44.14972" lon="4.59043">
        <ele>131</ele>
        <time>2019-06-01T09:17:41Z</time>
      </trkpt>
      <trkpt lat="44.14969" lon="4.59041">
        <ele>131</ele>
        <time>2019-06-01T09:17:42Z</time>
      </trkpt>
      <trkpt lat="44.14966" lon="4.5904">
        <ele>131.1</ele>
        <time>2019-06-01T09:17:43Z</time>
      </trkpt>
      <trkpt lat="44.14963" lon="4.59039">
        <ele>131.1</ele>
        <time>2019-06-01T09:17:44Z</time>
      </trkpt>
      <trkpt lat="44.1496" lon="4.59038">
        <ele>131.1</ele>
        <time>2019-06-01T09:17:45Z</time>
      </trkpt>
      <trkpt lat="44.14957" lon="4.59037">
        <ele>131.1</ele>
        <time>2019-06-01T09:17:46Z</time>
      </trkpt>
      <trkpt lat="44.14954" lon="4.59037">
        <ele>131.2</ele>
        <time>2019-06-01T09:17:47Z</time>
      </trkpt>
      <trkpt lat="44.14948" lon="4.59035">
        <ele>131.2</ele>
        <time>2019-06-01T09:17:49Z</time>
      </trkpt>
      <trkpt lat="44.14945" lon="4.59034">
        <ele>131.3</ele>
        <time>2019-06-01T09:17:50Z</time>
      </trkpt>
      <trkpt lat="44.14941" lon="4.59034">
        <ele>131.3</ele>
        <time>2019-06-01T09:17:52Z</time>
      </trkpt>
      <trkpt lat="44.14938" lon="4.59033">
        <ele>131.3</ele>
        <time>2019-06-01T09:17:56Z</time>
      </trkpt>
      <trkpt lat="44.14935" lon="4.5903">
        <ele>131.3</ele>
        <time>2019-06-01T09:18:00Z</time>
      </trkpt>
      <trkpt lat="44.14932" lon="4.59029">
        <ele>131.3</ele>
        <time>2019-06-01T09:18:03Z</time>
      </trkpt>
      <trkpt lat="44.1493" lon="4.59026">
        <ele>131.4</ele>
        <time>2019-06-01T09:18:06Z</time>
      </trkpt>
      <trkpt lat="44.14926" lon="4.59024">
        <ele>131.4</ele>
        <time>2019-06-01T09:18:08Z</time>
      </trkpt>
      <trkpt lat="44.14923" lon="4.59023">
        <ele>131.4</ele>
        <time>2019-06-01T09:18:09Z</time>
      </trkpt>
      <trkpt lat="44.14919" lon="4.59021">
        <ele>131.4</ele>
        <time>2019-06-01T09:18:10Z</time>
      </trkpt>
      <trkpt lat="44.14916" lon="4.59019">
        <ele>131.4</ele>
        <time>2019-06-01T09:18:11Z</time>
      </trkpt>
      <trkpt lat="44.14911" lon="4.59016">
        <ele>131.5</ele>
        <time>2019-06-01T09:18:13Z</time>
      </trkpt>
      <trkpt lat="44.14908" lon="4.59014">
        <ele>131.5</ele>
        <time>2019-06-01T09:18:14Z</time>
      </trkpt>
      <trkpt lat="44.14905" lon="4.59011">
        <ele>131.5</ele>
        <time>2019-06-01T09:18:15Z</time>
      </trkpt>
      <trkpt lat="44.14901" lon="4.59009">
        <ele>131.5</ele>
        <time>2019-06-01T09:18:16Z</time>
      </trkpt>
      <trkpt lat="44.14898" lon="4.59007">
        <ele>131.5</ele>
        <time>2019-06-01T09:18:17Z</time>
      </trkpt>
      <trkpt lat="44.14895" lon="4.59006">
        <ele>131.5</ele>
        <time>2019-06-01T09:18:18Z</time>
      </trkpt>
      <trkpt lat="44.14891" lon="4.59005">
        <ele>131.5</ele>
        <time>2019-06-01T09:18:19Z</time>
      </trkpt>
      <trkpt lat="44.14887" lon="4.59003">
        <ele>131.5</ele>
        <time>2019-06-01T09:18:20Z</time>
      </trkpt>
      <trkpt lat="44.14884" lon="4.59002">
        <ele>131.5</ele>
        <time>2019-06-01T09:18:21Z</time>
      </trkpt>
      <trkpt lat="44.1488" lon="4.59001">
        <ele>131.5</ele>
        <time>2019-06-01T09:18:22Z</time>
      </trkpt>
      <trkpt lat="44.14877" lon="4.59">
        <ele>131.5</ele>
        <time>2019-06-01T09:18:23Z</time>
      </trkpt>
      <trkpt lat="44.14874" lon="4.58998">
        <ele>131.5</ele>
        <time>2019-06-01T09:18:24Z</time>
      </trkpt>
      <trkpt lat="44.1487" lon="4.58995">
        <ele>131.5</ele>
        <time>2019-06-01T09:18:25Z</time>
      </trkpt>
      <trkpt lat="44.14868" lon="4.58993">
        <ele>131.4</ele>
        <time>2019-06-01T09:18:26Z</time>
      </trkpt>
      <trkpt lat="44.14864" lon="4.58989">
        <ele>131.3</ele>
        <time>2019-06-01T09:18:28Z</time>
      </trkpt>
      <trkpt lat="44.14863" lon="4.58985">
        <ele>131.3</ele>
        <time>2019-06-01T09:18:29Z</time>
      </trkpt>
      <trkpt lat="44.14863" lon="4.5898">
        <ele>131.2</ele>
        <time>2019-06-01T09:18:30Z</time>
      </trkpt>
      <trkpt lat="44.14861" lon="4.58975">
        <ele>131.1</ele>
        <time>2019-06-01T09:18:32Z</time>
      </trkpt>
      <trkpt lat="44.14858" lon="4.58973">
        <ele>131</ele>
        <time>2019-06-01T09:18:33Z</time>
      </trkpt>
      <trkpt lat="44.14853" lon="4.58971">
        <ele>131</ele>
        <time>2019-06-01T09:18:34Z</time>
      </trkpt>
      <trkpt lat="44.14849" lon="4.58969">
        <ele>131</ele>
        <time>2019-06-01T09:18:35Z</time>
      </trkpt>
      <trkpt lat="44.14844" lon="4.58969">
        <ele>131.1</ele>
        <time>2019-06-01T09:18:36Z</time>
      </trkpt>
      <trkpt lat="44.14838" lon="4.58968">
        <ele>131.1</ele>
        <time>2019-06-01T09:18:37Z</time>
      </trkpt>
      <trkpt lat="44.14833" lon="4.58968">
        <ele>131.4</ele>
        <time>2019-06-01T09:18:38Z</time>
      </trkpt>
      <trkpt lat="44.14819" lon="4.58968">
        <ele>132</ele>
        <time>2019-06-01T09:18:39Z</time>
      </trkpt>
      <trkpt lat="44.14815" lon="4.58967">
        <ele>132.2</ele>
        <time>2019-06-01T09:18:40Z</time>
      </trkpt>
      <trkpt lat="44.14812" lon="4.58965">
        <ele>132.3</ele>
        <time>2019-06-01T09:18:41Z</time>
      </trkpt>
      <trkpt lat="44.14808" lon="4.58963">
        <ele>132.5</ele>
        <time>2019-06-01T09:18:42Z</time>
      </trkpt>
      <trkpt lat="44.14805" lon="4.58958">
        <ele>132.7</ele>
        <time>2019-06-01T09:18:44Z</time>
      </trkpt>
      <trkpt lat="44.14804" lon="4.58952">
        <ele>132.8</ele>
        <time>2019-06-01T09:18:46Z</time>
      </trkpt>
      <trkpt lat="44.14802" lon="4.58953">
        <ele>133</ele>
        <time>2019-06-01T09:18:47Z</time>
      </trkpt>
      <trkpt lat="44.14797" lon="4.58946">
        <ele>133.3</ele>
        <time>2019-06-01T09:18:49Z</time>
      </trkpt>
      <trkpt lat="44.14794" lon="4.58942">
        <ele>133.4</ele>
        <time>2019-06-01T09:18:50Z</time>
      </trkpt>
      <trkpt lat="44.14793" lon="4.58939">
        <ele>133.6</ele>
        <time>2019-06-01T09:18:51Z</time>
      </trkpt>
      <trkpt lat="44.1479" lon="4.58936">
        <ele>133.7</ele>
        <time>2019-06-01T09:18:52Z</time>
      </trkpt>
      <trkpt lat="44.14786" lon="4.58931">
        <ele>134</ele>
        <time>2019-06-01T09:18:53Z</time>
      </trkpt>
      <trkpt lat="44.1478" lon="4.58923">
        <ele>134.2</ele>
        <time>2019-06-01T09:18:54Z</time>
      </trkpt>
      <trkpt lat="44.14776" lon="4.58917">
        <ele>134.3</ele>
        <time>2019-06-01T09:18:55Z</time>
      </trkpt>
      <trkpt lat="44.14772" lon="4.58907">
        <ele>134.5</ele>
        <time>2019-06-01T09:18:56Z</time>
      </trkpt>
      <trkpt lat="44.14767" lon="4.58899">
        <ele>134.5</ele>
        <time>2019-06-01T09:18:58Z</time>
      </trkpt>
      <trkpt lat="44.14765" lon="4.58895">
        <ele>134.5</ele>
        <time>2019-06-01T09:19:00Z</time>
      </trkpt>
      <trkpt lat="44.14763" lon="4.58891">
        <ele>134.5</ele>
        <time>2019-06-01T09:19:02Z</time>
      </trkpt>
      <trkpt lat="44.1476" lon="4.58888">
        <ele>134.5</ele>
        <time>2019-06-01T09:19:07Z</time>
      </trkpt>
      <trkpt lat="44.14758" lon="4.58888">
        <ele>134.6</ele>
        <time>2019-06-01T09:19:11Z</time>
      </trkpt>
      <trkpt lat="44.14756" lon="4.58891">
        <ele>134.6</ele>
        <time>2019-06-01T09:19:16Z</time>
      </trkpt>
      <trkpt lat="44.14754" lon="4.58893">
        <ele>134.6</ele>
        <time>2019-06-01T09:19:28Z</time>
      </trkpt>
      <trkpt lat="44.14753" lon="4.58898">
        <ele>134.7</ele>
        <time>2019-06-01T09:19:30Z</time>
      </trkpt>
      <trkpt lat="44.14752" lon="4.58904">
        <ele>135.1</ele>
        <time>2019-06-01T09:19:32Z</time>
      </trkpt>
      <trkpt lat="44.14753" lon="4.58908">
        <ele>135.4</ele>
        <time>2019-06-01T09:19:34Z</time>
      </trkpt>
      <trkpt lat="44.14753" lon="4.58912">
        <ele>135.7</ele>
        <time>2019-06-01T09:19:36Z</time>
      </trkpt>
      <trkpt lat="44.14753" lon="4.58917">
        <ele>136.1</ele>
        <time>2019-06-01T09:19:39Z</time>
      </trkpt>
      <trkpt lat="44.14753" lon="4.58922">
        <ele>136.4</ele>
        <time>2019-06-01T09:19:41Z</time>
      </trkpt>
      <trkpt lat="44.14752" lon="4.58926">
        <ele>136.7</ele>
        <time>2019-06-01T09:19:43Z</time>
      </trkpt>
      <trkpt lat="44.1475" lon="4.58932">
        <ele>137.2</ele>
        <time>2019-06-01T09:19:45Z</time>
      </trkpt>
      <trkpt lat="44.14749" lon="4.58936">
        <ele>137.5</ele>
        <time>2019-06-01T09:19:47Z</time>
      </trkpt>
      <trkpt lat="44.1475" lon="4.58941">
        <ele>137.9</ele>
        <time>2019-06-01T09:19:49Z</time>
      </trkpt>
      <trkpt lat="44.1475" lon="4.58945">
        <ele>138.2</ele>
        <time>2019-06-01T09:19:51Z</time>
      </trkpt>
      <trkpt lat="44.14748" lon="4.58951">
        <ele>138.7</ele>
        <time>2019-06-01T09:19:53Z</time>
      </trkpt>
      <trkpt lat="44.14746" lon="4.58956">
        <ele>139</ele>
        <time>2019-06-01T09:19:55Z</time>
      </trkpt>
      <trkpt lat="44.14742" lon="4.5896">
        <ele>139.2</ele>
        <time>2019-06-01T09:19:57Z</time>
      </trkpt>
      <trkpt lat="44.14741" lon="4.58965">
        <ele>139.5</ele>
        <time>2019-06-01T09:19:59Z</time>
      </trkpt>
      <trkpt lat="44.14741" lon="4.58969">
        <ele>139.7</ele>
        <time>2019-06-01T09:20:01Z</time>
      </trkpt>
      <trkpt lat="44.14742" lon="4.58972">
        <ele>139.9</ele>
        <time>2019-06-01T09:20:16Z</time>
      </trkpt>
      <trkpt lat="44.14744" lon="4.58976">
        <ele>140.2</ele>
        <time>2019-06-01T09:20:21Z</time>
      </trkpt>
      <trkpt lat="44.14746" lon="4.58974">
        <ele>140.5</ele>
        <time>2019-06-01T09:20:28Z</time>
      </trkpt>
      <trkpt lat="44.14748" lon="4.58968">
        <ele>140</ele>
        <time>2019-06-01T09:20:30Z</time>
      </trkpt>
      <trkpt lat="44.1475" lon="4.58963">
        <ele>139.7</ele>
        <time>2019-06-01T09:20:31Z</time>
      </trkpt>
      <trkpt lat="44.14751" lon="4.58957">
        <ele>139.3</ele>
        <time>2019-06-01T09:20:32Z</time>
      </trkpt>
      <trkpt lat="44.14752" lon="4.58951">
        <ele>138.9</ele>
        <time>2019-06-01T09:20:33Z</time>
      </trkpt>
      <trkpt lat="44.14752" lon="4.58938">
        <ele>138</ele>
        <time>2019-06-01T09:20:34Z</time>
      </trkpt>
      <trkpt lat="44.14753" lon="4.5893">
        <ele>137.4</ele>
        <time>2019-06-01T09:20:35Z</time>
      </trkpt>
      <trkpt lat="44.14754" lon="4.58923">
        <ele>136.8</ele>
        <time>2019-06-01T09:20:36Z</time>
      </trkpt>
      <trkpt lat="44.14756" lon="4.58916">
        <ele>136.2</ele>
        <time>2019-06-01T09:20:37Z</time>
      </trkpt>
      <trkpt lat="44.14757" lon="4.5891">
        <ele>135.6</ele>
        <time>2019-06-01T09:20:38Z</time>
      </trkpt>
      <trkpt lat="44.14758" lon="4.58903">
        <ele>135.1</ele>
        <time>2019-06-01T09:20:39Z</time>
      </trkpt>
      <trkpt lat="44.14757" lon="4.58898">
        <ele>134.6</ele>
        <time>2019-06-01T09:20:40Z</time>
      </trkpt>
      <trkpt lat="44.14755" lon="4.58893">
        <ele>134.4</ele>
        <time>2019-06-01T09:20:41Z</time>
      </trkpt>
      <trkpt lat="44.14756" lon="4.58889">
        <ele>134.3</ele>
        <time>2019-06-01T09:20:42Z</time>
      </trkpt>
      <trkpt lat="44.14754" lon="4.58886">
        <ele>134.3</ele>
        <time>2019-06-01T09:20:43Z</time>
      </trkpt>
      <trkpt lat="44.14752" lon="4.58882">
        <ele>134.2</ele>
        <time>2019-06-01T09:20:44Z</time>
      </trkpt>
      <trkpt lat="44.1475" lon="4.58875">
        <ele>134.1</ele>
        <time>2019-06-01T09:20:46Z</time>
      </trkpt>
      <trkpt lat="44.14747" lon="4.58873">
        <ele>134</ele>
        <time>2019-06-01T09:20:47Z</time>
      </trkpt>
      <trkpt lat="44.14743" lon="4.58874">
        <ele>134</ele>
        <time>2019-06-01T09:20:48Z</time>
      </trkpt>
      <trkpt lat="44.1474" lon="4.58872">
        <ele>133.9</ele>
        <time>2019-06-01T09:20:49Z</time>
      </trkpt>
      <trkpt lat="44.14735" lon="4.58871">
        <ele>133.7</ele>
        <time>2019-06-01T09:20:50Z</time>
      </trkpt>
      <trkpt lat="44.14731" lon="4.58868">
        <ele>133.6</ele>
        <time>2019-06-01T09:20:51Z</time>
      </trkpt>
      <trkpt lat="44.14728" lon="4.58865">
        <ele>133.5</ele>
        <time>2019-06-01T09:20:52Z</time>
      </trkpt>
      <trkpt lat="44.14726" lon="4.58861">
        <ele>133.4</ele>
        <time>2019-06-01T09:20:53Z</time>
      </trkpt>
      <trkpt lat="44.14724" lon="4.58856">
        <ele>133.3</ele>
        <time>2019-06-01T09:20:54Z</time>
      </trkpt>
      <trkpt lat="44.14724" lon="4.5885">
        <ele>133.1</ele>
        <time>2019-06-01T09:20:55Z</time>
      </trkpt>
      <trkpt lat="44.14724" lon="4.58844">
        <ele>132.9</ele>
        <time>2019-06-01T09:20:56Z</time>
      </trkpt>
      <trkpt lat="44.14724" lon="4.58838">
        <ele>132.7</ele>
        <time>2019-06-01T09:20:57Z</time>
      </trkpt>
      <trkpt lat="44.14723" lon="4.58833">
        <ele>132.5</ele>
        <time>2019-06-01T09:20:58Z</time>
      </trkpt>
      <trkpt lat="44.14722" lon="4.58828">
        <ele>132.4</ele>
        <time>2019-06-01T09:20:59Z</time>
      </trkpt>
      <trkpt lat="44.14719" lon="4.58824">
        <ele>132.3</ele>
        <time>2019-06-01T09:21:00Z</time>
      </trkpt>
      <trkpt lat="44.14717" lon="4.58819">
        <ele>132.1</ele>
        <time>2019-06-01T09:21:01Z</time>
      </trkpt>
      <trkpt lat="44.14711" lon="4.58812">
        <ele>131.9</ele>
        <time>2019-06-01T09:21:02Z</time>
      </trkpt>
      <trkpt lat="44.14709" lon="4.58807">
        <ele>131.7</ele>
        <time>2019-06-01T09:21:03Z</time>
      </trkpt>
      <trkpt lat="44.14707" lon="4.58801">
        <ele>131.5</ele>
        <time>2019-06-01T09:21:04Z</time>
      </trkpt>
      <trkpt lat="44.14707" lon="4.58795">
        <ele>131.3</ele>
        <time>2019-06-01T09:21:05Z</time>
      </trkpt>
      <trkpt lat="44.14705" lon="4.58789">
        <ele>131.2</ele>
        <time>2019-06-01T09:21:06Z</time>
      </trkpt>
      <trkpt lat="44.14704" lon="4.58782">
        <ele>131.1</ele>
        <time>2019-06-01T09:21:07Z</time>
      </trkpt>
      <trkpt lat="44.14702" lon="4.58776">
        <ele>131</ele>
        <time>2019-06-01T09:21:08Z</time>
      </trkpt>
      <trkpt lat="44.14701" lon="4.58769">
        <ele>131</ele>
        <time>2019-06-01T09:21:09Z</time>
      </trkpt>
      <trkpt lat="44.14698" lon="4.58764">
        <ele>130.9</ele>
        <time>2019-06-01T09:21:10Z</time>
      </trkpt>
      <trkpt lat="44.14696" lon="4.58758">
        <ele>130.8</ele>
        <time>2019-06-01T09:21:11Z</time>
      </trkpt>
      <trkpt lat="44.14693" lon="4.58753">
        <ele>130.8</ele>
        <time>2019-06-01T09:21:12Z</time>
      </trkpt>
      <trkpt lat="44.1469" lon="4.58751">
        <ele>130.8</ele>
        <time>2019-06-01T09:21:13Z</time>
      </trkpt>
      <trkpt lat="44.14684" lon="4.58751">
        <ele>130.8</ele>
        <time>2019-06-01T09:21:14Z</time>
      </trkpt>
      <trkpt lat="44.14678" lon="4.58749">
        <ele>130.7</ele>
        <time>2019-06-01T09:21:15Z</time>
      </trkpt>
      <trkpt lat="44.14673" lon="4.58748">
        <ele>130.7</ele>
        <time>2019-06-01T09:21:16Z</time>
      </trkpt>
      <trkpt lat="44.14668" lon="4.58746">
        <ele>130.7</ele>
        <time>2019-06-01T09:21:17Z</time>
      </trkpt>
      <trkpt lat="44.14664" lon="4.58744">
        <ele>130.7</ele>
        <time>2019-06-01T09:21:18Z</time>
      </trkpt>
      <trkpt lat="44.1466" lon="4.58742">
        <ele>130.7</ele>
        <time>2019-06-01T09:21:19Z</time>
      </trkpt>
      <trkpt lat="44.14655" lon="4.58737">
        <ele>130.7</ele>
        <time>2019-06-01T09:21:20Z</time>
      </trkpt>
      <trkpt lat="44.14651" lon="4.58734">
        <ele>130.7</ele>
        <time>2019-06-01T09:21:21Z</time>
      </trkpt>
      <trkpt lat="44.14648" lon="4.58731">
        <ele>130.7</ele>
        <time>2019-06-01T09:21:22Z</time>
      </trkpt>
      <trkpt lat="44.14641" lon="4.58727">
        <ele>130.9</ele>
        <time>2019-06-01T09:21:24Z</time>
      </trkpt>
      <trkpt lat="44.14636" lon="4.58724">
        <ele>130.9</ele>
        <time>2019-06-01T09:21:25Z</time>
      </trkpt>
      <trkpt lat="44.14631" lon="4.58724">
        <ele>130.9</ele>
        <time>2019-06-01T09:21:26Z</time>
      </trkpt>
      <trkpt lat="44.14627" lon="4.58722">
        <ele>131</ele>
        <time>2019-06-01T09:21:27Z</time>
      </trkpt>
      <trkpt lat="44.14622" lon="4.5872">
        <ele>131</ele>
        <time>2019-06-01T09:21:28Z</time>
      </trkpt>
      <trkpt lat="44.14616" lon="4.58719">
        <ele>131.1</ele>
        <time>2019-06-01T09:21:29Z</time>
      </trkpt>
      <trkpt lat="44.14614" lon="4.58722">
        <ele>131.1</ele>
        <time>2019-06-01T09:21:30Z</time>
      </trkpt>
      <trkpt lat="44.1461" lon="4.5872">
        <ele>131.2</ele>
        <time>2019-06-01T09:21:31Z</time>
      </trkpt>
      <trkpt lat="44.14607" lon="4.58717">
        <ele>131.3</ele>
        <time>2019-06-01T09:21:32Z</time>
      </trkpt>
      <trkpt lat="44.14603" lon="4.58717">
        <ele>131.4</ele>
        <time>2019-06-01T09:21:33Z</time>
      </trkpt>
      <trkpt lat="44.146" lon="4.58713">
        <ele>131.5</ele>
        <time>2019-06-01T09:21:34Z</time>
      </trkpt>
      <trkpt lat="44.14596" lon="4.5871">
        <ele>131.6</ele>
        <time>2019-06-01T09:21:35Z</time>
      </trkpt>
      <trkpt lat="44.14594" lon="4.58706">
        <ele>131.7</ele>
        <time>2019-06-01T09:21:36Z</time>
      </trkpt>
      <trkpt lat="44.1459" lon="4.58703">
        <ele>131.9</ele>
        <time>2019-06-01T09:21:37Z</time>
      </trkpt>
      <trkpt lat="44.14587" lon="4.58698">
        <ele>132</ele>
        <time>2019-06-01T09:21:38Z</time>
      </trkpt>
      <trkpt lat="44.14584" lon="4.58694">
        <ele>132.1</ele>
        <time>2019-06-01T09:21:39Z</time>
      </trkpt>
      <trkpt lat="44.14581" lon="4.5869">
        <ele>132.2</ele>
        <time>2019-06-01T09:21:40Z</time>
      </trkpt>
      <trkpt lat="44.14578" lon="4.58687">
        <ele>132.3</ele>
        <time>2019-06-01T09:21:41Z</time>
      </trkpt>
      <trkpt lat="44.14576" lon="4.58683">
        <ele>132.4</ele>
        <time>2019-06-01T09:21:42Z</time>
      </trkpt>
      <trkpt lat="44.14573" lon="4.58679">
        <ele>132.5</ele>
        <time>2019-06-01T09:21:43Z</time>
      </trkpt>
      <trkpt lat="44.1457" lon="4.58676">
        <ele>132.6</ele>
        <time>2019-06-01T09:21:44Z</time>
      </trkpt>
      <trkpt lat="44.14568" lon="4.58673">
        <ele>132.6</ele>
        <time>2019-06-01T09:21:45Z</time>
      </trkpt>
      <trkpt lat="44.14565" lon="4.5867">
        <ele>132.7</ele>
        <time>2019-06-01T09:21:46Z</time>
      </trkpt>
      <trkpt lat="44.14562" lon="4.58667">
        <ele>132.7</ele>
        <time>2019-06-01T09:21:47Z</time>
      </trkpt>
      <trkpt lat="44.14559" lon="4.58664">
        <ele>132.8</ele>
        <time>2019-06-01T09:21:48Z</time>
      </trkpt>
      <trkpt lat="44.14556" lon="4.58661">
        <ele>132.8</ele>
        <time>2019-06-01T09:21:49Z</time>
      </trkpt>
      <trkpt lat="44.14552" lon="4.58658">
        <ele>132.8</ele>
        <time>2019-06-01T09:21:50Z</time>
      </trkpt>
      <trkpt lat="44.14549" lon="4.58656">
        <ele>132.8</ele>
        <time>2019-06-01T09:21:51Z</time>
      </trkpt>
      <trkpt lat="44.14545" lon="4.58653">
        <ele>132.8</ele>
        <time>2019-06-01T09:21:52Z</time>
      </trkpt>
      <trkpt lat="44.14542" lon="4.5865">
        <ele>132.8</ele>
        <time>2019-06-01T09:21:53Z</time>
      </trkpt>
      <trkpt lat="44.14539" lon="4.58647">
        <ele>132.8</ele>
        <time>2019-06-01T09:21:54Z</time>
      </trkpt>
      <trkpt lat="44.14535" lon="4.58643">
        <ele>132.8</ele>
        <time>2019-06-01T09:21:55Z</time>
      </trkpt>
      <trkpt lat="44.14532" lon="4.58639">
        <ele>132.8</ele>
        <time>2019-06-01T09:21:56Z</time>
      </trkpt>
      <trkpt lat="44.14529" lon="4.58635">
        <ele>132.8</ele>
        <time>2019-06-01T09:21:57Z</time>
      </trkpt>
      <trkpt lat="44.14526" lon="4.58631">
        <ele>132.8</ele>
        <time>2019-06-01T09:21:58Z</time>
      </trkpt>
      <trkpt lat="44.14523" lon="4.58628">
        <ele>132.8</ele>
        <time>2019-06-01T09:21:59Z</time>
      </trkpt>
      <trkpt lat="44.1452" lon="4.58624">
        <ele>132.8</ele>
        <time>2019-06-01T09:22:00Z</time>
      </trkpt>
      <trkpt lat="44.14516" lon="4.5862">
        <ele>132.8</ele>
        <time>2019-06-01T09:22:01Z</time>
      </trkpt>
      <trkpt lat="44.14513" lon="4.58616">
        <ele>132.8</ele>
        <time>2019-06-01T09:22:02Z</time>
      </trkpt>
      <trkpt lat="44.14509" lon="4.58612">
        <ele>132.8</ele>
        <time>2019-06-01T09:22:03Z</time>
      </trkpt>
      <trkpt lat="44.14506" lon="4.58608">
        <ele>132.8</ele>
        <time>2019-06-01T09:22:04Z</time>
      </trkpt>
      <trkpt lat="44.14503" lon="4.58604">
        <ele>132.8</ele>
        <time>2019-06-01T09:22:05Z</time>
      </trkpt>
      <trkpt lat="44.145" lon="4.58601">
        <ele>132.8</ele>
        <time>2019-06-01T09:22:06Z</time>
      </trkpt>
      <trkpt lat="44.14496" lon="4.58597">
        <ele>132.8</ele>
        <time>2019-06-01T09:22:07Z</time>
      </trkpt>
      <trkpt lat="44.14493" lon="4.58594">
        <ele>132.8</ele>
        <time>2019-06-01T09:22:08Z</time>
      </trkpt>
      <trkpt lat="44.14489" lon="4.58591">
        <ele>132.8</ele>
        <time>2019-06-01T09:22:09Z</time>
      </trkpt>
      <trkpt lat="44.14486" lon="4.58588">
        <ele>132.8</ele>
        <time>2019-06-01T09:22:10Z</time>
      </trkpt>
      <trkpt lat="44.14482" lon="4.58586">
        <ele>132.8</ele>
        <time>2019-06-01T09:22:11Z</time>
      </trkpt>
      <trkpt lat="44.14479" lon="4.58583">
        <ele>132.8</ele>
        <time>2019-06-01T09:22:12Z</time>
      </trkpt>
      <trkpt lat="44.14475" lon="4.58581">
        <ele>132.8</ele>
        <time>2019-06-01T09:22:13Z</time>
      </trkpt>
      <trkpt lat="44.14472" lon="4.58579">
        <ele>132.8</ele>
        <time>2019-06-01T09:22:14Z</time>
      </trkpt>
      <trkpt lat="44.14469" lon="4.58578">
        <ele>132.8</ele>
        <time>2019-06-01T09:22:15Z</time>
      </trkpt>
      <trkpt lat="44.14466" lon="4.58576">
        <ele>132.8</ele>
        <time>2019-06-01T09:22:16Z</time>
      </trkpt>
      <trkpt lat="44.14463" lon="4.58574">
        <ele>132.8</ele>
        <time>2019-06-01T09:22:17Z</time>
      </trkpt>
      <trkpt lat="44.14461" lon="4.58571">
        <ele>132.8</ele>
        <time>2019-06-01T09:22:18Z</time>
      </trkpt>
      <trkpt lat="44.14459" lon="4.58568">
        <ele>132.8</ele>
        <time>2019-06-01T09:22:19Z</time>
      </trkpt>
      <trkpt lat="44.14458" lon="4.58565">
        <ele>132.8</ele>
        <time>2019-06-01T09:22:20Z</time>
      </trkpt>
      <trkpt lat="44.14456" lon="4.58561">
        <ele>132.8</ele>
        <time>2019-06-01T09:22:21Z</time>
      </trkpt>
      <trkpt lat="44.14455" lon="4.58554">
        <ele>132.7</ele>
        <time>2019-06-01T09:22:23Z</time>
      </trkpt>
      <trkpt lat="44.14455" lon="4.58547">
        <ele>132.6</ele>
        <time>2019-06-01T09:22:25Z</time>
      </trkpt>
      <trkpt lat="44.14456" lon="4.58539">
        <ele>132.4</ele>
        <time>2019-06-01T09:22:27Z</time>
      </trkpt>
      <trkpt lat="44.14456" lon="4.58535">
        <ele>132.2</ele>
        <time>2019-06-01T09:22:28Z</time>
      </trkpt>
      <trkpt lat="44.14456" lon="4.5853">
        <ele>132</ele>
        <time>2019-06-01T09:22:29Z</time>
      </trkpt>
      <trkpt lat="44.14456" lon="4.58525">
        <ele>131.9</ele>
        <time>2019-06-01T09:22:30Z</time>
      </trkpt>
      <trkpt lat="44.14456" lon="4.58521">
        <ele>131.7</ele>
        <time>2019-06-01T09:22:31Z</time>
      </trkpt>
      <trkpt lat="44.14455" lon="4.58516">
        <ele>131.5</ele>
        <time>2019-06-01T09:22:32Z</time>
      </trkpt>
      <trkpt lat="44.14455" lon="4.58511">
        <ele>131.4</ele>
        <time>2019-06-01T09:22:33Z</time>
      </trkpt>
      <trkpt lat="44.14454" lon="4.58506">
        <ele>131.3</ele>
        <time>2019-06-01T09:22:34Z</time>
      </trkpt>
      <trkpt lat="44.14453" lon="4.58502">
        <ele>131.1</ele>
        <time>2019-06-01T09:22:35Z</time>
      </trkpt>
      <trkpt lat="44.14451" lon="4.58497">
        <ele>131</ele>
        <time>2019-06-01T09:22:36Z</time>
      </trkpt>
      <trkpt lat="44.14449" lon="4.58492">
        <ele>130.9</ele>
        <time>2019-06-01T09:22:37Z</time>
      </trkpt>
      <trkpt lat="44.14446" lon="4.58488">
        <ele>130.9</ele>
        <time>2019-06-01T09:22:38Z</time>
      </trkpt>
      <trkpt lat="44.14443" lon="4.58484">
        <ele>130.8</ele>
        <time>2019-06-01T09:22:39Z</time>
      </trkpt>
      <trkpt lat="44.1444" lon="4.5848">
        <ele>130.8</ele>
        <time>2019-06-01T09:22:40Z</time>
      </trkpt>
      <trkpt lat="44.14436" lon="4.58477">
        <ele>130.7</ele>
        <time>2019-06-01T09:22:41Z</time>
      </trkpt>
      <trkpt lat="44.14432" lon="4.58473">
        <ele>130.7</ele>
        <time>2019-06-01T09:22:42Z</time>
      </trkpt>
      <trkpt lat="44.14428" lon="4.5847">
        <ele>130.6</ele>
        <time>2019-06-01T09:22:43Z</time>
      </trkpt>
      <trkpt lat="44.14425" lon="4.58466">
        <ele>130.5</ele>
        <time>2019-06-01T09:22:44Z</time>
      </trkpt>
      <trkpt lat="44.14422" lon="4.58462">
        <ele>130.3</ele>
        <time>2019-06-01T09:22:45Z</time>
      </trkpt>
      <trkpt lat="44.14418" lon="4.58457">
        <ele>130.1</ele>
        <time>2019-06-01T09:22:46Z</time>
      </trkpt>
      <trkpt lat="44.14415" lon="4.58453">
        <ele>129.9</ele>
        <time>2019-06-01T09:22:47Z</time>
      </trkpt>
      <trkpt lat="44.14411" lon="4.58453">
        <ele>130.3</ele>
        <time>2019-06-01T09:22:48Z</time>
      </trkpt>
      <trkpt lat="44.14408" lon="4.58454">
        <ele>130.4</ele>
        <time>2019-06-01T09:22:49Z</time>
      </trkpt>
      <trkpt lat="44.14405" lon="4.58454">
        <ele>130.6</ele>
        <time>2019-06-01T09:22:50Z</time>
      </trkpt>
      <trkpt lat="44.14402" lon="4.58458">
        <ele>130.8</ele>
        <time>2019-06-01T09:22:51Z</time>
      </trkpt>
      <trkpt lat="44.14397" lon="4.58461">
        <ele>131.1</ele>
        <time>2019-06-01T09:22:53Z</time>
      </trkpt>
      <trkpt lat="44.14393" lon="4.58462">
        <ele>131.4</ele>
        <time>2019-06-01T09:22:54Z</time>
      </trkpt>
      <trkpt lat="44.1439" lon="4.58464">
        <ele>131.5</ele>
        <time>2019-06-01T09:22:55Z</time>
      </trkpt>
      <trkpt lat="44.14385" lon="4.58467">
        <ele>131.8</ele>
        <time>2019-06-01T09:22:57Z</time>
      </trkpt>
      <trkpt lat="44.14383" lon="4.58467">
        <ele>132</ele>
        <time>2019-06-01T09:22:58Z</time>
      </trkpt>
      <trkpt lat="44.1438" lon="4.58468">
        <ele>132.1</ele>
        <time>2019-06-01T09:22:59Z</time>
      </trkpt>
      <trkpt lat="44.14377" lon="4.58469">
        <ele>132.2</ele>
        <time>2019-06-01T09:23:00Z</time>
      </trkpt>
      <trkpt lat="44.14374" lon="4.58469">
        <ele>132.4</ele>
        <time>2019-06-01T09:23:01Z</time>
      </trkpt>
      <trkpt lat="44.14371" lon="4.5847">
        <ele>132.5</ele>
        <time>2019-06-01T09:23:02Z</time>
      </trkpt>
      <trkpt lat="44.14368" lon="4.58471">
        <ele>132.6</ele>
        <time>2019-06-01T09:23:03Z</time>
      </trkpt>
      <trkpt lat="44.14365" lon="4.58471">
        <ele>132.8</ele>
        <time>2019-06-01T09:23:04Z</time>
      </trkpt>
      <trkpt lat="44.14362" lon="4.58472">
        <ele>132.9</ele>
        <time>2019-06-01T09:23:05Z</time>
      </trkpt>
      <trkpt lat="44.14359" lon="4.58474">
        <ele>133.1</ele>
        <time>2019-06-01T09:23:06Z</time>
      </trkpt>
      <trkpt lat="44.14356" lon="4.58474">
        <ele>133.2</ele>
        <time>2019-06-01T09:23:07Z</time>
      </trkpt>
      <trkpt lat="44.14353" lon="4.58475">
        <ele>133.3</ele>
        <time>2019-06-01T09:23:08Z</time>
      </trkpt>
      <trkpt lat="44.14349" lon="4.58477">
        <ele>133.6</ele>
        <time>2019-06-01T09:23:10Z</time>
      </trkpt>
      <trkpt lat="44.14345" lon="4.58479">
        <ele>133.7</ele>
        <time>2019-06-01T09:23:12Z</time>
      </trkpt>
      <trkpt lat="44.1434" lon="4.58483">
        <ele>133.9</ele>
        <time>2019-06-01T09:23:14Z</time>
      </trkpt>
      <trkpt lat="44.14338" lon="4.58488">
        <ele>134.1</ele>
        <time>2019-06-01T09:23:16Z</time>
      </trkpt>
      <trkpt lat="44.14336" lon="4.58494">
        <ele>134.3</ele>
        <time>2019-06-01T09:23:18Z</time>
      </trkpt>
      <trkpt lat="44.14333" lon="4.585">
        <ele>134.4</ele>
        <time>2019-06-01T09:23:20Z</time>
      </trkpt>
      <trkpt lat="44.14331" lon="4.58506">
        <ele>134.6</ele>
        <time>2019-06-01T09:23:22Z</time>
      </trkpt>
      <trkpt lat="44.14328" lon="4.58513">
        <ele>134.8</ele>
        <time>2019-06-01T09:23:24Z</time>
      </trkpt>
      <trkpt lat="44.14325" lon="4.58515">
        <ele>134.9</ele>
        <time>2019-06-01T09:23:25Z</time>
      </trkpt>
      <trkpt lat="44.14323" lon="4.58516">
        <ele>135</ele>
        <time>2019-06-01T09:23:26Z</time>
      </trkpt>
      <trkpt lat="44.1432" lon="4.58517">
        <ele>135.1</ele>
        <time>2019-06-01T09:23:27Z</time>
      </trkpt>
      <trkpt lat="44.14317" lon="4.58517">
        <ele>135.2</ele>
        <time>2019-06-01T09:23:28Z</time>
      </trkpt>
      <trkpt lat="44.14314" lon="4.58517">
        <ele>135.3</ele>
        <time>2019-06-01T09:23:29Z</time>
      </trkpt>
      <trkpt lat="44.14312" lon="4.58516">
        <ele>135.4</ele>
        <time>2019-06-01T09:23:30Z</time>
      </trkpt>
      <trkpt lat="44.14309" lon="4.58515">
        <ele>135.5</ele>
        <time>2019-06-01T09:23:31Z</time>
      </trkpt>
      <trkpt lat="44.14305" lon="4.58513">
        <ele>135.6</ele>
        <time>2019-06-01T09:23:32Z</time>
      </trkpt>
      <trkpt lat="44.14302" lon="4.58512">
        <ele>135.7</ele>
        <time>2019-06-01T09:23:33Z</time>
      </trkpt>
      <trkpt lat="44.14298" lon="4.58511">
        <ele>135.8</ele>
        <time>2019-06-01T09:23:34Z</time>
      </trkpt>
      <trkpt lat="44.14295" lon="4.5851">
        <ele>135.9</ele>
        <time>2019-06-01T09:23:35Z</time>
      </trkpt>
      <trkpt lat="44.14291" lon="4.58509">
        <ele>136</ele>
        <time>2019-06-01T09:23:36Z</time>
      </trkpt>
      <trkpt lat="44.14288" lon="4.58507">
        <ele>136.1</ele>
        <time>2019-06-01T09:23:37Z</time>
      </trkpt>
      <trkpt lat="44.14285" lon="4.58506">
        <ele>136.1</ele>
        <time>2019-06-01T09:23:38Z</time>
      </trkpt>
      <trkpt lat="44.14282" lon="4.58504">
        <ele>136.2</ele>
        <time>2019-06-01T09:23:39Z</time>
      </trkpt>
      <trkpt lat="44.14279" lon="4.58503">
        <ele>136.3</ele>
        <time>2019-06-01T09:23:40Z</time>
      </trkpt>
      <trkpt lat="44.14275" lon="4.58502">
        <ele>136.3</ele>
        <time>2019-06-01T09:23:41Z</time>
      </trkpt>
      <trkpt lat="44.14273" lon="4.585">
        <ele>136.4</ele>
        <time>2019-06-01T09:23:42Z</time>
      </trkpt>
      <trkpt lat="44.14268" lon="4.58497">
        <ele>136.4</ele>
        <time>2019-06-01T09:23:44Z</time>
      </trkpt>
      <trkpt lat="44.14265" lon="4.58496">
        <ele>136.5</ele>
        <time>2019-06-01T09:23:45Z</time>
      </trkpt>
      <trkpt lat="44.14262" lon="4.58495">
        <ele>136.5</ele>
        <time>2019-06-01T09:23:46Z</time>
      </trkpt>
      <trkpt lat="44.14259" lon="4.58493">
        <ele>136.5</ele>
        <time>2019-06-01T09:23:47Z</time>
      </trkpt>
      <trkpt lat="44.14256" lon="4.58491">
        <ele>136.6</ele>
        <time>2019-06-01T09:23:48Z</time>
      </trkpt>
      <trkpt lat="44.14253" lon="4.5849">
        <ele>136.6</ele>
        <time>2019-06-01T09:23:49Z</time>
      </trkpt>
      <trkpt lat="44.14249" lon="4.58489">
        <ele>136.6</ele>
        <time>2019-06-01T09:23:50Z</time>
      </trkpt>
      <trkpt lat="44.14246" lon="4.58487">
        <ele>136.6</ele>
        <time>2019-06-01T09:23:51Z</time>
      </trkpt>
      <trkpt lat="44.14243" lon="4.58486">
        <ele>136.6</ele>
        <time>2019-06-01T09:23:52Z</time>
      </trkpt>
      <trkpt lat="44.1424" lon="4.58485">
        <ele>136.6</ele>
        <time>2019-06-01T09:23:53Z</time>
      </trkpt>
      <trkpt lat="44.14237" lon="4.58483">
        <ele>136.6</ele>
        <time>2019-06-01T09:23:54Z</time>
      </trkpt>
      <trkpt lat="44.14233" lon="4.58482">
        <ele>136.6</ele>
        <time>2019-06-01T09:23:55Z</time>
      </trkpt>
      <trkpt lat="44.1423" lon="4.58481">
        <ele>136.6</ele>
        <time>2019-06-01T09:23:56Z</time>
      </trkpt>
      <trkpt lat="44.14227" lon="4.5848">
        <ele>136.6</ele>
        <time>2019-06-01T09:23:57Z</time>
      </trkpt>
      <trkpt lat="44.14224" lon="4.58479">
        <ele>136.6</ele>
        <time>2019-06-01T09:23:58Z</time>
      </trkpt>
      <trkpt lat="44.1422" lon="4.58478">
        <ele>136.6</ele>
        <time>2019-06-01T09:23:59Z</time>
      </trkpt>
      <trkpt lat="44.14216" lon="4.58478">
        <ele>136.7</ele>
        <time>2019-06-01T09:24:00Z</time>
      </trkpt>
      <trkpt lat="44.14213" lon="4.58477">
        <ele>136.7</ele>
        <time>2019-06-01T09:24:01Z</time>
      </trkpt>
      <trkpt lat="44.1421" lon="4.58477">
        <ele>136.7</ele>
        <time>2019-06-01T09:24:02Z</time>
      </trkpt>
      <trkpt lat="44.14207" lon="4.58476">
        <ele>136.7</ele>
        <time>2019-06-01T09:24:03Z</time>
      </trkpt>
      <trkpt lat="44.14204" lon="4.58476">
        <ele>136.7</ele>
        <time>2019-06-01T09:24:04Z</time>
      </trkpt>
      <trkpt lat="44.14201" lon="4.58476">
        <ele>136.7</ele>
        <time>2019-06-01T09:24:05Z</time>
      </trkpt>
      <trkpt lat="44.14196" lon="4.58475">
        <ele>136.7</ele>
        <time>2019-06-01T09:24:07Z</time>
      </trkpt>
      <trkpt lat="44.14191" lon="4.58473">
        <ele>136.7</ele>
        <time>2019-06-01T09:24:09Z</time>
      </trkpt>
      <trkpt lat="44.14188" lon="4.58471">
        <ele>136.7</ele>
        <time>2019-06-01T09:24:11Z</time>
      </trkpt>
      <trkpt lat="44.14184" lon="4.58468">
        <ele>136.7</ele>
        <time>2019-06-01T09:24:13Z</time>
      </trkpt>
      <trkpt lat="44.1418" lon="4.58466">
        <ele>136.8</ele>
        <time>2019-06-01T09:24:15Z</time>
      </trkpt>
      <trkpt lat="44.14177" lon="4.58465">
        <ele>136.8</ele>
        <time>2019-06-01T09:24:16Z</time>
      </trkpt>
      <trkpt lat="44.14172" lon="4.58462">
        <ele>136.8</ele>
        <time>2019-06-01T09:24:18Z</time>
      </trkpt>
      <trkpt lat="44.14169" lon="4.58461">
        <ele>136.9</ele>
        <time>2019-06-01T09:24:19Z</time>
      </trkpt>
      <trkpt lat="44.14166" lon="4.5846">
        <ele>136.9</ele>
        <time>2019-06-01T09:24:20Z</time>
      </trkpt>
      <trkpt lat="44.14163" lon="4.58459">
        <ele>136.9</ele>
        <time>2019-06-01T09:24:21Z</time>
      </trkpt>
      <trkpt lat="44.14159" lon="4.58457">
        <ele>136.9</ele>
        <time>2019-06-01T09:24:22Z</time>
      </trkpt>
      <trkpt lat="44.14156" lon="4.58456">
        <ele>136.9</ele>
        <time>2019-06-01T09:24:23Z</time>
      </trkpt>
      <trkpt lat="44.14153" lon="4.58455">
        <ele>137</ele>
        <time>2019-06-01T09:24:24Z</time>
      </trkpt>
      <trkpt lat="44.1415" lon="4.58453">
        <ele>137.1</ele>
        <time>2019-06-01T09:24:25Z</time>
      </trkpt>
      <trkpt lat="44.14146" lon="4.58453">
        <ele>137.2</ele>
        <time>2019-06-01T09:24:27Z</time>
      </trkpt>
      <trkpt lat="44.14143" lon="4.58454">
        <ele>137.2</ele>
        <time>2019-06-01T09:24:29Z</time>
      </trkpt>
      <trkpt lat="44.14144" lon="4.5845">
        <ele>137.3</ele>
        <time>2019-06-01T09:26:37Z</time>
      </trkpt>
      <trkpt lat="44.14142" lon="4.58447">
        <ele>137.3</ele>
        <time>2019-06-01T09:26:41Z</time>
      </trkpt>
      <trkpt lat="44.14139" lon="4.58448">
        <ele>137.4</ele>
        <time>2019-06-01T09:26:44Z</time>
      </trkpt>
      <trkpt lat="44.14142" lon="4.58448">
        <ele>137.4</ele>
        <time>2019-06-01T09:31:49Z</time>
      </trkpt>
      <trkpt lat="44.14143" lon="4.58452">
        <ele>137.5</ele>
        <time>2019-06-01T09:31:53Z</time>
      </trkpt>
      <trkpt lat="44.14143" lon="4.58456">
        <ele>137.5</ele>
        <time>2019-06-01T09:32:36Z</time>
      </trkpt>
      <trkpt lat="44.14144" lon="4.5846">
        <ele>137.6</ele>
        <time>2019-06-01T09:32:50Z</time>
      </trkpt>
      <trkpt lat="44.14145" lon="4.58465">
        <ele>137.6</ele>
        <time>2019-06-01T09:32:53Z</time>
      </trkpt>
      <trkpt lat="44.14148" lon="4.58469">
        <ele>137.8</ele>
        <time>2019-06-01T09:32:55Z</time>
      </trkpt>
      <trkpt lat="44.14153" lon="4.58473">
        <ele>137.9</ele>
        <time>2019-06-01T09:32:57Z</time>
      </trkpt>
      <trkpt lat="44.14158" lon="4.58477">
        <ele>138</ele>
        <time>2019-06-01T09:32:59Z</time>
      </trkpt>
      <trkpt lat="44.14162" lon="4.58479">
        <ele>138.5</ele>
        <time>2019-06-01T09:33:01Z</time>
      </trkpt>
      <trkpt lat="44.14166" lon="4.58479">
        <ele>138</ele>
        <time>2019-06-01T09:33:03Z</time>
      </trkpt>
      <trkpt lat="44.14171" lon="4.58479">
        <ele>137.8</ele>
        <time>2019-06-01T09:33:05Z</time>
      </trkpt>
      <trkpt lat="44.14174" lon="4.5848">
        <ele>137.6</ele>
        <time>2019-06-01T09:33:07Z</time>
      </trkpt>
      <trkpt lat="44.14178" lon="4.5848">
        <ele>137.4</ele>
        <time>2019-06-01T09:33:09Z</time>
      </trkpt>
      <trkpt lat="44.14179" lon="4.58484">
        <ele>137.7</ele>
        <time>2019-06-01T09:33:13Z</time>
      </trkpt>
      <trkpt lat="44.14176" lon="4.58487">
        <ele>138.5</ele>
        <time>2019-06-01T09:33:17Z</time>
      </trkpt>
      <trkpt lat="44.14173" lon="4.5849">
        <ele>138.9</ele>
        <time>2019-06-01T09:33:20Z</time>
      </trkpt>
      <trkpt lat="44.14171" lon="4.58493">
        <ele>139.8</ele>
        <time>2019-06-01T09:33:22Z</time>
      </trkpt>
      <trkpt lat="44.14169" lon="4.58496">
        <ele>140.4</ele>
        <time>2019-06-01T09:33:26Z</time>
      </trkpt>
      <trkpt lat="44.14166" lon="4.58496">
        <ele>140.8</ele>
        <time>2019-06-01T09:33:29Z</time>
      </trkpt>
      <trkpt lat="44.14163" lon="4.58494">
        <ele>140.8</ele>
        <time>2019-06-01T09:33:31Z</time>
      </trkpt>
      <trkpt lat="44.14159" lon="4.58495">
        <ele>141.9</ele>
        <time>2019-06-01T09:33:33Z</time>
      </trkpt>
      <trkpt lat="44.14156" lon="4.58495">
        <ele>142.2</ele>
        <time>2019-06-01T09:33:36Z</time>
      </trkpt>
      <trkpt lat="44.14153" lon="4.58494">
        <ele>142</ele>
        <time>2019-06-01T09:33:41Z</time>
      </trkpt>
      <trkpt lat="44.14149" lon="4.58492">
        <ele>142.3</ele>
        <time>2019-06-01T09:33:44Z</time>
      </trkpt>
      <trkpt lat="44.14146" lon="4.58491">
        <ele>142.6</ele>
        <time>2019-06-01T09:33:47Z</time>
      </trkpt>
      <trkpt lat="44.14141" lon="4.58489">
        <ele>142.5</ele>
        <time>2019-06-01T09:33:49Z</time>
      </trkpt>
      <trkpt lat="44.14137" lon="4.58487">
        <ele>142.7</ele>
        <time>2019-06-01T09:33:51Z</time>
      </trkpt>
      <trkpt lat="44.14135" lon="4.58485">
        <ele>142.5</ele>
        <time>2019-06-01T09:33:53Z</time>
      </trkpt>
      <trkpt lat="44.1413" lon="4.58482">
        <ele>142.7</ele>
        <time>2019-06-01T09:33:55Z</time>
      </trkpt>
      <trkpt lat="44.14126" lon="4.58479">
        <ele>142.4</ele>
        <time>2019-06-01T09:33:57Z</time>
      </trkpt>
      <trkpt lat="44.14122" lon="4.58477">
        <ele>142.3</ele>
        <time>2019-06-01T09:33:59Z</time>
      </trkpt>
      <trkpt lat="44.14118" lon="4.58474">
        <ele>142.5</ele>
        <time>2019-06-01T09:34:01Z</time>
      </trkpt>
      <trkpt lat="44.14114" lon="4.5847">
        <ele>142.2</ele>
        <time>2019-06-01T09:34:03Z</time>
      </trkpt>
      <trkpt lat="44.1411" lon="4.58468">
        <ele>142.1</ele>
        <time>2019-06-01T09:34:05Z</time>
      </trkpt>
      <trkpt lat="44.14106" lon="4.58471">
        <ele>142.8</ele>
        <time>2019-06-01T09:34:07Z</time>
      </trkpt>
      <trkpt lat="44.14105" lon="4.58477">
        <ele>143.3</ele>
        <time>2019-06-01T09:34:09Z</time>
      </trkpt>
      <trkpt lat="44.14105" lon="4.58482">
        <ele>144.2</ele>
        <time>2019-06-01T09:34:11Z</time>
      </trkpt>
      <trkpt lat="44.14107" lon="4.58487">
        <ele>144.7</ele>
        <time>2019-06-01T09:34:13Z</time>
      </trkpt>
      <trkpt lat="44.14109" lon="4.58491">
        <ele>145.1</ele>
        <time>2019-06-01T09:34:15Z</time>
      </trkpt>
      <trkpt lat="44.14113" lon="4.58495">
        <ele>145.1</ele>
        <time>2019-06-01T09:34:17Z</time>
      </trkpt>
      <trkpt lat="44.14116" lon="4.58499">
        <ele>145.5</ele>
        <time>2019-06-01T09:34:19Z</time>
      </trkpt>
      <trkpt lat="44.14119" lon="4.58503">
        <ele>145.9</ele>
        <time>2019-06-01T09:34:21Z</time>
      </trkpt>
      <trkpt lat="44.14121" lon="4.58508">
        <ele>146.8</ele>
        <time>2019-06-01T09:34:23Z</time>
      </trkpt>
      <trkpt lat="44.14122" lon="4.58513">
        <ele>147.3</ele>
        <time>2019-06-01T09:34:25Z</time>
      </trkpt>
      <trkpt lat="44.14121" lon="4.58519">
        <ele>147.8</ele>
        <time>2019-06-01T09:34:27Z</time>
      </trkpt>
      <trkpt lat="44.14119" lon="4.58524">
        <ele>148.5</ele>
        <time>2019-06-01T09:34:29Z</time>
      </trkpt>
      <trkpt lat="44.14118" lon="4.58529">
        <ele>149.5</ele>
        <time>2019-06-01T09:34:31Z</time>
      </trkpt>
      <trkpt lat="44.14116" lon="4.58534">
        <ele>150.1</ele>
        <time>2019-06-01T09:34:33Z</time>
      </trkpt>
      <trkpt lat="44.14115" lon="4.58537">
        <ele>150.2</ele>
        <time>2019-06-01T09:34:35Z</time>
      </trkpt>
      <trkpt lat="44.14114" lon="4.58543">
        <ele>151.1</ele>
        <time>2019-06-01T09:34:37Z</time>
      </trkpt>
      <trkpt lat="44.14112" lon="4.58548">
        <ele>151.6</ele>
        <time>2019-06-01T09:34:39Z</time>
      </trkpt>
      <trkpt lat="44.14111" lon="4.58552">
        <ele>152.2</ele>
        <time>2019-06-01T09:34:41Z</time>
      </trkpt>
      <trkpt lat="44.1411" lon="4.58556">
        <ele>152.8</ele>
        <time>2019-06-01T09:34:43Z</time>
      </trkpt>
      <trkpt lat="44.14108" lon="4.58562">
        <ele>153.4</ele>
        <time>2019-06-01T09:34:45Z</time>
      </trkpt>
      <trkpt lat="44.14107" lon="4.58566">
        <ele>154.1</ele>
        <time>2019-06-01T09:34:48Z</time>
      </trkpt>
      <trkpt lat="44.14105" lon="4.58569">
        <ele>154.6</ele>
        <time>2019-06-01T09:34:54Z</time>
      </trkpt>
      <trkpt lat="44.14102" lon="4.58569">
        <ele>154.9</ele>
        <time>2019-06-01T09:34:57Z</time>
      </trkpt>
      <trkpt lat="44.141" lon="4.58571">
        <ele>155.1</ele>
        <time>2019-06-01T09:35:01Z</time>
      </trkpt>
      <trkpt lat="44.14097" lon="4.58569">
        <ele>155.3</ele>
        <time>2019-06-01T09:35:05Z</time>
      </trkpt>
      <trkpt lat="44.14095" lon="4.58568">
        <ele>155.5</ele>
        <time>2019-06-01T09:35:09Z</time>
      </trkpt>
      <trkpt lat="44.14092" lon="4.58567">
        <ele>155.3</ele>
        <time>2019-06-01T09:35:18Z</time>
      </trkpt>
      <trkpt lat="44.14089" lon="4.58567">
        <ele>155.6</ele>
        <time>2019-06-01T09:35:23Z</time>
      </trkpt>
      <trkpt lat="44.14086" lon="4.58569">
        <ele>156.4</ele>
        <time>2019-06-01T09:35:26Z</time>
      </trkpt>
      <trkpt lat="44.14084" lon="4.58573">
        <ele>157</ele>
        <time>2019-06-01T09:35:29Z</time>
      </trkpt>
      <trkpt lat="44.14081" lon="4.58577">
        <ele>157.2</ele>
        <time>2019-06-01T09:35:32Z</time>
      </trkpt>
      <trkpt lat="44.14077" lon="4.58578">
        <ele>157.4</ele>
        <time>2019-06-01T09:35:34Z</time>
      </trkpt>
      <trkpt lat="44.14074" lon="4.58578">
        <ele>157.7</ele>
        <time>2019-06-01T09:35:36Z</time>
      </trkpt>
      <trkpt lat="44.1407" lon="4.58579">
        <ele>158.2</ele>
        <time>2019-06-01T09:35:38Z</time>
      </trkpt>
      <trkpt lat="44.14067" lon="4.5858">
        <ele>158.6</ele>
        <time>2019-06-01T09:35:40Z</time>
      </trkpt>
      <trkpt lat="44.14061" lon="4.58581">
        <ele>159.2</ele>
        <time>2019-06-01T09:35:42Z</time>
      </trkpt>
      <trkpt lat="44.14057" lon="4.58582">
        <ele>159.8</ele>
        <time>2019-06-01T09:35:44Z</time>
      </trkpt>
      <trkpt lat="44.14052" lon="4.58583">
        <ele>160.3</ele>
        <time>2019-06-01T09:35:46Z</time>
      </trkpt>
      <trkpt lat="44.14049" lon="4.58584">
        <ele>160.7</ele>
        <time>2019-06-01T09:35:48Z</time>
      </trkpt>
      <trkpt lat="44.14046" lon="4.58585">
        <ele>161.1</ele>
        <time>2019-06-01T09:35:50Z</time>
      </trkpt>
      <trkpt lat="44.14043" lon="4.58589">
        <ele>161.6</ele>
        <time>2019-06-01T09:35:53Z</time>
      </trkpt>
      <trkpt lat="44.1404" lon="4.58592">
        <ele>162</ele>
        <time>2019-06-01T09:35:55Z</time>
      </trkpt>
      <trkpt lat="44.14037" lon="4.58594">
        <ele>162.5</ele>
        <time>2019-06-01T09:35:57Z</time>
      </trkpt>
      <trkpt lat="44.14034" lon="4.58595">
        <ele>163.1</ele>
        <time>2019-06-01T09:36:00Z</time>
      </trkpt>
      <trkpt lat="44.14031" lon="4.58596">
        <ele>163.6</ele>
        <time>2019-06-01T09:36:03Z</time>
      </trkpt>
      <trkpt lat="44.14027" lon="4.58599">
        <ele>164.5</ele>
        <time>2019-06-01T09:36:05Z</time>
      </trkpt>
      <trkpt lat="44.14025" lon="4.58601">
        <ele>164.9</ele>
        <time>2019-06-01T09:36:07Z</time>
      </trkpt>
      <trkpt lat="44.14022" lon="4.58603">
        <ele>165.4</ele>
        <time>2019-06-01T09:36:09Z</time>
      </trkpt>
      <trkpt lat="44.14019" lon="4.58604">
        <ele>165.8</ele>
        <time>2019-06-01T09:36:11Z</time>
      </trkpt>
      <trkpt lat="44.14015" lon="4.58604">
        <ele>166.1</ele>
        <time>2019-06-01T09:36:13Z</time>
      </trkpt>
      <trkpt lat="44.14012" lon="4.58604">
        <ele>166.7</ele>
        <time>2019-06-01T09:36:15Z</time>
      </trkpt>
      <trkpt lat="44.14008" lon="4.58604">
        <ele>167.5</ele>
        <time>2019-06-01T09:36:17Z</time>
      </trkpt>
      <trkpt lat="44.14004" lon="4.58603">
        <ele>167.9</ele>
        <time>2019-06-01T09:36:19Z</time>
      </trkpt>
      <trkpt lat="44.14001" lon="4.58603">
        <ele>168.4</ele>
        <time>2019-06-01T09:36:22Z</time>
      </trkpt>
      <trkpt lat="44.13999" lon="4.58606">
        <ele>169</ele>
        <time>2019-06-01T09:36:25Z</time>
      </trkpt>
      <trkpt lat="44.13996" lon="4.58608">
        <ele>169.5</ele>
        <time>2019-06-01T09:36:28Z</time>
      </trkpt>
      <trkpt lat="44.13995" lon="4.58611">
        <ele>170</ele>
        <time>2019-06-01T09:36:31Z</time>
      </trkpt>
      <trkpt lat="44.13991" lon="4.58614">
        <ele>170.6</ele>
        <time>2019-06-01T09:36:34Z</time>
      </trkpt>
      <trkpt lat="44.13988" lon="4.58617">
        <ele>170.9</ele>
        <time>2019-06-01T09:36:36Z</time>
      </trkpt>
      <trkpt lat="44.13986" lon="4.58621">
        <ele>171.2</ele>
        <time>2019-06-01T09:36:38Z</time>
      </trkpt>
      <trkpt lat="44.13983" lon="4.58624">
        <ele>171.7</ele>
        <time>2019-06-01T09:36:40Z</time>
      </trkpt>
      <trkpt lat="44.1398" lon="4.58627">
        <ele>172.3</ele>
        <time>2019-06-01T09:36:43Z</time>
      </trkpt>
      <trkpt lat="44.13977" lon="4.5863">
        <ele>172.9</ele>
        <time>2019-06-01T09:36:46Z</time>
      </trkpt>
      <trkpt lat="44.13975" lon="4.58634">
        <ele>173.4</ele>
        <time>2019-06-01T09:36:48Z</time>
      </trkpt>
      <trkpt lat="44.13972" lon="4.58638">
        <ele>174.3</ele>
        <time>2019-06-01T09:36:51Z</time>
      </trkpt>
      <trkpt lat="44.1397" lon="4.58642">
        <ele>175</ele>
        <time>2019-06-01T09:36:53Z</time>
      </trkpt>
      <trkpt lat="44.13968" lon="4.58643">
        <ele>175.6</ele>
        <time>2019-06-01T09:36:55Z</time>
      </trkpt>
      <trkpt lat="44.13965" lon="4.58646">
        <ele>176.1</ele>
        <time>2019-06-01T09:36:57Z</time>
      </trkpt>
      <trkpt lat="44.13963" lon="4.58648">
        <ele>176.4</ele>
        <time>2019-06-01T09:36:59Z</time>
      </trkpt>
      <trkpt lat="44.1396" lon="4.58651">
        <ele>176.9</ele>
        <time>2019-06-01T09:37:02Z</time>
      </trkpt>
      <trkpt lat="44.13957" lon="4.58652">
        <ele>177.4</ele>
        <time>2019-06-01T09:37:04Z</time>
      </trkpt>
      <trkpt lat="44.13956" lon="4.58657">
        <ele>178.1</ele>
        <time>2019-06-01T09:37:09Z</time>
      </trkpt>
      <trkpt lat="44.13953" lon="4.58659">
        <ele>178.7</ele>
        <time>2019-06-01T09:37:11Z</time>
      </trkpt>
      <trkpt lat="44.13949" lon="4.5866">
        <ele>179.3</ele>
        <time>2019-06-01T09:37:13Z</time>
      </trkpt>
      <trkpt lat="44.13945" lon="4.58661">
        <ele>179.9</ele>
        <time>2019-06-01T09:37:15Z</time>
      </trkpt>
      <trkpt lat="44.13941" lon="4.58662">
        <ele>180.5</ele>
        <time>2019-06-01T09:37:19Z</time>
      </trkpt>
      <trkpt lat="44.13938" lon="4.58662">
        <ele>180.9</ele>
        <time>2019-06-01T09:37:22Z</time>
      </trkpt>
      <trkpt lat="44.13935" lon="4.58657">
        <ele>181.2</ele>
        <time>2019-06-01T09:37:27Z</time>
      </trkpt>
      <trkpt lat="44.1393" lon="4.58657">
        <ele>181.6</ele>
        <time>2019-06-01T09:37:29Z</time>
      </trkpt>
      <trkpt lat="44.13927" lon="4.58657">
        <ele>181.9</ele>
        <time>2019-06-01T09:37:31Z</time>
      </trkpt>
      <trkpt lat="44.13923" lon="4.58657">
        <ele>181.9</ele>
        <time>2019-06-01T09:37:33Z</time>
      </trkpt>
      <trkpt lat="44.13918" lon="4.58656">
        <ele>182</ele>
        <time>2019-06-01T09:37:35Z</time>
      </trkpt>
      <trkpt lat="44.13913" lon="4.58655">
        <ele>182.3</ele>
        <time>2019-06-01T09:37:37Z</time>
      </trkpt>
      <trkpt lat="44.13909" lon="4.58654">
        <ele>182.5</ele>
        <time>2019-06-01T09:37:39Z</time>
      </trkpt>
      <trkpt lat="44.13906" lon="4.58653">
        <ele>182.5</ele>
        <time>2019-06-01T09:37:41Z</time>
      </trkpt>
      <trkpt lat="44.13901" lon="4.58652">
        <ele>182.7</ele>
        <time>2019-06-01T09:37:44Z</time>
      </trkpt>
      <trkpt lat="44.13898" lon="4.58652">
        <ele>183</ele>
        <time>2019-06-01T09:37:45Z</time>
      </trkpt>
      <trkpt lat="44.13896" lon="4.58652">
        <ele>183.2</ele>
        <time>2019-06-01T09:37:46Z</time>
      </trkpt>
      <trkpt lat="44.13891" lon="4.58652">
        <ele>183.8</ele>
        <time>2019-06-01T09:37:48Z</time>
      </trkpt>
      <trkpt lat="44.13887" lon="4.58651">
        <ele>184.2</ele>
        <time>2019-06-01T09:37:50Z</time>
      </trkpt>
      <trkpt lat="44.13883" lon="4.58651">
        <ele>184.5</ele>
        <time>2019-06-01T09:37:52Z</time>
      </trkpt>
      <trkpt lat="44.13879" lon="4.58651">
        <ele>184.9</ele>
        <time>2019-06-01T09:37:56Z</time>
      </trkpt>
      <trkpt lat="44.13876" lon="4.58652">
        <ele>185.2</ele>
        <time>2019-06-01T09:38:04Z</time>
      </trkpt>
      <trkpt lat="44.13874" lon="4.58653">
        <ele>185.6</ele>
        <time>2019-06-01T09:38:07Z</time>
      </trkpt>
      <trkpt lat="44.1387" lon="4.58654">
        <ele>185.7</ele>
        <time>2019-06-01T09:38:09Z</time>
      </trkpt>
      <trkpt lat="44.13865" lon="4.58654">
        <ele>185.8</ele>
        <time>2019-06-01T09:38:11Z</time>
      </trkpt>
      <trkpt lat="44.13861" lon="4.58654">
        <ele>185.8</ele>
        <time>2019-06-01T09:38:13Z</time>
      </trkpt>
      <trkpt lat="44.13856" lon="4.58655">
        <ele>185.8</ele>
        <time>2019-06-01T09:38:15Z</time>
      </trkpt>
      <trkpt lat="44.13852" lon="4.58657">
        <ele>185.9</ele>
        <time>2019-06-01T09:38:17Z</time>
      </trkpt>
      <trkpt lat="44.13847" lon="4.58658">
        <ele>186.1</ele>
        <time>2019-06-01T09:38:19Z</time>
      </trkpt>
      <trkpt lat="44.13844" lon="4.58661">
        <ele>186.3</ele>
        <time>2019-06-01T09:38:21Z</time>
      </trkpt>
      <trkpt lat="44.13842" lon="4.58664">
        <ele>186.5</ele>
        <time>2019-06-01T09:38:23Z</time>
      </trkpt>
      <trkpt lat="44.13839" lon="4.58668">
        <ele>186.8</ele>
        <time>2019-06-01T09:38:26Z</time>
      </trkpt>
      <trkpt lat="44.13838" lon="4.58672">
        <ele>187.2</ele>
        <time>2019-06-01T09:38:28Z</time>
      </trkpt>
      <trkpt lat="44.13835" lon="4.58675">
        <ele>187.7</ele>
        <time>2019-06-01T09:38:30Z</time>
      </trkpt>
      <trkpt lat="44.13834" lon="4.58679">
        <ele>188</ele>
        <time>2019-06-01T09:38:32Z</time>
      </trkpt>
      <trkpt lat="44.13835" lon="4.58684">
        <ele>188.5</ele>
        <time>2019-06-01T09:38:35Z</time>
      </trkpt>
      <trkpt lat="44.13835" lon="4.58688">
        <ele>188.6</ele>
        <time>2019-06-01T09:38:37Z</time>
      </trkpt>
      <trkpt lat="44.13836" lon="4.58693">
        <ele>188.8</ele>
        <time>2019-06-01T09:38:40Z</time>
      </trkpt>
      <trkpt lat="44.13839" lon="4.58697">
        <ele>189</ele>
        <time>2019-06-01T09:38:42Z</time>
      </trkpt>
      <trkpt lat="44.13841" lon="4.587">
        <ele>189.1</ele>
        <time>2019-06-01T09:38:45Z</time>
      </trkpt>
      <trkpt lat="44.13843" lon="4.58703">
        <ele>189.2</ele>
        <time>2019-06-01T09:38:47Z</time>
      </trkpt>
      <trkpt lat="44.13846" lon="4.58706">
        <ele>189.3</ele>
        <time>2019-06-01T09:38:50Z</time>
      </trkpt>
      <trkpt lat="44.13848" lon="4.5871">
        <ele>189.4</ele>
        <time>2019-06-01T09:38:53Z</time>
      </trkpt>
      <trkpt lat="44.13849" lon="4.58714">
        <ele>189.4</ele>
        <time>2019-06-01T09:38:55Z</time>
      </trkpt>
      <trkpt lat="44.1385" lon="4.58717">
        <ele>189.4</ele>
        <time>2019-06-01T09:38:57Z</time>
      </trkpt>
      <trkpt lat="44.13851" lon="4.58721">
        <ele>189.5</ele>
        <time>2019-06-01T09:38:59Z</time>
      </trkpt>
      <trkpt lat="44.13853" lon="4.58724">
        <ele>189.7</ele>
        <time>2019-06-01T09:39:01Z</time>
      </trkpt>
      <trkpt lat="44.13855" lon="4.58728">
        <ele>189.9</ele>
        <time>2019-06-01T09:39:03Z</time>
      </trkpt>
      <trkpt lat="44.13857" lon="4.58731">
        <ele>190</ele>
        <time>2019-06-01T09:39:05Z</time>
      </trkpt>
      <trkpt lat="44.13858" lon="4.58735">
        <ele>190.2</ele>
        <time>2019-06-01T09:39:07Z</time>
      </trkpt>
      <trkpt lat="44.13859" lon="4.5874">
        <ele>190.4</ele>
        <time>2019-06-01T09:39:09Z</time>
      </trkpt>
      <trkpt lat="44.13861" lon="4.58744">
        <ele>190.6</ele>
        <time>2019-06-01T09:39:11Z</time>
      </trkpt>
      <trkpt lat="44.13862" lon="4.58747">
        <ele>190.8</ele>
        <time>2019-06-01T09:39:13Z</time>
      </trkpt>
      <trkpt lat="44.13865" lon="4.58752">
        <ele>191</ele>
        <time>2019-06-01T09:39:16Z</time>
      </trkpt>
      <trkpt lat="44.13867" lon="4.58755">
        <ele>191.3</ele>
        <time>2019-06-01T09:39:18Z</time>
      </trkpt>
      <trkpt lat="44.13868" lon="4.58759">
        <ele>191.5</ele>
        <time>2019-06-01T09:39:20Z</time>
      </trkpt>
      <trkpt lat="44.1387" lon="4.58763">
        <ele>191.7</ele>
        <time>2019-06-01T09:39:22Z</time>
      </trkpt>
      <trkpt lat="44.13871" lon="4.58767">
        <ele>191.8</ele>
        <time>2019-06-01T09:39:24Z</time>
      </trkpt>
      <trkpt lat="44.13873" lon="4.58772">
        <ele>192.1</ele>
        <time>2019-06-01T09:39:26Z</time>
      </trkpt>
      <trkpt lat="44.13875" lon="4.58776">
        <ele>192.3</ele>
        <time>2019-06-01T09:39:28Z</time>
      </trkpt>
      <trkpt lat="44.13878" lon="4.5878">
        <ele>192.6</ele>
        <time>2019-06-01T09:39:30Z</time>
      </trkpt>
      <trkpt lat="44.1388" lon="4.58783">
        <ele>192.8</ele>
        <time>2019-06-01T09:39:32Z</time>
      </trkpt>
      <trkpt lat="44.13882" lon="4.58787">
        <ele>193.1</ele>
        <time>2019-06-01T09:39:34Z</time>
      </trkpt>
      <trkpt lat="44.13884" lon="4.5879">
        <ele>193.4</ele>
        <time>2019-06-01T09:39:36Z</time>
      </trkpt>
      <trkpt lat="44.13886" lon="4.58793">
        <ele>193.6</ele>
        <time>2019-06-01T09:39:38Z</time>
      </trkpt>
      <trkpt lat="44.13888" lon="4.58798">
        <ele>193.8</ele>
        <time>2019-06-01T09:39:40Z</time>
      </trkpt>
      <trkpt lat="44.13889" lon="4.58801">
        <ele>193.9</ele>
        <time>2019-06-01T09:39:43Z</time>
      </trkpt>
      <trkpt lat="44.13891" lon="4.58805">
        <ele>194.1</ele>
        <time>2019-06-01T09:39:49Z</time>
      </trkpt>
      <trkpt lat="44.1389" lon="4.58809">
        <ele>194.4</ele>
        <time>2019-06-01T09:39:52Z</time>
      </trkpt>
      <trkpt lat="44.13889" lon="4.58812">
        <ele>194.8</ele>
        <time>2019-06-01T09:39:55Z</time>
      </trkpt>
      <trkpt lat="44.13888" lon="4.58816">
        <ele>195.1</ele>
        <time>2019-06-01T09:39:57Z</time>
      </trkpt>
      <trkpt lat="44.13886" lon="4.5882">
        <ele>195.5</ele>
        <time>2019-06-01T09:39:59Z</time>
      </trkpt>
      <trkpt lat="44.13884" lon="4.58823">
        <ele>195.7</ele>
        <time>2019-06-01T09:40:01Z</time>
      </trkpt>
      <trkpt lat="44.13882" lon="4.58825">
        <ele>196</ele>
        <time>2019-06-01T09:40:04Z</time>
      </trkpt>
      <trkpt lat="44.1388" lon="4.58831">
        <ele>196.6</ele>
        <time>2019-06-01T09:40:07Z</time>
      </trkpt>
      <trkpt lat="44.13879" lon="4.58836">
        <ele>197</ele>
        <time>2019-06-01T09:40:09Z</time>
      </trkpt>
      <trkpt lat="44.13877" lon="4.5884">
        <ele>197.4</ele>
        <time>2019-06-01T09:40:11Z</time>
      </trkpt>
      <trkpt lat="44.13874" lon="4.58844">
        <ele>197.9</ele>
        <time>2019-06-01T09:40:14Z</time>
      </trkpt>
      <trkpt lat="44.13871" lon="4.58849">
        <ele>198.3</ele>
        <time>2019-06-01T09:40:29Z</time>
      </trkpt>
      <trkpt lat="44.13869" lon="4.58852">
        <ele>198.6</ele>
        <time>2019-06-01T09:40:31Z</time>
      </trkpt>
      <trkpt lat="44.13867" lon="4.58857">
        <ele>198.9</ele>
        <time>2019-06-01T09:40:33Z</time>
      </trkpt>
      <trkpt lat="44.13866" lon="4.58862">
        <ele>199.2</ele>
        <time>2019-06-01T09:40:35Z</time>
      </trkpt>
      <trkpt lat="44.13862" lon="4.58865">
        <ele>199.6</ele>
        <time>2019-06-01T09:40:38Z</time>
      </trkpt>
      <trkpt lat="44.13858" lon="4.58867">
        <ele>199.9</ele>
        <time>2019-06-01T09:40:40Z</time>
      </trkpt>
      <trkpt lat="44.13854" lon="4.58869">
        <ele>200</ele>
        <time>2019-06-01T09:40:42Z</time>
      </trkpt>
      <trkpt lat="44.13851" lon="4.58873">
        <ele>200.3</ele>
        <time>2019-06-01T09:40:44Z</time>
      </trkpt>
      <trkpt lat="44.13848" lon="4.58877">
        <ele>200.6</ele>
        <time>2019-06-01T09:40:46Z</time>
      </trkpt>
      <trkpt lat="44.13845" lon="4.5888">
        <ele>200.8</ele>
        <time>2019-06-01T09:40:48Z</time>
      </trkpt>
      <trkpt lat="44.13843" lon="4.58884">
        <ele>201</ele>
        <time>2019-06-01T09:40:50Z</time>
      </trkpt>
      <trkpt lat="44.13842" lon="4.58889">
        <ele>201.2</ele>
        <time>2019-06-01T09:40:52Z</time>
      </trkpt>
      <trkpt lat="44.1384" lon="4.58892">
        <ele>201.2</ele>
        <time>2019-06-01T09:40:53Z</time>
      </trkpt>
      <trkpt lat="44.13837" lon="4.58894">
        <ele>201.3</ele>
        <time>2019-06-01T09:40:54Z</time>
      </trkpt>
      <trkpt lat="44.13835" lon="4.58896">
        <ele>201.4</ele>
        <time>2019-06-01T09:40:55Z</time>
      </trkpt>
      <trkpt lat="44.13832" lon="4.58902">
        <ele>201.6</ele>
        <time>2019-06-01T09:40:57Z</time>
      </trkpt>
      <trkpt lat="44.1383" lon="4.58907">
        <ele>201.8</ele>
        <time>2019-06-01T09:40:58Z</time>
      </trkpt>
      <trkpt lat="44.13829" lon="4.58911">
        <ele>202</ele>
        <time>2019-06-01T09:40:59Z</time>
      </trkpt>
      <trkpt lat="44.13829" lon="4.58916">
        <ele>202.2</ele>
        <time>2019-06-01T09:41:00Z</time>
      </trkpt>
      <trkpt lat="44.13828" lon="4.5892">
        <ele>202.4</ele>
        <time>2019-06-01T09:41:01Z</time>
      </trkpt>
      <trkpt lat="44.13827" lon="4.58925">
        <ele>202.6</ele>
        <time>2019-06-01T09:41:02Z</time>
      </trkpt>
      <trkpt lat="44.13826" lon="4.58928">
        <ele>202.8</ele>
        <time>2019-06-01T09:41:03Z</time>
      </trkpt>
      <trkpt lat="44.13825" lon="4.58934">
        <ele>202.9</ele>
        <time>2019-06-01T09:41:05Z</time>
      </trkpt>
      <trkpt lat="44.13823" lon="4.5894">
        <ele>202.9</ele>
        <time>2019-06-01T09:41:07Z</time>
      </trkpt>
      <trkpt lat="44.13824" lon="4.58944">
        <ele>202.8</ele>
        <time>2019-06-01T09:41:10Z</time>
      </trkpt>
      <trkpt lat="44.13823" lon="4.58948">
        <ele>202.7</ele>
        <time>2019-06-01T09:41:13Z</time>
      </trkpt>
      <trkpt lat="44.13822" lon="4.58952">
        <ele>202.7</ele>
        <time>2019-06-01T09:41:15Z</time>
      </trkpt>
      <trkpt lat="44.13821" lon="4.58956">
        <ele>202.7</ele>
        <time>2019-06-01T09:41:19Z</time>
      </trkpt>
      <trkpt lat="44.1382" lon="4.58962">
        <ele>202.7</ele>
        <time>2019-06-01T09:41:22Z</time>
      </trkpt>
      <trkpt lat="44.13821" lon="4.58968">
        <ele>202.5</ele>
        <time>2019-06-01T09:41:24Z</time>
      </trkpt>
      <trkpt lat="44.13819" lon="4.58974">
        <ele>202.4</ele>
        <time>2019-06-01T09:41:26Z</time>
      </trkpt>
      <trkpt lat="44.13815" lon="4.58976">
        <ele>202.3</ele>
        <time>2019-06-01T09:41:28Z</time>
      </trkpt>
      <trkpt lat="44.13811" lon="4.58978">
        <ele>202.2</ele>
        <time>2019-06-01T09:41:30Z</time>
      </trkpt>
      <trkpt lat="44.13808" lon="4.58978">
        <ele>202.2</ele>
        <time>2019-06-01T09:41:32Z</time>
      </trkpt>
      <trkpt lat="44.13804" lon="4.58978">
        <ele>202.1</ele>
        <time>2019-06-01T09:41:34Z</time>
      </trkpt>
      <trkpt lat="44.13801" lon="4.58979">
        <ele>201.9</ele>
        <time>2019-06-01T09:41:36Z</time>
      </trkpt>
      <trkpt lat="44.13799" lon="4.58981">
        <ele>201.9</ele>
        <time>2019-06-01T09:41:38Z</time>
      </trkpt>
      <trkpt lat="44.13797" lon="4.58985">
        <ele>202</ele>
        <time>2019-06-01T09:41:41Z</time>
      </trkpt>
      <trkpt lat="44.13796" lon="4.5899">
        <ele>202.2</ele>
        <time>2019-06-01T09:41:44Z</time>
      </trkpt>
      <trkpt lat="44.13796" lon="4.58995">
        <ele>202.4</ele>
        <time>2019-06-01T09:41:47Z</time>
      </trkpt>
      <trkpt lat="44.13792" lon="4.58995">
        <ele>202.6</ele>
        <time>2019-06-01T09:41:51Z</time>
      </trkpt>
      <trkpt lat="44.13789" lon="4.58995">
        <ele>202.9</ele>
        <time>2019-06-01T09:41:53Z</time>
      </trkpt>
      <trkpt lat="44.13786" lon="4.58995">
        <ele>203.2</ele>
        <time>2019-06-01T09:41:55Z</time>
      </trkpt>
      <trkpt lat="44.13783" lon="4.58997">
        <ele>203.5</ele>
        <time>2019-06-01T09:41:58Z</time>
      </trkpt>
      <trkpt lat="44.1378" lon="4.58999">
        <ele>203.8</ele>
        <time>2019-06-01T09:42:00Z</time>
      </trkpt>
      <trkpt lat="44.13776" lon="4.59001">
        <ele>204.2</ele>
        <time>2019-06-01T09:42:02Z</time>
      </trkpt>
      <trkpt lat="44.13772" lon="4.59002">
        <ele>204.5</ele>
        <time>2019-06-01T09:42:04Z</time>
      </trkpt>
      <trkpt lat="44.1377" lon="4.59004">
        <ele>204.7</ele>
        <time>2019-06-01T09:42:06Z</time>
      </trkpt>
      <trkpt lat="44.13766" lon="4.59003">
        <ele>205.2</ele>
        <time>2019-06-01T09:42:08Z</time>
      </trkpt>
      <trkpt lat="44.13762" lon="4.59002">
        <ele>205.7</ele>
        <time>2019-06-01T09:42:10Z</time>
      </trkpt>
      <trkpt lat="44.13758" lon="4.59002">
        <ele>206.3</ele>
        <time>2019-06-01T09:42:12Z</time>
      </trkpt>
      <trkpt lat="44.13753" lon="4.59004">
        <ele>206.9</ele>
        <time>2019-06-01T09:42:14Z</time>
      </trkpt>
      <trkpt lat="44.13748" lon="4.59006">
        <ele>207.2</ele>
        <time>2019-06-01T09:42:16Z</time>
      </trkpt>
      <trkpt lat="44.13745" lon="4.59007">
        <ele>207.5</ele>
        <time>2019-06-01T09:42:18Z</time>
      </trkpt>
      <trkpt lat="44.1374" lon="4.59009">
        <ele>208.1</ele>
        <time>2019-06-01T09:42:20Z</time>
      </trkpt>
      <trkpt lat="44.13735" lon="4.59009">
        <ele>208.7</ele>
        <time>2019-06-01T09:42:22Z</time>
      </trkpt>
      <trkpt lat="44.1373" lon="4.59009">
        <ele>209.2</ele>
        <time>2019-06-01T09:42:24Z</time>
      </trkpt>
      <trkpt lat="44.13727" lon="4.59011">
        <ele>209.5</ele>
        <time>2019-06-01T09:42:26Z</time>
      </trkpt>
      <trkpt lat="44.13723" lon="4.59013">
        <ele>209.8</ele>
        <time>2019-06-01T09:42:29Z</time>
      </trkpt>
      <trkpt lat="44.13719" lon="4.59013">
        <ele>210.3</ele>
        <time>2019-06-01T09:42:31Z</time>
      </trkpt>
      <trkpt lat="44.13715" lon="4.59015">
        <ele>210.9</ele>
        <time>2019-06-01T09:42:33Z</time>
      </trkpt>
      <trkpt lat="44.13712" lon="4.59015">
        <ele>211.3</ele>
        <time>2019-06-01T09:42:35Z</time>
      </trkpt>
      <trkpt lat="44.13707" lon="4.59015">
        <ele>211.8</ele>
        <time>2019-06-01T09:42:37Z</time>
      </trkpt>
      <trkpt lat="44.13702" lon="4.59018">
        <ele>212.3</ele>
        <time>2019-06-01T09:42:39Z</time>
      </trkpt>
      <trkpt lat="44.137" lon="4.5902">
        <ele>212.6</ele>
        <time>2019-06-01T09:42:41Z</time>
      </trkpt>
      <trkpt lat="44.13696" lon="4.59024">
        <ele>213.1</ele>
        <time>2019-06-01T09:42:44Z</time>
      </trkpt>
      <trkpt lat="44.13692" lon="4.59027">
        <ele>213.5</ele>
        <time>2019-06-01T09:42:46Z</time>
      </trkpt>
      <trkpt lat="44.13687" lon="4.59028">
        <ele>214</ele>
        <time>2019-06-01T09:42:48Z</time>
      </trkpt>
      <trkpt lat="44.13684" lon="4.59029">
        <ele>214.2</ele>
        <time>2019-06-01T09:42:50Z</time>
      </trkpt>
      <trkpt lat="44.13679" lon="4.5903">
        <ele>214.5</ele>
        <time>2019-06-01T09:42:52Z</time>
      </trkpt>
      <trkpt lat="44.13676" lon="4.59029">
        <ele>214.8</ele>
        <time>2019-06-01T09:42:54Z</time>
      </trkpt>
      <trkpt lat="44.13672" lon="4.59028">
        <ele>215.1</ele>
        <time>2019-06-01T09:42:56Z</time>
      </trkpt>
      <trkpt lat="44.13669" lon="4.59029">
        <ele>215.4</ele>
        <time>2019-06-01T09:42:58Z</time>
      </trkpt>
      <trkpt lat="44.13666" lon="4.5903">
        <ele>215.7</ele>
        <time>2019-06-01T09:43:00Z</time>
      </trkpt>
      <trkpt lat="44.13661" lon="4.59031">
        <ele>216</ele>
        <time>2019-06-01T09:43:02Z</time>
      </trkpt>
      <trkpt lat="44.13658" lon="4.59032">
        <ele>216.1</ele>
        <time>2019-06-01T09:43:03Z</time>
      </trkpt>
      <trkpt lat="44.13655" lon="4.59032">
        <ele>216.1</ele>
        <time>2019-06-01T09:43:04Z</time>
      </trkpt>
      <trkpt lat="44.13651" lon="4.59033">
        <ele>216.6</ele>
        <time>2019-06-01T09:43:06Z</time>
      </trkpt>
      <trkpt lat="44.13646" lon="4.59035">
        <ele>217.1</ele>
        <time>2019-06-01T09:43:08Z</time>
      </trkpt>
      <trkpt lat="44.13641" lon="4.59038">
        <ele>217.3</ele>
        <time>2019-06-01T09:43:10Z</time>
      </trkpt>
      <trkpt lat="44.13637" lon="4.59039">
        <ele>217.5</ele>
        <time>2019-06-01T09:43:11Z</time>
      </trkpt>
      <trkpt lat="44.13634" lon="4.59041">
        <ele>217.8</ele>
        <time>2019-06-01T09:43:12Z</time>
      </trkpt>
      <trkpt lat="44.13631" lon="4.59042">
        <ele>218.1</ele>
        <time>2019-06-01T09:43:13Z</time>
      </trkpt>
      <trkpt lat="44.13628" lon="4.59043">
        <ele>218.2</ele>
        <time>2019-06-01T09:43:14Z</time>
      </trkpt>
      <trkpt lat="44.13624" lon="4.59044">
        <ele>218.3</ele>
        <time>2019-06-01T09:43:16Z</time>
      </trkpt>
      <trkpt lat="44.13621" lon="4.59044">
        <ele>218.4</ele>
        <time>2019-06-01T09:43:18Z</time>
      </trkpt>
      <trkpt lat="44.13617" lon="4.59044">
        <ele>218.5</ele>
        <time>2019-06-01T09:43:20Z</time>
      </trkpt>
      <trkpt lat="44.13613" lon="4.59046">
        <ele>218.7</ele>
        <time>2019-06-01T09:43:23Z</time>
      </trkpt>
      <trkpt lat="44.1361" lon="4.59047">
        <ele>219</ele>
        <time>2019-06-01T09:43:25Z</time>
      </trkpt>
      <trkpt lat="44.13604" lon="4.59047">
        <ele>219.4</ele>
        <time>2019-06-01T09:43:27Z</time>
      </trkpt>
      <trkpt lat="44.136" lon="4.59048">
        <ele>219.8</ele>
        <time>2019-06-01T09:43:28Z</time>
      </trkpt>
      <trkpt lat="44.13597" lon="4.59049">
        <ele>220.1</ele>
        <time>2019-06-01T09:43:29Z</time>
      </trkpt>
      <trkpt lat="44.13593" lon="4.5905">
        <ele>220.3</ele>
        <time>2019-06-01T09:43:30Z</time>
      </trkpt>
      <trkpt lat="44.13589" lon="4.5905">
        <ele>220.6</ele>
        <time>2019-06-01T09:43:31Z</time>
      </trkpt>
      <trkpt lat="44.13586" lon="4.59051">
        <ele>220.9</ele>
        <time>2019-06-01T09:43:32Z</time>
      </trkpt>
      <trkpt lat="44.13582" lon="4.59052">
        <ele>221.1</ele>
        <time>2019-06-01T09:43:33Z</time>
      </trkpt>
      <trkpt lat="44.13579" lon="4.59052">
        <ele>221.2</ele>
        <time>2019-06-01T09:43:34Z</time>
      </trkpt>
      <trkpt lat="44.13576" lon="4.59052">
        <ele>221.4</ele>
        <time>2019-06-01T09:43:35Z</time>
      </trkpt>
      <trkpt lat="44.13573" lon="4.59052">
        <ele>221.6</ele>
        <time>2019-06-01T09:43:36Z</time>
      </trkpt>
      <trkpt lat="44.13569" lon="4.59053">
        <ele>221.8</ele>
        <time>2019-06-01T09:43:37Z</time>
      </trkpt>
      <trkpt lat="44.13566" lon="4.59053">
        <ele>221.8</ele>
        <time>2019-06-01T09:43:38Z</time>
      </trkpt>
      <trkpt lat="44.13562" lon="4.59053">
        <ele>221.7</ele>
        <time>2019-06-01T09:43:39Z</time>
      </trkpt>
      <trkpt lat="44.13558" lon="4.59053">
        <ele>221.8</ele>
        <time>2019-06-01T09:43:40Z</time>
      </trkpt>
      <trkpt lat="44.13555" lon="4.59053">
        <ele>221.9</ele>
        <time>2019-06-01T09:43:41Z</time>
      </trkpt>
      <trkpt lat="44.13551" lon="4.59053">
        <ele>221.8</ele>
        <time>2019-06-01T09:43:42Z</time>
      </trkpt>
      <trkpt lat="44.13547" lon="4.59053">
        <ele>221.7</ele>
        <time>2019-06-01T09:43:43Z</time>
      </trkpt>
      <trkpt lat="44.13543" lon="4.59053">
        <ele>221.5</ele>
        <time>2019-06-01T09:43:44Z</time>
      </trkpt>
      <trkpt lat="44.1354" lon="4.59053">
        <ele>221.4</ele>
        <time>2019-06-01T09:43:45Z</time>
      </trkpt>
      <trkpt lat="44.13536" lon="4.59054">
        <ele>221.2</ele>
        <time>2019-06-01T09:43:46Z</time>
      </trkpt>
      <trkpt lat="44.13533" lon="4.59056">
        <ele>220.8</ele>
        <time>2019-06-01T09:43:47Z</time>
      </trkpt>
      <trkpt lat="44.1353" lon="4.59057">
        <ele>220.5</ele>
        <time>2019-06-01T09:43:48Z</time>
      </trkpt>
      <trkpt lat="44.13525" lon="4.59061">
        <ele>219.9</ele>
        <time>2019-06-01T09:43:50Z</time>
      </trkpt>
      <trkpt lat="44.13522" lon="4.59064">
        <ele>219.5</ele>
        <time>2019-06-01T09:43:51Z</time>
      </trkpt>
      <trkpt lat="44.1352" lon="4.59067">
        <ele>219.1</ele>
        <time>2019-06-01T09:43:52Z</time>
      </trkpt>
      <trkpt lat="44.13517" lon="4.59071">
        <ele>218.7</ele>
        <time>2019-06-01T09:43:53Z</time>
      </trkpt>
      <trkpt lat="44.13515" lon="4.59076">
        <ele>218.2</ele>
        <time>2019-06-01T09:43:54Z</time>
      </trkpt>
      <trkpt lat="44.13513" lon="4.59081">
        <ele>217.6</ele>
        <time>2019-06-01T09:43:55Z</time>
      </trkpt>
      <trkpt lat="44.13511" lon="4.59086">
        <ele>217</ele>
        <time>2019-06-01T09:43:56Z</time>
      </trkpt>
      <trkpt lat="44.13508" lon="4.5909">
        <ele>216.5</ele>
        <time>2019-06-01T09:43:57Z</time>
      </trkpt>
      <trkpt lat="44.13506" lon="4.59095">
        <ele>215.9</ele>
        <time>2019-06-01T09:43:58Z</time>
      </trkpt>
      <trkpt lat="44.13503" lon="4.591">
        <ele>215.3</ele>
        <time>2019-06-01T09:43:59Z</time>
      </trkpt>
      <trkpt lat="44.135" lon="4.59104">
        <ele>214.6</ele>
        <time>2019-06-01T09:44:00Z</time>
      </trkpt>
      <trkpt lat="44.13496" lon="4.59109">
        <ele>213.8</ele>
        <time>2019-06-01T09:44:01Z</time>
      </trkpt>
      <trkpt lat="44.13492" lon="4.59114">
        <ele>213</ele>
        <time>2019-06-01T09:44:02Z</time>
      </trkpt>
      <trkpt lat="44.13488" lon="4.59118">
        <ele>212.2</ele>
        <time>2019-06-01T09:44:03Z</time>
      </trkpt>
      <trkpt lat="44.13484" lon="4.59123">
        <ele>211.6</ele>
        <time>2019-06-01T09:44:04Z</time>
      </trkpt>
      <trkpt lat="44.13481" lon="4.59128">
        <ele>211.1</ele>
        <time>2019-06-01T09:44:05Z</time>
      </trkpt>
      <trkpt lat="44.13478" lon="4.59133">
        <ele>210.8</ele>
        <time>2019-06-01T09:44:06Z</time>
      </trkpt>
      <trkpt lat="44.13475" lon="4.59137">
        <ele>210.6</ele>
        <time>2019-06-01T09:44:07Z</time>
      </trkpt>
      <trkpt lat="44.13472" lon="4.59142">
        <ele>210.6</ele>
        <time>2019-06-01T09:44:08Z</time>
      </trkpt>
      <trkpt lat="44.1347" lon="4.59146">
        <ele>210.5</ele>
        <time>2019-06-01T09:44:09Z</time>
      </trkpt>
      <trkpt lat="44.13467" lon="4.59151">
        <ele>210.4</ele>
        <time>2019-06-01T09:44:10Z</time>
      </trkpt>
      <trkpt lat="44.13466" lon="4.59156">
        <ele>210.3</ele>
        <time>2019-06-01T09:44:11Z</time>
      </trkpt>
      <trkpt lat="44.13465" lon="4.5916">
        <ele>210.3</ele>
        <time>2019-06-01T09:44:12Z</time>
      </trkpt>
      <trkpt lat="44.13464" lon="4.59164">
        <ele>210.2</ele>
        <time>2019-06-01T09:44:13Z</time>
      </trkpt>
      <trkpt lat="44.13464" lon="4.59172">
        <ele>210</ele>
        <time>2019-06-01T09:44:15Z</time>
      </trkpt>
      <trkpt lat="44.13464" lon="4.59176">
        <ele>209.8</ele>
        <time>2019-06-01T09:44:16Z</time>
      </trkpt>
      <trkpt lat="44.13463" lon="4.59181">
        <ele>209.7</ele>
        <time>2019-06-01T09:44:17Z</time>
      </trkpt>
      <trkpt lat="44.13463" lon="4.59186">
        <ele>209.6</ele>
        <time>2019-06-01T09:44:18Z</time>
      </trkpt>
      <trkpt lat="44.13463" lon="4.59191">
        <ele>209.5</ele>
        <time>2019-06-01T09:44:19Z</time>
      </trkpt>
      <trkpt lat="44.13463" lon="4.59196">
        <ele>209.4</ele>
        <time>2019-06-01T09:44:20Z</time>
      </trkpt>
      <trkpt lat="44.13463" lon="4.59202">
        <ele>209.3</ele>
        <time>2019-06-01T09:44:21Z</time>
      </trkpt>
      <trkpt lat="44.13463" lon="4.59209">
        <ele>209.1</ele>
        <time>2019-06-01T09:44:23Z</time>
      </trkpt>
      <trkpt lat="44.13463" lon="4.59213">
        <ele>209.1</ele>
        <time>2019-06-01T09:44:24Z</time>
      </trkpt>
      <trkpt lat="44.13463" lon="4.59218">
        <ele>209</ele>
        <time>2019-06-01T09:44:25Z</time>
      </trkpt>
      <trkpt lat="44.13463" lon="4.59222">
        <ele>208.9</ele>
        <time>2019-06-01T09:44:26Z</time>
      </trkpt>
      <trkpt lat="44.13463" lon="4.59226">
        <ele>208.7</ele>
        <time>2019-06-01T09:44:27Z</time>
      </trkpt>
      <trkpt lat="44.13461" lon="4.59229">
        <ele>208.4</ele>
        <time>2019-06-01T09:44:28Z</time>
      </trkpt>
      <trkpt lat="44.13459" lon="4.59232">
        <ele>208.2</ele>
        <time>2019-06-01T09:44:29Z</time>
      </trkpt>
      <trkpt lat="44.13457" lon="4.59234">
        <ele>207.8</ele>
        <time>2019-06-01T09:44:30Z</time>
      </trkpt>
      <trkpt lat="44.13454" lon="4.59236">
        <ele>207.9</ele>
        <time>2019-06-01T09:44:31Z</time>
      </trkpt>
      <trkpt lat="44.1345" lon="4.59237">
        <ele>208.1</ele>
        <time>2019-06-01T09:44:32Z</time>
      </trkpt>
      <trkpt lat="44.13447" lon="4.59238">
        <ele>208.2</ele>
        <time>2019-06-01T09:44:33Z</time>
      </trkpt>
      <trkpt lat="44.13443" lon="4.59238">
        <ele>208.4</ele>
        <time>2019-06-01T09:44:34Z</time>
      </trkpt>
      <trkpt lat="44.13438" lon="4.59239">
        <ele>208.6</ele>
        <time>2019-06-01T09:44:36Z</time>
      </trkpt>
      <trkpt lat="44.13435" lon="4.5924">
        <ele>208.7</ele>
        <time>2019-06-01T09:44:37Z</time>
      </trkpt>
      <trkpt lat="44.13431" lon="4.59241">
        <ele>208.9</ele>
        <time>2019-06-01T09:44:39Z</time>
      </trkpt>
      <trkpt lat="44.13426" lon="4.59242">
        <ele>209.1</ele>
        <time>2019-06-01T09:44:41Z</time>
      </trkpt>
      <trkpt lat="44.13422" lon="4.59242">
        <ele>209.3</ele>
        <time>2019-06-01T09:44:43Z</time>
      </trkpt>
      <trkpt lat="44.13419" lon="4.59244">
        <ele>209.5</ele>
        <time>2019-06-01T09:44:45Z</time>
      </trkpt>
      <trkpt lat="44.13416" lon="4.59247">
        <ele>209.8</ele>
        <time>2019-06-01T09:44:47Z</time>
      </trkpt>
      <trkpt lat="44.13415" lon="4.59252">
        <ele>209.8</ele>
        <time>2019-06-01T09:44:49Z</time>
      </trkpt>
      <trkpt lat="44.13416" lon="4.59258">
        <ele>209.5</ele>
        <time>2019-06-01T09:44:51Z</time>
      </trkpt>
      <trkpt lat="44.13418" lon="4.59265">
        <ele>209.2</ele>
        <time>2019-06-01T09:44:53Z</time>
      </trkpt>
      <trkpt lat="44.13419" lon="4.5927">
        <ele>209</ele>
        <time>2019-06-01T09:44:55Z</time>
      </trkpt>
      <trkpt lat="44.13421" lon="4.59274">
        <ele>208.8</ele>
        <time>2019-06-01T09:44:57Z</time>
      </trkpt>
      <trkpt lat="44.13423" lon="4.59277">
        <ele>208.7</ele>
        <time>2019-06-01T09:44:59Z</time>
      </trkpt>
      <trkpt lat="44.13426" lon="4.59279">
        <ele>208.5</ele>
        <time>2019-06-01T09:45:01Z</time>
      </trkpt>
      <trkpt lat="44.13428" lon="4.59284">
        <ele>208.5</ele>
        <time>2019-06-01T09:45:03Z</time>
      </trkpt>
      <trkpt lat="44.13429" lon="4.59287">
        <ele>208.4</ele>
        <time>2019-06-01T09:45:05Z</time>
      </trkpt>
      <trkpt lat="44.1343" lon="4.59291">
        <ele>208.3</ele>
        <time>2019-06-01T09:45:07Z</time>
      </trkpt>
      <trkpt lat="44.13429" lon="4.59295">
        <ele>208.3</ele>
        <time>2019-06-01T09:45:11Z</time>
      </trkpt>
      <trkpt lat="44.13432" lon="4.59297">
        <ele>208.3</ele>
        <time>2019-06-01T09:45:14Z</time>
      </trkpt>
      <trkpt lat="44.13435" lon="4.59301">
        <ele>208.3</ele>
        <time>2019-06-01T09:45:16Z</time>
      </trkpt>
      <trkpt lat="44.13437" lon="4.59306">
        <ele>208.2</ele>
        <time>2019-06-01T09:45:18Z</time>
      </trkpt>
      <trkpt lat="44.1344" lon="4.5931">
        <ele>208.2</ele>
        <time>2019-06-01T09:45:20Z</time>
      </trkpt>
      <trkpt lat="44.13442" lon="4.59313">
        <ele>208.2</ele>
        <time>2019-06-01T09:45:21Z</time>
      </trkpt>
      <trkpt lat="44.13446" lon="4.59316">
        <ele>208.1</ele>
        <time>2019-06-01T09:45:23Z</time>
      </trkpt>
      <trkpt lat="44.13449" lon="4.59319">
        <ele>208.1</ele>
        <time>2019-06-01T09:45:26Z</time>
      </trkpt>
      <trkpt lat="44.13452" lon="4.59322">
        <ele>208.1</ele>
        <time>2019-06-01T09:45:28Z</time>
      </trkpt>
      <trkpt lat="44.13456" lon="4.59326">
        <ele>208</ele>
        <time>2019-06-01T09:45:30Z</time>
      </trkpt>
      <trkpt lat="44.13458" lon="4.59329">
        <ele>208</ele>
        <time>2019-06-01T09:45:31Z</time>
      </trkpt>
      <trkpt lat="44.13461" lon="4.59332">
        <ele>208</ele>
        <time>2019-06-01T09:45:32Z</time>
      </trkpt>
      <trkpt lat="44.13464" lon="4.59334">
        <ele>208</ele>
        <time>2019-06-01T09:45:33Z</time>
      </trkpt>
      <trkpt lat="44.13467" lon="4.59336">
        <ele>208</ele>
        <time>2019-06-01T09:45:34Z</time>
      </trkpt>
      <trkpt lat="44.1347" lon="4.59339">
        <ele>207.9</ele>
        <time>2019-06-01T09:45:35Z</time>
      </trkpt>
      <trkpt lat="44.13472" lon="4.59343">
        <ele>207.9</ele>
        <time>2019-06-01T09:45:36Z</time>
      </trkpt>
      <trkpt lat="44.13475" lon="4.59347">
        <ele>207.9</ele>
        <time>2019-06-01T09:45:37Z</time>
      </trkpt>
      <trkpt lat="44.13478" lon="4.59351">
        <ele>207.9</ele>
        <time>2019-06-01T09:45:38Z</time>
      </trkpt>
      <trkpt lat="44.13481" lon="4.59356">
        <ele>207.9</ele>
        <time>2019-06-01T09:45:39Z</time>
      </trkpt>
      <trkpt lat="44.13484" lon="4.59361">
        <ele>207.8</ele>
        <time>2019-06-01T09:45:40Z</time>
      </trkpt>
      <trkpt lat="44.13485" lon="4.59366">
        <ele>207.7</ele>
        <time>2019-06-01T09:45:41Z</time>
      </trkpt>
      <trkpt lat="44.13486" lon="4.5937">
        <ele>207.6</ele>
        <time>2019-06-01T09:45:42Z</time>
      </trkpt>
      <trkpt lat="44.13488" lon="4.59374">
        <ele>207.4</ele>
        <time>2019-06-01T09:45:43Z</time>
      </trkpt>
      <trkpt lat="44.1349" lon="4.59378">
        <ele>207.3</ele>
        <time>2019-06-01T09:45:44Z</time>
      </trkpt>
      <trkpt lat="44.13491" lon="4.59382">
        <ele>207.1</ele>
        <time>2019-06-01T09:45:45Z</time>
      </trkpt>
      <trkpt lat="44.13492" lon="4.59389">
        <ele>206.8</ele>
        <time>2019-06-01T09:45:47Z</time>
      </trkpt>
      <trkpt lat="44.13491" lon="4.59396">
        <ele>206.4</ele>
        <time>2019-06-01T09:45:49Z</time>
      </trkpt>
      <trkpt lat="44.13489" lon="4.59399">
        <ele>206.1</ele>
        <time>2019-06-01T09:45:50Z</time>
      </trkpt>
      <trkpt lat="44.13487" lon="4.59409">
        <ele>205.5</ele>
        <time>2019-06-01T09:45:51Z</time>
      </trkpt>
      <trkpt lat="44.13488" lon="4.59419">
        <ele>205.1</ele>
        <time>2019-06-01T09:45:52Z</time>
      </trkpt>
      <trkpt lat="44.13485" lon="4.59427">
        <ele>204.7</ele>
        <time>2019-06-01T09:45:53Z</time>
      </trkpt>
      <trkpt lat="44.13485" lon="4.59439">
        <ele>204.3</ele>
        <time>2019-06-01T09:45:54Z</time>
      </trkpt>
      <trkpt lat="44.13483" lon="4.59449">
        <ele>203.9</ele>
        <time>2019-06-01T09:45:55Z</time>
      </trkpt>
      <trkpt lat="44.13482" lon="4.59456">
        <ele>203.5</ele>
        <time>2019-06-01T09:45:56Z</time>
      </trkpt>
      <trkpt lat="44.13481" lon="4.59465">
        <ele>202.8</ele>
        <time>2019-06-01T09:45:57Z</time>
      </trkpt>
      <trkpt lat="44.13479" lon="4.5947">
        <ele>202.4</ele>
        <time>2019-06-01T09:45:58Z</time>
      </trkpt>
      <trkpt lat="44.13481" lon="4.59476">
        <ele>201.5</ele>
        <time>2019-06-01T09:45:59Z</time>
      </trkpt>
      <trkpt lat="44.13482" lon="4.5948">
        <ele>201.3</ele>
        <time>2019-06-01T09:46:00Z</time>
      </trkpt>
      <trkpt lat="44.13484" lon="4.59485">
        <ele>201.2</ele>
        <time>2019-06-01T09:46:01Z</time>
      </trkpt>
      <trkpt lat="44.13488" lon="4.59487">
        <ele>201</ele>
        <time>2019-06-01T09:46:02Z</time>
      </trkpt>
      <trkpt lat="44.13491" lon="4.5949">
        <ele>200.9</ele>
        <time>2019-06-01T09:46:03Z</time>
      </trkpt>
      <trkpt lat="44.13497" lon="4.59496">
        <ele>200.5</ele>
        <time>2019-06-01T09:46:04Z</time>
      </trkpt>
      <trkpt lat="44.135" lon="4.59499">
        <ele>200.4</ele>
        <time>2019-06-01T09:46:05Z</time>
      </trkpt>
      <trkpt lat="44.13503" lon="4.59504">
        <ele>200.2</ele>
        <time>2019-06-01T09:46:06Z</time>
      </trkpt>
      <trkpt lat="44.13509" lon="4.59509">
        <ele>199.9</ele>
        <time>2019-06-01T09:46:07Z</time>
      </trkpt>
      <trkpt lat="44.13514" lon="4.5951">
        <ele>199.7</ele>
        <time>2019-06-01T09:46:08Z</time>
      </trkpt>
      <trkpt lat="44.13521" lon="4.59512">
        <ele>199.4</ele>
        <time>2019-06-01T09:46:09Z</time>
      </trkpt>
      <trkpt lat="44.13526" lon="4.59513">
        <ele>199.2</ele>
        <time>2019-06-01T09:46:10Z</time>
      </trkpt>
      <trkpt lat="44.13534" lon="4.59513">
        <ele>198.9</ele>
        <time>2019-06-01T09:46:11Z</time>
      </trkpt>
      <trkpt lat="44.13537" lon="4.59511">
        <ele>198.7</ele>
        <time>2019-06-01T09:46:12Z</time>
      </trkpt>
      <trkpt lat="44.13543" lon="4.59509">
        <ele>198.5</ele>
        <time>2019-06-01T09:46:13Z</time>
      </trkpt>
      <trkpt lat="44.13548" lon="4.59507">
        <ele>198.3</ele>
        <time>2019-06-01T09:46:14Z</time>
      </trkpt>
      <trkpt lat="44.13554" lon="4.59508">
        <ele>198</ele>
        <time>2019-06-01T09:46:15Z</time>
      </trkpt>
      <trkpt lat="44.13559" lon="4.5951">
        <ele>197.8</ele>
        <time>2019-06-01T09:46:16Z</time>
      </trkpt>
      <trkpt lat="44.13563" lon="4.59512">
        <ele>197.6</ele>
        <time>2019-06-01T09:46:17Z</time>
      </trkpt>
      <trkpt lat="44.13567" lon="4.59516">
        <ele>197.4</ele>
        <time>2019-06-01T09:46:18Z</time>
      </trkpt>
      <trkpt lat="44.1357" lon="4.5952">
        <ele>197.2</ele>
        <time>2019-06-01T09:46:19Z</time>
      </trkpt>
      <trkpt lat="44.13573" lon="4.59526">
        <ele>196.9</ele>
        <time>2019-06-01T09:46:20Z</time>
      </trkpt>
      <trkpt lat="44.13575" lon="4.59532">
        <ele>196.6</ele>
        <time>2019-06-01T09:46:21Z</time>
      </trkpt>
      <trkpt lat="44.13578" lon="4.59537">
        <ele>196.3</ele>
        <time>2019-06-01T09:46:22Z</time>
      </trkpt>
      <trkpt lat="44.13581" lon="4.59545">
        <ele>195.8</ele>
        <time>2019-06-01T09:46:23Z</time>
      </trkpt>
      <trkpt lat="44.13583" lon="4.59552">
        <ele>195.3</ele>
        <time>2019-06-01T09:46:24Z</time>
      </trkpt>
      <trkpt lat="44.13585" lon="4.59559">
        <ele>194.9</ele>
        <time>2019-06-01T09:46:25Z</time>
      </trkpt>
      <trkpt lat="44.13587" lon="4.59566">
        <ele>194.3</ele>
        <time>2019-06-01T09:46:26Z</time>
      </trkpt>
      <trkpt lat="44.1359" lon="4.59572">
        <ele>193.9</ele>
        <time>2019-06-01T09:46:27Z</time>
      </trkpt>
      <trkpt lat="44.13592" lon="4.59579">
        <ele>193.3</ele>
        <time>2019-06-01T09:46:28Z</time>
      </trkpt>
      <trkpt lat="44.13596" lon="4.59585">
        <ele>192.7</ele>
        <time>2019-06-01T09:46:29Z</time>
      </trkpt>
      <trkpt lat="44.136" lon="4.59592">
        <ele>192.1</ele>
        <time>2019-06-01T09:46:30Z</time>
      </trkpt>
      <trkpt lat="44.13603" lon="4.59599">
        <ele>191.8</ele>
        <time>2019-06-01T09:46:31Z</time>
      </trkpt>
      <trkpt lat="44.13606" lon="4.59606">
        <ele>191.4</ele>
        <time>2019-06-01T09:46:32Z</time>
      </trkpt>
      <trkpt lat="44.13612" lon="4.59612">
        <ele>190.7</ele>
        <time>2019-06-01T09:46:33Z</time>
      </trkpt>
      <trkpt lat="44.13617" lon="4.5962">
        <ele>190</ele>
        <time>2019-06-01T09:46:34Z</time>
      </trkpt>
      <trkpt lat="44.13622" lon="4.59626">
        <ele>189.6</ele>
        <time>2019-06-01T09:46:35Z</time>
      </trkpt>
      <trkpt lat="44.13628" lon="4.59631">
        <ele>189.1</ele>
        <time>2019-06-01T09:46:36Z</time>
      </trkpt>
      <trkpt lat="44.13632" lon="4.59638">
        <ele>188.7</ele>
        <time>2019-06-01T09:46:37Z</time>
      </trkpt>
      <trkpt lat="44.13634" lon="4.59646">
        <ele>188.1</ele>
        <time>2019-06-01T09:46:38Z</time>
      </trkpt>
      <trkpt lat="44.13636" lon="4.59656">
        <ele>187.4</ele>
        <time>2019-06-01T09:46:39Z</time>
      </trkpt>
      <trkpt lat="44.13637" lon="4.59665">
        <ele>186.7</ele>
        <time>2019-06-01T09:46:40Z</time>
      </trkpt>
      <trkpt lat="44.13638" lon="4.59675">
        <ele>186.1</ele>
        <time>2019-06-01T09:46:41Z</time>
      </trkpt>
      <trkpt lat="44.1364" lon="4.59684">
        <ele>185.5</ele>
        <time>2019-06-01T09:46:42Z</time>
      </trkpt>
      <trkpt lat="44.13642" lon="4.59691">
        <ele>185.1</ele>
        <time>2019-06-01T09:46:43Z</time>
      </trkpt>
      <trkpt lat="44.13645" lon="4.59699">
        <ele>184.6</ele>
        <time>2019-06-01T09:46:44Z</time>
      </trkpt>
      <trkpt lat="44.13647" lon="4.59706">
        <ele>184.2</ele>
        <time>2019-06-01T09:46:45Z</time>
      </trkpt>
      <trkpt lat="44.13649" lon="4.59714">
        <ele>183.8</ele>
        <time>2019-06-01T09:46:46Z</time>
      </trkpt>
      <trkpt lat="44.13651" lon="4.59721">
        <ele>183.4</ele>
        <time>2019-06-01T09:46:47Z</time>
      </trkpt>
      <trkpt lat="44.13651" lon="4.59731">
        <ele>183</ele>
        <time>2019-06-01T09:46:48Z</time>
      </trkpt>
      <trkpt lat="44.13651" lon="4.5974">
        <ele>182.7</ele>
        <time>2019-06-01T09:46:49Z</time>
      </trkpt>
      <trkpt lat="44.13652" lon="4.59748">
        <ele>182.5</ele>
        <time>2019-06-01T09:46:50Z</time>
      </trkpt>
      <trkpt lat="44.13653" lon="4.59756">
        <ele>182.2</ele>
        <time>2019-06-01T09:46:51Z</time>
      </trkpt>
      <trkpt lat="44.13656" lon="4.59765">
        <ele>182</ele>
        <time>2019-06-01T09:46:52Z</time>
      </trkpt>
      <trkpt lat="44.13658" lon="4.59773">
        <ele>181.8</ele>
        <time>2019-06-01T09:46:53Z</time>
      </trkpt>
      <trkpt lat="44.13662" lon="4.59782">
        <ele>181.7</ele>
        <time>2019-06-01T09:46:54Z</time>
      </trkpt>
      <trkpt lat="44.13666" lon="4.59789">
        <ele>181.6</ele>
        <time>2019-06-01T09:46:55Z</time>
      </trkpt>
      <trkpt lat="44.13671" lon="4.59795">
        <ele>181.6</ele>
        <time>2019-06-01T09:46:56Z</time>
      </trkpt>
      <trkpt lat="44.13676" lon="4.59803">
        <ele>181.5</ele>
        <time>2019-06-01T09:46:57Z</time>
      </trkpt>
      <trkpt lat="44.13685" lon="4.59806">
        <ele>181.4</ele>
        <time>2019-06-01T09:46:58Z</time>
      </trkpt>
      <trkpt lat="44.13691" lon="4.59812">
        <ele>181.3</ele>
        <time>2019-06-01T09:46:59Z</time>
      </trkpt>
      <trkpt lat="44.13697" lon="4.59816">
        <ele>181.3</ele>
        <time>2019-06-01T09:47:00Z</time>
      </trkpt>
      <trkpt lat="44.13704" lon="4.59821">
        <ele>181.2</ele>
        <time>2019-06-01T09:47:01Z</time>
      </trkpt>
      <trkpt lat="44.1371" lon="4.59826">
        <ele>181.1</ele>
        <time>2019-06-01T09:47:02Z</time>
      </trkpt>
      <trkpt lat="44.13715" lon="4.5983">
        <ele>180.9</ele>
        <time>2019-06-01T09:47:03Z</time>
      </trkpt>
      <trkpt lat="44.13722" lon="4.59833">
        <ele>180.7</ele>
        <time>2019-06-01T09:47:04Z</time>
      </trkpt>
      <trkpt lat="44.13728" lon="4.59838">
        <ele>180.6</ele>
        <time>2019-06-01T09:47:05Z</time>
      </trkpt>
      <trkpt lat="44.13735" lon="4.59843">
        <ele>180.2</ele>
        <time>2019-06-01T09:47:06Z</time>
      </trkpt>
      <trkpt lat="44.13741" lon="4.59847">
        <ele>179.8</ele>
        <time>2019-06-01T09:47:07Z</time>
      </trkpt>
      <trkpt lat="44.13746" lon="4.59852">
        <ele>179.4</ele>
        <time>2019-06-01T09:47:08Z</time>
      </trkpt>
      <trkpt lat="44.13751" lon="4.59859">
        <ele>178.9</ele>
        <time>2019-06-01T09:47:09Z</time>
      </trkpt>
      <trkpt lat="44.13755" lon="4.59865">
        <ele>178.4</ele>
        <time>2019-06-01T09:47:10Z</time>
      </trkpt>
      <trkpt lat="44.1376" lon="4.59871">
        <ele>177.9</ele>
        <time>2019-06-01T09:47:11Z</time>
      </trkpt>
      <trkpt lat="44.13763" lon="4.59877">
        <ele>177.4</ele>
        <time>2019-06-01T09:47:12Z</time>
      </trkpt>
      <trkpt lat="44.13766" lon="4.59882">
        <ele>176.9</ele>
        <time>2019-06-01T09:47:13Z</time>
      </trkpt>
      <trkpt lat="44.1377" lon="4.59887">
        <ele>176.5</ele>
        <time>2019-06-01T09:47:14Z</time>
      </trkpt>
      <trkpt lat="44.13773" lon="4.59892">
        <ele>176</ele>
        <time>2019-06-01T09:47:15Z</time>
      </trkpt>
      <trkpt lat="44.13775" lon="4.59898">
        <ele>175.5</ele>
        <time>2019-06-01T09:47:16Z</time>
      </trkpt>
      <trkpt lat="44.13779" lon="4.59902">
        <ele>174.8</ele>
        <time>2019-06-01T09:47:17Z</time>
      </trkpt>
      <trkpt lat="44.13781" lon="4.59911">
        <ele>174</ele>
        <time>2019-06-01T09:47:18Z</time>
      </trkpt>
      <trkpt lat="44.13786" lon="4.59916">
        <ele>173.3</ele>
        <time>2019-06-01T09:47:19Z</time>
      </trkpt>
      <trkpt lat="44.13791" lon="4.59921">
        <ele>172.4</ele>
        <time>2019-06-01T09:47:20Z</time>
      </trkpt>
      <trkpt lat="44.13796" lon="4.59925">
        <ele>171.5</ele>
        <time>2019-06-01T09:47:21Z</time>
      </trkpt>
      <trkpt lat="44.138" lon="4.59928">
        <ele>170.9</ele>
        <time>2019-06-01T09:47:22Z</time>
      </trkpt>
      <trkpt lat="44.13802" lon="4.59931">
        <ele>170.5</ele>
        <time>2019-06-01T09:47:23Z</time>
      </trkpt>
      <trkpt lat="44.13803" lon="4.59936">
        <ele>170.1</ele>
        <time>2019-06-01T09:47:25Z</time>
      </trkpt>
      <trkpt lat="44.138" lon="4.59938">
        <ele>169.4</ele>
        <time>2019-06-01T09:47:28Z</time>
      </trkpt>
      <trkpt lat="44.13797" lon="4.59938">
        <ele>168.8</ele>
        <time>2019-06-01T09:47:30Z</time>
      </trkpt>
      <trkpt lat="44.13794" lon="4.59937">
        <ele>168.6</ele>
        <time>2019-06-01T09:47:31Z</time>
      </trkpt>
      <trkpt lat="44.1379" lon="4.59935">
        <ele>168.5</ele>
        <time>2019-06-01T09:47:32Z</time>
      </trkpt>
      <trkpt lat="44.13786" lon="4.59934">
        <ele>168.3</ele>
        <time>2019-06-01T09:47:33Z</time>
      </trkpt>
      <trkpt lat="44.13783" lon="4.59933">
        <ele>168.2</ele>
        <time>2019-06-01T09:47:34Z</time>
      </trkpt>
      <trkpt lat="44.1378" lon="4.5993">
        <ele>168</ele>
        <time>2019-06-01T09:47:35Z</time>
      </trkpt>
      <trkpt lat="44.13773" lon="4.59931">
        <ele>167.8</ele>
        <time>2019-06-01T09:47:36Z</time>
      </trkpt>
      <trkpt lat="44.13767" lon="4.59932">
        <ele>167.5</ele>
        <time>2019-06-01T09:47:37Z</time>
      </trkpt>
      <trkpt lat="44.1376" lon="4.59929">
        <ele>167.2</ele>
        <time>2019-06-01T09:47:39Z</time>
      </trkpt>
      <trkpt lat="44.13754" lon="4.5993">
        <ele>167</ele>
        <time>2019-06-01T09:47:40Z</time>
      </trkpt>
      <trkpt lat="44.13748" lon="4.59929">
        <ele>166.2</ele>
        <time>2019-06-01T09:47:41Z</time>
      </trkpt>
      <trkpt lat="44.13744" lon="4.59929">
        <ele>165.8</ele>
        <time>2019-06-01T09:47:42Z</time>
      </trkpt>
      <trkpt lat="44.13738" lon="4.59928">
        <ele>165.5</ele>
        <time>2019-06-01T09:47:43Z</time>
      </trkpt>
      <trkpt lat="44.13732" lon="4.59927">
        <ele>165.1</ele>
        <time>2019-06-01T09:47:44Z</time>
      </trkpt>
      <trkpt lat="44.13724" lon="4.59926">
        <ele>164.5</ele>
        <time>2019-06-01T09:47:45Z</time>
      </trkpt>
      <trkpt lat="44.13716" lon="4.59924">
        <ele>163.8</ele>
        <time>2019-06-01T09:47:46Z</time>
      </trkpt>
      <trkpt lat="44.13709" lon="4.59923">
        <ele>163.1</ele>
        <time>2019-06-01T09:47:47Z</time>
      </trkpt>
      <trkpt lat="44.13701" lon="4.59921">
        <ele>162.7</ele>
        <time>2019-06-01T09:47:48Z</time>
      </trkpt>
      <trkpt lat="44.13694" lon="4.59919">
        <ele>162.2</ele>
        <time>2019-06-01T09:47:49Z</time>
      </trkpt>
      <trkpt lat="44.13683" lon="4.59916">
        <ele>161.7</ele>
        <time>2019-06-01T09:47:50Z</time>
      </trkpt>
      <trkpt lat="44.13673" lon="4.59915">
        <ele>161.2</ele>
        <time>2019-06-01T09:47:51Z</time>
      </trkpt>
      <trkpt lat="44.13667" lon="4.59913">
        <ele>160.9</ele>
        <time>2019-06-01T09:47:52Z</time>
      </trkpt>
      <trkpt lat="44.13659" lon="4.59911">
        <ele>160.3</ele>
        <time>2019-06-01T09:47:53Z</time>
      </trkpt>
      <trkpt lat="44.13653" lon="4.59908">
        <ele>160.3</ele>
        <time>2019-06-01T09:47:54Z</time>
      </trkpt>
      <trkpt lat="44.13646" lon="4.59905">
        <ele>159.8</ele>
        <time>2019-06-01T09:47:55Z</time>
      </trkpt>
      <trkpt lat="44.13639" lon="4.59902">
        <ele>160</ele>
        <time>2019-06-01T09:47:56Z</time>
      </trkpt>
      <trkpt lat="44.13633" lon="4.59899">
        <ele>159.4</ele>
        <time>2019-06-01T09:47:57Z</time>
      </trkpt>
      <trkpt lat="44.13627" lon="4.59896">
        <ele>159.4</ele>
        <time>2019-06-01T09:47:58Z</time>
      </trkpt>
      <trkpt lat="44.13623" lon="4.59892">
        <ele>159.5</ele>
        <time>2019-06-01T09:47:59Z</time>
      </trkpt>
      <trkpt lat="44.13618" lon="4.59887">
        <ele>159.5</ele>
        <time>2019-06-01T09:48:00Z</time>
      </trkpt>
      <trkpt lat="44.13614" lon="4.59881">
        <ele>159.8</ele>
        <time>2019-06-01T09:48:01Z</time>
      </trkpt>
      <trkpt lat="44.1361" lon="4.59877">
        <ele>160.3</ele>
        <time>2019-06-01T09:48:02Z</time>
      </trkpt>
      <trkpt lat="44.13607" lon="4.59872">
        <ele>160.5</ele>
        <time>2019-06-01T09:48:03Z</time>
      </trkpt>
      <trkpt lat="44.13602" lon="4.59864">
        <ele>160.6</ele>
        <time>2019-06-01T09:48:04Z</time>
      </trkpt>
      <trkpt lat="44.13595" lon="4.59858">
        <ele>161.1</ele>
        <time>2019-06-01T09:48:05Z</time>
      </trkpt>
      <trkpt lat="44.13591" lon="4.59851">
        <ele>161.8</ele>
        <time>2019-06-01T09:48:06Z</time>
      </trkpt>
      <trkpt lat="44.13586" lon="4.59844">
        <ele>160.8</ele>
        <time>2019-06-01T09:48:07Z</time>
      </trkpt>
      <trkpt lat="44.13582" lon="4.59836">
        <ele>160.1</ele>
        <time>2019-06-01T09:48:08Z</time>
      </trkpt>
      <trkpt lat="44.13578" lon="4.59828">
        <ele>160.1</ele>
        <time>2019-06-01T09:48:09Z</time>
      </trkpt>
      <trkpt lat="44.13574" lon="4.59821">
        <ele>160.2</ele>
        <time>2019-06-01T09:48:10Z</time>
      </trkpt>
      <trkpt lat="44.13572" lon="4.59813">
        <ele>160.7</ele>
        <time>2019-06-01T09:48:11Z</time>
      </trkpt>
      <trkpt lat="44.13568" lon="4.59804">
        <ele>161.4</ele>
        <time>2019-06-01T09:48:12Z</time>
      </trkpt>
      <trkpt lat="44.13565" lon="4.59796">
        <ele>161.8</ele>
        <time>2019-06-01T09:48:13Z</time>
      </trkpt>
      <trkpt lat="44.13563" lon="4.59788">
        <ele>162.5</ele>
        <time>2019-06-01T09:48:14Z</time>
      </trkpt>
      <trkpt lat="44.1356" lon="4.59779">
        <ele>163.5</ele>
        <time>2019-06-01T09:48:15Z</time>
      </trkpt>
      <trkpt lat="44.13555" lon="4.5977">
        <ele>164.3</ele>
        <time>2019-06-01T09:48:16Z</time>
      </trkpt>
      <trkpt lat="44.13551" lon="4.59762">
        <ele>164.4</ele>
        <time>2019-06-01T09:48:17Z</time>
      </trkpt>
      <trkpt lat="44.13549" lon="4.59756">
        <ele>165.1</ele>
        <time>2019-06-01T09:48:18Z</time>
      </trkpt>
      <trkpt lat="44.13546" lon="4.5975">
        <ele>165.7</ele>
        <time>2019-06-01T09:48:19Z</time>
      </trkpt>
      <trkpt lat="44.13546" lon="4.59743">
        <ele>166.1</ele>
        <time>2019-06-01T09:48:20Z</time>
      </trkpt>
      <trkpt lat="44.13545" lon="4.59738">
        <ele>166.5</ele>
        <time>2019-06-01T09:48:21Z</time>
      </trkpt>
      <trkpt lat="44.13544" lon="4.59734">
        <ele>166.8</ele>
        <time>2019-06-01T09:48:22Z</time>
      </trkpt>
      <trkpt lat="44.1354" lon="4.59726">
        <ele>168</ele>
        <time>2019-06-01T09:48:23Z</time>
      </trkpt>
      <trkpt lat="44.13538" lon="4.59721">
        <ele>168.5</ele>
        <time>2019-06-01T09:48:24Z</time>
      </trkpt>
      <trkpt lat="44.13537" lon="4.59714">
        <ele>168.8</ele>
        <time>2019-06-01T09:48:25Z</time>
      </trkpt>
      <trkpt lat="44.13534" lon="4.5971">
        <ele>168.8</ele>
        <time>2019-06-01T09:48:26Z</time>
      </trkpt>
      <trkpt lat="44.13526" lon="4.59706">
        <ele>168.7</ele>
        <time>2019-06-01T09:48:28Z</time>
      </trkpt>
      <trkpt lat="44.13522" lon="4.59705">
        <ele>168.7</ele>
        <time>2019-06-01T09:48:29Z</time>
      </trkpt>
      <trkpt lat="44.13519" lon="4.59703">
        <ele>168.5</ele>
        <time>2019-06-01T09:48:30Z</time>
      </trkpt>
      <trkpt lat="44.13514" lon="4.59702">
        <ele>168</ele>
        <time>2019-06-01T09:48:32Z</time>
      </trkpt>
      <trkpt lat="44.1351" lon="4.59701">
        <ele>167.5</ele>
        <time>2019-06-01T09:48:33Z</time>
      </trkpt>
      <trkpt lat="44.13507" lon="4.59701">
        <ele>167.1</ele>
        <time>2019-06-01T09:48:34Z</time>
      </trkpt>
      <trkpt lat="44.13502" lon="4.59702">
        <ele>166.4</ele>
        <time>2019-06-01T09:48:35Z</time>
      </trkpt>
      <trkpt lat="44.13497" lon="4.59703">
        <ele>165.7</ele>
        <time>2019-06-01T09:48:36Z</time>
      </trkpt>
      <trkpt lat="44.13492" lon="4.59705">
        <ele>165</ele>
        <time>2019-06-01T09:48:37Z</time>
      </trkpt>
      <trkpt lat="44.13487" lon="4.59708">
        <ele>164.1</ele>
        <time>2019-06-01T09:48:38Z</time>
      </trkpt>
      <trkpt lat="44.13483" lon="4.5971">
        <ele>163.3</ele>
        <time>2019-06-01T09:48:39Z</time>
      </trkpt>
      <trkpt lat="44.13474" lon="4.59715">
        <ele>162.1</ele>
        <time>2019-06-01T09:48:40Z</time>
      </trkpt>
      <trkpt lat="44.13469" lon="4.59719">
        <ele>161.5</ele>
        <time>2019-06-01T09:48:41Z</time>
      </trkpt>
      <trkpt lat="44.13465" lon="4.59723">
        <ele>160.9</ele>
        <time>2019-06-01T09:48:42Z</time>
      </trkpt>
      <trkpt lat="44.13463" lon="4.59729">
        <ele>160.3</ele>
        <time>2019-06-01T09:48:43Z</time>
      </trkpt>
      <trkpt lat="44.13461" lon="4.59734">
        <ele>159.8</ele>
        <time>2019-06-01T09:48:44Z</time>
      </trkpt>
      <trkpt lat="44.13453" lon="4.59739">
        <ele>159.2</ele>
        <time>2019-06-01T09:48:45Z</time>
      </trkpt>
      <trkpt lat="44.13452" lon="4.59746">
        <ele>159</ele>
        <time>2019-06-01T09:48:47Z</time>
      </trkpt>
      <trkpt lat="44.13451" lon="4.5975">
        <ele>158.7</ele>
        <time>2019-06-01T09:48:48Z</time>
      </trkpt>
      <trkpt lat="44.13448" lon="4.59758">
        <ele>158.5</ele>
        <time>2019-06-01T09:48:49Z</time>
      </trkpt>
      <trkpt lat="44.13448" lon="4.59766">
        <ele>158.4</ele>
        <time>2019-06-01T09:48:51Z</time>
      </trkpt>
      <trkpt lat="44.13445" lon="4.5977">
        <ele>158.3</ele>
        <time>2019-06-01T09:48:53Z</time>
      </trkpt>
      <trkpt lat="44.13442" lon="4.59773">
        <ele>158.2</ele>
        <time>2019-06-01T09:48:55Z</time>
      </trkpt>
      <trkpt lat="44.13436" lon="4.59774">
        <ele>158.1</ele>
        <time>2019-06-01T09:48:57Z</time>
      </trkpt>
      <trkpt lat="44.13434" lon="4.59774">
        <ele>158.3</ele>
        <time>2019-06-01T09:48:58Z</time>
      </trkpt>
      <trkpt lat="44.13431" lon="4.59773">
        <ele>158.4</ele>
        <time>2019-06-01T09:48:59Z</time>
      </trkpt>
      <trkpt lat="44.13428" lon="4.59773">
        <ele>158.6</ele>
        <time>2019-06-01T09:49:00Z</time>
      </trkpt>
      <trkpt lat="44.13425" lon="4.59773">
        <ele>158.7</ele>
        <time>2019-06-01T09:49:01Z</time>
      </trkpt>
      <trkpt lat="44.13422" lon="4.59773">
        <ele>158.9</ele>
        <time>2019-06-01T09:49:02Z</time>
      </trkpt>
      <trkpt lat="44.13418" lon="4.59773">
        <ele>159.3</ele>
        <time>2019-06-01T09:49:03Z</time>
      </trkpt>
      <trkpt lat="44.13414" lon="4.59773">
        <ele>159.6</ele>
        <time>2019-06-01T09:49:04Z</time>
      </trkpt>
      <trkpt lat="44.1341" lon="4.59774">
        <ele>160</ele>
        <time>2019-06-01T09:49:05Z</time>
      </trkpt>
      <trkpt lat="44.13407" lon="4.59773">
        <ele>160.2</ele>
        <time>2019-06-01T09:49:06Z</time>
      </trkpt>
      <trkpt lat="44.13404" lon="4.59773">
        <ele>160.4</ele>
        <time>2019-06-01T09:49:07Z</time>
      </trkpt>
      <trkpt lat="44.134" lon="4.59772">
        <ele>160.6</ele>
        <time>2019-06-01T09:49:08Z</time>
      </trkpt>
      <trkpt lat="44.13396" lon="4.59771">
        <ele>160.8</ele>
        <time>2019-06-01T09:49:09Z</time>
      </trkpt>
      <trkpt lat="44.13393" lon="4.5977">
        <ele>160.9</ele>
        <time>2019-06-01T09:49:10Z</time>
      </trkpt>
      <trkpt lat="44.13389" lon="4.59769">
        <ele>161</ele>
        <time>2019-06-01T09:49:11Z</time>
      </trkpt>
      <trkpt lat="44.13386" lon="4.59767">
        <ele>161.1</ele>
        <time>2019-06-01T09:49:12Z</time>
      </trkpt>
      <trkpt lat="44.13383" lon="4.59765">
        <ele>161.1</ele>
        <time>2019-06-01T09:49:13Z</time>
      </trkpt>
      <trkpt lat="44.1338" lon="4.59763">
        <ele>161.2</ele>
        <time>2019-06-01T09:49:14Z</time>
      </trkpt>
      <trkpt lat="44.13376" lon="4.5976">
        <ele>161.2</ele>
        <time>2019-06-01T09:49:15Z</time>
      </trkpt>
      <trkpt lat="44.13372" lon="4.59758">
        <ele>161.2</ele>
        <time>2019-06-01T09:49:16Z</time>
      </trkpt>
      <trkpt lat="44.13367" lon="4.59755">
        <ele>161.2</ele>
        <time>2019-06-01T09:49:17Z</time>
      </trkpt>
      <trkpt lat="44.13364" lon="4.59752">
        <ele>161.2</ele>
        <time>2019-06-01T09:49:18Z</time>
      </trkpt>
      <trkpt lat="44.13361" lon="4.59748">
        <ele>161.3</ele>
        <time>2019-06-01T09:49:19Z</time>
      </trkpt>
      <trkpt lat="44.13358" lon="4.59745">
        <ele>161.6</ele>
        <time>2019-06-01T09:49:20Z</time>
      </trkpt>
      <trkpt lat="44.13354" lon="4.59741">
        <ele>161.6</ele>
        <time>2019-06-01T09:49:21Z</time>
      </trkpt>
      <trkpt lat="44.13351" lon="4.59737">
        <ele>161.7</ele>
        <time>2019-06-01T09:49:22Z</time>
      </trkpt>
      <trkpt lat="44.13348" lon="4.59733">
        <ele>162</ele>
        <time>2019-06-01T09:49:23Z</time>
      </trkpt>
      <trkpt lat="44.13345" lon="4.5973">
        <ele>162.3</ele>
        <time>2019-06-01T09:49:24Z</time>
      </trkpt>
      <trkpt lat="44.13341" lon="4.59725">
        <ele>162.3</ele>
        <time>2019-06-01T09:49:26Z</time>
      </trkpt>
      <trkpt lat="44.13337" lon="4.59723">
        <ele>162.5</ele>
        <time>2019-06-01T09:49:28Z</time>
      </trkpt>
      <trkpt lat="44.13334" lon="4.5972">
        <ele>162.7</ele>
        <time>2019-06-01T09:49:30Z</time>
      </trkpt>
      <trkpt lat="44.1333" lon="4.59716">
        <ele>163</ele>
        <time>2019-06-01T09:49:32Z</time>
      </trkpt>
      <trkpt lat="44.13327" lon="4.59713">
        <ele>163.2</ele>
        <time>2019-06-01T09:49:33Z</time>
      </trkpt>
      <trkpt lat="44.13324" lon="4.59709">
        <ele>163.3</ele>
        <time>2019-06-01T09:49:34Z</time>
      </trkpt>
      <trkpt lat="44.13319" lon="4.59704">
        <ele>163.2</ele>
        <time>2019-06-01T09:49:35Z</time>
      </trkpt>
      <trkpt lat="44.13315" lon="4.597">
        <ele>163.3</ele>
        <time>2019-06-01T09:49:36Z</time>
      </trkpt>
      <trkpt lat="44.13312" lon="4.59695">
        <ele>163.5</ele>
        <time>2019-06-01T09:49:37Z</time>
      </trkpt>
      <trkpt lat="44.13306" lon="4.59691">
        <ele>163.8</ele>
        <time>2019-06-01T09:49:38Z</time>
      </trkpt>
      <trkpt lat="44.13302" lon="4.59686">
        <ele>164.1</ele>
        <time>2019-06-01T09:49:39Z</time>
      </trkpt>
      <trkpt lat="44.13298" lon="4.59682">
        <ele>164.2</ele>
        <time>2019-06-01T09:49:40Z</time>
      </trkpt>
      <trkpt lat="44.13291" lon="4.59681">
        <ele>163.9</ele>
        <time>2019-06-01T09:49:41Z</time>
      </trkpt>
      <trkpt lat="44.13286" lon="4.59679">
        <ele>163.3</ele>
        <time>2019-06-01T09:49:42Z</time>
      </trkpt>
      <trkpt lat="44.13281" lon="4.59678">
        <ele>162.5</ele>
        <time>2019-06-01T09:49:43Z</time>
      </trkpt>
      <trkpt lat="44.13278" lon="4.59677">
        <ele>161.7</ele>
        <time>2019-06-01T09:49:44Z</time>
      </trkpt>
      <trkpt lat="44.13273" lon="4.59674">
        <ele>160.9</ele>
        <time>2019-06-01T09:49:45Z</time>
      </trkpt>
      <trkpt lat="44.13268" lon="4.59671">
        <ele>160.7</ele>
        <time>2019-06-01T09:49:46Z</time>
      </trkpt>
      <trkpt lat="44.13264" lon="4.59671">
        <ele>160.3</ele>
        <time>2019-06-01T09:49:47Z</time>
      </trkpt>
      <trkpt lat="44.1326" lon="4.59669">
        <ele>160</ele>
        <time>2019-06-01T09:49:48Z</time>
      </trkpt>
      <trkpt lat="44.13256" lon="4.59666">
        <ele>159.3</ele>
        <time>2019-06-01T09:49:49Z</time>
      </trkpt>
      <trkpt lat="44.1325" lon="4.59663">
        <ele>158.5</ele>
        <time>2019-06-01T09:49:50Z</time>
      </trkpt>
      <trkpt lat="44.13245" lon="4.59662">
        <ele>158.5</ele>
        <time>2019-06-01T09:49:51Z</time>
      </trkpt>
      <trkpt lat="44.1324" lon="4.59665">
        <ele>158</ele>
        <time>2019-06-01T09:49:52Z</time>
      </trkpt>
      <trkpt lat="44.13233" lon="4.59666">
        <ele>157.4</ele>
        <time>2019-06-01T09:49:53Z</time>
      </trkpt>
      <trkpt lat="44.1323" lon="4.59662">
        <ele>157.2</ele>
        <time>2019-06-01T09:49:54Z</time>
      </trkpt>
      <trkpt lat="44.13225" lon="4.59659">
        <ele>157</ele>
        <time>2019-06-01T09:49:55Z</time>
      </trkpt>
      <trkpt lat="44.13217" lon="4.5966">
        <ele>156.5</ele>
        <time>2019-06-01T09:49:56Z</time>
      </trkpt>
      <trkpt lat="44.13212" lon="4.59659">
        <ele>156.5</ele>
        <time>2019-06-01T09:49:57Z</time>
      </trkpt>
      <trkpt lat="44.13206" lon="4.59657">
        <ele>156</ele>
        <time>2019-06-01T09:49:58Z</time>
      </trkpt>
      <trkpt lat="44.13203" lon="4.59656">
        <ele>155.8</ele>
        <time>2019-06-01T09:49:59Z</time>
      </trkpt>
      <trkpt lat="44.13199" lon="4.59655">
        <ele>155.8</ele>
        <time>2019-06-01T09:50:00Z</time>
      </trkpt>
      <trkpt lat="44.13193" lon="4.59656">
        <ele>155.8</ele>
        <time>2019-06-01T09:50:01Z</time>
      </trkpt>
      <trkpt lat="44.1319" lon="4.59656">
        <ele>155.7</ele>
        <time>2019-06-01T09:50:02Z</time>
      </trkpt>
      <trkpt lat="44.13189" lon="4.59651">
        <ele>155.5</ele>
        <time>2019-06-01T09:50:03Z</time>
      </trkpt>
      <trkpt lat="44.13183" lon="4.59649">
        <ele>155.2</ele>
        <time>2019-06-01T09:50:04Z</time>
      </trkpt>
      <trkpt lat="44.13176" lon="4.59648">
        <ele>155.2</ele>
        <time>2019-06-01T09:50:05Z</time>
      </trkpt>
      <trkpt lat="44.13173" lon="4.59649">
        <ele>155.3</ele>
        <time>2019-06-01T09:50:06Z</time>
      </trkpt>
      <trkpt lat="44.13168" lon="4.59648">
        <ele>155.2</ele>
        <time>2019-06-01T09:50:07Z</time>
      </trkpt>
      <trkpt lat="44.13163" lon="4.59645">
        <ele>155.1</ele>
        <time>2019-06-01T09:50:08Z</time>
      </trkpt>
      <trkpt lat="44.13158" lon="4.59643">
        <ele>155.4</ele>
        <time>2019-06-01T09:50:09Z</time>
      </trkpt>
      <trkpt lat="44.13148" lon="4.59641">
        <ele>155.2</ele>
        <time>2019-06-01T09:50:10Z</time>
      </trkpt>
      <trkpt lat="44.13145" lon="4.59635">
        <ele>155.4</ele>
        <time>2019-06-01T09:50:11Z</time>
      </trkpt>
      <trkpt lat="44.1314" lon="4.59632">
        <ele>155.4</ele>
        <time>2019-06-01T09:50:12Z</time>
      </trkpt>
      <trkpt lat="44.13133" lon="4.59628">
        <ele>155.2</ele>
        <time>2019-06-01T09:50:13Z</time>
      </trkpt>
      <trkpt lat="44.13128" lon="4.59625">
        <ele>155.4</ele>
        <time>2019-06-01T09:50:14Z</time>
      </trkpt>
      <trkpt lat="44.13122" lon="4.59624">
        <ele>155.2</ele>
        <time>2019-06-01T09:50:15Z</time>
      </trkpt>
      <trkpt lat="44.13114" lon="4.59623">
        <ele>154.7</ele>
        <time>2019-06-01T09:50:16Z</time>
      </trkpt>
      <trkpt lat="44.13108" lon="4.59622">
        <ele>154.7</ele>
        <time>2019-06-01T09:50:17Z</time>
      </trkpt>
      <trkpt lat="44.13101" lon="4.5962">
        <ele>154.9</ele>
        <time>2019-06-01T09:50:18Z</time>
      </trkpt>
      <trkpt lat="44.13098" lon="4.59619">
        <ele>154.7</ele>
        <time>2019-06-01T09:50:19Z</time>
      </trkpt>
      <trkpt lat="44.13093" lon="4.59617">
        <ele>154.1</ele>
        <time>2019-06-01T09:50:20Z</time>
      </trkpt>
      <trkpt lat="44.13089" lon="4.59619">
        <ele>154</ele>
        <time>2019-06-01T09:50:21Z</time>
      </trkpt>
      <trkpt lat="44.13085" lon="4.59619">
        <ele>154</ele>
        <time>2019-06-01T09:50:22Z</time>
      </trkpt>
      <trkpt lat="44.1308" lon="4.59614">
        <ele>154</ele>
        <time>2019-06-01T09:50:23Z</time>
      </trkpt>
      <trkpt lat="44.13072" lon="4.59611">
        <ele>153.9</ele>
        <time>2019-06-01T09:50:24Z</time>
      </trkpt>
      <trkpt lat="44.13066" lon="4.59607">
        <ele>153.3</ele>
        <time>2019-06-01T09:50:25Z</time>
      </trkpt>
      <trkpt lat="44.1306" lon="4.59602">
        <ele>153.1</ele>
        <time>2019-06-01T09:50:26Z</time>
      </trkpt>
      <trkpt lat="44.13056" lon="4.59597">
        <ele>153.1</ele>
        <time>2019-06-01T09:50:27Z</time>
      </trkpt>
      <trkpt lat="44.13051" lon="4.59592">
        <ele>153</ele>
        <time>2019-06-01T09:50:28Z</time>
      </trkpt>
      <trkpt lat="44.13045" lon="4.59587">
        <ele>153</ele>
        <time>2019-06-01T09:50:29Z</time>
      </trkpt>
      <trkpt lat="44.13041" lon="4.59583">
        <ele>152.8</ele>
        <time>2019-06-01T09:50:30Z</time>
      </trkpt>
      <trkpt lat="44.13037" lon="4.59577">
        <ele>152.2</ele>
        <time>2019-06-01T09:50:31Z</time>
      </trkpt>
      <trkpt lat="44.13032" lon="4.59571">
        <ele>151.9</ele>
        <time>2019-06-01T09:50:32Z</time>
      </trkpt>
      <trkpt lat="44.13026" lon="4.59563">
        <ele>152</ele>
        <time>2019-06-01T09:50:33Z</time>
      </trkpt>
      <trkpt lat="44.13022" lon="4.59556">
        <ele>152.3</ele>
        <time>2019-06-01T09:50:34Z</time>
      </trkpt>
      <trkpt lat="44.13018" lon="4.59549">
        <ele>152.6</ele>
        <time>2019-06-01T09:50:35Z</time>
      </trkpt>
      <trkpt lat="44.13014" lon="4.59542">
        <ele>152.4</ele>
        <time>2019-06-01T09:50:36Z</time>
      </trkpt>
      <trkpt lat="44.13011" lon="4.59537">
        <ele>152.6</ele>
        <time>2019-06-01T09:50:37Z</time>
      </trkpt>
      <trkpt lat="44.13011" lon="4.59529">
        <ele>152.8</ele>
        <time>2019-06-01T09:50:38Z</time>
      </trkpt>
      <trkpt lat="44.13011" lon="4.59521">
        <ele>153.1</ele>
        <time>2019-06-01T09:50:39Z</time>
      </trkpt>
      <trkpt lat="44.13011" lon="4.59512">
        <ele>153.7</ele>
        <time>2019-06-01T09:50:40Z</time>
      </trkpt>
      <trkpt lat="44.13004" lon="4.59503">
        <ele>154.2</ele>
        <time>2019-06-01T09:50:41Z</time>
      </trkpt>
      <trkpt lat="44.12999" lon="4.59493">
        <ele>154.9</ele>
        <time>2019-06-01T09:50:42Z</time>
      </trkpt>
      <trkpt lat="44.12996" lon="4.59485">
        <ele>154.8</ele>
        <time>2019-06-01T09:50:43Z</time>
      </trkpt>
      <trkpt lat="44.1299" lon="4.59483">
        <ele>154.1</ele>
        <time>2019-06-01T09:50:44Z</time>
      </trkpt>
      <trkpt lat="44.12985" lon="4.59485">
        <ele>153.3</ele>
        <time>2019-06-01T09:50:45Z</time>
      </trkpt>
      <trkpt lat="44.12978" lon="4.5949">
        <ele>151.7</ele>
        <time>2019-06-01T09:50:46Z</time>
      </trkpt>
      <trkpt lat="44.12975" lon="4.59497">
        <ele>150.8</ele>
        <time>2019-06-01T09:50:47Z</time>
      </trkpt>
      <trkpt lat="44.12972" lon="4.595">
        <ele>150.1</ele>
        <time>2019-06-01T09:50:48Z</time>
      </trkpt>
      <trkpt lat="44.1297" lon="4.5951">
        <ele>148.8</ele>
        <time>2019-06-01T09:50:49Z</time>
      </trkpt>
      <trkpt lat="44.12967" lon="4.59519">
        <ele>147.6</ele>
        <time>2019-06-01T09:50:50Z</time>
      </trkpt>
      <trkpt lat="44.12965" lon="4.59528">
        <ele>146.1</ele>
        <time>2019-06-01T09:50:51Z</time>
      </trkpt>
      <trkpt lat="44.12963" lon="4.59543">
        <ele>144.2</ele>
        <time>2019-06-01T09:50:52Z</time>
      </trkpt>
      <trkpt lat="44.1296" lon="4.59552">
        <ele>143.3</ele>
        <time>2019-06-01T09:50:53Z</time>
      </trkpt>
      <trkpt lat="44.12958" lon="4.59557">
        <ele>142.7</ele>
        <time>2019-06-01T09:50:54Z</time>
      </trkpt>
      <trkpt lat="44.12953" lon="4.59563">
        <ele>141.9</ele>
        <time>2019-06-01T09:50:55Z</time>
      </trkpt>
      <trkpt lat="44.12951" lon="4.59573">
        <ele>140.9</ele>
        <time>2019-06-01T09:50:56Z</time>
      </trkpt>
      <trkpt lat="44.1295" lon="4.59581">
        <ele>139.7</ele>
        <time>2019-06-01T09:50:57Z</time>
      </trkpt>
      <trkpt lat="44.12949" lon="4.59589">
        <ele>138.7</ele>
        <time>2019-06-01T09:50:58Z</time>
      </trkpt>
      <trkpt lat="44.12951" lon="4.596">
        <ele>137.7</ele>
        <time>2019-06-01T09:50:59Z</time>
      </trkpt>
      <trkpt lat="44.12952" lon="4.59608">
        <ele>137.4</ele>
        <time>2019-06-01T09:51:00Z</time>
      </trkpt>
      <trkpt lat="44.12955" lon="4.59616">
        <ele>137.3</ele>
        <time>2019-06-01T09:51:01Z</time>
      </trkpt>
      <trkpt lat="44.12958" lon="4.59622">
        <ele>137</ele>
        <time>2019-06-01T09:51:02Z</time>
      </trkpt>
      <trkpt lat="44.12963" lon="4.59629">
        <ele>136.9</ele>
        <time>2019-06-01T09:51:03Z</time>
      </trkpt>
      <trkpt lat="44.12965" lon="4.59636">
        <ele>137.1</ele>
        <time>2019-06-01T09:51:04Z</time>
      </trkpt>
      <trkpt lat="44.12968" lon="4.59643">
        <ele>137.4</ele>
        <time>2019-06-01T09:51:05Z</time>
      </trkpt>
      <trkpt lat="44.12969" lon="4.5965">
        <ele>137.4</ele>
        <time>2019-06-01T09:51:06Z</time>
      </trkpt>
      <trkpt lat="44.12971" lon="4.59657">
        <ele>137.2</ele>
        <time>2019-06-01T09:51:07Z</time>
      </trkpt>
      <trkpt lat="44.12962" lon="4.59663">
        <ele>136.3</ele>
        <time>2019-06-01T09:51:08Z</time>
      </trkpt>
      <trkpt lat="44.12959" lon="4.59671">
        <ele>135.4</ele>
        <time>2019-06-01T09:51:09Z</time>
      </trkpt>
      <trkpt lat="44.12956" lon="4.59677">
        <ele>134.7</ele>
        <time>2019-06-01T09:51:10Z</time>
      </trkpt>
      <trkpt lat="44.12954" lon="4.59685">
        <ele>134</ele>
        <time>2019-06-01T09:51:11Z</time>
      </trkpt>
      <trkpt lat="44.12951" lon="4.59691">
        <ele>133.2</ele>
        <time>2019-06-01T09:51:12Z</time>
      </trkpt>
      <trkpt lat="44.12949" lon="4.59696">
        <ele>132.6</ele>
        <time>2019-06-01T09:51:13Z</time>
      </trkpt>
      <trkpt lat="44.12945" lon="4.59704">
        <ele>131.9</ele>
        <time>2019-06-01T09:51:14Z</time>
      </trkpt>
      <trkpt lat="44.12942" lon="4.59709">
        <ele>131.1</ele>
        <time>2019-06-01T09:51:15Z</time>
      </trkpt>
      <trkpt lat="44.12942" lon="4.59718">
        <ele>130.4</ele>
        <time>2019-06-01T09:51:16Z</time>
      </trkpt>
      <trkpt lat="44.12939" lon="4.59727">
        <ele>129.8</ele>
        <time>2019-06-01T09:51:17Z</time>
      </trkpt>
      <trkpt lat="44.12936" lon="4.59736">
        <ele>129.2</ele>
        <time>2019-06-01T09:51:18Z</time>
      </trkpt>
      <trkpt lat="44.12933" lon="4.59746">
        <ele>128.2</ele>
        <time>2019-06-01T09:51:19Z</time>
      </trkpt>
      <trkpt lat="44.12929" lon="4.59753">
        <ele>127.2</ele>
        <time>2019-06-01T09:51:20Z</time>
      </trkpt>
      <trkpt lat="44.12926" lon="4.59766">
        <ele>126.1</ele>
        <time>2019-06-01T09:51:21Z</time>
      </trkpt>
      <trkpt lat="44.12924" lon="4.59776">
        <ele>125.3</ele>
        <time>2019-06-01T09:51:22Z</time>
      </trkpt>
      <trkpt lat="44.1292" lon="4.59786">
        <ele>124.8</ele>
        <time>2019-06-01T09:51:23Z</time>
      </trkpt>
      <trkpt lat="44.12917" lon="4.59793">
        <ele>123.9</ele>
        <time>2019-06-01T09:51:24Z</time>
      </trkpt>
      <trkpt lat="44.1292" lon="4.59798">
        <ele>123.2</ele>
        <time>2019-06-01T09:51:25Z</time>
      </trkpt>
      <trkpt lat="44.12918" lon="4.59802">
        <ele>122.7</ele>
        <time>2019-06-01T09:51:26Z</time>
      </trkpt>
      <trkpt lat="44.12916" lon="4.5981">
        <ele>121.6</ele>
        <time>2019-06-01T09:51:27Z</time>
      </trkpt>
      <trkpt lat="44.12913" lon="4.59816">
        <ele>120.3</ele>
        <time>2019-06-01T09:51:28Z</time>
      </trkpt>
      <trkpt lat="44.12908" lon="4.59823">
        <ele>119.3</ele>
        <time>2019-06-01T09:51:29Z</time>
      </trkpt>
      <trkpt lat="44.12903" lon="4.59828">
        <ele>118.2</ele>
        <time>2019-06-01T09:51:30Z</time>
      </trkpt>
      <trkpt lat="44.12897" lon="4.59832">
        <ele>116.9</ele>
        <time>2019-06-01T09:51:31Z</time>
      </trkpt>
      <trkpt lat="44.12891" lon="4.59833">
        <ele>115.8</ele>
        <time>2019-06-01T09:51:32Z</time>
      </trkpt>
      <trkpt lat="44.12886" lon="4.59834">
        <ele>115.1</ele>
        <time>2019-06-01T09:51:33Z</time>
      </trkpt>
      <trkpt lat="44.12883" lon="4.59838">
        <ele>114.9</ele>
        <time>2019-06-01T09:51:34Z</time>
      </trkpt>
      <trkpt lat="44.12881" lon="4.59836">
        <ele>114.7</ele>
        <time>2019-06-01T09:51:35Z</time>
      </trkpt>
      <trkpt lat="44.12878" lon="4.59833">
        <ele>114.5</ele>
        <time>2019-06-01T09:51:36Z</time>
      </trkpt>
      <trkpt lat="44.12875" lon="4.59828">
        <ele>114.3</ele>
        <time>2019-06-01T09:51:37Z</time>
      </trkpt>
      <trkpt lat="44.12872" lon="4.59824">
        <ele>113.7</ele>
        <time>2019-06-01T09:51:38Z</time>
      </trkpt>
      <trkpt lat="44.12866" lon="4.59818">
        <ele>113.1</ele>
        <time>2019-06-01T09:51:39Z</time>
      </trkpt>
      <trkpt lat="44.12862" lon="4.59817">
        <ele>112.5</ele>
        <time>2019-06-01T09:51:40Z</time>
      </trkpt>
      <trkpt lat="44.12858" lon="4.59816">
        <ele>112</ele>
        <time>2019-06-01T09:51:41Z</time>
      </trkpt>
      <trkpt lat="44.12854" lon="4.59819">
        <ele>111.5</ele>
        <time>2019-06-01T09:51:42Z</time>
      </trkpt>
      <trkpt lat="44.12851" lon="4.59824">
        <ele>110.7</ele>
        <time>2019-06-01T09:51:43Z</time>
      </trkpt>
      <trkpt lat="44.12848" lon="4.5983">
        <ele>109.9</ele>
        <time>2019-06-01T09:51:44Z</time>
      </trkpt>
      <trkpt lat="44.12845" lon="4.59837">
        <ele>109.3</ele>
        <time>2019-06-01T09:51:45Z</time>
      </trkpt>
      <trkpt lat="44.12841" lon="4.59842">
        <ele>108.6</ele>
        <time>2019-06-01T09:51:46Z</time>
      </trkpt>
      <trkpt lat="44.12837" lon="4.59848">
        <ele>107.9</ele>
        <time>2019-06-01T09:51:47Z</time>
      </trkpt>
      <trkpt lat="44.12837" lon="4.59854">
        <ele>107.3</ele>
        <time>2019-06-01T09:51:48Z</time>
      </trkpt>
      <trkpt lat="44.12838" lon="4.59861">
        <ele>106.7</ele>
        <time>2019-06-01T09:51:49Z</time>
      </trkpt>
      <trkpt lat="44.12835" lon="4.59867">
        <ele>106.2</ele>
        <time>2019-06-01T09:51:50Z</time>
      </trkpt>
      <trkpt lat="44.12832" lon="4.59875">
        <ele>105.1</ele>
        <time>2019-06-01T09:51:51Z</time>
      </trkpt>
      <trkpt lat="44.1283" lon="4.59882">
        <ele>104.2</ele>
        <time>2019-06-01T09:51:52Z</time>
      </trkpt>
      <trkpt lat="44.12827" lon="4.59892">
        <ele>103.4</ele>
        <time>2019-06-01T09:51:53Z</time>
      </trkpt>
      <trkpt lat="44.12826" lon="4.59904">
        <ele>102.4</ele>
        <time>2019-06-01T09:51:54Z</time>
      </trkpt>
      <trkpt lat="44.12827" lon="4.59914">
        <ele>101.8</ele>
        <time>2019-06-01T09:51:55Z</time>
      </trkpt>
      <trkpt lat="44.12829" lon="4.59925">
        <ele>101.4</ele>
        <time>2019-06-01T09:51:56Z</time>
      </trkpt>
      <trkpt lat="44.12832" lon="4.59934">
        <ele>100.9</ele>
        <time>2019-06-01T09:51:57Z</time>
      </trkpt>
      <trkpt lat="44.12834" lon="4.59944">
        <ele>100.4</ele>
        <time>2019-06-01T09:51:58Z</time>
      </trkpt>
      <trkpt lat="44.12837" lon="4.59955">
        <ele>100</ele>
        <time>2019-06-01T09:51:59Z</time>
      </trkpt>
      <trkpt lat="44.12841" lon="4.59965">
        <ele>99.6</ele>
        <time>2019-06-01T09:52:00Z</time>
      </trkpt>
      <trkpt lat="44.12843" lon="4.59974">
        <ele>99.2</ele>
        <time>2019-06-01T09:52:01Z</time>
      </trkpt>
      <trkpt lat="44.12845" lon="4.59981">
        <ele>99</ele>
        <time>2019-06-01T09:52:02Z</time>
      </trkpt>
      <trkpt lat="44.12847" lon="4.59987">
        <ele>98.8</ele>
        <time>2019-06-01T09:52:03Z</time>
      </trkpt>
      <trkpt lat="44.12848" lon="4.59992">
        <ele>98.6</ele>
        <time>2019-06-01T09:52:04Z</time>
      </trkpt>
      <trkpt lat="44.12848" lon="4.59998">
        <ele>98.4</ele>
        <time>2019-06-01T09:52:05Z</time>
      </trkpt>
      <trkpt lat="44.12846" lon="4.60001">
        <ele>98</ele>
        <time>2019-06-01T09:52:06Z</time>
      </trkpt>
      <trkpt lat="44.12843" lon="4.60005">
        <ele>97.6</ele>
        <time>2019-06-01T09:52:07Z</time>
      </trkpt>
      <trkpt lat="44.12839" lon="4.60008">
        <ele>97.1</ele>
        <time>2019-06-01T09:52:08Z</time>
      </trkpt>
      <trkpt lat="44.12836" lon="4.60011">
        <ele>96.5</ele>
        <time>2019-06-01T09:52:09Z</time>
      </trkpt>
      <trkpt lat="44.12834" lon="4.60019">
        <ele>96.5</ele>
        <time>2019-06-01T09:52:10Z</time>
      </trkpt>
      <trkpt lat="44.12836" lon="4.60026">
        <ele>96.5</ele>
        <time>2019-06-01T09:52:11Z</time>
      </trkpt>
      <trkpt lat="44.12839" lon="4.60031">
        <ele>96.2</ele>
        <time>2019-06-01T09:52:12Z</time>
      </trkpt>
      <trkpt lat="44.12842" lon="4.60038">
        <ele>95.5</ele>
        <time>2019-06-01T09:52:13Z</time>
      </trkpt>
      <trkpt lat="44.12845" lon="4.60043">
        <ele>95</ele>
        <time>2019-06-01T09:52:14Z</time>
      </trkpt>
      <trkpt lat="44.12847" lon="4.60049">
        <ele>94.6</ele>
        <time>2019-06-01T09:52:15Z</time>
      </trkpt>
      <trkpt lat="44.12847" lon="4.60054">
        <ele>94.3</ele>
        <time>2019-06-01T09:52:16Z</time>
      </trkpt>
      <trkpt lat="44.12849" lon="4.60062">
        <ele>93.8</ele>
        <time>2019-06-01T09:52:18Z</time>
      </trkpt>
      <trkpt lat="44.12849" lon="4.60068">
        <ele>93.4</ele>
        <time>2019-06-01T09:52:19Z</time>
      </trkpt>
      <trkpt lat="44.12849" lon="4.60074">
        <ele>93.1</ele>
        <time>2019-06-01T09:52:21Z</time>
      </trkpt>
      <trkpt lat="44.12849" lon="4.6008">
        <ele>92.8</ele>
        <time>2019-06-01T09:52:23Z</time>
      </trkpt>
      <trkpt lat="44.1285" lon="4.60083">
        <ele>92.7</ele>
        <time>2019-06-01T09:52:24Z</time>
      </trkpt>
      <trkpt lat="44.12851" lon="4.60088">
        <ele>92.5</ele>
        <time>2019-06-01T09:52:25Z</time>
      </trkpt>
      <trkpt lat="44.12853" lon="4.60092">
        <ele>92.4</ele>
        <time>2019-06-01T09:52:26Z</time>
      </trkpt>
      <trkpt lat="44.12855" lon="4.60096">
        <ele>92.2</ele>
        <time>2019-06-01T09:52:27Z</time>
      </trkpt>
      <trkpt lat="44.12858" lon="4.60101">
        <ele>92.2</ele>
        <time>2019-06-01T09:52:28Z</time>
      </trkpt>
      <trkpt lat="44.12862" lon="4.60105">
        <ele>92.2</ele>
        <time>2019-06-01T09:52:29Z</time>
      </trkpt>
      <trkpt lat="44.12864" lon="4.6011">
        <ele>92.1</ele>
        <time>2019-06-01T09:52:30Z</time>
      </trkpt>
      <trkpt lat="44.12868" lon="4.60114">
        <ele>92</ele>
        <time>2019-06-01T09:52:31Z</time>
      </trkpt>
      <trkpt lat="44.12872" lon="4.60117">
        <ele>92.3</ele>
        <time>2019-06-01T09:52:32Z</time>
      </trkpt>
      <trkpt lat="44.12874" lon="4.60122">
        <ele>92.5</ele>
        <time>2019-06-01T09:52:33Z</time>
      </trkpt>
      <trkpt lat="44.12877" lon="4.60125">
        <ele>92.6</ele>
        <time>2019-06-01T09:52:34Z</time>
      </trkpt>
      <trkpt lat="44.1288" lon="4.60129">
        <ele>92.4</ele>
        <time>2019-06-01T09:52:35Z</time>
      </trkpt>
      <trkpt lat="44.12878" lon="4.60134">
        <ele>92</ele>
        <time>2019-06-01T09:52:41Z</time>
      </trkpt>
      <trkpt lat="44.12878" lon="4.60138">
        <ele>91.7</ele>
        <time>2019-06-01T09:52:43Z</time>
      </trkpt>
      <trkpt lat="44.12875" lon="4.6014">
        <ele>91.4</ele>
        <time>2019-06-01T09:52:47Z</time>
      </trkpt>
      <trkpt lat="44.12871" lon="4.60139">
        <ele>91.2</ele>
        <time>2019-06-01T09:52:49Z</time>
      </trkpt>
      <trkpt lat="44.12868" lon="4.60139">
        <ele>91</ele>
        <time>2019-06-01T09:52:50Z</time>
      </trkpt>
      <trkpt lat="44.12864" lon="4.60139">
        <ele>90.8</ele>
        <time>2019-06-01T09:52:51Z</time>
      </trkpt>
      <trkpt lat="44.1286" lon="4.6014">
        <ele>90.6</ele>
        <time>2019-06-01T09:52:52Z</time>
      </trkpt>
      <trkpt lat="44.12857" lon="4.60142">
        <ele>90.1</ele>
        <time>2019-06-01T09:52:53Z</time>
      </trkpt>
      <trkpt lat="44.12853" lon="4.60145">
        <ele>89.6</ele>
        <time>2019-06-01T09:52:54Z</time>
      </trkpt>
      <trkpt lat="44.12851" lon="4.60149">
        <ele>89.3</ele>
        <time>2019-06-01T09:52:55Z</time>
      </trkpt>
      <trkpt lat="44.12849" lon="4.60155">
        <ele>88.8</ele>
        <time>2019-06-01T09:52:56Z</time>
      </trkpt>
      <trkpt lat="44.12848" lon="4.60161">
        <ele>88.3</ele>
        <time>2019-06-01T09:52:57Z</time>
      </trkpt>
      <trkpt lat="44.12851" lon="4.60173">
        <ele>87.7</ele>
        <time>2019-06-01T09:52:58Z</time>
      </trkpt>
      <trkpt lat="44.12853" lon="4.6018">
        <ele>87.4</ele>
        <time>2019-06-01T09:52:59Z</time>
      </trkpt>
      <trkpt lat="44.12854" lon="4.60186">
        <ele>86.9</ele>
        <time>2019-06-01T09:53:00Z</time>
      </trkpt>
      <trkpt lat="44.12855" lon="4.60192">
        <ele>86.9</ele>
        <time>2019-06-01T09:53:01Z</time>
      </trkpt>
      <trkpt lat="44.12857" lon="4.60199">
        <ele>86.6</ele>
        <time>2019-06-01T09:53:02Z</time>
      </trkpt>
      <trkpt lat="44.12859" lon="4.60205">
        <ele>86.4</ele>
        <time>2019-06-01T09:53:03Z</time>
      </trkpt>
      <trkpt lat="44.12861" lon="4.60211">
        <ele>86.4</ele>
        <time>2019-06-01T09:53:04Z</time>
      </trkpt>
      <trkpt lat="44.12863" lon="4.60215">
        <ele>86.2</ele>
        <time>2019-06-01T09:53:05Z</time>
      </trkpt>
      <trkpt lat="44.12865" lon="4.6022">
        <ele>85.9</ele>
        <time>2019-06-01T09:53:06Z</time>
      </trkpt>
      <trkpt lat="44.12869" lon="4.60225">
        <ele>85.8</ele>
        <time>2019-06-01T09:53:07Z</time>
      </trkpt>
      <trkpt lat="44.12873" lon="4.60229">
        <ele>85.7</ele>
        <time>2019-06-01T09:53:08Z</time>
      </trkpt>
      <trkpt lat="44.12876" lon="4.60233">
        <ele>85.5</ele>
        <time>2019-06-01T09:53:09Z</time>
      </trkpt>
      <trkpt lat="44.1288" lon="4.60236">
        <ele>85.6</ele>
        <time>2019-06-01T09:53:10Z</time>
      </trkpt>
      <trkpt lat="44.12885" lon="4.60238">
        <ele>85.4</ele>
        <time>2019-06-01T09:53:11Z</time>
      </trkpt>
      <trkpt lat="44.12888" lon="4.60238">
        <ele>85.4</ele>
        <time>2019-06-01T09:53:12Z</time>
      </trkpt>
      <trkpt lat="44.12892" lon="4.60238">
        <ele>85.4</ele>
        <time>2019-06-01T09:53:13Z</time>
      </trkpt>
      <trkpt lat="44.12896" lon="4.60237">
        <ele>85.5</ele>
        <time>2019-06-01T09:53:14Z</time>
      </trkpt>
      <trkpt lat="44.12899" lon="4.60238">
        <ele>85.5</ele>
        <time>2019-06-01T09:53:15Z</time>
      </trkpt>
      <trkpt lat="44.12903" lon="4.60239">
        <ele>85.4</ele>
        <time>2019-06-01T09:53:16Z</time>
      </trkpt>
      <trkpt lat="44.12908" lon="4.60237">
        <ele>85.4</ele>
        <time>2019-06-01T09:53:17Z</time>
      </trkpt>
      <trkpt lat="44.12913" lon="4.60237">
        <ele>85.4</ele>
        <time>2019-06-01T09:53:18Z</time>
      </trkpt>
      <trkpt lat="44.12918" lon="4.60239">
        <ele>85.3</ele>
        <time>2019-06-01T09:53:19Z</time>
      </trkpt>
      <trkpt lat="44.12922" lon="4.60243">
        <ele>84.9</ele>
        <time>2019-06-01T09:53:20Z</time>
      </trkpt>
      <trkpt lat="44.12928" lon="4.60245">
        <ele>84.8</ele>
        <time>2019-06-01T09:53:21Z</time>
      </trkpt>
      <trkpt lat="44.12934" lon="4.60249">
        <ele>84.5</ele>
        <time>2019-06-01T09:53:22Z</time>
      </trkpt>
      <trkpt lat="44.1294" lon="4.60253">
        <ele>84.2</ele>
        <time>2019-06-01T09:53:23Z</time>
      </trkpt>
      <trkpt lat="44.12946" lon="4.60256">
        <ele>83.9</ele>
        <time>2019-06-01T09:53:24Z</time>
      </trkpt>
      <trkpt lat="44.12952" lon="4.6026">
        <ele>83.6</ele>
        <time>2019-06-01T09:53:25Z</time>
      </trkpt>
      <trkpt lat="44.12958" lon="4.60264">
        <ele>83.4</ele>
        <time>2019-06-01T09:53:26Z</time>
      </trkpt>
      <trkpt lat="44.12963" lon="4.60269">
        <ele>83.1</ele>
        <time>2019-06-01T09:53:27Z</time>
      </trkpt>
      <trkpt lat="44.12968" lon="4.60276">
        <ele>82.9</ele>
        <time>2019-06-01T09:53:28Z</time>
      </trkpt>
      <trkpt lat="44.12971" lon="4.60283">
        <ele>82.5</ele>
        <time>2019-06-01T09:53:29Z</time>
      </trkpt>
      <trkpt lat="44.12974" lon="4.60291">
        <ele>82.2</ele>
        <time>2019-06-01T09:53:30Z</time>
      </trkpt>
      <trkpt lat="44.12978" lon="4.60299">
        <ele>81.9</ele>
        <time>2019-06-01T09:53:31Z</time>
      </trkpt>
      <trkpt lat="44.12983" lon="4.60306">
        <ele>81.8</ele>
        <time>2019-06-01T09:53:32Z</time>
      </trkpt>
      <trkpt lat="44.12988" lon="4.60311">
        <ele>81.5</ele>
        <time>2019-06-01T09:53:33Z</time>
      </trkpt>
      <trkpt lat="44.12993" lon="4.60316">
        <ele>81.4</ele>
        <time>2019-06-01T09:53:34Z</time>
      </trkpt>
      <trkpt lat="44.12997" lon="4.6032">
        <ele>81.3</ele>
        <time>2019-06-01T09:53:35Z</time>
      </trkpt>
      <trkpt lat="44.12999" lon="4.60324">
        <ele>81.2</ele>
        <time>2019-06-01T09:53:36Z</time>
      </trkpt>
      <trkpt lat="44.13001" lon="4.60329">
        <ele>81</ele>
        <time>2019-06-01T09:53:37Z</time>
      </trkpt>
      <trkpt lat="44.13" lon="4.60336">
        <ele>80.7</ele>
        <time>2019-06-01T09:53:38Z</time>
      </trkpt>
      <trkpt lat="44.12998" lon="4.60342">
        <ele>80.5</ele>
        <time>2019-06-01T09:53:39Z</time>
      </trkpt>
      <trkpt lat="44.12995" lon="4.60348">
        <ele>80.3</ele>
        <time>2019-06-01T09:53:40Z</time>
      </trkpt>
      <trkpt lat="44.12992" lon="4.60354">
        <ele>80</ele>
        <time>2019-06-01T09:53:41Z</time>
      </trkpt>
      <trkpt lat="44.12989" lon="4.60362">
        <ele>79.7</ele>
        <time>2019-06-01T09:53:42Z</time>
      </trkpt>
      <trkpt lat="44.12985" lon="4.60372">
        <ele>79.5</ele>
        <time>2019-06-01T09:53:43Z</time>
      </trkpt>
      <trkpt lat="44.12981" lon="4.60379">
        <ele>79.3</ele>
        <time>2019-06-01T09:53:44Z</time>
      </trkpt>
      <trkpt lat="44.12977" lon="4.60384">
        <ele>79.2</ele>
        <time>2019-06-01T09:53:45Z</time>
      </trkpt>
      <trkpt lat="44.12974" lon="4.6039">
        <ele>79.2</ele>
        <time>2019-06-01T09:53:46Z</time>
      </trkpt>
      <trkpt lat="44.12971" lon="4.60393">
        <ele>79.1</ele>
        <time>2019-06-01T09:53:47Z</time>
      </trkpt>
      <trkpt lat="44.12967" lon="4.60395">
        <ele>79.1</ele>
        <time>2019-06-01T09:53:48Z</time>
      </trkpt>
      <trkpt lat="44.12962" lon="4.60393">
        <ele>79.1</ele>
        <time>2019-06-01T09:53:49Z</time>
      </trkpt>
      <trkpt lat="44.12957" lon="4.60389">
        <ele>79.2</ele>
        <time>2019-06-01T09:53:50Z</time>
      </trkpt>
      <trkpt lat="44.12953" lon="4.60388">
        <ele>79.2</ele>
        <time>2019-06-01T09:53:51Z</time>
      </trkpt>
      <trkpt lat="44.12949" lon="4.60387">
        <ele>79.3</ele>
        <time>2019-06-01T09:53:52Z</time>
      </trkpt>
      <trkpt lat="44.12945" lon="4.60386">
        <ele>79.3</ele>
        <time>2019-06-01T09:53:53Z</time>
      </trkpt>
      <trkpt lat="44.1294" lon="4.60393">
        <ele>79.1</ele>
        <time>2019-06-01T09:53:55Z</time>
      </trkpt>
      <trkpt lat="44.12938" lon="4.60398">
        <ele>79</ele>
        <time>2019-06-01T09:53:56Z</time>
      </trkpt>
      <trkpt lat="44.12936" lon="4.60405">
        <ele>78.8</ele>
        <time>2019-06-01T09:53:57Z</time>
      </trkpt>
      <trkpt lat="44.12935" lon="4.60412">
        <ele>78.6</ele>
        <time>2019-06-01T09:53:58Z</time>
      </trkpt>
      <trkpt lat="44.12934" lon="4.6042">
        <ele>78.3</ele>
        <time>2019-06-01T09:53:59Z</time>
      </trkpt>
      <trkpt lat="44.12932" lon="4.60427">
        <ele>78</ele>
        <time>2019-06-01T09:54:00Z</time>
      </trkpt>
      <trkpt lat="44.1293" lon="4.60434">
        <ele>77.8</ele>
        <time>2019-06-01T09:54:01Z</time>
      </trkpt>
      <trkpt lat="44.12929" lon="4.60441">
        <ele>77.4</ele>
        <time>2019-06-01T09:54:02Z</time>
      </trkpt>
      <trkpt lat="44.12927" lon="4.60449">
        <ele>76.9</ele>
        <time>2019-06-01T09:54:03Z</time>
      </trkpt>
      <trkpt lat="44.12925" lon="4.60458">
        <ele>76.5</ele>
        <time>2019-06-01T09:54:04Z</time>
      </trkpt>
      <trkpt lat="44.12923" lon="4.60465">
        <ele>76</ele>
        <time>2019-06-01T09:54:05Z</time>
      </trkpt>
      <trkpt lat="44.12922" lon="4.60473">
        <ele>75.6</ele>
        <time>2019-06-01T09:54:06Z</time>
      </trkpt>
      <trkpt lat="44.1292" lon="4.60483">
        <ele>75.1</ele>
        <time>2019-06-01T09:54:07Z</time>
      </trkpt>
      <trkpt lat="44.12919" lon="4.6049">
        <ele>74.9</ele>
        <time>2019-06-01T09:54:08Z</time>
      </trkpt>
      <trkpt lat="44.12917" lon="4.605">
        <ele>74.3</ele>
        <time>2019-06-01T09:54:09Z</time>
      </trkpt>
      <trkpt lat="44.12916" lon="4.60508">
        <ele>74</ele>
        <time>2019-06-01T09:54:10Z</time>
      </trkpt>
      <trkpt lat="44.12914" lon="4.60518">
        <ele>73.7</ele>
        <time>2019-06-01T09:54:11Z</time>
      </trkpt>
      <trkpt lat="44.1291" lon="4.60531">
        <ele>73.4</ele>
        <time>2019-06-01T09:54:12Z</time>
      </trkpt>
      <trkpt lat="44.12909" lon="4.60541">
        <ele>73.1</ele>
        <time>2019-06-01T09:54:13Z</time>
      </trkpt>
      <trkpt lat="44.12908" lon="4.60551">
        <ele>72.8</ele>
        <time>2019-06-01T09:54:14Z</time>
      </trkpt>
      <trkpt lat="44.12906" lon="4.60561">
        <ele>72.4</ele>
        <time>2019-06-01T09:54:15Z</time>
      </trkpt>
      <trkpt lat="44.12905" lon="4.60572">
        <ele>72.2</ele>
        <time>2019-06-01T09:54:16Z</time>
      </trkpt>
      <trkpt lat="44.12904" lon="4.60582">
        <ele>71.8</ele>
        <time>2019-06-01T09:54:17Z</time>
      </trkpt>
      <trkpt lat="44.12903" lon="4.60592">
        <ele>71.5</ele>
        <time>2019-06-01T09:54:18Z</time>
      </trkpt>
      <trkpt lat="44.12902" lon="4.60601">
        <ele>71.1</ele>
        <time>2019-06-01T09:54:19Z</time>
      </trkpt>
      <trkpt lat="44.12901" lon="4.6061">
        <ele>70.9</ele>
        <time>2019-06-01T09:54:20Z</time>
      </trkpt>
      <trkpt lat="44.12899" lon="4.60619">
        <ele>70.6</ele>
        <time>2019-06-01T09:54:21Z</time>
      </trkpt>
      <trkpt lat="44.12897" lon="4.60628">
        <ele>70.2</ele>
        <time>2019-06-01T09:54:22Z</time>
      </trkpt>
      <trkpt lat="44.12895" lon="4.60637">
        <ele>69.8</ele>
        <time>2019-06-01T09:54:23Z</time>
      </trkpt>
      <trkpt lat="44.12894" lon="4.60646">
        <ele>69.5</ele>
        <time>2019-06-01T09:54:24Z</time>
      </trkpt>
      <trkpt lat="44.12892" lon="4.60655">
        <ele>69.2</ele>
        <time>2019-06-01T09:54:25Z</time>
      </trkpt>
      <trkpt lat="44.12891" lon="4.60662">
        <ele>68.9</ele>
        <time>2019-06-01T09:54:26Z</time>
      </trkpt>
      <trkpt lat="44.12889" lon="4.60668">
        <ele>68.8</ele>
        <time>2019-06-01T09:54:27Z</time>
      </trkpt>
      <trkpt lat="44.12886" lon="4.60672">
        <ele>68.6</ele>
        <time>2019-06-01T09:54:28Z</time>
      </trkpt>
      <trkpt lat="44.12881" lon="4.60672">
        <ele>68.6</ele>
        <time>2019-06-01T09:54:29Z</time>
      </trkpt>
      <trkpt lat="44.12878" lon="4.60672">
        <ele>68.6</ele>
        <time>2019-06-01T09:54:30Z</time>
      </trkpt>
      <trkpt lat="44.12874" lon="4.60671">
        <ele>68.6</ele>
        <time>2019-06-01T09:54:31Z</time>
      </trkpt>
      <trkpt lat="44.12871" lon="4.60666">
        <ele>68.5</ele>
        <time>2019-06-01T09:54:32Z</time>
      </trkpt>
      <trkpt lat="44.12867" lon="4.60662">
        <ele>68.5</ele>
        <time>2019-06-01T09:54:33Z</time>
      </trkpt>
      <trkpt lat="44.12863" lon="4.60657">
        <ele>68.5</ele>
        <time>2019-06-01T09:54:34Z</time>
      </trkpt>
      <trkpt lat="44.12858" lon="4.60654">
        <ele>68.5</ele>
        <time>2019-06-01T09:54:35Z</time>
      </trkpt>
      <trkpt lat="44.12853" lon="4.60649">
        <ele>68.5</ele>
        <time>2019-06-01T09:54:36Z</time>
      </trkpt>
      <trkpt lat="44.12848" lon="4.60646">
        <ele>68.5</ele>
        <time>2019-06-01T09:54:37Z</time>
      </trkpt>
      <trkpt lat="44.12843" lon="4.60642">
        <ele>68.5</ele>
        <time>2019-06-01T09:54:38Z</time>
      </trkpt>
      <trkpt lat="44.12838" lon="4.60638">
        <ele>68.5</ele>
        <time>2019-06-01T09:54:39Z</time>
      </trkpt>
      <trkpt lat="44.12833" lon="4.60634">
        <ele>68.6</ele>
        <time>2019-06-01T09:54:40Z</time>
      </trkpt>
      <trkpt lat="44.12828" lon="4.60628">
        <ele>68.6</ele>
        <time>2019-06-01T09:54:41Z</time>
      </trkpt>
      <trkpt lat="44.12823" lon="4.60624">
        <ele>68.7</ele>
        <time>2019-06-01T09:54:42Z</time>
      </trkpt>
      <trkpt lat="44.12819" lon="4.60618">
        <ele>68.7</ele>
        <time>2019-06-01T09:54:43Z</time>
      </trkpt>
      <trkpt lat="44.12814" lon="4.60614">
        <ele>68.8</ele>
        <time>2019-06-01T09:54:44Z</time>
      </trkpt>
      <trkpt lat="44.1281" lon="4.6061">
        <ele>68.9</ele>
        <time>2019-06-01T09:54:45Z</time>
      </trkpt>
      <trkpt lat="44.12806" lon="4.60606">
        <ele>68.9</ele>
        <time>2019-06-01T09:54:46Z</time>
      </trkpt>
      <trkpt lat="44.12802" lon="4.60602">
        <ele>69</ele>
        <time>2019-06-01T09:54:47Z</time>
      </trkpt>
      <trkpt lat="44.12798" lon="4.60597">
        <ele>69.1</ele>
        <time>2019-06-01T09:54:48Z</time>
      </trkpt>
      <trkpt lat="44.12794" lon="4.60593">
        <ele>69.2</ele>
        <time>2019-06-01T09:54:49Z</time>
      </trkpt>
      <trkpt lat="44.12789" lon="4.60589">
        <ele>69.2</ele>
        <time>2019-06-01T09:54:50Z</time>
      </trkpt>
      <trkpt lat="44.12786" lon="4.60584">
        <ele>69.3</ele>
        <time>2019-06-01T09:54:51Z</time>
      </trkpt>
      <trkpt lat="44.12782" lon="4.6058">
        <ele>69.3</ele>
        <time>2019-06-01T09:54:52Z</time>
      </trkpt>
      <trkpt lat="44.12778" lon="4.60576">
        <ele>69.3</ele>
        <time>2019-06-01T09:54:53Z</time>
      </trkpt>
      <trkpt lat="44.12774" lon="4.60573">
        <ele>69.3</ele>
        <time>2019-06-01T09:54:54Z</time>
      </trkpt>
      <trkpt lat="44.1277" lon="4.6057">
        <ele>69.3</ele>
        <time>2019-06-01T09:54:55Z</time>
      </trkpt>
      <trkpt lat="44.12767" lon="4.60568">
        <ele>69.3</ele>
        <time>2019-06-01T09:54:56Z</time>
      </trkpt>
      <trkpt lat="44.12764" lon="4.60566">
        <ele>69.3</ele>
        <time>2019-06-01T09:54:57Z</time>
      </trkpt>
      <trkpt lat="44.12762" lon="4.60564">
        <ele>69.3</ele>
        <time>2019-06-01T09:54:58Z</time>
      </trkpt>
      <trkpt lat="44.12758" lon="4.60561">
        <ele>69.3</ele>
        <time>2019-06-01T09:54:59Z</time>
      </trkpt>
      <trkpt lat="44.12757" lon="4.60557">
        <ele>69.2</ele>
        <time>2019-06-01T09:55:00Z</time>
      </trkpt>
      <trkpt lat="44.12754" lon="4.60554">
        <ele>69.2</ele>
        <time>2019-06-01T09:55:01Z</time>
      </trkpt>
      <trkpt lat="44.12752" lon="4.6055">
        <ele>69.2</ele>
        <time>2019-06-01T09:55:02Z</time>
      </trkpt>
      <trkpt lat="44.12748" lon="4.60548">
        <ele>69.2</ele>
        <time>2019-06-01T09:55:03Z</time>
      </trkpt>
      <trkpt lat="44.12745" lon="4.60545">
        <ele>69.1</ele>
        <time>2019-06-01T09:55:04Z</time>
      </trkpt>
      <trkpt lat="44.12743" lon="4.60542">
        <ele>69.1</ele>
        <time>2019-06-01T09:55:05Z</time>
      </trkpt>
      <trkpt lat="44.12737" lon="4.60538">
        <ele>69</ele>
        <time>2019-06-01T09:55:06Z</time>
      </trkpt>
      <trkpt lat="44.12732" lon="4.60536">
        <ele>69</ele>
        <time>2019-06-01T09:55:07Z</time>
      </trkpt>
      <trkpt lat="44.12728" lon="4.60533">
        <ele>68.9</ele>
        <time>2019-06-01T09:55:08Z</time>
      </trkpt>
      <trkpt lat="44.12724" lon="4.6053">
        <ele>68.9</ele>
        <time>2019-06-01T09:55:09Z</time>
      </trkpt>
      <trkpt lat="44.12719" lon="4.60528">
        <ele>68.9</ele>
        <time>2019-06-01T09:55:10Z</time>
      </trkpt>
      <trkpt lat="44.12714" lon="4.60526">
        <ele>68.9</ele>
        <time>2019-06-01T09:55:11Z</time>
      </trkpt>
      <trkpt lat="44.12708" lon="4.60522">
        <ele>68.9</ele>
        <time>2019-06-01T09:55:12Z</time>
      </trkpt>
      <trkpt lat="44.12704" lon="4.6052">
        <ele>69</ele>
        <time>2019-06-01T09:55:13Z</time>
      </trkpt>
      <trkpt lat="44.127" lon="4.60517">
        <ele>69</ele>
        <time>2019-06-01T09:55:14Z</time>
      </trkpt>
      <trkpt lat="44.12696" lon="4.60514">
        <ele>69</ele>
        <time>2019-06-01T09:55:15Z</time>
      </trkpt>
      <trkpt lat="44.12692" lon="4.60511">
        <ele>69</ele>
        <time>2019-06-01T09:55:16Z</time>
      </trkpt>
      <trkpt lat="44.12688" lon="4.60509">
        <ele>69.1</ele>
        <time>2019-06-01T09:55:17Z</time>
      </trkpt>
      <trkpt lat="44.12682" lon="4.60507">
        <ele>69.1</ele>
        <time>2019-06-01T09:55:18Z</time>
      </trkpt>
      <trkpt lat="44.12678" lon="4.60504">
        <ele>69.1</ele>
        <time>2019-06-01T09:55:19Z</time>
      </trkpt>
      <trkpt lat="44.12674" lon="4.60501">
        <ele>69.1</ele>
        <time>2019-06-01T09:55:20Z</time>
      </trkpt>
      <trkpt lat="44.1267" lon="4.605">
        <ele>69.1</ele>
        <time>2019-06-01T09:55:21Z</time>
      </trkpt>
      <trkpt lat="44.12666" lon="4.60498">
        <ele>69.1</ele>
        <time>2019-06-01T09:55:22Z</time>
      </trkpt>
      <trkpt lat="44.12661" lon="4.60497">
        <ele>69.1</ele>
        <time>2019-06-01T09:55:23Z</time>
      </trkpt>
      <trkpt lat="44.12658" lon="4.60496">
        <ele>69.1</ele>
        <time>2019-06-01T09:55:24Z</time>
      </trkpt>
      <trkpt lat="44.12654" lon="4.60493">
        <ele>69.1</ele>
        <time>2019-06-01T09:55:25Z</time>
      </trkpt>
      <trkpt lat="44.1265" lon="4.60488">
        <ele>69.1</ele>
        <time>2019-06-01T09:55:26Z</time>
      </trkpt>
      <trkpt lat="44.12646" lon="4.60486">
        <ele>69</ele>
        <time>2019-06-01T09:55:27Z</time>
      </trkpt>
      <trkpt lat="44.12643" lon="4.60485">
        <ele>69</ele>
        <time>2019-06-01T09:55:28Z</time>
      </trkpt>
      <trkpt lat="44.12638" lon="4.60485">
        <ele>68.9</ele>
        <time>2019-06-01T09:55:29Z</time>
      </trkpt>
      <trkpt lat="44.12632" lon="4.60487">
        <ele>68.9</ele>
        <time>2019-06-01T09:55:30Z</time>
      </trkpt>
      <trkpt lat="44.12628" lon="4.60489">
        <ele>68.8</ele>
        <time>2019-06-01T09:55:31Z</time>
      </trkpt>
      <trkpt lat="44.12622" lon="4.60489">
        <ele>68.8</ele>
        <time>2019-06-01T09:55:32Z</time>
      </trkpt>
      <trkpt lat="44.12618" lon="4.60491">
        <ele>68.8</ele>
        <time>2019-06-01T09:55:33Z</time>
      </trkpt>
      <trkpt lat="44.12613" lon="4.60494">
        <ele>68.8</ele>
        <time>2019-06-01T09:55:34Z</time>
      </trkpt>
      <trkpt lat="44.12608" lon="4.60497">
        <ele>68.8</ele>
        <time>2019-06-01T09:55:35Z</time>
      </trkpt>
      <trkpt lat="44.12603" lon="4.60499">
        <ele>68.8</ele>
        <time>2019-06-01T09:55:36Z</time>
      </trkpt>
      <trkpt lat="44.12599" lon="4.60499">
        <ele>68.8</ele>
        <time>2019-06-01T09:55:37Z</time>
      </trkpt>
      <trkpt lat="44.12594" lon="4.60497">
        <ele>68.8</ele>
        <time>2019-06-01T09:55:38Z</time>
      </trkpt>
      <trkpt lat="44.12589" lon="4.60497">
        <ele>68.9</ele>
        <time>2019-06-01T09:55:39Z</time>
      </trkpt>
      <trkpt lat="44.12584" lon="4.60496">
        <ele>69</ele>
        <time>2019-06-01T09:55:40Z</time>
      </trkpt>
      <trkpt lat="44.12579" lon="4.60494">
        <ele>69.1</ele>
        <time>2019-06-01T09:55:41Z</time>
      </trkpt>
      <trkpt lat="44.12574" lon="4.60494">
        <ele>69.2</ele>
        <time>2019-06-01T09:55:42Z</time>
      </trkpt>
      <trkpt lat="44.12569" lon="4.60492">
        <ele>69.3</ele>
        <time>2019-06-01T09:55:43Z</time>
      </trkpt>
      <trkpt lat="44.12564" lon="4.60493">
        <ele>69.4</ele>
        <time>2019-06-01T09:55:44Z</time>
      </trkpt>
      <trkpt lat="44.1256" lon="4.60492">
        <ele>69.5</ele>
        <time>2019-06-01T09:55:45Z</time>
      </trkpt>
      <trkpt lat="44.12555" lon="4.60491">
        <ele>69.7</ele>
        <time>2019-06-01T09:55:46Z</time>
      </trkpt>
      <trkpt lat="44.1255" lon="4.60491">
        <ele>69.8</ele>
        <time>2019-06-01T09:55:47Z</time>
      </trkpt>
      <trkpt lat="44.12545" lon="4.60491">
        <ele>69.9</ele>
        <time>2019-06-01T09:55:48Z</time>
      </trkpt>
      <trkpt lat="44.1254" lon="4.60491">
        <ele>70.1</ele>
        <time>2019-06-01T09:55:49Z</time>
      </trkpt>
      <trkpt lat="44.12535" lon="4.60489">
        <ele>70.2</ele>
        <time>2019-06-01T09:55:50Z</time>
      </trkpt>
      <trkpt lat="44.12531" lon="4.60488">
        <ele>70.4</ele>
        <time>2019-06-01T09:55:51Z</time>
      </trkpt>
      <trkpt lat="44.12527" lon="4.60487">
        <ele>70.5</ele>
        <time>2019-06-01T09:55:52Z</time>
      </trkpt>
      <trkpt lat="44.12522" lon="4.60486">
        <ele>70.6</ele>
        <time>2019-06-01T09:55:53Z</time>
      </trkpt>
      <trkpt lat="44.12517" lon="4.60485">
        <ele>70.8</ele>
        <time>2019-06-01T09:55:54Z</time>
      </trkpt>
      <trkpt lat="44.12511" lon="4.60483">
        <ele>70.8</ele>
        <time>2019-06-01T09:55:55Z</time>
      </trkpt>
      <trkpt lat="44.12506" lon="4.60483">
        <ele>70.7</ele>
        <time>2019-06-01T09:55:56Z</time>
      </trkpt>
      <trkpt lat="44.12502" lon="4.60483">
        <ele>70.7</ele>
        <time>2019-06-01T09:55:57Z</time>
      </trkpt>
      <trkpt lat="44.12499" lon="4.6048">
        <ele>70.6</ele>
        <time>2019-06-01T09:55:58Z</time>
      </trkpt>
      <trkpt lat="44.12494" lon="4.6048">
        <ele>70.6</ele>
        <time>2019-06-01T09:55:59Z</time>
      </trkpt>
      <trkpt lat="44.12488" lon="4.6048">
        <ele>70.5</ele>
        <time>2019-06-01T09:56:00Z</time>
      </trkpt>
      <trkpt lat="44.12483" lon="4.6048">
        <ele>70.5</ele>
        <time>2019-06-01T09:56:01Z</time>
      </trkpt>
      <trkpt lat="44.12479" lon="4.60479">
        <ele>70.4</ele>
        <time>2019-06-01T09:56:02Z</time>
      </trkpt>
      <trkpt lat="44.12474" lon="4.60479">
        <ele>70.4</ele>
        <time>2019-06-01T09:56:03Z</time>
      </trkpt>
      <trkpt lat="44.12469" lon="4.60478">
        <ele>70.3</ele>
        <time>2019-06-01T09:56:04Z</time>
      </trkpt>
      <trkpt lat="44.12464" lon="4.60475">
        <ele>70.3</ele>
        <time>2019-06-01T09:56:05Z</time>
      </trkpt>
      <trkpt lat="44.1246" lon="4.60472">
        <ele>70.2</ele>
        <time>2019-06-01T09:56:06Z</time>
      </trkpt>
      <trkpt lat="44.12454" lon="4.60468">
        <ele>70.2</ele>
        <time>2019-06-01T09:56:07Z</time>
      </trkpt>
      <trkpt lat="44.12449" lon="4.60466">
        <ele>70.1</ele>
        <time>2019-06-01T09:56:08Z</time>
      </trkpt>
      <trkpt lat="44.12445" lon="4.60466">
        <ele>70.1</ele>
        <time>2019-06-01T09:56:09Z</time>
      </trkpt>
      <trkpt lat="44.1244" lon="4.60466">
        <ele>70.1</ele>
        <time>2019-06-01T09:56:10Z</time>
      </trkpt>
      <trkpt lat="44.12435" lon="4.60465">
        <ele>70</ele>
        <time>2019-06-01T09:56:11Z</time>
      </trkpt>
      <trkpt lat="44.1243" lon="4.60464">
        <ele>70</ele>
        <time>2019-06-01T09:56:12Z</time>
      </trkpt>
      <trkpt lat="44.12426" lon="4.60464">
        <ele>69.9</ele>
        <time>2019-06-01T09:56:13Z</time>
      </trkpt>
      <trkpt lat="44.12421" lon="4.60463">
        <ele>69.9</ele>
        <time>2019-06-01T09:56:14Z</time>
      </trkpt>
      <trkpt lat="44.12416" lon="4.60461">
        <ele>69.8</ele>
        <time>2019-06-01T09:56:15Z</time>
      </trkpt>
      <trkpt lat="44.12412" lon="4.60459">
        <ele>69.8</ele>
        <time>2019-06-01T09:56:16Z</time>
      </trkpt>
      <trkpt lat="44.12407" lon="4.60457">
        <ele>69.7</ele>
        <time>2019-06-01T09:56:17Z</time>
      </trkpt>
      <trkpt lat="44.12402" lon="4.60456">
        <ele>69.7</ele>
        <time>2019-06-01T09:56:18Z</time>
      </trkpt>
      <trkpt lat="44.12397" lon="4.60454">
        <ele>69.6</ele>
        <time>2019-06-01T09:56:19Z</time>
      </trkpt>
      <trkpt lat="44.12392" lon="4.60453">
        <ele>69.6</ele>
        <time>2019-06-01T09:56:20Z</time>
      </trkpt>
      <trkpt lat="44.12388" lon="4.60451">
        <ele>69.5</ele>
        <time>2019-06-01T09:56:21Z</time>
      </trkpt>
      <trkpt lat="44.12383" lon="4.60449">
        <ele>69.5</ele>
        <time>2019-06-01T09:56:22Z</time>
      </trkpt>
      <trkpt lat="44.12379" lon="4.60448">
        <ele>69.4</ele>
        <time>2019-06-01T09:56:23Z</time>
      </trkpt>
      <trkpt lat="44.12374" lon="4.60446">
        <ele>69.4</ele>
        <time>2019-06-01T09:56:24Z</time>
      </trkpt>
      <trkpt lat="44.1237" lon="4.60444">
        <ele>69.3</ele>
        <time>2019-06-01T09:56:25Z</time>
      </trkpt>
      <trkpt lat="44.12365" lon="4.60442">
        <ele>69.3</ele>
        <time>2019-06-01T09:56:26Z</time>
      </trkpt>
      <trkpt lat="44.1236" lon="4.60441">
        <ele>69.2</ele>
        <time>2019-06-01T09:56:27Z</time>
      </trkpt>
      <trkpt lat="44.12355" lon="4.60439">
        <ele>69.2</ele>
        <time>2019-06-01T09:56:28Z</time>
      </trkpt>
      <trkpt lat="44.12351" lon="4.60438">
        <ele>69.1</ele>
        <time>2019-06-01T09:56:29Z</time>
      </trkpt>
      <trkpt lat="44.12346" lon="4.60436">
        <ele>69.1</ele>
        <time>2019-06-01T09:56:30Z</time>
      </trkpt>
      <trkpt lat="44.12341" lon="4.60434">
        <ele>69.1</ele>
        <time>2019-06-01T09:56:31Z</time>
      </trkpt>
      <trkpt lat="44.12336" lon="4.60433">
        <ele>69.2</ele>
        <time>2019-06-01T09:56:32Z</time>
      </trkpt>
      <trkpt lat="44.12331" lon="4.60431">
        <ele>69.2</ele>
        <time>2019-06-01T09:56:33Z</time>
      </trkpt>
      <trkpt lat="44.12326" lon="4.60429">
        <ele>69.3</ele>
        <time>2019-06-01T09:56:34Z</time>
      </trkpt>
      <trkpt lat="44.12321" lon="4.60428">
        <ele>69.3</ele>
        <time>2019-06-01T09:56:35Z</time>
      </trkpt>
      <trkpt lat="44.12316" lon="4.60426">
        <ele>69.3</ele>
        <time>2019-06-01T09:56:36Z</time>
      </trkpt>
      <trkpt lat="44.12311" lon="4.60425">
        <ele>69.4</ele>
        <time>2019-06-01T09:56:37Z</time>
      </trkpt>
      <trkpt lat="44.12306" lon="4.60423">
        <ele>69.4</ele>
        <time>2019-06-01T09:56:38Z</time>
      </trkpt>
      <trkpt lat="44.12302" lon="4.60421">
        <ele>69.5</ele>
        <time>2019-06-01T09:56:39Z</time>
      </trkpt>
      <trkpt lat="44.12297" lon="4.6042">
        <ele>69.5</ele>
        <time>2019-06-01T09:56:40Z</time>
      </trkpt>
      <trkpt lat="44.12291" lon="4.60418">
        <ele>69.5</ele>
        <time>2019-06-01T09:56:41Z</time>
      </trkpt>
      <trkpt lat="44.12287" lon="4.60416">
        <ele>69.5</ele>
        <time>2019-06-01T09:56:42Z</time>
      </trkpt>
      <trkpt lat="44.12282" lon="4.60414">
        <ele>69.5</ele>
        <time>2019-06-01T09:56:43Z</time>
      </trkpt>
      <trkpt lat="44.12278" lon="4.60411">
        <ele>69.5</ele>
        <time>2019-06-01T09:56:44Z</time>
      </trkpt>
      <trkpt lat="44.12273" lon="4.60409">
        <ele>69.5</ele>
        <time>2019-06-01T09:56:45Z</time>
      </trkpt>
      <trkpt lat="44.12267" lon="4.60408">
        <ele>69.5</ele>
        <time>2019-06-01T09:56:46Z</time>
      </trkpt>
      <trkpt lat="44.12263" lon="4.60407">
        <ele>69.5</ele>
        <time>2019-06-01T09:56:47Z</time>
      </trkpt>
      <trkpt lat="44.12258" lon="4.60405">
        <ele>69.4</ele>
        <time>2019-06-01T09:56:48Z</time>
      </trkpt>
      <trkpt lat="44.12253" lon="4.60404">
        <ele>69.4</ele>
        <time>2019-06-01T09:56:49Z</time>
      </trkpt>
      <trkpt lat="44.12249" lon="4.60403">
        <ele>69.4</ele>
        <time>2019-06-01T09:56:50Z</time>
      </trkpt>
      <trkpt lat="44.12246" lon="4.60402">
        <ele>69.4</ele>
        <time>2019-06-01T09:56:51Z</time>
      </trkpt>
      <trkpt lat="44.12242" lon="4.604">
        <ele>69.4</ele>
        <time>2019-06-01T09:56:52Z</time>
      </trkpt>
      <trkpt lat="44.12236" lon="4.60398">
        <ele>69.3</ele>
        <time>2019-06-01T09:56:53Z</time>
      </trkpt>
      <trkpt lat="44.12231" lon="4.60396">
        <ele>69.3</ele>
        <time>2019-06-01T09:56:54Z</time>
      </trkpt>
      <trkpt lat="44.12226" lon="4.60396">
        <ele>69.4</ele>
        <time>2019-06-01T09:56:55Z</time>
      </trkpt>
      <trkpt lat="44.12221" lon="4.60395">
        <ele>69.4</ele>
        <time>2019-06-01T09:56:56Z</time>
      </trkpt>
      <trkpt lat="44.12216" lon="4.60393">
        <ele>69.5</ele>
        <time>2019-06-01T09:56:57Z</time>
      </trkpt>
      <trkpt lat="44.12211" lon="4.60392">
        <ele>69.5</ele>
        <time>2019-06-01T09:56:58Z</time>
      </trkpt>
      <trkpt lat="44.12206" lon="4.60391">
        <ele>69.6</ele>
        <time>2019-06-01T09:56:59Z</time>
      </trkpt>
      <trkpt lat="44.12202" lon="4.60391">
        <ele>69.6</ele>
        <time>2019-06-01T09:57:00Z</time>
      </trkpt>
      <trkpt lat="44.12196" lon="4.60389">
        <ele>69.7</ele>
        <time>2019-06-01T09:57:01Z</time>
      </trkpt>
      <trkpt lat="44.12191" lon="4.60389">
        <ele>69.8</ele>
        <time>2019-06-01T09:57:02Z</time>
      </trkpt>
      <trkpt lat="44.12187" lon="4.60388">
        <ele>69.8</ele>
        <time>2019-06-01T09:57:03Z</time>
      </trkpt>
      <trkpt lat="44.12183" lon="4.60388">
        <ele>69.9</ele>
        <time>2019-06-01T09:57:04Z</time>
      </trkpt>
      <trkpt lat="44.12179" lon="4.60387">
        <ele>69.9</ele>
        <time>2019-06-01T09:57:05Z</time>
      </trkpt>
      <trkpt lat="44.12172" lon="4.60384">
        <ele>70</ele>
        <time>2019-06-01T09:57:06Z</time>
      </trkpt>
      <trkpt lat="44.12168" lon="4.60383">
        <ele>70</ele>
        <time>2019-06-01T09:57:07Z</time>
      </trkpt>
      <trkpt lat="44.12164" lon="4.60382">
        <ele>70.1</ele>
        <time>2019-06-01T09:57:08Z</time>
      </trkpt>
      <trkpt lat="44.1216" lon="4.6038">
        <ele>70.1</ele>
        <time>2019-06-01T09:57:09Z</time>
      </trkpt>
      <trkpt lat="44.12156" lon="4.60378">
        <ele>70.1</ele>
        <time>2019-06-01T09:57:10Z</time>
      </trkpt>
      <trkpt lat="44.12152" lon="4.60377">
        <ele>70.1</ele>
        <time>2019-06-01T09:57:11Z</time>
      </trkpt>
      <trkpt lat="44.12148" lon="4.60375">
        <ele>70.1</ele>
        <time>2019-06-01T09:57:12Z</time>
      </trkpt>
      <trkpt lat="44.12143" lon="4.60373">
        <ele>70.1</ele>
        <time>2019-06-01T09:57:13Z</time>
      </trkpt>
      <trkpt lat="44.12138" lon="4.60371">
        <ele>70.1</ele>
        <time>2019-06-01T09:57:14Z</time>
      </trkpt>
      <trkpt lat="44.12135" lon="4.60369">
        <ele>70.2</ele>
        <time>2019-06-01T09:57:15Z</time>
      </trkpt>
      <trkpt lat="44.12131" lon="4.60367">
        <ele>70.2</ele>
        <time>2019-06-01T09:57:16Z</time>
      </trkpt>
      <trkpt lat="44.12127" lon="4.60365">
        <ele>70.2</ele>
        <time>2019-06-01T09:57:17Z</time>
      </trkpt>
      <trkpt lat="44.12123" lon="4.60363">
        <ele>70.3</ele>
        <time>2019-06-01T09:57:18Z</time>
      </trkpt>
      <trkpt lat="44.12119" lon="4.60362">
        <ele>70.3</ele>
        <time>2019-06-01T09:57:19Z</time>
      </trkpt>
      <trkpt lat="44.12115" lon="4.60361">
        <ele>70.4</ele>
        <time>2019-06-01T09:57:20Z</time>
      </trkpt>
      <trkpt lat="44.12112" lon="4.60359">
        <ele>70.5</ele>
        <time>2019-06-01T09:57:21Z</time>
      </trkpt>
      <trkpt lat="44.12108" lon="4.60357">
        <ele>70.5</ele>
        <time>2019-06-01T09:57:22Z</time>
      </trkpt>
      <trkpt lat="44.12105" lon="4.60354">
        <ele>70.6</ele>
        <time>2019-06-01T09:57:23Z</time>
      </trkpt>
      <trkpt lat="44.12101" lon="4.60352">
        <ele>70.6</ele>
        <time>2019-06-01T09:57:24Z</time>
      </trkpt>
      <trkpt lat="44.12098" lon="4.60349">
        <ele>70.6</ele>
        <time>2019-06-01T09:57:25Z</time>
      </trkpt>
      <trkpt lat="44.12094" lon="4.60348">
        <ele>70.7</ele>
        <time>2019-06-01T09:57:26Z</time>
      </trkpt>
      <trkpt lat="44.12091" lon="4.60347">
        <ele>70.7</ele>
        <time>2019-06-01T09:57:27Z</time>
      </trkpt>
      <trkpt lat="44.12087" lon="4.60346">
        <ele>70.8</ele>
        <time>2019-06-01T09:57:28Z</time>
      </trkpt>
      <trkpt lat="44.12083" lon="4.60344">
        <ele>70.8</ele>
        <time>2019-06-01T09:57:29Z</time>
      </trkpt>
      <trkpt lat="44.12079" lon="4.60343">
        <ele>70.8</ele>
        <time>2019-06-01T09:57:30Z</time>
      </trkpt>
      <trkpt lat="44.12076" lon="4.60342">
        <ele>70.8</ele>
        <time>2019-06-01T09:57:31Z</time>
      </trkpt>
      <trkpt lat="44.12072" lon="4.60341">
        <ele>70.9</ele>
        <time>2019-06-01T09:57:32Z</time>
      </trkpt>
      <trkpt lat="44.12068" lon="4.6034">
        <ele>70.9</ele>
        <time>2019-06-01T09:57:33Z</time>
      </trkpt>
      <trkpt lat="44.12064" lon="4.60339">
        <ele>70.9</ele>
        <time>2019-06-01T09:57:34Z</time>
      </trkpt>
      <trkpt lat="44.1206" lon="4.60337">
        <ele>70.9</ele>
        <time>2019-06-01T09:57:35Z</time>
      </trkpt>
      <trkpt lat="44.12056" lon="4.60335">
        <ele>70.9</ele>
        <time>2019-06-01T09:57:36Z</time>
      </trkpt>
      <trkpt lat="44.12052" lon="4.60334">
        <ele>70.9</ele>
        <time>2019-06-01T09:57:37Z</time>
      </trkpt>
      <trkpt lat="44.12048" lon="4.60332">
        <ele>70.9</ele>
        <time>2019-06-01T09:57:38Z</time>
      </trkpt>
      <trkpt lat="44.12044" lon="4.6033">
        <ele>70.9</ele>
        <time>2019-06-01T09:57:39Z</time>
      </trkpt>
      <trkpt lat="44.12039" lon="4.60329">
        <ele>70.9</ele>
        <time>2019-06-01T09:57:40Z</time>
      </trkpt>
      <trkpt lat="44.12035" lon="4.60328">
        <ele>70.9</ele>
        <time>2019-06-01T09:57:41Z</time>
      </trkpt>
      <trkpt lat="44.12031" lon="4.60326">
        <ele>70.9</ele>
        <time>2019-06-01T09:57:42Z</time>
      </trkpt>
      <trkpt lat="44.12027" lon="4.60326">
        <ele>70.9</ele>
        <time>2019-06-01T09:57:43Z</time>
      </trkpt>
      <trkpt lat="44.12022" lon="4.60325">
        <ele>70.9</ele>
        <time>2019-06-01T09:57:44Z</time>
      </trkpt>
      <trkpt lat="44.12019" lon="4.60324">
        <ele>70.9</ele>
        <time>2019-06-01T09:57:45Z</time>
      </trkpt>
      <trkpt lat="44.12015" lon="4.60323">
        <ele>71</ele>
        <time>2019-06-01T09:57:46Z</time>
      </trkpt>
      <trkpt lat="44.12011" lon="4.60323">
        <ele>71</ele>
        <time>2019-06-01T09:57:47Z</time>
      </trkpt>
      <trkpt lat="44.12006" lon="4.60323">
        <ele>71</ele>
        <time>2019-06-01T09:57:48Z</time>
      </trkpt>
      <trkpt lat="44.12002" lon="4.60322">
        <ele>71</ele>
        <time>2019-06-01T09:57:49Z</time>
      </trkpt>
      <trkpt lat="44.11998" lon="4.60322">
        <ele>71</ele>
        <time>2019-06-01T09:57:50Z</time>
      </trkpt>
      <trkpt lat="44.11994" lon="4.60321">
        <ele>71</ele>
        <time>2019-06-01T09:57:51Z</time>
      </trkpt>
      <trkpt lat="44.11989" lon="4.60319">
        <ele>70.9</ele>
        <time>2019-06-01T09:57:52Z</time>
      </trkpt>
      <trkpt lat="44.11985" lon="4.60318">
        <ele>70.9</ele>
        <time>2019-06-01T09:57:53Z</time>
      </trkpt>
      <trkpt lat="44.1198" lon="4.60318">
        <ele>70.8</ele>
        <time>2019-06-01T09:57:54Z</time>
      </trkpt>
      <trkpt lat="44.11975" lon="4.60316">
        <ele>70.8</ele>
        <time>2019-06-01T09:57:55Z</time>
      </trkpt>
      <trkpt lat="44.11971" lon="4.60315">
        <ele>70.8</ele>
        <time>2019-06-01T09:57:56Z</time>
      </trkpt>
      <trkpt lat="44.11965" lon="4.60313">
        <ele>70.7</ele>
        <time>2019-06-01T09:57:57Z</time>
      </trkpt>
      <trkpt lat="44.1196" lon="4.60312">
        <ele>70.7</ele>
        <time>2019-06-01T09:57:58Z</time>
      </trkpt>
      <trkpt lat="44.11956" lon="4.6031">
        <ele>70.7</ele>
        <time>2019-06-01T09:57:59Z</time>
      </trkpt>
      <trkpt lat="44.11951" lon="4.60308">
        <ele>70.7</ele>
        <time>2019-06-01T09:58:00Z</time>
      </trkpt>
      <trkpt lat="44.11947" lon="4.60306">
        <ele>70.7</ele>
        <time>2019-06-01T09:58:01Z</time>
      </trkpt>
      <trkpt lat="44.11945" lon="4.60304">
        <ele>70.7</ele>
        <time>2019-06-01T09:58:02Z</time>
      </trkpt>
      <trkpt lat="44.1194" lon="4.60303">
        <ele>70.7</ele>
        <time>2019-06-01T09:58:03Z</time>
      </trkpt>
      <trkpt lat="44.11937" lon="4.60303">
        <ele>70.8</ele>
        <time>2019-06-01T09:58:04Z</time>
      </trkpt>
      <trkpt lat="44.11934" lon="4.60304">
        <ele>70.8</ele>
        <time>2019-06-01T09:58:05Z</time>
      </trkpt>
      <trkpt lat="44.11931" lon="4.60304">
        <ele>70.8</ele>
        <time>2019-06-01T09:58:06Z</time>
      </trkpt>
      <trkpt lat="44.11925" lon="4.60305">
        <ele>70.8</ele>
        <time>2019-06-01T09:58:08Z</time>
      </trkpt>
      <trkpt lat="44.11921" lon="4.60306">
        <ele>70.8</ele>
        <time>2019-06-01T09:58:09Z</time>
      </trkpt>
      <trkpt lat="44.11917" lon="4.60308">
        <ele>70.9</ele>
        <time>2019-06-01T09:58:10Z</time>
      </trkpt>
      <trkpt lat="44.11913" lon="4.6031">
        <ele>70.9</ele>
        <time>2019-06-01T09:58:11Z</time>
      </trkpt>
      <trkpt lat="44.11909" lon="4.60312">
        <ele>70.9</ele>
        <time>2019-06-01T09:58:12Z</time>
      </trkpt>
      <trkpt lat="44.11905" lon="4.60313">
        <ele>70.9</ele>
        <time>2019-06-01T09:58:13Z</time>
      </trkpt>
      <trkpt lat="44.11901" lon="4.60315">
        <ele>70.9</ele>
        <time>2019-06-01T09:58:14Z</time>
      </trkpt>
      <trkpt lat="44.11896" lon="4.60317">
        <ele>71</ele>
        <time>2019-06-01T09:58:15Z</time>
      </trkpt>
      <trkpt lat="44.11891" lon="4.60319">
        <ele>71</ele>
        <time>2019-06-01T09:58:16Z</time>
      </trkpt>
      <trkpt lat="44.11886" lon="4.60321">
        <ele>71</ele>
        <time>2019-06-01T09:58:17Z</time>
      </trkpt>
      <trkpt lat="44.11881" lon="4.60323">
        <ele>71</ele>
        <time>2019-06-01T09:58:18Z</time>
      </trkpt>
      <trkpt lat="44.11876" lon="4.60324">
        <ele>71</ele>
        <time>2019-06-01T09:58:19Z</time>
      </trkpt>
      <trkpt lat="44.11871" lon="4.60325">
        <ele>71.1</ele>
        <time>2019-06-01T09:58:20Z</time>
      </trkpt>
      <trkpt lat="44.11867" lon="4.60326">
        <ele>71.1</ele>
        <time>2019-06-01T09:58:21Z</time>
      </trkpt>
      <trkpt lat="44.11863" lon="4.60327">
        <ele>71.1</ele>
        <time>2019-06-01T09:58:22Z</time>
      </trkpt>
      <trkpt lat="44.11859" lon="4.60328">
        <ele>71.1</ele>
        <time>2019-06-01T09:58:23Z</time>
      </trkpt>
      <trkpt lat="44.11855" lon="4.60328">
        <ele>71.2</ele>
        <time>2019-06-01T09:58:24Z</time>
      </trkpt>
      <trkpt lat="44.11851" lon="4.60329">
        <ele>71.2</ele>
        <time>2019-06-01T09:58:25Z</time>
      </trkpt>
      <trkpt lat="44.11846" lon="4.60329">
        <ele>71.2</ele>
        <time>2019-06-01T09:58:26Z</time>
      </trkpt>
      <trkpt lat="44.11842" lon="4.60329">
        <ele>71.2</ele>
        <time>2019-06-01T09:58:27Z</time>
      </trkpt>
      <trkpt lat="44.11837" lon="4.60331">
        <ele>71.2</ele>
        <time>2019-06-01T09:58:28Z</time>
      </trkpt>
      <trkpt lat="44.11833" lon="4.60331">
        <ele>71.3</ele>
        <time>2019-06-01T09:58:29Z</time>
      </trkpt>
      <trkpt lat="44.11829" lon="4.6033">
        <ele>71.3</ele>
        <time>2019-06-01T09:58:30Z</time>
      </trkpt>
      <trkpt lat="44.11826" lon="4.6033">
        <ele>71.4</ele>
        <time>2019-06-01T09:58:31Z</time>
      </trkpt>
      <trkpt lat="44.11822" lon="4.6033">
        <ele>71.4</ele>
        <time>2019-06-01T09:58:32Z</time>
      </trkpt>
      <trkpt lat="44.11817" lon="4.60331">
        <ele>71.5</ele>
        <time>2019-06-01T09:58:33Z</time>
      </trkpt>
      <trkpt lat="44.11813" lon="4.60332">
        <ele>71.6</ele>
        <time>2019-06-01T09:58:34Z</time>
      </trkpt>
      <trkpt lat="44.1181" lon="4.60332">
        <ele>71.7</ele>
        <time>2019-06-01T09:58:35Z</time>
      </trkpt>
      <trkpt lat="44.11805" lon="4.60332">
        <ele>71.8</ele>
        <time>2019-06-01T09:58:36Z</time>
      </trkpt>
      <trkpt lat="44.11802" lon="4.60331">
        <ele>71.9</ele>
        <time>2019-06-01T09:58:37Z</time>
      </trkpt>
      <trkpt lat="44.11798" lon="4.60331">
        <ele>72</ele>
        <time>2019-06-01T09:58:38Z</time>
      </trkpt>
      <trkpt lat="44.11794" lon="4.60331">
        <ele>72.1</ele>
        <time>2019-06-01T09:58:39Z</time>
      </trkpt>
      <trkpt lat="44.1179" lon="4.60331">
        <ele>72.2</ele>
        <time>2019-06-01T09:58:40Z</time>
      </trkpt>
      <trkpt lat="44.11786" lon="4.60331">
        <ele>72.3</ele>
        <time>2019-06-01T09:58:41Z</time>
      </trkpt>
      <trkpt lat="44.11781" lon="4.60331">
        <ele>72.3</ele>
        <time>2019-06-01T09:58:42Z</time>
      </trkpt>
      <trkpt lat="44.11777" lon="4.60331">
        <ele>72.4</ele>
        <time>2019-06-01T09:58:43Z</time>
      </trkpt>
      <trkpt lat="44.11773" lon="4.60332">
        <ele>72.5</ele>
        <time>2019-06-01T09:58:44Z</time>
      </trkpt>
      <trkpt lat="44.1177" lon="4.60332">
        <ele>72.5</ele>
        <time>2019-06-01T09:58:45Z</time>
      </trkpt>
      <trkpt lat="44.11766" lon="4.60332">
        <ele>72.5</ele>
        <time>2019-06-01T09:58:46Z</time>
      </trkpt>
      <trkpt lat="44.11762" lon="4.60332">
        <ele>72.5</ele>
        <time>2019-06-01T09:58:47Z</time>
      </trkpt>
      <trkpt lat="44.11758" lon="4.60332">
        <ele>72.6</ele>
        <time>2019-06-01T09:58:48Z</time>
      </trkpt>
      <trkpt lat="44.11754" lon="4.60332">
        <ele>72.6</ele>
        <time>2019-06-01T09:58:49Z</time>
      </trkpt>
      <trkpt lat="44.1175" lon="4.60332">
        <ele>72.6</ele>
        <time>2019-06-01T09:58:50Z</time>
      </trkpt>
      <trkpt lat="44.11747" lon="4.60332">
        <ele>72.6</ele>
        <time>2019-06-01T09:58:51Z</time>
      </trkpt>
      <trkpt lat="44.11743" lon="4.60332">
        <ele>72.6</ele>
        <time>2019-06-01T09:58:52Z</time>
      </trkpt>
      <trkpt lat="44.11739" lon="4.60331">
        <ele>72.7</ele>
        <time>2019-06-01T09:58:53Z</time>
      </trkpt>
      <trkpt lat="44.11735" lon="4.60331">
        <ele>72.7</ele>
        <time>2019-06-01T09:58:54Z</time>
      </trkpt>
      <trkpt lat="44.11732" lon="4.60331">
        <ele>72.7</ele>
        <time>2019-06-01T09:58:55Z</time>
      </trkpt>
      <trkpt lat="44.11728" lon="4.60331">
        <ele>72.7</ele>
        <time>2019-06-01T09:58:56Z</time>
      </trkpt>
      <trkpt lat="44.11725" lon="4.6033">
        <ele>72.7</ele>
        <time>2019-06-01T09:58:57Z</time>
      </trkpt>
      <trkpt lat="44.11722" lon="4.6033">
        <ele>72.7</ele>
        <time>2019-06-01T09:58:58Z</time>
      </trkpt>
      <trkpt lat="44.11718" lon="4.60329">
        <ele>72.8</ele>
        <time>2019-06-01T09:58:59Z</time>
      </trkpt>
      <trkpt lat="44.11714" lon="4.60329">
        <ele>72.8</ele>
        <time>2019-06-01T09:59:00Z</time>
      </trkpt>
      <trkpt lat="44.11711" lon="4.60328">
        <ele>72.8</ele>
        <time>2019-06-01T09:59:01Z</time>
      </trkpt>
      <trkpt lat="44.11707" lon="4.60328">
        <ele>72.8</ele>
        <time>2019-06-01T09:59:02Z</time>
      </trkpt>
      <trkpt lat="44.11704" lon="4.60327">
        <ele>72.8</ele>
        <time>2019-06-01T09:59:03Z</time>
      </trkpt>
      <trkpt lat="44.117" lon="4.60327">
        <ele>72.8</ele>
        <time>2019-06-01T09:59:04Z</time>
      </trkpt>
      <trkpt lat="44.11697" lon="4.60327">
        <ele>72.9</ele>
        <time>2019-06-01T09:59:05Z</time>
      </trkpt>
      <trkpt lat="44.11693" lon="4.60326">
        <ele>72.9</ele>
        <time>2019-06-01T09:59:06Z</time>
      </trkpt>
      <trkpt lat="44.11689" lon="4.60326">
        <ele>72.9</ele>
        <time>2019-06-01T09:59:07Z</time>
      </trkpt>
      <trkpt lat="44.11686" lon="4.60325">
        <ele>73</ele>
        <time>2019-06-01T09:59:08Z</time>
      </trkpt>
      <trkpt lat="44.11682" lon="4.60325">
        <ele>73</ele>
        <time>2019-06-01T09:59:09Z</time>
      </trkpt>
      <trkpt lat="44.11679" lon="4.60325">
        <ele>73.1</ele>
        <time>2019-06-01T09:59:10Z</time>
      </trkpt>
      <trkpt lat="44.11675" lon="4.60325">
        <ele>73.1</ele>
        <time>2019-06-01T09:59:11Z</time>
      </trkpt>
      <trkpt lat="44.11671" lon="4.60324">
        <ele>73.2</ele>
        <time>2019-06-01T09:59:12Z</time>
      </trkpt>
      <trkpt lat="44.11667" lon="4.60323">
        <ele>73.3</ele>
        <time>2019-06-01T09:59:13Z</time>
      </trkpt>
      <trkpt lat="44.11663" lon="4.60323">
        <ele>73.4</ele>
        <time>2019-06-01T09:59:14Z</time>
      </trkpt>
      <trkpt lat="44.11659" lon="4.60322">
        <ele>73.6</ele>
        <time>2019-06-01T09:59:15Z</time>
      </trkpt>
      <trkpt lat="44.11655" lon="4.60321">
        <ele>73.7</ele>
        <time>2019-06-01T09:59:16Z</time>
      </trkpt>
      <trkpt lat="44.11651" lon="4.60321">
        <ele>73.8</ele>
        <time>2019-06-01T09:59:17Z</time>
      </trkpt>
      <trkpt lat="44.11647" lon="4.6032">
        <ele>74</ele>
        <time>2019-06-01T09:59:18Z</time>
      </trkpt>
      <trkpt lat="44.11644" lon="4.60319">
        <ele>74.1</ele>
        <time>2019-06-01T09:59:19Z</time>
      </trkpt>
      <trkpt lat="44.1164" lon="4.60318">
        <ele>74.2</ele>
        <time>2019-06-01T09:59:20Z</time>
      </trkpt>
      <trkpt lat="44.11636" lon="4.60317">
        <ele>74.4</ele>
        <time>2019-06-01T09:59:21Z</time>
      </trkpt>
      <trkpt lat="44.11633" lon="4.60316">
        <ele>74.6</ele>
        <time>2019-06-01T09:59:22Z</time>
      </trkpt>
      <trkpt lat="44.1163" lon="4.60314">
        <ele>74.8</ele>
        <time>2019-06-01T09:59:23Z</time>
      </trkpt>
      <trkpt lat="44.11626" lon="4.60313">
        <ele>74.9</ele>
        <time>2019-06-01T09:59:24Z</time>
      </trkpt>
      <trkpt lat="44.11623" lon="4.60312">
        <ele>75</ele>
        <time>2019-06-01T09:59:25Z</time>
      </trkpt>
      <trkpt lat="44.1162" lon="4.60311">
        <ele>75.2</ele>
        <time>2019-06-01T09:59:26Z</time>
      </trkpt>
      <trkpt lat="44.11617" lon="4.60311">
        <ele>75.3</ele>
        <time>2019-06-01T09:59:27Z</time>
      </trkpt>
      <trkpt lat="44.11614" lon="4.6031">
        <ele>75.4</ele>
        <time>2019-06-01T09:59:28Z</time>
      </trkpt>
      <trkpt lat="44.11611" lon="4.6031">
        <ele>75.6</ele>
        <time>2019-06-01T09:59:29Z</time>
      </trkpt>
      <trkpt lat="44.11608" lon="4.6031">
        <ele>75.7</ele>
        <time>2019-06-01T09:59:30Z</time>
      </trkpt>
      <trkpt lat="44.11602" lon="4.60311">
        <ele>76</ele>
        <time>2019-06-01T09:59:32Z</time>
      </trkpt>
      <trkpt lat="44.11599" lon="4.60311">
        <ele>76.1</ele>
        <time>2019-06-01T09:59:33Z</time>
      </trkpt>
      <trkpt lat="44.11595" lon="4.6031">
        <ele>76.3</ele>
        <time>2019-06-01T09:59:34Z</time>
      </trkpt>
      <trkpt lat="44.11591" lon="4.60308">
        <ele>76.5</ele>
        <time>2019-06-01T09:59:35Z</time>
      </trkpt>
      <trkpt lat="44.11587" lon="4.60308">
        <ele>76.7</ele>
        <time>2019-06-01T09:59:36Z</time>
      </trkpt>
      <trkpt lat="44.11584" lon="4.60307">
        <ele>76.9</ele>
        <time>2019-06-01T09:59:37Z</time>
      </trkpt>
      <trkpt lat="44.11581" lon="4.60307">
        <ele>77</ele>
        <time>2019-06-01T09:59:38Z</time>
      </trkpt>
      <trkpt lat="44.11578" lon="4.60307">
        <ele>77.1</ele>
        <time>2019-06-01T09:59:39Z</time>
      </trkpt>
      <trkpt lat="44.11575" lon="4.60306">
        <ele>77.3</ele>
        <time>2019-06-01T09:59:40Z</time>
      </trkpt>
      <trkpt lat="44.11571" lon="4.60305">
        <ele>77.4</ele>
        <time>2019-06-01T09:59:41Z</time>
      </trkpt>
      <trkpt lat="44.11568" lon="4.60305">
        <ele>77.6</ele>
        <time>2019-06-01T09:59:42Z</time>
      </trkpt>
      <trkpt lat="44.11565" lon="4.60304">
        <ele>77.7</ele>
        <time>2019-06-01T09:59:43Z</time>
      </trkpt>
      <trkpt lat="44.1156" lon="4.60304">
        <ele>77.9</ele>
        <time>2019-06-01T09:59:45Z</time>
      </trkpt>
      <trkpt lat="44.11556" lon="4.60305">
        <ele>78</ele>
        <time>2019-06-01T09:59:47Z</time>
      </trkpt>
      <trkpt lat="44.1155" lon="4.60305">
        <ele>78.2</ele>
        <time>2019-06-01T09:59:49Z</time>
      </trkpt>
      <trkpt lat="44.11547" lon="4.60305">
        <ele>78.2</ele>
        <time>2019-06-01T09:59:50Z</time>
      </trkpt>
      <trkpt lat="44.11543" lon="4.60304">
        <ele>78.3</ele>
        <time>2019-06-01T09:59:51Z</time>
      </trkpt>
      <trkpt lat="44.1154" lon="4.60303">
        <ele>78.3</ele>
        <time>2019-06-01T09:59:52Z</time>
      </trkpt>
      <trkpt lat="44.11536" lon="4.60303">
        <ele>78.3</ele>
        <time>2019-06-01T09:59:53Z</time>
      </trkpt>
      <trkpt lat="44.11533" lon="4.60303">
        <ele>78.3</ele>
        <time>2019-06-01T09:59:54Z</time>
      </trkpt>
      <trkpt lat="44.1153" lon="4.60304">
        <ele>78.3</ele>
        <time>2019-06-01T09:59:56Z</time>
      </trkpt>
      <trkpt lat="44.11527" lon="4.60303">
        <ele>78.3</ele>
        <time>2019-06-01T09:59:59Z</time>
      </trkpt>
      <trkpt lat="44.11524" lon="4.60302">
        <ele>78.2</ele>
        <time>2019-06-01T10:00:01Z</time>
      </trkpt>
      <trkpt lat="44.11518" lon="4.60301">
        <ele>78.1</ele>
        <time>2019-06-01T10:00:03Z</time>
      </trkpt>
      <trkpt lat="44.11514" lon="4.603">
        <ele>78.1</ele>
        <time>2019-06-01T10:00:04Z</time>
      </trkpt>
      <trkpt lat="44.11509" lon="4.60299">
        <ele>78</ele>
        <time>2019-06-01T10:00:05Z</time>
      </trkpt>
      <trkpt lat="44.11506" lon="4.60298">
        <ele>77.9</ele>
        <time>2019-06-01T10:00:06Z</time>
      </trkpt>
      <trkpt lat="44.11502" lon="4.60297">
        <ele>77.8</ele>
        <time>2019-06-01T10:00:07Z</time>
      </trkpt>
      <trkpt lat="44.11499" lon="4.60295">
        <ele>77.8</ele>
        <time>2019-06-01T10:00:08Z</time>
      </trkpt>
      <trkpt lat="44.11495" lon="4.60293">
        <ele>77.8</ele>
        <time>2019-06-01T10:00:09Z</time>
      </trkpt>
      <trkpt lat="44.11491" lon="4.60291">
        <ele>77.9</ele>
        <time>2019-06-01T10:00:10Z</time>
      </trkpt>
      <trkpt lat="44.11488" lon="4.60289">
        <ele>78</ele>
        <time>2019-06-01T10:00:11Z</time>
      </trkpt>
      <trkpt lat="44.11485" lon="4.60287">
        <ele>78.1</ele>
        <time>2019-06-01T10:00:12Z</time>
      </trkpt>
      <trkpt lat="44.11482" lon="4.60284">
        <ele>78.1</ele>
        <time>2019-06-01T10:00:13Z</time>
      </trkpt>
      <trkpt lat="44.11478" lon="4.60281">
        <ele>78.2</ele>
        <time>2019-06-01T10:00:14Z</time>
      </trkpt>
      <trkpt lat="44.11476" lon="4.60279">
        <ele>78.3</ele>
        <time>2019-06-01T10:00:15Z</time>
      </trkpt>
      <trkpt lat="44.11473" lon="4.60276">
        <ele>78.3</ele>
        <time>2019-06-01T10:00:16Z</time>
      </trkpt>
      <trkpt lat="44.1147" lon="4.60273">
        <ele>78.4</ele>
        <time>2019-06-01T10:00:17Z</time>
      </trkpt>
      <trkpt lat="44.11466" lon="4.60271">
        <ele>78.5</ele>
        <time>2019-06-01T10:00:18Z</time>
      </trkpt>
      <trkpt lat="44.11463" lon="4.60268">
        <ele>78.6</ele>
        <time>2019-06-01T10:00:19Z</time>
      </trkpt>
      <trkpt lat="44.1146" lon="4.60265">
        <ele>78.6</ele>
        <time>2019-06-01T10:00:20Z</time>
      </trkpt>
      <trkpt lat="44.11456" lon="4.60263">
        <ele>78.7</ele>
        <time>2019-06-01T10:00:21Z</time>
      </trkpt>
      <trkpt lat="44.11453" lon="4.6026">
        <ele>78.8</ele>
        <time>2019-06-01T10:00:22Z</time>
      </trkpt>
      <trkpt lat="44.1145" lon="4.60257">
        <ele>78.9</ele>
        <time>2019-06-01T10:00:23Z</time>
      </trkpt>
      <trkpt lat="44.11447" lon="4.60254">
        <ele>78.9</ele>
        <time>2019-06-01T10:00:24Z</time>
      </trkpt>
      <trkpt lat="44.11444" lon="4.60251">
        <ele>79</ele>
        <time>2019-06-01T10:00:25Z</time>
      </trkpt>
      <trkpt lat="44.11441" lon="4.60248">
        <ele>79.1</ele>
        <time>2019-06-01T10:00:26Z</time>
      </trkpt>
      <trkpt lat="44.11439" lon="4.60245">
        <ele>79.1</ele>
        <time>2019-06-01T10:00:27Z</time>
      </trkpt>
      <trkpt lat="44.11436" lon="4.60242">
        <ele>79.2</ele>
        <time>2019-06-01T10:00:28Z</time>
      </trkpt>
      <trkpt lat="44.11434" lon="4.60238">
        <ele>79.3</ele>
        <time>2019-06-01T10:00:29Z</time>
      </trkpt>
      <trkpt lat="44.11431" lon="4.60235">
        <ele>79.3</ele>
        <time>2019-06-01T10:00:30Z</time>
      </trkpt>
      <trkpt lat="44.11428" lon="4.60232">
        <ele>79.4</ele>
        <time>2019-06-01T10:00:31Z</time>
      </trkpt>
      <trkpt lat="44.11425" lon="4.60229">
        <ele>79.5</ele>
        <time>2019-06-01T10:00:32Z</time>
      </trkpt>
      <trkpt lat="44.11421" lon="4.60227">
        <ele>79.6</ele>
        <time>2019-06-01T10:00:33Z</time>
      </trkpt>
      <trkpt lat="44.11418" lon="4.60224">
        <ele>79.7</ele>
        <time>2019-06-01T10:00:34Z</time>
      </trkpt>
      <trkpt lat="44.11415" lon="4.60221">
        <ele>79.7</ele>
        <time>2019-06-01T10:00:35Z</time>
      </trkpt>
      <trkpt lat="44.11412" lon="4.60218">
        <ele>79.8</ele>
        <time>2019-06-01T10:00:36Z</time>
      </trkpt>
      <trkpt lat="44.11409" lon="4.60215">
        <ele>79.9</ele>
        <time>2019-06-01T10:00:37Z</time>
      </trkpt>
      <trkpt lat="44.11406" lon="4.60212">
        <ele>79.9</ele>
        <time>2019-06-01T10:00:38Z</time>
      </trkpt>
      <trkpt lat="44.11403" lon="4.60209">
        <ele>79.9</ele>
        <time>2019-06-01T10:00:40Z</time>
      </trkpt>
      <trkpt lat="44.11401" lon="4.60203">
        <ele>80</ele>
        <time>2019-06-01T10:00:52Z</time>
      </trkpt>
      <trkpt lat="44.11397" lon="4.60199">
        <ele>80</ele>
        <time>2019-06-01T10:00:54Z</time>
      </trkpt>
      <trkpt lat="44.11395" lon="4.60197">
        <ele>80.1</ele>
        <time>2019-06-01T10:00:55Z</time>
      </trkpt>
      <trkpt lat="44.11392" lon="4.60195">
        <ele>80.1</ele>
        <time>2019-06-01T10:00:56Z</time>
      </trkpt>
      <trkpt lat="44.1139" lon="4.60193">
        <ele>80.1</ele>
        <time>2019-06-01T10:00:57Z</time>
      </trkpt>
      <trkpt lat="44.11388" lon="4.6019">
        <ele>80.2</ele>
        <time>2019-06-01T10:00:58Z</time>
      </trkpt>
      <trkpt lat="44.11383" lon="4.60188">
        <ele>80.2</ele>
        <time>2019-06-01T10:01:00Z</time>
      </trkpt>
      <trkpt lat="44.1138" lon="4.6019">
        <ele>80.3</ele>
        <time>2019-06-01T10:01:01Z</time>
      </trkpt>
      <trkpt lat="44.11378" lon="4.60193">
        <ele>80.7</ele>
        <time>2019-06-01T10:01:02Z</time>
      </trkpt>
      <trkpt lat="44.11377" lon="4.60198">
        <ele>80.8</ele>
        <time>2019-06-01T10:01:03Z</time>
      </trkpt>
      <trkpt lat="44.11376" lon="4.60202">
        <ele>80.9</ele>
        <time>2019-06-01T10:01:04Z</time>
      </trkpt>
      <trkpt lat="44.11376" lon="4.60207">
        <ele>81</ele>
        <time>2019-06-01T10:01:05Z</time>
      </trkpt>
      <trkpt lat="44.11376" lon="4.60214">
        <ele>81.2</ele>
        <time>2019-06-01T10:01:07Z</time>
      </trkpt>
      <trkpt lat="44.11376" lon="4.6022">
        <ele>81.4</ele>
        <time>2019-06-01T10:01:09Z</time>
      </trkpt>
      <trkpt lat="44.11376" lon="4.60228">
        <ele>81.4</ele>
        <time>2019-06-01T10:01:11Z</time>
      </trkpt>
      <trkpt lat="44.11377" lon="4.60233">
        <ele>81.4</ele>
        <time>2019-06-01T10:01:12Z</time>
      </trkpt>
      <trkpt lat="44.11378" lon="4.60237">
        <ele>81.4</ele>
        <time>2019-06-01T10:01:13Z</time>
      </trkpt>
      <trkpt lat="44.11378" lon="4.60242">
        <ele>81.5</ele>
        <time>2019-06-01T10:01:14Z</time>
      </trkpt>
      <trkpt lat="44.11379" lon="4.60247">
        <ele>81.4</ele>
        <time>2019-06-01T10:01:15Z</time>
      </trkpt>
      <trkpt lat="44.11379" lon="4.60251">
        <ele>81.4</ele>
        <time>2019-06-01T10:01:16Z</time>
      </trkpt>
      <trkpt lat="44.1138" lon="4.60255">
        <ele>81.4</ele>
        <time>2019-06-01T10:01:17Z</time>
      </trkpt>
      <trkpt lat="44.11381" lon="4.6026">
        <ele>81.3</ele>
        <time>2019-06-01T10:01:18Z</time>
      </trkpt>
      <trkpt lat="44.11382" lon="4.60264">
        <ele>81.2</ele>
        <time>2019-06-01T10:01:19Z</time>
      </trkpt>
      <trkpt lat="44.11383" lon="4.60269">
        <ele>81.2</ele>
        <time>2019-06-01T10:01:20Z</time>
      </trkpt>
      <trkpt lat="44.11384" lon="4.60274">
        <ele>81.2</ele>
        <time>2019-06-01T10:01:21Z</time>
      </trkpt>
      <trkpt lat="44.11385" lon="4.60279">
        <ele>81.1</ele>
        <time>2019-06-01T10:01:22Z</time>
      </trkpt>
      <trkpt lat="44.11386" lon="4.60283">
        <ele>81</ele>
        <time>2019-06-01T10:01:23Z</time>
      </trkpt>
      <trkpt lat="44.11387" lon="4.60288">
        <ele>80.9</ele>
        <time>2019-06-01T10:01:24Z</time>
      </trkpt>
      <trkpt lat="44.11388" lon="4.60293">
        <ele>80.8</ele>
        <time>2019-06-01T10:01:25Z</time>
      </trkpt>
      <trkpt lat="44.11389" lon="4.60297">
        <ele>80.7</ele>
        <time>2019-06-01T10:01:26Z</time>
      </trkpt>
      <trkpt lat="44.11389" lon="4.60302">
        <ele>80.7</ele>
        <time>2019-06-01T10:01:27Z</time>
      </trkpt>
      <trkpt lat="44.1139" lon="4.60306">
        <ele>80.6</ele>
        <time>2019-06-01T10:01:28Z</time>
      </trkpt>
      <trkpt lat="44.11391" lon="4.60309">
        <ele>80.5</ele>
        <time>2019-06-01T10:01:29Z</time>
      </trkpt>
      <trkpt lat="44.11392" lon="4.60314">
        <ele>80.4</ele>
        <time>2019-06-01T10:01:30Z</time>
      </trkpt>
      <trkpt lat="44.11394" lon="4.60319">
        <ele>80.3</ele>
        <time>2019-06-01T10:01:31Z</time>
      </trkpt>
      <trkpt lat="44.11395" lon="4.60325">
        <ele>80.2</ele>
        <time>2019-06-01T10:01:32Z</time>
      </trkpt>
      <trkpt lat="44.11396" lon="4.6033">
        <ele>80</ele>
        <time>2019-06-01T10:01:33Z</time>
      </trkpt>
      <trkpt lat="44.11398" lon="4.60335">
        <ele>79.9</ele>
        <time>2019-06-01T10:01:34Z</time>
      </trkpt>
      <trkpt lat="44.11399" lon="4.60339">
        <ele>79.7</ele>
        <time>2019-06-01T10:01:35Z</time>
      </trkpt>
      <trkpt lat="44.11401" lon="4.60344">
        <ele>79.6</ele>
        <time>2019-06-01T10:01:36Z</time>
      </trkpt>
      <trkpt lat="44.11402" lon="4.60349">
        <ele>79.5</ele>
        <time>2019-06-01T10:01:37Z</time>
      </trkpt>
      <trkpt lat="44.11403" lon="4.60355">
        <ele>79.4</ele>
        <time>2019-06-01T10:01:38Z</time>
      </trkpt>
      <trkpt lat="44.11403" lon="4.60361">
        <ele>79.3</ele>
        <time>2019-06-01T10:01:39Z</time>
      </trkpt>
      <trkpt lat="44.11404" lon="4.60367">
        <ele>79.2</ele>
        <time>2019-06-01T10:01:40Z</time>
      </trkpt>
      <trkpt lat="44.11404" lon="4.60374">
        <ele>79</ele>
        <time>2019-06-01T10:01:41Z</time>
      </trkpt>
      <trkpt lat="44.11404" lon="4.6038">
        <ele>78.9</ele>
        <time>2019-06-01T10:01:42Z</time>
      </trkpt>
      <trkpt lat="44.11404" lon="4.60386">
        <ele>78.8</ele>
        <time>2019-06-01T10:01:43Z</time>
      </trkpt>
      <trkpt lat="44.11404" lon="4.60393">
        <ele>78.8</ele>
        <time>2019-06-01T10:01:44Z</time>
      </trkpt>
      <trkpt lat="44.11404" lon="4.60399">
        <ele>78.7</ele>
        <time>2019-06-01T10:01:45Z</time>
      </trkpt>
      <trkpt lat="44.11404" lon="4.60405">
        <ele>78.6</ele>
        <time>2019-06-01T10:01:46Z</time>
      </trkpt>
      <trkpt lat="44.11404" lon="4.60412">
        <ele>78.5</ele>
        <time>2019-06-01T10:01:47Z</time>
      </trkpt>
      <trkpt lat="44.11404" lon="4.60418">
        <ele>78.4</ele>
        <time>2019-06-01T10:01:48Z</time>
      </trkpt>
      <trkpt lat="44.11404" lon="4.60424">
        <ele>78.2</ele>
        <time>2019-06-01T10:01:49Z</time>
      </trkpt>
      <trkpt lat="44.11403" lon="4.60431">
        <ele>78.1</ele>
        <time>2019-06-01T10:01:50Z</time>
      </trkpt>
      <trkpt lat="44.11403" lon="4.60437">
        <ele>78</ele>
        <time>2019-06-01T10:01:51Z</time>
      </trkpt>
      <trkpt lat="44.11403" lon="4.60444">
        <ele>78</ele>
        <time>2019-06-01T10:01:52Z</time>
      </trkpt>
      <trkpt lat="44.11403" lon="4.6045">
        <ele>77.9</ele>
        <time>2019-06-01T10:01:53Z</time>
      </trkpt>
      <trkpt lat="44.11403" lon="4.60455">
        <ele>77.9</ele>
        <time>2019-06-01T10:01:54Z</time>
      </trkpt>
      <trkpt lat="44.11404" lon="4.60461">
        <ele>77.9</ele>
        <time>2019-06-01T10:01:55Z</time>
      </trkpt>
      <trkpt lat="44.11404" lon="4.60468">
        <ele>77.9</ele>
        <time>2019-06-01T10:01:56Z</time>
      </trkpt>
      <trkpt lat="44.11404" lon="4.60474">
        <ele>77.9</ele>
        <time>2019-06-01T10:01:57Z</time>
      </trkpt>
      <trkpt lat="44.11404" lon="4.60481">
        <ele>77.9</ele>
        <time>2019-06-01T10:01:58Z</time>
      </trkpt>
      <trkpt lat="44.11405" lon="4.60487">
        <ele>77.9</ele>
        <time>2019-06-01T10:01:59Z</time>
      </trkpt>
      <trkpt lat="44.11404" lon="4.60496">
        <ele>77.9</ele>
        <time>2019-06-01T10:02:00Z</time>
      </trkpt>
      <trkpt lat="44.11403" lon="4.60502">
        <ele>77.9</ele>
        <time>2019-06-01T10:02:01Z</time>
      </trkpt>
      <trkpt lat="44.11403" lon="4.60508">
        <ele>78</ele>
        <time>2019-06-01T10:02:02Z</time>
      </trkpt>
      <trkpt lat="44.11404" lon="4.60514">
        <ele>78</ele>
        <time>2019-06-01T10:02:03Z</time>
      </trkpt>
      <trkpt lat="44.11403" lon="4.6052">
        <ele>78.1</ele>
        <time>2019-06-01T10:02:04Z</time>
      </trkpt>
      <trkpt lat="44.11404" lon="4.60526">
        <ele>78.2</ele>
        <time>2019-06-01T10:02:05Z</time>
      </trkpt>
      <trkpt lat="44.11405" lon="4.60532">
        <ele>78.2</ele>
        <time>2019-06-01T10:02:06Z</time>
      </trkpt>
      <trkpt lat="44.11406" lon="4.60538">
        <ele>78.3</ele>
        <time>2019-06-01T10:02:07Z</time>
      </trkpt>
      <trkpt lat="44.11408" lon="4.60544">
        <ele>78.4</ele>
        <time>2019-06-01T10:02:08Z</time>
      </trkpt>
      <trkpt lat="44.11409" lon="4.6055">
        <ele>78.5</ele>
        <time>2019-06-01T10:02:09Z</time>
      </trkpt>
      <trkpt lat="44.11411" lon="4.60556">
        <ele>78.5</ele>
        <time>2019-06-01T10:02:10Z</time>
      </trkpt>
      <trkpt lat="44.11413" lon="4.60562">
        <ele>78.6</ele>
        <time>2019-06-01T10:02:11Z</time>
      </trkpt>
      <trkpt lat="44.11415" lon="4.60567">
        <ele>78.7</ele>
        <time>2019-06-01T10:02:12Z</time>
      </trkpt>
      <trkpt lat="44.11418" lon="4.60573">
        <ele>78.7</ele>
        <time>2019-06-01T10:02:13Z</time>
      </trkpt>
      <trkpt lat="44.11419" lon="4.60579">
        <ele>78.8</ele>
        <time>2019-06-01T10:02:14Z</time>
      </trkpt>
      <trkpt lat="44.11422" lon="4.60584">
        <ele>78.8</ele>
        <time>2019-06-01T10:02:15Z</time>
      </trkpt>
      <trkpt lat="44.11425" lon="4.6059">
        <ele>78.8</ele>
        <time>2019-06-01T10:02:16Z</time>
      </trkpt>
      <trkpt lat="44.11427" lon="4.60595">
        <ele>78.9</ele>
        <time>2019-06-01T10:02:17Z</time>
      </trkpt>
      <trkpt lat="44.11429" lon="4.60599">
        <ele>78.9</ele>
        <time>2019-06-01T10:02:18Z</time>
      </trkpt>
      <trkpt lat="44.11431" lon="4.60604">
        <ele>78.9</ele>
        <time>2019-06-01T10:02:19Z</time>
      </trkpt>
      <trkpt lat="44.11434" lon="4.6061">
        <ele>78.9</ele>
        <time>2019-06-01T10:02:20Z</time>
      </trkpt>
      <trkpt lat="44.11436" lon="4.60616">
        <ele>78.9</ele>
        <time>2019-06-01T10:02:21Z</time>
      </trkpt>
      <trkpt lat="44.11438" lon="4.60621">
        <ele>78.9</ele>
        <time>2019-06-01T10:02:22Z</time>
      </trkpt>
      <trkpt lat="44.1144" lon="4.60626">
        <ele>78.9</ele>
        <time>2019-06-01T10:02:23Z</time>
      </trkpt>
      <trkpt lat="44.11442" lon="4.60632">
        <ele>78.9</ele>
        <time>2019-06-01T10:02:24Z</time>
      </trkpt>
      <trkpt lat="44.11444" lon="4.60638">
        <ele>78.9</ele>
        <time>2019-06-01T10:02:25Z</time>
      </trkpt>
      <trkpt lat="44.11446" lon="4.60644">
        <ele>78.8</ele>
        <time>2019-06-01T10:02:26Z</time>
      </trkpt>
      <trkpt lat="44.11448" lon="4.60649">
        <ele>78.8</ele>
        <time>2019-06-01T10:02:27Z</time>
      </trkpt>
      <trkpt lat="44.1145" lon="4.60655">
        <ele>78.8</ele>
        <time>2019-06-01T10:02:28Z</time>
      </trkpt>
      <trkpt lat="44.11453" lon="4.60661">
        <ele>78.8</ele>
        <time>2019-06-01T10:02:29Z</time>
      </trkpt>
      <trkpt lat="44.11454" lon="4.60666">
        <ele>78.8</ele>
        <time>2019-06-01T10:02:30Z</time>
      </trkpt>
      <trkpt lat="44.11456" lon="4.60672">
        <ele>78.8</ele>
        <time>2019-06-01T10:02:31Z</time>
      </trkpt>
      <trkpt lat="44.11458" lon="4.60676">
        <ele>78.8</ele>
        <time>2019-06-01T10:02:32Z</time>
      </trkpt>
      <trkpt lat="44.1146" lon="4.60681">
        <ele>78.8</ele>
        <time>2019-06-01T10:02:33Z</time>
      </trkpt>
      <trkpt lat="44.11461" lon="4.60687">
        <ele>78.8</ele>
        <time>2019-06-01T10:02:34Z</time>
      </trkpt>
      <trkpt lat="44.11463" lon="4.60692">
        <ele>78.9</ele>
        <time>2019-06-01T10:02:35Z</time>
      </trkpt>
      <trkpt lat="44.11464" lon="4.60698">
        <ele>78.9</ele>
        <time>2019-06-01T10:02:36Z</time>
      </trkpt>
      <trkpt lat="44.11466" lon="4.60702">
        <ele>78.9</ele>
        <time>2019-06-01T10:02:37Z</time>
      </trkpt>
      <trkpt lat="44.11468" lon="4.60707">
        <ele>78.9</ele>
        <time>2019-06-01T10:02:38Z</time>
      </trkpt>
      <trkpt lat="44.11471" lon="4.60712">
        <ele>78.9</ele>
        <time>2019-06-01T10:02:39Z</time>
      </trkpt>
      <trkpt lat="44.11473" lon="4.60717">
        <ele>79</ele>
        <time>2019-06-01T10:02:40Z</time>
      </trkpt>
      <trkpt lat="44.11475" lon="4.60722">
        <ele>79</ele>
        <time>2019-06-01T10:02:41Z</time>
      </trkpt>
      <trkpt lat="44.11476" lon="4.60727">
        <ele>79</ele>
        <time>2019-06-01T10:02:42Z</time>
      </trkpt>
      <trkpt lat="44.11478" lon="4.60732">
        <ele>79.1</ele>
        <time>2019-06-01T10:02:43Z</time>
      </trkpt>
      <trkpt lat="44.1148" lon="4.60737">
        <ele>79.1</ele>
        <time>2019-06-01T10:02:44Z</time>
      </trkpt>
      <trkpt lat="44.11482" lon="4.60742">
        <ele>79.2</ele>
        <time>2019-06-01T10:02:45Z</time>
      </trkpt>
      <trkpt lat="44.11484" lon="4.60748">
        <ele>79.2</ele>
        <time>2019-06-01T10:02:46Z</time>
      </trkpt>
      <trkpt lat="44.11485" lon="4.60754">
        <ele>79.3</ele>
        <time>2019-06-01T10:02:47Z</time>
      </trkpt>
      <trkpt lat="44.11487" lon="4.60761">
        <ele>79.3</ele>
        <time>2019-06-01T10:02:48Z</time>
      </trkpt>
      <trkpt lat="44.11487" lon="4.60768">
        <ele>79.4</ele>
        <time>2019-06-01T10:02:49Z</time>
      </trkpt>
      <trkpt lat="44.11485" lon="4.60779">
        <ele>79.5</ele>
        <time>2019-06-01T10:02:50Z</time>
      </trkpt>
      <trkpt lat="44.11484" lon="4.60786">
        <ele>79.5</ele>
        <time>2019-06-01T10:02:51Z</time>
      </trkpt>
      <trkpt lat="44.11484" lon="4.60791">
        <ele>79.6</ele>
        <time>2019-06-01T10:02:52Z</time>
      </trkpt>
      <trkpt lat="44.11482" lon="4.60798">
        <ele>79.7</ele>
        <time>2019-06-01T10:02:54Z</time>
      </trkpt>
      <trkpt lat="44.11483" lon="4.60803">
        <ele>79.7</ele>
        <time>2019-06-01T10:02:55Z</time>
      </trkpt>
      <trkpt lat="44.11482" lon="4.60806">
        <ele>79.8</ele>
        <time>2019-06-01T10:02:56Z</time>
      </trkpt>
      <trkpt lat="44.11481" lon="4.60813">
        <ele>79.8</ele>
        <time>2019-06-01T10:02:57Z</time>
      </trkpt>
      <trkpt lat="44.11482" lon="4.60818">
        <ele>79.9</ele>
        <time>2019-06-01T10:02:58Z</time>
      </trkpt>
      <trkpt lat="44.11481" lon="4.60824">
        <ele>79.9</ele>
        <time>2019-06-01T10:02:59Z</time>
      </trkpt>
      <trkpt lat="44.1148" lon="4.60832">
        <ele>79.8</ele>
        <time>2019-06-01T10:03:00Z</time>
      </trkpt>
      <trkpt lat="44.1148" lon="4.6084">
        <ele>79.7</ele>
        <time>2019-06-01T10:03:01Z</time>
      </trkpt>
      <trkpt lat="44.1148" lon="4.60847">
        <ele>79.5</ele>
        <time>2019-06-01T10:03:02Z</time>
      </trkpt>
      <trkpt lat="44.11481" lon="4.60857">
        <ele>79.3</ele>
        <time>2019-06-01T10:03:03Z</time>
      </trkpt>
      <trkpt lat="44.11482" lon="4.60866">
        <ele>79.1</ele>
        <time>2019-06-01T10:03:04Z</time>
      </trkpt>
      <trkpt lat="44.11482" lon="4.60872">
        <ele>78.9</ele>
        <time>2019-06-01T10:03:05Z</time>
      </trkpt>
      <trkpt lat="44.11482" lon="4.6088">
        <ele>78.6</ele>
        <time>2019-06-01T10:03:06Z</time>
      </trkpt>
      <trkpt lat="44.11482" lon="4.60888">
        <ele>78.3</ele>
        <time>2019-06-01T10:03:07Z</time>
      </trkpt>
      <trkpt lat="44.11481" lon="4.60895">
        <ele>78.1</ele>
        <time>2019-06-01T10:03:08Z</time>
      </trkpt>
      <trkpt lat="44.11481" lon="4.60902">
        <ele>77.8</ele>
        <time>2019-06-01T10:03:09Z</time>
      </trkpt>
      <trkpt lat="44.11481" lon="4.60909">
        <ele>77.4</ele>
        <time>2019-06-01T10:03:10Z</time>
      </trkpt>
      <trkpt lat="44.11481" lon="4.60917">
        <ele>77</ele>
        <time>2019-06-01T10:03:11Z</time>
      </trkpt>
      <trkpt lat="44.11481" lon="4.60925">
        <ele>76.7</ele>
        <time>2019-06-01T10:03:12Z</time>
      </trkpt>
      <trkpt lat="44.11481" lon="4.60932">
        <ele>76.7</ele>
        <time>2019-06-01T10:03:13Z</time>
      </trkpt>
      <trkpt lat="44.11481" lon="4.60939">
        <ele>76.3</ele>
        <time>2019-06-01T10:03:14Z</time>
      </trkpt>
      <trkpt lat="44.11481" lon="4.60946">
        <ele>76</ele>
        <time>2019-06-01T10:03:15Z</time>
      </trkpt>
      <trkpt lat="44.11481" lon="4.60953">
        <ele>75.8</ele>
        <time>2019-06-01T10:03:16Z</time>
      </trkpt>
      <trkpt lat="44.11481" lon="4.60961">
        <ele>75.7</ele>
        <time>2019-06-01T10:03:17Z</time>
      </trkpt>
      <trkpt lat="44.11481" lon="4.60968">
        <ele>75.7</ele>
        <time>2019-06-01T10:03:18Z</time>
      </trkpt>
      <trkpt lat="44.1148" lon="4.60975">
        <ele>75.7</ele>
        <time>2019-06-01T10:03:19Z</time>
      </trkpt>
      <trkpt lat="44.11479" lon="4.60983">
        <ele>75.8</ele>
        <time>2019-06-01T10:03:20Z</time>
      </trkpt>
      <trkpt lat="44.11479" lon="4.6099">
        <ele>75.8</ele>
        <time>2019-06-01T10:03:21Z</time>
      </trkpt>
      <trkpt lat="44.11479" lon="4.60998">
        <ele>75.8</ele>
        <time>2019-06-01T10:03:22Z</time>
      </trkpt>
      <trkpt lat="44.11479" lon="4.61005">
        <ele>75.9</ele>
        <time>2019-06-01T10:03:23Z</time>
      </trkpt>
      <trkpt lat="44.11479" lon="4.61013">
        <ele>76</ele>
        <time>2019-06-01T10:03:24Z</time>
      </trkpt>
      <trkpt lat="44.11479" lon="4.61018">
        <ele>76.1</ele>
        <time>2019-06-01T10:03:25Z</time>
      </trkpt>
      <trkpt lat="44.11479" lon="4.61024">
        <ele>76.2</ele>
        <time>2019-06-01T10:03:26Z</time>
      </trkpt>
      <trkpt lat="44.1148" lon="4.61033">
        <ele>76.6</ele>
        <time>2019-06-01T10:03:27Z</time>
      </trkpt>
      <trkpt lat="44.11479" lon="4.6104">
        <ele>76.9</ele>
        <time>2019-06-01T10:03:28Z</time>
      </trkpt>
      <trkpt lat="44.11479" lon="4.61048">
        <ele>77.3</ele>
        <time>2019-06-01T10:03:29Z</time>
      </trkpt>
      <trkpt lat="44.1148" lon="4.61057">
        <ele>77.6</ele>
        <time>2019-06-01T10:03:30Z</time>
      </trkpt>
      <trkpt lat="44.1148" lon="4.61064">
        <ele>77.9</ele>
        <time>2019-06-01T10:03:31Z</time>
      </trkpt>
      <trkpt lat="44.1148" lon="4.61072">
        <ele>78.2</ele>
        <time>2019-06-01T10:03:32Z</time>
      </trkpt>
      <trkpt lat="44.11481" lon="4.6108">
        <ele>78.4</ele>
        <time>2019-06-01T10:03:33Z</time>
      </trkpt>
      <trkpt lat="44.11482" lon="4.61088">
        <ele>78.6</ele>
        <time>2019-06-01T10:03:34Z</time>
      </trkpt>
      <trkpt lat="44.11482" lon="4.61095">
        <ele>78.7</ele>
        <time>2019-06-01T10:03:35Z</time>
      </trkpt>
      <trkpt lat="44.11484" lon="4.61102">
        <ele>78.7</ele>
        <time>2019-06-01T10:03:36Z</time>
      </trkpt>
      <trkpt lat="44.11485" lon="4.61109">
        <ele>78.8</ele>
        <time>2019-06-01T10:03:37Z</time>
      </trkpt>
      <trkpt lat="44.11486" lon="4.61116">
        <ele>78.8</ele>
        <time>2019-06-01T10:03:38Z</time>
      </trkpt>
      <trkpt lat="44.11487" lon="4.61122">
        <ele>78.9</ele>
        <time>2019-06-01T10:03:39Z</time>
      </trkpt>
      <trkpt lat="44.11488" lon="4.61129">
        <ele>79</ele>
        <time>2019-06-01T10:03:40Z</time>
      </trkpt>
      <trkpt lat="44.11489" lon="4.61135">
        <ele>78.9</ele>
        <time>2019-06-01T10:03:41Z</time>
      </trkpt>
      <trkpt lat="44.1149" lon="4.61141">
        <ele>78.9</ele>
        <time>2019-06-01T10:03:42Z</time>
      </trkpt>
      <trkpt lat="44.11491" lon="4.61148">
        <ele>78.9</ele>
        <time>2019-06-01T10:03:43Z</time>
      </trkpt>
      <trkpt lat="44.11492" lon="4.61154">
        <ele>78.9</ele>
        <time>2019-06-01T10:03:44Z</time>
      </trkpt>
      <trkpt lat="44.11493" lon="4.61159">
        <ele>78.8</ele>
        <time>2019-06-01T10:03:45Z</time>
      </trkpt>
      <trkpt lat="44.11494" lon="4.61165">
        <ele>78.9</ele>
        <time>2019-06-01T10:03:46Z</time>
      </trkpt>
      <trkpt lat="44.11495" lon="4.61171">
        <ele>79.1</ele>
        <time>2019-06-01T10:03:47Z</time>
      </trkpt>
      <trkpt lat="44.11497" lon="4.61177">
        <ele>79.2</ele>
        <time>2019-06-01T10:03:48Z</time>
      </trkpt>
      <trkpt lat="44.11497" lon="4.61182">
        <ele>79.2</ele>
        <time>2019-06-01T10:03:49Z</time>
      </trkpt>
      <trkpt lat="44.11499" lon="4.61188">
        <ele>79.2</ele>
        <time>2019-06-01T10:03:50Z</time>
      </trkpt>
      <trkpt lat="44.11499" lon="4.61194">
        <ele>79.3</ele>
        <time>2019-06-01T10:03:51Z</time>
      </trkpt>
      <trkpt lat="44.115" lon="4.61199">
        <ele>79.4</ele>
        <time>2019-06-01T10:03:52Z</time>
      </trkpt>
      <trkpt lat="44.11501" lon="4.61205">
        <ele>79.5</ele>
        <time>2019-06-01T10:03:53Z</time>
      </trkpt>
      <trkpt lat="44.11502" lon="4.61209">
        <ele>79.6</ele>
        <time>2019-06-01T10:03:54Z</time>
      </trkpt>
      <trkpt lat="44.11503" lon="4.61214">
        <ele>79.6</ele>
        <time>2019-06-01T10:03:55Z</time>
      </trkpt>
      <trkpt lat="44.11504" lon="4.61219">
        <ele>79.8</ele>
        <time>2019-06-01T10:03:56Z</time>
      </trkpt>
      <trkpt lat="44.11505" lon="4.61224">
        <ele>79.9</ele>
        <time>2019-06-01T10:03:57Z</time>
      </trkpt>
      <trkpt lat="44.11506" lon="4.61227">
        <ele>79.9</ele>
        <time>2019-06-01T10:03:58Z</time>
      </trkpt>
      <trkpt lat="44.11507" lon="4.61231">
        <ele>80</ele>
        <time>2019-06-01T10:03:59Z</time>
      </trkpt>
      <trkpt lat="44.11508" lon="4.61235">
        <ele>80</ele>
        <time>2019-06-01T10:04:00Z</time>
      </trkpt>
      <trkpt lat="44.1151" lon="4.61239">
        <ele>80.1</ele>
        <time>2019-06-01T10:04:01Z</time>
      </trkpt>
      <trkpt lat="44.11511" lon="4.61243">
        <ele>80.1</ele>
        <time>2019-06-01T10:04:02Z</time>
      </trkpt>
      <trkpt lat="44.11512" lon="4.61248">
        <ele>80.1</ele>
        <time>2019-06-01T10:04:03Z</time>
      </trkpt>
      <trkpt lat="44.11514" lon="4.61253">
        <ele>80.2</ele>
        <time>2019-06-01T10:04:04Z</time>
      </trkpt>
      <trkpt lat="44.11515" lon="4.61258">
        <ele>80.2</ele>
        <time>2019-06-01T10:04:05Z</time>
      </trkpt>
      <trkpt lat="44.11516" lon="4.61262">
        <ele>80.4</ele>
        <time>2019-06-01T10:04:06Z</time>
      </trkpt>
      <trkpt lat="44.11518" lon="4.61268">
        <ele>80.5</ele>
        <time>2019-06-01T10:04:07Z</time>
      </trkpt>
      <trkpt lat="44.11519" lon="4.61273">
        <ele>80.6</ele>
        <time>2019-06-01T10:04:08Z</time>
      </trkpt>
      <trkpt lat="44.1152" lon="4.61278">
        <ele>80.7</ele>
        <time>2019-06-01T10:04:09Z</time>
      </trkpt>
      <trkpt lat="44.11521" lon="4.61283">
        <ele>80.8</ele>
        <time>2019-06-01T10:04:10Z</time>
      </trkpt>
      <trkpt lat="44.11523" lon="4.61288">
        <ele>81</ele>
        <time>2019-06-01T10:04:11Z</time>
      </trkpt>
      <trkpt lat="44.11524" lon="4.61293">
        <ele>81</ele>
        <time>2019-06-01T10:04:12Z</time>
      </trkpt>
      <trkpt lat="44.11525" lon="4.61298">
        <ele>81.1</ele>
        <time>2019-06-01T10:04:13Z</time>
      </trkpt>
      <trkpt lat="44.11526" lon="4.61303">
        <ele>81.2</ele>
        <time>2019-06-01T10:04:14Z</time>
      </trkpt>
      <trkpt lat="44.11527" lon="4.61309">
        <ele>81.3</ele>
        <time>2019-06-01T10:04:15Z</time>
      </trkpt>
      <trkpt lat="44.11528" lon="4.61314">
        <ele>81.3</ele>
        <time>2019-06-01T10:04:16Z</time>
      </trkpt>
      <trkpt lat="44.11528" lon="4.61318">
        <ele>81.3</ele>
        <time>2019-06-01T10:04:17Z</time>
      </trkpt>
      <trkpt lat="44.11527" lon="4.61322">
        <ele>81.3</ele>
        <time>2019-06-01T10:04:18Z</time>
      </trkpt>
      <trkpt lat="44.11525" lon="4.61327">
        <ele>81.4</ele>
        <time>2019-06-01T10:04:20Z</time>
      </trkpt>
      <trkpt lat="44.11522" lon="4.6133">
        <ele>81.4</ele>
        <time>2019-06-01T10:04:22Z</time>
      </trkpt>
      <trkpt lat="44.11518" lon="4.61332">
        <ele>82</ele>
        <time>2019-06-01T10:04:24Z</time>
      </trkpt>
      <trkpt lat="44.11514" lon="4.61332">
        <ele>82</ele>
        <time>2019-06-01T10:04:26Z</time>
      </trkpt>
      <trkpt lat="44.11509" lon="4.61331">
        <ele>82.1</ele>
        <time>2019-06-01T10:04:28Z</time>
      </trkpt>
      <trkpt lat="44.11506" lon="4.6133">
        <ele>82.2</ele>
        <time>2019-06-01T10:04:29Z</time>
      </trkpt>
      <trkpt lat="44.11504" lon="4.61328">
        <ele>82.2</ele>
        <time>2019-06-01T10:04:30Z</time>
      </trkpt>
      <trkpt lat="44.11501" lon="4.61325">
        <ele>82.3</ele>
        <time>2019-06-01T10:04:31Z</time>
      </trkpt>
      <trkpt lat="44.11497" lon="4.61321">
        <ele>82.5</ele>
        <time>2019-06-01T10:04:33Z</time>
      </trkpt>
      <trkpt lat="44.11492" lon="4.61318">
        <ele>82.6</ele>
        <time>2019-06-01T10:04:35Z</time>
      </trkpt>
      <trkpt lat="44.1149" lon="4.61316">
        <ele>82.7</ele>
        <time>2019-06-01T10:04:36Z</time>
      </trkpt>
      <trkpt lat="44.11486" lon="4.61311">
        <ele>82.8</ele>
        <time>2019-06-01T10:04:38Z</time>
      </trkpt>
      <trkpt lat="44.11482" lon="4.61307">
        <ele>82.9</ele>
        <time>2019-06-01T10:04:40Z</time>
      </trkpt>
      <trkpt lat="44.11477" lon="4.61303">
        <ele>83.1</ele>
        <time>2019-06-01T10:04:42Z</time>
      </trkpt>
      <trkpt lat="44.11473" lon="4.613">
        <ele>83.5</ele>
        <time>2019-06-01T10:04:44Z</time>
      </trkpt>
      <trkpt lat="44.11471" lon="4.61298">
        <ele>83.6</ele>
        <time>2019-06-01T10:04:45Z</time>
      </trkpt>
      <trkpt lat="44.11469" lon="4.61296">
        <ele>83.8</ele>
        <time>2019-06-01T10:04:46Z</time>
      </trkpt>
      <trkpt lat="44.11466" lon="4.61294">
        <ele>83.9</ele>
        <time>2019-06-01T10:04:47Z</time>
      </trkpt>
      <trkpt lat="44.11462" lon="4.6129">
        <ele>84.2</ele>
        <time>2019-06-01T10:04:49Z</time>
      </trkpt>
      <trkpt lat="44.11457" lon="4.61286">
        <ele>84.4</ele>
        <time>2019-06-01T10:04:51Z</time>
      </trkpt>
      <trkpt lat="44.11454" lon="4.61281">
        <ele>84.6</ele>
        <time>2019-06-01T10:04:53Z</time>
      </trkpt>
      <trkpt lat="44.11451" lon="4.61277">
        <ele>84.8</ele>
        <time>2019-06-01T10:04:55Z</time>
      </trkpt>
      <trkpt lat="44.11448" lon="4.61273">
        <ele>84.9</ele>
        <time>2019-06-01T10:04:57Z</time>
      </trkpt>
      <trkpt lat="44.11445" lon="4.61271">
        <ele>85</ele>
        <time>2019-06-01T10:04:59Z</time>
      </trkpt>
      <trkpt lat="44.11441" lon="4.61268">
        <ele>85.1</ele>
        <time>2019-06-01T10:05:01Z</time>
      </trkpt>
      <trkpt lat="44.11437" lon="4.61265">
        <ele>85.3</ele>
        <time>2019-06-01T10:05:03Z</time>
      </trkpt>
      <trkpt lat="44.11434" lon="4.61262">
        <ele>85.4</ele>
        <time>2019-06-01T10:05:05Z</time>
      </trkpt>
      <trkpt lat="44.11432" lon="4.6126">
        <ele>85.6</ele>
        <time>2019-06-01T10:05:07Z</time>
      </trkpt>
      <trkpt lat="44.11431" lon="4.61255">
        <ele>85.7</ele>
        <time>2019-06-01T10:05:09Z</time>
      </trkpt>
      <trkpt lat="44.1143" lon="4.61251">
        <ele>85.8</ele>
        <time>2019-06-01T10:05:11Z</time>
      </trkpt>
    </trkseg>
  </trk>
</gpx>